<?xml version='1.0' encoding='UTF-8'?><gpx version="1.1" creator="JPX - https://github.com/jenetics/jpx" xmlns="http://www.topografix.com/GPX/1/1"><trk><trkseg><trkpt lat="41.138175007975704" lon="9.477619980379181"><ele>25.999999999999996</ele><time>2026-05-02T07:59:17Z</time></trkpt><trkpt lat="41.138080867042646" lon="9.477681852810354"><ele>26.0</ele><time>2026-05-02T07:59:19Z</time></trkpt><trkpt lat="41.13800517225858" lon="9.47768881387743"><ele>26.0</ele><time>2026-05-02T07:59:20Z</time></trkpt><trkpt lat="41.13792574285653" lon="9.47769361906199"><ele>26.0</ele><time>2026-05-02T07:59:21Z</time></trkpt><trkpt lat="41.137852958187885" lon="9.477668795862218"><ele>25.999999999999996</ele><time>2026-05-02T07:59:22Z</time></trkpt><trkpt lat="41.137811568992745" lon="9.47755813077498"><ele>26.0</ele><time>2026-05-02T07:59:23Z</time></trkpt><trkpt lat="41.1377371316459" lon="9.477492705573091"><ele>25.999999999999996</ele><time>2026-05-02T07:59:24Z</time></trkpt><trkpt lat="41.13767082401671" lon="9.47743331172718"><ele>26.0</ele><time>2026-05-02T07:59:25Z</time></trkpt><trkpt lat="41.137617807541034" lon="9.477382521921308"><ele>26.0</ele><time>2026-05-02T07:59:26Z</time></trkpt><trkpt lat="41.13755519809847" lon="9.477341371575136"><ele>26.0</ele><time>2026-05-02T07:59:27Z</time></trkpt><trkpt lat="41.13749687002399" lon="9.477227242499529"><ele>25.999999999999996</ele><time>2026-05-02T07:59:29Z</time></trkpt><trkpt lat="41.137405808139285" lon="9.477261891907261"><ele>26.0</ele><time>2026-05-02T07:59:30Z</time></trkpt><trkpt lat="41.13733296311197" lon="9.477295346257211"><ele>25.6</ele><time>2026-05-02T07:59:31Z</time></trkpt><trkpt lat="41.137244155724225" lon="9.477336329747425"><ele>25.200000000000003</ele><time>2026-05-02T07:59:32Z</time></trkpt><trkpt lat="41.13714812332536" lon="9.477380843063871"><ele>24.799999999999997</ele><time>2026-05-02T07:59:33Z</time></trkpt><trkpt lat="41.13704897432266" lon="9.477447127717008"><ele>24.4</ele><time>2026-05-02T07:59:34Z</time></trkpt><trkpt lat="41.136944210496395" lon="9.477483430805796"><ele>24.0</ele><time>2026-05-02T07:59:35Z</time></trkpt><trkpt lat="41.13684481897304" lon="9.477532296882602"><ele>24.0</ele><time>2026-05-02T07:59:36Z</time></trkpt><trkpt lat="41.13674552039197" lon="9.477579939844748"><ele>24.0</ele><time>2026-05-02T07:59:37Z</time></trkpt><trkpt lat="41.13664562458955" lon="9.477624945447301"><ele>24.0</ele><time>2026-05-02T07:59:38Z</time></trkpt><trkpt lat="41.13654877121476" lon="9.477674825524213"><ele>24.0</ele><time>2026-05-02T07:59:39Z</time></trkpt><trkpt lat="41.13644851369263" lon="9.4777026225064"><ele>24.0</ele><time>2026-05-02T07:59:40Z</time></trkpt><trkpt lat="41.136361532229365" lon="9.47774371776443"><ele>25.0</ele><time>2026-05-02T07:59:41Z</time></trkpt><trkpt lat="41.136297732544946" lon="9.477774328166861"><ele>26.0</ele><time>2026-05-02T07:59:42Z</time></trkpt><trkpt lat="41.13619749021384" lon="9.477839674314243"><ele>27.0</ele><time>2026-05-02T07:59:44Z</time></trkpt><trkpt lat="41.136114153321785" lon="9.477867140109119"><ele>28.0</ele><time>2026-05-02T07:59:46Z</time></trkpt><trkpt lat="41.136028908417686" lon="9.477799892684487"><ele>29.0</ele><time>2026-05-02T07:59:48Z</time></trkpt><trkpt lat="41.13596481705266" lon="9.47775315312445"><ele>30.0</ele><time>2026-05-02T07:59:49Z</time></trkpt><trkpt lat="41.13588744045097" lon="9.477698248118665"><ele>30.0</ele><time>2026-05-02T07:59:50Z</time></trkpt><trkpt lat="41.135822791181916" lon="9.477659213556429"><ele>30.0</ele><time>2026-05-02T07:59:51Z</time></trkpt><trkpt lat="41.135765465981024" lon="9.477618263454351"><ele>30.0</ele><time>2026-05-02T07:59:52Z</time></trkpt><trkpt lat="41.13567263789548" lon="9.477541342404441"><ele>30.0</ele><time>2026-05-02T07:59:54Z</time></trkpt><trkpt lat="41.13560159896218" lon="9.47749539713711"><ele>30.0</ele><time>2026-05-02T07:59:56Z</time></trkpt><trkpt lat="41.135536582777924" lon="9.477450682267472"><ele>30.0</ele><time>2026-05-02T07:59:58Z</time></trkpt><trkpt lat="41.1354725418163" lon="9.477415556067596"><ele>30.4</ele><time>2026-05-02T08:00:19Z</time></trkpt><trkpt lat="41.13535763684149" lon="9.477338475244308"><ele>30.8</ele><time>2026-05-02T08:00:21Z</time></trkpt><trkpt lat="41.135277092597924" lon="9.477315193513913"><ele>31.200000000000003</ele><time>2026-05-02T08:00:22Z</time></trkpt><trkpt lat="41.13520965263524" lon="9.477258988732201"><ele>31.6</ele><time>2026-05-02T08:00:23Z</time></trkpt><trkpt lat="41.13512001872283" lon="9.47723852725215"><ele>32.0</ele><time>2026-05-02T08:00:24Z</time></trkpt><trkpt lat="41.135023247024144" lon="9.477201024503948"><ele>32.0</ele><time>2026-05-02T08:00:25Z</time></trkpt><trkpt lat="41.134921237479375" lon="9.477163163386969"><ele>32.0</ele><time>2026-05-02T08:00:26Z</time></trkpt><trkpt lat="41.13481138783883" lon="9.477128834825626"><ele>32.0</ele><time>2026-05-02T08:00:27Z</time></trkpt><trkpt lat="41.13470243832625" lon="9.477094868080876"><ele>32.0</ele><time>2026-05-02T08:00:28Z</time></trkpt><trkpt lat="41.13458868056503" lon="9.477061112650802"><ele>32.0</ele><time>2026-05-02T08:00:29Z</time></trkpt><trkpt lat="41.134466985712955" lon="9.477027030153282"><ele>30.0</ele><time>2026-05-02T08:00:30Z</time></trkpt><trkpt lat="41.13433097888607" lon="9.476995793908877"><ele>28.0</ele><time>2026-05-02T08:00:31Z</time></trkpt><trkpt lat="41.13418894288916" lon="9.476969045915927"><ele>26.0</ele><time>2026-05-02T08:00:32Z</time></trkpt><trkpt lat="41.13405401074749" lon="9.476933427694094"><ele>24.0</ele><time>2026-05-02T08:00:33Z</time></trkpt><trkpt lat="41.13392756134151" lon="9.4769065871064"><ele>23.0</ele><time>2026-05-02T08:00:34Z</time></trkpt><trkpt lat="41.133828160715865" lon="9.476859574901466"><ele>22.0</ele><time>2026-05-02T08:00:35Z</time></trkpt><trkpt lat="41.13373957032096" lon="9.476839601366729"><ele>21.0</ele><time>2026-05-02T08:00:36Z</time></trkpt><trkpt lat="41.13366079086137" lon="9.476822894767844"><ele>20.0</ele><time>2026-05-02T08:00:37Z</time></trkpt><trkpt lat="41.13359449502222" lon="9.476808835530786"><ele>19.0</ele><time>2026-05-02T08:00:38Z</time></trkpt><trkpt lat="41.13352425660549" lon="9.477046970492037"><ele>19.333333333333332</ele><time>2026-05-02T08:00:40Z</time></trkpt><trkpt lat="41.13349758919638" lon="9.477143239517096"><ele>19.666666666666664</ele><time>2026-05-02T08:00:41Z</time></trkpt><trkpt lat="41.133509310230735" lon="9.47723950119598"><ele>20.0</ele><time>2026-05-02T08:00:42Z</time></trkpt><trkpt lat="41.133526458985344" lon="9.477334012144617"><ele>20.333333333333332</ele><time>2026-05-02T08:00:43Z</time></trkpt><trkpt lat="41.13353040365243" lon="9.477434781848515"><ele>20.666666666666668</ele><time>2026-05-02T08:00:44Z</time></trkpt><trkpt lat="41.13351610431389" lon="9.477541615081497"><ele>21.0</ele><time>2026-05-02T08:00:45Z</time></trkpt><trkpt lat="41.13349601937819" lon="9.477657061283747"><ele>21.0</ele><time>2026-05-02T08:00:46Z</time></trkpt><trkpt lat="41.13347360783104" lon="9.477777034154041"><ele>21.0</ele><time>2026-05-02T08:00:47Z</time></trkpt><trkpt lat="41.13345035140345" lon="9.477908932558261"><ele>21.0</ele><time>2026-05-02T08:00:48Z</time></trkpt><trkpt lat="41.133428985978455" lon="9.478044522962765"><ele>21.0</ele><time>2026-05-02T08:00:49Z</time></trkpt><trkpt lat="41.13340540631674" lon="9.478184533701649"><ele>21.0</ele><time>2026-05-02T08:00:50Z</time></trkpt><trkpt lat="41.13337832290735" lon="9.47833062139864"><ele>22.0</ele><time>2026-05-02T08:00:51Z</time></trkpt><trkpt lat="41.13335437030649" lon="9.47848051743305"><ele>23.0</ele><time>2026-05-02T08:00:52Z</time></trkpt><trkpt lat="41.13332779498732" lon="9.478633780438477"><ele>24.0</ele><time>2026-05-02T08:00:53Z</time></trkpt><trkpt lat="41.13330400848017" lon="9.478789279949892"><ele>25.0</ele><time>2026-05-02T08:00:54Z</time></trkpt><trkpt lat="41.1332769657394" lon="9.47894710637615"><ele>25.0</ele><time>2026-05-02T08:00:55Z</time></trkpt><trkpt lat="41.13324809065988" lon="9.479104108458264"><ele>25.0</ele><time>2026-05-02T08:00:56Z</time></trkpt><trkpt lat="41.13321643123533" lon="9.479266476797557"><ele>25.0</ele><time>2026-05-02T08:00:57Z</time></trkpt><trkpt lat="41.1331866179507" lon="9.479433070787328"><ele>25.0</ele><time>2026-05-02T08:00:58Z</time></trkpt><trkpt lat="41.133157911509926" lon="9.479608258821543"><ele>23.25</ele><time>2026-05-02T08:00:59Z</time></trkpt><trkpt lat="41.13313376341098" lon="9.479790181899117"><ele>21.5</ele><time>2026-05-02T08:01:00Z</time></trkpt><trkpt lat="41.133105923043765" lon="9.479971039653819"><ele>19.75</ele><time>2026-05-02T08:01:01Z</time></trkpt><trkpt lat="41.133084323283704" lon="9.480151694751132"><ele>18.0</ele><time>2026-05-02T08:01:02Z</time></trkpt><trkpt lat="41.13306636531381" lon="9.480323232822375"><ele>18.25</ele><time>2026-05-02T08:01:03Z</time></trkpt><trkpt lat="41.133050853861114" lon="9.480510058338957"><ele>18.5</ele><time>2026-05-02T08:01:04Z</time></trkpt><trkpt lat="41.13302727779411" lon="9.480694925874683"><ele>18.75</ele><time>2026-05-02T08:01:05Z</time></trkpt><trkpt lat="41.133004568433954" lon="9.48088053403288"><ele>19.0</ele><time>2026-05-02T08:01:06Z</time></trkpt><trkpt lat="41.13298196899867" lon="9.48107394074763"><ele>19.0</ele><time>2026-05-02T08:01:07Z</time></trkpt><trkpt lat="41.132961340519316" lon="9.481259891005765"><ele>19.0</ele><time>2026-05-02T08:01:08Z</time></trkpt><trkpt lat="41.132938467776775" lon="9.481441898105823"><ele>19.0</ele><time>2026-05-02T08:01:09Z</time></trkpt><trkpt lat="41.13291331537038" lon="9.48163285791074"><ele>19.0</ele><time>2026-05-02T08:01:10Z</time></trkpt><trkpt lat="41.13289959976602" lon="9.481818280104708"><ele>19.5</ele><time>2026-05-02T08:01:11Z</time></trkpt><trkpt lat="41.13287822683488" lon="9.482005491964356"><ele>20.0</ele><time>2026-05-02T08:01:12Z</time></trkpt><trkpt lat="41.132856250503" lon="9.482193133797612"><ele>20.5</ele><time>2026-05-02T08:01:13Z</time></trkpt><trkpt lat="41.13283737611546" lon="9.48237667459844"><ele>21.0</ele><time>2026-05-02T08:01:14Z</time></trkpt><trkpt lat="41.132820163796026" lon="9.482556269716634"><ele>21.75</ele><time>2026-05-02T08:01:15Z</time></trkpt><trkpt lat="41.13279707132718" lon="9.482744680280451"><ele>22.5</ele><time>2026-05-02T08:01:16Z</time></trkpt><trkpt lat="41.132774145943074" lon="9.482915945638887"><ele>23.25</ele><time>2026-05-02T08:01:17Z</time></trkpt><trkpt lat="41.13275329541057" lon="9.483107543621635"><ele>24.0</ele><time>2026-05-02T08:01:18Z</time></trkpt><trkpt lat="41.132730508214166" lon="9.483299142795646"><ele>24.75</ele><time>2026-05-02T08:01:19Z</time></trkpt><trkpt lat="41.13271274378961" lon="9.48349210577396"><ele>25.5</ele><time>2026-05-02T08:01:20Z</time></trkpt><trkpt lat="41.132692257560386" lon="9.483687987420268"><ele>26.25</ele><time>2026-05-02T08:01:21Z</time></trkpt><trkpt lat="41.1326782229265" lon="9.48388695730387"><ele>27.0</ele><time>2026-05-02T08:01:22Z</time></trkpt><trkpt lat="41.13266987377454" lon="9.484090055659507"><ele>28.0</ele><time>2026-05-02T08:01:23Z</time></trkpt><trkpt lat="41.132665890077774" lon="9.484292341500641"><ele>29.0</ele><time>2026-05-02T08:01:24Z</time></trkpt><trkpt lat="41.132662733668965" lon="9.484491971095185"><ele>30.0</ele><time>2026-05-02T08:01:25Z</time></trkpt><trkpt lat="41.132657945367534" lon="9.484702118200499"><ele>30.666666666666664</ele><time>2026-05-02T08:01:26Z</time></trkpt><trkpt lat="41.13265435638738" lon="9.484904690472396"><ele>31.333333333333332</ele><time>2026-05-02T08:01:27Z</time></trkpt><trkpt lat="41.13265043223969" lon="9.485108323772131"><ele>32.0</ele><time>2026-05-02T08:01:28Z</time></trkpt><trkpt lat="41.13264594882849" lon="9.485315518398874"><ele>32.666666666666664</ele><time>2026-05-02T08:01:29Z</time></trkpt><trkpt lat="41.13264056307525" lon="9.485515526953163"><ele>33.333333333333336</ele><time>2026-05-02T08:01:30Z</time></trkpt><trkpt lat="41.13263762277124" lon="9.485721255639383"><ele>34.0</ele><time>2026-05-02T08:01:31Z</time></trkpt><trkpt lat="41.13264178214563" lon="9.485922769063542"><ele>34.0</ele><time>2026-05-02T08:01:32Z</time></trkpt><trkpt lat="41.132668084144214" lon="9.486119677325423"><ele>34.0</ele><time>2026-05-02T08:01:33Z</time></trkpt><trkpt lat="41.132711294374104" lon="9.486314114046818"><ele>34.0</ele><time>2026-05-02T08:01:34Z</time></trkpt><trkpt lat="41.13277054523206" lon="9.48650467401708"><ele>36.0</ele><time>2026-05-02T08:01:35Z</time></trkpt><trkpt lat="41.13284379705136" lon="9.486682029593076"><ele>38.0</ele><time>2026-05-02T08:01:36Z</time></trkpt><trkpt lat="41.132929323274865" lon="9.486858307147859"><ele>40.0</ele><time>2026-05-02T08:01:36.999Z</time></trkpt><trkpt lat="41.13301662709877" lon="9.487025520241145"><ele>42.333333333333336</ele><time>2026-05-02T08:01:37.999Z</time></trkpt><trkpt lat="41.133106594297885" lon="9.487200113305361"><ele>44.666666666666664</ele><time>2026-05-02T08:01:38.999Z</time></trkpt><trkpt lat="41.1331847696399" lon="9.487380448176173"><ele>47.0</ele><time>2026-05-02T08:01:39.999Z</time></trkpt><trkpt lat="41.133260066266864" lon="9.487566316821797"><ele>47.0</ele><time>2026-05-02T08:01:40.999Z</time></trkpt><trkpt lat="41.13332957299992" lon="9.487756894550383"><ele>47.0</ele><time>2026-05-02T08:01:41.999Z</time></trkpt><trkpt lat="41.133393787333794" lon="9.487954333508934"><ele>47.0</ele><time>2026-05-02T08:01:42.999Z</time></trkpt><trkpt lat="41.133449892203686" lon="9.488162078624521"><ele>49.33333333333333</ele><time>2026-05-02T08:01:43.999Z</time></trkpt><trkpt lat="41.13350058043793" lon="9.488364866388142"><ele>51.666666666666664</ele><time>2026-05-02T08:01:44.999Z</time></trkpt><trkpt lat="41.13353325105497" lon="9.488576311060598"><ele>54.0</ele><time>2026-05-02T08:01:45.999Z</time></trkpt><trkpt lat="41.13353481589466" lon="9.488788516695799"><ele>56.0</ele><time>2026-05-02T08:01:46.999Z</time></trkpt><trkpt lat="41.13350321732771" lon="9.488999715956279"><ele>58.0</ele><time>2026-05-02T08:01:47.999Z</time></trkpt><trkpt lat="41.133485710853336" lon="9.489210751978293"><ele>60.0</ele><time>2026-05-02T08:01:48.999Z</time></trkpt><trkpt lat="41.13344376221446" lon="9.48941243715482"><ele>60.0</ele><time>2026-05-02T08:01:49.999Z</time></trkpt><trkpt lat="41.133392424951374" lon="9.489609923901249"><ele>60.0</ele><time>2026-05-02T08:01:50.999Z</time></trkpt><trkpt lat="41.133326830408954" lon="9.489792171543947"><ele>60.0</ele><time>2026-05-02T08:01:52Z</time></trkpt><trkpt lat="41.1332432782451" lon="9.489964509486317"><ele>60.66666666666667</ele><time>2026-05-02T08:01:53Z</time></trkpt><trkpt lat="41.133134543494656" lon="9.49011304234012"><ele>61.333333333333336</ele><time>2026-05-02T08:01:54Z</time></trkpt><trkpt lat="41.133043394195724" lon="9.490278303711344"><ele>62.0</ele><time>2026-05-02T08:01:55Z</time></trkpt><trkpt lat="41.13293628660146" lon="9.490426969800746"><ele>62.0</ele><time>2026-05-02T08:01:56Z</time></trkpt><trkpt lat="41.13283300789792" lon="9.49058032585745"><ele>62.0</ele><time>2026-05-02T08:01:57Z</time></trkpt><trkpt lat="41.13273804408515" lon="9.490743931832966"><ele>62.0</ele><time>2026-05-02T08:01:58Z</time></trkpt><trkpt lat="41.13266668014409" lon="9.490922538355514"><ele>62.0</ele><time>2026-05-02T08:01:59Z</time></trkpt><trkpt lat="41.13262029097669" lon="9.491119607759407"><ele>62.0</ele><time>2026-05-02T08:02:00Z</time></trkpt><trkpt lat="41.13260141066954" lon="9.491324399750324"><ele>62.0</ele><time>2026-05-02T08:02:01Z</time></trkpt><trkpt lat="41.13260610602523" lon="9.491525119078183"><ele>60.333333333333336</ele><time>2026-05-02T08:02:02Z</time></trkpt><trkpt lat="41.13264078040686" lon="9.49173483203671"><ele>58.66666666666667</ele><time>2026-05-02T08:02:03Z</time></trkpt><trkpt lat="41.13270617270901" lon="9.491921484357215"><ele>57.0</ele><time>2026-05-02T08:02:04Z</time></trkpt><trkpt lat="41.13280022383881" lon="9.492092788276178"><ele>60.33333333333333</ele><time>2026-05-02T08:02:05Z</time></trkpt><trkpt lat="41.13290393183499" lon="9.492244773661259"><ele>63.666666666666664</ele><time>2026-05-02T08:02:06Z</time></trkpt><trkpt lat="41.133013776837835" lon="9.49238824497038"><ele>67.0</ele><time>2026-05-02T08:02:07Z</time></trkpt><trkpt lat="41.13312935550509" lon="9.492537409903186"><ele>62.666666666666664</ele><time>2026-05-02T08:02:08Z</time></trkpt><trkpt lat="41.13324337382565" lon="9.492686432351219"><ele>58.33333333333333</ele><time>2026-05-02T08:02:09Z</time></trkpt><trkpt lat="41.133353977387536" lon="9.492837775895719"><ele>54.0</ele><time>2026-05-02T08:02:10Z</time></trkpt><trkpt lat="41.13346175773047" lon="9.49299321725647"><ele>54.0</ele><time>2026-05-02T08:02:11Z</time></trkpt><trkpt lat="41.133559396628854" lon="9.49314805032314"><ele>54.0</ele><time>2026-05-02T08:02:12Z</time></trkpt><trkpt lat="41.13363350626789" lon="9.493279517073528"><ele>54.0</ele><time>2026-05-02T08:02:13Z</time></trkpt><trkpt lat="41.133691398840625" lon="9.493396344951783"><ele>54.0</ele><time>2026-05-02T08:02:14Z</time></trkpt><trkpt lat="41.13374039708831" lon="9.49352415006169"><ele>54.0</ele><time>2026-05-02T08:02:15Z</time></trkpt><trkpt lat="41.133782892405364" lon="9.493653133316815"><ele>54.0</ele><time>2026-05-02T08:02:16Z</time></trkpt><trkpt lat="41.133823489576706" lon="9.493787935427147"><ele>54.0</ele><time>2026-05-02T08:02:17Z</time></trkpt><trkpt lat="41.133863692067806" lon="9.493929649889644"><ele>54.0</ele><time>2026-05-02T08:02:18Z</time></trkpt><trkpt lat="41.13390409180706" lon="9.494080489356545"><ele>58.0</ele><time>2026-05-02T08:02:19Z</time></trkpt><trkpt lat="41.13394781017736" lon="9.49423596580538"><ele>62.0</ele><time>2026-05-02T08:02:20Z</time></trkpt><trkpt lat="41.13399320575316" lon="9.494392398104022"><ele>66.0</ele><time>2026-05-02T08:02:21Z</time></trkpt><trkpt lat="41.13403321569728" lon="9.494558580864707"><ele>70.0</ele><time>2026-05-02T08:02:22Z</time></trkpt><trkpt lat="41.134063787633494" lon="9.494737216505454"><ele>68.25</ele><time>2026-05-02T08:02:23Z</time></trkpt><trkpt lat="41.13407440553474" lon="9.494924550535252"><ele>66.5</ele><time>2026-05-02T08:02:24Z</time></trkpt><trkpt lat="41.13404648371202" lon="9.495113330189756"><ele>64.75</ele><time>2026-05-02T08:02:25Z</time></trkpt><trkpt lat="41.134013628851584" lon="9.495299697114483"><ele>63.0</ele><time>2026-05-02T08:02:26Z</time></trkpt><trkpt lat="41.13396162768823" lon="9.495482278534453"><ele>58.33333333333333</ele><time>2026-05-02T08:02:27Z</time></trkpt><trkpt lat="41.13391760597752" lon="9.495679062239892"><ele>53.666666666666664</ele><time>2026-05-02T08:02:28Z</time></trkpt><trkpt lat="41.13385348738264" lon="9.495868145453459"><ele>49.0</ele><time>2026-05-02T08:02:29Z</time></trkpt><trkpt lat="41.13380837816787" lon="9.496062057042707"><ele>42.0</ele><time>2026-05-02T08:02:30Z</time></trkpt><trkpt lat="41.13378611613598" lon="9.496271137649746"><ele>35.0</ele><time>2026-05-02T08:02:31Z</time></trkpt><trkpt lat="41.13377559834871" lon="9.49648111772439"><ele>28.0</ele><time>2026-05-02T08:02:32Z</time></trkpt><trkpt lat="41.133821143557164" lon="9.496693243501804"><ele>28.0</ele><time>2026-05-02T08:02:33Z</time></trkpt><trkpt lat="41.13387229380731" lon="9.496892516500127"><ele>28.0</ele><time>2026-05-02T08:02:34Z</time></trkpt><trkpt lat="41.13394553897198" lon="9.497077930906098"><ele>28.0</ele><time>2026-05-02T08:02:35Z</time></trkpt><trkpt lat="41.13403226612166" lon="9.497249460349396"><ele>27.0</ele><time>2026-05-02T08:02:36Z</time></trkpt><trkpt lat="41.134133141712816" lon="9.497386802465595"><ele>26.0</ele><time>2026-05-02T08:02:37Z</time></trkpt><trkpt lat="41.13424192155788" lon="9.497506214900055"><ele>25.0</ele><time>2026-05-02T08:02:38Z</time></trkpt><trkpt lat="41.1343569973723" lon="9.497596348507276"><ele>24.0</ele><time>2026-05-02T08:02:39Z</time></trkpt><trkpt lat="41.13447342347969" lon="9.497666684226342"><ele>24.0</ele><time>2026-05-02T08:02:40Z</time></trkpt><trkpt lat="41.13457239173994" lon="9.49775278102732"><ele>24.0</ele><time>2026-05-02T08:02:41Z</time></trkpt><trkpt lat="41.1346690351748" lon="9.497822765599613"><ele>24.0</ele><time>2026-05-02T08:02:42Z</time></trkpt><trkpt lat="41.13480907631632" lon="9.497907331447157"><ele>24.0</ele><time>2026-05-02T08:02:43Z</time></trkpt><trkpt lat="41.13492565130103" lon="9.497996380037055"><ele>25.5</ele><time>2026-05-02T08:02:44Z</time></trkpt><trkpt lat="41.135039052137365" lon="9.498089455098196"><ele>27.0</ele><time>2026-05-02T08:02:45Z</time></trkpt><trkpt lat="41.13514554014252" lon="9.498194092964155"><ele>28.5</ele><time>2026-05-02T08:02:46Z</time></trkpt><trkpt lat="41.1352412236235" lon="9.498315921804897"><ele>30.0</ele><time>2026-05-02T08:02:47Z</time></trkpt><trkpt lat="41.13532941100953" lon="9.498444586394887"><ele>30.0</ele><time>2026-05-02T08:02:48Z</time></trkpt><trkpt lat="41.13541088125976" lon="9.498578847100376"><ele>30.0</ele><time>2026-05-02T08:02:49Z</time></trkpt><trkpt lat="41.13548812482408" lon="9.498722878530348"><ele>30.0</ele><time>2026-05-02T08:02:50Z</time></trkpt><trkpt lat="41.13555482658203" lon="9.498876877386477"><ele>30.0</ele><time>2026-05-02T08:02:51Z</time></trkpt><trkpt lat="41.13561938284506" lon="9.499034319177538"><ele>31.75</ele><time>2026-05-02T08:02:52Z</time></trkpt><trkpt lat="41.13567988852107" lon="9.499196170678358"><ele>33.5</ele><time>2026-05-02T08:02:53Z</time></trkpt><trkpt lat="41.13573925245112" lon="9.499362566726678"><ele>35.25</ele><time>2026-05-02T08:02:54Z</time></trkpt><trkpt lat="41.13579827450396" lon="9.49953039852119"><ele>37.0</ele><time>2026-05-02T08:02:55Z</time></trkpt><trkpt lat="41.135862726286256" lon="9.49969289704241"><ele>37.0</ele><time>2026-05-02T08:02:56Z</time></trkpt><trkpt lat="41.13594092138026" lon="9.499844769942452"><ele>37.0</ele><time>2026-05-02T08:02:57Z</time></trkpt><trkpt lat="41.136037284678636" lon="9.499980737303035"><ele>37.0</ele><time>2026-05-02T08:02:58Z</time></trkpt><trkpt lat="41.13614882044141" lon="9.50010681125911"><ele>37.0</ele><time>2026-05-02T08:02:59Z</time></trkpt><trkpt lat="41.136259233243905" lon="9.500227372897802"><ele>37.0</ele><time>2026-05-02T08:03:00Z</time></trkpt><trkpt lat="41.1363733747314" lon="9.500342102943018"><ele>37.0</ele><time>2026-05-02T08:03:01Z</time></trkpt><trkpt lat="41.13647723976902" lon="9.500476608655518"><ele>37.0</ele><time>2026-05-02T08:03:02Z</time></trkpt><trkpt lat="41.13658813024823" lon="9.50060144090478"><ele>37.0</ele><time>2026-05-02T08:03:03Z</time></trkpt><trkpt lat="41.13670642825769" lon="9.500715877771077"><ele>37.25</ele><time>2026-05-02T08:03:04Z</time></trkpt><trkpt lat="41.13681741138852" lon="9.500845380301104"><ele>37.5</ele><time>2026-05-02T08:03:05Z</time></trkpt><trkpt lat="41.13692501502951" lon="9.500980617395884"><ele>37.75</ele><time>2026-05-02T08:03:06Z</time></trkpt><trkpt lat="41.13700844339233" lon="9.501148813590671"><ele>38.0</ele><time>2026-05-02T08:03:07Z</time></trkpt><trkpt lat="41.13705068727455" lon="9.501347632711834"><ele>38.0</ele><time>2026-05-02T08:03:08Z</time></trkpt><trkpt lat="41.13708394712951" lon="9.501549569920655"><ele>38.0</ele><time>2026-05-02T08:03:09Z</time></trkpt><trkpt lat="41.137069964494884" lon="9.501762476667517"><ele>38.0</ele><time>2026-05-02T08:03:10Z</time></trkpt><trkpt lat="41.13706255766433" lon="9.501981016773076"><ele>34.666666666666664</ele><time>2026-05-02T08:03:11Z</time></trkpt><trkpt lat="41.13702615567173" lon="9.50219598278273"><ele>31.333333333333336</ele><time>2026-05-02T08:03:12Z</time></trkpt><trkpt lat="41.13698738144377" lon="9.502415008251056"><ele>28.0</ele><time>2026-05-02T08:03:13Z</time></trkpt><trkpt lat="41.136947546799796" lon="9.502632813945796"><ele>28.0</ele><time>2026-05-02T08:03:14Z</time></trkpt><trkpt lat="41.13690928368279" lon="9.502851298032878"><ele>28.0</ele><time>2026-05-02T08:03:15Z</time></trkpt><trkpt lat="41.136872912117525" lon="9.50306744651568"><ele>28.0</ele><time>2026-05-02T08:03:16Z</time></trkpt><trkpt lat="41.13683974435904" lon="9.503284302344893"><ele>28.666666666666668</ele><time>2026-05-02T08:03:17Z</time></trkpt><trkpt lat="41.13681738491903" lon="9.503503859210845"><ele>29.333333333333336</ele><time>2026-05-02T08:03:18Z</time></trkpt><trkpt lat="41.13681430351605" lon="9.503721344218299"><ele>30.0</ele><time>2026-05-02T08:03:19Z</time></trkpt><trkpt lat="41.13683407102325" lon="9.503937563282946"><ele>30.0</ele><time>2026-05-02T08:03:20Z</time></trkpt><trkpt lat="41.13687950473541" lon="9.504141442467738"><ele>30.0</ele><time>2026-05-02T08:03:21Z</time></trkpt><trkpt lat="41.13693708244331" lon="9.504340209371643"><ele>30.0</ele><time>2026-05-02T08:03:22Z</time></trkpt><trkpt lat="41.136977199075105" lon="9.504551825245255"><ele>31.333333333333336</ele><time>2026-05-02T08:03:23Z</time></trkpt><trkpt lat="41.137044560944204" lon="9.504745899134251"><ele>32.66666666666667</ele><time>2026-05-02T08:03:24Z</time></trkpt><trkpt lat="41.13709673455075" lon="9.504938097117567"><ele>34.0</ele><time>2026-05-02T08:03:25Z</time></trkpt><trkpt lat="41.13715087462417" lon="9.505129557127523"><ele>34.0</ele><time>2026-05-02T08:03:26Z</time></trkpt><trkpt lat="41.13720196141854" lon="9.505316818928158"><ele>34.0</ele><time>2026-05-02T08:03:27Z</time></trkpt><trkpt lat="41.13724818513088" lon="9.505505594255633"><ele>34.0</ele><time>2026-05-02T08:03:28Z</time></trkpt><trkpt lat="41.137286812103696" lon="9.50569513194746"><ele>34.0</ele><time>2026-05-02T08:03:29Z</time></trkpt><trkpt lat="41.137313563705746" lon="9.505885433413756"><ele>35.5</ele><time>2026-05-02T08:03:30Z</time></trkpt><trkpt lat="41.13731587774465" lon="9.506077338340365"><ele>37.0</ele><time>2026-05-02T08:03:31Z</time></trkpt><trkpt lat="41.13727783184761" lon="9.506264156038453"><ele>38.5</ele><time>2026-05-02T08:03:32Z</time></trkpt><trkpt lat="41.13723756528928" lon="9.506450649883964"><ele>40.0</ele><time>2026-05-02T08:03:33Z</time></trkpt><trkpt lat="41.13719714196461" lon="9.506641507407501"><ele>41.0</ele><time>2026-05-02T08:03:34Z</time></trkpt><trkpt lat="41.13713659765972" lon="9.506825109617663"><ele>42.0</ele><time>2026-05-02T08:03:35Z</time></trkpt><trkpt lat="41.137078560778725" lon="9.507013453852574"><ele>43.0</ele><time>2026-05-02T08:03:36Z</time></trkpt><trkpt lat="41.137022777270495" lon="9.507207410733184"><ele>40.333333333333336</ele><time>2026-05-02T08:03:37Z</time></trkpt><trkpt lat="41.13696666682212" lon="9.507399551842214"><ele>37.666666666666664</ele><time>2026-05-02T08:03:38Z</time></trkpt><trkpt lat="41.13690631617633" lon="9.507598842580506"><ele>35.0</ele><time>2026-05-02T08:03:39Z</time></trkpt><trkpt lat="41.13684431611479" lon="9.50780055295677"><ele>32.0</ele><time>2026-05-02T08:03:40Z</time></trkpt><trkpt lat="41.13677657669434" lon="9.508003543204648"><ele>29.0</ele><time>2026-05-02T08:03:41Z</time></trkpt><trkpt lat="41.13669148242762" lon="9.5081972716522"><ele>26.0</ele><time>2026-05-02T08:03:42Z</time></trkpt><trkpt lat="41.136565977548955" lon="9.508354198506398"><ele>27.0</ele><time>2026-05-02T08:03:43Z</time></trkpt><trkpt lat="41.136432912266244" lon="9.50850508129281"><ele>28.0</ele><time>2026-05-02T08:03:44Z</time></trkpt><trkpt lat="41.136301427575745" lon="9.508658919997943"><ele>29.0</ele><time>2026-05-02T08:03:45Z</time></trkpt><trkpt lat="41.136159956304795" lon="9.508789087645704"><ele>26.666666666666664</ele><time>2026-05-02T08:03:46Z</time></trkpt><trkpt lat="41.13602671576618" lon="9.508927033142736"><ele>24.333333333333332</ele><time>2026-05-02T08:03:47Z</time></trkpt><trkpt lat="41.13590138164645" lon="9.509061993877516"><ele>22.0</ele><time>2026-05-02T08:03:48Z</time></trkpt><trkpt lat="41.1357771478607" lon="9.509196240291178"><ele>23.25</ele><time>2026-05-02T08:03:49Z</time></trkpt><trkpt lat="41.135662326141734" lon="9.509317881757752"><ele>24.5</ele><time>2026-05-02T08:03:50Z</time></trkpt><trkpt lat="41.13555148373952" lon="9.509438188276519"><ele>25.75</ele><time>2026-05-02T08:03:51Z</time></trkpt><trkpt lat="41.13543994835069" lon="9.509564919072533"><ele>27.0</ele><time>2026-05-02T08:03:52Z</time></trkpt><trkpt lat="41.13533233028792" lon="9.509703098989602"><ele>27.333333333333336</ele><time>2026-05-02T08:03:53Z</time></trkpt><trkpt lat="41.135237850183415" lon="9.509858209486753"><ele>27.666666666666668</ele><time>2026-05-02T08:03:54Z</time></trkpt><trkpt lat="41.13516099449565" lon="9.510032839476214"><ele>28.0</ele><time>2026-05-02T08:03:55Z</time></trkpt><trkpt lat="41.135090556982185" lon="9.510214596210151"><ele>28.0</ele><time>2026-05-02T08:03:56Z</time></trkpt><trkpt lat="41.13501833162047" lon="9.510395295303434"><ele>28.0</ele><time>2026-05-02T08:03:57Z</time></trkpt><trkpt lat="41.134945998002145" lon="9.510570426947723"><ele>28.0</ele><time>2026-05-02T08:03:58Z</time></trkpt><trkpt lat="41.134872209357496" lon="9.510745693098393"><ele>30.25</ele><time>2026-05-02T08:03:59Z</time></trkpt><trkpt lat="41.13479980978776" lon="9.510918066821647"><ele>32.5</ele><time>2026-05-02T08:04:00Z</time></trkpt><trkpt lat="41.13472642575489" lon="9.511094398465088"><ele>34.75</ele><time>2026-05-02T08:04:01Z</time></trkpt><trkpt lat="41.134655546935434" lon="9.511268317581436"><ele>37.0</ele><time>2026-05-02T08:04:02Z</time></trkpt><trkpt lat="41.13458654605114" lon="9.51144124954836"><ele>39.25</ele><time>2026-05-02T08:04:03Z</time></trkpt><trkpt lat="41.13452275380948" lon="9.511619930893144"><ele>41.5</ele><time>2026-05-02T08:04:04Z</time></trkpt><trkpt lat="41.1344669903469" lon="9.511799225067007"><ele>43.75</ele><time>2026-05-02T08:04:05Z</time></trkpt><trkpt lat="41.13441727769154" lon="9.511980740784622"><ele>46.0</ele><time>2026-05-02T08:04:06Z</time></trkpt><trkpt lat="41.13437128900603" lon="9.512168950577186"><ele>46.5</ele><time>2026-05-02T08:04:07Z</time></trkpt><trkpt lat="41.13432539462643" lon="9.512355249492044"><ele>47.0</ele><time>2026-05-02T08:04:08Z</time></trkpt><trkpt lat="41.13428165293735" lon="9.512543127188202"><ele>47.5</ele><time>2026-05-02T08:04:09Z</time></trkpt><trkpt lat="41.134240211381986" lon="9.512732916246652"><ele>48.0</ele><time>2026-05-02T08:04:10Z</time></trkpt><trkpt lat="41.13420901662047" lon="9.512923563052544"><ele>48.5</ele><time>2026-05-02T08:04:11Z</time></trkpt><trkpt lat="41.13419445503752" lon="9.513121489629786"><ele>49.0</ele><time>2026-05-02T08:04:12Z</time></trkpt><trkpt lat="41.134201224568784" lon="9.513317719607524"><ele>49.5</ele><time>2026-05-02T08:04:13Z</time></trkpt><trkpt lat="41.134221415118894" lon="9.513513542755573"><ele>50.0</ele><time>2026-05-02T08:04:14Z</time></trkpt><trkpt lat="41.13426841529546" lon="9.513704880127857"><ele>51.25</ele><time>2026-05-02T08:04:15Z</time></trkpt><trkpt lat="41.13432002703414" lon="9.513885719370851"><ele>52.5</ele><time>2026-05-02T08:04:16Z</time></trkpt><trkpt lat="41.13437902031539" lon="9.51406677092217"><ele>53.75</ele><time>2026-05-02T08:04:17Z</time></trkpt><trkpt lat="41.134441975235205" lon="9.51424153612404"><ele>55.0</ele><time>2026-05-02T08:04:18Z</time></trkpt><trkpt lat="41.13451766779979" lon="9.514414723879588"><ele>57.33333333333333</ele><time>2026-05-02T08:04:19Z</time></trkpt><trkpt lat="41.1346023586726" lon="9.51457766199503"><ele>59.66666666666667</ele><time>2026-05-02T08:04:20Z</time></trkpt><trkpt lat="41.13470091475607" lon="9.514735758357759"><ele>62.0</ele><time>2026-05-02T08:04:21Z</time></trkpt><trkpt lat="41.13480086630181" lon="9.514892172067473"><ele>61.2</ele><time>2026-05-02T08:04:22Z</time></trkpt><trkpt lat="41.13489406943253" lon="9.51503941319863"><ele>60.400000000000006</ele><time>2026-05-02T08:04:23Z</time></trkpt><trkpt lat="41.1349667839009" lon="9.515153884548633"><ele>59.599999999999994</ele><time>2026-05-02T08:04:24Z</time></trkpt><trkpt lat="41.13501726890052" lon="9.5152369283126"><ele>58.8</ele><time>2026-05-02T08:04:25Z</time></trkpt><trkpt lat="41.13505861554482" lon="9.515332791293345"><ele>58.0</ele><time>2026-05-02T08:04:27Z</time></trkpt><trkpt lat="41.13498950592856" lon="9.515396443329877"><ele>58.0</ele><time>2026-05-02T08:04:30Z</time></trkpt><trkpt lat="41.134914929024355" lon="9.51532396017818"><ele>58.0</ele><time>2026-05-02T08:04:32Z</time></trkpt><trkpt lat="41.13482801786335" lon="9.515281027202446"><ele>58.0</ele><time>2026-05-02T08:04:34Z</time></trkpt><trkpt lat="41.1347342706812" lon="9.515167874020127"><ele>58.0</ele><time>2026-05-02T08:04:36Z</time></trkpt><trkpt lat="41.134678712489396" lon="9.51509866292024"><ele>58.0</ele><time>2026-05-02T08:04:37Z</time></trkpt><trkpt lat="41.13462046208481" lon="9.515010717764191"><ele>57.4</ele><time>2026-05-02T08:04:38Z</time></trkpt><trkpt lat="41.134565751442196" lon="9.514904836375063"><ele>56.8</ele><time>2026-05-02T08:04:39Z</time></trkpt><trkpt lat="41.13449945793491" lon="9.514799066360734"><ele>56.2</ele><time>2026-05-02T08:04:40Z</time></trkpt><trkpt lat="41.13444961423222" lon="9.514682705366738"><ele>55.6</ele><time>2026-05-02T08:04:41Z</time></trkpt><trkpt lat="41.13440081765634" lon="9.514564075296926"><ele>55.0</ele><time>2026-05-02T08:04:42Z</time></trkpt><trkpt lat="41.1343451222781" lon="9.51445274610948"><ele>54.99999999999999</ele><time>2026-05-02T08:04:43Z</time></trkpt><trkpt lat="41.13428740796965" lon="9.514369063932012"><ele>55.0</ele><time>2026-05-02T08:04:44Z</time></trkpt><trkpt lat="41.13423531218319" lon="9.514280400128603"><ele>55.0</ele><time>2026-05-02T08:04:46Z</time></trkpt><trkpt lat="41.13414919311117" lon="9.514209838511649"><ele>55.0</ele><time>2026-05-02T08:04:54Z</time></trkpt><trkpt lat="41.13409952015293" lon="9.514157387494468"><ele>54.99999999999999</ele><time>2026-05-02T08:04:55Z</time></trkpt><trkpt lat="41.134041690667395" lon="9.514105800060499"><ele>55.0</ele><time>2026-05-02T08:04:56Z</time></trkpt><trkpt lat="41.133974906802855" lon="9.514058181280165"><ele>55.49999999999999</ele><time>2026-05-02T08:04:57Z</time></trkpt><trkpt lat="41.13390251165956" lon="9.514015068970194"><ele>56.0</ele><time>2026-05-02T08:04:58Z</time></trkpt><trkpt lat="41.13382564834487" lon="9.513969698098137"><ele>56.5</ele><time>2026-05-02T08:04:59Z</time></trkpt><trkpt lat="41.13374783943955" lon="9.513923527521015"><ele>57.0</ele><time>2026-05-02T08:05:00Z</time></trkpt><trkpt lat="41.13366949922581" lon="9.513879908080234"><ele>57.49999999999999</ele><time>2026-05-02T08:05:01Z</time></trkpt><trkpt lat="41.13359150513396" lon="9.513832278865564"><ele>58.0</ele><time>2026-05-02T08:05:02Z</time></trkpt><trkpt lat="41.13351147924001" lon="9.5137845812696"><ele>58.33333333333333</ele><time>2026-05-02T08:05:03Z</time></trkpt><trkpt lat="41.133441872509245" lon="9.513708539174527"><ele>58.666666666666664</ele><time>2026-05-02T08:05:04Z</time></trkpt><trkpt lat="41.13338134094568" lon="9.513631538328344"><ele>59.0</ele><time>2026-05-02T08:05:05Z</time></trkpt><trkpt lat="41.13333173775324" lon="9.51353536095232"><ele>59.33333333333333</ele><time>2026-05-02T08:05:06Z</time></trkpt><trkpt lat="41.13328010210202" lon="9.513437402144286"><ele>59.666666666666664</ele><time>2026-05-02T08:05:07Z</time></trkpt><trkpt lat="41.133213970347136" lon="9.513347129246696"><ele>60.0</ele><time>2026-05-02T08:05:08Z</time></trkpt><trkpt lat="41.133170416861155" lon="9.513238692056964"><ele>60.0</ele><time>2026-05-02T08:05:09Z</time></trkpt><trkpt lat="41.133113936749005" lon="9.513135410700555"><ele>60.0</ele><time>2026-05-02T08:05:10Z</time></trkpt><trkpt lat="41.13306084433926" lon="9.513029313147367"><ele>60.0</ele><time>2026-05-02T08:05:11Z</time></trkpt><trkpt lat="41.133009748130696" lon="9.512927189615004"><ele>60.0</ele><time>2026-05-02T08:05:12Z</time></trkpt><trkpt lat="41.13295530089796" lon="9.512828976893163"><ele>60.0</ele><time>2026-05-02T08:05:13Z</time></trkpt><trkpt lat="41.132901459565254" lon="9.5127325219641"><ele>59.166666666666664</ele><time>2026-05-02T08:05:14Z</time></trkpt><trkpt lat="41.13284603135582" lon="9.512636983585322"><ele>58.33333333333333</ele><time>2026-05-02T08:05:15Z</time></trkpt><trkpt lat="41.1328050123418" lon="9.512539190711722"><ele>57.5</ele><time>2026-05-02T08:05:16Z</time></trkpt><trkpt lat="41.132745369639764" lon="9.512452478481869"><ele>56.666666666666664</ele><time>2026-05-02T08:05:17Z</time></trkpt><trkpt lat="41.132659898745054" lon="9.51241338466456"><ele>55.83333333333333</ele><time>2026-05-02T08:05:18Z</time></trkpt><trkpt lat="41.132578323640075" lon="9.512366068959384"><ele>55.0</ele><time>2026-05-02T08:05:19Z</time></trkpt><trkpt lat="41.13249616522986" lon="9.51229701583174"><ele>55.0</ele><time>2026-05-02T08:05:20Z</time></trkpt><trkpt lat="41.132405952360415" lon="9.51226122864109"><ele>55.0</ele><time>2026-05-02T08:05:21Z</time></trkpt><trkpt lat="41.13232496908702" lon="9.512199794892505"><ele>55.0</ele><time>2026-05-02T08:05:22Z</time></trkpt><trkpt lat="41.13225920784808" lon="9.512114797218706"><ele>55.0</ele><time>2026-05-02T08:05:23Z</time></trkpt><trkpt lat="41.13221606078244" lon="9.512023044684891"><ele>55.0</ele><time>2026-05-02T08:05:24Z</time></trkpt><trkpt lat="41.13215731601411" lon="9.511934099979461"><ele>54.6</ele><time>2026-05-02T08:05:25Z</time></trkpt><trkpt lat="41.132086697945965" lon="9.511869141280856"><ele>54.2</ele><time>2026-05-02T08:05:26Z</time></trkpt><trkpt lat="41.13201629175932" lon="9.51180486947328"><ele>53.8</ele><time>2026-05-02T08:05:27Z</time></trkpt><trkpt lat="41.131908448739196" lon="9.511823581960583"><ele>53.4</ele><time>2026-05-02T08:05:28Z</time></trkpt><trkpt lat="41.131810862384" lon="9.51178502954437"><ele>53.0</ele><time>2026-05-02T08:05:29Z</time></trkpt><trkpt lat="41.131718852903056" lon="9.511744647221937"><ele>53.0</ele><time>2026-05-02T08:05:30Z</time></trkpt><trkpt lat="41.131625337720585" lon="9.511667107217654"><ele>53.0</ele><time>2026-05-02T08:05:31Z</time></trkpt><trkpt lat="41.13153865003587" lon="9.511570266673951"><ele>53.0</ele><time>2026-05-02T08:05:32Z</time></trkpt><trkpt lat="41.131460863285795" lon="9.511433549250032"><ele>53.0</ele><time>2026-05-02T08:05:33Z</time></trkpt><trkpt lat="41.131367858528556" lon="9.511298236000925"><ele>51.25</ele><time>2026-05-02T08:05:34Z</time></trkpt><trkpt lat="41.13127995732819" lon="9.51116282795745"><ele>49.5</ele><time>2026-05-02T08:05:35Z</time></trkpt><trkpt lat="41.131198270827966" lon="9.511041094491295"><ele>47.75</ele><time>2026-05-02T08:05:36Z</time></trkpt><trkpt lat="41.13109692801453" lon="9.510954531593251"><ele>46.0</ele><time>2026-05-02T08:05:37Z</time></trkpt><trkpt lat="41.1309513495067" lon="9.510948763598252"><ele>46.0</ele><time>2026-05-02T08:05:38Z</time></trkpt><trkpt lat="41.130802472955715" lon="9.51089963695872"><ele>46.0</ele><time>2026-05-02T08:05:39Z</time></trkpt><trkpt lat="41.13064110982391" lon="9.510863316451404"><ele>46.0</ele><time>2026-05-02T08:05:40Z</time></trkpt><trkpt lat="41.13049322845184" lon="9.510832511321423"><ele>46.66666666666667</ele><time>2026-05-02T08:05:41Z</time></trkpt><trkpt lat="41.1303834774155" lon="9.510793906558256"><ele>47.333333333333336</ele><time>2026-05-02T08:05:42Z</time></trkpt><trkpt lat="41.130301817739614" lon="9.51073371074877"><ele>48.0</ele><time>2026-05-02T08:05:43Z</time></trkpt><trkpt lat="41.13024973161515" lon="9.510668752685897"><ele>48.66666666666667</ele><time>2026-05-02T08:05:44Z</time></trkpt><trkpt lat="41.13023765605479" lon="9.510561735976736"><ele>49.333333333333336</ele><time>2026-05-02T08:05:45Z</time></trkpt><trkpt lat="41.130209371935976" lon="9.51046316113144"><ele>50.0</ele><time>2026-05-02T08:05:46Z</time></trkpt><trkpt lat="41.13018182494689" lon="9.51036172217856"><ele>50.8</ele><time>2026-05-02T08:05:47Z</time></trkpt><trkpt lat="41.1301499763068" lon="9.51026602350738"><ele>51.6</ele><time>2026-05-02T08:05:48Z</time></trkpt><trkpt lat="41.13010484603718" lon="9.510164263157513"><ele>52.400000000000006</ele><time>2026-05-02T08:05:49Z</time></trkpt><trkpt lat="41.13003514244931" lon="9.510046954581473"><ele>53.2</ele><time>2026-05-02T08:05:50Z</time></trkpt><trkpt lat="41.12993273515353" lon="9.509952827218537"><ele>54.0</ele><time>2026-05-02T08:05:51Z</time></trkpt><trkpt lat="41.12983263728606" lon="9.509852046845108"><ele>57.0</ele><time>2026-05-02T08:05:52Z</time></trkpt><trkpt lat="41.12972597905192" lon="9.509747972008142"><ele>60.0</ele><time>2026-05-02T08:05:53Z</time></trkpt><trkpt lat="41.12964062296826" lon="9.50962077369277"><ele>63.0</ele><time>2026-05-02T08:05:54Z</time></trkpt><trkpt lat="41.12955553483008" lon="9.509525459149565"><ele>66.0</ele><time>2026-05-02T08:05:55Z</time></trkpt><trkpt lat="41.129474105387274" lon="9.509489157415436"><ele>66.0</ele><time>2026-05-02T08:05:56Z</time></trkpt><trkpt lat="41.12942608098119" lon="9.50942221771779"><ele>66.0</ele><time>2026-05-02T08:05:57Z</time></trkpt><trkpt lat="41.129325199619075" lon="9.50933453045493"><ele>66.0</ele><time>2026-05-02T08:05:59Z</time></trkpt><trkpt lat="41.12922481986515" lon="9.509367663396707"><ele>66.0</ele><time>2026-05-02T08:06:00Z</time></trkpt><trkpt lat="41.12912588396555" lon="9.509409947651688"><ele>66.0</ele><time>2026-05-02T08:06:01Z</time></trkpt><trkpt lat="41.129032121858295" lon="9.509450020598079"><ele>68.0</ele><time>2026-05-02T08:06:02Z</time></trkpt><trkpt lat="41.12892243312356" lon="9.50949119678582"><ele>70.0</ele><time>2026-05-02T08:06:03Z</time></trkpt><trkpt lat="41.128806982621306" lon="9.509532359179623"><ele>72.0</ele><time>2026-05-02T08:06:04Z</time></trkpt><trkpt lat="41.128685362407175" lon="9.509574923530774"><ele>74.0</ele><time>2026-05-02T08:06:05Z</time></trkpt><trkpt lat="41.12856326558288" lon="9.509621300607758"><ele>74.0</ele><time>2026-05-02T08:06:06Z</time></trkpt><trkpt lat="41.128451725353365" lon="9.509666943031302"><ele>74.0</ele><time>2026-05-02T08:06:07Z</time></trkpt><trkpt lat="41.12834963396588" lon="9.509732092402457"><ele>74.0</ele><time>2026-05-02T08:06:08Z</time></trkpt><trkpt lat="41.12824820986598" lon="9.509776115816365"><ele>74.0</ele><time>2026-05-02T08:06:09Z</time></trkpt><trkpt lat="41.128152450467915" lon="9.509817077404213"><ele>74.0</ele><time>2026-05-02T08:06:10Z</time></trkpt><trkpt lat="41.128065096312" lon="9.509875293273534"><ele>76.2</ele><time>2026-05-02T08:06:11Z</time></trkpt><trkpt lat="41.12797489448521" lon="9.509895482231467"><ele>78.4</ele><time>2026-05-02T08:06:12Z</time></trkpt><trkpt lat="41.12788914422682" lon="9.509927230410549"><ele>80.6</ele><time>2026-05-02T08:06:13Z</time></trkpt><trkpt lat="41.127794219537925" lon="9.509939408276294"><ele>82.8</ele><time>2026-05-02T08:06:14Z</time></trkpt><trkpt lat="41.12769133076753" lon="9.509937269141595"><ele>85.0</ele><time>2026-05-02T08:06:15Z</time></trkpt><trkpt lat="41.12758280325892" lon="9.509931179427003"><ele>85.0</ele><time>2026-05-02T08:06:16Z</time></trkpt><trkpt lat="41.127470165347496" lon="9.509932491910527"><ele>85.0</ele><time>2026-05-02T08:06:17Z</time></trkpt><trkpt lat="41.1273615059924" lon="9.509872350980213"><ele>85.0</ele><time>2026-05-02T08:06:18Z</time></trkpt><trkpt lat="41.12725179828299" lon="9.509812323448129"><ele>85.0</ele><time>2026-05-02T08:06:19Z</time></trkpt><trkpt lat="41.127146683168576" lon="9.509743900310758"><ele>87.0</ele><time>2026-05-02T08:06:20Z</time></trkpt><trkpt lat="41.127053335612516" lon="9.509639200829916"><ele>89.0</ele><time>2026-05-02T08:06:21Z</time></trkpt><trkpt lat="41.12695918093859" lon="9.509538030562625"><ele>91.0</ele><time>2026-05-02T08:06:22Z</time></trkpt><trkpt lat="41.1268591672337" lon="9.509441869106926"><ele>93.0</ele><time>2026-05-02T08:06:23Z</time></trkpt><trkpt lat="41.12675648039932" lon="9.509375659291537"><ele>93.0</ele><time>2026-05-02T08:06:24Z</time></trkpt><trkpt lat="41.126654172275096" lon="9.509353113850562"><ele>93.0</ele><time>2026-05-02T08:06:25Z</time></trkpt><trkpt lat="41.126554658196355" lon="9.509331069175419"><ele>93.0</ele><time>2026-05-02T08:06:26Z</time></trkpt><trkpt lat="41.12647145499925" lon="9.509396201695484"><ele>93.0</ele><time>2026-05-02T08:06:27Z</time></trkpt><trkpt lat="41.12643337636103" lon="9.509510180890976"><ele>93.0</ele><time>2026-05-02T08:06:28Z</time></trkpt><trkpt lat="41.126470450106815" lon="9.509662566162174"><ele>93.25</ele><time>2026-05-02T08:06:29Z</time></trkpt><trkpt lat="41.126553076012605" lon="9.50979198064388"><ele>93.5</ele><time>2026-05-02T08:06:30Z</time></trkpt><trkpt lat="41.12659216607779" lon="9.50994067216179"><ele>93.75</ele><time>2026-05-02T08:06:31Z</time></trkpt><trkpt lat="41.12662448851817" lon="9.510092610056985"><ele>94.0</ele><time>2026-05-02T08:06:32Z</time></trkpt><trkpt lat="41.1266086839519" lon="9.5102487556267"><ele>94.0</ele><time>2026-05-02T08:06:33Z</time></trkpt><trkpt lat="41.12657842911482" lon="9.51040343403056"><ele>94.0</ele><time>2026-05-02T08:06:34Z</time></trkpt><trkpt lat="41.12653819117671" lon="9.5105442035321"><ele>94.0</ele><time>2026-05-02T08:06:35Z</time></trkpt><trkpt lat="41.12647296226737" lon="9.51064294353033"><ele>94.0</ele><time>2026-05-02T08:06:36Z</time></trkpt><trkpt lat="41.126345014271045" lon="9.510673181387961"><ele>98.5</ele><time>2026-05-02T08:06:37Z</time></trkpt><trkpt lat="41.126233095021" lon="9.510758223347668"><ele>103.0</ele><time>2026-05-02T08:06:38Z</time></trkpt><trkpt lat="41.12612281361836" lon="9.510828649677073"><ele>107.5</ele><time>2026-05-02T08:06:39Z</time></trkpt><trkpt lat="41.12601084677907" lon="9.510888885657737"><ele>112.0</ele><time>2026-05-02T08:06:40Z</time></trkpt><trkpt lat="41.12590390181752" lon="9.51093883876146"><ele>112.0</ele><time>2026-05-02T08:06:41Z</time></trkpt><trkpt lat="41.12578991422717" lon="9.510987494131498"><ele>112.0</ele><time>2026-05-02T08:06:42Z</time></trkpt><trkpt lat="41.125674987587516" lon="9.511035158442416"><ele>112.0</ele><time>2026-05-02T08:06:43Z</time></trkpt><trkpt lat="41.12556160716281" lon="9.511076313681642"><ele>112.0</ele><time>2026-05-02T08:06:44Z</time></trkpt><trkpt lat="41.12544467396694" lon="9.511116356401422"><ele>113.25</ele><time>2026-05-02T08:06:45Z</time></trkpt><trkpt lat="41.12533048396555" lon="9.511157806956845"><ele>114.5</ele><time>2026-05-02T08:06:46Z</time></trkpt><trkpt lat="41.125217367301076" lon="9.511198182697493"><ele>115.75</ele><time>2026-05-02T08:06:47Z</time></trkpt><trkpt lat="41.12510312277109" lon="9.511230946726574"><ele>117.0</ele><time>2026-05-02T08:06:48Z</time></trkpt><trkpt lat="41.124986985049844" lon="9.511258842691888"><ele>119.0</ele><time>2026-05-02T08:06:49Z</time></trkpt><trkpt lat="41.124872273299644" lon="9.511274902600384"><ele>120.99999999999999</ele><time>2026-05-02T08:06:50Z</time></trkpt><trkpt lat="41.124757413206154" lon="9.51128307744658"><ele>122.99999999999999</ele><time>2026-05-02T08:06:51Z</time></trkpt><trkpt lat="41.124651554074575" lon="9.511285874396453"><ele>125.0</ele><time>2026-05-02T08:06:52Z</time></trkpt><trkpt lat="41.12455284210755" lon="9.511288757437702"><ele>127.0</ele><time>2026-05-02T08:06:53Z</time></trkpt><trkpt lat="41.12448192748622" lon="9.511293836229092"><ele>127.00000000000001</ele><time>2026-05-02T08:06:54Z</time></trkpt><trkpt lat="41.124394010422215" lon="9.511301407678047"><ele>127.0</ele><time>2026-05-02T08:06:56Z</time></trkpt><trkpt lat="41.124294312506954" lon="9.511271806705746"><ele>127.0</ele><time>2026-05-02T08:06:58Z</time></trkpt><trkpt lat="41.12422548128499" lon="9.51124002726245"><ele>127.0</ele><time>2026-05-02T08:06:59Z</time></trkpt><trkpt lat="41.12415134970397" lon="9.511208018730112"><ele>127.00000000000001</ele><time>2026-05-02T08:07:00Z</time></trkpt><trkpt lat="41.124074210175124" lon="9.511178022163259"><ele>127.0</ele><time>2026-05-02T08:07:01Z</time></trkpt><trkpt lat="41.123993904468946" lon="9.511150480409091"><ele>129.16666666666669</ele><time>2026-05-02T08:07:02Z</time></trkpt><trkpt lat="41.12391124404888" lon="9.51112523561523"><ele>131.33333333333334</ele><time>2026-05-02T08:07:03Z</time></trkpt><trkpt lat="41.12384381759863" lon="9.511104643331459"><ele>133.5</ele><time>2026-05-02T08:07:04Z</time></trkpt><trkpt lat="41.12374741983467" lon="9.511075203100834"><ele>135.66666666666666</ele><time>2026-05-02T08:07:06Z</time></trkpt><trkpt lat="41.12364082214548" lon="9.511036738098365"><ele>137.83333333333331</ele><time>2026-05-02T08:07:08Z</time></trkpt><trkpt lat="41.12358122527032" lon="9.510995828010383"><ele>140.0</ele><time>2026-05-02T08:07:10Z</time></trkpt><trkpt lat="41.12352831543982" lon="9.510931742225097"><ele>140.0</ele><time>2026-05-02T08:07:14Z</time></trkpt><trkpt lat="41.123483305829936" lon="9.510871209761198"><ele>140.0</ele><time>2026-05-02T08:07:17Z</time></trkpt><trkpt lat="41.12355367217777" lon="9.511036997057563"><ele>140.0</ele><time>2026-05-02T08:07:22Z</time></trkpt><trkpt lat="41.123651372889384" lon="9.511063438752313"><ele>140.0</ele><time>2026-05-02T08:07:23Z</time></trkpt><trkpt lat="41.12373199231803" lon="9.51110402119047"><ele>140.0</ele><time>2026-05-02T08:07:24Z</time></trkpt><trkpt lat="41.123808964184505" lon="9.511136165437014"><ele>140.0</ele><time>2026-05-02T08:07:25Z</time></trkpt><trkpt lat="41.12389951150217" lon="9.511153523243294"><ele>140.0</ele><time>2026-05-02T08:07:26Z</time></trkpt><trkpt lat="41.12399143131275" lon="9.511173685991574"><ele>140.0</ele><time>2026-05-02T08:07:27Z</time></trkpt><trkpt lat="41.124083218396585" lon="9.511209334608512"><ele>140.0</ele><time>2026-05-02T08:07:28Z</time></trkpt><trkpt lat="41.124168061946975" lon="9.511248767888077"><ele>140.0</ele><time>2026-05-02T08:07:29Z</time></trkpt><trkpt lat="41.12424280893108" lon="9.511279429954937"><ele>140.0</ele><time>2026-05-02T08:07:30Z</time></trkpt><trkpt lat="41.12430445792909" lon="9.51130168120642"><ele>138.5</ele><time>2026-05-02T08:07:31Z</time></trkpt><trkpt lat="41.124371813279566" lon="9.511350479201052"><ele>137.0</ele><time>2026-05-02T08:07:33Z</time></trkpt><trkpt lat="41.12426808857431" lon="9.511441885301473"><ele>135.5</ele><time>2026-05-02T08:07:37Z</time></trkpt><trkpt lat="41.12419951581145" lon="9.51148203841273"><ele>134.0</ele><time>2026-05-02T08:07:40Z</time></trkpt><trkpt lat="41.12413484972076" lon="9.511483580812708"><ele>132.5</ele><time>2026-05-02T08:07:52Z</time></trkpt><trkpt lat="41.124058374832444" lon="9.511472504344706"><ele>131.0</ele><time>2026-05-02T08:07:53Z</time></trkpt><trkpt lat="41.12397616421706" lon="9.511457108298329"><ele>131.0</ele><time>2026-05-02T08:07:54Z</time></trkpt><trkpt lat="41.123883249235256" lon="9.511458149666842"><ele>131.0</ele><time>2026-05-02T08:07:55Z</time></trkpt><trkpt lat="41.12376903801843" lon="9.511440701394136"><ele>131.0</ele><time>2026-05-02T08:07:56Z</time></trkpt><trkpt lat="41.123633219797675" lon="9.51142805502494"><ele>131.0</ele><time>2026-05-02T08:07:57Z</time></trkpt><trkpt lat="41.123500461549284" lon="9.511403630921832"><ele>131.0</ele><time>2026-05-02T08:07:58Z</time></trkpt><trkpt lat="41.12336074249438" lon="9.511399807461464"><ele>131.0</ele><time>2026-05-02T08:07:59Z</time></trkpt><trkpt lat="41.12322687785112" lon="9.511415770092217"><ele>131.0</ele><time>2026-05-02T08:08:00Z</time></trkpt><trkpt lat="41.12309457225435" lon="9.511397205430807"><ele>131.0</ele><time>2026-05-02T08:08:01Z</time></trkpt><trkpt lat="41.12297583636094" lon="9.511367128292326"><ele>133.5</ele><time>2026-05-02T08:08:02Z</time></trkpt><trkpt lat="41.12287573835302" lon="9.511364417048942"><ele>136.0</ele><time>2026-05-02T08:08:03Z</time></trkpt><trkpt lat="41.12279947918544" lon="9.511381171492268"><ele>138.5</ele><time>2026-05-02T08:08:04Z</time></trkpt><trkpt lat="41.12273342538677" lon="9.511441504574718"><ele>141.0</ele><time>2026-05-02T08:08:05Z</time></trkpt><trkpt lat="41.12269979082202" lon="9.511547008730954"><ele>143.5</ele><time>2026-05-02T08:08:06Z</time></trkpt><trkpt lat="41.12269110104003" lon="9.511670462148919"><ele>146.0</ele><time>2026-05-02T08:08:07Z</time></trkpt><trkpt lat="41.12267211194517" lon="9.51179067778194"><ele>146.0</ele><time>2026-05-02T08:08:08Z</time></trkpt><trkpt lat="41.12263942931107" lon="9.511907919627319"><ele>146.0</ele><time>2026-05-02T08:08:09Z</time></trkpt><trkpt lat="41.12258387083122" lon="9.512050502458731"><ele>146.0</ele><time>2026-05-02T08:08:10Z</time></trkpt><trkpt lat="41.12251853169364" lon="9.512171926337208"><ele>146.0</ele><time>2026-05-02T08:08:11Z</time></trkpt><trkpt lat="41.122457925291826" lon="9.512241858705712"><ele>146.0</ele><time>2026-05-02T08:08:12Z</time></trkpt><trkpt lat="41.12237632029437" lon="9.512312732724244"><ele>149.5</ele><time>2026-05-02T08:08:13Z</time></trkpt><trkpt lat="41.12228542325619" lon="9.512377452019601"><ele>153.0</ele><time>2026-05-02T08:08:14Z</time></trkpt><trkpt lat="41.12223096890942" lon="9.5124428399782"><ele>156.5</ele><time>2026-05-02T08:08:15Z</time></trkpt><trkpt lat="41.122200844462405" lon="9.512549599241243"><ele>160.0</ele><time>2026-05-02T08:08:16Z</time></trkpt><trkpt lat="41.122161367163514" lon="9.512647188150476"><ele>163.5</ele><time>2026-05-02T08:08:17Z</time></trkpt><trkpt lat="41.12210379168727" lon="9.512734699607634"><ele>167.0</ele><time>2026-05-02T08:08:18Z</time></trkpt><trkpt lat="41.12203494033624" lon="9.512808305273772"><ele>167.0</ele><time>2026-05-02T08:08:19Z</time></trkpt><trkpt lat="41.1219375136883" lon="9.512884143698692"><ele>167.0</ele><time>2026-05-02T08:08:20Z</time></trkpt><trkpt lat="41.121822254964464" lon="9.512911748189378"><ele>167.0</ele><time>2026-05-02T08:08:21Z</time></trkpt><trkpt lat="41.12170461217045" lon="9.512949152296839"><ele>167.0</ele><time>2026-05-02T08:08:22Z</time></trkpt><trkpt lat="41.121626011142965" lon="9.513033420806984"><ele>166.0</ele><time>2026-05-02T08:08:23Z</time></trkpt><trkpt lat="41.121586991893494" lon="9.513104156999116"><ele>165.0</ele><time>2026-05-02T08:08:24Z</time></trkpt><trkpt lat="41.1215218873819" lon="9.513187837334815"><ele>164.0</ele><time>2026-05-02T08:08:25Z</time></trkpt><trkpt lat="41.1214562639971" lon="9.51329865434947"><ele>163.0</ele><time>2026-05-02T08:08:26Z</time></trkpt><trkpt lat="41.12139268723913" lon="9.513419975996701"><ele>162.0</ele><time>2026-05-02T08:08:27Z</time></trkpt><trkpt lat="41.12133636353521" lon="9.513570196715778"><ele>167.0</ele><time>2026-05-02T08:08:28Z</time></trkpt><trkpt lat="41.121289970046654" lon="9.513690086978263"><ele>172.0</ele><time>2026-05-02T08:08:29Z</time></trkpt><trkpt lat="41.12119939866554" lon="9.513734353413172"><ele>177.0</ele><time>2026-05-02T08:08:31Z</time></trkpt><trkpt lat="41.12108691063802" lon="9.513669041168914"><ele>182.0</ele><time>2026-05-02T08:08:33Z</time></trkpt><trkpt lat="41.12100245404645" lon="9.513588364964631"><ele>187.0</ele><time>2026-05-02T08:08:34Z</time></trkpt><trkpt lat="41.12093497190819" lon="9.51354058872014"><ele>187.0</ele><time>2026-05-02T08:08:35Z</time></trkpt><trkpt lat="41.120862501553766" lon="9.513572147929839"><ele>187.0</ele><time>2026-05-02T08:08:36Z</time></trkpt><trkpt lat="41.120770920706946" lon="9.513600405162938"><ele>187.0</ele><time>2026-05-02T08:08:37Z</time></trkpt><trkpt lat="41.120680819646346" lon="9.51362545096434"><ele>187.0</ele><time>2026-05-02T08:08:38Z</time></trkpt><trkpt lat="41.12058206607007" lon="9.513638176784681"><ele>187.0</ele><time>2026-05-02T08:08:39Z</time></trkpt><trkpt lat="41.120464804528496" lon="9.513635515976562"><ele>192.0</ele><time>2026-05-02T08:08:40Z</time></trkpt><trkpt lat="41.12033562922545" lon="9.513647387834743"><ele>197.0</ele><time>2026-05-02T08:08:41Z</time></trkpt><trkpt lat="41.12024066844409" lon="9.513703358037914"><ele>202.0</ele><time>2026-05-02T08:08:42Z</time></trkpt><trkpt lat="41.12012722879149" lon="9.513741045558561"><ele>207.0</ele><time>2026-05-02T08:08:43Z</time></trkpt><trkpt lat="41.12001515421503" lon="9.513773987084775"><ele>208.2</ele><time>2026-05-02T08:08:44Z</time></trkpt><trkpt lat="41.119916877988445" lon="9.513781656090485"><ele>209.39999999999998</ele><time>2026-05-02T08:08:45Z</time></trkpt><trkpt lat="41.11982422043417" lon="9.513765921873341"><ele>210.60000000000002</ele><time>2026-05-02T08:08:46Z</time></trkpt><trkpt lat="41.11975488798324" lon="9.513702429425315"><ele>211.8</ele><time>2026-05-02T08:08:47Z</time></trkpt><trkpt lat="41.11967717396398" lon="9.513676311512873"><ele>213.0</ele><time>2026-05-02T08:08:48Z</time></trkpt><trkpt lat="41.119581720928636" lon="9.513764598004732"><ele>216.60000000000002</ele><time>2026-05-02T08:08:49Z</time></trkpt><trkpt lat="41.11948039722969" lon="9.513802396312242"><ele>220.20000000000002</ele><time>2026-05-02T08:08:50Z</time></trkpt><trkpt lat="41.11938429051637" lon="9.513869816926755"><ele>223.8</ele><time>2026-05-02T08:08:51Z</time></trkpt><trkpt lat="41.11929896564122" lon="9.513985107941245"><ele>227.4</ele><time>2026-05-02T08:08:52Z</time></trkpt><trkpt lat="41.119221029994385" lon="9.514060048555853"><ele>231.0</ele><time>2026-05-02T08:08:53Z</time></trkpt><trkpt lat="41.11915696311587" lon="9.514062890157465"><ele>231.0</ele><time>2026-05-02T08:08:54Z</time></trkpt><trkpt lat="41.119094568513624" lon="9.514100075178545"><ele>231.0</ele><time>2026-05-02T08:08:55Z</time></trkpt><trkpt lat="41.11901841045862" lon="9.514148787014912"><ele>231.0</ele><time>2026-05-02T08:08:56Z</time></trkpt><trkpt lat="41.11893997743499" lon="9.514239936878324"><ele>231.0</ele><time>2026-05-02T08:08:57Z</time></trkpt><trkpt lat="41.118880085317876" lon="9.51433054513591"><ele>231.0</ele><time>2026-05-02T08:08:58Z</time></trkpt><trkpt lat="41.118841748417296" lon="9.514419794955348"><ele>231.0</ele><time>2026-05-02T08:08:59Z</time></trkpt><trkpt lat="41.11879791986813" lon="9.514526697468442"><ele>234.16666666666666</ele><time>2026-05-02T08:09:02Z</time></trkpt><trkpt lat="41.118834456893396" lon="9.514607730630633"><ele>237.33333333333331</ele><time>2026-05-02T08:09:03Z</time></trkpt><trkpt lat="41.11891691488349" lon="9.514661057144169"><ele>240.5</ele><time>2026-05-02T08:09:05Z</time></trkpt><trkpt lat="41.1189739484793" lon="9.514731422666298"><ele>243.66666666666666</ele><time>2026-05-02T08:09:08Z</time></trkpt><trkpt lat="41.11900385069947" lon="9.514815280227669"><ele>246.83333333333331</ele><time>2026-05-02T08:09:10Z</time></trkpt><trkpt lat="41.118957320614456" lon="9.514895424609351"><ele>250.0</ele><time>2026-05-02T08:09:44Z</time></trkpt><trkpt lat="41.11891903941924" lon="9.515015618965569"><ele>249.99999999999997</ele><time>2026-05-02T08:09:47Z</time></trkpt><trkpt lat="41.118885334175815" lon="9.515106306874692"><ele>250.0</ele><time>2026-05-02T08:09:49Z</time></trkpt><trkpt lat="41.11883889796287" lon="9.5151955063591"><ele>250.0</ele><time>2026-05-02T08:09:51Z</time></trkpt><trkpt lat="41.1187719198451" lon="9.515249604436805"><ele>250.0</ele><time>2026-05-02T08:09:53Z</time></trkpt><trkpt lat="41.11868452343821" lon="9.515322038208389"><ele>249.99999999999997</ele><time>2026-05-02T08:09:55Z</time></trkpt><trkpt lat="41.11863024529942" lon="9.515367023783421"><ele>250.0</ele><time>2026-05-02T08:09:56Z</time></trkpt><trkpt lat="41.11857311489331" lon="9.515416724620412"><ele>252.49999999999997</ele><time>2026-05-02T08:09:57Z</time></trkpt><trkpt lat="41.11849295151516" lon="9.515521247779045"><ele>255.0</ele><time>2026-05-02T08:09:59Z</time></trkpt><trkpt lat="41.11843701326987" lon="9.515568101685256"><ele>257.5</ele><time>2026-05-02T08:10:00Z</time></trkpt><trkpt lat="41.118349615921076" lon="9.51565277925968"><ele>260.0</ele><time>2026-05-02T08:10:02Z</time></trkpt><trkpt lat="41.11829228465687" lon="9.51569210889442"><ele>262.5</ele><time>2026-05-02T08:10:03Z</time></trkpt><trkpt lat="41.11821730541494" lon="9.515714752873794"><ele>265.0</ele><time>2026-05-02T08:10:04Z</time></trkpt><trkpt lat="41.118145840675425" lon="9.515741239248813"><ele>265.0</ele><time>2026-05-02T08:10:05Z</time></trkpt><trkpt lat="41.11807485887507" lon="9.515783717651315"><ele>265.0</ele><time>2026-05-02T08:10:06Z</time></trkpt><trkpt lat="41.1180030559879" lon="9.515815999550345"><ele>265.0</ele><time>2026-05-02T08:10:07Z</time></trkpt><trkpt lat="41.11791854967575" lon="9.515848514705691"><ele>265.0</ele><time>2026-05-02T08:10:08Z</time></trkpt><trkpt lat="41.11785545645361" lon="9.515901435948285"><ele>265.0</ele><time>2026-05-02T08:10:09Z</time></trkpt><trkpt lat="41.117745701138375" lon="9.515925141612732"><ele>265.0</ele><time>2026-05-02T08:10:11Z</time></trkpt><trkpt lat="41.11766559207586" lon="9.515931313038948"><ele>265.0</ele><time>2026-05-02T08:10:12Z</time></trkpt><trkpt lat="41.11759662894184" lon="9.51594145343458"><ele>265.0</ele><time>2026-05-02T08:10:13Z</time></trkpt><trkpt lat="41.11753230343194" lon="9.51596840289605"><ele>265.0</ele><time>2026-05-02T08:10:14Z</time></trkpt><trkpt lat="41.11744907337422" lon="9.516014454537821"><ele>265.0</ele><time>2026-05-02T08:10:15Z</time></trkpt><trkpt lat="41.117360318403655" lon="9.516059418559086"><ele>265.0</ele><time>2026-05-02T08:10:16Z</time></trkpt><trkpt lat="41.11727463328589" lon="9.516094455312935"><ele>265.0</ele><time>2026-05-02T08:10:17Z</time></trkpt><trkpt lat="41.117194648895" lon="9.51609937508608"><ele>265.16666666666663</ele><time>2026-05-02T08:10:18Z</time></trkpt><trkpt lat="41.11711930165669" lon="9.516112554340777"><ele>265.3333333333333</ele><time>2026-05-02T08:10:19Z</time></trkpt><trkpt lat="41.1170528547226" lon="9.516148136758506"><ele>265.5</ele><time>2026-05-02T08:10:20Z</time></trkpt><trkpt lat="41.11698167636769" lon="9.516199001100803"><ele>265.6666666666667</ele><time>2026-05-02T08:10:21Z</time></trkpt><trkpt lat="41.116887601918556" lon="9.516244292985357"><ele>265.83333333333337</ele><time>2026-05-02T08:10:22Z</time></trkpt><trkpt lat="41.11678174823853" lon="9.516290255317731"><ele>266.0</ele><time>2026-05-02T08:10:23Z</time></trkpt><trkpt lat="41.11666580243844" lon="9.516326410302533"><ele>267.0</ele><time>2026-05-02T08:10:24Z</time></trkpt><trkpt lat="41.11658411533215" lon="9.51637540844977"><ele>268.0</ele><time>2026-05-02T08:10:25Z</time></trkpt><trkpt lat="41.11650726359056" lon="9.516423805762626"><ele>269.0</ele><time>2026-05-02T08:10:26Z</time></trkpt><trkpt lat="41.116421278197414" lon="9.516460216443564"><ele>270.0</ele><time>2026-05-02T08:10:27Z</time></trkpt><trkpt lat="41.116350997981826" lon="9.516488933721194"><ele>271.0</ele><time>2026-05-02T08:10:28Z</time></trkpt><trkpt lat="41.11628688609406" lon="9.516514382118352"><ele>272.0</ele><time>2026-05-02T08:10:29Z</time></trkpt><trkpt lat="41.11619962009368" lon="9.516560920512878"><ele>272.1666666666667</ele><time>2026-05-02T08:10:30Z</time></trkpt><trkpt lat="41.11610375962118" lon="9.516588371456868"><ele>272.33333333333337</ele><time>2026-05-02T08:10:31Z</time></trkpt><trkpt lat="41.11603204927204" lon="9.516626737474338"><ele>272.5</ele><time>2026-05-02T08:10:32Z</time></trkpt><trkpt lat="41.115950141574224" lon="9.516663714313154"><ele>272.6666666666667</ele><time>2026-05-02T08:10:33Z</time></trkpt><trkpt lat="41.11586176918063" lon="9.516711702986917"><ele>272.8333333333333</ele><time>2026-05-02T08:10:34Z</time></trkpt><trkpt lat="41.11578424306927" lon="9.516775821111445"><ele>273.0</ele><time>2026-05-02T08:10:35Z</time></trkpt><trkpt lat="41.11570294018379" lon="9.51680343100355"><ele>273.0</ele><time>2026-05-02T08:10:36Z</time></trkpt><trkpt lat="41.115626323864014" lon="9.516856921017343"><ele>273.0</ele><time>2026-05-02T08:10:38Z</time></trkpt><trkpt lat="41.11557233060539" lon="9.516684482790852"><ele>273.0</ele><time>2026-05-02T08:10:43Z</time></trkpt><trkpt lat="41.115497882558" lon="9.516614648769629"><ele>273.0</ele><time>2026-05-02T08:10:45Z</time></trkpt><trkpt lat="41.11538263401317" lon="9.516583667502992"><ele>273.0</ele><time>2026-05-02T08:10:47Z</time></trkpt><trkpt lat="41.115320047656816" lon="9.516604619028062"><ele>273.0</ele><time>2026-05-02T08:10:48Z</time></trkpt><trkpt lat="41.11525184900527" lon="9.516639563122716"><ele>273.0</ele><time>2026-05-02T08:10:49Z</time></trkpt><trkpt lat="41.115185723160984" lon="9.5166646444925"><ele>273.0</ele><time>2026-05-02T08:10:50Z</time></trkpt><trkpt lat="41.11511898324475" lon="9.516683921196893"><ele>273.0</ele><time>2026-05-02T08:10:51Z</time></trkpt><trkpt lat="41.11499692777597" lon="9.51669244750701"><ele>273.0</ele><time>2026-05-02T08:10:53Z</time></trkpt><trkpt lat="41.11492501791861" lon="9.516669798354423"><ele>273.0</ele><time>2026-05-02T08:10:54Z</time></trkpt><trkpt lat="41.11487091570427" lon="9.516621057778757"><ele>274.5</ele><time>2026-05-02T08:10:55Z</time></trkpt><trkpt lat="41.11479585154474" lon="9.516560287862944"><ele>276.0</ele><time>2026-05-02T08:10:57Z</time></trkpt><trkpt lat="41.114766352189704" lon="9.516455671573615"><ele>277.5</ele><time>2026-05-02T08:10:59Z</time></trkpt><trkpt lat="41.11474756021112" lon="9.51635151143467"><ele>279.0</ele><time>2026-05-02T08:11:01Z</time></trkpt><trkpt lat="41.11464079645002" lon="9.516314376946385"><ele>280.5</ele><time>2026-05-02T08:11:03Z</time></trkpt><trkpt lat="41.11456702385031" lon="9.516282307926623"><ele>282.0</ele><time>2026-05-02T08:11:04Z</time></trkpt><trkpt lat="41.11446711137705" lon="9.516232058099215"><ele>282.0</ele><time>2026-05-02T08:11:06Z</time></trkpt><trkpt lat="41.11440077998156" lon="9.516170255823548"><ele>282.0</ele><time>2026-05-02T08:11:08Z</time></trkpt><trkpt lat="41.114352004289366" lon="9.516114782890396"><ele>282.0</ele><time>2026-05-02T08:11:09Z</time></trkpt><trkpt lat="41.1143036965567" lon="9.516052185355456"><ele>282.0</ele><time>2026-05-02T08:11:10Z</time></trkpt><trkpt lat="41.1142191016045" lon="9.5159287354649"><ele>282.0</ele><time>2026-05-02T08:11:12Z</time></trkpt><trkpt lat="41.114176621768785" lon="9.515862445719467"><ele>282.0</ele><time>2026-05-02T08:11:13Z</time></trkpt><trkpt lat="41.11411739625922" lon="9.515773112312594"><ele>284.4</ele><time>2026-05-02T08:11:15Z</time></trkpt><trkpt lat="41.11404283899468" lon="9.51562726115699"><ele>286.79999999999995</ele><time>2026-05-02T08:11:17Z</time></trkpt><trkpt lat="41.11400009889322" lon="9.515536322481639"><ele>289.2</ele><time>2026-05-02T08:11:18Z</time></trkpt><trkpt lat="41.11396037599473" lon="9.515466822228094"><ele>291.59999999999997</ele><time>2026-05-02T08:11:19Z</time></trkpt><trkpt lat="41.11391784710069" lon="9.51539534363539"><ele>294.0</ele><time>2026-05-02T08:11:20Z</time></trkpt><trkpt lat="41.11383609084994" lon="9.515284071353902"><ele>296.8333333333333</ele><time>2026-05-02T08:11:22Z</time></trkpt><trkpt lat="41.113725846860696" lon="9.515235934719565"><ele>299.6666666666667</ele><time>2026-05-02T08:11:24Z</time></trkpt><trkpt lat="41.113661621681224" lon="9.515263511765543"><ele>302.5</ele><time>2026-05-02T08:12:06Z</time></trkpt><trkpt lat="41.11360590197615" lon="9.51521387345021"><ele>305.33333333333337</ele><time>2026-05-02T08:12:13Z</time></trkpt><trkpt lat="41.11353418522157" lon="9.515181215261473"><ele>308.1666666666667</ele><time>2026-05-02T08:12:47Z</time></trkpt><trkpt lat="41.113434635524506" lon="9.515211031733411"><ele>311.0</ele><time>2026-05-02T08:12:50Z</time></trkpt><trkpt lat="41.113361328097966" lon="9.515272534561342"><ele>311.0</ele><time>2026-05-02T08:12:52Z</time></trkpt><trkpt lat="41.11330514939476" lon="9.515339200917193"><ele>311.0</ele><time>2026-05-02T08:12:53Z</time></trkpt><trkpt lat="41.11326051334817" lon="9.51540068315515"><ele>311.0</ele><time>2026-05-02T08:12:54Z</time></trkpt><trkpt lat="41.1131913078436" lon="9.515414906485791"><ele>311.0</ele><time>2026-05-02T08:12:56Z</time></trkpt><trkpt lat="41.11312824739387" lon="9.515434086079644"><ele>311.0</ele><time>2026-05-02T08:12:57Z</time></trkpt><trkpt lat="41.11302668087546" lon="9.515464700398558"><ele>311.0</ele><time>2026-05-02T08:12:59Z</time></trkpt><trkpt lat="41.112967223430175" lon="9.515498608812509"><ele>311.0</ele><time>2026-05-02T08:13:01Z</time></trkpt><trkpt lat="41.11288896912029" lon="9.515491427658691"><ele>311.40000000000003</ele><time>2026-05-02T08:13:04Z</time></trkpt><trkpt lat="41.112797113671384" lon="9.515486826230529"><ele>311.8</ele><time>2026-05-02T08:13:06Z</time></trkpt><trkpt lat="41.11272913853206" lon="9.515458815408264"><ele>312.20000000000005</ele><time>2026-05-02T08:13:07Z</time></trkpt><trkpt lat="41.11261068924996" lon="9.515443664697042"><ele>312.6</ele><time>2026-05-02T08:13:09Z</time></trkpt><trkpt lat="41.11253090206954" lon="9.515452482710474"><ele>313.0</ele><time>2026-05-02T08:13:10Z</time></trkpt><trkpt lat="41.11243280926119" lon="9.515421135637029"><ele>317.8</ele><time>2026-05-02T08:13:12Z</time></trkpt><trkpt lat="41.11230914207374" lon="9.515432066913307"><ele>322.6</ele><time>2026-05-02T08:13:14Z</time></trkpt><trkpt lat="41.11221626914326" lon="9.515462672553621"><ele>327.40000000000003</ele><time>2026-05-02T08:13:16Z</time></trkpt><trkpt lat="41.11214100085623" lon="9.515464807464616"><ele>332.20000000000005</ele><time>2026-05-02T08:13:18Z</time></trkpt><trkpt lat="41.11222783123781" lon="9.51544209196481"><ele>337.0</ele><time>2026-05-02T08:17:54Z</time></trkpt><trkpt lat="41.11230492556397" lon="9.515444723887583"><ele>332.20000000000005</ele><time>2026-05-02T08:19:20Z</time></trkpt><trkpt lat="41.11248898310284" lon="9.515422114624622"><ele>327.40000000000003</ele><time>2026-05-02T08:19:26Z</time></trkpt><trkpt lat="41.11256391733484" lon="9.515455308868795"><ele>322.6</ele><time>2026-05-02T08:19:28Z</time></trkpt><trkpt lat="41.11263447070221" lon="9.51545316796003"><ele>317.8</ele><time>2026-05-02T08:19:30Z</time></trkpt><trkpt lat="41.11271082804497" lon="9.51544909717513"><ele>313.0</ele><time>2026-05-02T08:19:32Z</time></trkpt><trkpt lat="41.11277431448945" lon="9.515456947675272"><ele>313.0</ele><time>2026-05-02T08:19:34Z</time></trkpt><trkpt lat="41.11285263966907" lon="9.515504585120608"><ele>313.0</ele><time>2026-05-02T08:19:37Z</time></trkpt><trkpt lat="41.112930643534625" lon="9.515501582531765"><ele>313.0</ele><time>2026-05-02T08:19:41Z</time></trkpt><trkpt lat="41.11300983958216" lon="9.515478049000802"><ele>313.0</ele><time>2026-05-02T08:19:48Z</time></trkpt><trkpt lat="41.11307609438094" lon="9.515446264830885"><ele>313.0</ele><time>2026-05-02T08:19:51Z</time></trkpt><trkpt lat="41.11313775840041" lon="9.515424681815713"><ele>313.0</ele><time>2026-05-02T08:19:53Z</time></trkpt><trkpt lat="41.11322127460378" lon="9.515396097630424"><ele>312.66666666666663</ele><time>2026-05-02T08:19:56Z</time></trkpt><trkpt lat="41.11329123217842" lon="9.515352420043827"><ele>312.3333333333333</ele><time>2026-05-02T08:19:59Z</time></trkpt><trkpt lat="41.11334587190988" lon="9.51528002500681"><ele>312.0</ele><time>2026-05-02T08:20:01Z</time></trkpt><trkpt lat="41.113396124664426" lon="9.515211793867907"><ele>311.6666666666667</ele><time>2026-05-02T08:20:03Z</time></trkpt><trkpt lat="41.113480660159766" lon="9.515173184390411"><ele>311.33333333333337</ele><time>2026-05-02T08:20:06Z</time></trkpt><trkpt lat="41.113549879063164" lon="9.515184904746473"><ele>311.0</ele><time>2026-05-02T08:20:09Z</time></trkpt><trkpt lat="41.11362031074124" lon="9.515197000524605"><ele>311.0</ele><time>2026-05-02T08:20:15Z</time></trkpt><trkpt lat="41.11369058651842" lon="9.515240643289218"><ele>311.0</ele><time>2026-05-02T08:20:23Z</time></trkpt><trkpt lat="41.11377865856271" lon="9.515246898786277"><ele>311.0</ele><time>2026-05-02T08:20:26Z</time></trkpt><trkpt lat="41.11384557019445" lon="9.515264480813444"><ele>311.0</ele><time>2026-05-02T08:20:28Z</time></trkpt><trkpt lat="41.11389111124311" lon="9.515341090610109"><ele>311.0</ele><time>2026-05-02T08:20:30Z</time></trkpt><trkpt lat="41.113923960802694" lon="9.515412608228157"><ele>311.0</ele><time>2026-05-02T08:20:32Z</time></trkpt><trkpt lat="41.11397208471188" lon="9.515507251722514"><ele>308.1666666666667</ele><time>2026-05-02T08:20:34Z</time></trkpt><trkpt lat="41.11403089615297" lon="9.515610546986942"><ele>305.33333333333337</ele><time>2026-05-02T08:20:36Z</time></trkpt><trkpt lat="41.114074644434574" lon="9.515697361768414"><ele>302.5</ele><time>2026-05-02T08:20:38Z</time></trkpt><trkpt lat="41.11413360087907" lon="9.515777494514296"><ele>299.6666666666667</ele><time>2026-05-02T08:20:40Z</time></trkpt><trkpt lat="41.114168585572855" lon="9.515860037244648"><ele>296.8333333333333</ele><time>2026-05-02T08:20:42Z</time></trkpt><trkpt lat="41.114216054366096" lon="9.515921672557852"><ele>294.0</ele><time>2026-05-02T08:20:53Z</time></trkpt><trkpt lat="41.114257780546076" lon="9.515990657850468"><ele>292.0</ele><time>2026-05-02T08:20:55Z</time></trkpt><trkpt lat="41.11431641401234" lon="9.516067698381537"><ele>290.0</ele><time>2026-05-02T08:20:57Z</time></trkpt><trkpt lat="41.11438118727777" lon="9.516157428433207"><ele>288.0</ele><time>2026-05-02T08:20:59Z</time></trkpt><trkpt lat="41.1144436814311" lon="9.516214923996626"><ele>286.0</ele><time>2026-05-02T08:21:01Z</time></trkpt><trkpt lat="41.114530666295735" lon="9.5162706805241"><ele>284.0</ele><time>2026-05-02T08:21:03Z</time></trkpt><trkpt lat="41.11459772424011" lon="9.516308757790073"><ele>282.0</ele><time>2026-05-02T08:21:05Z</time></trkpt><trkpt lat="41.114674235796954" lon="9.516340629799679"><ele>280.2</ele><time>2026-05-02T08:21:07Z</time></trkpt><trkpt lat="41.11476011775117" lon="9.516396600089049"><ele>278.4</ele><time>2026-05-02T08:21:09Z</time></trkpt><trkpt lat="41.1147959898943" lon="9.516522198189875"><ele>276.6</ele><time>2026-05-02T08:21:12Z</time></trkpt><trkpt lat="41.114842788308835" lon="9.516603502622027"><ele>274.8</ele><time>2026-05-02T08:21:14Z</time></trkpt><trkpt lat="41.1149341074987" lon="9.516667796504706"><ele>273.0</ele><time>2026-05-02T08:21:16Z</time></trkpt><trkpt lat="41.11503344260422" lon="9.516699126407913"><ele>273.0</ele><time>2026-05-02T08:21:18Z</time></trkpt><trkpt lat="41.115097312929045" lon="9.516700052615679"><ele>273.0</ele><time>2026-05-02T08:21:19Z</time></trkpt><trkpt lat="41.115159296400385" lon="9.516679343516316"><ele>273.0</ele><time>2026-05-02T08:21:20Z</time></trkpt><trkpt lat="41.11522407856132" lon="9.51664967232879"><ele>273.0</ele><time>2026-05-02T08:21:21Z</time></trkpt><trkpt lat="41.11534423230083" lon="9.516614162939979"><ele>273.0</ele><time>2026-05-02T08:21:23Z</time></trkpt><trkpt lat="41.11544355719998" lon="9.516588353749215"><ele>273.0</ele><time>2026-05-02T08:21:25Z</time></trkpt><trkpt lat="41.1155262555202" lon="9.516647593069468"><ele>273.0</ele><time>2026-05-02T08:21:27Z</time></trkpt><trkpt lat="41.11560334539622" lon="9.5167547513535"><ele>273.0</ele><time>2026-05-02T08:21:29Z</time></trkpt><trkpt lat="41.11565079754911" lon="9.516866044643848"><ele>273.0</ele><time>2026-05-02T08:21:31Z</time></trkpt><trkpt lat="41.11573146714324" lon="9.516836903286922"><ele>273.0</ele><time>2026-05-02T08:21:34Z</time></trkpt><trkpt lat="41.11581560678668" lon="9.516786254811656"><ele>273.0</ele><time>2026-05-02T08:21:36Z</time></trkpt><trkpt lat="41.1159026886273" lon="9.516729593249389"><ele>273.8333333333333</ele><time>2026-05-02T08:21:38Z</time></trkpt><trkpt lat="41.11601811962126" lon="9.516664510208127"><ele>274.6666666666667</ele><time>2026-05-02T08:21:40Z</time></trkpt><trkpt lat="41.11608050161212" lon="9.516628421881949"><ele>275.5</ele><time>2026-05-02T08:21:41Z</time></trkpt><trkpt lat="41.11614174888825" lon="9.516591949674565"><ele>276.33333333333337</ele><time>2026-05-02T08:21:42Z</time></trkpt><trkpt lat="41.1162565932008" lon="9.51655096177624"><ele>277.1666666666667</ele><time>2026-05-02T08:21:44Z</time></trkpt><trkpt lat="41.116323571408856" lon="9.516544736201045"><ele>278.0</ele><time>2026-05-02T08:21:45Z</time></trkpt><trkpt lat="41.11643965352142" lon="9.516496470789363"><ele>278.0</ele><time>2026-05-02T08:21:47Z</time></trkpt><trkpt lat="41.11652409427237" lon="9.516442038314194"><ele>278.0</ele><time>2026-05-02T08:21:49Z</time></trkpt><trkpt lat="41.11662899924863" lon="9.516371687176315"><ele>278.0</ele><time>2026-05-02T08:21:51Z</time></trkpt><trkpt lat="41.116690359738435" lon="9.516349630159858"><ele>278.0</ele><time>2026-05-02T08:21:52Z</time></trkpt><trkpt lat="41.11675731022382" lon="9.516333807854162"><ele>278.0</ele><time>2026-05-02T08:21:53Z</time></trkpt><trkpt lat="41.11687894588193" lon="9.516282047693165"><ele>277.0</ele><time>2026-05-02T08:21:55Z</time></trkpt><trkpt lat="41.116949569950876" lon="9.516245054718912"><ele>276.0</ele><time>2026-05-02T08:21:56Z</time></trkpt><trkpt lat="41.117016756608" lon="9.516213795624763"><ele>275.0</ele><time>2026-05-02T08:21:57Z</time></trkpt><trkpt lat="41.11707258582599" lon="9.516173685537371"><ele>274.0</ele><time>2026-05-02T08:21:58Z</time></trkpt><trkpt lat="41.11713373931943" lon="9.51613943667634"><ele>273.0</ele><time>2026-05-02T08:21:59Z</time></trkpt><trkpt lat="41.11726301156082" lon="9.516141436593717"><ele>272.0</ele><time>2026-05-02T08:22:01Z</time></trkpt><trkpt lat="41.1173284899921" lon="9.516105759855167"><ele>271.0</ele><time>2026-05-02T08:22:02Z</time></trkpt><trkpt lat="41.11739461311251" lon="9.516084607765352"><ele>270.0</ele><time>2026-05-02T08:22:03Z</time></trkpt><trkpt lat="41.11745716660423" lon="9.516051785287408"><ele>269.0</ele><time>2026-05-02T08:22:04Z</time></trkpt><trkpt lat="41.117516243525245" lon="9.516017129096568"><ele>268.0</ele><time>2026-05-02T08:22:05Z</time></trkpt><trkpt lat="41.11762962236745" lon="9.51596015336977"><ele>267.0</ele><time>2026-05-02T08:22:07Z</time></trkpt><trkpt lat="41.117753420720426" lon="9.515955828722523"><ele>266.0</ele><time>2026-05-02T08:22:09Z</time></trkpt><trkpt lat="41.11786295625254" lon="9.515954079048043"><ele>265.8</ele><time>2026-05-02T08:22:11Z</time></trkpt><trkpt lat="41.11793108142407" lon="9.51588808991684"><ele>265.6</ele><time>2026-05-02T08:22:13Z</time></trkpt><trkpt lat="41.11803099008534" lon="9.515801463661848"><ele>265.4</ele><time>2026-05-02T08:22:15Z</time></trkpt><trkpt lat="41.1180904492402" lon="9.515773741822427"><ele>265.2</ele><time>2026-05-02T08:22:16Z</time></trkpt><trkpt lat="41.118204587161536" lon="9.515751121285621"><ele>265.0</ele><time>2026-05-02T08:22:18Z</time></trkpt><trkpt lat="41.118292334584055" lon="9.515720897651123"><ele>265.0</ele><time>2026-05-02T08:22:20Z</time></trkpt><trkpt lat="41.11838012390603" lon="9.515667656569546"><ele>265.0</ele><time>2026-05-02T08:22:22Z</time></trkpt><trkpt lat="41.11845976481165" lon="9.515585503143488"><ele>265.0</ele><time>2026-05-02T08:22:24Z</time></trkpt><trkpt lat="41.11851625925437" lon="9.515497252318127"><ele>265.0</ele><time>2026-05-02T08:22:26Z</time></trkpt><trkpt lat="41.11861512533049" lon="9.515416096027897"><ele>265.0</ele><time>2026-05-02T08:22:28Z</time></trkpt><trkpt lat="41.11866937155954" lon="9.515363647853647"><ele>262.0</ele><time>2026-05-02T08:22:29Z</time></trkpt><trkpt lat="41.11876619658576" lon="9.515286203803825"><ele>259.0</ele><time>2026-05-02T08:22:31Z</time></trkpt><trkpt lat="41.11886291143816" lon="9.515198778760247"><ele>256.0</ele><time>2026-05-02T08:22:33Z</time></trkpt><trkpt lat="41.118931390430255" lon="9.515092419584144"><ele>253.0</ele><time>2026-05-02T08:22:35Z</time></trkpt><trkpt lat="41.118955252516535" lon="9.51498207520963"><ele>250.0</ele><time>2026-05-02T08:22:36.999Z</time></trkpt><trkpt lat="41.118981317402536" lon="9.514878031166356"><ele>249.99999999999997</ele><time>2026-05-02T08:22:38.999Z</time></trkpt><trkpt lat="41.11899998729299" lon="9.514780658019207"><ele>250.0</ele><time>2026-05-02T08:22:40.999Z</time></trkpt><trkpt lat="41.11895810494255" lon="9.51468832793575"><ele>250.0</ele><time>2026-05-02T08:22:42.999Z</time></trkpt><trkpt lat="41.118903052210456" lon="9.514646524702409"><ele>250.0</ele><time>2026-05-02T08:22:44.999Z</time></trkpt><trkpt lat="41.11884295186456" lon="9.514572624360387"><ele>249.99999999999997</ele><time>2026-05-02T08:22:46.999Z</time></trkpt><trkpt lat="41.118799026124215" lon="9.514478452108152"><ele>250.0</ele><time>2026-05-02T08:22:49Z</time></trkpt><trkpt lat="41.11883572547385" lon="9.514407009500855"><ele>247.66666666666666</ele><time>2026-05-02T08:22:51Z</time></trkpt><trkpt lat="41.1189114039024" lon="9.51434110203436"><ele>245.33333333333331</ele><time>2026-05-02T08:22:53Z</time></trkpt><trkpt lat="41.118955326033756" lon="9.51426962139495"><ele>243.0</ele><time>2026-05-02T08:22:54Z</time></trkpt><trkpt lat="41.11900781448601" lon="9.514200744951772"><ele>240.66666666666669</ele><time>2026-05-02T08:22:55Z</time></trkpt><trkpt lat="41.11905868561933" lon="9.514146797488717"><ele>238.33333333333334</ele><time>2026-05-02T08:22:56Z</time></trkpt><trkpt lat="41.11911616986853" lon="9.514111234331455"><ele>236.0</ele><time>2026-05-02T08:22:57Z</time></trkpt><trkpt lat="41.11922160813292" lon="9.51407275760635"><ele>235.16666666666669</ele><time>2026-05-02T08:22:59Z</time></trkpt><trkpt lat="41.11931560694967" lon="9.514004303413534"><ele>234.33333333333334</ele><time>2026-05-02T08:23:01Z</time></trkpt><trkpt lat="41.119364612568305" lon="9.513947006901493"><ele>233.5</ele><time>2026-05-02T08:23:02Z</time></trkpt><trkpt lat="41.1194646136379" lon="9.513846667073134"><ele>232.66666666666669</ele><time>2026-05-02T08:23:04Z</time></trkpt><trkpt lat="41.119522888408476" lon="9.513810976787326"><ele>231.83333333333334</ele><time>2026-05-02T08:23:05Z</time></trkpt><trkpt lat="41.11958501269606" lon="9.513776141552254"><ele>231.0</ele><time>2026-05-02T08:23:06Z</time></trkpt><trkpt lat="41.1196440702046" lon="9.51374612052327"><ele>231.0</ele><time>2026-05-02T08:23:07Z</time></trkpt><trkpt lat="41.11975895095195" lon="9.513744948700719"><ele>231.0</ele><time>2026-05-02T08:23:09Z</time></trkpt><trkpt lat="41.11987169695205" lon="9.513813540798651"><ele>231.0</ele><time>2026-05-02T08:23:11Z</time></trkpt><trkpt lat="41.1199338972364" lon="9.513835416826106"><ele>231.0</ele><time>2026-05-02T08:23:12Z</time></trkpt><trkpt lat="41.1199997455722" lon="9.513828574787016"><ele>231.0</ele><time>2026-05-02T08:23:13Z</time></trkpt><trkpt lat="41.12006811528764" lon="9.513800798016037"><ele>231.0</ele><time>2026-05-02T08:23:14Z</time></trkpt><trkpt lat="41.12014377818664" lon="9.513769168276486"><ele>226.20000000000002</ele><time>2026-05-02T08:23:15Z</time></trkpt><trkpt lat="41.12020817280377" lon="9.513734839386471"><ele>221.40000000000003</ele><time>2026-05-02T08:23:16Z</time></trkpt><trkpt lat="41.12035966556184" lon="9.513673109613954"><ele>216.6</ele><time>2026-05-02T08:23:18Z</time></trkpt><trkpt lat="41.12044121792744" lon="9.5136704556516"><ele>211.8</ele><time>2026-05-02T08:23:19Z</time></trkpt><trkpt lat="41.12052766138397" lon="9.513686058414246"><ele>207.0</ele><time>2026-05-02T08:23:20Z</time></trkpt><trkpt lat="41.12061244376346" lon="9.513677592098498"><ele>207.0</ele><time>2026-05-02T08:23:21Z</time></trkpt><trkpt lat="41.120692444515726" lon="9.513675585953907"><ele>207.0</ele><time>2026-05-02T08:23:22Z</time></trkpt><trkpt lat="41.12077497359725" lon="9.513655687011772"><ele>207.0</ele><time>2026-05-02T08:23:23Z</time></trkpt><trkpt lat="41.120850698331786" lon="9.51362342210269"><ele>207.0</ele><time>2026-05-02T08:23:24Z</time></trkpt><trkpt lat="41.120920520140025" lon="9.513586284214826"><ele>207.0</ele><time>2026-05-02T08:23:25Z</time></trkpt><trkpt lat="41.121026293996444" lon="9.513616356262865"><ele>207.0</ele><time>2026-05-02T08:23:27Z</time></trkpt><trkpt lat="41.12111027647074" lon="9.513727148215137"><ele>204.33333333333334</ele><time>2026-05-02T08:23:29Z</time></trkpt><trkpt lat="41.12117161976297" lon="9.513771165694752"><ele>201.66666666666666</ele><time>2026-05-02T08:23:30Z</time></trkpt><trkpt lat="41.12123605344061" lon="9.51378118252311"><ele>199.0</ele><time>2026-05-02T08:23:31Z</time></trkpt><trkpt lat="41.12133564799715" lon="9.51370645703542"><ele>196.33333333333331</ele><time>2026-05-02T08:23:33Z</time></trkpt><trkpt lat="41.12135687120339" lon="9.513618340388906"><ele>193.66666666666666</ele><time>2026-05-02T08:23:34Z</time></trkpt><trkpt lat="41.12137056453218" lon="9.513530704301935"><ele>191.0</ele><time>2026-05-02T08:23:35Z</time></trkpt><trkpt lat="41.121400761354366" lon="9.513441709742548"><ele>190.33333333333331</ele><time>2026-05-02T08:23:36Z</time></trkpt><trkpt lat="41.12143660764579" lon="9.51335423209992"><ele>189.66666666666666</ele><time>2026-05-02T08:23:37Z</time></trkpt><trkpt lat="41.12148366543351" lon="9.513268734450453"><ele>189.0</ele><time>2026-05-02T08:23:38Z</time></trkpt><trkpt lat="41.12155075436358" lon="9.513177404834163"><ele>188.33333333333334</ele><time>2026-05-02T08:23:39Z</time></trkpt><trkpt lat="41.12160447162363" lon="9.513105272374952"><ele>187.66666666666669</ele><time>2026-05-02T08:23:40Z</time></trkpt><trkpt lat="41.12165521134065" lon="9.51302565195278"><ele>187.0</ele><time>2026-05-02T08:23:41Z</time></trkpt><trkpt lat="41.1217151932755" lon="9.512981927186527"><ele>183.0</ele><time>2026-05-02T08:23:42Z</time></trkpt><trkpt lat="41.121789100238814" lon="9.512968372938017"><ele>179.0</ele><time>2026-05-02T08:23:43Z</time></trkpt><trkpt lat="41.12187869711024" lon="9.512939453571509"><ele>175.0</ele><time>2026-05-02T08:23:44Z</time></trkpt><trkpt lat="41.12196509610322" lon="9.51290003064413"><ele>171.0</ele><time>2026-05-02T08:23:45Z</time></trkpt><trkpt lat="41.12205250344764" lon="9.512844020099081"><ele>167.0</ele><time>2026-05-02T08:23:46Z</time></trkpt><trkpt lat="41.122140303778465" lon="9.51278027531209"><ele>167.0</ele><time>2026-05-02T08:23:47Z</time></trkpt><trkpt lat="41.122200368082915" lon="9.512717428546848"><ele>167.0</ele><time>2026-05-02T08:23:48Z</time></trkpt><trkpt lat="41.12224198113006" lon="9.512618528936967"><ele>167.0</ele><time>2026-05-02T08:23:49Z</time></trkpt><trkpt lat="41.1222558671482" lon="9.512519309646246"><ele>167.0</ele><time>2026-05-02T08:23:50Z</time></trkpt><trkpt lat="41.122275874651606" lon="9.512423839881844"><ele>167.0</ele><time>2026-05-02T08:23:51Z</time></trkpt><trkpt lat="41.12237794040017" lon="9.512325971547572"><ele>167.0</ele><time>2026-05-02T08:23:53Z</time></trkpt><trkpt lat="41.12245341466148" lon="9.512299356516738"><ele>163.5</ele><time>2026-05-02T08:23:54Z</time></trkpt><trkpt lat="41.12252949338785" lon="9.512248369647976"><ele>160.0</ele><time>2026-05-02T08:23:55Z</time></trkpt><trkpt lat="41.122579739798574" lon="9.5121822313466"><ele>156.5</ele><time>2026-05-02T08:23:56Z</time></trkpt><trkpt lat="41.12260918967966" lon="9.512092357529248"><ele>153.0</ele><time>2026-05-02T08:23:57Z</time></trkpt><trkpt lat="41.12263803445058" lon="9.511985999415163"><ele>149.5</ele><time>2026-05-02T08:23:58Z</time></trkpt><trkpt lat="41.122677676796386" lon="9.511886288659618"><ele>146.0</ele><time>2026-05-02T08:23:59Z</time></trkpt><trkpt lat="41.12271871657576" lon="9.511792260368832"><ele>146.0</ele><time>2026-05-02T08:24:00Z</time></trkpt><trkpt lat="41.12273841328896" lon="9.511703953382334"><ele>146.0</ele><time>2026-05-02T08:24:01Z</time></trkpt><trkpt lat="41.12274141224955" lon="9.511591867444674"><ele>146.0</ele><time>2026-05-02T08:24:02Z</time></trkpt><trkpt lat="41.12275800296117" lon="9.511499479547606"><ele>146.0</ele><time>2026-05-02T08:24:03Z</time></trkpt><trkpt lat="41.12280832400881" lon="9.511424556951845"><ele>146.0</ele><time>2026-05-02T08:24:04Z</time></trkpt><trkpt lat="41.122871630426765" lon="9.511397834238903"><ele>146.0</ele><time>2026-05-02T08:24:05Z</time></trkpt><trkpt lat="41.122936062967085" lon="9.51140487138275"><ele>146.0</ele><time>2026-05-02T08:24:06Z</time></trkpt><trkpt lat="41.123014841520785" lon="9.511414939084554"><ele>146.0</ele><time>2026-05-02T08:24:07Z</time></trkpt><trkpt lat="41.123104578684334" lon="9.511425538405083"><ele>146.0</ele><time>2026-05-02T08:24:08Z</time></trkpt><trkpt lat="41.1231970315306" lon="9.511432865997305"><ele>146.0</ele><time>2026-05-02T08:24:09Z</time></trkpt><trkpt lat="41.12329101313978" lon="9.511454827859747"><ele>146.0</ele><time>2026-05-02T08:24:10Z</time></trkpt><trkpt lat="41.12338219961831" lon="9.511471908221276"><ele>146.0</ele><time>2026-05-02T08:24:11Z</time></trkpt><trkpt lat="41.12347654888675" lon="9.511478789628034"><ele>143.0</ele><time>2026-05-02T08:24:12Z</time></trkpt><trkpt lat="41.123575668742916" lon="9.511477805816396"><ele>140.0</ele><time>2026-05-02T08:24:13Z</time></trkpt><trkpt lat="41.12365359787395" lon="9.511496004160898"><ele>137.0</ele><time>2026-05-02T08:24:14Z</time></trkpt><trkpt lat="41.12374271934524" lon="9.511493354061232"><ele>134.0</ele><time>2026-05-02T08:24:15Z</time></trkpt><trkpt lat="41.12383363397461" lon="9.511498879878232"><ele>131.0</ele><time>2026-05-02T08:24:16Z</time></trkpt><trkpt lat="41.12393140839462" lon="9.511496096976481"><ele>131.0</ele><time>2026-05-02T08:24:17Z</time></trkpt><trkpt lat="41.12402576961997" lon="9.511510545942143"><ele>131.0</ele><time>2026-05-02T08:24:18Z</time></trkpt><trkpt lat="41.12411027590801" lon="9.511524974551081"><ele>131.0</ele><time>2026-05-02T08:24:19Z</time></trkpt><trkpt lat="41.12419476174666" lon="9.511538788185787"><ele>131.0</ele><time>2026-05-02T08:24:20Z</time></trkpt><trkpt lat="41.12426406009907" lon="9.51153686853022"><ele>131.0</ele><time>2026-05-02T08:24:21Z</time></trkpt><trkpt lat="41.12434081073613" lon="9.511444612228892"><ele>131.0</ele><time>2026-05-02T08:24:23Z</time></trkpt><trkpt lat="41.12437049541867" lon="9.511355768312324"><ele>130.2</ele><time>2026-05-02T08:24:25Z</time></trkpt><trkpt lat="41.1243035173566" lon="9.511303140914157"><ele>129.39999999999998</ele><time>2026-05-02T08:24:29Z</time></trkpt><trkpt lat="41.12423779667375" lon="9.51128516580769"><ele>128.6</ele><time>2026-05-02T08:24:32Z</time></trkpt><trkpt lat="41.12414507934118" lon="9.511252934121194"><ele>127.8</ele><time>2026-05-02T08:24:34Z</time></trkpt><trkpt lat="41.124020109622414" lon="9.51119485698461"><ele>127.0</ele><time>2026-05-02T08:24:36Z</time></trkpt><trkpt lat="41.12394126762824" lon="9.511174466103775"><ele>129.16666666666669</ele><time>2026-05-02T08:24:37Z</time></trkpt><trkpt lat="41.123855808123906" lon="9.511151243378842"><ele>131.33333333333334</ele><time>2026-05-02T08:24:38Z</time></trkpt><trkpt lat="41.12377645676693" lon="9.51112517891946"><ele>133.5</ele><time>2026-05-02T08:24:39Z</time></trkpt><trkpt lat="41.123699534410605" lon="9.511098947659692"><ele>135.66666666666666</ele><time>2026-05-02T08:24:39.999Z</time></trkpt><trkpt lat="41.12362738020729" lon="9.511076576632373"><ele>137.83333333333331</ele><time>2026-05-02T08:24:40.999Z</time></trkpt><trkpt lat="41.12356355418526" lon="9.51103216747185"><ele>140.0</ele><time>2026-05-02T08:24:41.999Z</time></trkpt><trkpt lat="41.12351874709686" lon="9.510961164516797"><ele>140.0</ele><time>2026-05-02T08:24:42.999Z</time></trkpt><trkpt lat="41.123486001059234" lon="9.51088907453151"><ele>140.0</ele><time>2026-05-02T08:24:43.999Z</time></trkpt><trkpt lat="41.12340830311921" lon="9.510823991801894"><ele>140.0</ele><time>2026-05-02T08:24:45.999Z</time></trkpt><trkpt lat="41.123340506008596" lon="9.510791301950576"><ele>140.0</ele><time>2026-05-02T08:24:47.999Z</time></trkpt><trkpt lat="41.123255582868104" lon="9.510759256992554"><ele>140.0</ele><time>2026-05-02T08:24:59.999Z</time></trkpt><trkpt lat="41.12318003379113" lon="9.510729631993085"><ele>140.0</ele><time>2026-05-02T08:25:00.999Z</time></trkpt><trkpt lat="41.12309862008603" lon="9.510680261685431"><ele>141.4</ele><time>2026-05-02T08:25:01.999Z</time></trkpt><trkpt lat="41.12301338232094" lon="9.510620642888377"><ele>142.8</ele><time>2026-05-02T08:25:02.999Z</time></trkpt><trkpt lat="41.12293756724157" lon="9.510539357241672"><ele>144.2</ele><time>2026-05-02T08:25:03.999Z</time></trkpt><trkpt lat="41.12286679847086" lon="9.510445610291326"><ele>145.6</ele><time>2026-05-02T08:25:04.999Z</time></trkpt><trkpt lat="41.12279691014094" lon="9.510357804788196"><ele>147.0</ele><time>2026-05-02T08:25:05.999Z</time></trkpt><trkpt lat="41.12271683061283" lon="9.510269382837222"><ele>147.0</ele><time>2026-05-02T08:25:06.999Z</time></trkpt><trkpt lat="41.12262700663905" lon="9.51017818935154"><ele>147.0</ele><time>2026-05-02T08:25:07.999Z</time></trkpt><trkpt lat="41.12253355295152" lon="9.510087104826491"><ele>147.0</ele><time>2026-05-02T08:25:08.999Z</time></trkpt><trkpt lat="41.12243681942488" lon="9.509987093108592"><ele>147.0</ele><time>2026-05-02T08:25:09.999Z</time></trkpt><trkpt lat="41.122338804186796" lon="9.509897986879057"><ele>148.25</ele><time>2026-05-02T08:25:10.999Z</time></trkpt><trkpt lat="41.12222836174835" lon="9.509842395242794"><ele>149.5</ele><time>2026-05-02T08:25:11.999Z</time></trkpt><trkpt lat="41.1221035343523" lon="9.509811313196064"><ele>150.75</ele><time>2026-05-02T08:25:12.999Z</time></trkpt><trkpt lat="41.121981926999325" lon="9.509776044698409"><ele>152.0</ele><time>2026-05-02T08:25:13.999Z</time></trkpt><trkpt lat="41.121875514696114" lon="9.509738896388525"><ele>152.0</ele><time>2026-05-02T08:25:14.999Z</time></trkpt><trkpt lat="41.12178584132749" lon="9.509707488541594"><ele>152.0</ele><time>2026-05-02T08:25:15.999Z</time></trkpt><trkpt lat="41.12169728511204" lon="9.509673149432215"><ele>152.0</ele><time>2026-05-02T08:25:16.999Z</time></trkpt><trkpt lat="41.1216065843186" lon="9.509607406147193"><ele>152.0</ele><time>2026-05-02T08:25:17.999Z</time></trkpt><trkpt lat="41.12152802027409" lon="9.509514490737365"><ele>152.0</ele><time>2026-05-02T08:25:18.999Z</time></trkpt><trkpt lat="41.121447194413456" lon="9.509426737916153"><ele>150.2</ele><time>2026-05-02T08:25:19.999Z</time></trkpt><trkpt lat="41.12136121440664" lon="9.509334404468381"><ele>148.39999999999998</ele><time>2026-05-02T08:25:20.999Z</time></trkpt><trkpt lat="41.121288248660484" lon="9.50922489671048"><ele>146.60000000000002</ele><time>2026-05-02T08:25:21.999Z</time></trkpt><trkpt lat="41.12122782536501" lon="9.509107630645573"><ele>144.8</ele><time>2026-05-02T08:25:22.999Z</time></trkpt><trkpt lat="41.12115828447833" lon="9.50903873725744"><ele>143.0</ele><time>2026-05-02T08:25:23.999Z</time></trkpt><trkpt lat="41.121087307272745" lon="9.509025824191783"><ele>143.0</ele><time>2026-05-02T08:25:24.999Z</time></trkpt><trkpt lat="41.121007146312756" lon="9.509056409278635"><ele>143.0</ele><time>2026-05-02T08:25:25.999Z</time></trkpt><trkpt lat="41.120924912030155" lon="9.5090799595457"><ele>143.0</ele><time>2026-05-02T08:25:26.999Z</time></trkpt><trkpt lat="41.12082531111086" lon="9.5090627654469"><ele>143.0</ele><time>2026-05-02T08:25:27.999Z</time></trkpt><trkpt lat="41.12071798507578" lon="9.509015146882101"><ele>143.0</ele><time>2026-05-02T08:25:28.999Z</time></trkpt><trkpt lat="41.12061656537093" lon="9.508944524183581"><ele>144.20000000000002</ele><time>2026-05-02T08:25:29.999Z</time></trkpt><trkpt lat="41.120521102761984" lon="9.508889606708783"><ele>145.4</ele><time>2026-05-02T08:25:30.999Z</time></trkpt><trkpt lat="41.12041626579576" lon="9.508889929059004"><ele>146.60000000000002</ele><time>2026-05-02T08:25:31.999Z</time></trkpt><trkpt lat="41.12031338513349" lon="9.508941364195513"><ele>147.8</ele><time>2026-05-02T08:25:32.999Z</time></trkpt><trkpt lat="41.12021163749831" lon="9.508996323984501"><ele>149.0</ele><time>2026-05-02T08:25:33.999Z</time></trkpt><trkpt lat="41.12010230682469" lon="9.509009503465492"><ele>149.0</ele><time>2026-05-02T08:25:34.999Z</time></trkpt><trkpt lat="41.11998492380697" lon="9.508985436423913"><ele>149.0</ele><time>2026-05-02T08:25:35.999Z</time></trkpt><trkpt lat="41.1198620216037" lon="9.50897365712746"><ele>149.0</ele><time>2026-05-02T08:25:36.999Z</time></trkpt><trkpt lat="41.11974033661852" lon="9.508996596438019"><ele>149.0</ele><time>2026-05-02T08:25:37.999Z</time></trkpt><trkpt lat="41.11962199579929" lon="9.50904445100742"><ele>150.0</ele><time>2026-05-02T08:25:38.999Z</time></trkpt><trkpt lat="41.11951561329935" lon="9.509119072876215"><ele>151.0</ele><time>2026-05-02T08:25:39.999Z</time></trkpt><trkpt lat="41.119433410916756" lon="9.509212729084576"><ele>152.0</ele><time>2026-05-02T08:25:40.999Z</time></trkpt><trkpt lat="41.119361872614085" lon="9.509290677987675"><ele>153.0</ele><time>2026-05-02T08:25:41.999Z</time></trkpt><trkpt lat="41.119282930805106" lon="9.50930618918777"><ele>154.0</ele><time>2026-05-02T08:25:42.999Z</time></trkpt><trkpt lat="41.1191885815048" lon="9.50925508767261"><ele>154.0</ele><time>2026-05-02T08:25:43.999Z</time></trkpt><trkpt lat="41.11907960765809" lon="9.509178455271664"><ele>154.0</ele><time>2026-05-02T08:25:44.999Z</time></trkpt><trkpt lat="41.11898465340211" lon="9.509113858866803"><ele>154.0</ele><time>2026-05-02T08:25:45.999Z</time></trkpt><trkpt lat="41.11894159085825" lon="9.509036914112029"><ele>154.0</ele><time>2026-05-02T08:25:46.999Z</time></trkpt><trkpt lat="41.11892432469669" lon="9.508926910892223"><ele>154.0</ele><time>2026-05-02T08:25:47.999Z</time></trkpt><trkpt lat="41.11887271220556" lon="9.508796192037211"><ele>155.25</ele><time>2026-05-02T08:25:48.999Z</time></trkpt><trkpt lat="41.118788942952335" lon="9.508670134282129"><ele>156.5</ele><time>2026-05-02T08:25:49.999Z</time></trkpt><trkpt lat="41.11871657846912" lon="9.508602085249018"><ele>157.75</ele><time>2026-05-02T08:25:50.999Z</time></trkpt><trkpt lat="41.11867629484785" lon="9.508477139240311"><ele>159.0</ele><time>2026-05-02T08:25:53.999Z</time></trkpt><trkpt lat="41.11858994795743" lon="9.508338713509408"><ele>159.0</ele><time>2026-05-02T08:25:55.999Z</time></trkpt><trkpt lat="41.11853256516555" lon="9.508249487485658"><ele>159.0</ele><time>2026-05-02T08:25:56.999Z</time></trkpt><trkpt lat="41.118478173356536" lon="9.508146242650183"><ele>159.0</ele><time>2026-05-02T08:25:57.999Z</time></trkpt><trkpt lat="41.11843391316651" lon="9.508048101624174"><ele>159.0</ele><time>2026-05-02T08:25:58.999Z</time></trkpt><trkpt lat="41.118399025119515" lon="9.507960848350553"><ele>159.0</ele><time>2026-05-02T08:25:59.999Z</time></trkpt><trkpt lat="41.11836692697446" lon="9.507861802643173"><ele>159.0</ele><time>2026-05-02T08:26:00.999Z</time></trkpt><trkpt lat="41.118332720675866" lon="9.507777188075876"><ele>159.7142857142857</ele><time>2026-05-02T08:26:01.999Z</time></trkpt><trkpt lat="41.11829383630266" lon="9.507699099670944"><ele>160.42857142857144</ele><time>2026-05-02T08:26:02.999Z</time></trkpt><trkpt lat="41.11826620678623" lon="9.507610753237914"><ele>161.14285714285714</ele><time>2026-05-02T08:26:03.999Z</time></trkpt><trkpt lat="41.11823485760157" lon="9.507525560835317"><ele>161.85714285714283</ele><time>2026-05-02T08:26:04.999Z</time></trkpt><trkpt lat="41.118190309194674" lon="9.50745829827214"><ele>162.57142857142856</ele><time>2026-05-02T08:26:05.999Z</time></trkpt><trkpt lat="41.118128315741856" lon="9.507404468632254"><ele>163.28571428571428</ele><time>2026-05-02T08:26:06.999Z</time></trkpt><trkpt lat="41.11807045187781" lon="9.507351570463628"><ele>164.0</ele><time>2026-05-02T08:26:07.999Z</time></trkpt><trkpt lat="41.1180386929833" lon="9.507231178399854"><ele>164.0</ele><time>2026-05-02T08:26:09.999Z</time></trkpt><trkpt lat="41.1180349889212" lon="9.507133996418089"><ele>164.0</ele><time>2026-05-02T08:26:10.999Z</time></trkpt><trkpt lat="41.11801358884631" lon="9.507029498582538"><ele>164.0</ele><time>2026-05-02T08:26:11.999Z</time></trkpt><trkpt lat="41.11799367366789" lon="9.506923961158881"><ele>164.0</ele><time>2026-05-02T08:26:12.999Z</time></trkpt><trkpt lat="41.117984583217165" lon="9.5068314795997"><ele>164.0</ele><time>2026-05-02T08:26:13.999Z</time></trkpt><trkpt lat="41.11792275164774" lon="9.506713079413016"><ele>164.0</ele><time>2026-05-02T08:26:15.999Z</time></trkpt><trkpt lat="41.11780271997212" lon="9.506637295557615"><ele>162.5</ele><time>2026-05-02T08:26:17.999Z</time></trkpt><trkpt lat="41.1177444285824" lon="9.506572480907986"><ele>161.0</ele><time>2026-05-02T08:26:19.999Z</time></trkpt><trkpt lat="41.11758969707337" lon="9.506285320592848"><ele>159.5</ele><time>2026-05-02T08:26:22.999Z</time></trkpt><trkpt lat="41.1175543619858" lon="9.506210477629942"><ele>158.0</ele><time>2026-05-02T08:26:23.999Z</time></trkpt><trkpt lat="41.11744198315024" lon="9.506173149660091"><ele>158.0</ele><time>2026-05-02T08:26:25.999Z</time></trkpt><trkpt lat="41.117358274538965" lon="9.50607968876515"><ele>158.0</ele><time>2026-05-02T08:26:27.999Z</time></trkpt><trkpt lat="41.11729442708346" lon="9.506011016068012"><ele>158.0</ele><time>2026-05-02T08:26:29.999Z</time></trkpt><trkpt lat="41.11725825185902" lon="9.505878147607978"><ele>158.0</ele><time>2026-05-02T08:26:32.999Z</time></trkpt><trkpt lat="41.117295350943394" lon="9.505778635546193"><ele>158.0</ele><time>2026-05-02T08:26:34.999Z</time></trkpt><trkpt lat="41.11742827780435" lon="9.505714386821394"><ele>158.00000000000003</ele><time>2026-05-02T08:26:36.999Z</time></trkpt><trkpt lat="41.11750661134332" lon="9.50568177307719"><ele>158.0</ele><time>2026-05-02T08:26:37.999Z</time></trkpt><trkpt lat="41.1175726022836" lon="9.505657564281996"><ele>158.0</ele><time>2026-05-02T08:26:38.999Z</time></trkpt><trkpt lat="41.11763597367944" lon="9.505648642668898"><ele>158.0</ele><time>2026-05-02T08:26:39.999Z</time></trkpt><trkpt lat="41.11770534134972" lon="9.505654099371105"><ele>158.0</ele><time>2026-05-02T08:26:40.999Z</time></trkpt><trkpt lat="41.11776977018993" lon="9.505685401532633"><ele>158.00000000000003</ele><time>2026-05-02T08:26:41.999Z</time></trkpt><trkpt lat="41.11784445264811" lon="9.505725538385395"><ele>158.0</ele><time>2026-05-02T08:26:42.999Z</time></trkpt><trkpt lat="41.117910179166564" lon="9.505771058279755"><ele>158.0</ele><time>2026-05-02T08:26:43.999Z</time></trkpt><trkpt lat="41.117967719348016" lon="9.505808410868285"><ele>158.0</ele><time>2026-05-02T08:26:44.999Z</time></trkpt><trkpt lat="41.11808128791592" lon="9.505828550039777"><ele>158.0</ele><time>2026-05-02T08:26:46.999Z</time></trkpt><trkpt lat="41.11816681691807" lon="9.50581372374906"><ele>158.0</ele><time>2026-05-02T08:26:47.999Z</time></trkpt><trkpt lat="41.11825128125372" lon="9.50578522944249"><ele>158.0</ele><time>2026-05-02T08:26:48.999Z</time></trkpt><trkpt lat="41.11830923100204" lon="9.505751483752704"><ele>158.0</ele><time>2026-05-02T08:26:49.999Z</time></trkpt><trkpt lat="41.1183745869541" lon="9.50571493750952"><ele>157.8</ele><time>2026-05-02T08:26:50.999Z</time></trkpt><trkpt lat="41.11845328484567" lon="9.505677190682592"><ele>157.60000000000002</ele><time>2026-05-02T08:26:51.999Z</time></trkpt><trkpt lat="41.118510402646265" lon="9.505639410189078"><ele>157.39999999999998</ele><time>2026-05-02T08:26:52.999Z</time></trkpt><trkpt lat="41.118606790905844" lon="9.505581899818988"><ele>157.2</ele><time>2026-05-02T08:26:54.999Z</time></trkpt><trkpt lat="41.11865322045895" lon="9.505463527496383"><ele>157.0</ele><time>2026-05-02T08:26:57Z</time></trkpt><trkpt lat="41.118747508043235" lon="9.505349252080489"><ele>158.16666666666669</ele><time>2026-05-02T08:26:59Z</time></trkpt><trkpt lat="41.1188225797104" lon="9.505290837413387"><ele>159.33333333333334</ele><time>2026-05-02T08:27:00Z</time></trkpt><trkpt lat="41.118893309498596" lon="9.505240265131729"><ele>160.5</ele><time>2026-05-02T08:27:01Z</time></trkpt><trkpt lat="41.11896460819596" lon="9.50520793652656"><ele>161.66666666666666</ele><time>2026-05-02T08:27:02Z</time></trkpt><trkpt lat="41.119048706644804" lon="9.50516713709932"><ele>162.83333333333331</ele><time>2026-05-02T08:27:03Z</time></trkpt><trkpt lat="41.119111156224804" lon="9.505123196846569"><ele>164.0</ele><time>2026-05-02T08:27:06Z</time></trkpt><trkpt lat="41.11918784900774" lon="9.50510265888589"><ele>164.0</ele><time>2026-05-02T08:27:08Z</time></trkpt><trkpt lat="41.119279862543195" lon="9.505054971174154"><ele>164.0</ele><time>2026-05-02T08:27:10Z</time></trkpt><trkpt lat="41.11933273974542" lon="9.505008873390722"><ele>164.0</ele><time>2026-05-02T08:27:12Z</time></trkpt><trkpt lat="41.11937513059458" lon="9.504945300821495"><ele>164.0</ele><time>2026-05-02T08:27:14Z</time></trkpt><trkpt lat="41.11945185539029" lon="9.504902434474378"><ele>164.0</ele><time>2026-05-02T08:27:17Z</time></trkpt><trkpt lat="41.11952956565136" lon="9.504910280916702"><ele>164.0</ele><time>2026-05-02T08:29:59.999Z</time></trkpt><trkpt lat="41.119597190207315" lon="9.504893096884862"><ele>163.99999999999997</ele><time>2026-05-02T08:30:01.999Z</time></trkpt><trkpt lat="41.11966516478265" lon="9.504863414980411"><ele>164.0</ele><time>2026-05-02T08:30:03.999Z</time></trkpt><trkpt lat="41.11971531436416" lon="9.504807030545626"><ele>164.0</ele><time>2026-05-02T08:30:05.999Z</time></trkpt><trkpt lat="41.11974527380559" lon="9.504720870527299"><ele>164.0</ele><time>2026-05-02T08:30:08.999Z</time></trkpt><trkpt lat="41.11977944373415" lon="9.504619701113821"><ele>164.0</ele><time>2026-05-02T08:30:12.999Z</time></trkpt><trkpt lat="41.119823847347035" lon="9.504548795220746"><ele>163.99999999999997</ele><time>2026-05-02T08:30:15.999Z</time></trkpt><trkpt lat="41.119861092784554" lon="9.504447311889766"><ele>164.0</ele><time>2026-05-02T08:30:18.999Z</time></trkpt><trkpt lat="41.1197894051532" lon="9.504289826662967"><ele>163.99999999999997</ele><time>2026-05-02T08:30:21.999Z</time></trkpt><trkpt lat="41.11971598834582" lon="9.504256778874609"><ele>164.0</ele><time>2026-05-02T08:30:26.999Z</time></trkpt><trkpt lat="41.11978274662072" lon="9.504298487025066"><ele>164.0</ele><time>2026-05-02T08:32:11.001Z</time></trkpt><trkpt lat="41.119786327580115" lon="9.50438250908447"><ele>164.0</ele><time>2026-05-02T08:32:26.001Z</time></trkpt><trkpt lat="41.11979197346105" lon="9.504509476528016"><ele>164.0</ele><time>2026-05-02T08:32:29.001Z</time></trkpt><trkpt lat="41.11978086702747" lon="9.504597122500353"><ele>163.99999999999997</ele><time>2026-05-02T08:32:31.001Z</time></trkpt><trkpt lat="41.11975657850827" lon="9.504683364712417"><ele>164.0</ele><time>2026-05-02T08:32:33.001Z</time></trkpt><trkpt lat="41.11970248149174" lon="9.504772726317533"><ele>164.0</ele><time>2026-05-02T08:32:36.001Z</time></trkpt><trkpt lat="41.119640286414686" lon="9.504857117821837"><ele>164.0</ele><time>2026-05-02T08:32:39.001Z</time></trkpt><trkpt lat="41.11957351674417" lon="9.504865012511768"><ele>164.0</ele><time>2026-05-02T08:32:41.001Z</time></trkpt><trkpt lat="41.11950196238485" lon="9.504862719404027"><ele>164.0</ele><time>2026-05-02T08:32:43.001Z</time></trkpt><trkpt lat="41.11941093764409" lon="9.504890191764975"><ele>164.0</ele><time>2026-05-02T08:32:45.001Z</time></trkpt><trkpt lat="41.11933039620752" lon="9.50498574793919"><ele>164.0</ele><time>2026-05-02T08:32:47.001Z</time></trkpt><trkpt lat="41.11924916589011" lon="9.505069190071568"><ele>163.99999999999997</ele><time>2026-05-02T08:32:49.001Z</time></trkpt><trkpt lat="41.11916877147926" lon="9.505077740077732"><ele>164.0</ele><time>2026-05-02T08:32:51.001Z</time></trkpt><trkpt lat="41.11908247662026" lon="9.505108271035938"><ele>164.0</ele><time>2026-05-02T08:32:53.001Z</time></trkpt><trkpt lat="41.1190082024699" lon="9.50513841047498"><ele>164.0</ele><time>2026-05-02T08:32:56.001Z</time></trkpt><trkpt lat="41.118941681694785" lon="9.505166007125542"><ele>164.0</ele><time>2026-05-02T08:32:58.001Z</time></trkpt><trkpt lat="41.118881274720884" lon="9.505195002940402"><ele>163.99999999999997</ele><time>2026-05-02T08:32:59.001Z</time></trkpt><trkpt lat="41.11882444615821" lon="9.505232195633043"><ele>164.0</ele><time>2026-05-02T08:33:00.001Z</time></trkpt><trkpt lat="41.11877163120072" lon="9.505289598536363"><ele>162.83333333333331</ele><time>2026-05-02T08:33:01.001Z</time></trkpt><trkpt lat="41.11872236894603" lon="9.505344877416347"><ele>161.66666666666666</ele><time>2026-05-02T08:33:02.001Z</time></trkpt><trkpt lat="41.118671914072834" lon="9.505402326785713"><ele>160.5</ele><time>2026-05-02T08:33:03.001Z</time></trkpt><trkpt lat="41.11862408685104" lon="9.505456783964847"><ele>159.33333333333334</ele><time>2026-05-02T08:33:04.001Z</time></trkpt><trkpt lat="41.11853170333342" lon="9.50556652812574"><ele>158.16666666666669</ele><time>2026-05-02T08:33:06.001Z</time></trkpt><trkpt lat="41.1184510228815" lon="9.505629740983595"><ele>157.0</ele><time>2026-05-02T08:33:08.001Z</time></trkpt><trkpt lat="41.118393448824065" lon="9.505666563687694"><ele>156.99999999999997</ele><time>2026-05-02T08:33:09.001Z</time></trkpt><trkpt lat="41.118324786790524" lon="9.50570114812941"><ele>157.0</ele><time>2026-05-02T08:33:10.001Z</time></trkpt><trkpt lat="41.118244598702006" lon="9.50572874214181"><ele>157.0</ele><time>2026-05-02T08:33:11.001Z</time></trkpt><trkpt lat="41.11816963716901" lon="9.505750045993693"><ele>157.0</ele><time>2026-05-02T08:33:12.001Z</time></trkpt><trkpt lat="41.11810308662775" lon="9.50576192505531"><ele>157.0</ele><time>2026-05-02T08:33:13.001Z</time></trkpt><trkpt lat="41.11803922703751" lon="9.505763826114363"><ele>156.99999999999997</ele><time>2026-05-02T08:33:14.001Z</time></trkpt><trkpt lat="41.1179734525677" lon="9.505753076473868"><ele>157.0</ele><time>2026-05-02T08:33:15.001Z</time></trkpt><trkpt lat="41.117848073856734" lon="9.50568759438064"><ele>157.2</ele><time>2026-05-02T08:33:17.001Z</time></trkpt><trkpt lat="41.11777719256985" lon="9.505653219840147"><ele>157.39999999999998</ele><time>2026-05-02T08:33:18.001Z</time></trkpt><trkpt lat="41.11770445680912" lon="9.505630781557405"><ele>157.60000000000002</ele><time>2026-05-02T08:33:19.001Z</time></trkpt><trkpt lat="41.117607023235145" lon="9.505625847779077"><ele>157.8</ele><time>2026-05-02T08:33:21.001Z</time></trkpt><trkpt lat="41.11748502668778" lon="9.505662513980212"><ele>158.0</ele><time>2026-05-02T08:33:23.001Z</time></trkpt><trkpt lat="41.11740035893557" lon="9.505688983263065"><ele>160.0</ele><time>2026-05-02T08:33:24.001Z</time></trkpt><trkpt lat="41.117329977147094" lon="9.505724624924403"><ele>162.0</ele><time>2026-05-02T08:33:25.001Z</time></trkpt><trkpt lat="41.11724701951212" lon="9.505815326906264"><ele>164.0</ele><time>2026-05-02T08:33:27.001Z</time></trkpt><trkpt lat="41.11725577010724" lon="9.50594812290095"><ele>166.0</ele><time>2026-05-02T08:33:29.001Z</time></trkpt><trkpt lat="41.1173015843153" lon="9.506066470235469"><ele>168.0</ele><time>2026-05-02T08:33:31.001Z</time></trkpt><trkpt lat="41.117368073601575" lon="9.5060912322583"><ele>166.0</ele><time>2026-05-02T08:33:33.001Z</time></trkpt><trkpt lat="41.117442542429494" lon="9.506183041402485"><ele>164.0</ele><time>2026-05-02T08:33:35.001Z</time></trkpt><trkpt lat="41.117507425847684" lon="9.50622721532092"><ele>162.0</ele><time>2026-05-02T08:33:36.001Z</time></trkpt><trkpt lat="41.11756614449089" lon="9.506261348053476"><ele>160.0</ele><time>2026-05-02T08:33:37.001Z</time></trkpt><trkpt lat="41.117649633491716" lon="9.50638148309932"><ele>158.0</ele><time>2026-05-02T08:33:39.001Z</time></trkpt><trkpt lat="41.11766799224301" lon="9.50650327983698"><ele>157.16666666666666</ele><time>2026-05-02T08:33:40.001Z</time></trkpt><trkpt lat="41.11772216468512" lon="9.506553890569524"><ele>156.33333333333331</ele><time>2026-05-02T08:33:41.001Z</time></trkpt><trkpt lat="41.11778176350844" lon="9.506599339757479"><ele>155.5</ele><time>2026-05-02T08:33:42.001Z</time></trkpt><trkpt lat="41.11786271692448" lon="9.506662540327019"><ele>154.66666666666666</ele><time>2026-05-02T08:33:43.001Z</time></trkpt><trkpt lat="41.11791797358076" lon="9.506707503146382"><ele>153.83333333333334</ele><time>2026-05-02T08:33:44.001Z</time></trkpt><trkpt lat="41.11795834827389" lon="9.506787017079144"><ele>153.0</ele><time>2026-05-02T08:33:45.001Z</time></trkpt><trkpt lat="41.11798884217745" lon="9.506953353392314"><ele>153.0</ele><time>2026-05-02T08:33:47.001Z</time></trkpt><trkpt lat="41.11801968253345" lon="9.50705015425716"><ele>153.0</ele><time>2026-05-02T08:33:48.001Z</time></trkpt><trkpt lat="41.11803225038745" lon="9.507142162327375"><ele>153.0</ele><time>2026-05-02T08:33:49.001Z</time></trkpt><trkpt lat="41.11803870263883" lon="9.507241684973323"><ele>153.0</ele><time>2026-05-02T08:33:50.001Z</time></trkpt><trkpt lat="41.11806343555214" lon="9.507347137644512"><ele>153.0</ele><time>2026-05-02T08:33:51.001Z</time></trkpt><trkpt lat="41.118143731608875" lon="9.507442969825801"><ele>153.0</ele><time>2026-05-02T08:33:53.001Z</time></trkpt><trkpt lat="41.118201105307925" lon="9.507490385343651"><ele>152.66666666666666</ele><time>2026-05-02T08:33:54.001Z</time></trkpt><trkpt lat="41.11824119865099" lon="9.507585864219998"><ele>152.33333333333334</ele><time>2026-05-02T08:33:55.001Z</time></trkpt><trkpt lat="41.118278639392486" lon="9.507688070787562"><ele>152.0</ele><time>2026-05-02T08:33:56.001Z</time></trkpt><trkpt lat="41.11833048304265" lon="9.50780250399143"><ele>151.66666666666669</ele><time>2026-05-02T08:33:57.001Z</time></trkpt><trkpt lat="41.11837880241939" lon="9.50789357952243"><ele>151.33333333333334</ele><time>2026-05-02T08:33:58.001Z</time></trkpt><trkpt lat="41.11842312004268" lon="9.507985814393798"><ele>151.0</ele><time>2026-05-02T08:33:59.001Z</time></trkpt><trkpt lat="41.118464844438485" lon="9.508053911153349"><ele>152.6</ele><time>2026-05-02T08:34:00.001Z</time></trkpt><trkpt lat="41.11851871094891" lon="9.5081436058443"><ele>154.2</ele><time>2026-05-02T08:34:02.001Z</time></trkpt><trkpt lat="41.11854507737354" lon="9.50826141416178"><ele>155.8</ele><time>2026-05-02T08:35:07.001Z</time></trkpt><trkpt lat="41.11861148078048" lon="9.508364781359651"><ele>157.4</ele><time>2026-05-02T08:35:09.001Z</time></trkpt><trkpt lat="41.11867310987698" lon="9.50850221380667"><ele>159.0</ele><time>2026-05-02T08:35:11Z</time></trkpt><trkpt lat="41.118715208543655" lon="9.508565517544207"><ele>159.0</ele><time>2026-05-02T08:35:12Z</time></trkpt><trkpt lat="41.11878243113311" lon="9.5087081824726"><ele>159.0</ele><time>2026-05-02T08:35:14Z</time></trkpt><trkpt lat="41.11882411688834" lon="9.508776529510897"><ele>159.0</ele><time>2026-05-02T08:35:15Z</time></trkpt><trkpt lat="41.11886582409917" lon="9.508844911616634"><ele>159.0</ele><time>2026-05-02T08:35:16Z</time></trkpt><trkpt lat="41.11890785661263" lon="9.50891382709612"><ele>159.0</ele><time>2026-05-02T08:35:17Z</time></trkpt><trkpt lat="41.1189778245369" lon="9.509045537113309"><ele>159.0</ele><time>2026-05-02T08:35:19Z</time></trkpt><trkpt lat="41.11901725978722" lon="9.509112001763041"><ele>158.16666666666666</ele><time>2026-05-02T08:35:20Z</time></trkpt><trkpt lat="41.119070624539894" lon="9.509178574125668"><ele>157.33333333333334</ele><time>2026-05-02T08:35:21Z</time></trkpt><trkpt lat="41.11914559536733" lon="9.509224266703503"><ele>156.5</ele><time>2026-05-02T08:35:22Z</time></trkpt><trkpt lat="41.11922845811139" lon="9.509246911764697"><ele>155.66666666666669</ele><time>2026-05-02T08:35:23Z</time></trkpt><trkpt lat="41.11930475199921" lon="9.509277413733358"><ele>154.83333333333334</ele><time>2026-05-02T08:35:24Z</time></trkpt><trkpt lat="41.119387142175384" lon="9.509276498267619"><ele>154.0</ele><time>2026-05-02T08:35:25Z</time></trkpt><trkpt lat="41.119460588492814" lon="9.509235503260077"><ele>154.0</ele><time>2026-05-02T08:35:26Z</time></trkpt><trkpt lat="41.11952079774747" lon="9.509150913006994"><ele>154.0</ele><time>2026-05-02T08:35:27Z</time></trkpt><trkpt lat="41.119593593304685" lon="9.509066816957901"><ele>154.0</ele><time>2026-05-02T08:35:28Z</time></trkpt><trkpt lat="41.119693916805566" lon="9.509015273598424"><ele>154.0</ele><time>2026-05-02T08:35:29Z</time></trkpt><trkpt lat="41.1198054714197" lon="9.50897510937651"><ele>154.0</ele><time>2026-05-02T08:35:30Z</time></trkpt><trkpt lat="41.11992498296552" lon="9.508983964812792"><ele>153.0</ele><time>2026-05-02T08:35:31Z</time></trkpt><trkpt lat="41.12003202272391" lon="9.50899205707418"><ele>152.0</ele><time>2026-05-02T08:35:32Z</time></trkpt><trkpt lat="41.12014055568668" lon="9.508987450194683"><ele>151.0</ele><time>2026-05-02T08:35:33Z</time></trkpt><trkpt lat="41.12024153178199" lon="9.509001700202726"><ele>150.0</ele><time>2026-05-02T08:35:34Z</time></trkpt><trkpt lat="41.12033656140841" lon="9.50895879255471"><ele>149.0</ele><time>2026-05-02T08:35:35Z</time></trkpt><trkpt lat="41.120427550970895" lon="9.50890208805763"><ele>149.0</ele><time>2026-05-02T08:35:36Z</time></trkpt><trkpt lat="41.120527470303884" lon="9.508889165040806"><ele>149.0</ele><time>2026-05-02T08:35:37Z</time></trkpt><trkpt lat="41.12063257140448" lon="9.508941096331327"><ele>149.0</ele><time>2026-05-02T08:35:38Z</time></trkpt><trkpt lat="41.12073625349559" lon="9.5090084595811"><ele>149.0</ele><time>2026-05-02T08:35:39Z</time></trkpt><trkpt lat="41.12085112468772" lon="9.509052271994813"><ele>149.0</ele><time>2026-05-02T08:35:40Z</time></trkpt><trkpt lat="41.12095451156775" lon="9.509078955798074"><ele>147.8</ele><time>2026-05-02T08:35:41Z</time></trkpt><trkpt lat="41.12105848266427" lon="9.50906647433009"><ele>146.60000000000002</ele><time>2026-05-02T08:35:42Z</time></trkpt><trkpt lat="41.121158283013834" lon="9.509050866833825"><ele>145.4</ele><time>2026-05-02T08:35:43Z</time></trkpt><trkpt lat="41.12122176914499" lon="9.509037701805793"><ele>144.20000000000002</ele><time>2026-05-02T08:35:44Z</time></trkpt><trkpt lat="41.12128565720728" lon="9.509090021585349"><ele>143.0</ele><time>2026-05-02T08:35:45Z</time></trkpt><trkpt lat="41.1212818234438" lon="9.509256400525286"><ele>143.0</ele><time>2026-05-02T08:35:46Z</time></trkpt><trkpt lat="41.12131131457518" lon="9.509359488689427"><ele>143.0</ele><time>2026-05-02T08:35:47Z</time></trkpt><trkpt lat="41.12143637288729" lon="9.509414504459414"><ele>143.0</ele><time>2026-05-02T08:35:48Z</time></trkpt><trkpt lat="41.12152147297857" lon="9.509510185245478"><ele>143.0</ele><time>2026-05-02T08:35:49Z</time></trkpt><trkpt lat="41.12161581573635" lon="9.509603353940863"><ele>143.0</ele><time>2026-05-02T08:35:50Z</time></trkpt><trkpt lat="41.12172160271003" lon="9.509690589403409"><ele>144.8</ele><time>2026-05-02T08:35:51Z</time></trkpt><trkpt lat="41.12183984260592" lon="9.509737305075506"><ele>146.60000000000002</ele><time>2026-05-02T08:35:52Z</time></trkpt><trkpt lat="41.12195429993133" lon="9.509768308656996"><ele>148.39999999999998</ele><time>2026-05-02T08:35:53Z</time></trkpt><trkpt lat="41.122053140962976" lon="9.509817239839371"><ele>150.2</ele><time>2026-05-02T08:35:54Z</time></trkpt><trkpt lat="41.12215097981263" lon="9.50983736430506"><ele>152.0</ele><time>2026-05-02T08:35:55Z</time></trkpt><trkpt lat="41.12225254685179" lon="9.509871145517852"><ele>152.0</ele><time>2026-05-02T08:35:56Z</time></trkpt><trkpt lat="41.12235312314228" lon="9.509916872425912"><ele>152.0</ele><time>2026-05-02T08:35:57Z</time></trkpt><trkpt lat="41.122443038126704" lon="9.510014639883881"><ele>152.0</ele><time>2026-05-02T08:35:58Z</time></trkpt><trkpt lat="41.12254378234466" lon="9.510116055208178"><ele>152.0</ele><time>2026-05-02T08:35:59Z</time></trkpt><trkpt lat="41.12265463452089" lon="9.510213233479027"><ele>151.5</ele><time>2026-05-02T08:36:00Z</time></trkpt><trkpt lat="41.12276505087496" lon="9.510324229091685"><ele>151.0</ele><time>2026-05-02T08:36:01Z</time></trkpt><trkpt lat="41.12286013313349" lon="9.510443501303616"><ele>150.5</ele><time>2026-05-02T08:36:02Z</time></trkpt><trkpt lat="41.12293787324041" lon="9.510555162589162"><ele>150.0</ele><time>2026-05-02T08:36:03Z</time></trkpt><trkpt lat="41.123021695890266" lon="9.510649683628055"><ele>150.0</ele><time>2026-05-02T08:36:04Z</time></trkpt><trkpt lat="41.12312625615874" lon="9.510713684503289"><ele>150.0</ele><time>2026-05-02T08:36:05Z</time></trkpt><trkpt lat="41.12323743011518" lon="9.510760397279885"><ele>150.0</ele><time>2026-05-02T08:36:06Z</time></trkpt><trkpt lat="41.12334489780909" lon="9.510810658516247"><ele>150.0</ele><time>2026-05-02T08:36:07Z</time></trkpt><trkpt lat="41.123441932493854" lon="9.510866898881574"><ele>148.0</ele><time>2026-05-02T08:36:08Z</time></trkpt><trkpt lat="41.123520077370365" lon="9.510942538663475"><ele>146.0</ele><time>2026-05-02T08:36:09Z</time></trkpt><trkpt lat="41.12359084017589" lon="9.511035804480159"><ele>144.0</ele><time>2026-05-02T08:36:10Z</time></trkpt><trkpt lat="41.123683279081625" lon="9.511118742091103"><ele>142.0</ele><time>2026-05-02T08:36:11Z</time></trkpt><trkpt lat="41.123798639086175" lon="9.51115657848079"><ele>140.0</ele><time>2026-05-02T08:36:12Z</time></trkpt><trkpt lat="41.12392194765006" lon="9.511173061049902"><ele>140.0</ele><time>2026-05-02T08:36:13Z</time></trkpt><trkpt lat="41.12404390592123" lon="9.511206093274344"><ele>140.0</ele><time>2026-05-02T08:36:14Z</time></trkpt><trkpt lat="41.12415878528744" lon="9.51126073405984"><ele>140.0</ele><time>2026-05-02T08:36:15Z</time></trkpt><trkpt lat="41.12427000073542" lon="9.511313111974223"><ele>140.0</ele><time>2026-05-02T08:36:16Z</time></trkpt><trkpt lat="41.12436994794742" lon="9.511345671674736"><ele>137.4</ele><time>2026-05-02T08:36:17Z</time></trkpt><trkpt lat="41.12447017088637" lon="9.511345078493033"><ele>134.8</ele><time>2026-05-02T08:36:18Z</time></trkpt><trkpt lat="41.124570714818354" lon="9.511328784183522"><ele>132.2</ele><time>2026-05-02T08:36:19Z</time></trkpt><trkpt lat="41.12467691656694" lon="9.511318074712792"><ele>129.6</ele><time>2026-05-02T08:36:20Z</time></trkpt><trkpt lat="41.12478769819519" lon="9.511322086051257"><ele>127.0</ele><time>2026-05-02T08:36:21Z</time></trkpt><trkpt lat="41.12490451657274" lon="9.5113146359944"><ele>127.0</ele><time>2026-05-02T08:36:22Z</time></trkpt><trkpt lat="41.12502707406932" lon="9.511286977152748"><ele>127.0</ele><time>2026-05-02T08:36:23Z</time></trkpt><trkpt lat="41.12515493796949" lon="9.511248475389941"><ele>127.0</ele><time>2026-05-02T08:36:24Z</time></trkpt><trkpt lat="41.125282663486594" lon="9.51121434009465"><ele>127.0</ele><time>2026-05-02T08:36:25Z</time></trkpt><trkpt lat="41.125407233479955" lon="9.511161508228527"><ele>127.0</ele><time>2026-05-02T08:36:26Z</time></trkpt><trkpt lat="41.12553727553978" lon="9.511113813409265"><ele>127.0</ele><time>2026-05-02T08:36:27Z</time></trkpt><trkpt lat="41.125685833500235" lon="9.511062407806032"><ele>127.0</ele><time>2026-05-02T08:36:28Z</time></trkpt><trkpt lat="41.12580672785135" lon="9.511020789723913"><ele>127.0</ele><time>2026-05-02T08:36:29Z</time></trkpt><trkpt lat="41.125936929138305" lon="9.510972719262703"><ele>123.25</ele><time>2026-05-02T08:36:30Z</time></trkpt><trkpt lat="41.126061331741596" lon="9.510907566568797"><ele>119.5</ele><time>2026-05-02T08:36:31Z</time></trkpt><trkpt lat="41.12618057152758" lon="9.510843710374608"><ele>115.75</ele><time>2026-05-02T08:36:32Z</time></trkpt><trkpt lat="41.126292319843465" lon="9.51076884502164"><ele>112.0</ele><time>2026-05-02T08:36:33Z</time></trkpt><trkpt lat="41.12639200972151" lon="9.510691642909789"><ele>112.0</ele><time>2026-05-02T08:36:34Z</time></trkpt><trkpt lat="41.126480201595854" lon="9.510633336606041"><ele>111.99999999999999</ele><time>2026-05-02T08:36:35Z</time></trkpt><trkpt lat="41.12655575290446" lon="9.510567349433401"><ele>111.99999999999999</ele><time>2026-05-02T08:36:36Z</time></trkpt><trkpt lat="41.12660690158509" lon="9.510458719022449"><ele>112.0</ele><time>2026-05-02T08:36:37Z</time></trkpt><trkpt lat="41.12663120984583" lon="9.510310930650897"><ele>112.0</ele><time>2026-05-02T08:36:38Z</time></trkpt><trkpt lat="41.126644201329356" lon="9.510150378705593"><ele>112.0</ele><time>2026-05-02T08:36:39Z</time></trkpt><trkpt lat="41.12663178197752" lon="9.509983126219952"><ele>112.0</ele><time>2026-05-02T08:36:40Z</time></trkpt><trkpt lat="41.12658520305799" lon="9.50982435802254"><ele>112.0</ele><time>2026-05-02T08:36:41Z</time></trkpt><trkpt lat="41.12652067687454" lon="9.50968920608401"><ele>112.0</ele><time>2026-05-02T08:36:42Z</time></trkpt><trkpt lat="41.126496404383126" lon="9.509573951950742"><ele>110.0</ele><time>2026-05-02T08:36:43Z</time></trkpt><trkpt lat="41.12646883819725" lon="9.50949160649823"><ele>107.99999999999999</ele><time>2026-05-02T08:36:44Z</time></trkpt><trkpt lat="41.12650199733808" lon="9.509403010999701"><ele>106.0</ele><time>2026-05-02T08:36:45Z</time></trkpt><trkpt lat="41.126577634366065" lon="9.509349309916274"><ele>104.0</ele><time>2026-05-02T08:36:46Z</time></trkpt><trkpt lat="41.12668125186047" lon="9.509361012604323"><ele>102.0</ele><time>2026-05-02T08:36:47Z</time></trkpt><trkpt lat="41.1267945394656" lon="9.50940673157019"><ele>100.0</ele><time>2026-05-02T08:36:48Z</time></trkpt><trkpt lat="41.12690266719763" lon="9.509515391082557"><ele>98.0</ele><time>2026-05-02T08:36:49Z</time></trkpt><trkpt lat="41.12701522903289" lon="9.509635271119265"><ele>96.0</ele><time>2026-05-02T08:36:50Z</time></trkpt><trkpt lat="41.1271318088117" lon="9.50973600389111"><ele>94.0</ele><time>2026-05-02T08:36:51Z</time></trkpt><trkpt lat="41.12723034316722" lon="9.509839444229836"><ele>94.0</ele><time>2026-05-02T08:36:52Z</time></trkpt><trkpt lat="41.12734001263668" lon="9.509910214638522"><ele>94.0</ele><time>2026-05-02T08:36:53Z</time></trkpt><trkpt lat="41.12745689863099" lon="9.509952669581114"><ele>94.0</ele><time>2026-05-02T08:36:54Z</time></trkpt><trkpt lat="41.12757903013811" lon="9.509974901698207"><ele>94.0</ele><time>2026-05-02T08:36:55Z</time></trkpt><trkpt lat="41.12769770343856" lon="9.509991411569663"><ele>91.75</ele><time>2026-05-02T08:36:56Z</time></trkpt><trkpt lat="41.12781440802523" lon="9.509991763046926"><ele>89.5</ele><time>2026-05-02T08:36:57Z</time></trkpt><trkpt lat="41.12792635790452" lon="9.50997250952268"><ele>87.25</ele><time>2026-05-02T08:36:58Z</time></trkpt><trkpt lat="41.12802904381241" lon="9.509923039924956"><ele>85.0</ele><time>2026-05-02T08:36:59Z</time></trkpt><trkpt lat="41.128131060973146" lon="9.509857711412186"><ele>82.25</ele><time>2026-05-02T08:37:00Z</time></trkpt><trkpt lat="41.12823428915035" lon="9.509791715851414"><ele>79.5</ele><time>2026-05-02T08:37:01Z</time></trkpt><trkpt lat="41.12834823698608" lon="9.509736366093406"><ele>76.75</ele><time>2026-05-02T08:37:02Z</time></trkpt><trkpt lat="41.12847002434718" lon="9.509689701521362"><ele>74.0</ele><time>2026-05-02T08:37:03Z</time></trkpt><trkpt lat="41.12859614887921" lon="9.509650257348989"><ele>74.0</ele><time>2026-05-02T08:37:04Z</time></trkpt><trkpt lat="41.12871967185742" lon="9.509606304035934"><ele>74.0</ele><time>2026-05-02T08:37:05Z</time></trkpt><trkpt lat="41.12884207773018" lon="9.509561252100498"><ele>74.0</ele><time>2026-05-02T08:37:06Z</time></trkpt><trkpt lat="41.12895958060378" lon="9.509517816943472"><ele>74.0</ele><time>2026-05-02T08:37:07Z</time></trkpt><trkpt lat="41.12907267867572" lon="9.509474758445297"><ele>72.4</ele><time>2026-05-02T08:37:08Z</time></trkpt><trkpt lat="41.12915908083932" lon="9.509433561589688"><ele>70.80000000000001</ele><time>2026-05-02T08:37:09Z</time></trkpt><trkpt lat="41.12923469354248" lon="9.509398884858797"><ele>69.19999999999999</ele><time>2026-05-02T08:37:10Z</time></trkpt><trkpt lat="41.12932700793251" lon="9.50935573431548"><ele>67.6</ele><time>2026-05-02T08:37:12Z</time></trkpt><trkpt lat="41.12937154232558" lon="9.50917613359099"><ele>66.0</ele><time>2026-05-02T08:37:15Z</time></trkpt><trkpt lat="41.12938291181925" lon="9.509062247034374"><ele>66.0</ele><time>2026-05-02T08:37:16Z</time></trkpt><trkpt lat="41.12941002951" lon="9.508939774501638"><ele>66.0</ele><time>2026-05-02T08:37:17Z</time></trkpt><trkpt lat="41.129423462932166" lon="9.508806092176627"><ele>66.0</ele><time>2026-05-02T08:37:18Z</time></trkpt><trkpt lat="41.12942795803953" lon="9.508675541261047"><ele>66.0</ele><time>2026-05-02T08:37:19Z</time></trkpt><trkpt lat="41.12942483677561" lon="9.508550834269025"><ele>66.0</ele><time>2026-05-02T08:37:20Z</time></trkpt><trkpt lat="41.129414799667" lon="9.508421723662025"><ele>66.0</ele><time>2026-05-02T08:37:21Z</time></trkpt><trkpt lat="41.12939174384813" lon="9.50829023588562"><ele>66.0</ele><time>2026-05-02T08:37:22Z</time></trkpt><trkpt lat="41.12933493949556" lon="9.508168026547333"><ele>66.0</ele><time>2026-05-02T08:37:23Z</time></trkpt><trkpt lat="41.129301657216544" lon="9.50803147608442"><ele>66.0</ele><time>2026-05-02T08:37:24Z</time></trkpt><trkpt lat="41.12923105106228" lon="9.50791580745994"><ele>66.0</ele><time>2026-05-02T08:37:25Z</time></trkpt><trkpt lat="41.12918949749127" lon="9.507780215004486"><ele>66.0</ele><time>2026-05-02T08:37:26Z</time></trkpt><trkpt lat="41.12913099201501" lon="9.507657360191242"><ele>66.0</ele><time>2026-05-02T08:37:27Z</time></trkpt><trkpt lat="41.12907084666973" lon="9.507537146068202"><ele>66.0</ele><time>2026-05-02T08:37:28Z</time></trkpt><trkpt lat="41.128998809007925" lon="9.507425548914734"><ele>66.0</ele><time>2026-05-02T08:37:29Z</time></trkpt><trkpt lat="41.12894473917504" lon="9.507294994771975"><ele>66.0</ele><time>2026-05-02T08:37:30Z</time></trkpt><trkpt lat="41.12889062537674" lon="9.507159358805195"><ele>65.25</ele><time>2026-05-02T08:37:31Z</time></trkpt><trkpt lat="41.12884008861676" lon="9.507015097042439"><ele>64.5</ele><time>2026-05-02T08:37:32Z</time></trkpt><trkpt lat="41.128790825129926" lon="9.506872887578279"><ele>63.75</ele><time>2026-05-02T08:37:33Z</time></trkpt><trkpt lat="41.12875932196547" lon="9.50672373800694"><ele>63.0</ele><time>2026-05-02T08:37:34Z</time></trkpt><trkpt lat="41.128722720997295" lon="9.50657799422737"><ele>63.0</ele><time>2026-05-02T08:37:35Z</time></trkpt><trkpt lat="41.12869979079597" lon="9.506417862480843"><ele>63.0</ele><time>2026-05-02T08:37:36Z</time></trkpt><trkpt lat="41.12866894126121" lon="9.506247621689464"><ele>63.0</ele><time>2026-05-02T08:37:37Z</time></trkpt><trkpt lat="41.128653639015184" lon="9.506075833958352"><ele>63.0</ele><time>2026-05-02T08:37:38Z</time></trkpt><trkpt lat="41.12862280528163" lon="9.505904450554583"><ele>61.75</ele><time>2026-05-02T08:37:39Z</time></trkpt><trkpt lat="41.128575063403666" lon="9.50574199504462"><ele>60.5</ele><time>2026-05-02T08:37:40Z</time></trkpt><trkpt lat="41.128533547214964" lon="9.505574837986343"><ele>59.25</ele><time>2026-05-02T08:37:41Z</time></trkpt><trkpt lat="41.128463973475895" lon="9.50542968315248"><ele>58.0</ele><time>2026-05-02T08:37:42Z</time></trkpt><trkpt lat="41.12840537187395" lon="9.505285080143398"><ele>58.0</ele><time>2026-05-02T08:37:43Z</time></trkpt><trkpt lat="41.1283171476934" lon="9.505174854927398"><ele>58.0</ele><time>2026-05-02T08:37:44Z</time></trkpt><trkpt lat="41.12818202533462" lon="9.505080458221098"><ele>58.0</ele><time>2026-05-02T08:37:45Z</time></trkpt><trkpt lat="41.1280333430824" lon="9.504952842000685"><ele>59.33333333333333</ele><time>2026-05-02T08:37:46Z</time></trkpt><trkpt lat="41.127858493559664" lon="9.504868259268656"><ele>60.66666666666667</ele><time>2026-05-02T08:37:47Z</time></trkpt><trkpt lat="41.127698758867965" lon="9.504751688539452"><ele>62.0</ele><time>2026-05-02T08:37:48Z</time></trkpt><trkpt lat="41.1275368442528" lon="9.504631049789861"><ele>64.0</ele><time>2026-05-02T08:37:49Z</time></trkpt><trkpt lat="41.127382185760034" lon="9.504514143758922"><ele>66.0</ele><time>2026-05-02T08:37:50Z</time></trkpt><trkpt lat="41.127265576345515" lon="9.50439737596681"><ele>68.0</ele><time>2026-05-02T08:37:51Z</time></trkpt><trkpt lat="41.12716166263901" lon="9.504321425033346"><ele>70.0</ele><time>2026-05-02T08:37:52Z</time></trkpt><trkpt lat="41.12706204085885" lon="9.50424924065527"><ele>70.0</ele><time>2026-05-02T08:37:53Z</time></trkpt><trkpt lat="41.1269516586866" lon="9.504169259451137"><ele>70.0</ele><time>2026-05-02T08:37:54Z</time></trkpt><trkpt lat="41.12682845476553" lon="9.504079987814713"><ele>70.0</ele><time>2026-05-02T08:37:55Z</time></trkpt><trkpt lat="41.12669261522288" lon="9.50398424698546"><ele>70.0</ele><time>2026-05-02T08:37:56Z</time></trkpt><trkpt lat="41.12655048497536" lon="9.503886384311475"><ele>71.5</ele><time>2026-05-02T08:37:57Z</time></trkpt><trkpt lat="41.12640812176045" lon="9.503812638800538"><ele>73.0</ele><time>2026-05-02T08:37:58Z</time></trkpt><trkpt lat="41.12628820623459" lon="9.503703893019303"><ele>74.5</ele><time>2026-05-02T08:37:59Z</time></trkpt><trkpt lat="41.12617300528277" lon="9.50360231331327"><ele>76.0</ele><time>2026-05-02T08:38:00Z</time></trkpt><trkpt lat="41.12607991575962" lon="9.503470808942497"><ele>76.0</ele><time>2026-05-02T08:38:01Z</time></trkpt><trkpt lat="41.125995227606666" lon="9.503316999308637"><ele>76.0</ele><time>2026-05-02T08:38:02Z</time></trkpt><trkpt lat="41.12593312833782" lon="9.50314116937535"><ele>76.0</ele><time>2026-05-02T08:38:03Z</time></trkpt><trkpt lat="41.125883520486866" lon="9.50294245572833"><ele>76.0</ele><time>2026-05-02T08:38:04Z</time></trkpt><trkpt lat="41.1258686021704" lon="9.502773036289561"><ele>79.25</ele><time>2026-05-02T08:38:05Z</time></trkpt><trkpt lat="41.125864354907975" lon="9.502583424662053"><ele>82.5</ele><time>2026-05-02T08:38:06Z</time></trkpt><trkpt lat="41.12585040474556" lon="9.50238786688605"><ele>85.75</ele><time>2026-05-02T08:38:07Z</time></trkpt><trkpt lat="41.12585243377962" lon="9.50219419447293"><ele>89.0</ele><time>2026-05-02T08:38:08Z</time></trkpt><trkpt lat="41.12584326222648" lon="9.501999223434073"><ele>90.5</ele><time>2026-05-02T08:38:09Z</time></trkpt><trkpt lat="41.125827479416735" lon="9.501802614339734"><ele>92.0</ele><time>2026-05-02T08:38:10Z</time></trkpt><trkpt lat="41.12580498109759" lon="9.501605482151703"><ele>93.5</ele><time>2026-05-02T08:38:11Z</time></trkpt><trkpt lat="41.12577883376646" lon="9.501414740599808"><ele>95.0</ele><time>2026-05-02T08:38:12Z</time></trkpt><trkpt lat="41.1257610538136" lon="9.501226221105245"><ele>97.0</ele><time>2026-05-02T08:38:13Z</time></trkpt><trkpt lat="41.12575697328278" lon="9.501034570520089"><ele>99.0</ele><time>2026-05-02T08:38:14Z</time></trkpt><trkpt lat="41.125763637134376" lon="9.500848614400418"><ele>101.0</ele><time>2026-05-02T08:38:15Z</time></trkpt><trkpt lat="41.125805676577485" lon="9.500678043725852"><ele>103.0</ele><time>2026-05-02T08:38:16Z</time></trkpt><trkpt lat="41.12584596020462" lon="9.500508056775057"><ele>103.0</ele><time>2026-05-02T08:38:17Z</time></trkpt><trkpt lat="41.125922180964466" lon="9.500385467541683"><ele>103.0</ele><time>2026-05-02T08:38:18Z</time></trkpt><trkpt lat="41.12601715472442" lon="9.500359705152936"><ele>103.0</ele><time>2026-05-02T08:38:19Z</time></trkpt><trkpt lat="41.12609884190104" lon="9.500319444990042"><ele>103.0</ele><time>2026-05-02T08:38:20Z</time></trkpt><trkpt lat="41.1262012863892" lon="9.500358927140638"><ele>103.0</ele><time>2026-05-02T08:38:21Z</time></trkpt><trkpt lat="41.12628246490879" lon="9.500473788940214"><ele>103.0</ele><time>2026-05-02T08:38:22Z</time></trkpt><trkpt lat="41.12637756698241" lon="9.500562503714704"><ele>103.0</ele><time>2026-05-02T08:38:23Z</time></trkpt><trkpt lat="41.12646086665249" lon="9.500668727617029"><ele>103.0</ele><time>2026-05-02T08:38:24Z</time></trkpt><trkpt lat="41.126565896548634" lon="9.500732189384241"><ele>103.0</ele><time>2026-05-02T08:38:25Z</time></trkpt><trkpt lat="41.1266656184807" lon="9.500726496440285"><ele>103.0</ele><time>2026-05-02T08:38:26Z</time></trkpt><trkpt lat="41.12674679440687" lon="9.500662277633088"><ele>105.80000000000001</ele><time>2026-05-02T08:38:27Z</time></trkpt><trkpt lat="41.12678517799352" lon="9.500551729837278"><ele>108.6</ele><time>2026-05-02T08:38:28Z</time></trkpt><trkpt lat="41.126792824564305" lon="9.5004361606403"><ele>111.39999999999999</ele><time>2026-05-02T08:38:29Z</time></trkpt><trkpt lat="41.12679306997283" lon="9.500320484799087"><ele>114.19999999999999</ele><time>2026-05-02T08:38:30Z</time></trkpt><trkpt lat="41.126776001392145" lon="9.500190259117295"><ele>117.0</ele><time>2026-05-02T08:38:31Z</time></trkpt><trkpt lat="41.12674536145367" lon="9.500062144619799"><ele>118.5</ele><time>2026-05-02T08:38:32Z</time></trkpt><trkpt lat="41.1266881774931" lon="9.499940613935806"><ele>120.0</ele><time>2026-05-02T08:38:33Z</time></trkpt><trkpt lat="41.12659506719777" lon="9.499843602358796"><ele>121.5</ele><time>2026-05-02T08:38:34Z</time></trkpt><trkpt lat="41.12649891239165" lon="9.499749683052102"><ele>123.0</ele><time>2026-05-02T08:38:35Z</time></trkpt><trkpt lat="41.126383688586195" lon="9.499684252227508"><ele>123.0</ele><time>2026-05-02T08:38:36Z</time></trkpt><trkpt lat="41.12625497095298" lon="9.499653982047882"><ele>123.0</ele><time>2026-05-02T08:38:37Z</time></trkpt><trkpt lat="41.12612395767638" lon="9.499606770898458"><ele>123.0</ele><time>2026-05-02T08:38:38Z</time></trkpt><trkpt lat="41.1259953984123" lon="9.499561906570328"><ele>123.0</ele><time>2026-05-02T08:38:39Z</time></trkpt><trkpt lat="41.125870246227855" lon="9.49952316504251"><ele>124.5</ele><time>2026-05-02T08:38:40Z</time></trkpt><trkpt lat="41.12574102825143" lon="9.49947949404864"><ele>126.0</ele><time>2026-05-02T08:38:41Z</time></trkpt><trkpt lat="41.12561420387649" lon="9.49946438214359"><ele>127.5</ele><time>2026-05-02T08:38:42Z</time></trkpt><trkpt lat="41.12550472550432" lon="9.499513084153772"><ele>129.0</ele><time>2026-05-02T08:38:43Z</time></trkpt><trkpt lat="41.12540934676815" lon="9.499603267405593"><ele>129.0</ele><time>2026-05-02T08:38:44Z</time></trkpt><trkpt lat="41.12532187175208" lon="9.499616760412806"><ele>129.0</ele><time>2026-05-02T08:38:45Z</time></trkpt><trkpt lat="41.12522400129005" lon="9.499506992931293"><ele>129.0</ele><time>2026-05-02T08:38:47Z</time></trkpt><trkpt lat="41.12523369422814" lon="9.499364836742423"><ele>129.0</ele><time>2026-05-02T08:38:48Z</time></trkpt><trkpt lat="41.12523162268622" lon="9.499222105933862"><ele>129.0</ele><time>2026-05-02T08:38:49Z</time></trkpt><trkpt lat="41.125260045546185" lon="9.499078795776779"><ele>133.5</ele><time>2026-05-02T08:38:50Z</time></trkpt><trkpt lat="41.125299144039275" lon="9.498930804944933"><ele>138.0</ele><time>2026-05-02T08:38:51Z</time></trkpt><trkpt lat="41.12535408134727" lon="9.49879536091864"><ele>142.5</ele><time>2026-05-02T08:38:52Z</time></trkpt><trkpt lat="41.12541563205764" lon="9.49866659308576"><ele>147.0</ele><time>2026-05-02T08:38:53Z</time></trkpt><trkpt lat="41.125525719966646" lon="9.498599843569371"><ele>149.8</ele><time>2026-05-02T08:38:54Z</time></trkpt><trkpt lat="41.125607659321275" lon="9.498485458302826"><ele>152.6</ele><time>2026-05-02T08:38:55Z</time></trkpt><trkpt lat="41.12567011058277" lon="9.498358011290197"><ele>155.4</ele><time>2026-05-02T08:38:56Z</time></trkpt><trkpt lat="41.125688814496506" lon="9.498215291393661"><ele>158.20000000000002</ele><time>2026-05-02T08:38:57Z</time></trkpt><trkpt lat="41.12568601486206" lon="9.498077087892057"><ele>161.0</ele><time>2026-05-02T08:38:58Z</time></trkpt><trkpt lat="41.125605381507505" lon="9.49795443132828"><ele>163.25</ele><time>2026-05-02T08:38:59Z</time></trkpt><trkpt lat="41.125527736956016" lon="9.497838824780231"><ele>165.5</ele><time>2026-05-02T08:39:00Z</time></trkpt><trkpt lat="41.12544072003338" lon="9.497729170696626"><ele>167.75</ele><time>2026-05-02T08:39:01Z</time></trkpt><trkpt lat="41.12535126407344" lon="9.49761723686868"><ele>170.0</ele><time>2026-05-02T08:39:02Z</time></trkpt><trkpt lat="41.12526483867927" lon="9.497499417134089"><ele>170.0</ele><time>2026-05-02T08:39:03Z</time></trkpt><trkpt lat="41.125179720449566" lon="9.497394013959617"><ele>170.0</ele><time>2026-05-02T08:39:04Z</time></trkpt><trkpt lat="41.12510414363267" lon="9.497272701678936"><ele>170.0</ele><time>2026-05-02T08:39:05Z</time></trkpt><trkpt lat="41.12501053912275" lon="9.497155141964827"><ele>170.0</ele><time>2026-05-02T08:39:06Z</time></trkpt><trkpt lat="41.12490920536832" lon="9.497027874979233"><ele>171.25</ele><time>2026-05-02T08:39:07Z</time></trkpt><trkpt lat="41.12480804901783" lon="9.496900830792034"><ele>172.5</ele><time>2026-05-02T08:39:08Z</time></trkpt><trkpt lat="41.12470676615341" lon="9.496773176494331"><ele>173.75</ele><time>2026-05-02T08:39:09Z</time></trkpt><trkpt lat="41.12459383731273" lon="9.496672359038977"><ele>175.0</ele><time>2026-05-02T08:39:10Z</time></trkpt><trkpt lat="41.12448087882411" lon="9.496583713209734"><ele>175.0</ele><time>2026-05-02T08:39:11Z</time></trkpt><trkpt lat="41.12435603380821" lon="9.496517103699311"><ele>175.0</ele><time>2026-05-02T08:39:12Z</time></trkpt><trkpt lat="41.12424054818245" lon="9.496431625885128"><ele>175.0</ele><time>2026-05-02T08:39:13Z</time></trkpt><trkpt lat="41.124107312786585" lon="9.496387797944362"><ele>175.0</ele><time>2026-05-02T08:39:14Z</time></trkpt><trkpt lat="41.12398442366134" lon="9.496312298334987"><ele>172.75</ele><time>2026-05-02T08:39:15Z</time></trkpt><trkpt lat="41.1238665399843" lon="9.496232484663961"><ele>170.5</ele><time>2026-05-02T08:39:16Z</time></trkpt><trkpt lat="41.12375284088797" lon="9.496155318395651"><ele>168.25</ele><time>2026-05-02T08:39:17Z</time></trkpt><trkpt lat="41.12365379371956" lon="9.496050098197303"><ele>166.0</ele><time>2026-05-02T08:39:18Z</time></trkpt><trkpt lat="41.123548155960634" lon="9.495978656103606"><ele>166.0</ele><time>2026-05-02T08:39:19Z</time></trkpt><trkpt lat="41.12345330352139" lon="9.495890321382964"><ele>166.0</ele><time>2026-05-02T08:39:20Z</time></trkpt><trkpt lat="41.123376216152394" lon="9.495776198279973"><ele>166.0</ele><time>2026-05-02T08:39:21Z</time></trkpt><trkpt lat="41.12331731663391" lon="9.495640668834515"><ele>166.0</ele><time>2026-05-02T08:39:22Z</time></trkpt><trkpt lat="41.12326422194724" lon="9.495496607135557"><ele>163.25</ele><time>2026-05-02T08:39:23Z</time></trkpt><trkpt lat="41.12319755561989" lon="9.495354705344717"><ele>160.5</ele><time>2026-05-02T08:39:24Z</time></trkpt><trkpt lat="41.1231440605658" lon="9.495202583100225"><ele>157.75</ele><time>2026-05-02T08:39:25Z</time></trkpt><trkpt lat="41.12308959901857" lon="9.495045728251055"><ele>155.0</ele><time>2026-05-02T08:39:26Z</time></trkpt><trkpt lat="41.12303946964751" lon="9.494888152956264"><ele>155.0</ele><time>2026-05-02T08:39:27Z</time></trkpt><trkpt lat="41.122990915077324" lon="9.494729258601586"><ele>155.0</ele><time>2026-05-02T08:39:28Z</time></trkpt><trkpt lat="41.122940556791974" lon="9.49456944343754"><ele>155.0</ele><time>2026-05-02T08:39:29Z</time></trkpt><trkpt lat="41.12289124914847" lon="9.494410799623447"><ele>155.0</ele><time>2026-05-02T08:39:30Z</time></trkpt><trkpt lat="41.122844437543804" lon="9.494250421925127"><ele>152.75</ele><time>2026-05-02T08:39:31Z</time></trkpt><trkpt lat="41.12279893998914" lon="9.494091147736139"><ele>150.5</ele><time>2026-05-02T08:39:32Z</time></trkpt><trkpt lat="41.12275324697461" lon="9.493933025193817"><ele>148.25</ele><time>2026-05-02T08:39:33Z</time></trkpt><trkpt lat="41.12270198610612" lon="9.493777312136787"><ele>146.0</ele><time>2026-05-02T08:39:34Z</time></trkpt><trkpt lat="41.1226427273747" lon="9.49362953385199"><ele>143.25</ele><time>2026-05-02T08:39:35Z</time></trkpt><trkpt lat="41.12258802307503" lon="9.493474405543104"><ele>140.5</ele><time>2026-05-02T08:39:36Z</time></trkpt><trkpt lat="41.12249968532985" lon="9.493354219022702"><ele>137.75</ele><time>2026-05-02T08:39:37Z</time></trkpt><trkpt lat="41.12240608024901" lon="9.493250242088068"><ele>135.0</ele><time>2026-05-02T08:39:38Z</time></trkpt><trkpt lat="41.122316548836906" lon="9.493157592889649"><ele>135.0</ele><time>2026-05-02T08:39:39Z</time></trkpt><trkpt lat="41.12226048171367" lon="9.493077005331573"><ele>135.0</ele><time>2026-05-02T08:39:40Z</time></trkpt><trkpt lat="41.122218523199706" lon="9.49298815222889"><ele>135.0</ele><time>2026-05-02T08:39:41Z</time></trkpt><trkpt lat="41.122250759291724" lon="9.492869633483702"><ele>135.0</ele><time>2026-05-02T08:39:42Z</time></trkpt><trkpt lat="41.12233024430103" lon="9.492796010559013"><ele>135.0</ele><time>2026-05-02T08:39:43Z</time></trkpt><trkpt lat="41.12243373525169" lon="9.492778513281873"><ele>130.75</ele><time>2026-05-02T08:39:44Z</time></trkpt><trkpt lat="41.122551150955395" lon="9.49278779289896"><ele>126.5</ele><time>2026-05-02T08:39:45Z</time></trkpt><trkpt lat="41.1226781692067" lon="9.492799544956693"><ele>122.25</ele><time>2026-05-02T08:39:46Z</time></trkpt><trkpt lat="41.122804571069906" lon="9.492832149418005"><ele>118.0</ele><time>2026-05-02T08:39:47Z</time></trkpt><trkpt lat="41.12292406078283" lon="9.49287403298502"><ele>118.0</ele><time>2026-05-02T08:39:48Z</time></trkpt><trkpt lat="41.12300747444441" lon="9.492882678302388"><ele>118.00000000000001</ele><time>2026-05-02T08:39:49Z</time></trkpt><trkpt lat="41.123067622540034" lon="9.492835065110073"><ele>118.00000000000001</ele><time>2026-05-02T08:39:50Z</time></trkpt><trkpt lat="41.123118639533395" lon="9.492735582458579"><ele>118.0</ele><time>2026-05-02T08:39:51Z</time></trkpt><trkpt lat="41.12311631710788" lon="9.49258499277517"><ele>118.0</ele><time>2026-05-02T08:39:52Z</time></trkpt><trkpt lat="41.12307889830633" lon="9.492434748111139"><ele>118.0</ele><time>2026-05-02T08:39:53Z</time></trkpt><trkpt lat="41.123039377769956" lon="9.49228220829644"><ele>118.0</ele><time>2026-05-02T08:39:54Z</time></trkpt><trkpt lat="41.123001862211076" lon="9.492113457631458"><ele>118.0</ele><time>2026-05-02T08:39:55Z</time></trkpt><trkpt lat="41.12294960097432" lon="9.491936081579423"><ele>118.0</ele><time>2026-05-02T08:39:56Z</time></trkpt><trkpt lat="41.12290495729087" lon="9.491787140830025"><ele>114.25</ele><time>2026-05-02T08:39:57Z</time></trkpt><trkpt lat="41.12283819418084" lon="9.491644449652295"><ele>110.5</ele><time>2026-05-02T08:39:58Z</time></trkpt><trkpt lat="41.12277886459051" lon="9.491506618206808"><ele>106.75</ele><time>2026-05-02T08:39:59Z</time></trkpt><trkpt lat="41.12270980306826" lon="9.49137951586692"><ele>103.0</ele><time>2026-05-02T08:40:00Z</time></trkpt><trkpt lat="41.122666371570084" lon="9.491259985487826"><ele>101.2</ele><time>2026-05-02T08:40:01Z</time></trkpt><trkpt lat="41.122650640648374" lon="9.49114565297489"><ele>99.4</ele><time>2026-05-02T08:40:02Z</time></trkpt><trkpt lat="41.12267856799517" lon="9.491032364558519"><ele>97.60000000000001</ele><time>2026-05-02T08:40:03Z</time></trkpt><trkpt lat="41.12273100945695" lon="9.490929615119155"><ele>95.80000000000001</ele><time>2026-05-02T08:40:04Z</time></trkpt><trkpt lat="41.12283049002439" lon="9.490868521254804"><ele>94.0</ele><time>2026-05-02T08:40:05Z</time></trkpt><trkpt lat="41.12291007577661" lon="9.490772960833702"><ele>94.0</ele><time>2026-05-02T08:40:06Z</time></trkpt><trkpt lat="41.122986843505146" lon="9.490691047059673"><ele>94.0</ele><time>2026-05-02T08:40:07Z</time></trkpt><trkpt lat="41.12305110630947" lon="9.490608303573662"><ele>94.0</ele><time>2026-05-02T08:40:08Z</time></trkpt><trkpt lat="41.12306894925612" lon="9.49048113135092"><ele>94.0</ele><time>2026-05-02T08:40:09Z</time></trkpt><trkpt lat="41.12313870321811" lon="9.490258472715835"><ele>92.6</ele><time>2026-05-02T08:40:11Z</time></trkpt><trkpt lat="41.123165942834284" lon="9.490141541908638"><ele>91.2</ele><time>2026-05-02T08:40:12Z</time></trkpt><trkpt lat="41.123171315963646" lon="9.490014988211"><ele>89.8</ele><time>2026-05-02T08:40:13Z</time></trkpt><trkpt lat="41.12318380537169" lon="9.48988003581472"><ele>88.39999999999999</ele><time>2026-05-02T08:40:14Z</time></trkpt><trkpt lat="41.12317876631612" lon="9.489705600191334"><ele>87.0</ele><time>2026-05-02T08:40:15Z</time></trkpt><trkpt lat="41.12318032121473" lon="9.489532431549524"><ele>86.75</ele><time>2026-05-02T08:40:16Z</time></trkpt><trkpt lat="41.12315673956616" lon="9.489358907106356"><ele>86.5</ele><time>2026-05-02T08:40:17Z</time></trkpt><trkpt lat="41.12309668737511" lon="9.489200960227356"><ele>86.25</ele><time>2026-05-02T08:40:18Z</time></trkpt><trkpt lat="41.12303850670182" lon="9.489041168348855"><ele>86.0</ele><time>2026-05-02T08:40:19Z</time></trkpt><trkpt lat="41.122971474441776" lon="9.488900972260765"><ele>86.0</ele><time>2026-05-02T08:40:20Z</time></trkpt><trkpt lat="41.12291921789475" lon="9.488760011585374"><ele>86.0</ele><time>2026-05-02T08:40:21Z</time></trkpt><trkpt lat="41.122883740909295" lon="9.488618171483179"><ele>86.0</ele><time>2026-05-02T08:40:22Z</time></trkpt><trkpt lat="41.12287158377444" lon="9.488465081197814"><ele>86.0</ele><time>2026-05-02T08:40:23Z</time></trkpt><trkpt lat="41.12287235810007" lon="9.488297606175857"><ele>85.25</ele><time>2026-05-02T08:40:24Z</time></trkpt><trkpt lat="41.12289338450414" lon="9.488131903492377"><ele>84.5</ele><time>2026-05-02T08:40:25Z</time></trkpt><trkpt lat="41.12293461877924" lon="9.487978574589851"><ele>83.75</ele><time>2026-05-02T08:40:26Z</time></trkpt><trkpt lat="41.12301082753688" lon="9.487846913793039"><ele>83.0</ele><time>2026-05-02T08:40:27Z</time></trkpt><trkpt lat="41.12309880275006" lon="9.487694979724859"><ele>84.5</ele><time>2026-05-02T08:40:28Z</time></trkpt><trkpt lat="41.12317416691705" lon="9.487539876771738"><ele>86.0</ele><time>2026-05-02T08:40:29Z</time></trkpt><trkpt lat="41.123252259809924" lon="9.487404904995717"><ele>87.5</ele><time>2026-05-02T08:40:30Z</time></trkpt><trkpt lat="41.123310751443306" lon="9.487297002100352"><ele>89.0</ele><time>2026-05-02T08:40:31Z</time></trkpt><trkpt lat="41.123358705261026" lon="9.487203464500453"><ele>88.0</ele><time>2026-05-02T08:40:32Z</time></trkpt><trkpt lat="41.12333802673807" lon="9.487073973945938"><ele>87.0</ele><time>2026-05-02T08:40:33Z</time></trkpt><trkpt lat="41.12326158972499" lon="9.486956867063622"><ele>86.0</ele><time>2026-05-02T08:40:34Z</time></trkpt><trkpt lat="41.12320438481361" lon="9.486821359499997"><ele>85.0</ele><time>2026-05-02T08:40:35Z</time></trkpt><trkpt lat="41.12315091089478" lon="9.486685318237868"><ele>84.0</ele><time>2026-05-02T08:40:36Z</time></trkpt><trkpt lat="41.123123877728204" lon="9.486520169068058"><ele>80.0</ele><time>2026-05-02T08:40:37Z</time></trkpt><trkpt lat="41.123075113333016" lon="9.486353251187719"><ele>76.0</ele><time>2026-05-02T08:40:38Z</time></trkpt><trkpt lat="41.12296782072886" lon="9.486215443352622"><ele>72.0</ele><time>2026-05-02T08:40:39Z</time></trkpt><trkpt lat="41.12287368908625" lon="9.486067240905996"><ele>68.0</ele><time>2026-05-02T08:40:40Z</time></trkpt><trkpt lat="41.122769354782776" lon="9.485935338409984"><ele>68.0</ele><time>2026-05-02T08:40:41Z</time></trkpt><trkpt lat="41.122668950960374" lon="9.48580907351949"><ele>68.0</ele><time>2026-05-02T08:40:42Z</time></trkpt><trkpt lat="41.12257559788579" lon="9.485685276145015"><ele>68.0</ele><time>2026-05-02T08:40:43Z</time></trkpt><trkpt lat="41.12248575457405" lon="9.485563084910417"><ele>68.0</ele><time>2026-05-02T08:40:44Z</time></trkpt><trkpt lat="41.12240645700034" lon="9.485449682096686"><ele>68.4</ele><time>2026-05-02T08:40:45Z</time></trkpt><trkpt lat="41.12236132527605" lon="9.485338278093126"><ele>68.8</ele><time>2026-05-02T08:40:46Z</time></trkpt><trkpt lat="41.12236112038122" lon="9.485213297697"><ele>69.2</ele><time>2026-05-02T08:40:47Z</time></trkpt><trkpt lat="41.12236591640449" lon="9.485048711865431"><ele>69.6</ele><time>2026-05-02T08:40:48Z</time></trkpt><trkpt lat="41.12237215670942" lon="9.484876582436637"><ele>70.0</ele><time>2026-05-02T08:40:49Z</time></trkpt><trkpt lat="41.12240172439825" lon="9.484728861387072"><ele>68.5</ele><time>2026-05-02T08:40:50Z</time></trkpt><trkpt lat="41.12245553251" lon="9.484585331299694"><ele>67.0</ele><time>2026-05-02T08:40:51Z</time></trkpt><trkpt lat="41.1225149150728" lon="9.484426995137207"><ele>65.5</ele><time>2026-05-02T08:40:52Z</time></trkpt><trkpt lat="41.12256011902283" lon="9.4842658927421"><ele>64.0</ele><time>2026-05-02T08:40:53Z</time></trkpt><trkpt lat="41.122598100352285" lon="9.484119201373566"><ele>64.0</ele><time>2026-05-02T08:40:54Z</time></trkpt><trkpt lat="41.12262101164278" lon="9.484001023492587"><ele>64.0</ele><time>2026-05-02T08:40:55Z</time></trkpt><trkpt lat="41.12254159148836" lon="9.483877103710205"><ele>64.0</ele><time>2026-05-02T08:40:56Z</time></trkpt><trkpt lat="41.12244227143664" lon="9.48378371722715"><ele>64.0</ele><time>2026-05-02T08:40:57Z</time></trkpt><trkpt lat="41.122357763337995" lon="9.483690243405091"><ele>64.0</ele><time>2026-05-02T08:40:58Z</time></trkpt><trkpt lat="41.12227616573101" lon="9.4835874326474"><ele>60.75</ele><time>2026-05-02T08:40:59Z</time></trkpt><trkpt lat="41.122226219754914" lon="9.483476185348065"><ele>57.5</ele><time>2026-05-02T08:41:00Z</time></trkpt><trkpt lat="41.122235960442694" lon="9.483339466933328"><ele>54.25</ele><time>2026-05-02T08:41:01Z</time></trkpt><trkpt lat="41.122233459921624" lon="9.483170469582094"><ele>51.0</ele><time>2026-05-02T08:41:02Z</time></trkpt><trkpt lat="41.122229500430805" lon="9.482991206985528"><ele>51.75</ele><time>2026-05-02T08:41:03Z</time></trkpt><trkpt lat="41.122176413533566" lon="9.482814828044269"><ele>52.5</ele><time>2026-05-02T08:41:04Z</time></trkpt><trkpt lat="41.12211027328795" lon="9.482669749487917"><ele>53.25</ele><time>2026-05-02T08:41:05Z</time></trkpt><trkpt lat="41.122034408345876" lon="9.482542327475537"><ele>54.0</ele><time>2026-05-02T08:41:06Z</time></trkpt><trkpt lat="41.12190660820431" lon="9.482474913473798"><ele>54.0</ele><time>2026-05-02T08:41:07Z</time></trkpt><trkpt lat="41.12179253466542" lon="9.48235851174108"><ele>54.0</ele><time>2026-05-02T08:41:08Z</time></trkpt><trkpt lat="41.1216693488271" lon="9.482252831883757"><ele>54.0</ele><time>2026-05-02T08:41:09Z</time></trkpt><trkpt lat="41.12154695061972" lon="9.482146567846543"><ele>54.0</ele><time>2026-05-02T08:41:10Z</time></trkpt><trkpt lat="41.121432894515124" lon="9.482035239498531"><ele>51.25</ele><time>2026-05-02T08:41:11Z</time></trkpt><trkpt lat="41.12134047817105" lon="9.481919334273815"><ele>48.5</ele><time>2026-05-02T08:41:12Z</time></trkpt><trkpt lat="41.12127531570526" lon="9.481773729887594"><ele>45.75</ele><time>2026-05-02T08:41:13Z</time></trkpt><trkpt lat="41.12123278245315" lon="9.481612461359676"><ele>43.0</ele><time>2026-05-02T08:41:14Z</time></trkpt><trkpt lat="41.12118959035727" lon="9.481441405763977"><ele>43.0</ele><time>2026-05-02T08:41:15Z</time></trkpt><trkpt lat="41.12116154875033" lon="9.481266812688862"><ele>43.0</ele><time>2026-05-02T08:41:16Z</time></trkpt><trkpt lat="41.12113466564887" lon="9.481079507770792"><ele>43.0</ele><time>2026-05-02T08:41:17Z</time></trkpt><trkpt lat="41.12108635873214" lon="9.480900769938227"><ele>43.0</ele><time>2026-05-02T08:41:18Z</time></trkpt><trkpt lat="41.12105517243325" lon="9.48070523068976"><ele>43.0</ele><time>2026-05-02T08:41:19Z</time></trkpt><trkpt lat="41.12102899481579" lon="9.480502143582482"><ele>43.0</ele><time>2026-05-02T08:41:20Z</time></trkpt><trkpt lat="41.12099081831718" lon="9.480297666925562"><ele>43.0</ele><time>2026-05-02T08:41:21Z</time></trkpt><trkpt lat="41.120952316833254" lon="9.480092583746428"><ele>42.66666666666667</ele><time>2026-05-02T08:41:22Z</time></trkpt><trkpt lat="41.12091179121293" lon="9.479892499084531"><ele>42.333333333333336</ele><time>2026-05-02T08:41:23Z</time></trkpt><trkpt lat="41.12084772244834" lon="9.479695793027954"><ele>42.0</ele><time>2026-05-02T08:41:24Z</time></trkpt><trkpt lat="41.1207750641023" lon="9.479523536002024"><ele>41.75</ele><time>2026-05-02T08:41:25Z</time></trkpt><trkpt lat="41.120716713015995" lon="9.479356437921268"><ele>41.5</ele><time>2026-05-02T08:41:26Z</time></trkpt><trkpt lat="41.120700742916156" lon="9.479207817650492"><ele>41.25</ele><time>2026-05-02T08:41:27Z</time></trkpt><trkpt lat="41.12071678534225" lon="9.479048207494808"><ele>41.0</ele><time>2026-05-02T08:41:28.001Z</time></trkpt><trkpt lat="41.120734385303315" lon="9.478862991795038"><ele>39.0</ele><time>2026-05-02T08:41:29.001Z</time></trkpt><trkpt lat="41.120755165417606" lon="9.478677943482465"><ele>37.0</ele><time>2026-05-02T08:41:30.001Z</time></trkpt><trkpt lat="41.12077826908827" lon="9.478507349054153"><ele>35.0</ele><time>2026-05-02T08:41:31.001Z</time></trkpt><trkpt lat="41.12081402067838" lon="9.478369259006772"><ele>33.0</ele><time>2026-05-02T08:41:32.001Z</time></trkpt><trkpt lat="41.12089553595736" lon="9.478298299281406"><ele>33.0</ele><time>2026-05-02T08:41:33.001Z</time></trkpt><trkpt lat="41.120996417947225" lon="9.478193199208778"><ele>33.0</ele><time>2026-05-02T08:41:34.001Z</time></trkpt><trkpt lat="41.12109585758908" lon="9.478075016052983"><ele>33.0</ele><time>2026-05-02T08:41:35.001Z</time></trkpt><trkpt lat="41.12120594233441" lon="9.477968192548946"><ele>33.0</ele><time>2026-05-02T08:41:36.001Z</time></trkpt><trkpt lat="41.12131441033728" lon="9.47785513100816"><ele>33.0</ele><time>2026-05-02T08:41:37.001Z</time></trkpt><trkpt lat="41.1214245259486" lon="9.477743245548789"><ele>33.0</ele><time>2026-05-02T08:41:38.001Z</time></trkpt><trkpt lat="41.12153094380204" lon="9.477631907151984"><ele>33.0</ele><time>2026-05-02T08:41:39Z</time></trkpt><trkpt lat="41.12162879563796" lon="9.477521418391564"><ele>33.0</ele><time>2026-05-02T08:41:40Z</time></trkpt><trkpt lat="41.1217067493709" lon="9.477401152057215"><ele>33.0</ele><time>2026-05-02T08:41:41Z</time></trkpt><trkpt lat="41.12176029138181" lon="9.477255361703316"><ele>33.0</ele><time>2026-05-02T08:41:42Z</time></trkpt><trkpt lat="41.12179018044876" lon="9.477076916441893"><ele>33.0</ele><time>2026-05-02T08:41:43Z</time></trkpt><trkpt lat="41.12186619764044" lon="9.47691086367403"><ele>33.0</ele><time>2026-05-02T08:41:44Z</time></trkpt><trkpt lat="41.121944286932" lon="9.476744739771599"><ele>29.666666666666668</ele><time>2026-05-02T08:41:45Z</time></trkpt><trkpt lat="41.12202019416443" lon="9.476564179953508"><ele>26.333333333333336</ele><time>2026-05-02T08:41:46Z</time></trkpt><trkpt lat="41.12211300894327" lon="9.476402621609177"><ele>23.0</ele><time>2026-05-02T08:41:47Z</time></trkpt><trkpt lat="41.122195212099626" lon="9.476235806773465"><ele>23.5</ele><time>2026-05-02T08:41:48Z</time></trkpt><trkpt lat="41.12226822142451" lon="9.476072795373561"><ele>24.0</ele><time>2026-05-02T08:41:49Z</time></trkpt><trkpt lat="41.122340383330894" lon="9.475917258397288"><ele>24.5</ele><time>2026-05-02T08:41:50Z</time></trkpt><trkpt lat="41.12241315929759" lon="9.475771480874426"><ele>25.0</ele><time>2026-05-02T08:41:51Z</time></trkpt><trkpt lat="41.12248697843876" lon="9.47562511863766"><ele>25.0</ele><time>2026-05-02T08:41:52Z</time></trkpt><trkpt lat="41.12256829844769" lon="9.475483652637793"><ele>25.0</ele><time>2026-05-02T08:41:53Z</time></trkpt><trkpt lat="41.12266867004976" lon="9.475364275017427"><ele>25.0</ele><time>2026-05-02T08:41:54Z</time></trkpt><trkpt lat="41.12277082341266" lon="9.47525450792087"><ele>25.0</ele><time>2026-05-02T08:41:55Z</time></trkpt><trkpt lat="41.12286833429051" lon="9.47514494819025"><ele>22.6</ele><time>2026-05-02T08:41:56Z</time></trkpt><trkpt lat="41.12295216300589" lon="9.47502479418697"><ele>20.2</ele><time>2026-05-02T08:41:57Z</time></trkpt><trkpt lat="41.12303884771614" lon="9.474937672259973"><ele>17.8</ele><time>2026-05-02T08:41:58Z</time></trkpt><trkpt lat="41.12310653963996" lon="9.474857916631768"><ele>15.4</ele><time>2026-05-02T08:41:59Z</time></trkpt><trkpt lat="41.12315762734549" lon="9.474800984595934"><ele>13.0</ele><time>2026-05-02T08:42:00Z</time></trkpt><trkpt lat="41.12317469116135" lon="9.474703162283115"><ele>12.999999999999998</ele><time>2026-05-02T08:42:04Z</time></trkpt><trkpt lat="41.12313543511947" lon="9.474612381184034"><ele>13.0</ele><time>2026-05-02T08:42:06Z</time></trkpt><trkpt lat="41.123064049486324" lon="9.47459775895828"><ele>13.0</ele><time>2026-05-02T08:42:07Z</time></trkpt><trkpt lat="41.12300260365122" lon="9.474547659505806"><ele>13.0</ele><time>2026-05-02T08:42:08Z</time></trkpt><trkpt lat="41.12293155978942" lon="9.474510219577644"><ele>12.999999999999998</ele><time>2026-05-02T08:42:09Z</time></trkpt><trkpt lat="41.12285595703192" lon="9.474491209716811"><ele>13.0</ele><time>2026-05-02T08:42:10Z</time></trkpt><trkpt lat="41.1227782458699" lon="9.474450467568294"><ele>12.0</ele><time>2026-05-02T08:42:11Z</time></trkpt><trkpt lat="41.122691377837405" lon="9.474383604664936"><ele>11.0</ele><time>2026-05-02T08:42:12Z</time></trkpt><trkpt lat="41.12258543828825" lon="9.474327690600111"><ele>10.0</ele><time>2026-05-02T08:42:13Z</time></trkpt><trkpt lat="41.12247370768163" lon="9.474268720079028"><ele>9.0</ele><time>2026-05-02T08:42:14Z</time></trkpt><trkpt lat="41.12236730306861" lon="9.474212560511903"><ele>8.0</ele><time>2026-05-02T08:42:15Z</time></trkpt><trkpt lat="41.122263961864824" lon="9.47415801785699"><ele>8.0</ele><time>2026-05-02T08:42:16Z</time></trkpt><trkpt lat="41.122154324105345" lon="9.47410015185962"><ele>8.0</ele><time>2026-05-02T08:42:17Z</time></trkpt><trkpt lat="41.122037485691884" lon="9.4740621467806"><ele>8.0</ele><time>2026-05-02T08:42:18Z</time></trkpt><trkpt lat="41.12192179383137" lon="9.473998611196146"><ele>8.0</ele><time>2026-05-02T08:42:19Z</time></trkpt><trkpt lat="41.1217980375853" lon="9.47393339160094"><ele>8.0</ele><time>2026-05-02T08:42:20Z</time></trkpt><trkpt lat="41.12167188071845" lon="9.473863648988031"><ele>8.0</ele><time>2026-05-02T08:42:21Z</time></trkpt><trkpt lat="41.12154430116464" lon="9.473796966291694"><ele>8.0</ele><time>2026-05-02T08:42:22Z</time></trkpt><trkpt lat="41.12140586800081" lon="9.473724141514937"><ele>8.0</ele><time>2026-05-02T08:42:23Z</time></trkpt><trkpt lat="41.121263813013705" lon="9.473650333833891"><ele>10.666666666666666</ele><time>2026-05-02T08:42:24Z</time></trkpt><trkpt lat="41.12111135112303" lon="9.473580830936923"><ele>13.333333333333332</ele><time>2026-05-02T08:42:25Z</time></trkpt><trkpt lat="41.120963408175946" lon="9.473491397009724"><ele>16.0</ele><time>2026-05-02T08:42:26Z</time></trkpt><trkpt lat="41.12080702057402" lon="9.473426111472302"><ele>18.0</ele><time>2026-05-02T08:42:27Z</time></trkpt><trkpt lat="41.12065435636337" lon="9.47336376109273"><ele>20.0</ele><time>2026-05-02T08:42:28Z</time></trkpt><trkpt lat="41.120497141286016" lon="9.47329923293987"><ele>22.0</ele><time>2026-05-02T08:42:29Z</time></trkpt><trkpt lat="41.120339315857265" lon="9.473234579701755"><ele>22.0</ele><time>2026-05-02T08:42:30Z</time></trkpt><trkpt lat="41.1201756567303" lon="9.473188435393496"><ele>22.0</ele><time>2026-05-02T08:42:31Z</time></trkpt><trkpt lat="41.120018053142914" lon="9.473124084918098"><ele>22.0</ele><time>2026-05-02T08:42:32Z</time></trkpt><trkpt lat="41.11985318480014" lon="9.473057923921605"><ele>22.0</ele><time>2026-05-02T08:42:33Z</time></trkpt><trkpt lat="41.11969428925595" lon="9.472971169164063"><ele>22.0</ele><time>2026-05-02T08:42:34Z</time></trkpt><trkpt lat="41.11953166909203" lon="9.472904812925298"><ele>22.0</ele><time>2026-05-02T08:42:35Z</time></trkpt><trkpt lat="41.11936959737411" lon="9.472838817975138"><ele>22.0</ele><time>2026-05-02T08:42:36Z</time></trkpt><trkpt lat="41.11920801873469" lon="9.472769121613535"><ele>22.0</ele><time>2026-05-02T08:42:37Z</time></trkpt><trkpt lat="41.11904472947877" lon="9.472709441235038"><ele>22.0</ele><time>2026-05-02T08:42:38Z</time></trkpt><trkpt lat="41.118894631481616" lon="9.47261974080529"><ele>24.333333333333332</ele><time>2026-05-02T08:42:39Z</time></trkpt><trkpt lat="41.11875029495746" lon="9.472518109290288"><ele>26.666666666666664</ele><time>2026-05-02T08:42:40Z</time></trkpt><trkpt lat="41.11861916182396" lon="9.47238766989299"><ele>29.0</ele><time>2026-05-02T08:42:41Z</time></trkpt><trkpt lat="41.1184698834425" lon="9.47228683159091"><ele>29.0</ele><time>2026-05-02T08:42:42Z</time></trkpt><trkpt lat="41.118326872886456" lon="9.472157937421592"><ele>29.0</ele><time>2026-05-02T08:42:43Z</time></trkpt><trkpt lat="41.118179364970715" lon="9.472035435117297"><ele>29.0</ele><time>2026-05-02T08:42:44Z</time></trkpt><trkpt lat="41.11802732688319" lon="9.471909712389692"><ele>28.0</ele><time>2026-05-02T08:42:45Z</time></trkpt><trkpt lat="41.11787113959369" lon="9.471777590689962"><ele>27.0</ele><time>2026-05-02T08:42:46Z</time></trkpt><trkpt lat="41.11771546915385" lon="9.471643225389359"><ele>26.0</ele><time>2026-05-02T08:42:47Z</time></trkpt><trkpt lat="41.117560235300175" lon="9.471512053739861"><ele>26.0</ele><time>2026-05-02T08:42:48Z</time></trkpt><trkpt lat="41.11740857144123" lon="9.471362301389792"><ele>26.0</ele><time>2026-05-02T08:42:49Z</time></trkpt><trkpt lat="41.117240547354626" lon="9.471237482890846"><ele>26.0</ele><time>2026-05-02T08:42:50Z</time></trkpt><trkpt lat="41.11706625272472" lon="9.471122174697694"><ele>24.0</ele><time>2026-05-02T08:42:51Z</time></trkpt><trkpt lat="41.11688614864399" lon="9.47100487133192"><ele>22.0</ele><time>2026-05-02T08:42:52Z</time></trkpt><trkpt lat="41.11669924764336" lon="9.470887410223746"><ele>20.0</ele><time>2026-05-02T08:42:53Z</time></trkpt><trkpt lat="41.116514342288326" lon="9.470767221934006"><ele>19.666666666666668</ele><time>2026-05-02T08:42:54Z</time></trkpt><trkpt lat="41.1163268652012" lon="9.470646864840967"><ele>19.333333333333332</ele><time>2026-05-02T08:42:55Z</time></trkpt><trkpt lat="41.116147864193806" lon="9.470533478956694"><ele>19.0</ele><time>2026-05-02T08:42:56Z</time></trkpt><trkpt lat="41.11597938549544" lon="9.470423774773156"><ele>18.666666666666664</ele><time>2026-05-02T08:42:57Z</time></trkpt><trkpt lat="41.11583471108279" lon="9.470295254175277"><ele>18.333333333333332</ele><time>2026-05-02T08:42:58Z</time></trkpt><trkpt lat="41.11571237204782" lon="9.470139328927896"><ele>18.0</ele><time>2026-05-02T08:42:59Z</time></trkpt><trkpt lat="41.11561252364321" lon="9.469958929414878"><ele>18.0</ele><time>2026-05-02T08:43:00Z</time></trkpt><trkpt lat="41.11552027670736" lon="9.469768208600938"><ele>18.0</ele><time>2026-05-02T08:43:01Z</time></trkpt><trkpt lat="41.11549602826673" lon="9.469536399176507"><ele>18.0</ele><time>2026-05-02T08:43:02Z</time></trkpt><trkpt lat="41.11548165114597" lon="9.469298676549837"><ele>17.666666666666668</ele><time>2026-05-02T08:43:03Z</time></trkpt><trkpt lat="41.115497343796676" lon="9.469055288190193"><ele>17.333333333333336</ele><time>2026-05-02T08:43:04Z</time></trkpt><trkpt lat="41.11552629080726" lon="9.468800168657287"><ele>17.0</ele><time>2026-05-02T08:43:05Z</time></trkpt><trkpt lat="41.115543292285736" lon="9.468540067035677"><ele>17.0</ele><time>2026-05-02T08:43:06Z</time></trkpt><trkpt lat="41.11557306884102" lon="9.468274947755955"><ele>17.0</ele><time>2026-05-02T08:43:07Z</time></trkpt><trkpt lat="41.115593550129766" lon="9.468026467496907"><ele>17.0</ele><time>2026-05-02T08:43:08Z</time></trkpt><trkpt lat="41.11561815069722" lon="9.467781836843557"><ele>20.0</ele><time>2026-05-02T08:43:09Z</time></trkpt><trkpt lat="41.115649417720384" lon="9.467542947545777"><ele>23.0</ele><time>2026-05-02T08:43:10Z</time></trkpt><trkpt lat="41.115678818448096" lon="9.46730673323485"><ele>26.0</ele><time>2026-05-02T08:43:11Z</time></trkpt><trkpt lat="41.11569896902673" lon="9.467072375077764"><ele>26.0</ele><time>2026-05-02T08:43:12Z</time></trkpt><trkpt lat="41.11570310971311" lon="9.46683681911032"><ele>26.0</ele><time>2026-05-02T08:43:13Z</time></trkpt><trkpt lat="41.11568487861997" lon="9.466608115796573"><ele>26.0</ele><time>2026-05-02T08:43:14Z</time></trkpt><trkpt lat="41.11563412050478" lon="9.466384294679228"><ele>21.333333333333332</ele><time>2026-05-02T08:43:15Z</time></trkpt><trkpt lat="41.11555654509714" lon="9.466175847039304"><ele>16.666666666666664</ele><time>2026-05-02T08:43:16Z</time></trkpt><trkpt lat="41.11545814173992" lon="9.465984557597968"><ele>12.0</ele><time>2026-05-02T08:43:17Z</time></trkpt><trkpt lat="41.115343418172515" lon="9.46581665444239"><ele>12.0</ele><time>2026-05-02T08:43:18Z</time></trkpt><trkpt lat="41.115218305971936" lon="9.46566617588408"><ele>12.0</ele><time>2026-05-02T08:43:19Z</time></trkpt><trkpt lat="41.11507177212728" lon="9.465547837027305"><ele>12.0</ele><time>2026-05-02T08:43:20Z</time></trkpt><trkpt lat="41.11491088347013" lon="9.465465356197216"><ele>9.333333333333334</ele><time>2026-05-02T08:43:21Z</time></trkpt><trkpt lat="41.11474810838341" lon="9.46539780937883"><ele>6.666666666666666</ele><time>2026-05-02T08:43:22Z</time></trkpt><trkpt lat="41.11459955252482" lon="9.465294598129454"><ele>4.0</ele><time>2026-05-02T08:43:23Z</time></trkpt><trkpt lat="41.11444523001534" lon="9.465208557484576"><ele>4.0</ele><time>2026-05-02T08:43:24Z</time></trkpt><trkpt lat="41.11429585018256" lon="9.465104749835655"><ele>4.0</ele><time>2026-05-02T08:43:25Z</time></trkpt><trkpt lat="41.11414686109371" lon="9.464985989850174"><ele>4.0</ele><time>2026-05-02T08:43:26Z</time></trkpt><trkpt lat="41.11399719989686" lon="9.464856677147344"><ele>4.666666666666666</ele><time>2026-05-02T08:43:27Z</time></trkpt><trkpt lat="41.113847019877156" lon="9.46472744002349"><ele>5.333333333333333</ele><time>2026-05-02T08:43:28Z</time></trkpt><trkpt lat="41.113694148201745" lon="9.464597516530889"><ele>6.0</ele><time>2026-05-02T08:43:29Z</time></trkpt><trkpt lat="41.11354200908818" lon="9.46446821433608"><ele>6.0</ele><time>2026-05-02T08:43:30Z</time></trkpt><trkpt lat="41.113389124201845" lon="9.464337377196674"><ele>6.0</ele><time>2026-05-02T08:43:31Z</time></trkpt><trkpt lat="41.11323262026383" lon="9.464221294328933"><ele>6.0</ele><time>2026-05-02T08:43:32Z</time></trkpt><trkpt lat="41.11307513164973" lon="9.464091615036287"><ele>6.333333333333334</ele><time>2026-05-02T08:43:33Z</time></trkpt><trkpt lat="41.11291924201131" lon="9.463955598856105"><ele>6.666666666666667</ele><time>2026-05-02T08:43:34.001Z</time></trkpt><trkpt lat="41.112763980403436" lon="9.463817511299853"><ele>7.0</ele><time>2026-05-02T08:43:35.001Z</time></trkpt><trkpt lat="41.11260702583714" lon="9.463678056739408"><ele>7.0</ele><time>2026-05-02T08:43:36.001Z</time></trkpt><trkpt lat="41.11245077306158" lon="9.46354088474711"><ele>7.0</ele><time>2026-05-02T08:43:37.001Z</time></trkpt><trkpt lat="41.11228300148939" lon="9.463425414927821"><ele>7.0</ele><time>2026-05-02T08:43:38.001Z</time></trkpt><trkpt lat="41.11210813152072" lon="9.463350707657579"><ele>7.0</ele><time>2026-05-02T08:43:39.001Z</time></trkpt><trkpt lat="41.11192338287279" lon="9.46332174725797"><ele>7.0</ele><time>2026-05-02T08:43:40.001Z</time></trkpt><trkpt lat="41.111744182723385" lon="9.463330050025391"><ele>7.0</ele><time>2026-05-02T08:43:41.001Z</time></trkpt><trkpt lat="41.1115669660097" lon="9.463362722216432"><ele>7.666666666666667</ele><time>2026-05-02T08:43:42.001Z</time></trkpt><trkpt lat="41.111387065103166" lon="9.463429878021081"><ele>8.333333333333334</ele><time>2026-05-02T08:43:43.001Z</time></trkpt><trkpt lat="41.11121260275756" lon="9.463519170386316"><ele>9.0</ele><time>2026-05-02T08:43:44.001Z</time></trkpt><trkpt lat="41.11103898169324" lon="9.463605733405888"><ele>9.0</ele><time>2026-05-02T08:43:45.001Z</time></trkpt><trkpt lat="41.11086341447085" lon="9.463663707409157"><ele>9.0</ele><time>2026-05-02T08:43:46.001Z</time></trkpt><trkpt lat="41.11068842285157" lon="9.463737510595555"><ele>9.0</ele><time>2026-05-02T08:43:47.001Z</time></trkpt><trkpt lat="41.1105220451915" lon="9.463830120807868"><ele>12.0</ele><time>2026-05-02T08:43:48.001Z</time></trkpt><trkpt lat="41.11035229939289" lon="9.463895747696874"><ele>15.0</ele><time>2026-05-02T08:43:49.001Z</time></trkpt><trkpt lat="41.110170304730275" lon="9.463961232522152"><ele>18.0</ele><time>2026-05-02T08:43:50.001Z</time></trkpt><trkpt lat="41.11001342042394" lon="9.464033134417283"><ele>21.666666666666664</ele><time>2026-05-02T08:43:51.001Z</time></trkpt><trkpt lat="41.1098595013378" lon="9.464098530441122"><ele>25.333333333333332</ele><time>2026-05-02T08:43:52Z</time></trkpt><trkpt lat="41.10971096911777" lon="9.464164723380648"><ele>29.0</ele><time>2026-05-02T08:43:53Z</time></trkpt><trkpt lat="41.10955229178285" lon="9.464239382084026"><ele>29.0</ele><time>2026-05-02T08:43:54Z</time></trkpt><trkpt lat="41.10939513647908" lon="9.464303814496448"><ele>29.0</ele><time>2026-05-02T08:43:55Z</time></trkpt><trkpt lat="41.10922863360475" lon="9.464346718787915"><ele>29.0</ele><time>2026-05-02T08:43:56Z</time></trkpt><trkpt lat="41.10905719744661" lon="9.464360004367121"><ele>32.33333333333333</ele><time>2026-05-02T08:43:57Z</time></trkpt><trkpt lat="41.10888430509181" lon="9.464351109414265"><ele>35.666666666666664</ele><time>2026-05-02T08:43:58Z</time></trkpt><trkpt lat="41.108733131588124" lon="9.464318634886137"><ele>39.0</ele><time>2026-05-02T08:43:59Z</time></trkpt><trkpt lat="41.10861640059893" lon="9.464252896940426"><ele>39.0</ele><time>2026-05-02T08:44:00Z</time></trkpt><trkpt lat="41.10853567685882" lon="9.464144575350362"><ele>39.0</ele><time>2026-05-02T08:44:01Z</time></trkpt><trkpt lat="41.10846926126618" lon="9.463999289439577"><ele>39.0</ele><time>2026-05-02T08:44:02Z</time></trkpt><trkpt lat="41.108433716587456" lon="9.463831981772577"><ele>39.0</ele><time>2026-05-02T08:44:03Z</time></trkpt><trkpt lat="41.108458721362574" lon="9.463671146205247"><ele>40.0</ele><time>2026-05-02T08:44:04Z</time></trkpt><trkpt lat="41.10849828004465" lon="9.463509706479371"><ele>41.0</ele><time>2026-05-02T08:44:05Z</time></trkpt><trkpt lat="41.10860340661436" lon="9.463371586750895"><ele>42.0</ele><time>2026-05-02T08:44:06Z</time></trkpt><trkpt lat="41.10872086196147" lon="9.463241319908652"><ele>43.0</ele><time>2026-05-02T08:44:07Z</time></trkpt><trkpt lat="41.108837788754755" lon="9.463111092693888"><ele>43.0</ele><time>2026-05-02T08:44:08Z</time></trkpt><trkpt lat="41.108960525615146" lon="9.46298327679639"><ele>43.0</ele><time>2026-05-02T08:44:09Z</time></trkpt><trkpt lat="41.10907416463273" lon="9.46286318201253"><ele>43.0</ele><time>2026-05-02T08:44:10Z</time></trkpt><trkpt lat="41.10917238823763" lon="9.462726864047262"><ele>43.0</ele><time>2026-05-02T08:44:11Z</time></trkpt><trkpt lat="41.1092444519882" lon="9.46256523521746"><ele>42.75</ele><time>2026-05-02T08:44:12Z</time></trkpt><trkpt lat="41.109288349225515" lon="9.462391920665432"><ele>42.5</ele><time>2026-05-02T08:44:13Z</time></trkpt><trkpt lat="41.10929320133737" lon="9.462222156334064"><ele>42.25</ele><time>2026-05-02T08:44:14Z</time></trkpt><trkpt lat="41.109265953720005" lon="9.462051423730742"><ele>42.0</ele><time>2026-05-02T08:44:15Z</time></trkpt><trkpt lat="41.10920764022345" lon="9.46188091223045"><ele>43.25</ele><time>2026-05-02T08:44:16Z</time></trkpt><trkpt lat="41.10912367520834" lon="9.461721418876094"><ele>44.5</ele><time>2026-05-02T08:44:17Z</time></trkpt><trkpt lat="41.1090315867358" lon="9.461570397699441"><ele>45.75</ele><time>2026-05-02T08:44:18Z</time></trkpt><trkpt lat="41.108933033190084" lon="9.46141746307381"><ele>47.0</ele><time>2026-05-02T08:44:19Z</time></trkpt><trkpt lat="41.1088365085278" lon="9.461259694102372"><ele>48.0</ele><time>2026-05-02T08:44:20Z</time></trkpt><trkpt lat="41.10875426478199" lon="9.461075303038452"><ele>49.0</ele><time>2026-05-02T08:44:21Z</time></trkpt><trkpt lat="41.108645185226" lon="9.460919370328634"><ele>50.0</ele><time>2026-05-02T08:44:22Z</time></trkpt><trkpt lat="41.10855339209177" lon="9.460749642132694"><ele>50.0</ele><time>2026-05-02T08:44:23Z</time></trkpt><trkpt lat="41.108465725881665" lon="9.460594533246422"><ele>50.0</ele><time>2026-05-02T08:44:24Z</time></trkpt><trkpt lat="41.10839163098227" lon="9.460433027152245"><ele>50.0</ele><time>2026-05-02T08:44:25Z</time></trkpt><trkpt lat="41.108303259591985" lon="9.46027578456652"><ele>50.0</ele><time>2026-05-02T08:44:26Z</time></trkpt><trkpt lat="41.10821257475547" lon="9.460115594248888"><ele>51.0</ele><time>2026-05-02T08:44:27Z</time></trkpt><trkpt lat="41.1081204970165" lon="9.459953423376973"><ele>52.0</ele><time>2026-05-02T08:44:28Z</time></trkpt><trkpt lat="41.10802734704747" lon="9.459789364008937"><ele>53.0</ele><time>2026-05-02T08:44:29Z</time></trkpt><trkpt lat="41.107919293493126" lon="9.459633736353062"><ele>50.333333333333336</ele><time>2026-05-02T08:44:30Z</time></trkpt><trkpt lat="41.107824727822084" lon="9.459465398704127"><ele>47.66666666666667</ele><time>2026-05-02T08:44:31Z</time></trkpt><trkpt lat="41.107727436116924" lon="9.459289266488097"><ele>45.0</ele><time>2026-05-02T08:44:32Z</time></trkpt><trkpt lat="41.10763096696941" lon="9.459112195337951"><ele>45.0</ele><time>2026-05-02T08:44:33Z</time></trkpt><trkpt lat="41.10753001505558" lon="9.458940325247474"><ele>45.0</ele><time>2026-05-02T08:44:34Z</time></trkpt><trkpt lat="41.10741500995818" lon="9.458774652624998"><ele>45.0</ele><time>2026-05-02T08:44:35Z</time></trkpt><trkpt lat="41.10729732157648" lon="9.458612382958666"><ele>44.0</ele><time>2026-05-02T08:44:36Z</time></trkpt><trkpt lat="41.10716415004076" lon="9.458469077513938"><ele>43.0</ele><time>2026-05-02T08:44:37Z</time></trkpt><trkpt lat="41.10702713957054" lon="9.458323493388015"><ele>42.0</ele><time>2026-05-02T08:44:38Z</time></trkpt><trkpt lat="41.1068902249389" lon="9.4581783788461"><ele>42.0</ele><time>2026-05-02T08:44:39Z</time></trkpt><trkpt lat="41.10674717724611" lon="9.458044832120212"><ele>42.0</ele><time>2026-05-02T08:44:40Z</time></trkpt><trkpt lat="41.106630053278906" lon="9.45787798828618"><ele>42.0</ele><time>2026-05-02T08:44:41Z</time></trkpt><trkpt lat="41.106535812609884" lon="9.457689852349286"><ele>42.333333333333336</ele><time>2026-05-02T08:44:42Z</time></trkpt><trkpt lat="41.10641991118739" lon="9.457526527836833"><ele>42.66666666666667</ele><time>2026-05-02T08:44:43Z</time></trkpt><trkpt lat="41.10633100263747" lon="9.45734070301454"><ele>43.0</ele><time>2026-05-02T08:44:44Z</time></trkpt><trkpt lat="41.10621742235866" lon="9.457179405017252"><ele>40.333333333333336</ele><time>2026-05-02T08:44:45Z</time></trkpt><trkpt lat="41.10612104800964" lon="9.45700211590129"><ele>37.666666666666664</ele><time>2026-05-02T08:44:46Z</time></trkpt><trkpt lat="41.1059831262127" lon="9.456877391740672"><ele>35.0</ele><time>2026-05-02T08:44:47Z</time></trkpt><trkpt lat="41.105835925294095" lon="9.456770217016262"><ele>34.0</ele><time>2026-05-02T08:44:48Z</time></trkpt><trkpt lat="41.10567853428229" lon="9.456693439438531"><ele>33.0</ele><time>2026-05-02T08:44:49Z</time></trkpt><trkpt lat="41.10551821804405" lon="9.456626824560201"><ele>32.0</ele><time>2026-05-02T08:44:50Z</time></trkpt><trkpt lat="41.10534401910658" lon="9.456650986938843"><ele>32.0</ele><time>2026-05-02T08:44:51Z</time></trkpt><trkpt lat="41.10516921576462" lon="9.456660312744567"><ele>32.0</ele><time>2026-05-02T08:44:52Z</time></trkpt><trkpt lat="41.104995712810535" lon="9.45668919935985"><ele>32.0</ele><time>2026-05-02T08:44:53Z</time></trkpt><trkpt lat="41.10482362744156" lon="9.456717909096968"><ele>30.666666666666664</ele><time>2026-05-02T08:44:54Z</time></trkpt><trkpt lat="41.1046464723556" lon="9.45674754217973"><ele>29.333333333333336</ele><time>2026-05-02T08:44:55Z</time></trkpt><trkpt lat="41.10446894552177" lon="9.456777237423058"><ele>28.0</ele><time>2026-05-02T08:44:56Z</time></trkpt><trkpt lat="41.10428870573874" lon="9.456806781633334"><ele>28.0</ele><time>2026-05-02T08:44:57Z</time></trkpt><trkpt lat="41.10410916255917" lon="9.456836162915579"><ele>28.0</ele><time>2026-05-02T08:44:58Z</time></trkpt><trkpt lat="41.10392880104447" lon="9.456865109965612"><ele>28.0</ele><time>2026-05-02T08:44:59Z</time></trkpt><trkpt lat="41.103752751471255" lon="9.45691236860328"><ele>26.0</ele><time>2026-05-02T08:45:00Z</time></trkpt><trkpt lat="41.1035784311732" lon="9.456920661854134"><ele>24.0</ele><time>2026-05-02T08:45:01Z</time></trkpt><trkpt lat="41.103407110188826" lon="9.45689585038347"><ele>22.0</ele><time>2026-05-02T08:45:02Z</time></trkpt><trkpt lat="41.10324241836707" lon="9.456826415680197"><ele>21.0</ele><time>2026-05-02T08:45:03Z</time></trkpt><trkpt lat="41.10309399354432" lon="9.456707006770642"><ele>20.0</ele><time>2026-05-02T08:45:04Z</time></trkpt><trkpt lat="41.102946174847695" lon="9.456584943378472"><ele>19.0</ele><time>2026-05-02T08:45:05Z</time></trkpt><trkpt lat="41.10279824977941" lon="9.45646006324821"><ele>19.0</ele><time>2026-05-02T08:45:06Z</time></trkpt><trkpt lat="41.10264033065229" lon="9.45635238329277"><ele>19.0</ele><time>2026-05-02T08:45:07Z</time></trkpt><trkpt lat="41.10250157561492" lon="9.456210299694412"><ele>19.0</ele><time>2026-05-02T08:45:08Z</time></trkpt><trkpt lat="41.10235425579688" lon="9.45608459343891"><ele>17.0</ele><time>2026-05-02T08:45:09Z</time></trkpt><trkpt lat="41.1022049730067" lon="9.455956717347608"><ele>15.0</ele><time>2026-05-02T08:45:10Z</time></trkpt><trkpt lat="41.10204354503747" lon="9.455855114008333"><ele>13.0</ele><time>2026-05-02T08:45:11Z</time></trkpt><trkpt lat="41.10187286289209" lon="9.455777636866364"><ele>13.0</ele><time>2026-05-02T08:45:12Z</time></trkpt><trkpt lat="41.10168958792979" lon="9.455762709347054"><ele>13.0</ele><time>2026-05-02T08:45:13Z</time></trkpt><trkpt lat="41.101515781210274" lon="9.455742578934329"><ele>13.0</ele><time>2026-05-02T08:45:14Z</time></trkpt><trkpt lat="41.10134441599643" lon="9.455722731304848"><ele>13.333333333333332</ele><time>2026-05-02T08:45:15Z</time></trkpt><trkpt lat="41.10117111517538" lon="9.455702659487255"><ele>13.666666666666668</ele><time>2026-05-02T08:45:16Z</time></trkpt><trkpt lat="41.101000303487474" lon="9.455682875962504"><ele>14.0</ele><time>2026-05-02T08:45:17Z</time></trkpt><trkpt lat="41.10082821733767" lon="9.455662980963977"><ele>14.0</ele><time>2026-05-02T08:45:18Z</time></trkpt><trkpt lat="41.10064818155457" lon="9.455663135130468"><ele>14.0</ele><time>2026-05-02T08:45:19Z</time></trkpt><trkpt lat="41.10046771993564" lon="9.455621393786993"><ele>14.0</ele><time>2026-05-02T08:45:20Z</time></trkpt><trkpt lat="41.1002837288444" lon="9.455601003272816"><ele>14.0</ele><time>2026-05-02T08:45:21Z</time></trkpt><trkpt lat="41.10010782215121" lon="9.45557605413751"><ele>14.0</ele><time>2026-05-02T08:45:22Z</time></trkpt><trkpt lat="41.09994723090643" lon="9.455517216723555"><ele>14.0</ele><time>2026-05-02T08:45:23Z</time></trkpt><trkpt lat="41.09979342598845" lon="9.455416558755553"><ele>15.333333333333334</ele><time>2026-05-02T08:45:24Z</time></trkpt><trkpt lat="41.09965648159191" lon="9.455272814724744"><ele>16.666666666666668</ele><time>2026-05-02T08:45:25Z</time></trkpt><trkpt lat="41.09953583076965" lon="9.45509921534468"><ele>18.0</ele><time>2026-05-02T08:45:26Z</time></trkpt><trkpt lat="41.09941593683639" lon="9.45491513908413"><ele>18.0</ele><time>2026-05-02T08:45:27Z</time></trkpt><trkpt lat="41.099288498849724" lon="9.454742914755188"><ele>18.0</ele><time>2026-05-02T08:45:28Z</time></trkpt><trkpt lat="41.099170647234516" lon="9.454557683396494"><ele>18.0</ele><time>2026-05-02T08:45:29Z</time></trkpt><trkpt lat="41.09905002518233" lon="9.454376568913602"><ele>17.666666666666668</ele><time>2026-05-02T08:45:30Z</time></trkpt><trkpt lat="41.098933220468034" lon="9.454186877176511"><ele>17.333333333333336</ele><time>2026-05-02T08:45:31Z</time></trkpt><trkpt lat="41.09877780414087" lon="9.454049737784924"><ele>17.0</ele><time>2026-05-02T08:45:32Z</time></trkpt><trkpt lat="41.09861902346033" lon="9.453922269666709"><ele>17.0</ele><time>2026-05-02T08:45:33Z</time></trkpt><trkpt lat="41.09844900804433" lon="9.453828868173739"><ele>17.0</ele><time>2026-05-02T08:45:34Z</time></trkpt><trkpt lat="41.09826719920951" lon="9.453760158222167"><ele>17.0</ele><time>2026-05-02T08:45:35Z</time></trkpt><trkpt lat="41.0980817977089" lon="9.453711944272127"><ele>16.333333333333336</ele><time>2026-05-02T08:45:36Z</time></trkpt><trkpt lat="41.0979052116994" lon="9.453634756365469"><ele>15.666666666666668</ele><time>2026-05-02T08:45:37Z</time></trkpt><trkpt lat="41.09772154744694" lon="9.453570989816527"><ele>15.0</ele><time>2026-05-02T08:45:38Z</time></trkpt><trkpt lat="41.0975385713706" lon="9.45350746218999"><ele>15.666666666666668</ele><time>2026-05-02T08:45:39.001Z</time></trkpt><trkpt lat="41.09735436613724" lon="9.453443442067554"><ele>16.333333333333336</ele><time>2026-05-02T08:45:40.001Z</time></trkpt><trkpt lat="41.09717230868492" lon="9.453379267619535"><ele>17.0</ele><time>2026-05-02T08:45:41.001Z</time></trkpt><trkpt lat="41.09698592083035" lon="9.453314213118759"><ele>17.0</ele><time>2026-05-02T08:45:42.001Z</time></trkpt><trkpt lat="41.09679415469806" lon="9.453268009463473"><ele>17.0</ele><time>2026-05-02T08:45:43.001Z</time></trkpt><trkpt lat="41.09660781877927" lon="9.453200092384538"><ele>17.0</ele><time>2026-05-02T08:45:44.001Z</time></trkpt><trkpt lat="41.09641896998759" lon="9.453136241322783"><ele>17.333333333333336</ele><time>2026-05-02T08:45:45.001Z</time></trkpt><trkpt lat="41.0962291007343" lon="9.453072753534453"><ele>17.666666666666668</ele><time>2026-05-02T08:45:46.001Z</time></trkpt><trkpt lat="41.09603994272823" lon="9.453001542093611"><ele>18.0</ele><time>2026-05-02T08:45:47.001Z</time></trkpt><trkpt lat="41.09585072245557" lon="9.45293157298557"><ele>17.333333333333332</ele><time>2026-05-02T08:45:48.001Z</time></trkpt><trkpt lat="41.095665145381666" lon="9.452829889557215"><ele>16.666666666666664</ele><time>2026-05-02T08:45:49.001Z</time></trkpt><trkpt lat="41.09547258206116" lon="9.452745989920658"><ele>16.0</ele><time>2026-05-02T08:45:50.001Z</time></trkpt><trkpt lat="41.095286790369975" lon="9.452664974337127"><ele>16.0</ele><time>2026-05-02T08:45:51.001Z</time></trkpt><trkpt lat="41.09509701617775" lon="9.452580869628857"><ele>16.0</ele><time>2026-05-02T08:45:52.001Z</time></trkpt><trkpt lat="41.094904896653844" lon="9.452495725556354"><ele>16.0</ele><time>2026-05-02T08:45:53.001Z</time></trkpt><trkpt lat="41.09472025008309" lon="9.452413893360406"><ele>17.333333333333332</ele><time>2026-05-02T08:45:54.001Z</time></trkpt><trkpt lat="41.09453258594598" lon="9.452330723775002"><ele>18.666666666666668</ele><time>2026-05-02T08:45:55.001Z</time></trkpt><trkpt lat="41.094347553735915" lon="9.452248722188662"><ele>20.0</ele><time>2026-05-02T08:45:56.001Z</time></trkpt><trkpt lat="41.09416492455308" lon="9.452168525621744"><ele>18.666666666666668</ele><time>2026-05-02T08:45:57.001Z</time></trkpt><trkpt lat="41.09398699540766" lon="9.452089797464025"><ele>17.333333333333332</ele><time>2026-05-02T08:45:58.001Z</time></trkpt><trkpt lat="41.09380715356495" lon="9.45200989552422"><ele>16.0</ele><time>2026-05-02T08:45:59.001Z</time></trkpt><trkpt lat="41.09362220363545" lon="9.451951136226148"><ele>16.0</ele><time>2026-05-02T08:46:00.001Z</time></trkpt><trkpt lat="41.093443551284665" lon="9.451871807006661"><ele>16.0</ele><time>2026-05-02T08:46:01.001Z</time></trkpt><trkpt lat="41.09325960546932" lon="9.451811711233542"><ele>16.0</ele><time>2026-05-02T08:46:02.001Z</time></trkpt><trkpt lat="41.09307271424354" lon="9.451807537284964"><ele>16.333333333333332</ele><time>2026-05-02T08:46:03.001Z</time></trkpt><trkpt lat="41.092891031680004" lon="9.451865960618749"><ele>16.666666666666668</ele><time>2026-05-02T08:46:04.001Z</time></trkpt><trkpt lat="41.09271413043505" lon="9.451952661431719"><ele>17.0</ele><time>2026-05-02T08:46:05.001Z</time></trkpt><trkpt lat="41.09254977730542" lon="9.452051323525435"><ele>18.666666666666668</ele><time>2026-05-02T08:46:06.001Z</time></trkpt><trkpt lat="41.092385905041695" lon="9.452148573320885"><ele>20.333333333333332</ele><time>2026-05-02T08:46:07.001Z</time></trkpt><trkpt lat="41.09222712167384" lon="9.452252862994285"><ele>22.0</ele><time>2026-05-02T08:46:08.001Z</time></trkpt><trkpt lat="41.09207337093669" lon="9.452372639418913"><ele>22.0</ele><time>2026-05-02T08:46:09.001Z</time></trkpt><trkpt lat="41.09192899391609" lon="9.452504141320343"><ele>22.0</ele><time>2026-05-02T08:46:10.001Z</time></trkpt><trkpt lat="41.091798387194046" lon="9.452636610143296"><ele>22.0</ele><time>2026-05-02T08:46:11.001Z</time></trkpt><trkpt lat="41.091677511279386" lon="9.452768504718298"><ele>21.75</ele><time>2026-05-02T08:46:12.001Z</time></trkpt><trkpt lat="41.0915461476639" lon="9.452864575564691"><ele>21.5</ele><time>2026-05-02T08:46:13.001Z</time></trkpt><trkpt lat="41.09143369461145" lon="9.452980032821795"><ele>21.25</ele><time>2026-05-02T08:46:14.001Z</time></trkpt><trkpt lat="41.09133072499017" lon="9.453045843817316"><ele>21.0</ele><time>2026-05-02T08:46:15.001Z</time></trkpt><trkpt lat="41.091240739997545" lon="9.453062397872776"><ele>22.25</ele><time>2026-05-02T08:46:16.001Z</time></trkpt><trkpt lat="41.09114665112443" lon="9.453086053761107"><ele>23.5</ele><time>2026-05-02T08:46:17.001Z</time></trkpt><trkpt lat="41.09104282392641" lon="9.453103501380657"><ele>24.75</ele><time>2026-05-02T08:46:18.001Z</time></trkpt><trkpt lat="41.090920145897066" lon="9.45311748060472"><ele>26.0</ele><time>2026-05-02T08:46:19.001Z</time></trkpt><trkpt lat="41.09078692850535" lon="9.453148032392832"><ele>25.75</ele><time>2026-05-02T08:46:20.001Z</time></trkpt><trkpt lat="41.09064858099441" lon="9.453154576836814"><ele>25.5</ele><time>2026-05-02T08:46:21.001Z</time></trkpt><trkpt lat="41.090514576475705" lon="9.45316694543805"><ele>25.25</ele><time>2026-05-02T08:46:22.001Z</time></trkpt><trkpt lat="41.09038285289312" lon="9.453162416343762"><ele>25.0</ele><time>2026-05-02T08:46:23.001Z</time></trkpt><trkpt lat="41.09024690298138" lon="9.453194830527554"><ele>25.0</ele><time>2026-05-02T08:46:24.001Z</time></trkpt><trkpt lat="41.090112225271" lon="9.45318390628422"><ele>25.0</ele><time>2026-05-02T08:46:25.001Z</time></trkpt><trkpt lat="41.08997957130527" lon="9.453216598476233"><ele>25.0</ele><time>2026-05-02T08:46:26.001Z</time></trkpt><trkpt lat="41.08984297928231" lon="9.453225952006951"><ele>25.0</ele><time>2026-05-02T08:46:27.001Z</time></trkpt><trkpt lat="41.08971324060865" lon="9.45324535294948"><ele>23.75</ele><time>2026-05-02T08:46:28Z</time></trkpt><trkpt lat="41.08958646042028" lon="9.453285387920642"><ele>22.5</ele><time>2026-05-02T08:46:29Z</time></trkpt><trkpt lat="41.089464969518026" lon="9.453345736015944"><ele>21.25</ele><time>2026-05-02T08:46:30Z</time></trkpt><trkpt lat="41.089344761577145" lon="9.4534207369413"><ele>20.0</ele><time>2026-05-02T08:46:31Z</time></trkpt><trkpt lat="41.08921730830618" lon="9.45347508799198"><ele>20.0</ele><time>2026-05-02T08:46:32.001Z</time></trkpt><trkpt lat="41.08909702056876" lon="9.453546488487952"><ele>20.0</ele><time>2026-05-02T08:46:33Z</time></trkpt><trkpt lat="41.08897624153371" lon="9.45364134057024"><ele>20.0</ele><time>2026-05-02T08:46:34Z</time></trkpt><trkpt lat="41.08885481323012" lon="9.453707979090016"><ele>20.0</ele><time>2026-05-02T08:46:35Z</time></trkpt><trkpt lat="41.08872948591331" lon="9.453776680437482"><ele>19.75</ele><time>2026-05-02T08:46:36Z</time></trkpt><trkpt lat="41.08861895370106" lon="9.453851133593341"><ele>19.5</ele><time>2026-05-02T08:46:37Z</time></trkpt><trkpt lat="41.088504881018196" lon="9.453920653727051"><ele>19.25</ele><time>2026-05-02T08:46:38Z</time></trkpt><trkpt lat="41.08838045156206" lon="9.453970191764403"><ele>19.0</ele><time>2026-05-02T08:46:39Z</time></trkpt><trkpt lat="41.08824777962798" lon="9.453972959197722"><ele>19.5</ele><time>2026-05-02T08:46:40Z</time></trkpt><trkpt lat="41.088115840442" lon="9.453974940241823"><ele>20.0</ele><time>2026-05-02T08:46:41Z</time></trkpt><trkpt lat="41.08798669454733" lon="9.453952628433932"><ele>20.5</ele><time>2026-05-02T08:46:42Z</time></trkpt><trkpt lat="41.08785905087364" lon="9.453906993120853"><ele>21.0</ele><time>2026-05-02T08:46:43Z</time></trkpt><trkpt lat="41.08773853638983" lon="9.453840857407958"><ele>21.0</ele><time>2026-05-02T08:46:44Z</time></trkpt><trkpt lat="41.087621423386395" lon="9.453772086354286"><ele>21.0</ele><time>2026-05-02T08:46:45Z</time></trkpt><trkpt lat="41.08749045258007" lon="9.453705381732973"><ele>21.0</ele><time>2026-05-02T08:46:46Z</time></trkpt><trkpt lat="41.087364614133534" lon="9.453622107256585"><ele>21.0</ele><time>2026-05-02T08:46:47Z</time></trkpt><trkpt lat="41.08723482696567" lon="9.453539536031915"><ele>21.0</ele><time>2026-05-02T08:46:48Z</time></trkpt><trkpt lat="41.08710150188385" lon="9.453458793380742"><ele>21.0</ele><time>2026-05-02T08:46:49Z</time></trkpt><trkpt lat="41.086973433238136" lon="9.453377893961873"><ele>21.0</ele><time>2026-05-02T08:46:50Z</time></trkpt><trkpt lat="41.086853636328584" lon="9.45331063065052"><ele>21.0</ele><time>2026-05-02T08:46:51Z</time></trkpt><trkpt lat="41.08674098373915" lon="9.45326152193853"><ele>21.0</ele><time>2026-05-02T08:46:52Z</time></trkpt><trkpt lat="41.08662507231508" lon="9.453227934761541"><ele>21.0</ele><time>2026-05-02T08:46:53Z</time></trkpt><trkpt lat="41.086503657389464" lon="9.453219886032317"><ele>21.0</ele><time>2026-05-02T08:46:54Z</time></trkpt><trkpt lat="41.08637420615127" lon="9.453235607357387"><ele>21.0</ele><time>2026-05-02T08:46:55Z</time></trkpt><trkpt lat="41.086243556349125" lon="9.453279894280238"><ele>21.0</ele><time>2026-05-02T08:46:56Z</time></trkpt><trkpt lat="41.086111292965754" lon="9.45334085327408"><ele>21.0</ele><time>2026-05-02T08:46:57Z</time></trkpt><trkpt lat="41.08598555162184" lon="9.453416463965112"><ele>21.0</ele><time>2026-05-02T08:46:58Z</time></trkpt><trkpt lat="41.085874891815294" lon="9.453495370229962"><ele>21.0</ele><time>2026-05-02T08:46:59Z</time></trkpt><trkpt lat="41.08577334755595" lon="9.453594114153434"><ele>20.25</ele><time>2026-05-02T08:47:00Z</time></trkpt><trkpt lat="41.085680242348616" lon="9.45370999465605"><ele>19.5</ele><time>2026-05-02T08:47:01Z</time></trkpt><trkpt lat="41.08560863510009" lon="9.453840031459409"><ele>18.75</ele><time>2026-05-02T08:47:02Z</time></trkpt><trkpt lat="41.08555561966637" lon="9.453969048244435"><ele>18.0</ele><time>2026-05-02T08:47:03Z</time></trkpt><trkpt lat="41.08551122996117" lon="9.45409589440323"><ele>18.0</ele><time>2026-05-02T08:47:04Z</time></trkpt><trkpt lat="41.08547044595855" lon="9.454215832973059"><ele>18.0</ele><time>2026-05-02T08:47:05Z</time></trkpt><trkpt lat="41.085413413198765" lon="9.454307844353115"><ele>18.0</ele><time>2026-05-02T08:47:06Z</time></trkpt><trkpt lat="41.085328801786964" lon="9.454338722494628"><ele>18.0</ele><time>2026-05-02T08:47:07Z</time></trkpt><trkpt lat="41.08523151711211" lon="9.454297199925563"><ele>18.0</ele><time>2026-05-02T08:47:08Z</time></trkpt><trkpt lat="41.08514453935317" lon="9.454186350101784"><ele>18.0</ele><time>2026-05-02T08:47:09Z</time></trkpt><trkpt lat="41.08503090271857" lon="9.454110203079766"><ele>18.0</ele><time>2026-05-02T08:47:10Z</time></trkpt><trkpt lat="41.084912161218455" lon="9.454017791541792"><ele>18.0</ele><time>2026-05-02T08:47:11Z</time></trkpt><trkpt lat="41.084781003086974" lon="9.453918172107656"><ele>18.0</ele><time>2026-05-02T08:47:12Z</time></trkpt><trkpt lat="41.0846556505011" lon="9.453794039550697"><ele>16.75</ele><time>2026-05-02T08:47:13Z</time></trkpt><trkpt lat="41.08452920050331" lon="9.453694318848697"><ele>15.5</ele><time>2026-05-02T08:47:14Z</time></trkpt><trkpt lat="41.084409000365106" lon="9.453599564089897"><ele>14.25</ele><time>2026-05-02T08:47:15Z</time></trkpt><trkpt lat="41.084278312964244" lon="9.453517186702726"><ele>13.0</ele><time>2026-05-02T08:47:16Z</time></trkpt><trkpt lat="41.08416040651727" lon="9.453397316279322"><ele>12.0</ele><time>2026-05-02T08:47:17Z</time></trkpt><trkpt lat="41.084037351127805" lon="9.453287556786329"><ele>11.0</ele><time>2026-05-02T08:47:18Z</time></trkpt><trkpt lat="41.08392694964382" lon="9.45315484344976"><ele>10.0</ele><time>2026-05-02T08:47:19Z</time></trkpt><trkpt lat="41.083832394256476" lon="9.453007985750132"><ele>9.0</ele><time>2026-05-02T08:47:20Z</time></trkpt><trkpt lat="41.0837459677942" lon="9.452849923807117"><ele>9.0</ele><time>2026-05-02T08:47:21Z</time></trkpt><trkpt lat="41.0836678445531" lon="9.452687179059438"><ele>9.0</ele><time>2026-05-02T08:47:22Z</time></trkpt><trkpt lat="41.083597369394724" lon="9.452514182494628"><ele>9.0</ele><time>2026-05-02T08:47:23Z</time></trkpt><trkpt lat="41.08353448565247" lon="9.452338452777015"><ele>9.0</ele><time>2026-05-02T08:47:24Z</time></trkpt><trkpt lat="41.08345987515621" lon="9.452170961631104"><ele>8.25</ele><time>2026-05-02T08:47:25Z</time></trkpt><trkpt lat="41.08340280456548" lon="9.451995444242629"><ele>7.5</ele><time>2026-05-02T08:47:26Z</time></trkpt><trkpt lat="41.0833472294806" lon="9.451821778081927"><ele>6.75</ele><time>2026-05-02T08:47:27Z</time></trkpt><trkpt lat="41.08328897944766" lon="9.451646872968391"><ele>6.0</ele><time>2026-05-02T08:47:28Z</time></trkpt><trkpt lat="41.0832283939319" lon="9.451473311962756"><ele>5.25</ele><time>2026-05-02T08:47:29Z</time></trkpt><trkpt lat="41.083184388396354" lon="9.451290388359325"><ele>4.5</ele><time>2026-05-02T08:47:30Z</time></trkpt><trkpt lat="41.083110132166645" lon="9.451116749036382"><ele>3.75</ele><time>2026-05-02T08:47:31Z</time></trkpt><trkpt lat="41.083065620816924" lon="9.450939695853647"><ele>3.0</ele><time>2026-05-02T08:47:32Z</time></trkpt><trkpt lat="41.08300599050853" lon="9.450763621686264"><ele>3.0</ele><time>2026-05-02T08:47:33Z</time></trkpt><trkpt lat="41.082946499440425" lon="9.450587162707306"><ele>3.0</ele><time>2026-05-02T08:47:34Z</time></trkpt><trkpt lat="41.08288696001886" lon="9.45041051830097"><ele>3.0</ele><time>2026-05-02T08:47:35Z</time></trkpt><trkpt lat="41.08281286588741" lon="9.450242365663339"><ele>3.0</ele><time>2026-05-02T08:47:36Z</time></trkpt><trkpt lat="41.08277046480167" lon="9.450056239961729"><ele>3.0</ele><time>2026-05-02T08:47:37Z</time></trkpt><trkpt lat="41.0827185509126" lon="9.449873479102285"><ele>3.0</ele><time>2026-05-02T08:47:38Z</time></trkpt><trkpt lat="41.08266112574232" lon="9.449681254468494"><ele>3.0</ele><time>2026-05-02T08:47:39Z</time></trkpt><trkpt lat="41.082636875657386" lon="9.449468469195898"><ele>2.6666666666666665</ele><time>2026-05-02T08:47:40Z</time></trkpt><trkpt lat="41.08262611431405" lon="9.449253819711505"><ele>2.333333333333333</ele><time>2026-05-02T08:47:41Z</time></trkpt><trkpt lat="41.08261954126847" lon="9.449038660011741"><ele>2.0</ele><time>2026-05-02T08:47:42Z</time></trkpt><trkpt lat="41.082627060226265" lon="9.448819749007823"><ele>2.0</ele><time>2026-05-02T08:47:43Z</time></trkpt><trkpt lat="41.08261679373268" lon="9.44860872989338"><ele>2.0</ele><time>2026-05-02T08:47:44Z</time></trkpt><trkpt lat="41.082609158320125" lon="9.448404068093517"><ele>2.0</ele><time>2026-05-02T08:47:45.001Z</time></trkpt><trkpt lat="41.08261751264477" lon="9.448205902983899"><ele>2.0</ele><time>2026-05-02T08:47:46.001Z</time></trkpt><trkpt lat="41.08265876928003" lon="9.448024875200094"><ele>2.0</ele><time>2026-05-02T08:47:47.001Z</time></trkpt><trkpt lat="41.082734922902404" lon="9.447836645935691"><ele>2.0</ele><time>2026-05-02T08:47:48.001Z</time></trkpt><trkpt lat="41.08281675957548" lon="9.447652634167737"><ele>2.0</ele><time>2026-05-02T08:47:49.001Z</time></trkpt><trkpt lat="41.08289394085831" lon="9.447450986552443"><ele>2.0</ele><time>2026-05-02T08:47:50.001Z</time></trkpt><trkpt lat="41.082986560570674" lon="9.44726315074583"><ele>2.0</ele><time>2026-05-02T08:47:51.001Z</time></trkpt><trkpt lat="41.08306709635899" lon="9.447062726700578"><ele>2.0</ele><time>2026-05-02T08:47:52.001Z</time></trkpt><trkpt lat="41.08312463734804" lon="9.446856502836072"><ele>2.0</ele><time>2026-05-02T08:47:53.001Z</time></trkpt><trkpt lat="41.0831479775753" lon="9.446641178790836"><ele>2.0</ele><time>2026-05-02T08:47:54.001Z</time></trkpt><trkpt lat="41.08314979000836" lon="9.44641680316199"><ele>2.6666666666666665</ele><time>2026-05-02T08:47:55.001Z</time></trkpt><trkpt lat="41.08313230518609" lon="9.446190402263102"><ele>3.333333333333333</ele><time>2026-05-02T08:47:56.001Z</time></trkpt><trkpt lat="41.08311477012193" lon="9.445966132009818"><ele>4.0</ele><time>2026-05-02T08:47:57.001Z</time></trkpt><trkpt lat="41.083105564013565" lon="9.445742150109735"><ele>4.0</ele><time>2026-05-02T08:47:58.001Z</time></trkpt><trkpt lat="41.083095339939184" lon="9.44551860454118"><ele>4.0</ele><time>2026-05-02T08:47:59.001Z</time></trkpt><trkpt lat="41.08308550284781" lon="9.445291054799734"><ele>4.0</ele><time>2026-05-02T08:48:00.001Z</time></trkpt><trkpt lat="41.083076755623374" lon="9.445062212526992"><ele>4.0</ele><time>2026-05-02T08:48:01.001Z</time></trkpt><trkpt lat="41.08306718181866" lon="9.444834926328955"><ele>4.0</ele><time>2026-05-02T08:48:02.001Z</time></trkpt><trkpt lat="41.083053130371226" lon="9.444608842645875"><ele>4.0</ele><time>2026-05-02T08:48:03.001Z</time></trkpt><trkpt lat="41.08306072666048" lon="9.444381781259667"><ele>3.333333333333333</ele><time>2026-05-02T08:48:04.001Z</time></trkpt><trkpt lat="41.08305688326666" lon="9.44415567186247"><ele>2.6666666666666665</ele><time>2026-05-02T08:48:05.001Z</time></trkpt><trkpt lat="41.08306827639629" lon="9.443936866765267"><ele>2.0</ele><time>2026-05-02T08:48:06.001Z</time></trkpt><trkpt lat="41.08310411628079" lon="9.44372216772417"><ele>2.0</ele><time>2026-05-02T08:48:07.001Z</time></trkpt><trkpt lat="41.0831650621186" lon="9.44351673297923"><ele>2.0</ele><time>2026-05-02T08:48:08.001Z</time></trkpt><trkpt lat="41.08325375626089" lon="9.443333034834335"><ele>2.0</ele><time>2026-05-02T08:48:09.001Z</time></trkpt><trkpt lat="41.083361965861776" lon="9.44316926941578"><ele>2.0</ele><time>2026-05-02T08:48:10.001Z</time></trkpt><trkpt lat="41.08348386112715" lon="9.443017511220141"><ele>2.0</ele><time>2026-05-02T08:48:11.001Z</time></trkpt><trkpt lat="41.08359970617742" lon="9.442858028909026"><ele>2.0</ele><time>2026-05-02T08:48:12.001Z</time></trkpt><trkpt lat="41.08372191700776" lon="9.442712786943709"><ele>2.0</ele><time>2026-05-02T08:48:13.001Z</time></trkpt><trkpt lat="41.083841647629264" lon="9.442572616466022"><ele>2.0</ele><time>2026-05-02T08:48:14.001Z</time></trkpt><trkpt lat="41.083955423522454" lon="9.442444762166927"><ele>2.0</ele><time>2026-05-02T08:48:15.001Z</time></trkpt><trkpt lat="41.08406240960142" lon="9.442306553000046"><ele>2.6666666666666665</ele><time>2026-05-02T08:48:16.001Z</time></trkpt><trkpt lat="41.084159492374084" lon="9.442138908383573"><ele>3.333333333333333</ele><time>2026-05-02T08:48:17.001Z</time></trkpt><trkpt lat="41.08422790769336" lon="9.44195601102683"><ele>4.0</ele><time>2026-05-02T08:48:18.001Z</time></trkpt><trkpt lat="41.08427301150751" lon="9.441755915023855"><ele>4.0</ele><time>2026-05-02T08:48:19.001Z</time></trkpt><trkpt lat="41.084286975786384" lon="9.441543343249295"><ele>4.0</ele><time>2026-05-02T08:48:20.001Z</time></trkpt><trkpt lat="41.08428962047529" lon="9.441322038908067"><ele>4.0</ele><time>2026-05-02T08:48:21.001Z</time></trkpt><trkpt lat="41.08428914172476" lon="9.441099098248612"><ele>4.0</ele><time>2026-05-02T08:48:22.001Z</time></trkpt><trkpt lat="41.08431076976834" lon="9.440878381960296"><ele>4.0</ele><time>2026-05-02T08:48:23.001Z</time></trkpt><trkpt lat="41.08431847285657" lon="9.440653693664318"><ele>4.0</ele><time>2026-05-02T08:48:24.001Z</time></trkpt><trkpt lat="41.08432770006013" lon="9.44042789274858"><ele>4.666666666666666</ele><time>2026-05-02T08:48:25.001Z</time></trkpt><trkpt lat="41.08434099369024" lon="9.440201605155687"><ele>5.333333333333333</ele><time>2026-05-02T08:48:26Z</time></trkpt><trkpt lat="41.08436003437372" lon="9.439968897299963"><ele>6.0</ele><time>2026-05-02T08:48:27Z</time></trkpt><trkpt lat="41.08438055043661" lon="9.439737816042948"><ele>6.0</ele><time>2026-05-02T08:48:28Z</time></trkpt><trkpt lat="41.08440211905877" lon="9.439503870590464"><ele>6.0</ele><time>2026-05-02T08:48:29Z</time></trkpt><trkpt lat="41.08442377061442" lon="9.439269025609006"><ele>6.0</ele><time>2026-05-02T08:48:30Z</time></trkpt><trkpt lat="41.08444527475808" lon="9.439035779523927"><ele>6.0</ele><time>2026-05-02T08:48:31Z</time></trkpt><trkpt lat="41.0844657993371" lon="9.438813158349692"><ele>6.0</ele><time>2026-05-02T08:48:32Z</time></trkpt><trkpt lat="41.084487053409404" lon="9.438582624684338"><ele>6.0</ele><time>2026-05-02T08:48:33Z</time></trkpt><trkpt lat="41.084508025315984" lon="9.438355151528043"><ele>6.333333333333334</ele><time>2026-05-02T08:48:34Z</time></trkpt><trkpt lat="41.084529087573955" lon="9.438126698385124"><ele>6.666666666666667</ele><time>2026-05-02T08:48:35Z</time></trkpt><trkpt lat="41.08453354877173" lon="9.437898205928018"><ele>7.0</ele><time>2026-05-02T08:48:36Z</time></trkpt><trkpt lat="41.084556338465546" lon="9.43767312909975"><ele>7.333333333333334</ele><time>2026-05-02T08:48:37Z</time></trkpt><trkpt lat="41.08457671626563" lon="9.437442396719394"><ele>7.666666666666666</ele><time>2026-05-02T08:48:38Z</time></trkpt><trkpt lat="41.08459603677634" lon="9.437213024243567"><ele>8.0</ele><time>2026-05-02T08:48:39Z</time></trkpt><trkpt lat="41.084615722907095" lon="9.43698771156984"><ele>8.0</ele><time>2026-05-02T08:48:40Z</time></trkpt><trkpt lat="41.084652256294504" lon="9.436761796828048"><ele>8.0</ele><time>2026-05-02T08:48:41Z</time></trkpt><trkpt lat="41.084672475258415" lon="9.436536189167866"><ele>8.0</ele><time>2026-05-02T08:48:42Z</time></trkpt><trkpt lat="41.08469274447323" lon="9.436308901359864"><ele>8.333333333333332</ele><time>2026-05-02T08:48:43Z</time></trkpt><trkpt lat="41.084712504716485" lon="9.43608301578906"><ele>8.666666666666666</ele><time>2026-05-02T08:48:44Z</time></trkpt><trkpt lat="41.08471650829583" lon="9.435855092230721"><ele>9.0</ele><time>2026-05-02T08:48:45Z</time></trkpt><trkpt lat="41.084737793306076" lon="9.43563262240087"><ele>9.666666666666666</ele><time>2026-05-02T08:48:46Z</time></trkpt><trkpt lat="41.08475696778307" lon="9.435406650713093"><ele>10.333333333333332</ele><time>2026-05-02T08:48:47Z</time></trkpt><trkpt lat="41.08477552436732" lon="9.435195234674644"><ele>11.0</ele><time>2026-05-02T08:48:48Z</time></trkpt><trkpt lat="41.08479404220275" lon="9.43500165992217"><ele>11.0</ele><time>2026-05-02T08:48:49Z</time></trkpt><trkpt lat="41.084812927047125" lon="9.43482026665593"><ele>11.0</ele><time>2026-05-02T08:48:50Z</time></trkpt><trkpt lat="41.08483710234633" lon="9.434651764123085"><ele>11.0</ele><time>2026-05-02T08:48:51Z</time></trkpt><trkpt lat="41.0848605864443" lon="9.434501405862916"><ele>11.0</ele><time>2026-05-02T08:48:52Z</time></trkpt><trkpt lat="41.08487972551028" lon="9.434370305725293"><ele>11.4</ele><time>2026-05-02T08:48:53Z</time></trkpt><trkpt lat="41.084893582165435" lon="9.434263413079796"><ele>11.8</ele><time>2026-05-02T08:48:54Z</time></trkpt><trkpt lat="41.084895692510976" lon="9.434172269511881"><ele>12.200000000000001</ele><time>2026-05-02T08:48:56Z</time></trkpt><trkpt lat="41.084716417182364" lon="9.434115014469347"><ele>12.600000000000001</ele><time>2026-05-02T08:48:59Z</time></trkpt><trkpt lat="41.08464613015697" lon="9.434116681398516"><ele>13.0</ele><time>2026-05-02T08:49:00Z</time></trkpt><trkpt lat="41.08457589697243" lon="9.434107747609845"><ele>12.999999999999998</ele><time>2026-05-02T08:49:01Z</time></trkpt><trkpt lat="41.08450403042264" lon="9.434092699732453"><ele>13.0</ele><time>2026-05-02T08:49:02Z</time></trkpt><trkpt lat="41.08443540123269" lon="9.434075725848174"><ele>13.0</ele><time>2026-05-02T08:49:03Z</time></trkpt><trkpt lat="41.084366217938545" lon="9.434056022719274"><ele>13.0</ele><time>2026-05-02T08:49:04Z</time></trkpt><trkpt lat="41.08429710131194" lon="9.434032427017636"><ele>12.999999999999998</ele><time>2026-05-02T08:49:05Z</time></trkpt><trkpt lat="41.0842274082141" lon="9.433997326284958"><ele>13.0</ele><time>2026-05-02T08:49:06Z</time></trkpt><trkpt lat="41.0841433363889" lon="9.433950986351068"><ele>13.0</ele><time>2026-05-02T08:49:07Z</time></trkpt><trkpt lat="41.084054836595165" lon="9.433889420141142"><ele>13.0</ele><time>2026-05-02T08:49:08Z</time></trkpt><trkpt lat="41.08396249214489" lon="9.433822146679471"><ele>13.0</ele><time>2026-05-02T08:49:09Z</time></trkpt><trkpt lat="41.083863488883466" lon="9.433741347476792"><ele>13.0</ele><time>2026-05-02T08:49:10Z</time></trkpt><trkpt lat="41.08376030684464" lon="9.433657217162631"><ele>13.0</ele><time>2026-05-02T08:49:11Z</time></trkpt><trkpt lat="41.08365947084561" lon="9.433570994415607"><ele>13.0</ele><time>2026-05-02T08:49:12Z</time></trkpt><trkpt lat="41.08356157742971" lon="9.43348505138654"><ele>13.0</ele><time>2026-05-02T08:49:13Z</time></trkpt><trkpt lat="41.08345989056017" lon="9.43340042481217"><ele>13.0</ele><time>2026-05-02T08:49:14Z</time></trkpt><trkpt lat="41.08335252102454" lon="9.43331238648471"><ele>13.0</ele><time>2026-05-02T08:49:15Z</time></trkpt><trkpt lat="41.08323488153581" lon="9.43321684443684"><ele>13.25</ele><time>2026-05-02T08:49:16Z</time></trkpt><trkpt lat="41.0831153901939" lon="9.433116488475727"><ele>13.5</ele><time>2026-05-02T08:49:17Z</time></trkpt><trkpt lat="41.08299116965929" lon="9.433012418239791"><ele>13.75</ele><time>2026-05-02T08:49:18Z</time></trkpt><trkpt lat="41.082864697004425" lon="9.432904719272832"><ele>14.0</ele><time>2026-05-02T08:49:19Z</time></trkpt><trkpt lat="41.082733336132314" lon="9.432797125343107"><ele>14.0</ele><time>2026-05-02T08:49:20Z</time></trkpt><trkpt lat="41.082600032913405" lon="9.43268805188801"><ele>14.0</ele><time>2026-05-02T08:49:21Z</time></trkpt><trkpt lat="41.08247226143178" lon="9.432585430870803"><ele>14.0</ele><time>2026-05-02T08:49:22Z</time></trkpt><trkpt lat="41.08234159019809" lon="9.432483731932122"><ele>14.0</ele><time>2026-05-02T08:49:23Z</time></trkpt><trkpt lat="41.082208681489966" lon="9.43238600343596"><ele>14.0</ele><time>2026-05-02T08:49:24Z</time></trkpt><trkpt lat="41.082072613727924" lon="9.43229504232104"><ele>14.0</ele><time>2026-05-02T08:49:25Z</time></trkpt><trkpt lat="41.08193443303101" lon="9.432205810115526"><ele>15.333333333333334</ele><time>2026-05-02T08:49:26Z</time></trkpt><trkpt lat="41.081793920507984" lon="9.432119506502625"><ele>16.666666666666668</ele><time>2026-05-02T08:49:27Z</time></trkpt><trkpt lat="41.08165352912702" lon="9.432039773296925"><ele>18.0</ele><time>2026-05-02T08:49:28Z</time></trkpt><trkpt lat="41.08150814538107" lon="9.431963250178626"><ele>18.0</ele><time>2026-05-02T08:49:29Z</time></trkpt><trkpt lat="41.08136113828322" lon="9.4318878883024"><ele>18.0</ele><time>2026-05-02T08:49:30Z</time></trkpt><trkpt lat="41.08121762352093" lon="9.431812840026208"><ele>18.0</ele><time>2026-05-02T08:49:31Z</time></trkpt><trkpt lat="41.08106930955632" lon="9.431734651803438"><ele>18.0</ele><time>2026-05-02T08:49:32Z</time></trkpt><trkpt lat="41.080922797887744" lon="9.43165790950045"><ele>18.0</ele><time>2026-05-02T08:49:33Z</time></trkpt><trkpt lat="41.08077305134245" lon="9.43157811429865"><ele>18.0</ele><time>2026-05-02T08:49:34Z</time></trkpt><trkpt lat="41.080625108005826" lon="9.4315001175306"><ele>17.0</ele><time>2026-05-02T08:49:35Z</time></trkpt><trkpt lat="41.08047089372062" lon="9.431423067257922"><ele>16.0</ele><time>2026-05-02T08:49:36Z</time></trkpt><trkpt lat="41.08031584526257" lon="9.43134766708088"><ele>15.0</ele><time>2026-05-02T08:49:37Z</time></trkpt><trkpt lat="41.080159075026906" lon="9.431280234002251"><ele>16.0</ele><time>2026-05-02T08:49:38Z</time></trkpt><trkpt lat="41.080000476381315" lon="9.431226614394243"><ele>17.0</ele><time>2026-05-02T08:49:39Z</time></trkpt><trkpt lat="41.07983902779869" lon="9.431161296970567"><ele>18.0</ele><time>2026-05-02T08:49:40Z</time></trkpt><trkpt lat="41.07967457669909" lon="9.43111935434873"><ele>18.0</ele><time>2026-05-02T08:49:41Z</time></trkpt><trkpt lat="41.07950532684909" lon="9.431097892836512"><ele>18.0</ele><time>2026-05-02T08:49:42Z</time></trkpt><trkpt lat="41.07933789776964" lon="9.431057770842784"><ele>18.0</ele><time>2026-05-02T08:49:43Z</time></trkpt><trkpt lat="41.07917143046187" lon="9.43102216799144"><ele>17.0</ele><time>2026-05-02T08:49:44Z</time></trkpt><trkpt lat="41.07900206514637" lon="9.43098716880662"><ele>16.0</ele><time>2026-05-02T08:49:45Z</time></trkpt><trkpt lat="41.078834596272245" lon="9.430949795718629"><ele>15.0</ele><time>2026-05-02T08:49:46Z</time></trkpt><trkpt lat="41.078664925519185" lon="9.43090979341796"><ele>15.0</ele><time>2026-05-02T08:49:47Z</time></trkpt><trkpt lat="41.07849601777463" lon="9.430863747669944"><ele>15.0</ele><time>2026-05-02T08:49:48Z</time></trkpt><trkpt lat="41.078327616336956" lon="9.430804636400829"><ele>15.0</ele><time>2026-05-02T08:49:49Z</time></trkpt><trkpt lat="41.07816629532645" lon="9.430725105264786"><ele>15.333333333333332</ele><time>2026-05-02T08:49:50Z</time></trkpt><trkpt lat="41.07799926585127" lon="9.430630151415498"><ele>15.666666666666666</ele><time>2026-05-02T08:49:51Z</time></trkpt><trkpt lat="41.07783200854521" lon="9.430527678904319"><ele>16.0</ele><time>2026-05-02T08:49:52Z</time></trkpt><trkpt lat="41.0776596499157" lon="9.430409506748141"><ele>16.0</ele><time>2026-05-02T08:49:53Z</time></trkpt><trkpt lat="41.07748689986942" lon="9.430294332228943"><ele>16.0</ele><time>2026-05-02T08:49:54Z</time></trkpt><trkpt lat="41.07731843925589" lon="9.430185624086462"><ele>16.0</ele><time>2026-05-02T08:49:55Z</time></trkpt><trkpt lat="41.07714529397464" lon="9.430076378528861"><ele>14.5</ele><time>2026-05-02T08:49:56Z</time></trkpt><trkpt lat="41.07680809156818" lon="9.42985904336702"><ele>13.0</ele><time>2026-05-02T08:49:58Z</time></trkpt><trkpt lat="41.07664328860476" lon="9.429748548439992"><ele>13.0</ele><time>2026-05-02T08:49:59Z</time></trkpt><trkpt lat="41.07648053789638" lon="9.42962668839156"><ele>13.0</ele><time>2026-05-02T08:50:00Z</time></trkpt><trkpt lat="41.076320505778234" lon="9.429483144012597"><ele>13.0</ele><time>2026-05-02T08:50:01Z</time></trkpt><trkpt lat="41.07617456461534" lon="9.429300437894515"><ele>13.0</ele><time>2026-05-02T08:50:02Z</time></trkpt><trkpt lat="41.0760126365194" lon="9.429137376381178"><ele>13.0</ele><time>2026-05-02T08:50:03Z</time></trkpt><trkpt lat="41.07586596222867" lon="9.428950941494143"><ele>13.0</ele><time>2026-05-02T08:50:04Z</time></trkpt><trkpt lat="41.07571483621755" lon="9.428766836064712"><ele>13.333333333333332</ele><time>2026-05-02T08:50:05Z</time></trkpt><trkpt lat="41.07555929278534" lon="9.428583644271733"><ele>13.666666666666668</ele><time>2026-05-02T08:50:06Z</time></trkpt><trkpt lat="41.07540069392705" lon="9.428399769125368"><ele>14.0</ele><time>2026-05-02T08:50:07Z</time></trkpt><trkpt lat="41.0752431507299" lon="9.428214785433859"><ele>14.0</ele><time>2026-05-02T08:50:08Z</time></trkpt><trkpt lat="41.07508417479238" lon="9.42802958078849"><ele>14.0</ele><time>2026-05-02T08:50:09Z</time></trkpt><trkpt lat="41.07492203545994" lon="9.427851225463924"><ele>14.0</ele><time>2026-05-02T08:50:10Z</time></trkpt><trkpt lat="41.074756949362786" lon="9.427678997668817"><ele>13.333333333333334</ele><time>2026-05-02T08:50:11Z</time></trkpt><trkpt lat="41.07459178149926" lon="9.427513660155327"><ele>12.666666666666668</ele><time>2026-05-02T08:50:12Z</time></trkpt><trkpt lat="41.07442410504095" lon="9.427348331178043"><ele>12.0</ele><time>2026-05-02T08:50:13Z</time></trkpt><trkpt lat="41.0742584867305" lon="9.427190735642823"><ele>11.0</ele><time>2026-05-02T08:50:14Z</time></trkpt><trkpt lat="41.074099340726455" lon="9.427035469663712"><ele>10.0</ele><time>2026-05-02T08:50:15Z</time></trkpt><trkpt lat="41.073936523115094" lon="9.426877336686623"><ele>9.0</ele><time>2026-05-02T08:50:16Z</time></trkpt><trkpt lat="41.07377470840016" lon="9.426716529729365"><ele>9.0</ele><time>2026-05-02T08:50:17Z</time></trkpt><trkpt lat="41.073615928663635" lon="9.426550019530092"><ele>9.0</ele><time>2026-05-02T08:50:18Z</time></trkpt><trkpt lat="41.073464574886586" lon="9.426356316605267"><ele>9.0</ele><time>2026-05-02T08:50:19Z</time></trkpt><trkpt lat="41.07332484739165" lon="9.426174513382087"><ele>8.666666666666666</ele><time>2026-05-02T08:50:20Z</time></trkpt><trkpt lat="41.07317707514147" lon="9.426000632817102"><ele>8.333333333333332</ele><time>2026-05-02T08:50:21Z</time></trkpt><trkpt lat="41.073042727488165" lon="9.425801482843582"><ele>8.0</ele><time>2026-05-02T08:50:22Z</time></trkpt><trkpt lat="41.072914524324155" lon="9.42559601666159"><ele>9.333333333333332</ele><time>2026-05-02T08:50:23Z</time></trkpt><trkpt lat="41.072799355576265" lon="9.425386317271544"><ele>10.666666666666666</ele><time>2026-05-02T08:50:24Z</time></trkpt><trkpt lat="41.07270623480294" lon="9.42515399746293"><ele>12.0</ele><time>2026-05-02T08:50:25Z</time></trkpt><trkpt lat="41.07260569595527" lon="9.424931064494968"><ele>12.0</ele><time>2026-05-02T08:50:26Z</time></trkpt><trkpt lat="41.07250525249413" lon="9.424706021147538"><ele>12.0</ele><time>2026-05-02T08:50:27Z</time></trkpt><trkpt lat="41.072394784376776" lon="9.424491692855918"><ele>12.0</ele><time>2026-05-02T08:50:28Z</time></trkpt><trkpt lat="41.072297722189376" lon="9.424268148415399"><ele>11.333333333333334</ele><time>2026-05-02T08:50:29Z</time></trkpt><trkpt lat="41.07219855081692" lon="9.424047762927522"><ele>10.666666666666668</ele><time>2026-05-02T08:50:30Z</time></trkpt><trkpt lat="41.07209915909472" lon="9.423827649385364"><ele>10.0</ele><time>2026-05-02T08:50:31Z</time></trkpt><trkpt lat="41.07199662376601" lon="9.423603278138396"><ele>11.666666666666668</ele><time>2026-05-02T08:50:32Z</time></trkpt><trkpt lat="41.071901980789306" lon="9.42338194236271"><ele>13.333333333333334</ele><time>2026-05-02T08:50:33Z</time></trkpt><trkpt lat="41.07180527288852" lon="9.423161209335863"><ele>15.0</ele><time>2026-05-02T08:50:34Z</time></trkpt><trkpt lat="41.07170375192632" lon="9.422941733651179"><ele>15.0</ele><time>2026-05-02T08:50:35Z</time></trkpt><trkpt lat="41.071605929377796" lon="9.422720247536654"><ele>15.0</ele><time>2026-05-02T08:50:36Z</time></trkpt><trkpt lat="41.071506459186246" lon="9.422496975961497"><ele>15.0</ele><time>2026-05-02T08:50:37Z</time></trkpt><trkpt lat="41.07141112480519" lon="9.422279576451604"><ele>16.0</ele><time>2026-05-02T08:50:38Z</time></trkpt><trkpt lat="41.071313578428224" lon="9.42205876907087"><ele>17.0</ele><time>2026-05-02T08:50:39Z</time></trkpt><trkpt lat="41.07122054321103" lon="9.421838271824203"><ele>18.0</ele><time>2026-05-02T08:50:40Z</time></trkpt><trkpt lat="41.071127207844356" lon="9.421614182223237"><ele>18.0</ele><time>2026-05-02T08:50:41Z</time></trkpt><trkpt lat="41.07103808911273" lon="9.421388991867925"><ele>18.0</ele><time>2026-05-02T08:50:42Z</time></trkpt><trkpt lat="41.07096527023153" lon="9.421152945762724"><ele>18.0</ele><time>2026-05-02T08:50:43Z</time></trkpt><trkpt lat="41.07088405453404" lon="9.420923462605824"><ele>17.666666666666668</ele><time>2026-05-02T08:50:44Z</time></trkpt><trkpt lat="41.070789461721326" lon="9.420704326289835"><ele>17.333333333333336</ele><time>2026-05-02T08:50:45Z</time></trkpt><trkpt lat="41.07071153566107" lon="9.420473507977684"><ele>17.0</ele><time>2026-05-02T08:50:46Z</time></trkpt><trkpt lat="41.070629449008145" lon="9.420240906951268"><ele>17.0</ele><time>2026-05-02T08:50:47Z</time></trkpt><trkpt lat="41.07054382576358" lon="9.42001041731446"><ele>17.0</ele><time>2026-05-02T08:50:48Z</time></trkpt><trkpt lat="41.07044763338547" lon="9.419779675202056"><ele>17.0</ele><time>2026-05-02T08:50:49Z</time></trkpt><trkpt lat="41.07035010625829" lon="9.419562613899027"><ele>17.666666666666668</ele><time>2026-05-02T08:50:50Z</time></trkpt><trkpt lat="41.070251839349915" lon="9.419369894689973"><ele>18.333333333333332</ele><time>2026-05-02T08:50:51Z</time></trkpt><trkpt lat="41.07015347446008" lon="9.4191916079619"><ele>19.0</ele><time>2026-05-02T08:50:52Z</time></trkpt><trkpt lat="41.070056439824484" lon="9.419024868743502"><ele>19.0</ele><time>2026-05-02T08:50:53Z</time></trkpt><trkpt lat="41.069955392313105" lon="9.41886006170994"><ele>19.0</ele><time>2026-05-02T08:50:54Z</time></trkpt><trkpt lat="41.069858961618934" lon="9.418710656866608"><ele>19.0</ele><time>2026-05-02T08:50:55Z</time></trkpt><trkpt lat="41.0697687918054" lon="9.418573982069304"><ele>19.0</ele><time>2026-05-02T08:50:56Z</time></trkpt><trkpt lat="41.06968308178662" lon="9.418451851736883"><ele>18.2</ele><time>2026-05-02T08:50:57Z</time></trkpt><trkpt lat="41.06960173134585" lon="9.418336260360045"><ele>17.4</ele><time>2026-05-02T08:50:58Z</time></trkpt><trkpt lat="41.06952459569121" lon="9.41823102496005"><ele>16.6</ele><time>2026-05-02T08:50:59Z</time></trkpt><trkpt lat="41.06945029475141" lon="9.418132056380456"><ele>15.8</ele><time>2026-05-02T08:51:00Z</time></trkpt><trkpt lat="41.06937933352309" lon="9.418038716242407"><ele>15.0</ele><time>2026-05-02T08:51:01Z</time></trkpt><trkpt lat="41.06930532670253" lon="9.417964697665742"><ele>15.0</ele><time>2026-05-02T08:51:02Z</time></trkpt><trkpt lat="41.06924625242016" lon="9.417884217291437"><ele>15.0</ele><time>2026-05-02T08:51:03Z</time></trkpt><trkpt lat="41.069140620123626" lon="9.417914025137488"><ele>15.0</ele><time>2026-05-02T08:51:04Z</time></trkpt><trkpt lat="41.06906069655651" lon="9.417946476229858"><ele>15.0</ele><time>2026-05-02T08:51:05Z</time></trkpt><trkpt lat="41.068997833951514" lon="9.41799452997979"><ele>15.0</ele><time>2026-05-02T08:51:06Z</time></trkpt><trkpt lat="41.068906324828596" lon="9.418087728768956"><ele>14.0</ele><time>2026-05-02T08:51:08Z</time></trkpt><trkpt lat="41.068900600077704" lon="9.418215856529745"><ele>13.0</ele><time>2026-05-02T08:51:09Z</time></trkpt><trkpt lat="41.06889429209887" lon="9.418324689347763"><ele>12.0</ele><time>2026-05-02T08:51:10Z</time></trkpt><trkpt lat="41.068896134300324" lon="9.418439292672373"><ele>11.0</ele><time>2026-05-02T08:51:11Z</time></trkpt><trkpt lat="41.06890506001114" lon="9.418567886266642"><ele>10.0</ele><time>2026-05-02T08:51:12Z</time></trkpt><trkpt lat="41.06891300668748" lon="9.418698259973505"><ele>10.0</ele><time>2026-05-02T08:51:13Z</time></trkpt><trkpt lat="41.06891963456052" lon="9.418841639574767"><ele>10.0</ele><time>2026-05-02T08:51:14Z</time></trkpt><trkpt lat="41.068922226491274" lon="9.41898767067162"><ele>10.0</ele><time>2026-05-02T08:51:15Z</time></trkpt><trkpt lat="41.068917020261075" lon="9.41911900470986"><ele>10.0</ele><time>2026-05-02T08:51:16Z</time></trkpt><trkpt lat="41.06890708211059" lon="9.419240143740973"><ele>10.0</ele><time>2026-05-02T08:51:17Z</time></trkpt><trkpt lat="41.06889080724262" lon="9.419359618935067"><ele>10.0</ele><time>2026-05-02T08:51:18Z</time></trkpt><trkpt lat="41.06887246028284" lon="9.419487335215335"><ele>10.0</ele><time>2026-05-02T08:51:19Z</time></trkpt><trkpt lat="41.068858408307705" lon="9.419622082182586"><ele>10.0</ele><time>2026-05-02T08:51:20Z</time></trkpt><trkpt lat="41.0688422591257" lon="9.419756927884977"><ele>10.0</ele><time>2026-05-02T08:51:21Z</time></trkpt><trkpt lat="41.06883188061208" lon="9.419882383180443"><ele>10.0</ele><time>2026-05-02T08:51:22Z</time></trkpt><trkpt lat="41.068819584817355" lon="9.419996687898637"><ele>10.166666666666668</ele><time>2026-05-02T08:51:23Z</time></trkpt><trkpt lat="41.068804640222645" lon="9.420102306597794"><ele>10.333333333333334</ele><time>2026-05-02T08:51:24Z</time></trkpt><trkpt lat="41.06879141399127" lon="9.420208613795216"><ele>10.5</ele><time>2026-05-02T08:51:25Z</time></trkpt><trkpt lat="41.06877321405207" lon="9.420312769189618"><ele>10.666666666666666</ele><time>2026-05-02T08:51:26Z</time></trkpt><trkpt lat="41.068751638039274" lon="9.420409730319331"><ele>10.833333333333332</ele><time>2026-05-02T08:51:27Z</time></trkpt><trkpt lat="41.068666472626695" lon="9.420523335882578"><ele>11.0</ele><time>2026-05-02T08:51:29Z</time></trkpt><trkpt lat="41.068567199270575" lon="9.420600578106404"><ele>10.5</ele><time>2026-05-02T08:51:31Z</time></trkpt><trkpt lat="41.06853757234943" lon="9.420704912629482"><ele>10.0</ele><time>2026-05-02T08:51:33Z</time></trkpt><trkpt lat="41.0685126412902" lon="9.420816143098099"><ele>9.5</ele><time>2026-05-02T08:59:41.999Z</time></trkpt><trkpt lat="41.068525342543964" lon="9.42090709086181"><ele>9.0</ele><time>2026-05-02T08:59:43.999Z</time></trkpt><trkpt lat="41.068568790603834" lon="9.420984663682905"><ele>8.5</ele><time>2026-05-02T08:59:45.999Z</time></trkpt><trkpt lat="41.06863633413754" lon="9.4210025873945"><ele>8.0</ele><time>2026-05-02T08:59:47.999Z</time></trkpt><trkpt lat="41.068707040330864" lon="9.421004158776793"><ele>7.999999999999999</ele><time>2026-05-02T09:00:11.999Z</time></trkpt><trkpt lat="41.06872098356984" lon="9.420890737598592"><ele>8.0</ele><time>2026-05-02T09:00:12.999Z</time></trkpt><trkpt lat="41.06872595882828" lon="9.420784980375542"><ele>8.0</ele><time>2026-05-02T09:00:13.999Z</time></trkpt><trkpt lat="41.06874205383112" lon="9.420670552677185"><ele>8.0</ele><time>2026-05-02T09:00:14.999Z</time></trkpt><trkpt lat="41.06876134151843" lon="9.420553809992715"><ele>7.999999999999999</ele><time>2026-05-02T09:00:15.999Z</time></trkpt><trkpt lat="41.06878139473178" lon="9.420418675613691"><ele>8.0</ele><time>2026-05-02T09:00:16.999Z</time></trkpt><trkpt lat="41.06880267797865" lon="9.420270470329179"><ele>8.5</ele><time>2026-05-02T09:00:17.999Z</time></trkpt><trkpt lat="41.06882390621265" lon="9.420110778242849"><ele>9.0</ele><time>2026-05-02T09:00:18.999Z</time></trkpt><trkpt lat="41.068843499661625" lon="9.419962563413359"><ele>9.5</ele><time>2026-05-02T09:00:20Z</time></trkpt><trkpt lat="41.06886568217624" lon="9.419807695941234"><ele>10.0</ele><time>2026-05-02T09:00:21Z</time></trkpt><trkpt lat="41.06888766232482" lon="9.419643433199193"><ele>10.0</ele><time>2026-05-02T09:00:22Z</time></trkpt><trkpt lat="41.06891072254033" lon="9.41947477428292"><ele>10.0</ele><time>2026-05-02T09:00:23Z</time></trkpt><trkpt lat="41.06893254477124" lon="9.419299511381558"><ele>10.0</ele><time>2026-05-02T09:00:24Z</time></trkpt><trkpt lat="41.06895210572971" lon="9.419120274629664"><ele>10.0</ele><time>2026-05-02T09:00:25Z</time></trkpt><trkpt lat="41.06896396040515" lon="9.418935601038177"><ele>10.0</ele><time>2026-05-02T09:00:26Z</time></trkpt><trkpt lat="41.06896593048497" lon="9.418762403967719"><ele>10.0</ele><time>2026-05-02T09:00:27Z</time></trkpt><trkpt lat="41.068958571244956" lon="9.41858375524594"><ele>10.0</ele><time>2026-05-02T09:00:28Z</time></trkpt><trkpt lat="41.068944665676156" lon="9.41840145628825"><ele>10.0</ele><time>2026-05-02T09:00:29Z</time></trkpt><trkpt lat="41.06893313394692" lon="9.418215956028689"><ele>10.0</ele><time>2026-05-02T09:00:30Z</time></trkpt><trkpt lat="41.068921334889225" lon="9.418023944581908"><ele>10.0</ele><time>2026-05-02T09:00:31Z</time></trkpt><trkpt lat="41.06890968621337" lon="9.417831943979982"><ele>10.0</ele><time>2026-05-02T09:00:32Z</time></trkpt><trkpt lat="41.06889769082948" lon="9.417634428536408"><ele>10.0</ele><time>2026-05-02T09:00:33Z</time></trkpt><trkpt lat="41.06888366368389" lon="9.417427061882847"><ele>10.333333333333334</ele><time>2026-05-02T09:00:34Z</time></trkpt><trkpt lat="41.06886812172271" lon="9.417209499526214"><ele>10.666666666666666</ele><time>2026-05-02T09:00:35Z</time></trkpt><trkpt lat="41.068852318213715" lon="9.416985414286325"><ele>11.0</ele><time>2026-05-02T09:00:36Z</time></trkpt><trkpt lat="41.06883153189339" lon="9.416753068813659"><ele>11.333333333333332</ele><time>2026-05-02T09:00:37Z</time></trkpt><trkpt lat="41.06880983020949" lon="9.416513707411555"><ele>11.666666666666666</ele><time>2026-05-02T09:00:38Z</time></trkpt><trkpt lat="41.068788936612194" lon="9.4162712956633"><ele>12.0</ele><time>2026-05-02T09:00:39Z</time></trkpt><trkpt lat="41.06876921461941" lon="9.416019967633959"><ele>12.333333333333332</ele><time>2026-05-02T09:00:40Z</time></trkpt><trkpt lat="41.06875144287729" lon="9.41576706475176"><ele>12.666666666666666</ele><time>2026-05-02T09:00:41Z</time></trkpt><trkpt lat="41.06873261127793" lon="9.41551278345393"><ele>13.0</ele><time>2026-05-02T09:00:42Z</time></trkpt><trkpt lat="41.068714926755945" lon="9.415253849196707"><ele>13.666666666666666</ele><time>2026-05-02T09:00:43Z</time></trkpt><trkpt lat="41.068700554450196" lon="9.415006993850884"><ele>14.333333333333332</ele><time>2026-05-02T09:00:44Z</time></trkpt><trkpt lat="41.06868610794357" lon="9.414758535043518"><ele>15.0</ele><time>2026-05-02T09:00:45Z</time></trkpt><trkpt lat="41.06867385229156" lon="9.414511067420753"><ele>15.0</ele><time>2026-05-02T09:00:46Z</time></trkpt><trkpt lat="41.068661322962896" lon="9.41426430024205"><ele>15.0</ele><time>2026-05-02T09:00:47Z</time></trkpt><trkpt lat="41.06864510964163" lon="9.414014342529311"><ele>15.0</ele><time>2026-05-02T09:00:48Z</time></trkpt><trkpt lat="41.06862785213425" lon="9.413763121576569"><ele>15.333333333333332</ele><time>2026-05-02T09:00:49Z</time></trkpt><trkpt lat="41.06861060185453" lon="9.413511544720732"><ele>15.666666666666666</ele><time>2026-05-02T09:00:50Z</time></trkpt><trkpt lat="41.068594992967654" lon="9.413262862606473"><ele>16.0</ele><time>2026-05-02T09:00:51Z</time></trkpt><trkpt lat="41.068578289182234" lon="9.413008131268029"><ele>16.333333333333332</ele><time>2026-05-02T09:00:52Z</time></trkpt><trkpt lat="41.06856153868122" lon="9.41275628597099"><ele>16.666666666666668</ele><time>2026-05-02T09:00:53Z</time></trkpt><trkpt lat="41.06854538020173" lon="9.412504192369502"><ele>17.0</ele><time>2026-05-02T09:00:54Z</time></trkpt><trkpt lat="41.06853048469063" lon="9.412255331268076"><ele>18.0</ele><time>2026-05-02T09:00:55Z</time></trkpt><trkpt lat="41.06851922859768" lon="9.412001808445636"><ele>19.0</ele><time>2026-05-02T09:00:56Z</time></trkpt><trkpt lat="41.06851601235758" lon="9.411751132679877"><ele>20.0</ele><time>2026-05-02T09:00:57Z</time></trkpt><trkpt lat="41.06852165968121" lon="9.411506481516808"><ele>20.333333333333336</ele><time>2026-05-02T09:00:58Z</time></trkpt><trkpt lat="41.068536380343325" lon="9.411262013298714"><ele>20.666666666666668</ele><time>2026-05-02T09:00:59Z</time></trkpt><trkpt lat="41.06855741071314" lon="9.411020124310499"><ele>21.0</ele><time>2026-05-02T09:01:00Z</time></trkpt><trkpt lat="41.06857899738643" lon="9.41077591938344"><ele>21.0</ele><time>2026-05-02T09:01:01Z</time></trkpt><trkpt lat="41.06860103912897" lon="9.410534574592981"><ele>21.0</ele><time>2026-05-02T09:01:02Z</time></trkpt><trkpt lat="41.06862456538756" lon="9.410282698053264"><ele>21.0</ele><time>2026-05-02T09:01:03Z</time></trkpt><trkpt lat="41.068646575069835" lon="9.410029227932611"><ele>21.0</ele><time>2026-05-02T09:01:04Z</time></trkpt><trkpt lat="41.068669217852296" lon="9.409774127676947"><ele>21.0</ele><time>2026-05-02T09:01:05Z</time></trkpt><trkpt lat="41.068691228555615" lon="9.409518678031237"><ele>21.0</ele><time>2026-05-02T09:01:06Z</time></trkpt><trkpt lat="41.068714430380766" lon="9.409261271216542"><ele>20.333333333333332</ele><time>2026-05-02T09:01:07Z</time></trkpt><trkpt lat="41.068737195817576" lon="9.409009594728738"><ele>19.666666666666664</ele><time>2026-05-02T09:01:08Z</time></trkpt><trkpt lat="41.068762829276594" lon="9.408759157818668"><ele>19.0</ele><time>2026-05-02T09:01:09Z</time></trkpt><trkpt lat="41.06878816930584" lon="9.408510457682935"><ele>19.0</ele><time>2026-05-02T09:01:10Z</time></trkpt><trkpt lat="41.06881281923385" lon="9.408264693586386"><ele>19.0</ele><time>2026-05-02T09:01:11Z</time></trkpt><trkpt lat="41.06883647459159" lon="9.408019918938045"><ele>19.0</ele><time>2026-05-02T09:01:12Z</time></trkpt><trkpt lat="41.06886034123486" lon="9.407777132930116"><ele>19.666666666666664</ele><time>2026-05-02T09:01:13Z</time></trkpt><trkpt lat="41.06888130676686" lon="9.407535169895928"><ele>20.333333333333332</ele><time>2026-05-02T09:01:14Z</time></trkpt><trkpt lat="41.068902283815625" lon="9.407292820404576"><ele>21.0</ele><time>2026-05-02T09:01:15Z</time></trkpt><trkpt lat="41.06892178911954" lon="9.407052381597518"><ele>21.0</ele><time>2026-05-02T09:01:16Z</time></trkpt><trkpt lat="41.068943738634474" lon="9.406810579904434"><ele>21.0</ele><time>2026-05-02T09:01:17Z</time></trkpt><trkpt lat="41.06896567279043" lon="9.406569462391031"><ele>21.0</ele><time>2026-05-02T09:01:18Z</time></trkpt><trkpt lat="41.06898683062566" lon="9.40633179335"><ele>20.333333333333332</ele><time>2026-05-02T09:01:19Z</time></trkpt><trkpt lat="41.069009277365716" lon="9.406092542778604"><ele>19.666666666666664</ele><time>2026-05-02T09:01:20Z</time></trkpt><trkpt lat="41.06903182638484" lon="9.405848836255181"><ele>19.0</ele><time>2026-05-02T09:01:21Z</time></trkpt><trkpt lat="41.069055994454054" lon="9.405612555500607"><ele>18.666666666666664</ele><time>2026-05-02T09:01:22Z</time></trkpt><trkpt lat="41.06908010431761" lon="9.405375183002723"><ele>18.333333333333332</ele><time>2026-05-02T09:01:23Z</time></trkpt><trkpt lat="41.069099568095844" lon="9.405138898936821"><ele>18.0</ele><time>2026-05-02T09:01:24Z</time></trkpt><trkpt lat="41.069119321018" lon="9.404901891907988"><ele>18.0</ele><time>2026-05-02T09:01:25Z</time></trkpt><trkpt lat="41.06915059189481" lon="9.404675671548567"><ele>18.0</ele><time>2026-05-02T09:01:26Z</time></trkpt><trkpt lat="41.069199564383354" lon="9.404473856690188"><ele>18.0</ele><time>2026-05-02T09:01:27Z</time></trkpt><trkpt lat="41.069242036836975" lon="9.404325447215536"><ele>18.0</ele><time>2026-05-02T09:01:28Z</time></trkpt><trkpt lat="41.06927467959037" lon="9.404203313594365"><ele>18.0</ele><time>2026-05-02T09:01:29Z</time></trkpt><trkpt lat="41.06931943829963" lon="9.40408060932342"><ele>18.0</ele><time>2026-05-02T09:01:30Z</time></trkpt><trkpt lat="41.06937011766404" lon="9.403965194334077"><ele>18.0</ele><time>2026-05-02T09:01:31Z</time></trkpt><trkpt lat="41.069410210933775" lon="9.403858959228348"><ele>18.0</ele><time>2026-05-02T09:01:32Z</time></trkpt><trkpt lat="41.069445430189774" lon="9.40375557630968"><ele>18.4</ele><time>2026-05-02T09:01:33Z</time></trkpt><trkpt lat="41.06947930020318" lon="9.40365424544032"><ele>18.8</ele><time>2026-05-02T09:01:34Z</time></trkpt><trkpt lat="41.06951660186212" lon="9.403537737116139"><ele>19.2</ele><time>2026-05-02T09:01:35Z</time></trkpt><trkpt lat="41.06955350535516" lon="9.40341173276429"><ele>19.6</ele><time>2026-05-02T09:01:36Z</time></trkpt><trkpt lat="41.06959150438122" lon="9.403291915124765"><ele>20.0</ele><time>2026-05-02T09:01:37Z</time></trkpt><trkpt lat="41.06962324961927" lon="9.403196130141977"><ele>20.0</ele><time>2026-05-02T09:01:38Z</time></trkpt><trkpt lat="41.06965396623349" lon="9.4031071015718"><ele>20.0</ele><time>2026-05-02T09:01:39Z</time></trkpt><trkpt lat="41.06969989335593" lon="9.402966223762961"><ele>20.0</ele><time>2026-05-02T09:01:41Z</time></trkpt><trkpt lat="41.069751448591106" lon="9.402868469716672"><ele>20.0</ele><time>2026-05-02T09:01:43Z</time></trkpt><trkpt lat="41.0696363919299" lon="9.402748409115874"><ele>20.0</ele><time>2026-05-02T09:01:45Z</time></trkpt><trkpt lat="41.0695674041023" lon="9.402713944259675"><ele>20.0</ele><time>2026-05-02T09:01:46Z</time></trkpt><trkpt lat="41.06949759968107" lon="9.402682063543878"><ele>20.0</ele><time>2026-05-02T09:01:47Z</time></trkpt><trkpt lat="41.06943554697444" lon="9.402650826693534"><ele>20.0</ele><time>2026-05-02T09:01:48Z</time></trkpt><trkpt lat="41.06937216500439" lon="9.402624953716309"><ele>20.0</ele><time>2026-05-02T09:01:50Z</time></trkpt><trkpt lat="41.06929874343024" lon="9.402565082726415"><ele>20.0</ele><time>2026-05-02T09:01:52Z</time></trkpt><trkpt lat="41.06923558465791" lon="9.402528617536511"><ele>20.0</ele><time>2026-05-02T09:01:53Z</time></trkpt><trkpt lat="41.06916533945039" lon="9.402488060971192"><ele>20.0</ele><time>2026-05-02T09:01:54Z</time></trkpt><trkpt lat="41.06907274060658" lon="9.402434693209019"><ele>19.5</ele><time>2026-05-02T09:01:55Z</time></trkpt><trkpt lat="41.06896865601522" lon="9.402374712935801"><ele>19.0</ele><time>2026-05-02T09:01:56Z</time></trkpt><trkpt lat="41.06885620649125" lon="9.40230960669328"><ele>18.5</ele><time>2026-05-02T09:01:57Z</time></trkpt><trkpt lat="41.06873388973021" lon="9.40226054907903"><ele>18.0</ele><time>2026-05-02T09:01:57.999Z</time></trkpt><trkpt lat="41.06861069626265" lon="9.402183861125762"><ele>18.0</ele><time>2026-05-02T09:01:58.999Z</time></trkpt><trkpt lat="41.06848006419733" lon="9.402109532993796"><ele>18.0</ele><time>2026-05-02T09:01:59.999Z</time></trkpt><trkpt lat="41.06834816806292" lon="9.402013008361378"><ele>18.0</ele><time>2026-05-02T09:02:00.999Z</time></trkpt><trkpt lat="41.06821755160776" lon="9.401936141770397"><ele>18.0</ele><time>2026-05-02T09:02:01.999Z</time></trkpt><trkpt lat="41.068087830150795" lon="9.401859898604963"><ele>18.5</ele><time>2026-05-02T09:02:02.999Z</time></trkpt><trkpt lat="41.067949756681045" lon="9.401796318784202"><ele>19.0</ele><time>2026-05-02T09:02:03.999Z</time></trkpt><trkpt lat="41.067818777269046" lon="9.401710027520211"><ele>19.5</ele><time>2026-05-02T09:02:04.999Z</time></trkpt><trkpt lat="41.06768932219503" lon="9.401637998421698"><ele>20.0</ele><time>2026-05-02T09:02:05.999Z</time></trkpt><trkpt lat="41.067564216093494" lon="9.401592860785685"><ele>19.75</ele><time>2026-05-02T09:02:06.999Z</time></trkpt><trkpt lat="41.0674354291683" lon="9.401595286369272"><ele>19.5</ele><time>2026-05-02T09:02:07.999Z</time></trkpt><trkpt lat="41.067307693764384" lon="9.401630116506068"><ele>19.25</ele><time>2026-05-02T09:02:08.999Z</time></trkpt><trkpt lat="41.06717903417153" lon="9.40164390527834"><ele>19.0</ele><time>2026-05-02T09:02:09.999Z</time></trkpt><trkpt lat="41.06705603087445" lon="9.401670883753784"><ele>19.0</ele><time>2026-05-02T09:02:10.999Z</time></trkpt><trkpt lat="41.0669347671289" lon="9.401681898767901"><ele>19.0</ele><time>2026-05-02T09:02:11.999Z</time></trkpt><trkpt lat="41.066810494547084" lon="9.401677375339196"><ele>19.0</ele><time>2026-05-02T09:02:12.999Z</time></trkpt><trkpt lat="41.066683058489936" lon="9.401665534786057"><ele>19.0</ele><time>2026-05-02T09:02:13.999Z</time></trkpt><trkpt lat="41.06654863405882" lon="9.401651779249253"><ele>18.0</ele><time>2026-05-02T09:02:14.999Z</time></trkpt><trkpt lat="41.06640988889284" lon="9.401652681967875"><ele>17.0</ele><time>2026-05-02T09:02:15.999Z</time></trkpt><trkpt lat="41.06626846678896" lon="9.40163387322815"><ele>16.0</ele><time>2026-05-02T09:02:16.999Z</time></trkpt><trkpt lat="41.06612339332013" lon="9.40162007789385"><ele>15.0</ele><time>2026-05-02T09:02:17.999Z</time></trkpt><trkpt lat="41.06597367096162" lon="9.401585947119516"><ele>15.0</ele><time>2026-05-02T09:02:18.999Z</time></trkpt><trkpt lat="41.06581896284547" lon="9.401569055881584"><ele>15.0</ele><time>2026-05-02T09:02:19.999Z</time></trkpt><trkpt lat="41.06566710747221" lon="9.401554579001571"><ele>15.0</ele><time>2026-05-02T09:02:20.999Z</time></trkpt><trkpt lat="41.06551146131829" lon="9.401539740735029"><ele>15.25</ele><time>2026-05-02T09:02:21.999Z</time></trkpt><trkpt lat="41.06535476843493" lon="9.401524578389628"><ele>15.5</ele><time>2026-05-02T09:02:22.999Z</time></trkpt><trkpt lat="41.06520920581442" lon="9.401509018747445"><ele>15.75</ele><time>2026-05-02T09:02:23.999Z</time></trkpt><trkpt lat="41.06507181983492" lon="9.401494226960867"><ele>16.0</ele><time>2026-05-02T09:02:24.999Z</time></trkpt><trkpt lat="41.06494619177248" lon="9.401480669532706"><ele>15.5</ele><time>2026-05-02T09:02:25.999Z</time></trkpt><trkpt lat="41.064821793955716" lon="9.401468122060315"><ele>15.0</ele><time>2026-05-02T09:02:26.999Z</time></trkpt><trkpt lat="41.064706842755186" lon="9.401456017783845"><ele>14.5</ele><time>2026-05-02T09:02:27.999Z</time></trkpt><trkpt lat="41.064595491391024" lon="9.40144576094284"><ele>14.0</ele><time>2026-05-02T09:02:28.999Z</time></trkpt><trkpt lat="41.06448830482399" lon="9.401436187083247"><ele>14.0</ele><time>2026-05-02T09:02:29.999Z</time></trkpt><trkpt lat="41.064396217601036" lon="9.40142796194548"><ele>13.999999999999998</ele><time>2026-05-02T09:02:30.999Z</time></trkpt><trkpt lat="41.06429806374854" lon="9.401430243667603"><ele>13.999999999999998</ele><time>2026-05-02T09:02:32.999Z</time></trkpt><trkpt lat="41.06423581727731" lon="9.401384066525717"><ele>14.0</ele><time>2026-05-02T09:18:05Z</time></trkpt><trkpt lat="41.06423650325949" lon="9.401215311955148"><ele>14.0</ele><time>2026-05-02T09:18:06Z</time></trkpt><trkpt lat="41.06424331152511" lon="9.401097276863284"><ele>13.799999999999999</ele><time>2026-05-02T09:18:07Z</time></trkpt><trkpt lat="41.06424886875274" lon="9.400981429996659"><ele>13.599999999999998</ele><time>2026-05-02T09:18:08Z</time></trkpt><trkpt lat="41.064254614677175" lon="9.400858510699692"><ele>13.4</ele><time>2026-05-02T09:18:09Z</time></trkpt><trkpt lat="41.06426209098743" lon="9.400716123065706"><ele>13.2</ele><time>2026-05-02T09:18:10Z</time></trkpt><trkpt lat="41.0642710567609" lon="9.400564567746045"><ele>13.0</ele><time>2026-05-02T09:18:11Z</time></trkpt><trkpt lat="41.06427925379261" lon="9.40040568351784"><ele>13.0</ele><time>2026-05-02T09:18:12Z</time></trkpt><trkpt lat="41.06428703785835" lon="9.40025130101433"><ele>13.0</ele><time>2026-05-02T09:18:13Z</time></trkpt><trkpt lat="41.06429862829116" lon="9.400092219090272"><ele>13.0</ele><time>2026-05-02T09:18:14Z</time></trkpt><trkpt lat="41.064313551592555" lon="9.399927705494886"><ele>13.0</ele><time>2026-05-02T09:18:15Z</time></trkpt><trkpt lat="41.06433678192873" lon="9.399760002655999"><ele>13.25</ele><time>2026-05-02T09:18:16Z</time></trkpt><trkpt lat="41.06436795600249" lon="9.3995894817173"><ele>13.5</ele><time>2026-05-02T09:18:17Z</time></trkpt><trkpt lat="41.06440853047325" lon="9.399418870508075"><ele>13.75</ele><time>2026-05-02T09:18:18Z</time></trkpt><trkpt lat="41.064453805955495" lon="9.39924691242677"><ele>14.0</ele><time>2026-05-02T09:18:19Z</time></trkpt><trkpt lat="41.06450455205349" lon="9.399070577870047"><ele>14.0</ele><time>2026-05-02T09:18:20Z</time></trkpt><trkpt lat="41.06455634702967" lon="9.398892176587296"><ele>14.0</ele><time>2026-05-02T09:18:21Z</time></trkpt><trkpt lat="41.06460860184532" lon="9.398717365055774"><ele>14.0</ele><time>2026-05-02T09:18:22Z</time></trkpt><trkpt lat="41.06465840330993" lon="9.398532398601441"><ele>14.0</ele><time>2026-05-02T09:18:23Z</time></trkpt><trkpt lat="41.064710415252534" lon="9.398340698318878"><ele>14.333333333333334</ele><time>2026-05-02T09:18:24Z</time></trkpt><trkpt lat="41.06476353845576" lon="9.398145826053348"><ele>14.666666666666668</ele><time>2026-05-02T09:18:25Z</time></trkpt><trkpt lat="41.06481837675791" lon="9.397960060254722"><ele>15.0</ele><time>2026-05-02T09:18:26Z</time></trkpt><trkpt lat="41.06487981659275" lon="9.39778186731037"><ele>15.0</ele><time>2026-05-02T09:18:27Z</time></trkpt><trkpt lat="41.064939713085934" lon="9.397614307197"><ele>15.0</ele><time>2026-05-02T09:18:28Z</time></trkpt><trkpt lat="41.065008201974095" lon="9.397439452972472"><ele>15.0</ele><time>2026-05-02T09:18:29Z</time></trkpt><trkpt lat="41.06507872937725" lon="9.397257433485757"><ele>15.0</ele><time>2026-05-02T09:18:30Z</time></trkpt><trkpt lat="41.06514963160655" lon="9.397071446858536"><ele>14.666666666666668</ele><time>2026-05-02T09:18:31Z</time></trkpt><trkpt lat="41.06522171454866" lon="9.396873493477687"><ele>14.333333333333334</ele><time>2026-05-02T09:18:32Z</time></trkpt><trkpt lat="41.06529300866373" lon="9.39667124377529"><ele>14.0</ele><time>2026-05-02T09:18:33Z</time></trkpt><trkpt lat="41.065367864269426" lon="9.396464834629763"><ele>14.333333333333334</ele><time>2026-05-02T09:18:34Z</time></trkpt><trkpt lat="41.06544533609592" lon="9.396255657786112"><ele>14.666666666666668</ele><time>2026-05-02T09:18:35Z</time></trkpt><trkpt lat="41.06552640972044" lon="9.39604315614778"><ele>15.0</ele><time>2026-05-02T09:18:36Z</time></trkpt><trkpt lat="41.065608137529054" lon="9.395828016666009"><ele>15.0</ele><time>2026-05-02T09:18:37Z</time></trkpt><trkpt lat="41.065689311182005" lon="9.395608720232795"><ele>15.0</ele><time>2026-05-02T09:18:38Z</time></trkpt><trkpt lat="41.065771096300836" lon="9.395388624508485"><ele>15.0</ele><time>2026-05-02T09:18:39Z</time></trkpt><trkpt lat="41.065864776541396" lon="9.395172446158131"><ele>16.0</ele><time>2026-05-02T09:18:40Z</time></trkpt><trkpt lat="41.0659725251612" lon="9.394969285992037"><ele>17.0</ele><time>2026-05-02T09:18:41Z</time></trkpt><trkpt lat="41.06610720754355" lon="9.394789136690868"><ele>18.0</ele><time>2026-05-02T09:18:42Z</time></trkpt><trkpt lat="41.06626621063442" lon="9.394645437783403"><ele>18.0</ele><time>2026-05-02T09:18:43Z</time></trkpt><trkpt lat="41.066411334947794" lon="9.394508086750623"><ele>18.0</ele><time>2026-05-02T09:18:44Z</time></trkpt><trkpt lat="41.066539390862026" lon="9.394331974504809"><ele>18.0</ele><time>2026-05-02T09:18:45Z</time></trkpt><trkpt lat="41.06664360548527" lon="9.394118057443835"><ele>18.333333333333332</ele><time>2026-05-02T09:18:46Z</time></trkpt><trkpt lat="41.06674061936535" lon="9.3938974610071"><ele>18.666666666666664</ele><time>2026-05-02T09:18:47Z</time></trkpt><trkpt lat="41.06681837888533" lon="9.39366269090499"><ele>19.0</ele><time>2026-05-02T09:18:48Z</time></trkpt><trkpt lat="41.06689350339077" lon="9.393438703375397"><ele>19.0</ele><time>2026-05-02T09:18:49Z</time></trkpt><trkpt lat="41.06695935917146" lon="9.393214889618202"><ele>19.0</ele><time>2026-05-02T09:18:50Z</time></trkpt><trkpt lat="41.06700445102074" lon="9.392994634907401"><ele>19.0</ele><time>2026-05-02T09:18:51Z</time></trkpt><trkpt lat="41.06701382618479" lon="9.39279463679234"><ele>19.5</ele><time>2026-05-02T09:18:52Z</time></trkpt><trkpt lat="41.067014853907686" lon="9.39260477755154"><ele>20.0</ele><time>2026-05-02T09:18:53Z</time></trkpt><trkpt lat="41.06702096724518" lon="9.392443221114736"><ele>20.5</ele><time>2026-05-02T09:18:54Z</time></trkpt><trkpt lat="41.06703497005109" lon="9.39230770904817"><ele>21.0</ele><time>2026-05-02T09:18:55Z</time></trkpt><trkpt lat="41.06703018710525" lon="9.392174704224024"><ele>22.0</ele><time>2026-05-02T09:18:56Z</time></trkpt><trkpt lat="41.067044624789695" lon="9.392038302034495"><ele>23.0</ele><time>2026-05-02T09:18:57Z</time></trkpt><trkpt lat="41.06702997589179" lon="9.391887242936912"><ele>24.0</ele><time>2026-05-02T09:18:58Z</time></trkpt><trkpt lat="41.06703926726682" lon="9.39172137663727"><ele>25.0</ele><time>2026-05-02T09:18:59Z</time></trkpt><trkpt lat="41.06707421697902" lon="9.391544281143704"><ele>25.0</ele><time>2026-05-02T09:19:00Z</time></trkpt><trkpt lat="41.06712370304476" lon="9.391358621239956"><ele>25.0</ele><time>2026-05-02T09:19:01Z</time></trkpt><trkpt lat="41.06718250244313" lon="9.391170802545682"><ele>25.0</ele><time>2026-05-02T09:19:02Z</time></trkpt><trkpt lat="41.06725020808798" lon="9.39097958215507"><ele>25.666666666666668</ele><time>2026-05-02T09:19:03Z</time></trkpt><trkpt lat="41.0673286802356" lon="9.390790058347225"><ele>26.333333333333336</ele><time>2026-05-02T09:19:04Z</time></trkpt><trkpt lat="41.06741800149077" lon="9.39060072106781"><ele>27.0</ele><time>2026-05-02T09:19:05Z</time></trkpt><trkpt lat="41.06751820183887" lon="9.39042478304507"><ele>27.0</ele><time>2026-05-02T09:19:06Z</time></trkpt><trkpt lat="41.067626227185634" lon="9.390268470938393"><ele>27.0</ele><time>2026-05-02T09:19:07Z</time></trkpt><trkpt lat="41.06774457548316" lon="9.390118583157125"><ele>27.0</ele><time>2026-05-02T09:19:08Z</time></trkpt><trkpt lat="41.06786700175203" lon="9.389966896205092"><ele>27.0</ele><time>2026-05-02T09:19:09Z</time></trkpt><trkpt lat="41.067989904890744" lon="9.389806208849434"><ele>27.0</ele><time>2026-05-02T09:19:10Z</time></trkpt><trkpt lat="41.06810417268979" lon="9.38963510844731"><ele>27.0</ele><time>2026-05-02T09:19:11Z</time></trkpt><trkpt lat="41.068207333503864" lon="9.389445053057136"><ele>27.333333333333336</ele><time>2026-05-02T09:19:12Z</time></trkpt><trkpt lat="41.06829422050168" lon="9.38924033589794"><ele>27.666666666666668</ele><time>2026-05-02T09:19:13Z</time></trkpt><trkpt lat="41.068354354482395" lon="9.38903189694581"><ele>28.0</ele><time>2026-05-02T09:19:14Z</time></trkpt><trkpt lat="41.068412571811606" lon="9.388798934937842"><ele>28.0</ele><time>2026-05-02T09:19:15Z</time></trkpt><trkpt lat="41.06846081124616" lon="9.388574522993695"><ele>28.0</ele><time>2026-05-02T09:19:16Z</time></trkpt><trkpt lat="41.0685125349324" lon="9.388340608057911"><ele>28.0</ele><time>2026-05-02T09:19:17Z</time></trkpt><trkpt lat="41.06856987462599" lon="9.388101237983753"><ele>28.333333333333336</ele><time>2026-05-02T09:19:18Z</time></trkpt><trkpt lat="41.068625548211514" lon="9.387858957899072"><ele>28.666666666666664</ele><time>2026-05-02T09:19:19Z</time></trkpt><trkpt lat="41.06868607917051" lon="9.387610399647457"><ele>29.0</ele><time>2026-05-02T09:19:20Z</time></trkpt><trkpt lat="41.06874838808274" lon="9.38736178747371"><ele>28.666666666666664</ele><time>2026-05-02T09:19:21Z</time></trkpt><trkpt lat="41.06881308528016" lon="9.387110051410605"><ele>28.333333333333336</ele><time>2026-05-02T09:19:22Z</time></trkpt><trkpt lat="41.06887442748843" lon="9.386857914905924"><ele>28.0</ele><time>2026-05-02T09:19:23Z</time></trkpt><trkpt lat="41.068932011439195" lon="9.386602148559813"><ele>28.0</ele><time>2026-05-02T09:19:24Z</time></trkpt><trkpt lat="41.06898539366988" lon="9.38634920193986"><ele>28.0</ele><time>2026-05-02T09:19:25Z</time></trkpt><trkpt lat="41.06903660063116" lon="9.386088184624889"><ele>28.0</ele><time>2026-05-02T09:19:26Z</time></trkpt><trkpt lat="41.069077425486945" lon="9.385825563675962"><ele>27.0</ele><time>2026-05-02T09:19:27Z</time></trkpt><trkpt lat="41.06910671532935" lon="9.38555872182879"><ele>26.0</ele><time>2026-05-02T09:19:28Z</time></trkpt><trkpt lat="41.069126975999495" lon="9.385300231708158"><ele>25.0</ele><time>2026-05-02T09:19:29Z</time></trkpt><trkpt lat="41.069136489235774" lon="9.385054879448477"><ele>27.0</ele><time>2026-05-02T09:19:30Z</time></trkpt><trkpt lat="41.06915228727599" lon="9.384807362320016"><ele>29.0</ele><time>2026-05-02T09:19:31Z</time></trkpt><trkpt lat="41.06917654805668" lon="9.384554332305596"><ele>31.0</ele><time>2026-05-02T09:19:32Z</time></trkpt><trkpt lat="41.06920275216705" lon="9.38430309185176"><ele>31.0</ele><time>2026-05-02T09:19:33Z</time></trkpt><trkpt lat="41.06922616113046" lon="9.384054851057684"><ele>31.0</ele><time>2026-05-02T09:19:34Z</time></trkpt><trkpt lat="41.06924785989475" lon="9.383806715108685"><ele>31.0</ele><time>2026-05-02T09:19:35Z</time></trkpt><trkpt lat="41.06926223002944" lon="9.383565920687658"><ele>31.0</ele><time>2026-05-02T09:19:36Z</time></trkpt><trkpt lat="41.06928034653599" lon="9.38334648912832"><ele>31.0</ele><time>2026-05-02T09:19:37Z</time></trkpt><trkpt lat="41.06930711002744" lon="9.383148505800461"><ele>31.0</ele><time>2026-05-02T09:19:38Z</time></trkpt><trkpt lat="41.06936055210156" lon="9.382981971872074"><ele>31.0</ele><time>2026-05-02T09:19:39Z</time></trkpt><trkpt lat="41.06944605334169" lon="9.38284492230442"><ele>31.0</ele><time>2026-05-02T09:19:40Z</time></trkpt><trkpt lat="41.06953819450087" lon="9.38270941473814"><ele>31.0</ele><time>2026-05-02T09:19:41Z</time></trkpt><trkpt lat="41.06960125468738" lon="9.382560045078899"><ele>31.0</ele><time>2026-05-02T09:19:42Z</time></trkpt><trkpt lat="41.069624305361835" lon="9.382404546567603"><ele>31.0</ele><time>2026-05-02T09:19:43Z</time></trkpt><trkpt lat="41.069604765923465" lon="9.38224931350879"><ele>31.0</ele><time>2026-05-02T09:19:44Z</time></trkpt><trkpt lat="41.06955281397632" lon="9.382090090729838"><ele>31.0</ele><time>2026-05-02T09:19:45Z</time></trkpt><trkpt lat="41.06948919772816" lon="9.381928380181135"><ele>31.0</ele><time>2026-05-02T09:19:46Z</time></trkpt><trkpt lat="41.06944470825619" lon="9.38174494937284"><ele>32.333333333333336</ele><time>2026-05-02T09:19:47Z</time></trkpt><trkpt lat="41.06940278204046" lon="9.381553769388342"><ele>33.666666666666664</ele><time>2026-05-02T09:19:48Z</time></trkpt><trkpt lat="41.069439843342614" lon="9.381322222271937"><ele>35.0</ele><time>2026-05-02T09:19:49Z</time></trkpt><trkpt lat="41.06945860211981" lon="9.38110232547279"><ele>35.0</ele><time>2026-05-02T09:19:50Z</time></trkpt><trkpt lat="41.06948863683323" lon="9.380891531758154"><ele>35.0</ele><time>2026-05-02T09:19:51Z</time></trkpt><trkpt lat="41.06952755193205" lon="9.38067073605136"><ele>35.0</ele><time>2026-05-02T09:19:52Z</time></trkpt><trkpt lat="41.06958582016635" lon="9.380454343673454"><ele>35.33333333333333</ele><time>2026-05-02T09:19:53Z</time></trkpt><trkpt lat="41.0696630967598" lon="9.380240255260816"><ele>35.666666666666664</ele><time>2026-05-02T09:19:54Z</time></trkpt><trkpt lat="41.06975983438614" lon="9.380042813445808"><ele>36.0</ele><time>2026-05-02T09:19:55Z</time></trkpt><trkpt lat="41.06986515837431" lon="9.379847431264993"><ele>37.666666666666664</ele><time>2026-05-02T09:19:56Z</time></trkpt><trkpt lat="41.06996819527961" lon="9.379644162680483"><ele>39.33333333333333</ele><time>2026-05-02T09:19:57Z</time></trkpt><trkpt lat="41.070064216215435" lon="9.379442319543653"><ele>41.0</ele><time>2026-05-02T09:19:58Z</time></trkpt><trkpt lat="41.07015991962109" lon="9.379239885872414"><ele>41.0</ele><time>2026-05-02T09:19:59Z</time></trkpt><trkpt lat="41.070257132296156" lon="9.379033539933753"><ele>41.0</ele><time>2026-05-02T09:20:00Z</time></trkpt><trkpt lat="41.070352942721186" lon="9.3788280367043"><ele>41.0</ele><time>2026-05-02T09:20:01Z</time></trkpt><trkpt lat="41.070449098677614" lon="9.378622487310563"><ele>41.0</ele><time>2026-05-02T09:20:02Z</time></trkpt><trkpt lat="41.070542893795775" lon="9.378420381349208"><ele>41.0</ele><time>2026-05-02T09:20:03Z</time></trkpt><trkpt lat="41.07063230398291" lon="9.37821799273237"><ele>41.0</ele><time>2026-05-02T09:20:04Z</time></trkpt><trkpt lat="41.07072498903281" lon="9.378012269197846"><ele>42.666666666666664</ele><time>2026-05-02T09:20:05Z</time></trkpt><trkpt lat="41.07082260657058" lon="9.37780613721346"><ele>44.333333333333336</ele><time>2026-05-02T09:20:06Z</time></trkpt><trkpt lat="41.07091859802314" lon="9.377602013089986"><ele>46.0</ele><time>2026-05-02T09:20:07Z</time></trkpt><trkpt lat="41.071013753097574" lon="9.377398973289353"><ele>46.0</ele><time>2026-05-02T09:20:08Z</time></trkpt><trkpt lat="41.07110948207333" lon="9.377197037267877"><ele>46.0</ele><time>2026-05-02T09:20:09Z</time></trkpt><trkpt lat="41.071205402604505" lon="9.37699343467726"><ele>46.0</ele><time>2026-05-02T09:20:10Z</time></trkpt><trkpt lat="41.07130168722209" lon="9.376785897991958"><ele>46.0</ele><time>2026-05-02T09:20:11Z</time></trkpt><trkpt lat="41.0713960312375" lon="9.376581567187538"><ele>46.0</ele><time>2026-05-02T09:20:12Z</time></trkpt><trkpt lat="41.07148088502365" lon="9.376384719612275"><ele>46.0</ele><time>2026-05-02T09:20:13Z</time></trkpt><trkpt lat="41.07156955947461" lon="9.376180299189834"><ele>47.333333333333336</ele><time>2026-05-02T09:20:14Z</time></trkpt><trkpt lat="41.07167198696848" lon="9.37598098828502"><ele>48.66666666666667</ele><time>2026-05-02T09:20:15Z</time></trkpt><trkpt lat="41.07178345344457" lon="9.37579526991519"><ele>50.0</ele><time>2026-05-02T09:20:16Z</time></trkpt><trkpt lat="41.071902716617245" lon="9.375621916142748"><ele>51.333333333333336</ele><time>2026-05-02T09:20:16.999Z</time></trkpt><trkpt lat="41.07203868743123" lon="9.375471359699352"><ele>52.66666666666667</ele><time>2026-05-02T09:20:17.999Z</time></trkpt><trkpt lat="41.07218936904752" lon="9.375351300828997"><ele>54.0</ele><time>2026-05-02T09:20:18.999Z</time></trkpt><trkpt lat="41.07235013753181" lon="9.375260005142001"><ele>55.0</ele><time>2026-05-02T09:20:19.999Z</time></trkpt><trkpt lat="41.072514749601964" lon="9.375198160938142"><ele>56.0</ele><time>2026-05-02T09:20:20.999Z</time></trkpt><trkpt lat="41.07268363444725" lon="9.37515829236979"><ele>57.0</ele><time>2026-05-02T09:20:21.999Z</time></trkpt><trkpt lat="41.07285424961725" lon="9.375149217049199"><ele>57.0</ele><time>2026-05-02T09:20:22.999Z</time></trkpt><trkpt lat="41.07301957067866" lon="9.37517298784723"><ele>57.0</ele><time>2026-05-02T09:20:23.999Z</time></trkpt><trkpt lat="41.07318149784802" lon="9.375220591593212"><ele>57.0</ele><time>2026-05-02T09:20:24.999Z</time></trkpt><trkpt lat="41.07334124068771" lon="9.375281788292472"><ele>58.0</ele><time>2026-05-02T09:20:25.999Z</time></trkpt><trkpt lat="41.073495925403094" lon="9.375352080508465"><ele>59.0</ele><time>2026-05-02T09:20:26.999Z</time></trkpt><trkpt lat="41.07365546343875" lon="9.375419051282995"><ele>60.0</ele><time>2026-05-02T09:20:27.999Z</time></trkpt><trkpt lat="41.07381550652369" lon="9.3754815711182"><ele>60.0</ele><time>2026-05-02T09:20:28.999Z</time></trkpt><trkpt lat="41.07397673506579" lon="9.375545525482051"><ele>60.0</ele><time>2026-05-02T09:20:29.999Z</time></trkpt><trkpt lat="41.07413849875849" lon="9.375611860609586"><ele>60.0</ele><time>2026-05-02T09:20:30.999Z</time></trkpt><trkpt lat="41.07429959365507" lon="9.375675863352306"><ele>60.0</ele><time>2026-05-02T09:20:31.999Z</time></trkpt><trkpt lat="41.074463690358506" lon="9.375734121744287"><ele>60.0</ele><time>2026-05-02T09:20:32.999Z</time></trkpt><trkpt lat="41.0746272866606" lon="9.375782825054756"><ele>60.0</ele><time>2026-05-02T09:20:33.999Z</time></trkpt><trkpt lat="41.07479500662148" lon="9.375811425470971"><ele>61.33333333333333</ele><time>2026-05-02T09:20:34.999Z</time></trkpt><trkpt lat="41.07496315241769" lon="9.375812737849166"><ele>62.666666666666664</ele><time>2026-05-02T09:20:35.999Z</time></trkpt><trkpt lat="41.07512592861205" lon="9.375777197478504"><ele>64.0</ele><time>2026-05-02T09:20:36.999Z</time></trkpt><trkpt lat="41.07528614094992" lon="9.37571230404347"><ele>64.0</ele><time>2026-05-02T09:20:37.999Z</time></trkpt><trkpt lat="41.07544082753344" lon="9.375621515146157"><ele>64.0</ele><time>2026-05-02T09:20:38.999Z</time></trkpt><trkpt lat="41.07558583330879" lon="9.375512153939091"><ele>64.0</ele><time>2026-05-02T09:20:39.999Z</time></trkpt><trkpt lat="41.075715708612016" lon="9.375376753042652"><ele>64.2</ele><time>2026-05-02T09:20:40.999Z</time></trkpt><trkpt lat="41.07581451534027" lon="9.375245830829614"><ele>64.4</ele><time>2026-05-02T09:20:41.999Z</time></trkpt><trkpt lat="41.075874070788544" lon="9.375138904807017"><ele>64.6</ele><time>2026-05-02T09:20:42.999Z</time></trkpt><trkpt lat="41.07592743453631" lon="9.37503744707085"><ele>64.8</ele><time>2026-05-02T09:20:43.999Z</time></trkpt><trkpt lat="41.07595981296385" lon="9.374965555094251"><ele>65.0</ele><time>2026-05-02T09:20:44.999Z</time></trkpt><trkpt lat="41.07598730271564" lon="9.374887544693427"><ele>65.0</ele><time>2026-05-02T09:20:46.999Z</time></trkpt><trkpt lat="41.076024510300236" lon="9.374818697613849"><ele>65.0</ele><time>2026-05-02T09:20:49.999Z</time></trkpt><trkpt lat="41.07605662690173" lon="9.37473355120894"><ele>65.0</ele><time>2026-05-02T09:20:51.999Z</time></trkpt><trkpt lat="41.07608421440476" lon="9.374654204652682"><ele>65.0</ele><time>2026-05-02T09:20:53.999Z</time></trkpt><trkpt lat="41.07613335090581" lon="9.374506132669488"><ele>65.0</ele><time>2026-05-02T09:20:55.999Z</time></trkpt><trkpt lat="41.07616558839688" lon="9.374407074884653"><ele>65.0</ele><time>2026-05-02T09:20:56.999Z</time></trkpt><trkpt lat="41.07620463763808" lon="9.374287086322603"><ele>66.0</ele><time>2026-05-02T09:20:57.999Z</time></trkpt><trkpt lat="41.07624478881372" lon="9.374163711769885"><ele>67.0</ele><time>2026-05-02T09:20:58.999Z</time></trkpt><trkpt lat="41.07627738076796" lon="9.374019142123375"><ele>68.0</ele><time>2026-05-02T09:20:59.999Z</time></trkpt><trkpt lat="41.07633649408664" lon="9.373870283570797"><ele>69.0</ele><time>2026-05-02T09:21:00.999Z</time></trkpt><trkpt lat="41.07640502530358" lon="9.373692199343232"><ele>69.0</ele><time>2026-05-02T09:21:01.999Z</time></trkpt><trkpt lat="41.076487222826195" lon="9.373503509204658"><ele>69.0</ele><time>2026-05-02T09:21:02.999Z</time></trkpt><trkpt lat="41.07660558302183" lon="9.373341738393366"><ele>69.0</ele><time>2026-05-02T09:21:03.999Z</time></trkpt><trkpt lat="41.076758410719684" lon="9.37322277567387"><ele>69.0</ele><time>2026-05-02T09:21:04.999Z</time></trkpt><trkpt lat="41.07693712427104" lon="9.373144412009133"><ele>69.0</ele><time>2026-05-02T09:21:05.999Z</time></trkpt><trkpt lat="41.077116934451695" lon="9.373115211700885"><ele>69.0</ele><time>2026-05-02T09:21:06.999Z</time></trkpt><trkpt lat="41.077301805498536" lon="9.373132760912739"><ele>69.66666666666667</ele><time>2026-05-02T09:21:07.999Z</time></trkpt><trkpt lat="41.07748874847311" lon="9.373191750851552"><ele>70.33333333333334</ele><time>2026-05-02T09:21:08.999Z</time></trkpt><trkpt lat="41.07767346516393" lon="9.373272741007499"><ele>71.0</ele><time>2026-05-02T09:21:09.999Z</time></trkpt><trkpt lat="41.07785860305125" lon="9.373358676524534"><ele>71.0</ele><time>2026-05-02T09:21:10.999Z</time></trkpt><trkpt lat="41.07804443360837" lon="9.373442541742362"><ele>71.0</ele><time>2026-05-02T09:21:11.999Z</time></trkpt><trkpt lat="41.07823209637279" lon="9.373523565490768"><ele>71.0</ele><time>2026-05-02T09:21:12.999Z</time></trkpt><trkpt lat="41.07841932635518" lon="9.373606045432911"><ele>72.0</ele><time>2026-05-02T09:21:13.999Z</time></trkpt><trkpt lat="41.07860450874621" lon="9.373688155045192"><ele>73.0</ele><time>2026-05-02T09:21:14.999Z</time></trkpt><trkpt lat="41.07878836699181" lon="9.373770166244748"><ele>74.0</ele><time>2026-05-02T09:21:15.999Z</time></trkpt><trkpt lat="41.078964234611334" lon="9.373846887483243"><ele>74.33333333333334</ele><time>2026-05-02T09:21:16.999Z</time></trkpt><trkpt lat="41.079139250067" lon="9.373921503609065"><ele>74.66666666666667</ele><time>2026-05-02T09:21:17.999Z</time></trkpt><trkpt lat="41.07931248398823" lon="9.37399442914541"><ele>75.0</ele><time>2026-05-02T09:21:18.999Z</time></trkpt><trkpt lat="41.07948242179594" lon="9.374067804277374"><ele>75.0</ele><time>2026-05-02T09:21:19.999Z</time></trkpt><trkpt lat="41.07965249986134" lon="9.374140328800808"><ele>75.0</ele><time>2026-05-02T09:21:20.999Z</time></trkpt><trkpt lat="41.07982381306903" lon="9.37421338429507"><ele>75.0</ele><time>2026-05-02T09:21:21.999Z</time></trkpt><trkpt lat="41.079992911146654" lon="9.374284456471567"><ele>76.66666666666667</ele><time>2026-05-02T09:21:22.999Z</time></trkpt><trkpt lat="41.08016429342365" lon="9.37435691248406"><ele>78.33333333333334</ele><time>2026-05-02T09:21:23.999Z</time></trkpt><trkpt lat="41.08033244893676" lon="9.374431163566394"><ele>80.0</ele><time>2026-05-02T09:21:24.999Z</time></trkpt><trkpt lat="41.08049979256886" lon="9.374503111653528"><ele>80.0</ele><time>2026-05-02T09:21:25.999Z</time></trkpt><trkpt lat="41.080653099294224" lon="9.374570207793907"><ele>80.0</ele><time>2026-05-02T09:21:26.999Z</time></trkpt><trkpt lat="41.08078444195561" lon="9.374630905675211"><ele>80.0</ele><time>2026-05-02T09:21:27.999Z</time></trkpt><trkpt lat="41.08089139274398" lon="9.374695584399893"><ele>80.0</ele><time>2026-05-02T09:21:28.999Z</time></trkpt><trkpt lat="41.08098186947466" lon="9.37478396564633"><ele>79.5</ele><time>2026-05-02T09:21:29.999Z</time></trkpt><trkpt lat="41.081059016342216" lon="9.374896864083684"><ele>79.0</ele><time>2026-05-02T09:21:30.999Z</time></trkpt><trkpt lat="41.08110945551942" lon="9.375042455252805"><ele>78.5</ele><time>2026-05-02T09:21:31.999Z</time></trkpt><trkpt lat="41.08118234120011" lon="9.375181503693641"><ele>78.0</ele><time>2026-05-02T09:21:32.999Z</time></trkpt><trkpt lat="41.08116999568327" lon="9.375399281115536"><ele>77.66666666666667</ele><time>2026-05-02T09:21:33.999Z</time></trkpt><trkpt lat="41.08119562532858" lon="9.375594615795759"><ele>77.33333333333334</ele><time>2026-05-02T09:21:34.999Z</time></trkpt><trkpt lat="41.08123570150451" lon="9.375791979974869"><ele>77.0</ele><time>2026-05-02T09:21:35.999Z</time></trkpt><trkpt lat="41.081274708656274" lon="9.375982194759043"><ele>77.0</ele><time>2026-05-02T09:21:36.999Z</time></trkpt><trkpt lat="41.081309825127335" lon="9.376169709727474"><ele>77.0</ele><time>2026-05-02T09:21:37.999Z</time></trkpt><trkpt lat="41.08133221837747" lon="9.376365879635353"><ele>77.0</ele><time>2026-05-02T09:21:38.999Z</time></trkpt><trkpt lat="41.08135570122025" lon="9.37657041283608"><ele>77.66666666666667</ele><time>2026-05-02T09:21:39.999Z</time></trkpt><trkpt lat="41.081387771108545" lon="9.376777999908647"><ele>78.33333333333333</ele><time>2026-05-02T09:21:40.999Z</time></trkpt><trkpt lat="41.08143242411918" lon="9.376980625999549"><ele>79.0</ele><time>2026-05-02T09:21:41.999Z</time></trkpt><trkpt lat="41.08148328064685" lon="9.377161803182032"><ele>78.60000000000001</ele><time>2026-05-02T09:21:42.999Z</time></trkpt><trkpt lat="41.08153266025308" lon="9.377314851761142"><ele>78.2</ele><time>2026-05-02T09:21:43.999Z</time></trkpt><trkpt lat="41.08158086663083" lon="9.377451608733045"><ele>77.80000000000001</ele><time>2026-05-02T09:21:44.999Z</time></trkpt><trkpt lat="41.08162951675936" lon="9.377538589868454"><ele>77.4</ele><time>2026-05-02T09:21:45.999Z</time></trkpt><trkpt lat="41.081694170863194" lon="9.377582590152254"><ele>77.0</ele><time>2026-05-02T09:21:46.999Z</time></trkpt><trkpt lat="41.081773011119054" lon="9.377554450442194"><ele>78.8</ele><time>2026-05-02T09:21:48.999Z</time></trkpt><trkpt lat="41.08184754372738" lon="9.377432512449936"><ele>80.6</ele><time>2026-05-02T09:21:54.999Z</time></trkpt><trkpt lat="41.081862335082725" lon="9.377304082408328"><ele>82.39999999999999</ele><time>2026-05-02T09:21:55.999Z</time></trkpt><trkpt lat="41.081864388805705" lon="9.37716004210705"><ele>84.2</ele><time>2026-05-02T09:21:56.999Z</time></trkpt><trkpt lat="41.081886924744595" lon="9.377030321793141"><ele>86.0</ele><time>2026-05-02T09:21:57.999Z</time></trkpt><trkpt lat="41.0819175393278" lon="9.376883832328296"><ele>86.25</ele><time>2026-05-02T09:21:58.999Z</time></trkpt><trkpt lat="41.081943220487005" lon="9.376722092860547"><ele>86.5</ele><time>2026-05-02T09:21:59.999Z</time></trkpt><trkpt lat="41.08196773667484" lon="9.376548169873818"><ele>86.75</ele><time>2026-05-02T09:22:00.999Z</time></trkpt><trkpt lat="41.08200481797198" lon="9.376379412547015"><ele>87.0</ele><time>2026-05-02T09:22:01.999Z</time></trkpt><trkpt lat="41.08207241434037" lon="9.376215981037703"><ele>86.33333333333333</ele><time>2026-05-02T09:22:02.999Z</time></trkpt><trkpt lat="41.08217383949386" lon="9.37606184034125"><ele>85.66666666666666</ele><time>2026-05-02T09:22:03.999Z</time></trkpt><trkpt lat="41.08229552206146" lon="9.37591837728095"><ele>85.0</ele><time>2026-05-02T09:22:04.999Z</time></trkpt><trkpt lat="41.08241888104744" lon="9.375779500427733"><ele>87.5</ele><time>2026-05-02T09:22:05.999Z</time></trkpt><trkpt lat="41.08254460011502" lon="9.375653901625345"><ele>90.0</ele><time>2026-05-02T09:22:06.999Z</time></trkpt><trkpt lat="41.082663053621324" lon="9.37554525900077"><ele>92.5</ele><time>2026-05-02T09:22:07.999Z</time></trkpt><trkpt lat="41.082782262336366" lon="9.375448714430688"><ele>95.0</ele><time>2026-05-02T09:22:08.999Z</time></trkpt><trkpt lat="41.082912814479116" lon="9.375384484975145"><ele>95.0</ele><time>2026-05-02T09:22:09.999Z</time></trkpt><trkpt lat="41.08306125879391" lon="9.375396378396188"><ele>95.0</ele><time>2026-05-02T09:22:10.999Z</time></trkpt><trkpt lat="41.083207274676546" lon="9.375480864094135"><ele>95.0</ele><time>2026-05-02T09:22:11.999Z</time></trkpt><trkpt lat="41.08334262602088" lon="9.375619599805438"><ele>98.0</ele><time>2026-05-02T09:22:12.999Z</time></trkpt><trkpt lat="41.08346919905386" lon="9.375779046655328"><ele>101.0</ele><time>2026-05-02T09:22:13.999Z</time></trkpt><trkpt lat="41.08361061482325" lon="9.37591639121182"><ele>104.0</ele><time>2026-05-02T09:22:14.999Z</time></trkpt><trkpt lat="41.083764033141826" lon="9.376009141057185"><ele>104.0</ele><time>2026-05-02T09:22:15.999Z</time></trkpt><trkpt lat="41.08393258394316" lon="9.376035056205547"><ele>104.0</ele><time>2026-05-02T09:22:16.999Z</time></trkpt><trkpt lat="41.08411147241337" lon="9.37598981288672"><ele>104.0</ele><time>2026-05-02T09:22:17.999Z</time></trkpt><trkpt lat="41.08428412185221" lon="9.37591260238943"><ele>106.33333333333333</ele><time>2026-05-02T09:22:18.999Z</time></trkpt><trkpt lat="41.08445928337415" lon="9.375843189037056"><ele>108.66666666666666</ele><time>2026-05-02T09:22:19.999Z</time></trkpt><trkpt lat="41.08463282347559" lon="9.375820729491814"><ele>111.0</ele><time>2026-05-02T09:22:20.999Z</time></trkpt><trkpt lat="41.08479144461547" lon="9.375855322126974"><ele>112.0</ele><time>2026-05-02T09:22:21.999Z</time></trkpt><trkpt lat="41.0849346033004" lon="9.37590957796639"><ele>113.0</ele><time>2026-05-02T09:22:22.999Z</time></trkpt><trkpt lat="41.08507440789923" lon="9.375919185556121"><ele>114.0</ele><time>2026-05-02T09:22:23.999Z</time></trkpt><trkpt lat="41.085219330570204" lon="9.375948498383712"><ele>115.0</ele><time>2026-05-02T09:22:24.999Z</time></trkpt><trkpt lat="41.08531043838029" lon="9.375711721429044"><ele>115.0</ele><time>2026-05-02T09:22:25.999Z</time></trkpt><trkpt lat="41.08539726851675" lon="9.375548627738139"><ele>115.0</ele><time>2026-05-02T09:22:26.999Z</time></trkpt><trkpt lat="41.08549096332294" lon="9.375405537129847"><ele>115.0</ele><time>2026-05-02T09:22:27.999Z</time></trkpt><trkpt lat="41.08559988489185" lon="9.375273186634955"><ele>115.0</ele><time>2026-05-02T09:22:28.999Z</time></trkpt><trkpt lat="41.08571430522904" lon="9.375155449205959"><ele>117.25</ele><time>2026-05-02T09:22:29.999Z</time></trkpt><trkpt lat="41.08583932646556" lon="9.375059317202885"><ele>119.5</ele><time>2026-05-02T09:22:30.999Z</time></trkpt><trkpt lat="41.085974466096935" lon="9.374992295532385"><ele>121.75</ele><time>2026-05-02T09:22:31.999Z</time></trkpt><trkpt lat="41.086117693107134" lon="9.37497196307206"><ele>124.0</ele><time>2026-05-02T09:22:32.999Z</time></trkpt><trkpt lat="41.08625973884587" lon="9.374919182572397"><ele>124.0</ele><time>2026-05-02T09:22:33.999Z</time></trkpt><trkpt lat="41.086401673189094" lon="9.37489577101309"><ele>124.0</ele><time>2026-05-02T09:22:34.999Z</time></trkpt><trkpt lat="41.08654633565171" lon="9.374863699942377"><ele>124.0</ele><time>2026-05-02T09:22:35.999Z</time></trkpt><trkpt lat="41.08668739426505" lon="9.37482708094021"><ele>124.0</ele><time>2026-05-02T09:22:36.999Z</time></trkpt><trkpt lat="41.086832277636056" lon="9.37478778260924"><ele>123.33333333333334</ele><time>2026-05-02T09:22:37.999Z</time></trkpt><trkpt lat="41.08697754397709" lon="9.374748281054295"><ele>122.66666666666666</ele><time>2026-05-02T09:22:38.999Z</time></trkpt><trkpt lat="41.087124742429694" lon="9.374711455200867"><ele>122.0</ele><time>2026-05-02T09:22:39.999Z</time></trkpt><trkpt lat="41.0872777430885" lon="9.374675984045098"><ele>122.0</ele><time>2026-05-02T09:22:40.999Z</time></trkpt><trkpt lat="41.08743368259165" lon="9.37463980457662"><ele>122.0</ele><time>2026-05-02T09:22:41.999Z</time></trkpt><trkpt lat="41.08759736915248" lon="9.374599481407758"><ele>122.0</ele><time>2026-05-02T09:22:42.999Z</time></trkpt><trkpt lat="41.087764005491344" lon="9.374555798949173"><ele>122.0</ele><time>2026-05-02T09:22:43.999Z</time></trkpt><trkpt lat="41.08793210486245" lon="9.374509949114449"><ele>122.0</ele><time>2026-05-02T09:22:44.999Z</time></trkpt><trkpt lat="41.0881052068578" lon="9.374462508982552"><ele>122.0</ele><time>2026-05-02T09:22:45.999Z</time></trkpt><trkpt lat="41.08827911698858" lon="9.374415464332122"><ele>122.33333333333333</ele><time>2026-05-02T09:22:46.999Z</time></trkpt><trkpt lat="41.08845472971629" lon="9.37437339217122"><ele>122.66666666666666</ele><time>2026-05-02T09:22:47.999Z</time></trkpt><trkpt lat="41.088633957667376" lon="9.374335015979568"><ele>123.0</ele><time>2026-05-02T09:22:48.999Z</time></trkpt><trkpt lat="41.08881678883527" lon="9.374292452444822"><ele>123.0</ele><time>2026-05-02T09:22:49.999Z</time></trkpt><trkpt lat="41.08900240151504" lon="9.374248196323661"><ele>123.0</ele><time>2026-05-02T09:22:50.999Z</time></trkpt><trkpt lat="41.08918514142638" lon="9.374202305527046"><ele>123.0</ele><time>2026-05-02T09:22:51.999Z</time></trkpt><trkpt lat="41.089372085146714" lon="9.374157817509332"><ele>124.0</ele><time>2026-05-02T09:22:52.999Z</time></trkpt><trkpt lat="41.08956063163762" lon="9.374115242678124"><ele>125.0</ele><time>2026-05-02T09:22:53.999Z</time></trkpt><trkpt lat="41.08974112620101" lon="9.374074773272822"><ele>126.0</ele><time>2026-05-02T09:22:54.999Z</time></trkpt><trkpt lat="41.08991573776815" lon="9.374038679001478"><ele>128.0</ele><time>2026-05-02T09:22:55.999Z</time></trkpt><trkpt lat="41.09009267526712" lon="9.373998977537594"><ele>130.0</ele><time>2026-05-02T09:22:56.999Z</time></trkpt><trkpt lat="41.090264100021685" lon="9.373957336732296"><ele>132.0</ele><time>2026-05-02T09:22:57.999Z</time></trkpt><trkpt lat="41.09043137555798" lon="9.373913983869336"><ele>132.0</ele><time>2026-05-02T09:22:58.999Z</time></trkpt><trkpt lat="41.090597608585504" lon="9.373872607384989"><ele>132.0</ele><time>2026-05-02T09:22:59.999Z</time></trkpt><trkpt lat="41.09075900348004" lon="9.373834738825195"><ele>132.0</ele><time>2026-05-02T09:23:00.999Z</time></trkpt><trkpt lat="41.090912950504865" lon="9.373802006889665"><ele>133.66666666666666</ele><time>2026-05-02T09:23:01.999Z</time></trkpt><trkpt lat="41.091066350138775" lon="9.373768448810914"><ele>135.33333333333331</ele><time>2026-05-02T09:23:02.999Z</time></trkpt><trkpt lat="41.09121291240893" lon="9.373732985870904"><ele>137.0</ele><time>2026-05-02T09:23:03.999Z</time></trkpt><trkpt lat="41.09135947416382" lon="9.373694720799367"><ele>137.0</ele><time>2026-05-02T09:23:04.999Z</time></trkpt><trkpt lat="41.091503181964725" lon="9.37365975379957"><ele>137.0</ele><time>2026-05-02T09:23:05.999Z</time></trkpt><trkpt lat="41.09164577503703" lon="9.373630158566266"><ele>137.0</ele><time>2026-05-02T09:23:06.999Z</time></trkpt><trkpt lat="41.091781821200044" lon="9.373610241667485"><ele>137.0</ele><time>2026-05-02T09:23:07.999Z</time></trkpt><trkpt lat="41.09190957724349" lon="9.373599992518495"><ele>137.5</ele><time>2026-05-02T09:23:08.999Z</time></trkpt><trkpt lat="41.092028143529895" lon="9.373596646903302"><ele>138.0</ele><time>2026-05-02T09:23:09.999Z</time></trkpt><trkpt lat="41.09214273887195" lon="9.373591953146732"><ele>138.5</ele><time>2026-05-02T09:23:10.999Z</time></trkpt><trkpt lat="41.092259899915994" lon="9.373577561085265"><ele>139.0</ele><time>2026-05-02T09:23:11.999Z</time></trkpt><trkpt lat="41.0923786468855" lon="9.373541616408895"><ele>138.75</ele><time>2026-05-02T09:23:12.999Z</time></trkpt><trkpt lat="41.09249585464909" lon="9.37346309911247"><ele>138.5</ele><time>2026-05-02T09:23:13.999Z</time></trkpt><trkpt lat="41.09259988769392" lon="9.373369160391919"><ele>138.25</ele><time>2026-05-02T09:23:14.999Z</time></trkpt><trkpt lat="41.09270405634548" lon="9.373261720333785"><ele>138.0</ele><time>2026-05-02T09:23:15.999Z</time></trkpt><trkpt lat="41.0928129800737" lon="9.373157025626254"><ele>138.0</ele><time>2026-05-02T09:23:16.999Z</time></trkpt><trkpt lat="41.09291773749906" lon="9.373061068523354"><ele>138.0</ele><time>2026-05-02T09:23:17.999Z</time></trkpt><trkpt lat="41.09301422592739" lon="9.372972609363647"><ele>138.0</ele><time>2026-05-02T09:23:18.999Z</time></trkpt><trkpt lat="41.09310552264626" lon="9.372889049793958"><ele>138.0</ele><time>2026-05-02T09:23:19.999Z</time></trkpt><trkpt lat="41.09319675754135" lon="9.372813698637128"><ele>137.4</ele><time>2026-05-02T09:23:20.999Z</time></trkpt><trkpt lat="41.09329197892259" lon="9.372747420919657"><ele>136.8</ele><time>2026-05-02T09:23:21.999Z</time></trkpt><trkpt lat="41.0933898720329" lon="9.372688518218249"><ele>136.2</ele><time>2026-05-02T09:23:22.999Z</time></trkpt><trkpt lat="41.09349557625262" lon="9.37265153603368"><ele>135.6</ele><time>2026-05-02T09:23:23.999Z</time></trkpt><trkpt lat="41.093606198450566" lon="9.372640670686398"><ele>135.0</ele><time>2026-05-02T09:23:24.998Z</time></trkpt><trkpt lat="41.09371470236065" lon="9.372660662356033"><ele>135.0</ele><time>2026-05-02T09:23:25.998Z</time></trkpt><trkpt lat="41.0938232307101" lon="9.372685846691665"><ele>135.0</ele><time>2026-05-02T09:23:26.998Z</time></trkpt><trkpt lat="41.093931409826915" lon="9.372703959265813"><ele>135.0</ele><time>2026-05-02T09:23:27.998Z</time></trkpt><trkpt lat="41.094039255186296" lon="9.372709139004822"><ele>135.0</ele><time>2026-05-02T09:23:28.998Z</time></trkpt><trkpt lat="41.094148108254146" lon="9.372708788260502"><ele>135.0</ele><time>2026-05-02T09:23:29.998Z</time></trkpt><trkpt lat="41.09425753342012" lon="9.37269787421826"><ele>134.25</ele><time>2026-05-02T09:23:30.998Z</time></trkpt><trkpt lat="41.09436648340086" lon="9.372670653422954"><ele>133.5</ele><time>2026-05-02T09:23:31.998Z</time></trkpt><trkpt lat="41.09447447231975" lon="9.372634770396171"><ele>132.75</ele><time>2026-05-02T09:23:32.998Z</time></trkpt><trkpt lat="41.094584683895114" lon="9.372599030269582"><ele>132.0</ele><time>2026-05-02T09:23:33.998Z</time></trkpt><trkpt lat="41.09469801476931" lon="9.372562251329303"><ele>132.0</ele><time>2026-05-02T09:23:34.998Z</time></trkpt><trkpt lat="41.09481063811725" lon="9.372526411207554"><ele>132.0</ele><time>2026-05-02T09:23:35.998Z</time></trkpt><trkpt lat="41.09492126212101" lon="9.372486422062234"><ele>132.0</ele><time>2026-05-02T09:23:36.998Z</time></trkpt><trkpt lat="41.09502239535763" lon="9.372451134677382"><ele>132.0</ele><time>2026-05-02T09:23:37.998Z</time></trkpt><trkpt lat="41.09510413772251" lon="9.372427914546142"><ele>132.0</ele><time>2026-05-02T09:23:38.998Z</time></trkpt><trkpt lat="41.09520240835834" lon="9.37242728701092"><ele>132.2</ele><time>2026-05-02T09:23:40.999Z</time></trkpt><trkpt lat="41.09527272640184" lon="9.37235549992505"><ele>132.39999999999998</ele><time>2026-05-02T09:24:39.999Z</time></trkpt><trkpt lat="41.09541155672873" lon="9.372307823820892"><ele>132.60000000000002</ele><time>2026-05-02T09:24:41.999Z</time></trkpt><trkpt lat="41.09549938446684" lon="9.372282504612523"><ele>132.8</ele><time>2026-05-02T09:24:42.999Z</time></trkpt><trkpt lat="41.095598161369715" lon="9.372249666162148"><ele>133.0</ele><time>2026-05-02T09:24:43.999Z</time></trkpt><trkpt lat="41.0957206026981" lon="9.37220550704989"><ele>133.0</ele><time>2026-05-02T09:24:44.999Z</time></trkpt><trkpt lat="41.09583915501915" lon="9.372168105167836"><ele>133.0</ele><time>2026-05-02T09:24:45.999Z</time></trkpt><trkpt lat="41.09596401006026" lon="9.372127273292431"><ele>133.0</ele><time>2026-05-02T09:24:46.999Z</time></trkpt><trkpt lat="41.09609370852908" lon="9.372087193358931"><ele>133.0</ele><time>2026-05-02T09:24:47.999Z</time></trkpt><trkpt lat="41.09622607681979" lon="9.372048351000142"><ele>133.0</ele><time>2026-05-02T09:24:48.999Z</time></trkpt><trkpt lat="41.09635780013917" lon="9.372009877705251"><ele>133.0</ele><time>2026-05-02T09:24:49.999Z</time></trkpt><trkpt lat="41.09649068033167" lon="9.37197409343815"><ele>133.0</ele><time>2026-05-02T09:24:50.999Z</time></trkpt><trkpt lat="41.09662805179628" lon="9.371939165015897"><ele>133.0</ele><time>2026-05-02T09:24:51.999Z</time></trkpt><trkpt lat="41.09677028511905" lon="9.371904013281007"><ele>133.75</ele><time>2026-05-02T09:24:52.999Z</time></trkpt><trkpt lat="41.09691464897669" lon="9.371866927051634"><ele>134.5</ele><time>2026-05-02T09:24:53.999Z</time></trkpt><trkpt lat="41.09705394202663" lon="9.371829482232103"><ele>135.25</ele><time>2026-05-02T09:24:54.999Z</time></trkpt><trkpt lat="41.097190662523026" lon="9.371791472092758"><ele>136.0</ele><time>2026-05-02T09:24:55.999Z</time></trkpt><trkpt lat="41.097327728786155" lon="9.371755246613942"><ele>135.0</ele><time>2026-05-02T09:24:56.999Z</time></trkpt><trkpt lat="41.09746346512539" lon="9.371723472022662"><ele>134.0</ele><time>2026-05-02T09:24:57.999Z</time></trkpt><trkpt lat="41.097597970800585" lon="9.371699056591337"><ele>133.0</ele><time>2026-05-02T09:24:58.999Z</time></trkpt><trkpt lat="41.0977335212657" lon="9.371678065629451"><ele>132.0</ele><time>2026-05-02T09:24:59.999Z</time></trkpt><trkpt lat="41.09786885574771" lon="9.37165950927391"><ele>132.0</ele><time>2026-05-02T09:25:00.999Z</time></trkpt><trkpt lat="41.09800775494673" lon="9.371644935184273"><ele>132.0</ele><time>2026-05-02T09:25:01.999Z</time></trkpt><trkpt lat="41.09815064737351" lon="9.371636702709125"><ele>132.0</ele><time>2026-05-02T09:25:02.999Z</time></trkpt><trkpt lat="41.098294175183746" lon="9.371636915903988"><ele>132.0</ele><time>2026-05-02T09:25:03.999Z</time></trkpt><trkpt lat="41.098437402462075" lon="9.371637637824012"><ele>131.0</ele><time>2026-05-02T09:25:04.999Z</time></trkpt><trkpt lat="41.09858497338115" lon="9.371625617666082"><ele>130.0</ele><time>2026-05-02T09:25:05.999Z</time></trkpt><trkpt lat="41.09873321206642" lon="9.371600438701584"><ele>129.0</ele><time>2026-05-02T09:25:06.999Z</time></trkpt><trkpt lat="41.09888530405589" lon="9.371575237406214"><ele>129.0</ele><time>2026-05-02T09:25:07.999Z</time></trkpt><trkpt lat="41.09904161810955" lon="9.371558410434389"><ele>129.0</ele><time>2026-05-02T09:25:08.999Z</time></trkpt><trkpt lat="41.09920708342611" lon="9.371548402119249"><ele>129.0</ele><time>2026-05-02T09:25:09.999Z</time></trkpt><trkpt lat="41.099380851889066" lon="9.371555950587158"><ele>128.33333333333334</ele><time>2026-05-02T09:25:10.999Z</time></trkpt><trkpt lat="41.09954920245947" lon="9.37157172348816"><ele>127.66666666666667</ele><time>2026-05-02T09:25:11.999Z</time></trkpt><trkpt lat="41.09972049818223" lon="9.371594660622957"><ele>127.0</ele><time>2026-05-02T09:25:12.999Z</time></trkpt><trkpt lat="41.09989127396247" lon="9.371619015452385"><ele>124.66666666666667</ele><time>2026-05-02T09:25:13.999Z</time></trkpt><trkpt lat="41.1000638991442" lon="9.371644066895547"><ele>122.33333333333334</ele><time>2026-05-02T09:25:14.999Z</time></trkpt><trkpt lat="41.100237254174836" lon="9.371656429416749"><ele>120.0</ele><time>2026-05-02T09:25:15.999Z</time></trkpt><trkpt lat="41.10041149622828" lon="9.371641892059666"><ele>120.0</ele><time>2026-05-02T09:25:16.999Z</time></trkpt><trkpt lat="41.100584439004514" lon="9.371605436568911"><ele>120.0</ele><time>2026-05-02T09:25:17.999Z</time></trkpt><trkpt lat="41.100759330587806" lon="9.371548606303072"><ele>120.0</ele><time>2026-05-02T09:25:18.999Z</time></trkpt><trkpt lat="41.100933588659885" lon="9.37146624128242"><ele>118.0</ele><time>2026-05-02T09:25:19.999Z</time></trkpt><trkpt lat="41.101098878018156" lon="9.37136668915408"><ele>116.0</ele><time>2026-05-02T09:25:20.999Z</time></trkpt><trkpt lat="41.10126333550853" lon="9.371259982325386"><ele>114.0</ele><time>2026-05-02T09:25:21.999Z</time></trkpt><trkpt lat="41.10142938735526" lon="9.371151798469556"><ele>111.66666666666666</ele><time>2026-05-02T09:25:22.999Z</time></trkpt><trkpt lat="41.10159510872671" lon="9.371054073833687"><ele>109.33333333333333</ele><time>2026-05-02T09:25:23.999Z</time></trkpt><trkpt lat="41.101756593210666" lon="9.370955353903527"><ele>107.0</ele><time>2026-05-02T09:25:24.999Z</time></trkpt><trkpt lat="41.10192559957183" lon="9.370855947803719"><ele>107.0</ele><time>2026-05-02T09:25:25.999Z</time></trkpt><trkpt lat="41.102099122810856" lon="9.37075736795502"><ele>107.0</ele><time>2026-05-02T09:25:26.999Z</time></trkpt><trkpt lat="41.1022703036407" lon="9.370686531294366"><ele>107.0</ele><time>2026-05-02T09:25:27.999Z</time></trkpt><trkpt lat="41.10244164588097" lon="9.370645753528287"><ele>106.33333333333333</ele><time>2026-05-02T09:25:28.999Z</time></trkpt><trkpt lat="41.10260885980201" lon="9.370607080480076"><ele>105.66666666666666</ele><time>2026-05-02T09:25:29.999Z</time></trkpt><trkpt lat="41.10278064228446" lon="9.370555774320591"><ele>105.0</ele><time>2026-05-02T09:25:30.998Z</time></trkpt><trkpt lat="41.10295094969879" lon="9.370494442298854"><ele>105.0</ele><time>2026-05-02T09:25:31.998Z</time></trkpt><trkpt lat="41.10311479774789" lon="9.370415986091226"><ele>105.0</ele><time>2026-05-02T09:25:32.998Z</time></trkpt><trkpt lat="41.10327855066082" lon="9.370317316585464"><ele>105.0</ele><time>2026-05-02T09:25:33.998Z</time></trkpt><trkpt lat="41.10343534238532" lon="9.37020570289725"><ele>102.0</ele><time>2026-05-02T09:25:34.998Z</time></trkpt><trkpt lat="41.10359300477193" lon="9.370092302632266"><ele>99.0</ele><time>2026-05-02T09:25:35.998Z</time></trkpt><trkpt lat="41.10376141470548" lon="9.369996003083504"><ele>96.0</ele><time>2026-05-02T09:25:36.998Z</time></trkpt><trkpt lat="41.10392340130751" lon="9.369905022910022"><ele>94.66666666666667</ele><time>2026-05-02T09:25:37.998Z</time></trkpt><trkpt lat="41.104097433862194" lon="9.36983906597488"><ele>93.33333333333334</ele><time>2026-05-02T09:25:38.998Z</time></trkpt><trkpt lat="41.10426957843019" lon="9.369795030747522"><ele>92.0</ele><time>2026-05-02T09:25:39.998Z</time></trkpt><trkpt lat="41.104445795524846" lon="9.369756966208966"><ele>92.0</ele><time>2026-05-02T09:25:40.998Z</time></trkpt><trkpt lat="41.10462043823913" lon="9.369720143775027"><ele>92.0</ele><time>2026-05-02T09:25:41.998Z</time></trkpt><trkpt lat="41.10479603222025" lon="9.369676589603392"><ele>92.0</ele><time>2026-05-02T09:25:42.998Z</time></trkpt><trkpt lat="41.10496918424684" lon="9.369625259853597"><ele>92.33333333333334</ele><time>2026-05-02T09:25:43.999Z</time></trkpt><trkpt lat="41.10514255720025" lon="9.36956311263678"><ele>92.66666666666667</ele><time>2026-05-02T09:25:44.999Z</time></trkpt><trkpt lat="41.105313340583365" lon="9.36948383492063"><ele>93.0</ele><time>2026-05-02T09:25:45.999Z</time></trkpt><trkpt lat="41.10547552152368" lon="9.369381451293696"><ele>93.0</ele><time>2026-05-02T09:25:46.999Z</time></trkpt><trkpt lat="41.10563395691222" lon="9.369256994416064"><ele>93.0</ele><time>2026-05-02T09:25:47.999Z</time></trkpt><trkpt lat="41.10579152458302" lon="9.369135881508047"><ele>93.0</ele><time>2026-05-02T09:25:48.999Z</time></trkpt><trkpt lat="41.105953284765484" lon="9.369009731357"><ele>91.33333333333333</ele><time>2026-05-02T09:25:49.999Z</time></trkpt><trkpt lat="41.106116982077374" lon="9.368885946027765"><ele>89.66666666666666</ele><time>2026-05-02T09:25:50.999Z</time></trkpt><trkpt lat="41.10627934179483" lon="9.368765706645185"><ele>88.0</ele><time>2026-05-02T09:25:51.999Z</time></trkpt><trkpt lat="41.106446841120366" lon="9.368642158574001"><ele>87.0</ele><time>2026-05-02T09:25:52.999Z</time></trkpt><trkpt lat="41.106611856040026" lon="9.368521320971205"><ele>86.0</ele><time>2026-05-02T09:25:53.999Z</time></trkpt><trkpt lat="41.10678114458381" lon="9.3683954895152"><ele>85.0</ele><time>2026-05-02T09:25:54.999Z</time></trkpt><trkpt lat="41.1069510066587" lon="9.368270718312303"><ele>85.0</ele><time>2026-05-02T09:25:55.999Z</time></trkpt><trkpt lat="41.107120955705014" lon="9.368147145609498"><ele>85.0</ele><time>2026-05-02T09:25:56.999Z</time></trkpt><trkpt lat="41.107287381893826" lon="9.36802431389389"><ele>85.0</ele><time>2026-05-02T09:25:57.999Z</time></trkpt><trkpt lat="41.10745699392458" lon="9.367894042403067"><ele>85.0</ele><time>2026-05-02T09:25:58.999Z</time></trkpt><trkpt lat="41.1076251567033" lon="9.367776722512"><ele>85.0</ele><time>2026-05-02T09:25:59.999Z</time></trkpt><trkpt lat="41.10780197522858" lon="9.367674470187074"><ele>85.0</ele><time>2026-05-02T09:26:00.999Z</time></trkpt><trkpt lat="41.1079829178804" lon="9.367589601199873"><ele>85.0</ele><time>2026-05-02T09:26:01.999Z</time></trkpt><trkpt lat="41.108168956308084" lon="9.367522725208667"><ele>85.0</ele><time>2026-05-02T09:26:02.999Z</time></trkpt><trkpt lat="41.1083577992912" lon="9.367457273520575"><ele>85.0</ele><time>2026-05-02T09:26:03.999Z</time></trkpt><trkpt lat="41.10854427583057" lon="9.367391616078796"><ele>84.33333333333333</ele><time>2026-05-02T09:26:04.999Z</time></trkpt><trkpt lat="41.10873090497758" lon="9.367323945269607"><ele>83.66666666666667</ele><time>2026-05-02T09:26:05.999Z</time></trkpt><trkpt lat="41.10892110498983" lon="9.367254880126481"><ele>83.0</ele><time>2026-05-02T09:26:06.999Z</time></trkpt><trkpt lat="41.10910748057242" lon="9.367183297805747"><ele>84.33333333333334</ele><time>2026-05-02T09:26:07.999Z</time></trkpt><trkpt lat="41.109294790838135" lon="9.367102499325112"><ele>85.66666666666667</ele><time>2026-05-02T09:26:08.999Z</time></trkpt><trkpt lat="41.10947541239439" lon="9.367007047775019"><ele>87.0</ele><time>2026-05-02T09:26:09.999Z</time></trkpt><trkpt lat="41.10965381090678" lon="9.366902385004591"><ele>87.0</ele><time>2026-05-02T09:26:10.999Z</time></trkpt><trkpt lat="41.109828722249794" lon="9.366787782610823"><ele>87.0</ele><time>2026-05-02T09:26:11.999Z</time></trkpt><trkpt lat="41.11000108938426" lon="9.366687426216863"><ele>87.0</ele><time>2026-05-02T09:26:12.999Z</time></trkpt><trkpt lat="41.11016681820075" lon="9.366584791034905"><ele>86.66666666666667</ele><time>2026-05-02T09:26:13.999Z</time></trkpt><trkpt lat="41.11032469484329" lon="9.366493721741493"><ele>86.33333333333334</ele><time>2026-05-02T09:26:14.999Z</time></trkpt><trkpt lat="41.11048143312399" lon="9.366421096258405"><ele>86.0</ele><time>2026-05-02T09:26:15.999Z</time></trkpt><trkpt lat="41.11063855530747" lon="9.366360160423747"><ele>85.33333333333334</ele><time>2026-05-02T09:26:16.999Z</time></trkpt><trkpt lat="41.110798192862234" lon="9.366306383313084"><ele>84.66666666666667</ele><time>2026-05-02T09:26:17.999Z</time></trkpt><trkpt lat="41.11096082101737" lon="9.366247424115969"><ele>84.0</ele><time>2026-05-02T09:26:18.999Z</time></trkpt><trkpt lat="41.111119260060214" lon="9.366179939006251"><ele>84.0</ele><time>2026-05-02T09:26:19.999Z</time></trkpt><trkpt lat="41.11128103262408" lon="9.366109118886316"><ele>84.0</ele><time>2026-05-02T09:26:20.999Z</time></trkpt><trkpt lat="41.11143679127567" lon="9.366044608355583"><ele>84.0</ele><time>2026-05-02T09:26:21.999Z</time></trkpt><trkpt lat="41.11158616843194" lon="9.365982518957582"><ele>84.0</ele><time>2026-05-02T09:26:22.999Z</time></trkpt><trkpt lat="41.11173505357472" lon="9.36592219509178"><ele>84.0</ele><time>2026-05-02T09:26:23.999Z</time></trkpt><trkpt lat="41.1118760215339" lon="9.365867329694975"><ele>84.0</ele><time>2026-05-02T09:26:24.999Z</time></trkpt><trkpt lat="41.11201524759797" lon="9.365815919186693"><ele>84.0</ele><time>2026-05-02T09:26:25.999Z</time></trkpt><trkpt lat="41.11215368542382" lon="9.365768511528929"><ele>84.0</ele><time>2026-05-02T09:26:26.999Z</time></trkpt><trkpt lat="41.112289460339696" lon="9.365721246518417"><ele>84.0</ele><time>2026-05-02T09:26:27.999Z</time></trkpt><trkpt lat="41.11241838515564" lon="9.365670341829116"><ele>84.0</ele><time>2026-05-02T09:26:28.999Z</time></trkpt><trkpt lat="41.11255088824479" lon="9.365617824170299"><ele>84.0</ele><time>2026-05-02T09:26:29.999Z</time></trkpt><trkpt lat="41.11267965261746" lon="9.365566886701169"><ele>84.75</ele><time>2026-05-02T09:26:30.999Z</time></trkpt><trkpt lat="41.11281466913386" lon="9.365518200054014"><ele>85.5</ele><time>2026-05-02T09:26:31.999Z</time></trkpt><trkpt lat="41.112949962924674" lon="9.365480241265564"><ele>86.25</ele><time>2026-05-02T09:26:32.999Z</time></trkpt><trkpt lat="41.11309409093125" lon="9.36545307971146"><ele>87.0</ele><time>2026-05-02T09:26:33.999Z</time></trkpt><trkpt lat="41.11324049936988" lon="9.365440697855911"><ele>87.0</ele><time>2026-05-02T09:26:34.999Z</time></trkpt><trkpt lat="41.113388459714535" lon="9.365444909212036"><ele>87.0</ele><time>2026-05-02T09:26:35.999Z</time></trkpt><trkpt lat="41.11354363586225" lon="9.365461897784215"><ele>87.0</ele><time>2026-05-02T09:26:36.999Z</time></trkpt><trkpt lat="41.113696535897326" lon="9.36548209568082"><ele>87.0</ele><time>2026-05-02T09:26:37.999Z</time></trkpt><trkpt lat="41.113853741391665" lon="9.365508718244497"><ele>87.0</ele><time>2026-05-02T09:26:38.999Z</time></trkpt><trkpt lat="41.11400537662917" lon="9.365539086758002"><ele>87.0</ele><time>2026-05-02T09:26:39.999Z</time></trkpt><trkpt lat="41.114163697180196" lon="9.365575289421026"><ele>85.0</ele><time>2026-05-02T09:26:40.999Z</time></trkpt><trkpt lat="41.11431949105887" lon="9.365608530010702"><ele>83.0</ele><time>2026-05-02T09:26:41.999Z</time></trkpt><trkpt lat="41.11447959505505" lon="9.365642360470343"><ele>81.0</ele><time>2026-05-02T09:26:42.999Z</time></trkpt><trkpt lat="41.114635816479215" lon="9.365675285054744"><ele>81.0</ele><time>2026-05-02T09:26:43.999Z</time></trkpt><trkpt lat="41.114798356344465" lon="9.365709310862519"><ele>81.0</ele><time>2026-05-02T09:26:44.999Z</time></trkpt><trkpt lat="41.11495860212072" lon="9.3657379705456"><ele>81.0</ele><time>2026-05-02T09:26:45.999Z</time></trkpt><trkpt lat="41.11511816066632" lon="9.365769022310063"><ele>80.33333333333333</ele><time>2026-05-02T09:26:46.999Z</time></trkpt><trkpt lat="41.115282258445" lon="9.365805162443886"><ele>79.66666666666666</ele><time>2026-05-02T09:26:47.999Z</time></trkpt><trkpt lat="41.11544395675441" lon="9.365841743989812"><ele>79.0</ele><time>2026-05-02T09:26:48.999Z</time></trkpt><trkpt lat="41.11560950055945" lon="9.365878325793387"><ele>79.0</ele><time>2026-05-02T09:26:49.999Z</time></trkpt><trkpt lat="41.11577109533791" lon="9.36591270827149"><ele>79.0</ele><time>2026-05-02T09:26:50.999Z</time></trkpt><trkpt lat="41.115935075556386" lon="9.365947476174062"><ele>79.0</ele><time>2026-05-02T09:26:51.999Z</time></trkpt><trkpt lat="41.116098329829285" lon="9.365987167573289"><ele>79.0</ele><time>2026-05-02T09:26:52.999Z</time></trkpt><trkpt lat="41.116260477276654" lon="9.366021417806722"><ele>79.0</ele><time>2026-05-02T09:26:53.999Z</time></trkpt><trkpt lat="41.11642628066319" lon="9.36605358277623"><ele>79.0</ele><time>2026-05-02T09:26:54.999Z</time></trkpt><trkpt lat="41.116592242189306" lon="9.366079615617666"><ele>78.0</ele><time>2026-05-02T09:26:55.999Z</time></trkpt><trkpt lat="41.11675916703777" lon="9.36610054366785"><ele>77.0</ele><time>2026-05-02T09:26:56.999Z</time></trkpt><trkpt lat="41.116927006343296" lon="9.36611894468529"><ele>76.0</ele><time>2026-05-02T09:26:57.999Z</time></trkpt><trkpt lat="41.1170939946921" lon="9.366132159771535"><ele>76.0</ele><time>2026-05-02T09:26:58.999Z</time></trkpt><trkpt lat="41.117262497765466" lon="9.366145110962494"><ele>76.0</ele><time>2026-05-02T09:26:59.999Z</time></trkpt><trkpt lat="41.11743306634713" lon="9.366165325289904"><ele>76.0</ele><time>2026-05-02T09:27:00.999Z</time></trkpt><trkpt lat="41.11760282405781" lon="9.366184423425587"><ele>74.33333333333333</ele><time>2026-05-02T09:27:01.999Z</time></trkpt><trkpt lat="41.11777361079267" lon="9.366201933485161"><ele>72.66666666666667</ele><time>2026-05-02T09:27:02.999Z</time></trkpt><trkpt lat="41.11794426950538" lon="9.366219945817237"><ele>71.0</ele><time>2026-05-02T09:27:03.999Z</time></trkpt><trkpt lat="41.118114674493604" lon="9.36623663075723"><ele>69.33333333333334</ele><time>2026-05-02T09:27:04.999Z</time></trkpt><trkpt lat="41.11828169517297" lon="9.366255982680933"><ele>67.66666666666667</ele><time>2026-05-02T09:27:05.999Z</time></trkpt><trkpt lat="41.11844124374873" lon="9.366275030607925"><ele>66.0</ele><time>2026-05-02T09:27:06.999Z</time></trkpt><trkpt lat="41.118592866305576" lon="9.36629105023801"><ele>66.0</ele><time>2026-05-02T09:27:07.999Z</time></trkpt><trkpt lat="41.118731235760244" lon="9.366304422444271"><ele>66.0</ele><time>2026-05-02T09:27:08.999Z</time></trkpt><trkpt lat="41.11885582544776" lon="9.366316557489828"><ele>66.0</ele><time>2026-05-02T09:27:09.999Z</time></trkpt><trkpt lat="41.11896107352069" lon="9.36632663587225"><ele>66.0</ele><time>2026-05-02T09:27:10.999Z</time></trkpt><trkpt lat="41.119051807305794" lon="9.366335226919693"><ele>66.0</ele><time>2026-05-02T09:27:11.999Z</time></trkpt><trkpt lat="41.119148750774094" lon="9.36634753899735"><ele>66.0</ele><time>2026-05-02T09:27:12.999Z</time></trkpt><trkpt lat="41.11925976825103" lon="9.366363591447614"><ele>66.0</ele><time>2026-05-02T09:27:13.999Z</time></trkpt><trkpt lat="41.11938011675802" lon="9.366373535395512"><ele>66.0</ele><time>2026-05-02T09:27:14.999Z</time></trkpt><trkpt lat="41.119514816531016" lon="9.366388128419924"><ele>66.0</ele><time>2026-05-02T09:27:15.999Z</time></trkpt><trkpt lat="41.11966354930124" lon="9.36640510729823"><ele>66.0</ele><time>2026-05-02T09:27:16.999Z</time></trkpt><trkpt lat="41.1198057829086" lon="9.366423240995262"><ele>66.0</ele><time>2026-05-02T09:27:17.999Z</time></trkpt><trkpt lat="41.119941690707584" lon="9.366438362076812"><ele>66.0</ele><time>2026-05-02T09:27:18.999Z</time></trkpt><trkpt lat="41.12006716001584" lon="9.366451491737601"><ele>66.2</ele><time>2026-05-02T09:27:19.999Z</time></trkpt><trkpt lat="41.12017928646104" lon="9.366459275627342"><ele>66.39999999999999</ele><time>2026-05-02T09:27:20.999Z</time></trkpt><trkpt lat="41.12028140419772" lon="9.36646784356841"><ele>66.6</ele><time>2026-05-02T09:27:21.999Z</time></trkpt><trkpt lat="41.120371538272884" lon="9.366478038042604"><ele>66.8</ele><time>2026-05-02T09:27:22.999Z</time></trkpt><trkpt lat="41.12044357083269" lon="9.366496145959587"><ele>67.0</ele><time>2026-05-02T09:27:24.999Z</time></trkpt><trkpt lat="41.12042090079674" lon="9.366334905294783"><ele>67.33333333333333</ele><time>2026-05-02T09:27:26.999Z</time></trkpt><trkpt lat="41.1204208798208" lon="9.366211310158599"><ele>67.66666666666666</ele><time>2026-05-02T09:27:29.999Z</time></trkpt><trkpt lat="41.120410393744244" lon="9.366069970554504"><ele>68.0</ele><time>2026-05-02T09:27:31.999Z</time></trkpt><trkpt lat="41.12041820462164" lon="9.36596715330038"><ele>68.33333333333333</ele><time>2026-05-02T09:27:33.999Z</time></trkpt><trkpt lat="41.12039997501349" lon="9.365869044949022"><ele>68.66666666666667</ele><time>2026-05-02T09:27:37.999Z</time></trkpt><trkpt lat="41.120374236879236" lon="9.365790282725856"><ele>69.0</ele><time>2026-05-02T09:27:39.999Z</time></trkpt><trkpt lat="41.12030911478679" lon="9.365625452672358"><ele>69.8</ele><time>2026-05-02T09:27:41.999Z</time></trkpt><trkpt lat="41.12029044342085" lon="9.36549805739298"><ele>70.60000000000001</ele><time>2026-05-02T09:27:42.999Z</time></trkpt><trkpt lat="41.12025914538497" lon="9.365384913383679"><ele>71.4</ele><time>2026-05-02T09:27:43.999Z</time></trkpt><trkpt lat="41.12022440810433" lon="9.36525933624006"><ele>72.2</ele><time>2026-05-02T09:27:44.999Z</time></trkpt><trkpt lat="41.120186866664454" lon="9.365126379985051"><ele>73.0</ele><time>2026-05-02T09:27:45.999Z</time></trkpt><trkpt lat="41.12012810872232" lon="9.364971592494571"><ele>73.0</ele><time>2026-05-02T09:27:46.999Z</time></trkpt><trkpt lat="41.12008768007928" lon="9.364818478739357"><ele>73.0</ele><time>2026-05-02T09:27:47.999Z</time></trkpt><trkpt lat="41.12004232300161" lon="9.364653919093593"><ele>73.0</ele><time>2026-05-02T09:27:48.999Z</time></trkpt><trkpt lat="41.1199971536264" lon="9.364483608310143"><ele>73.0</ele><time>2026-05-02T09:27:49.999Z</time></trkpt><trkpt lat="41.11996187527332" lon="9.364315866987114"><ele>74.5</ele><time>2026-05-02T09:27:50.999Z</time></trkpt><trkpt lat="41.11992632692659" lon="9.36415454683971"><ele>76.0</ele><time>2026-05-02T09:27:51.999Z</time></trkpt><trkpt lat="41.11990503241204" lon="9.363993864265455"><ele>77.5</ele><time>2026-05-02T09:27:52.999Z</time></trkpt><trkpt lat="41.11986627919435" lon="9.363839257244623"><ele>79.0</ele><time>2026-05-02T09:27:53.999Z</time></trkpt><trkpt lat="41.119828955545486" lon="9.363693734088661"><ele>79.80000000000001</ele><time>2026-05-02T09:27:54.999Z</time></trkpt><trkpt lat="41.11977483217142" lon="9.363557810928109"><ele>80.60000000000001</ele><time>2026-05-02T09:27:55.999Z</time></trkpt><trkpt lat="41.119732578940734" lon="9.363414279484601"><ele>81.4</ele><time>2026-05-02T09:27:56.999Z</time></trkpt><trkpt lat="41.119697694911416" lon="9.363276066791627"><ele>82.2</ele><time>2026-05-02T09:27:57.999Z</time></trkpt><trkpt lat="41.119676702073164" lon="9.363139421757163"><ele>83.0</ele><time>2026-05-02T09:27:58.999Z</time></trkpt><trkpt lat="41.119651191823785" lon="9.363003626713033"><ele>84.75</ele><time>2026-05-02T09:27:59.999Z</time></trkpt><trkpt lat="41.1196395783493" lon="9.362849154115384"><ele>86.5</ele><time>2026-05-02T09:28:00.999Z</time></trkpt><trkpt lat="41.119620022867224" lon="9.362676825250833"><ele>88.25</ele><time>2026-05-02T09:28:01.999Z</time></trkpt><trkpt lat="41.11958134611042" lon="9.362505795572204"><ele>90.0</ele><time>2026-05-02T09:28:02.999Z</time></trkpt><trkpt lat="41.119560926155515" lon="9.362339295632562"><ele>91.25</ele><time>2026-05-02T09:28:03.999Z</time></trkpt><trkpt lat="41.119540207509885" lon="9.362173468882569"><ele>92.5</ele><time>2026-05-02T09:28:04.999Z</time></trkpt><trkpt lat="41.11951630883351" lon="9.361997377091392"><ele>93.75</ele><time>2026-05-02T09:28:05.999Z</time></trkpt><trkpt lat="41.119489951107646" lon="9.361816660459438"><ele>95.0</ele><time>2026-05-02T09:28:06.999Z</time></trkpt><trkpt lat="41.11946297706814" lon="9.361634508516458"><ele>95.0</ele><time>2026-05-02T09:28:07.999Z</time></trkpt><trkpt lat="41.119438688729765" lon="9.361457580511926"><ele>95.0</ele><time>2026-05-02T09:28:08.999Z</time></trkpt><trkpt lat="41.119419143359096" lon="9.361281989801737"><ele>95.0</ele><time>2026-05-02T09:28:09.999Z</time></trkpt><trkpt lat="41.119398187729054" lon="9.361104636605262"><ele>95.0</ele><time>2026-05-02T09:28:10.999Z</time></trkpt><trkpt lat="41.1193666230781" lon="9.360929040129518"><ele>97.25</ele><time>2026-05-02T09:28:11.999Z</time></trkpt><trkpt lat="41.119315336740925" lon="9.360761001551747"><ele>99.5</ele><time>2026-05-02T09:28:12.999Z</time></trkpt><trkpt lat="41.11926647207842" lon="9.360594557409309"><ele>101.75</ele><time>2026-05-02T09:28:13.999Z</time></trkpt><trkpt lat="41.11924550054439" lon="9.36042771402418"><ele>104.0</ele><time>2026-05-02T09:28:14.999Z</time></trkpt><trkpt lat="41.1192520894218" lon="9.360254174290263"><ele>104.75</ele><time>2026-05-02T09:28:15.999Z</time></trkpt><trkpt lat="41.11927347286597" lon="9.360072901422416"><ele>105.5</ele><time>2026-05-02T09:28:16.999Z</time></trkpt><trkpt lat="41.11929833675361" lon="9.359883607056842"><ele>106.25</ele><time>2026-05-02T09:28:17.999Z</time></trkpt><trkpt lat="41.11932212454526" lon="9.359690609040792"><ele>107.0</ele><time>2026-05-02T09:28:18.999Z</time></trkpt><trkpt lat="41.11934158967169" lon="9.359492174153711"><ele>108.0</ele><time>2026-05-02T09:28:19.999Z</time></trkpt><trkpt lat="41.11935717027435" lon="9.359291350979678"><ele>109.0</ele><time>2026-05-02T09:28:20.999Z</time></trkpt><trkpt lat="41.11937801674237" lon="9.359089246298378"><ele>110.0</ele><time>2026-05-02T09:28:21.999Z</time></trkpt><trkpt lat="41.1194096112339" lon="9.358893437400148"><ele>111.0</ele><time>2026-05-02T09:28:22.999Z</time></trkpt><trkpt lat="41.11946470489071" lon="9.358706299829532"><ele>112.0</ele><time>2026-05-02T09:28:23.999Z</time></trkpt><trkpt lat="41.11952580720878" lon="9.35852114212239"><ele>113.0</ele><time>2026-05-02T09:28:24.999Z</time></trkpt><trkpt lat="41.11958917214508" lon="9.358321924563073"><ele>113.0</ele><time>2026-05-02T09:28:25.999Z</time></trkpt><trkpt lat="41.11964935179942" lon="9.358128777924072"><ele>113.0</ele><time>2026-05-02T09:28:26.999Z</time></trkpt><trkpt lat="41.119707056094285" lon="9.357937583682334"><ele>113.0</ele><time>2026-05-02T09:28:27.999Z</time></trkpt><trkpt lat="41.11976147418532" lon="9.357752313245085"><ele>112.33333333333333</ele><time>2026-05-02T09:28:28.999Z</time></trkpt><trkpt lat="41.11981672313664" lon="9.357566132850671"><ele>111.66666666666666</ele><time>2026-05-02T09:28:29.999Z</time></trkpt><trkpt lat="41.1198743681599" lon="9.357374420530734"><ele>111.0</ele><time>2026-05-02T09:28:30.999Z</time></trkpt><trkpt lat="41.11993266523429" lon="9.357182325159071"><ele>111.0</ele><time>2026-05-02T09:28:31.999Z</time></trkpt><trkpt lat="41.11998962667896" lon="9.35698596507432"><ele>111.0</ele><time>2026-05-02T09:28:32.999Z</time></trkpt><trkpt lat="41.12004764433768" lon="9.35678881585521"><ele>111.0</ele><time>2026-05-02T09:28:33.999Z</time></trkpt><trkpt lat="41.12010536084476" lon="9.356591124610555"><ele>111.0</ele><time>2026-05-02T09:28:35Z</time></trkpt><trkpt lat="41.12016424262975" lon="9.35639649738724"><ele>111.0</ele><time>2026-05-02T09:28:36Z</time></trkpt><trkpt lat="41.12022144575278" lon="9.356207061141781"><ele>111.0</ele><time>2026-05-02T09:28:37Z</time></trkpt><trkpt lat="41.12027490925595" lon="9.356019234384913"><ele>112.0</ele><time>2026-05-02T09:28:38Z</time></trkpt><trkpt lat="41.120326898326404" lon="9.355836398952244"><ele>113.0</ele><time>2026-05-02T09:28:39Z</time></trkpt><trkpt lat="41.12038714257162" lon="9.35565722779716"><ele>114.0</ele><time>2026-05-02T09:28:40Z</time></trkpt><trkpt lat="41.120483308281806" lon="9.355516492977497"><ele>115.0</ele><time>2026-05-02T09:28:41Z</time></trkpt><trkpt lat="41.120588687102185" lon="9.35537068779701"><ele>116.66666666666667</ele><time>2026-05-02T09:28:42Z</time></trkpt><trkpt lat="41.12070124030461" lon="9.355234736729535"><ele>118.33333333333334</ele><time>2026-05-02T09:28:43Z</time></trkpt><trkpt lat="41.12084230495775" lon="9.355127680878155"><ele>120.0</ele><time>2026-05-02T09:28:44Z</time></trkpt><trkpt lat="41.1209925391307" lon="9.355025381987156"><ele>120.0</ele><time>2026-05-02T09:28:45Z</time></trkpt><trkpt lat="41.121153027125715" lon="9.354923061835072"><ele>120.0</ele><time>2026-05-02T09:28:46Z</time></trkpt><trkpt lat="41.121305881300586" lon="9.354826089313246"><ele>120.0</ele><time>2026-05-02T09:28:47Z</time></trkpt><trkpt lat="41.121454013223214" lon="9.354731544128754"><ele>121.5</ele><time>2026-05-02T09:28:48Z</time></trkpt><trkpt lat="41.12160730627919" lon="9.35463260813036"><ele>123.0</ele><time>2026-05-02T09:28:49Z</time></trkpt><trkpt lat="41.12174373945647" lon="9.354537300799525"><ele>124.5</ele><time>2026-05-02T09:28:50Z</time></trkpt><trkpt lat="41.121853941475656" lon="9.354461106642837"><ele>126.0</ele><time>2026-05-02T09:28:51Z</time></trkpt><trkpt lat="41.12194749556927" lon="9.35438946098556"><ele>126.0</ele><time>2026-05-02T09:28:52Z</time></trkpt><trkpt lat="41.12203050382423" lon="9.354304234004008"><ele>126.0</ele><time>2026-05-02T09:28:53Z</time></trkpt><trkpt lat="41.12211451020021" lon="9.354198446556333"><ele>126.0</ele><time>2026-05-02T09:28:54Z</time></trkpt><trkpt lat="41.12219349487044" lon="9.354067095679065"><ele>126.0</ele><time>2026-05-02T09:28:55Z</time></trkpt><trkpt lat="41.12226731807084" lon="9.353921331740725"><ele>127.5</ele><time>2026-05-02T09:28:56Z</time></trkpt><trkpt lat="41.122315767765954" lon="9.353748836981179"><ele>129.0</ele><time>2026-05-02T09:28:57Z</time></trkpt><trkpt lat="41.122334358953815" lon="9.353559660808857"><ele>130.5</ele><time>2026-05-02T09:28:58Z</time></trkpt><trkpt lat="41.12232953336041" lon="9.353365868842797"><ele>132.0</ele><time>2026-05-02T09:28:59Z</time></trkpt><trkpt lat="41.12232496515642" lon="9.353178087989104"><ele>133.0</ele><time>2026-05-02T09:29:00Z</time></trkpt><trkpt lat="41.12231523862165" lon="9.352989238779562"><ele>134.0</ele><time>2026-05-02T09:29:01Z</time></trkpt><trkpt lat="41.12230107616758" lon="9.352795749372435"><ele>135.0</ele><time>2026-05-02T09:29:02Z</time></trkpt><trkpt lat="41.12229596659173" lon="9.352600627328846"><ele>136.0</ele><time>2026-05-02T09:29:03Z</time></trkpt><trkpt lat="41.1223037751904" lon="9.35240547400647"><ele>136.0</ele><time>2026-05-02T09:29:04Z</time></trkpt><trkpt lat="41.122333685767344" lon="9.352213046264119"><ele>136.0</ele><time>2026-05-02T09:29:05Z</time></trkpt><trkpt lat="41.12242553492334" lon="9.352029843468856"><ele>136.0</ele><time>2026-05-02T09:29:06Z</time></trkpt><trkpt lat="41.12250703866429" lon="9.351830890628662"><ele>132.33333333333334</ele><time>2026-05-02T09:29:07Z</time></trkpt><trkpt lat="41.122614729583944" lon="9.351627443475868"><ele>128.66666666666666</ele><time>2026-05-02T09:29:08Z</time></trkpt><trkpt lat="41.12270749533444" lon="9.351443906171015"><ele>125.0</ele><time>2026-05-02T09:29:09Z</time></trkpt><trkpt lat="41.12280424347878" lon="9.351251441684731"><ele>125.0</ele><time>2026-05-02T09:29:10Z</time></trkpt><trkpt lat="41.122905473973695" lon="9.351051002154417"><ele>125.0</ele><time>2026-05-02T09:29:11Z</time></trkpt><trkpt lat="41.12301126034909" lon="9.35085367542683"><ele>125.0</ele><time>2026-05-02T09:29:12Z</time></trkpt><trkpt lat="41.1231163036857" lon="9.350654488402103"><ele>123.0</ele><time>2026-05-02T09:29:13Z</time></trkpt><trkpt lat="41.123221068544474" lon="9.35044816419288"><ele>121.0</ele><time>2026-05-02T09:29:14Z</time></trkpt><trkpt lat="41.123326718356005" lon="9.350233575736675"><ele>119.0</ele><time>2026-05-02T09:29:15Z</time></trkpt><trkpt lat="41.1234311588983" lon="9.350028654892924"><ele>119.0</ele><time>2026-05-02T09:29:16Z</time></trkpt><trkpt lat="41.12353300305973" lon="9.349830094275093"><ele>119.0</ele><time>2026-05-02T09:29:17Z</time></trkpt><trkpt lat="41.12363436545411" lon="9.349645532337043"><ele>119.0</ele><time>2026-05-02T09:29:18Z</time></trkpt><trkpt lat="41.123739339682295" lon="9.349451675690965"><ele>120.0</ele><time>2026-05-02T09:29:19Z</time></trkpt><trkpt lat="41.123837760209014" lon="9.349244582889588"><ele>121.0</ele><time>2026-05-02T09:29:20Z</time></trkpt><trkpt lat="41.123930723505836" lon="9.349027138251111"><ele>122.0</ele><time>2026-05-02T09:29:21Z</time></trkpt><trkpt lat="41.12401591875119" lon="9.348805583164504"><ele>122.0</ele><time>2026-05-02T09:29:22Z</time></trkpt><trkpt lat="41.1241007430579" lon="9.348579371002645"><ele>122.0</ele><time>2026-05-02T09:29:23Z</time></trkpt><trkpt lat="41.12418320199069" lon="9.348351892115618"><ele>122.0</ele><time>2026-05-02T09:29:24Z</time></trkpt><trkpt lat="41.12426858798439" lon="9.348128518341001"><ele>122.66666666666666</ele><time>2026-05-02T09:29:25Z</time></trkpt><trkpt lat="41.124352490450896" lon="9.347912905729522"><ele>123.33333333333334</ele><time>2026-05-02T09:29:26Z</time></trkpt><trkpt lat="41.124436035550076" lon="9.347699822962797"><ele>124.0</ele><time>2026-05-02T09:29:27Z</time></trkpt><trkpt lat="41.12451727724466" lon="9.34749081823862"><ele>124.0</ele><time>2026-05-02T09:29:28Z</time></trkpt><trkpt lat="41.12458832370216" lon="9.347294958426584"><ele>124.0</ele><time>2026-05-02T09:29:29Z</time></trkpt><trkpt lat="41.1246593612446" lon="9.347100809192092"><ele>124.0</ele><time>2026-05-02T09:29:30Z</time></trkpt><trkpt lat="41.12472990444863" lon="9.34691694506365"><ele>125.66666666666667</ele><time>2026-05-02T09:29:31Z</time></trkpt><trkpt lat="41.12480970166551" lon="9.346734225784182"><ele>127.33333333333334</ele><time>2026-05-02T09:29:32Z</time></trkpt><trkpt lat="41.124900151160574" lon="9.346561437480643"><ele>129.0</ele><time>2026-05-02T09:29:33Z</time></trkpt><trkpt lat="41.124996708097264" lon="9.346380431490699"><ele>130.66666666666666</ele><time>2026-05-02T09:29:34Z</time></trkpt><trkpt lat="41.12509629919508" lon="9.346202613962548"><ele>132.33333333333331</ele><time>2026-05-02T09:29:35Z</time></trkpt><trkpt lat="41.12519472980206" lon="9.346020316423305"><ele>134.0</ele><time>2026-05-02T09:29:36Z</time></trkpt><trkpt lat="41.125287358912864" lon="9.34583331472254"><ele>134.0</ele><time>2026-05-02T09:29:37Z</time></trkpt><trkpt lat="41.12537746538474" lon="9.34564991558175"><ele>134.0</ele><time>2026-05-02T09:29:38Z</time></trkpt><trkpt lat="41.12546387818071" lon="9.345470535898516"><ele>134.0</ele><time>2026-05-02T09:29:39Z</time></trkpt><trkpt lat="41.12554872588297" lon="9.345298655655066"><ele>136.25</ele><time>2026-05-02T09:29:40Z</time></trkpt><trkpt lat="41.125631314511935" lon="9.34512049816258"><ele>138.5</ele><time>2026-05-02T09:29:41Z</time></trkpt><trkpt lat="41.12568688297454" lon="9.344956373357796"><ele>140.75</ele><time>2026-05-02T09:29:42Z</time></trkpt><trkpt lat="41.125708270317745" lon="9.34479097542674"><ele>143.0</ele><time>2026-05-02T09:29:42.999Z</time></trkpt><trkpt lat="41.12569790769179" lon="9.344610000005181"><ele>145.5</ele><time>2026-05-02T09:29:43.999Z</time></trkpt><trkpt lat="41.1256690630133" lon="9.344427231505803"><ele>148.0</ele><time>2026-05-02T09:29:44.999Z</time></trkpt><trkpt lat="41.12565087979431" lon="9.344239761058418"><ele>150.5</ele><time>2026-05-02T09:29:45.999Z</time></trkpt><trkpt lat="41.12566256991452" lon="9.344049729810822"><ele>153.0</ele><time>2026-05-02T09:29:46.999Z</time></trkpt><trkpt lat="41.12572329561195" lon="9.343872249525694"><ele>155.5</ele><time>2026-05-02T09:29:47.999Z</time></trkpt><trkpt lat="41.12575982772929" lon="9.34367994777644"><ele>158.0</ele><time>2026-05-02T09:29:48.999Z</time></trkpt><trkpt lat="41.12579450718819" lon="9.34350706358857"><ele>160.5</ele><time>2026-05-02T09:29:49.999Z</time></trkpt><trkpt lat="41.1257899550635" lon="9.343336468811456"><ele>163.0</ele><time>2026-05-02T09:29:50.999Z</time></trkpt><trkpt lat="41.12574317172912" lon="9.343160445591463"><ele>161.25</ele><time>2026-05-02T09:29:51.999Z</time></trkpt><trkpt lat="41.1256809515498" lon="9.342998447669222"><ele>159.5</ele><time>2026-05-02T09:29:52.999Z</time></trkpt><trkpt lat="41.125625161387774" lon="9.342824818742896"><ele>157.75</ele><time>2026-05-02T09:29:53.999Z</time></trkpt><trkpt lat="41.12560498721417" lon="9.342629971830865"><ele>156.0</ele><time>2026-05-02T09:29:54.999Z</time></trkpt><trkpt lat="41.125563152304466" lon="9.342426855356193"><ele>156.66666666666666</ele><time>2026-05-02T09:29:55.999Z</time></trkpt><trkpt lat="41.125554239172324" lon="9.342209321340777"><ele>157.33333333333331</ele><time>2026-05-02T09:29:56.999Z</time></trkpt><trkpt lat="41.12553176413012" lon="9.34198500914876"><ele>158.0</ele><time>2026-05-02T09:29:57.999Z</time></trkpt><trkpt lat="41.12551434492448" lon="9.341765295200807"><ele>158.0</ele><time>2026-05-02T09:29:58.999Z</time></trkpt><trkpt lat="41.125490832392806" lon="9.341546275641681"><ele>158.0</ele><time>2026-05-02T09:29:59.999Z</time></trkpt><trkpt lat="41.125487268322374" lon="9.341310019478538"><ele>158.0</ele><time>2026-05-02T09:30:00.999Z</time></trkpt><trkpt lat="41.125487590550335" lon="9.34109140966234"><ele>158.5</ele><time>2026-05-02T09:30:01.999Z</time></trkpt><trkpt lat="41.12548682684323" lon="9.340892310306518"><ele>159.0</ele><time>2026-05-02T09:30:02.999Z</time></trkpt><trkpt lat="41.12548523727495" lon="9.340711905437226"><ele>159.5</ele><time>2026-05-02T09:30:03.999Z</time></trkpt><trkpt lat="41.125492650577584" lon="9.34054728027734"><ele>160.0</ele><time>2026-05-02T09:30:04.999Z</time></trkpt><trkpt lat="41.125511389914486" lon="9.340401582981908"><ele>160.66666666666669</ele><time>2026-05-02T09:30:05.999Z</time></trkpt><trkpt lat="41.125534420480456" lon="9.340269963168451"><ele>161.33333333333334</ele><time>2026-05-02T09:30:07Z</time></trkpt><trkpt lat="41.12555849245336" lon="9.340148288889445"><ele>162.0</ele><time>2026-05-02T09:30:08Z</time></trkpt><trkpt lat="41.125580837925234" lon="9.340042335133406"><ele>162.66666666666666</ele><time>2026-05-02T09:30:09Z</time></trkpt><trkpt lat="41.12560462778189" lon="9.339943065205164"><ele>163.33333333333331</ele><time>2026-05-02T09:30:10Z</time></trkpt><trkpt lat="41.12563246677351" lon="9.339844153347013"><ele>164.0</ele><time>2026-05-02T09:30:11Z</time></trkpt><trkpt lat="41.12565428464817" lon="9.33974018799893"><ele>164.6</ele><time>2026-05-02T09:30:12Z</time></trkpt><trkpt lat="41.125677395541885" lon="9.339627805639983"><ele>165.2</ele><time>2026-05-02T09:30:13Z</time></trkpt><trkpt lat="41.12570311378488" lon="9.339500185458366"><ele>165.79999999999998</ele><time>2026-05-02T09:30:14Z</time></trkpt><trkpt lat="41.12573288113767" lon="9.339357124298289"><ele>166.39999999999998</ele><time>2026-05-02T09:30:15Z</time></trkpt><trkpt lat="41.12576336614534" lon="9.339206707430488"><ele>167.0</ele><time>2026-05-02T09:30:16Z</time></trkpt><trkpt lat="41.12580038875135" lon="9.339049751515457"><ele>167.75</ele><time>2026-05-02T09:30:17Z</time></trkpt><trkpt lat="41.125837698236154" lon="9.338893134228421"><ele>168.5</ele><time>2026-05-02T09:30:18Z</time></trkpt><trkpt lat="41.12587079037059" lon="9.338742845558054"><ele>169.25</ele><time>2026-05-02T09:30:19Z</time></trkpt><trkpt lat="41.12589901796956" lon="9.33858294288776"><ele>170.0</ele><time>2026-05-02T09:30:20Z</time></trkpt><trkpt lat="41.125924851177466" lon="9.338414014950661"><ele>171.0</ele><time>2026-05-02T09:30:21Z</time></trkpt><trkpt lat="41.12594296365772" lon="9.3382392773965"><ele>172.0</ele><time>2026-05-02T09:30:22Z</time></trkpt><trkpt lat="41.125949626321145" lon="9.338053845345758"><ele>173.0</ele><time>2026-05-02T09:30:23Z</time></trkpt><trkpt lat="41.12594263084177" lon="9.337876031225838"><ele>174.0</ele><time>2026-05-02T09:30:24Z</time></trkpt><trkpt lat="41.125927080958924" lon="9.337716777466005"><ele>174.6</ele><time>2026-05-02T09:30:25Z</time></trkpt><trkpt lat="41.1259071728596" lon="9.337582301220214"><ele>175.2</ele><time>2026-05-02T09:30:26Z</time></trkpt><trkpt lat="41.12587414072077" lon="9.337462311053457"><ele>175.79999999999998</ele><time>2026-05-02T09:30:27Z</time></trkpt><trkpt lat="41.12584125118814" lon="9.33731726496203"><ele>176.39999999999998</ele><time>2026-05-02T09:30:28Z</time></trkpt><trkpt lat="41.12579582600144" lon="9.337195430521867"><ele>177.0</ele><time>2026-05-02T09:30:29Z</time></trkpt><trkpt lat="41.125770020925344" lon="9.337038225437585"><ele>177.25</ele><time>2026-05-02T09:30:30Z</time></trkpt><trkpt lat="41.125756564970054" lon="9.336867937525902"><ele>177.5</ele><time>2026-05-02T09:30:31Z</time></trkpt><trkpt lat="41.125737502138826" lon="9.336669580855652"><ele>177.75</ele><time>2026-05-02T09:30:32Z</time></trkpt><trkpt lat="41.125721250310264" lon="9.336485995328287"><ele>178.0</ele><time>2026-05-02T09:30:33Z</time></trkpt><trkpt lat="41.12570912322258" lon="9.336294632103277"><ele>177.0</ele><time>2026-05-02T09:30:34Z</time></trkpt><trkpt lat="41.125705439459566" lon="9.336126388493083"><ele>176.0</ele><time>2026-05-02T09:30:35Z</time></trkpt><trkpt lat="41.12571178824568" lon="9.33596750524271"><ele>175.0</ele><time>2026-05-02T09:30:36Z</time></trkpt><trkpt lat="41.12571935612702" lon="9.33580880554135"><ele>174.0</ele><time>2026-05-02T09:30:37Z</time></trkpt><trkpt lat="41.12572132715275" lon="9.335644087939649"><ele>172.75</ele><time>2026-05-02T09:30:38Z</time></trkpt><trkpt lat="41.12570412602167" lon="9.33548171004549"><ele>171.5</ele><time>2026-05-02T09:30:39Z</time></trkpt><trkpt lat="41.12566461541142" lon="9.335305757244761"><ele>170.25</ele><time>2026-05-02T09:30:40Z</time></trkpt><trkpt lat="41.125601252237345" lon="9.335129461378544"><ele>169.0</ele><time>2026-05-02T09:30:41Z</time></trkpt><trkpt lat="41.12553127303364" lon="9.334943645955923"><ele>169.0</ele><time>2026-05-02T09:30:42Z</time></trkpt><trkpt lat="41.12545826683225" lon="9.334769955203434"><ele>169.0</ele><time>2026-05-02T09:30:43Z</time></trkpt><trkpt lat="41.125390069201615" lon="9.33458092582152"><ele>169.0</ele><time>2026-05-02T09:30:44Z</time></trkpt><trkpt lat="41.12527599365045" lon="9.334421196752107"><ele>167.33333333333334</ele><time>2026-05-02T09:30:45Z</time></trkpt><trkpt lat="41.12517702424937" lon="9.334248149706546"><ele>165.66666666666666</ele><time>2026-05-02T09:30:46Z</time></trkpt><trkpt lat="41.12505091346817" lon="9.33407516623676"><ele>164.0</ele><time>2026-05-02T09:30:47Z</time></trkpt><trkpt lat="41.12492827502716" lon="9.333907695828572"><ele>161.0</ele><time>2026-05-02T09:30:48Z</time></trkpt><trkpt lat="41.12479678528859" lon="9.333748499635488"><ele>158.0</ele><time>2026-05-02T09:30:49Z</time></trkpt><trkpt lat="41.12469446113866" lon="9.333571877862838"><ele>155.0</ele><time>2026-05-02T09:30:50Z</time></trkpt><trkpt lat="41.12457795497322" lon="9.333404179005454"><ele>155.0</ele><time>2026-05-02T09:30:51Z</time></trkpt><trkpt lat="41.12447221476679" lon="9.333251976648132"><ele>155.0</ele><time>2026-05-02T09:30:52Z</time></trkpt><trkpt lat="41.12436450644251" lon="9.333096941368561"><ele>155.0</ele><time>2026-05-02T09:30:53Z</time></trkpt><trkpt lat="41.12424276986706" lon="9.332949081592202"><ele>154.66666666666666</ele><time>2026-05-02T09:30:54Z</time></trkpt><trkpt lat="41.12415163306324" lon="9.332764244689532"><ele>154.33333333333334</ele><time>2026-05-02T09:30:55Z</time></trkpt><trkpt lat="41.12406784261309" lon="9.332568311078518"><ele>154.0</ele><time>2026-05-02T09:30:56Z</time></trkpt><trkpt lat="41.1239891447479" lon="9.332371460938628"><ele>152.66666666666669</ele><time>2026-05-02T09:30:57Z</time></trkpt><trkpt lat="41.123910857828754" lon="9.332185333023828"><ele>151.33333333333334</ele><time>2026-05-02T09:30:58Z</time></trkpt><trkpt lat="41.12382118947355" lon="9.332007046631565"><ele>150.0</ele><time>2026-05-02T09:30:59Z</time></trkpt><trkpt lat="41.12372445785078" lon="9.331843085633146"><ele>150.0</ele><time>2026-05-02T09:31:00Z</time></trkpt><trkpt lat="41.12363271362041" lon="9.331691724111124"><ele>150.0</ele><time>2026-05-02T09:31:01Z</time></trkpt><trkpt lat="41.12355092189642" lon="9.33154729446771"><ele>150.0</ele><time>2026-05-02T09:31:02Z</time></trkpt><trkpt lat="41.12347560244251" lon="9.33139341977248"><ele>150.0</ele><time>2026-05-02T09:31:03Z</time></trkpt><trkpt lat="41.123403440318555" lon="9.331215649870858"><ele>150.0</ele><time>2026-05-02T09:31:04Z</time></trkpt><trkpt lat="41.123332049185144" lon="9.331017754604025"><ele>150.0</ele><time>2026-05-02T09:31:05Z</time></trkpt><trkpt lat="41.123256223193515" lon="9.330806939756142"><ele>150.0</ele><time>2026-05-02T09:31:06Z</time></trkpt><trkpt lat="41.12319917209946" lon="9.330597284990352"><ele>148.5</ele><time>2026-05-02T09:31:07Z</time></trkpt><trkpt lat="41.123128738090806" lon="9.330426900641967"><ele>147.0</ele><time>2026-05-02T09:31:08Z</time></trkpt><trkpt lat="41.12307306880611" lon="9.33026788854911"><ele>145.5</ele><time>2026-05-02T09:31:09Z</time></trkpt><trkpt lat="41.123018126782654" lon="9.33012994355828"><ele>144.0</ele><time>2026-05-02T09:31:10Z</time></trkpt><trkpt lat="41.12295587884449" lon="9.330017471237083"><ele>144.0</ele><time>2026-05-02T09:31:11Z</time></trkpt><trkpt lat="41.12288661898479" lon="9.329905868954311"><ele>144.0</ele><time>2026-05-02T09:31:12Z</time></trkpt><trkpt lat="41.12279035717085" lon="9.329824409238133"><ele>144.0</ele><time>2026-05-02T09:31:13Z</time></trkpt><trkpt lat="41.12267987540037" lon="9.329762954300604"><ele>144.0</ele><time>2026-05-02T09:31:14Z</time></trkpt><trkpt lat="41.122553842511806" lon="9.329717660347965"><ele>143.5</ele><time>2026-05-02T09:31:15Z</time></trkpt><trkpt lat="41.1224165068557" lon="9.329689398242172"><ele>143.0</ele><time>2026-05-02T09:31:16Z</time></trkpt><trkpt lat="41.12227946759807" lon="9.32966984472612"><ele>142.5</ele><time>2026-05-02T09:31:17Z</time></trkpt><trkpt lat="41.122139286771535" lon="9.329657205023546"><ele>142.0</ele><time>2026-05-02T09:31:18Z</time></trkpt><trkpt lat="41.122001831231806" lon="9.3296429886905"><ele>140.0</ele><time>2026-05-02T09:31:19Z</time></trkpt><trkpt lat="41.121863490257375" lon="9.329628582426967"><ele>138.0</ele><time>2026-05-02T09:31:20Z</time></trkpt><trkpt lat="41.121728606272896" lon="9.329621067460767"><ele>136.0</ele><time>2026-05-02T09:31:21Z</time></trkpt><trkpt lat="41.12159380218715" lon="9.329612117922135"><ele>134.0</ele><time>2026-05-02T09:31:22Z</time></trkpt><trkpt lat="41.121452504805475" lon="9.329594942113353"><ele>131.75</ele><time>2026-05-02T09:31:23Z</time></trkpt><trkpt lat="41.121314990253" lon="9.329570756868732"><ele>129.5</ele><time>2026-05-02T09:31:24Z</time></trkpt><trkpt lat="41.121171255891255" lon="9.329539253207653"><ele>127.25</ele><time>2026-05-02T09:31:25Z</time></trkpt><trkpt lat="41.121023070966686" lon="9.32950095538216"><ele>125.0</ele><time>2026-05-02T09:31:26Z</time></trkpt><trkpt lat="41.12087733009438" lon="9.329473704626325"><ele>122.25</ele><time>2026-05-02T09:31:27Z</time></trkpt><trkpt lat="41.1207319280512" lon="9.329448460373913"><ele>119.5</ele><time>2026-05-02T09:31:28Z</time></trkpt><trkpt lat="41.12059875363459" lon="9.32941928702094"><ele>116.75</ele><time>2026-05-02T09:31:29Z</time></trkpt><trkpt lat="41.120464639970955" lon="9.329377146292765"><ele>114.0</ele><time>2026-05-02T09:31:30Z</time></trkpt><trkpt lat="41.12032950911522" lon="9.329330804434138"><ele>114.0</ele><time>2026-05-02T09:31:31Z</time></trkpt><trkpt lat="41.12019183152738" lon="9.32927811763855"><ele>114.0</ele><time>2026-05-02T09:31:32Z</time></trkpt><trkpt lat="41.12004095656735" lon="9.329218093502945"><ele>114.0</ele><time>2026-05-02T09:31:33Z</time></trkpt><trkpt lat="41.1198633000152" lon="9.329151065341621"><ele>111.33333333333334</ele><time>2026-05-02T09:31:34Z</time></trkpt><trkpt lat="41.11967467536712" lon="9.329092423982596"><ele>108.66666666666667</ele><time>2026-05-02T09:31:35Z</time></trkpt><trkpt lat="41.11948241968653" lon="9.329039810923524"><ele>106.0</ele><time>2026-05-02T09:31:36Z</time></trkpt><trkpt lat="41.119291682952635" lon="9.328985776504284"><ele>106.0</ele><time>2026-05-02T09:31:37Z</time></trkpt><trkpt lat="41.11910082847794" lon="9.328925968065215"><ele>106.0</ele><time>2026-05-02T09:31:38Z</time></trkpt><trkpt lat="41.1189096122354" lon="9.328864989282568"><ele>106.0</ele><time>2026-05-02T09:31:39Z</time></trkpt><trkpt lat="41.11869924340681" lon="9.328808398745592"><ele>106.66666666666667</ele><time>2026-05-02T09:31:40Z</time></trkpt><trkpt lat="41.11850601976421" lon="9.328755552108708"><ele>107.33333333333334</ele><time>2026-05-02T09:31:41Z</time></trkpt><trkpt lat="41.118336069550345" lon="9.328709598508825"><ele>108.0</ele><time>2026-05-02T09:31:42Z</time></trkpt><trkpt lat="41.118185270627436" lon="9.328668600437199"><ele>105.0</ele><time>2026-05-02T09:31:43Z</time></trkpt><trkpt lat="41.11802534347457" lon="9.328605700265335"><ele>102.0</ele><time>2026-05-02T09:31:44Z</time></trkpt><trkpt lat="41.11782853717039" lon="9.328516607442635"><ele>99.0</ele><time>2026-05-02T09:31:45Z</time></trkpt><trkpt lat="41.117608332300826" lon="9.328415516744029"><ele>95.0</ele><time>2026-05-02T09:31:46Z</time></trkpt><trkpt lat="41.1173833153619" lon="9.328312218488971"><ele>91.0</ele><time>2026-05-02T09:31:47Z</time></trkpt><trkpt lat="41.11717971956559" lon="9.328218752656165"><ele>91.0</ele><time>2026-05-02T09:31:48Z</time></trkpt><trkpt lat="41.11699638484807" lon="9.32813725235436"><ele>91.0</ele><time>2026-05-02T09:31:48.999Z</time></trkpt><trkpt lat="41.116809801647086" lon="9.328054591983504"><ele>91.0</ele><time>2026-05-02T09:31:49.999Z</time></trkpt><trkpt lat="41.11661954302449" lon="9.327968039315543"><ele>91.66666666666666</ele><time>2026-05-02T09:31:50.999Z</time></trkpt><trkpt lat="41.11643441885572" lon="9.327882272724587"><ele>92.33333333333333</ele><time>2026-05-02T09:31:52Z</time></trkpt><trkpt lat="41.116247968315214" lon="9.327792360559723"><ele>93.0</ele><time>2026-05-02T09:31:53Z</time></trkpt><trkpt lat="41.1160574104995" lon="9.327700467873006"><ele>93.0</ele><time>2026-05-02T09:31:54Z</time></trkpt><trkpt lat="41.11587398129773" lon="9.327616999934788"><ele>93.0</ele><time>2026-05-02T09:31:55Z</time></trkpt><trkpt lat="41.11568711344048" lon="9.327554288798783"><ele>93.0</ele><time>2026-05-02T09:31:56Z</time></trkpt><trkpt lat="41.11550593116871" lon="9.327468521257165"><ele>89.66666666666667</ele><time>2026-05-02T09:31:57Z</time></trkpt><trkpt lat="41.11533601927965" lon="9.327357429205987"><ele>86.33333333333334</ele><time>2026-05-02T09:31:58Z</time></trkpt><trkpt lat="41.11516586487082" lon="9.32730672690336"><ele>83.0</ele><time>2026-05-02T09:31:59Z</time></trkpt><trkpt lat="41.11502225574345" lon="9.32724319757431"><ele>82.0</ele><time>2026-05-02T09:32:00Z</time></trkpt><trkpt lat="41.114916388875415" lon="9.32715568427663"><ele>81.0</ele><time>2026-05-02T09:32:01Z</time></trkpt><trkpt lat="41.11481395134486" lon="9.327061607546039"><ele>80.0</ele><time>2026-05-02T09:32:02Z</time></trkpt><trkpt lat="41.11470388553819" lon="9.326957670437489"><ele>79.0</ele><time>2026-05-02T09:32:03Z</time></trkpt><trkpt lat="41.114594908243326" lon="9.32686857149453"><ele>79.0</ele><time>2026-05-02T09:32:04Z</time></trkpt><trkpt lat="41.114523921470685" lon="9.326722533048038"><ele>79.0</ele><time>2026-05-02T09:32:05Z</time></trkpt><trkpt lat="41.11443494466958" lon="9.326553854606585"><ele>79.0</ele><time>2026-05-02T09:32:06Z</time></trkpt><trkpt lat="41.11436193351175" lon="9.326342224602664"><ele>78.33333333333333</ele><time>2026-05-02T09:32:07Z</time></trkpt><trkpt lat="41.11428491568839" lon="9.32610242820397"><ele>77.66666666666667</ele><time>2026-05-02T09:32:08Z</time></trkpt><trkpt lat="41.11422010985711" lon="9.325881752958132"><ele>77.0</ele><time>2026-05-02T09:32:09Z</time></trkpt><trkpt lat="41.11416030287081" lon="9.325689133901955"><ele>75.66666666666667</ele><time>2026-05-02T09:32:10Z</time></trkpt><trkpt lat="41.11408797514417" lon="9.325527826771037"><ele>74.33333333333333</ele><time>2026-05-02T09:32:11Z</time></trkpt><trkpt lat="41.11397928875574" lon="9.325350029020283"><ele>73.0</ele><time>2026-05-02T09:32:12Z</time></trkpt><trkpt lat="41.11385776582585" lon="9.32513136087291"><ele>73.0</ele><time>2026-05-02T09:32:13Z</time></trkpt><trkpt lat="41.11372807055516" lon="9.324894830322322"><ele>73.0</ele><time>2026-05-02T09:32:14Z</time></trkpt><trkpt lat="41.113610929105434" lon="9.324667964188608"><ele>73.0</ele><time>2026-05-02T09:32:15Z</time></trkpt><trkpt lat="41.11349929451416" lon="9.324417165709248"><ele>73.66666666666666</ele><time>2026-05-02T09:32:16Z</time></trkpt><trkpt lat="41.11338303154345" lon="9.32416184042189"><ele>74.33333333333333</ele><time>2026-05-02T09:32:17Z</time></trkpt><trkpt lat="41.11329912571244" lon="9.323965663029231"><ele>75.0</ele><time>2026-05-02T09:32:18Z</time></trkpt><trkpt lat="41.11322342488848" lon="9.323785932222538"><ele>73.66666666666667</ele><time>2026-05-02T09:32:19Z</time></trkpt><trkpt lat="41.113114463828744" lon="9.323575438591417"><ele>72.33333333333334</ele><time>2026-05-02T09:32:20Z</time></trkpt><trkpt lat="41.11302010740059" lon="9.323383745322234"><ele>71.0</ele><time>2026-05-02T09:32:21Z</time></trkpt><trkpt lat="41.11292655716823" lon="9.32322838272002"><ele>71.0</ele><time>2026-05-02T09:32:22Z</time></trkpt><trkpt lat="41.11282243062341" lon="9.323102569149901"><ele>71.0</ele><time>2026-05-02T09:32:23Z</time></trkpt><trkpt lat="41.11270424382755" lon="9.323009334144496"><ele>71.0</ele><time>2026-05-02T09:32:24Z</time></trkpt><trkpt lat="41.11256460703836" lon="9.322940045414562"><ele>71.0</ele><time>2026-05-02T09:32:25Z</time></trkpt><trkpt lat="41.11239588186684" lon="9.322889905441473"><ele>71.5</ele><time>2026-05-02T09:32:26Z</time></trkpt><trkpt lat="41.11217844351431" lon="9.322808752945681"><ele>72.0</ele><time>2026-05-02T09:32:27Z</time></trkpt><trkpt lat="41.11195942458633" lon="9.322747216161792"><ele>72.0</ele><time>2026-05-02T09:32:28Z</time></trkpt><trkpt lat="41.11177818563393" lon="9.322698862045554"><ele>72.0</ele><time>2026-05-02T09:32:29Z</time></trkpt><trkpt lat="41.111604404259644" lon="9.322648801234239"><ele>72.0</ele><time>2026-05-02T09:32:30Z</time></trkpt><trkpt lat="41.11142196115262" lon="9.322588239804352"><ele>69.75</ele><time>2026-05-02T09:32:31Z</time></trkpt><trkpt lat="41.11126886934568" lon="9.322550614433412"><ele>67.5</ele><time>2026-05-02T09:32:32Z</time></trkpt><trkpt lat="41.11114534589248" lon="9.322512220767496"><ele>65.25</ele><time>2026-05-02T09:32:33Z</time></trkpt><trkpt lat="41.11104078932156" lon="9.322444578690384"><ele>63.0</ele><time>2026-05-02T09:32:34Z</time></trkpt><trkpt lat="41.11092903961467" lon="9.322322686433141"><ele>63.0</ele><time>2026-05-02T09:32:35Z</time></trkpt><trkpt lat="41.11081654139411" lon="9.32215878689181"><ele>63.0</ele><time>2026-05-02T09:32:36Z</time></trkpt><trkpt lat="41.11068815850183" lon="9.321950282727654"><ele>63.0</ele><time>2026-05-02T09:32:37Z</time></trkpt><trkpt lat="41.11055132643879" lon="9.32172340264978"><ele>63.0</ele><time>2026-05-02T09:32:38Z</time></trkpt><trkpt lat="41.110392578987025" lon="9.321462510725624"><ele>63.0</ele><time>2026-05-02T09:32:39Z</time></trkpt><trkpt lat="41.110254584415" lon="9.321236936123926"><ele>62.0</ele><time>2026-05-02T09:32:40Z</time></trkpt><trkpt lat="41.11012024774151" lon="9.321018023668094"><ele>61.0</ele><time>2026-05-02T09:32:41Z</time></trkpt><trkpt lat="41.109994970712506" lon="9.320811030079245"><ele>60.0</ele><time>2026-05-02T09:32:42Z</time></trkpt><trkpt lat="41.10986888027307" lon="9.320610985311978"><ele>59.33333333333333</ele><time>2026-05-02T09:32:43Z</time></trkpt><trkpt lat="41.109736915653414" lon="9.320452434899503"><ele>58.666666666666664</ele><time>2026-05-02T09:32:44Z</time></trkpt><trkpt lat="41.10959558736767" lon="9.320269408852221"><ele>58.0</ele><time>2026-05-02T09:32:45Z</time></trkpt><trkpt lat="41.10945422783076" lon="9.320077587614595"><ele>58.0</ele><time>2026-05-02T09:32:46Z</time></trkpt><trkpt lat="41.10931423680674" lon="9.319922306434224"><ele>58.0</ele><time>2026-05-02T09:32:47Z</time></trkpt><trkpt lat="41.10919206167856" lon="9.319789458526156"><ele>58.0</ele><time>2026-05-02T09:32:48Z</time></trkpt><trkpt lat="41.10909138367093" lon="9.319638189746016"><ele>58.0</ele><time>2026-05-02T09:32:49Z</time></trkpt><trkpt lat="41.10897923000462" lon="9.31946136326704"><ele>58.0</ele><time>2026-05-02T09:32:50Z</time></trkpt><trkpt lat="41.108853691113495" lon="9.31925658270957"><ele>58.0</ele><time>2026-05-02T09:32:51Z</time></trkpt><trkpt lat="41.10873080928484" lon="9.319050400256202"><ele>57.33333333333333</ele><time>2026-05-02T09:32:52Z</time></trkpt><trkpt lat="41.108599302303304" lon="9.31882228086391"><ele>56.66666666666667</ele><time>2026-05-02T09:32:53Z</time></trkpt><trkpt lat="41.10845918950284" lon="9.318575760357193"><ele>56.0</ele><time>2026-05-02T09:32:54Z</time></trkpt><trkpt lat="41.10832379080916" lon="9.31835313521637"><ele>56.333333333333336</ele><time>2026-05-02T09:32:55Z</time></trkpt><trkpt lat="41.10820370394792" lon="9.318150368029245"><ele>56.66666666666667</ele><time>2026-05-02T09:32:56Z</time></trkpt><trkpt lat="41.10809190939847" lon="9.31797390460382"><ele>57.0</ele><time>2026-05-02T09:32:57Z</time></trkpt><trkpt lat="41.10799052386835" lon="9.317815073782551"><ele>57.0</ele><time>2026-05-02T09:32:58Z</time></trkpt><trkpt lat="41.107894554973946" lon="9.317659979265132"><ele>57.0</ele><time>2026-05-02T09:32:59Z</time></trkpt><trkpt lat="41.10780453228259" lon="9.317514249094813"><ele>57.0</ele><time>2026-05-02T09:33:00Z</time></trkpt><trkpt lat="41.10771521045911" lon="9.31736965489528"><ele>57.0</ele><time>2026-05-02T09:33:01Z</time></trkpt><trkpt lat="41.10761984912316" lon="9.3172192720509"><ele>57.25</ele><time>2026-05-02T09:33:02Z</time></trkpt><trkpt lat="41.10750060010123" lon="9.317076289271219"><ele>57.5</ele><time>2026-05-02T09:33:03Z</time></trkpt><trkpt lat="41.10737854156401" lon="9.317010932548891"><ele>57.75</ele><time>2026-05-02T09:33:04Z</time></trkpt><trkpt lat="41.107252581733675" lon="9.316955275805578"><ele>58.0</ele><time>2026-05-02T09:33:05Z</time></trkpt><trkpt lat="41.107091945713506" lon="9.316926194666214"><ele>56.666666666666664</ele><time>2026-05-02T09:33:06Z</time></trkpt><trkpt lat="41.106915486468615" lon="9.31689077010077"><ele>55.33333333333333</ele><time>2026-05-02T09:33:07Z</time></trkpt><trkpt lat="41.10670963702789" lon="9.316875593203019"><ele>54.0</ele><time>2026-05-02T09:33:08Z</time></trkpt><trkpt lat="41.10647988863337" lon="9.316864611178069"><ele>54.0</ele><time>2026-05-02T09:33:09Z</time></trkpt><trkpt lat="41.10628314933621" lon="9.316855207102098"><ele>54.0</ele><time>2026-05-02T09:33:10Z</time></trkpt><trkpt lat="41.10612326358972" lon="9.316846099472519"><ele>54.0</ele><time>2026-05-02T09:33:11Z</time></trkpt><trkpt lat="41.10598181263106" lon="9.316837575947831"><ele>54.0</ele><time>2026-05-02T09:33:12Z</time></trkpt><trkpt lat="41.10582244746434" lon="9.316837575948151"><ele>54.0</ele><time>2026-05-02T09:33:13Z</time></trkpt><trkpt lat="41.10566122780052" lon="9.316873439588859"><ele>54.0</ele><time>2026-05-02T09:33:14Z</time></trkpt><trkpt lat="41.105516759954" lon="9.316900960639748"><ele>53.6</ele><time>2026-05-02T09:33:15Z</time></trkpt><trkpt lat="41.10540236407687" lon="9.316916613450031"><ele>53.2</ele><time>2026-05-02T09:33:16Z</time></trkpt><trkpt lat="41.10530739843961" lon="9.316913258681067"><ele>52.800000000000004</ele><time>2026-05-02T09:33:17Z</time></trkpt><trkpt lat="41.10524197591838" lon="9.316891401692242"><ele>52.400000000000006</ele><time>2026-05-02T09:33:18Z</time></trkpt><trkpt lat="41.105168611917186" lon="9.316801983894262"><ele>52.0</ele><time>2026-05-02T09:33:20Z</time></trkpt><trkpt lat="41.105117153807264" lon="9.31668484866506"><ele>52.0</ele><time>2026-05-02T09:33:21Z</time></trkpt><trkpt lat="41.10510244263347" lon="9.316542735913773"><ele>52.0</ele><time>2026-05-02T09:33:22Z</time></trkpt><trkpt lat="41.105069370677" lon="9.316397704396753"><ele>52.0</ele><time>2026-05-02T09:33:23Z</time></trkpt><trkpt lat="41.105008689816614" lon="9.316250549381566"><ele>52.0</ele><time>2026-05-02T09:33:24Z</time></trkpt><trkpt lat="41.104953017316454" lon="9.31606952167021"><ele>52.0</ele><time>2026-05-02T09:33:25Z</time></trkpt><trkpt lat="41.10489913145769" lon="9.315835659707155"><ele>52.0</ele><time>2026-05-02T09:33:26Z</time></trkpt><trkpt lat="41.1048200451557" lon="9.315581319662417"><ele>52.0</ele><time>2026-05-02T09:33:27Z</time></trkpt><trkpt lat="41.1047404596777" lon="9.31533179481075"><ele>51.33333333333333</ele><time>2026-05-02T09:33:28Z</time></trkpt><trkpt lat="41.10465543925525" lon="9.31511713277911"><ele>50.66666666666667</ele><time>2026-05-02T09:33:29Z</time></trkpt><trkpt lat="41.10458356899327" lon="9.314920174385533"><ele>50.0</ele><time>2026-05-02T09:33:30Z</time></trkpt><trkpt lat="41.10449955219342" lon="9.314740691059033"><ele>49.5</ele><time>2026-05-02T09:33:31Z</time></trkpt><trkpt lat="41.10442548386917" lon="9.314582824681844"><ele>49.0</ele><time>2026-05-02T09:33:32Z</time></trkpt><trkpt lat="41.10438071693452" lon="9.314436518329456"><ele>48.5</ele><time>2026-05-02T09:33:33Z</time></trkpt><trkpt lat="41.10432493767967" lon="9.31428003151772"><ele>48.0</ele><time>2026-05-02T09:33:34Z</time></trkpt><trkpt lat="41.10425602530318" lon="9.314084408042435"><ele>48.33333333333333</ele><time>2026-05-02T09:33:35Z</time></trkpt><trkpt lat="41.10417892596919" lon="9.313862551017372"><ele>48.666666666666664</ele><time>2026-05-02T09:33:36Z</time></trkpt><trkpt lat="41.10407813463503" lon="9.313616203646234"><ele>49.0</ele><time>2026-05-02T09:33:37Z</time></trkpt><trkpt lat="41.10401553823292" lon="9.313389014869264"><ele>47.25</ele><time>2026-05-02T09:33:38Z</time></trkpt><trkpt lat="41.103955060501214" lon="9.31322021439499"><ele>45.5</ele><time>2026-05-02T09:33:39Z</time></trkpt><trkpt lat="41.103896093373386" lon="9.313058587107774"><ele>43.75</ele><time>2026-05-02T09:33:40Z</time></trkpt><trkpt lat="41.10384564665541" lon="9.312896636992448"><ele>42.0</ele><time>2026-05-02T09:33:41Z</time></trkpt><trkpt lat="41.10380150957009" lon="9.312738719081366"><ele>41.0</ele><time>2026-05-02T09:33:42Z</time></trkpt><trkpt lat="41.10380550488852" lon="9.312583350061153"><ele>40.0</ele><time>2026-05-02T09:33:43Z</time></trkpt><trkpt lat="41.10385473127794" lon="9.312406362743982"><ele>39.0</ele><time>2026-05-02T09:33:44Z</time></trkpt><trkpt lat="41.1039204006299" lon="9.312180452951301"><ele>38.0</ele><time>2026-05-02T09:33:45Z</time></trkpt><trkpt lat="41.10399556849348" lon="9.311928183559658"><ele>40.5</ele><time>2026-05-02T09:33:46Z</time></trkpt><trkpt lat="41.104084525767156" lon="9.311705874732743"><ele>43.0</ele><time>2026-05-02T09:33:47Z</time></trkpt><trkpt lat="41.10411771266749" lon="9.311536421339538"><ele>45.5</ele><time>2026-05-02T09:33:48Z</time></trkpt><trkpt lat="41.104153285210835" lon="9.311406257758405"><ele>48.0</ele><time>2026-05-02T09:33:49Z</time></trkpt><trkpt lat="41.10415808477678" lon="9.311228328064082"><ele>48.33333333333333</ele><time>2026-05-02T09:33:50Z</time></trkpt><trkpt lat="41.10413489167745" lon="9.311028287556047"><ele>48.666666666666664</ele><time>2026-05-02T09:33:51Z</time></trkpt><trkpt lat="41.10409587157637" lon="9.310832098288788"><ele>49.0</ele><time>2026-05-02T09:33:52Z</time></trkpt><trkpt lat="41.10402436412899" lon="9.310647979037864"><ele>46.666666666666664</ele><time>2026-05-02T09:33:53Z</time></trkpt><trkpt lat="41.1039362424113" lon="9.310438399191225"><ele>44.33333333333333</ele><time>2026-05-02T09:33:54Z</time></trkpt><trkpt lat="41.10381901559138" lon="9.310199781628938"><ele>42.0</ele><time>2026-05-02T09:33:55Z</time></trkpt><trkpt lat="41.103688180156595" lon="9.309934941441536"><ele>41.333333333333336</ele><time>2026-05-02T09:33:56Z</time></trkpt><trkpt lat="41.10356187643897" lon="9.309667635559252"><ele>40.66666666666667</ele><time>2026-05-02T09:33:57Z</time></trkpt><trkpt lat="41.103435687219374" lon="9.30944891614448"><ele>40.0</ele><time>2026-05-02T09:33:58Z</time></trkpt><trkpt lat="41.10333431555183" lon="9.309246887712597"><ele>40.0</ele><time>2026-05-02T09:33:59Z</time></trkpt><trkpt lat="41.1032559081882" lon="9.30904593221523"><ele>40.0</ele><time>2026-05-02T09:34:00Z</time></trkpt><trkpt lat="41.103187319817614" lon="9.308883635849483"><ele>40.0</ele><time>2026-05-02T09:34:01Z</time></trkpt><trkpt lat="41.10312080252411" lon="9.308677865027324"><ele>37.66666666666667</ele><time>2026-05-02T09:34:02Z</time></trkpt><trkpt lat="41.10306653954823" lon="9.308438413357685"><ele>35.333333333333336</ele><time>2026-05-02T09:34:03Z</time></trkpt><trkpt lat="41.10301047182989" lon="9.308204901119051"><ele>33.0</ele><time>2026-05-02T09:34:04Z</time></trkpt><trkpt lat="41.10295440902561" lon="9.307997835300819"><ele>32.666666666666664</ele><time>2026-05-02T09:34:05Z</time></trkpt><trkpt lat="41.10288047202971" lon="9.307779804519708"><ele>32.33333333333333</ele><time>2026-05-02T09:34:06Z</time></trkpt><trkpt lat="41.10277935726333" lon="9.307555606369936"><ele>32.0</ele><time>2026-05-02T09:34:07Z</time></trkpt><trkpt lat="41.102704785663605" lon="9.307353288981833"><ele>32.0</ele><time>2026-05-02T09:34:08Z</time></trkpt><trkpt lat="41.102659306900314" lon="9.307122725004303"><ele>32.0</ele><time>2026-05-02T09:34:09Z</time></trkpt><trkpt lat="41.102619348159884" lon="9.306897554826238"><ele>32.0</ele><time>2026-05-02T09:34:10Z</time></trkpt><trkpt lat="41.102597290542995" lon="9.306696314815218"><ele>32.0</ele><time>2026-05-02T09:34:11Z</time></trkpt><trkpt lat="41.102569292736895" lon="9.306551789158"><ele>32.0</ele><time>2026-05-02T09:34:11.999Z</time></trkpt><trkpt lat="41.10253570692095" lon="9.306430273056229"><ele>32.0</ele><time>2026-05-02T09:34:12.999Z</time></trkpt><trkpt lat="41.102476567071704" lon="9.306283170375913"><ele>32.0</ele><time>2026-05-02T09:34:13.999Z</time></trkpt><trkpt lat="41.10241397887456" lon="9.306101555529194"><ele>29.5</ele><time>2026-05-02T09:34:14.999Z</time></trkpt><trkpt lat="41.10237856258988" lon="9.305921656304752"><ele>27.0</ele><time>2026-05-02T09:34:15.999Z</time></trkpt><trkpt lat="41.10236209709309" lon="9.30576673936095"><ele>24.5</ele><time>2026-05-02T09:34:16.999Z</time></trkpt><trkpt lat="41.10236890915894" lon="9.305601402571785"><ele>22.0</ele><time>2026-05-02T09:34:17.999Z</time></trkpt><trkpt lat="41.10236023350327" lon="9.305448984508914"><ele>21.0</ele><time>2026-05-02T09:34:18.999Z</time></trkpt><trkpt lat="41.10233935028793" lon="9.305289810793107"><ele>20.0</ele><time>2026-05-02T09:34:19.999Z</time></trkpt><trkpt lat="41.102268384585315" lon="9.30510525866793"><ele>19.0</ele><time>2026-05-02T09:34:20.998Z</time></trkpt><trkpt lat="41.10220364463926" lon="9.304932499476054"><ele>18.0</ele><time>2026-05-02T09:34:21.998Z</time></trkpt><trkpt lat="41.10214584051996" lon="9.304756764944829"><ele>18.0</ele><time>2026-05-02T09:34:22.998Z</time></trkpt><trkpt lat="41.102096389758415" lon="9.30460424382287"><ele>18.0</ele><time>2026-05-02T09:34:23.998Z</time></trkpt><trkpt lat="41.10203172162538" lon="9.304420545761847"><ele>18.0</ele><time>2026-05-02T09:34:24.998Z</time></trkpt><trkpt lat="41.10195752634018" lon="9.304212226678056"><ele>18.0</ele><time>2026-05-02T09:34:25.998Z</time></trkpt><trkpt lat="41.10188917129054" lon="9.304054707157606"><ele>18.0</ele><time>2026-05-02T09:34:26.998Z</time></trkpt><trkpt lat="41.101851854347295" lon="9.303955727933616"><ele>18.0</ele><time>2026-05-02T09:34:27.998Z</time></trkpt><trkpt lat="41.10178031653002" lon="9.303825040254175"><ele>18.0</ele><time>2026-05-02T09:34:29.998Z</time></trkpt><trkpt lat="41.101729162276946" lon="9.303748969736915"><ele>18.0</ele><time>2026-05-02T09:34:30.998Z</time></trkpt><trkpt lat="41.10166733102891" lon="9.303663541081724"><ele>18.25</ele><time>2026-05-02T09:34:31.998Z</time></trkpt><trkpt lat="41.10158491293915" lon="9.303563233985011"><ele>18.5</ele><time>2026-05-02T09:34:32.998Z</time></trkpt><trkpt lat="41.10148185175824" lon="9.303471024736803"><ele>18.75</ele><time>2026-05-02T09:34:33.998Z</time></trkpt><trkpt lat="41.10134850440193" lon="9.303441407772604"><ele>19.0</ele><time>2026-05-02T09:34:34.998Z</time></trkpt><trkpt lat="41.101209830806134" lon="9.303430891371187"><ele>21.0</ele><time>2026-05-02T09:34:35.998Z</time></trkpt><trkpt lat="41.101047224816654" lon="9.30344844309619"><ele>23.0</ele><time>2026-05-02T09:34:36.998Z</time></trkpt><trkpt lat="41.100861885568456" lon="9.30341705560682"><ele>25.0</ele><time>2026-05-02T09:34:37.998Z</time></trkpt><trkpt lat="41.10066117228744" lon="9.303404683894762"><ele>28.0</ele><time>2026-05-02T09:34:38.998Z</time></trkpt><trkpt lat="41.10041778542724" lon="9.303389681815874"><ele>31.0</ele><time>2026-05-02T09:34:39.998Z</time></trkpt><trkpt lat="41.10015945513069" lon="9.303373758663"><ele>31.0</ele><time>2026-05-02T09:34:40.998Z</time></trkpt><trkpt lat="41.09994045861855" lon="9.30337687728334"><ele>31.0</ele><time>2026-05-02T09:34:41.998Z</time></trkpt><trkpt lat="41.09971940156947" lon="9.303344740421496"><ele>31.0</ele><time>2026-05-02T09:34:42.998Z</time></trkpt><trkpt lat="41.09953575063871" lon="9.303332126561816"><ele>33.66666666666667</ele><time>2026-05-02T09:34:43.998Z</time></trkpt><trkpt lat="41.09935266297254" lon="9.303318723941107"><ele>36.333333333333336</ele><time>2026-05-02T09:34:44.998Z</time></trkpt><trkpt lat="41.099142072363115" lon="9.303273278705662"><ele>39.0</ele><time>2026-05-02T09:34:45.997Z</time></trkpt><trkpt lat="41.09890295958274" lon="9.30321164507914"><ele>40.666666666666664</ele><time>2026-05-02T09:34:46.997Z</time></trkpt><trkpt lat="41.09867533329755" lon="9.303162698149645"><ele>42.33333333333333</ele><time>2026-05-02T09:34:47.997Z</time></trkpt><trkpt lat="41.098458774712896" lon="9.303151084995001"><ele>44.0</ele><time>2026-05-02T09:34:48.997Z</time></trkpt><trkpt lat="41.098249517276145" lon="9.30314306144633"><ele>47.33333333333333</ele><time>2026-05-02T09:34:49.997Z</time></trkpt><trkpt lat="41.09804332634957" lon="9.303127223000741"><ele>50.666666666666664</ele><time>2026-05-02T09:34:50.997Z</time></trkpt><trkpt lat="41.0978424677898" lon="9.303127690407413"><ele>54.0</ele><time>2026-05-02T09:34:51.997Z</time></trkpt><trkpt lat="41.0976965755395" lon="9.303133535129568"><ele>54.0</ele><time>2026-05-02T09:34:52.997Z</time></trkpt><trkpt lat="41.09758846684714" lon="9.30314610214285"><ele>54.0</ele><time>2026-05-02T09:34:53.997Z</time></trkpt><trkpt lat="41.097478278839176" lon="9.30319485830157"><ele>54.0</ele><time>2026-05-02T09:34:54.997Z</time></trkpt><trkpt lat="41.097393144912175" lon="9.303331788258348"><ele>54.0</ele><time>2026-05-02T09:34:55.997Z</time></trkpt><trkpt lat="41.09730366221501" lon="9.303485973540978"><ele>58.0</ele><time>2026-05-02T09:34:56.997Z</time></trkpt><trkpt lat="41.09718846128217" lon="9.303645853076905"><ele>62.0</ele><time>2026-05-02T09:34:57.997Z</time></trkpt><trkpt lat="41.09707376939232" lon="9.303831916277522"><ele>66.0</ele><time>2026-05-02T09:34:58.997Z</time></trkpt><trkpt lat="41.09694398396031" lon="9.304043186959667"><ele>66.0</ele><time>2026-05-02T09:34:59.997Z</time></trkpt><trkpt lat="41.09685125753152" lon="9.30418841089725"><ele>66.0</ele><time>2026-05-02T09:35:00.997Z</time></trkpt><trkpt lat="41.09676915060946" lon="9.304267175174115"><ele>66.0</ele><time>2026-05-02T09:35:01.997Z</time></trkpt><trkpt lat="41.09668455658205" lon="9.304320127650405"><ele>66.0</ele><time>2026-05-02T09:35:02.997Z</time></trkpt><trkpt lat="41.09658105101095" lon="9.304330985961231"><ele>66.0</ele><time>2026-05-02T09:35:03.997Z</time></trkpt><trkpt lat="41.09646399765417" lon="9.304312374372923"><ele>69.0</ele><time>2026-05-02T09:35:04.997Z</time></trkpt><trkpt lat="41.09632304344451" lon="9.304259090492737"><ele>72.0</ele><time>2026-05-02T09:35:05.997Z</time></trkpt><trkpt lat="41.096160201627406" lon="9.304165517886155"><ele>75.0</ele><time>2026-05-02T09:35:06.997Z</time></trkpt><trkpt lat="41.095997802105146" lon="9.30407037452951"><ele>75.0</ele><time>2026-05-02T09:35:07.997Z</time></trkpt><trkpt lat="41.09586913048238" lon="9.304005822244157"><ele>75.0</ele><time>2026-05-02T09:35:08.997Z</time></trkpt><trkpt lat="41.09572241594196" lon="9.303957318083173"><ele>75.0</ele><time>2026-05-02T09:35:09.997Z</time></trkpt><trkpt lat="41.09553780236069" lon="9.30394430662583"><ele>76.66666666666667</ele><time>2026-05-02T09:35:10.997Z</time></trkpt><trkpt lat="41.095370482794294" lon="9.303918834407838"><ele>78.33333333333334</ele><time>2026-05-02T09:35:11.997Z</time></trkpt><trkpt lat="41.095234146656594" lon="9.30387897189851"><ele>80.0</ele><time>2026-05-02T09:35:12.997Z</time></trkpt><trkpt lat="41.09509413613903" lon="9.303770666617657"><ele>81.33333333333334</ele><time>2026-05-02T09:35:13.997Z</time></trkpt><trkpt lat="41.094918144276555" lon="9.30364057910986"><ele>82.66666666666667</ele><time>2026-05-02T09:35:14.997Z</time></trkpt><trkpt lat="41.09474087649487" lon="9.303520042627618"><ele>84.0</ele><time>2026-05-02T09:35:15.997Z</time></trkpt><trkpt lat="41.09458966719509" lon="9.30344919297407"><ele>84.0</ele><time>2026-05-02T09:35:16.997Z</time></trkpt><trkpt lat="41.09446358009173" lon="9.303372542154344"><ele>84.0</ele><time>2026-05-02T09:35:17.997Z</time></trkpt><trkpt lat="41.09429970527493" lon="9.30335898527706"><ele>84.0</ele><time>2026-05-02T09:35:18.997Z</time></trkpt><trkpt lat="41.0941059006932" lon="9.303318429816446"><ele>86.0</ele><time>2026-05-02T09:35:19.997Z</time></trkpt><trkpt lat="41.09389628164427" lon="9.303263604899685"><ele>88.0</ele><time>2026-05-02T09:35:20.997Z</time></trkpt><trkpt lat="41.093675126537235" lon="9.30320848381435"><ele>90.0</ele><time>2026-05-02T09:35:21.997Z</time></trkpt><trkpt lat="41.09343232937818" lon="9.303147618280956"><ele>92.33333333333334</ele><time>2026-05-02T09:35:22.997Z</time></trkpt><trkpt lat="41.09322412603001" lon="9.303095424890373"><ele>94.66666666666667</ele><time>2026-05-02T09:35:23.997Z</time></trkpt><trkpt lat="41.093036006299755" lon="9.3030539039426"><ele>97.0</ele><time>2026-05-02T09:35:24.997Z</time></trkpt><trkpt lat="41.09287765205386" lon="9.303019109224556"><ele>97.0</ele><time>2026-05-02T09:35:25.997Z</time></trkpt><trkpt lat="41.09274734692112" lon="9.302999516162396"><ele>97.0</ele><time>2026-05-02T09:35:26.997Z</time></trkpt><trkpt lat="41.09262954698496" lon="9.302991426256087"><ele>97.0</ele><time>2026-05-02T09:35:27.997Z</time></trkpt><trkpt lat="41.09249578966996" lon="9.30298886656864"><ele>97.0</ele><time>2026-05-02T09:35:28.997Z</time></trkpt><trkpt lat="41.09233399221711" lon="9.302990823816407"><ele>99.33333333333334</ele><time>2026-05-02T09:35:29.997Z</time></trkpt><trkpt lat="41.09215408759102" lon="9.30298906081108"><ele>101.66666666666666</ele><time>2026-05-02T09:35:30.997Z</time></trkpt><trkpt lat="41.09196768196529" lon="9.302986668028247"><ele>104.0</ele><time>2026-05-02T09:35:31.997Z</time></trkpt><trkpt lat="41.09182142916168" lon="9.302988699681553"><ele>104.0</ele><time>2026-05-02T09:35:32.997Z</time></trkpt><trkpt lat="41.09170405080671" lon="9.302982299543979"><ele>104.0</ele><time>2026-05-02T09:35:33.997Z</time></trkpt><trkpt lat="41.09157871540733" lon="9.303008849658175"><ele>104.0</ele><time>2026-05-02T09:35:34.997Z</time></trkpt><trkpt lat="41.09146695769338" lon="9.302958510284654"><ele>104.0</ele><time>2026-05-02T09:35:35.997Z</time></trkpt><trkpt lat="41.091355079627704" lon="9.302870846658337"><ele>105.4</ele><time>2026-05-02T09:35:36.997Z</time></trkpt><trkpt lat="41.09124290629816" lon="9.302772274646449"><ele>106.80000000000001</ele><time>2026-05-02T09:35:37.997Z</time></trkpt><trkpt lat="41.091177558313305" lon="9.302669752918264"><ele>108.19999999999999</ele><time>2026-05-02T09:35:38.997Z</time></trkpt><trkpt lat="41.091126504196176" lon="9.302607040601075"><ele>109.6</ele><time>2026-05-02T09:35:39.997Z</time></trkpt><trkpt lat="41.091104427885035" lon="9.302515631052769"><ele>111.0</ele><time>2026-05-02T09:35:40.997Z</time></trkpt><trkpt lat="41.09111589937715" lon="9.30238796481214"><ele>109.25</ele><time>2026-05-02T09:35:41.997Z</time></trkpt><trkpt lat="41.09110921218612" lon="9.3022085090432"><ele>107.5</ele><time>2026-05-02T09:35:42.997Z</time></trkpt><trkpt lat="41.09111849186621" lon="9.302037635694695"><ele>105.75</ele><time>2026-05-02T09:35:43.997Z</time></trkpt><trkpt lat="41.09108787810716" lon="9.301874086701165"><ele>104.0</ele><time>2026-05-02T09:35:44.997Z</time></trkpt><trkpt lat="41.091014440702416" lon="9.301692215321692"><ele>104.0</ele><time>2026-05-02T09:35:45.997Z</time></trkpt><trkpt lat="41.09092349661392" lon="9.301499384835232"><ele>104.0</ele><time>2026-05-02T09:35:46.997Z</time></trkpt><trkpt lat="41.09084230193435" lon="9.301345325569615"><ele>104.0</ele><time>2026-05-02T09:35:47.997Z</time></trkpt><trkpt lat="41.09073762019301" lon="9.301201438435852"><ele>101.33333333333333</ele><time>2026-05-02T09:35:48.997Z</time></trkpt><trkpt lat="41.09058705039917" lon="9.30105942533032"><ele>98.66666666666666</ele><time>2026-05-02T09:35:49.997Z</time></trkpt><trkpt lat="41.09042725677421" lon="9.300886820735597"><ele>96.0</ele><time>2026-05-02T09:35:50.997Z</time></trkpt><trkpt lat="41.090278077843664" lon="9.300743091195157"><ele>96.0</ele><time>2026-05-02T09:35:51.997Z</time></trkpt><trkpt lat="41.09013987271874" lon="9.300608818299061"><ele>96.0</ele><time>2026-05-02T09:35:52.997Z</time></trkpt><trkpt lat="41.09002047249199" lon="9.300490227873777"><ele>96.0</ele><time>2026-05-02T09:35:53.997Z</time></trkpt><trkpt lat="41.089919941501" lon="9.300393924458223"><ele>96.0</ele><time>2026-05-02T09:35:54.997Z</time></trkpt><trkpt lat="41.089836967351985" lon="9.300310010389367"><ele>93.19999999999999</ele><time>2026-05-02T09:35:55.997Z</time></trkpt><trkpt lat="41.089784167151734" lon="9.300246935363944"><ele>90.39999999999999</ele><time>2026-05-02T09:35:56.997Z</time></trkpt><trkpt lat="41.08972032965941" lon="9.300124292069702"><ele>87.6</ele><time>2026-05-02T09:35:58.997Z</time></trkpt><trkpt lat="41.08976886057769" lon="9.299976886633319"><ele>84.8</ele><time>2026-05-02T09:36:00.997Z</time></trkpt><trkpt lat="41.089802132800344" lon="9.299885492962217"><ele>82.0</ele><time>2026-05-02T09:36:01.997Z</time></trkpt><trkpt lat="41.08983904238134" lon="9.299747209862492"><ele>82.0</ele><time>2026-05-02T09:36:02.997Z</time></trkpt><trkpt lat="41.089868617001045" lon="9.299622825639966"><ele>82.0</ele><time>2026-05-02T09:36:03.998Z</time></trkpt><trkpt lat="41.08990033373835" lon="9.299534157359572"><ele>82.0</ele><time>2026-05-02T09:36:04.998Z</time></trkpt><trkpt lat="41.08996565106466" lon="9.299476840042098"><ele>82.0</ele><time>2026-05-02T09:36:05.998Z</time></trkpt><trkpt lat="41.0900715502658" lon="9.299449556601598"><ele>82.0</ele><time>2026-05-02T09:36:06.998Z</time></trkpt><trkpt lat="41.09018702380666" lon="9.29940146714897"><ele>82.0</ele><time>2026-05-02T09:36:07.998Z</time></trkpt><trkpt lat="41.0902692451599" lon="9.299325969830937"><ele>82.0</ele><time>2026-05-02T09:36:08.998Z</time></trkpt><trkpt lat="41.09032756762307" lon="9.299196648990245"><ele>82.0</ele><time>2026-05-02T09:36:09.998Z</time></trkpt><trkpt lat="41.09038183255255" lon="9.299056249687084"><ele>82.0</ele><time>2026-05-02T09:36:10.998Z</time></trkpt><trkpt lat="41.09043512808216" lon="9.298920484703814"><ele>82.0</ele><time>2026-05-02T09:36:11.999Z</time></trkpt><trkpt lat="41.090464006417804" lon="9.2987919539182"><ele>80.6</ele><time>2026-05-02T09:36:12.999Z</time></trkpt><trkpt lat="41.090444135944445" lon="9.29866732074226"><ele>79.19999999999999</ele><time>2026-05-02T09:36:13.999Z</time></trkpt><trkpt lat="41.090384920867" lon="9.298563276462348"><ele>77.8</ele><time>2026-05-02T09:36:14.999Z</time></trkpt><trkpt lat="41.09031293926305" lon="9.298468626361442"><ele>76.4</ele><time>2026-05-02T09:36:15.999Z</time></trkpt><trkpt lat="41.09019520795381" lon="9.298454948241561"><ele>75.0</ele><time>2026-05-02T09:36:16.999Z</time></trkpt><trkpt lat="41.09007768583635" lon="9.298535201037105"><ele>75.0</ele><time>2026-05-02T09:36:17.999Z</time></trkpt><trkpt lat="41.08994220117265" lon="9.298584814417254"><ele>75.0</ele><time>2026-05-02T09:36:18.999Z</time></trkpt><trkpt lat="41.08981088878588" lon="9.298629919657046"><ele>75.0</ele><time>2026-05-02T09:36:19.999Z</time></trkpt><trkpt lat="41.089705605317924" lon="9.29860856947698"><ele>75.0</ele><time>2026-05-02T09:36:20.999Z</time></trkpt><trkpt lat="41.08959367450287" lon="9.298545358001068"><ele>76.0</ele><time>2026-05-02T09:36:21.999Z</time></trkpt><trkpt lat="41.08947599861198" lon="9.298442260133116"><ele>77.0</ele><time>2026-05-02T09:36:22.999Z</time></trkpt><trkpt lat="41.08936924591047" lon="9.298310021537377"><ele>78.0</ele><time>2026-05-02T09:36:23.999Z</time></trkpt><trkpt lat="41.08927481813644" lon="9.298134124333325"><ele>79.0</ele><time>2026-05-02T09:36:24.999Z</time></trkpt><trkpt lat="41.089156027154694" lon="9.297958120981072"><ele>80.0</ele><time>2026-05-02T09:36:25.999Z</time></trkpt><trkpt lat="41.089046769440856" lon="9.297759209757638"><ele>81.0</ele><time>2026-05-02T09:36:26.999Z</time></trkpt><trkpt lat="41.088962216210064" lon="9.297597461417034"><ele>81.75</ele><time>2026-05-02T09:36:27.999Z</time></trkpt><trkpt lat="41.088859920060315" lon="9.297494962521283"><ele>82.5</ele><time>2026-05-02T09:36:28.999Z</time></trkpt><trkpt lat="41.088750994618444" lon="9.297424283880575"><ele>83.25</ele><time>2026-05-02T09:36:29.999Z</time></trkpt><trkpt lat="41.08862157826832" lon="9.297355791159571"><ele>84.0</ele><time>2026-05-02T09:36:30.999Z</time></trkpt><trkpt lat="41.088456883069355" lon="9.297317500839723"><ele>84.0</ele><time>2026-05-02T09:36:31.999Z</time></trkpt><trkpt lat="41.08827472284685" lon="9.297257031977058"><ele>84.0</ele><time>2026-05-02T09:36:32.999Z</time></trkpt><trkpt lat="41.08808156645632" lon="9.297183003335016"><ele>84.0</ele><time>2026-05-02T09:36:34Z</time></trkpt><trkpt lat="41.08789327969749" lon="9.297110563973005"><ele>84.0</ele><time>2026-05-02T09:36:35Z</time></trkpt><trkpt lat="41.0877542785476" lon="9.297076770607385"><ele>84.0</ele><time>2026-05-02T09:36:36Z</time></trkpt><trkpt lat="41.087630408717416" lon="9.297042603854331"><ele>84.0</ele><time>2026-05-02T09:36:37Z</time></trkpt><trkpt lat="41.087477899500676" lon="9.297026060847514"><ele>84.0</ele><time>2026-05-02T09:36:38Z</time></trkpt><trkpt lat="41.08729277826521" lon="9.297050889752787"><ele>85.0</ele><time>2026-05-02T09:36:39Z</time></trkpt><trkpt lat="41.08712166175326" lon="9.297068413291584"><ele>86.0</ele><time>2026-05-02T09:36:40Z</time></trkpt><trkpt lat="41.08698740131212" lon="9.297098515281593"><ele>87.0</ele><time>2026-05-02T09:36:41Z</time></trkpt><trkpt lat="41.086836104598305" lon="9.297159965134624"><ele>89.0</ele><time>2026-05-02T09:36:42Z</time></trkpt><trkpt lat="41.08666291161618" lon="9.297264871413228"><ele>91.0</ele><time>2026-05-02T09:36:43Z</time></trkpt><trkpt lat="41.08647140560911" lon="9.297395408533797"><ele>93.0</ele><time>2026-05-02T09:36:44Z</time></trkpt><trkpt lat="41.08629379336936" lon="9.297529023623945"><ele>94.0</ele><time>2026-05-02T09:36:45Z</time></trkpt><trkpt lat="41.08615599089729" lon="9.29768019627225"><ele>95.0</ele><time>2026-05-02T09:36:46Z</time></trkpt><trkpt lat="41.08597911061487" lon="9.297836483978594"><ele>96.0</ele><time>2026-05-02T09:36:47Z</time></trkpt><trkpt lat="41.085802840526064" lon="9.298025481099934"><ele>98.33333333333334</ele><time>2026-05-02T09:36:48Z</time></trkpt><trkpt lat="41.08565214698979" lon="9.298176294529032"><ele>100.66666666666667</ele><time>2026-05-02T09:36:49Z</time></trkpt><trkpt lat="41.08550536636241" lon="9.298301525199966"><ele>103.0</ele><time>2026-05-02T09:36:50Z</time></trkpt><trkpt lat="41.08536252919379" lon="9.298365046771123"><ele>103.0</ele><time>2026-05-02T09:36:51Z</time></trkpt><trkpt lat="41.08521072864353" lon="9.298403060923485"><ele>103.0</ele><time>2026-05-02T09:36:52Z</time></trkpt><trkpt lat="41.085019210620075" lon="9.2984412768318"><ele>103.0</ele><time>2026-05-02T09:36:53Z</time></trkpt><trkpt lat="41.08480393359505" lon="9.298492423572357"><ele>103.0</ele><time>2026-05-02T09:36:54Z</time></trkpt><trkpt lat="41.08459428883776" lon="9.298551937120504"><ele>103.0</ele><time>2026-05-02T09:36:55Z</time></trkpt><trkpt lat="41.084362166125" lon="9.29860605210292"><ele>103.0</ele><time>2026-05-02T09:36:56Z</time></trkpt><trkpt lat="41.08412546209597" lon="9.298666554026957"><ele>103.0</ele><time>2026-05-02T09:36:57Z</time></trkpt><trkpt lat="41.08391635510744" lon="9.298706597468083"><ele>105.0</ele><time>2026-05-02T09:36:58Z</time></trkpt><trkpt lat="41.08371715964212" lon="9.298736504466284"><ele>107.0</ele><time>2026-05-02T09:36:59Z</time></trkpt><trkpt lat="41.08351744115314" lon="9.298765432144197"><ele>109.0</ele><time>2026-05-02T09:37:00Z</time></trkpt><trkpt lat="41.083318513345816" lon="9.298781145083526"><ele>113.0</ele><time>2026-05-02T09:37:01Z</time></trkpt><trkpt lat="41.08310032226723" lon="9.298770069233145"><ele>117.0</ele><time>2026-05-02T09:37:02Z</time></trkpt><trkpt lat="41.08286352470756" lon="9.298734385082092"><ele>117.0</ele><time>2026-05-02T09:37:03Z</time></trkpt><trkpt lat="41.0826109813557" lon="9.298679929730168"><ele>117.0</ele><time>2026-05-02T09:37:04Z</time></trkpt><trkpt lat="41.08237920191192" lon="9.298630903131867"><ele>117.0</ele><time>2026-05-02T09:37:05Z</time></trkpt><trkpt lat="41.08220274243583" lon="9.29859846278336"><ele>117.0</ele><time>2026-05-02T09:37:06Z</time></trkpt><trkpt lat="41.08203773083221" lon="9.298568125911668"><ele>117.0</ele><time>2026-05-02T09:37:07Z</time></trkpt><trkpt lat="41.08185419191139" lon="9.29853525373296"><ele>117.0</ele><time>2026-05-02T09:37:08Z</time></trkpt><trkpt lat="41.08164279487518" lon="9.298496793860258"><ele>117.0</ele><time>2026-05-02T09:37:09Z</time></trkpt><trkpt lat="41.0814556871209" lon="9.298456646652838"><ele>117.0</ele><time>2026-05-02T09:37:10Z</time></trkpt><trkpt lat="41.081291060861254" lon="9.298421708919854"><ele>118.0</ele><time>2026-05-02T09:37:11Z</time></trkpt><trkpt lat="41.08114118788111" lon="9.298393179364421"><ele>119.0</ele><time>2026-05-02T09:37:12Z</time></trkpt><trkpt lat="41.0810021476592" lon="9.298365340455884"><ele>120.0</ele><time>2026-05-02T09:37:13Z</time></trkpt><trkpt lat="41.08086223344985" lon="9.298330702519001"><ele>121.0</ele><time>2026-05-02T09:37:14Z</time></trkpt><trkpt lat="41.08072246028201" lon="9.298308400732045"><ele>121.0</ele><time>2026-05-02T09:37:15Z</time></trkpt><trkpt lat="41.080587020999424" lon="9.29829598699458"><ele>121.0</ele><time>2026-05-02T09:37:16Z</time></trkpt><trkpt lat="41.080466439977634" lon="9.298303438403215"><ele>121.0</ele><time>2026-05-02T09:37:17Z</time></trkpt><trkpt lat="41.080355435977985" lon="9.298328936193132"><ele>121.0</ele><time>2026-05-02T09:37:18Z</time></trkpt><trkpt lat="41.08026122828406" lon="9.298373521139625"><ele>121.0</ele><time>2026-05-02T09:37:19Z</time></trkpt><trkpt lat="41.08018197276271" lon="9.298386951722794"><ele>121.0</ele><time>2026-05-02T09:37:20Z</time></trkpt><trkpt lat="41.08018197276271" lon="9.298386951722794"><ele>121.0</ele><time>2026-05-02T09:37:20Z</time></trkpt><trkpt lat="41.07983288792987" lon="9.298452122605415"><ele>121.0</ele><time>2026-05-02T09:37:24Z</time></trkpt><trkpt lat="41.07975229010962" lon="9.298469974034607"><ele>120.8</ele><time>2026-05-02T09:37:25Z</time></trkpt><trkpt lat="41.07968243325722" lon="9.298485422487607"><ele>120.6</ele><time>2026-05-02T09:37:26Z</time></trkpt><trkpt lat="41.07957585681502" lon="9.298527997352775"><ele>120.4</ele><time>2026-05-02T09:37:28Z</time></trkpt><trkpt lat="41.079511110834694" lon="9.298563992478192"><ele>120.2</ele><time>2026-05-02T09:39:17.001Z</time></trkpt><trkpt lat="41.07940107117574" lon="9.298610948333547"><ele>120.0</ele><time>2026-05-02T09:39:20.001Z</time></trkpt><trkpt lat="41.07929464155357" lon="9.298687507832641"><ele>120.0</ele><time>2026-05-02T09:39:22.001Z</time></trkpt><trkpt lat="41.079248330802315" lon="9.298761282725293"><ele>120.0</ele><time>2026-05-02T09:40:10.001Z</time></trkpt><trkpt lat="41.079166835368085" lon="9.298815155411027"><ele>120.0</ele><time>2026-05-02T09:40:13.001Z</time></trkpt><trkpt lat="41.079108217229916" lon="9.298778169736254"><ele>120.0</ele><time>2026-05-02T09:40:17.001Z</time></trkpt><trkpt lat="41.0791471531605" lon="9.298621347702467"><ele>120.0</ele><time>2026-05-02T09:40:18.001Z</time></trkpt><trkpt lat="41.079177209527444" lon="9.298474595514197"><ele>120.0</ele><time>2026-05-02T09:40:20.001Z</time></trkpt><trkpt lat="41.079232320602856" lon="9.29831851817904"><ele>120.0</ele><time>2026-05-02T09:40:22.001Z</time></trkpt><trkpt lat="41.07927063481878" lon="9.298251798006643"><ele>120.0</ele><time>2026-05-02T09:40:23.001Z</time></trkpt><trkpt lat="41.0793170072441" lon="9.298181426128448"><ele>120.0</ele><time>2026-05-02T09:40:24.001Z</time></trkpt><trkpt lat="41.07937788099253" lon="9.29811407364858"><ele>120.0</ele><time>2026-05-02T09:40:25.001Z</time></trkpt><trkpt lat="41.079444284522516" lon="9.298045740646756"><ele>120.0</ele><time>2026-05-02T09:40:26.001Z</time></trkpt><trkpt lat="41.07952244957675" lon="9.297982997526104"><ele>120.4</ele><time>2026-05-02T09:40:27.001Z</time></trkpt><trkpt lat="41.07961519588317" lon="9.297928212926449"><ele>120.8</ele><time>2026-05-02T09:40:28.001Z</time></trkpt><trkpt lat="41.07971129875461" lon="9.297875871204752"><ele>121.19999999999999</ele><time>2026-05-02T09:40:29.001Z</time></trkpt><trkpt lat="41.079811492155464" lon="9.297825132499067"><ele>121.6</ele><time>2026-05-02T09:40:30.001Z</time></trkpt><trkpt lat="41.07991156218354" lon="9.297765448800282"><ele>122.0</ele><time>2026-05-02T09:40:31.001Z</time></trkpt><trkpt lat="41.08000161962509" lon="9.297692635503811"><ele>121.25</ele><time>2026-05-02T09:40:32.001Z</time></trkpt><trkpt lat="41.08008899053875" lon="9.297600948255281"><ele>120.5</ele><time>2026-05-02T09:40:33.001Z</time></trkpt><trkpt lat="41.08017000344282" lon="9.297487071206925"><ele>119.75</ele><time>2026-05-02T09:40:34.001Z</time></trkpt><trkpt lat="41.080239813819006" lon="9.297352355077743"><ele>119.0</ele><time>2026-05-02T09:40:35.001Z</time></trkpt><trkpt lat="41.08030322521272" lon="9.297207732972067"><ele>119.0</ele><time>2026-05-02T09:40:36.001Z</time></trkpt><trkpt lat="41.08037383522158" lon="9.29706823935168"><ele>119.0</ele><time>2026-05-02T09:40:37.001Z</time></trkpt><trkpt lat="41.08045088822572" lon="9.296925825008824"><ele>119.0</ele><time>2026-05-02T09:40:38.001Z</time></trkpt><trkpt lat="41.080529817744946" lon="9.296781952877579"><ele>119.0</ele><time>2026-05-02T09:40:39.001Z</time></trkpt><trkpt lat="41.0806079114489" lon="9.296632552672454"><ele>119.0</ele><time>2026-05-02T09:40:40.001Z</time></trkpt><trkpt lat="41.08069122085795" lon="9.296484688143133"><ele>119.0</ele><time>2026-05-02T09:40:41.001Z</time></trkpt><trkpt lat="41.08077209632946" lon="9.296330358998176"><ele>119.0</ele><time>2026-05-02T09:40:42.001Z</time></trkpt><trkpt lat="41.08085371853781" lon="9.296179031835972"><ele>119.0</ele><time>2026-05-02T09:40:43.001Z</time></trkpt><trkpt lat="41.08093160147561" lon="9.296036678000847"><ele>115.75</ele><time>2026-05-02T09:40:44.001Z</time></trkpt><trkpt lat="41.08100406696327" lon="9.295903292448042"><ele>112.5</ele><time>2026-05-02T09:40:45.001Z</time></trkpt><trkpt lat="41.081069465465944" lon="9.295770176285531"><ele>109.25</ele><time>2026-05-02T09:40:46.001Z</time></trkpt><trkpt lat="41.081120026001784" lon="9.295632424295775"><ele>106.0</ele><time>2026-05-02T09:40:47.001Z</time></trkpt><trkpt lat="41.08114952740324" lon="9.295487884593754"><ele>104.8</ele><time>2026-05-02T09:40:48.001Z</time></trkpt><trkpt lat="41.08116395381146" lon="9.29534282435625"><ele>103.6</ele><time>2026-05-02T09:40:49.001Z</time></trkpt><trkpt lat="41.08116897575454" lon="9.295200445328366"><ele>102.4</ele><time>2026-05-02T09:40:50.001Z</time></trkpt><trkpt lat="41.081177478524715" lon="9.295060829650962"><ele>101.2</ele><time>2026-05-02T09:40:51.001Z</time></trkpt><trkpt lat="41.081188912467525" lon="9.29492397225652"><ele>100.0</ele><time>2026-05-02T09:40:52.001Z</time></trkpt><trkpt lat="41.08120179865378" lon="9.294779652064374"><ele>98.0</ele><time>2026-05-02T09:40:53.001Z</time></trkpt><trkpt lat="41.081215074463984" lon="9.294625343910345"><ele>96.0</ele><time>2026-05-02T09:40:54.001Z</time></trkpt><trkpt lat="41.081221053873826" lon="9.294466760857567"><ele>94.0</ele><time>2026-05-02T09:40:55.001Z</time></trkpt><trkpt lat="41.08120135047665" lon="9.294309096833985"><ele>92.0</ele><time>2026-05-02T09:40:56.001Z</time></trkpt><trkpt lat="41.081139014483526" lon="9.294162815359943"><ele>92.0</ele><time>2026-05-02T09:40:57.001Z</time></trkpt><trkpt lat="41.081028546438276" lon="9.294051826816313"><ele>92.0</ele><time>2026-05-02T09:40:58.001Z</time></trkpt><trkpt lat="41.080888534346144" lon="9.293980000609801"><ele>92.0</ele><time>2026-05-02T09:40:59.001Z</time></trkpt><trkpt lat="41.08076338920942" lon="9.2938777342803"><ele>92.0</ele><time>2026-05-02T09:41:00.001Z</time></trkpt><trkpt lat="41.08068074747662" lon="9.293753604517663"><ele>90.75</ele><time>2026-05-02T09:41:01.001Z</time></trkpt><trkpt lat="41.08060976671071" lon="9.293616497170992"><ele>89.5</ele><time>2026-05-02T09:41:02.001Z</time></trkpt><trkpt lat="41.080596541997316" lon="9.293437469488742"><ele>88.25</ele><time>2026-05-02T09:41:03.001Z</time></trkpt><trkpt lat="41.080623618885625" lon="9.293262197334334"><ele>87.0</ele><time>2026-05-02T09:41:04.001Z</time></trkpt><trkpt lat="41.08069572237504" lon="9.293084347236208"><ele>85.33333333333333</ele><time>2026-05-02T09:41:05.001Z</time></trkpt><trkpt lat="41.08078830517275" lon="9.292909879875568"><ele>83.66666666666666</ele><time>2026-05-02T09:41:06.001Z</time></trkpt><trkpt lat="41.08089455068908" lon="9.292728356278568"><ele>82.0</ele><time>2026-05-02T09:41:07.001Z</time></trkpt><trkpt lat="41.08099811484055" lon="9.29253191276481"><ele>82.0</ele><time>2026-05-02T09:41:08.001Z</time></trkpt><trkpt lat="41.0811023505783" lon="9.292339873446515"><ele>82.0</ele><time>2026-05-02T09:41:09.001Z</time></trkpt><trkpt lat="41.081213842753" lon="9.29216538663524"><ele>82.0</ele><time>2026-05-02T09:41:10.001Z</time></trkpt><trkpt lat="41.08133626357416" lon="9.291995494735563"><ele>80.25</ele><time>2026-05-02T09:41:11.001Z</time></trkpt><trkpt lat="41.08144604004673" lon="9.29185269534256"><ele>78.5</ele><time>2026-05-02T09:41:12.001Z</time></trkpt><trkpt lat="41.08154806774651" lon="9.291739271146579"><ele>76.75</ele><time>2026-05-02T09:41:13.001Z</time></trkpt><trkpt lat="41.08166234989098" lon="9.291650281800724"><ele>75.0</ele><time>2026-05-02T09:41:14.001Z</time></trkpt><trkpt lat="41.081785619928375" lon="9.291623666809356"><ele>75.0</ele><time>2026-05-02T09:41:15.001Z</time></trkpt><trkpt lat="41.0819119026861" lon="9.291656221595327"><ele>75.0</ele><time>2026-05-02T09:41:16.001Z</time></trkpt><trkpt lat="41.082034191476424" lon="9.291747254137691"><ele>75.0</ele><time>2026-05-02T09:41:17.001Z</time></trkpt><trkpt lat="41.08214997232164" lon="9.291900374242807"><ele>75.0</ele><time>2026-05-02T09:41:18.001Z</time></trkpt><trkpt lat="41.08226245524873" lon="9.292068544135507"><ele>75.0</ele><time>2026-05-02T09:41:19.001Z</time></trkpt><trkpt lat="41.08238357659486" lon="9.292250952453081"><ele>75.0</ele><time>2026-05-02T09:41:20.001Z</time></trkpt><trkpt lat="41.082502547668994" lon="9.292422351701667"><ele>75.0</ele><time>2026-05-02T09:41:21.001Z</time></trkpt><trkpt lat="41.08261832301526" lon="9.292570845104173"><ele>74.25</ele><time>2026-05-02T09:41:22.001Z</time></trkpt><trkpt lat="41.082733880726614" lon="9.292693394931879"><ele>73.5</ele><time>2026-05-02T09:41:23.001Z</time></trkpt><trkpt lat="41.082859839479404" lon="9.29276223970036"><ele>72.75</ele><time>2026-05-02T09:41:24.001Z</time></trkpt><trkpt lat="41.08299683194645" lon="9.292754120352047"><ele>72.0</ele><time>2026-05-02T09:41:25.001Z</time></trkpt><trkpt lat="41.083123907530755" lon="9.292693299466514"><ele>72.0</ele><time>2026-05-02T09:41:26.001Z</time></trkpt><trkpt lat="41.08322448078928" lon="9.292560706226986"><ele>72.0</ele><time>2026-05-02T09:41:27.001Z</time></trkpt><trkpt lat="41.08328700862645" lon="9.29238628457308"><ele>72.0</ele><time>2026-05-02T09:41:28.001Z</time></trkpt><trkpt lat="41.083314303561075" lon="9.292187056089254"><ele>72.0</ele><time>2026-05-02T09:41:29.001Z</time></trkpt><trkpt lat="41.08330601280379" lon="9.291967462935167"><ele>69.0</ele><time>2026-05-02T09:41:30.001Z</time></trkpt><trkpt lat="41.08329901344281" lon="9.29175213013099"><ele>66.0</ele><time>2026-05-02T09:41:31.001Z</time></trkpt><trkpt lat="41.08329819010171" lon="9.291524513735318"><ele>63.0</ele><time>2026-05-02T09:41:32.001Z</time></trkpt><trkpt lat="41.0832953726509" lon="9.29128979650215"><ele>62.66666666666667</ele><time>2026-05-02T09:41:33.001Z</time></trkpt><trkpt lat="41.08328702342715" lon="9.291052589416308"><ele>62.333333333333336</ele><time>2026-05-02T09:41:34.001Z</time></trkpt><trkpt lat="41.083265748910044" lon="9.290834578450442"><ele>62.0</ele><time>2026-05-02T09:41:35.001Z</time></trkpt><trkpt lat="41.083221782719825" lon="9.290629807882173"><ele>58.66666666666667</ele><time>2026-05-02T09:41:36.001Z</time></trkpt><trkpt lat="41.08315007707149" lon="9.290438371270394"><ele>55.33333333333333</ele><time>2026-05-02T09:41:37.001Z</time></trkpt><trkpt lat="41.083036842744484" lon="9.29026602242199"><ele>52.0</ele><time>2026-05-02T09:41:38.001Z</time></trkpt><trkpt lat="41.08291484269731" lon="9.29009130472201"><ele>52.0</ele><time>2026-05-02T09:41:39.001Z</time></trkpt><trkpt lat="41.08280397420455" lon="9.289927003316294"><ele>52.0</ele><time>2026-05-02T09:41:40.001Z</time></trkpt><trkpt lat="41.082694786094706" lon="9.289772217047602"><ele>52.0</ele><time>2026-05-02T09:41:41.001Z</time></trkpt><trkpt lat="41.08256675471546" lon="9.289668717212907"><ele>51.5</ele><time>2026-05-02T09:41:42.001Z</time></trkpt><trkpt lat="41.08241364915845" lon="9.289621011798106"><ele>51.0</ele><time>2026-05-02T09:41:43.001Z</time></trkpt><trkpt lat="41.082262565269076" lon="9.289645318081334"><ele>50.5</ele><time>2026-05-02T09:41:44.001Z</time></trkpt><trkpt lat="41.082135860454095" lon="9.28964612662943"><ele>50.0</ele><time>2026-05-02T09:41:45.001Z</time></trkpt><trkpt lat="41.08203285762587" lon="9.289611058234957"><ele>50.0</ele><time>2026-05-02T09:41:46.001Z</time></trkpt><trkpt lat="41.08193046614381" lon="9.289526577798485"><ele>50.0</ele><time>2026-05-02T09:41:47.001Z</time></trkpt><trkpt lat="41.08185909534425" lon="9.28937572388204"><ele>50.0</ele><time>2026-05-02T09:41:48.001Z</time></trkpt><trkpt lat="41.08184382146302" lon="9.289197695360116"><ele>50.0</ele><time>2026-05-02T09:41:49.001Z</time></trkpt><trkpt lat="41.08187367432143" lon="9.289022834916414"><ele>48.66666666666667</ele><time>2026-05-02T09:41:50.001Z</time></trkpt><trkpt lat="41.08195777935098" lon="9.288867536345554"><ele>47.333333333333336</ele><time>2026-05-02T09:41:51.001Z</time></trkpt><trkpt lat="41.08207316458823" lon="9.288715548279047"><ele>46.0</ele><time>2026-05-02T09:41:52.001Z</time></trkpt><trkpt lat="41.082217196388655" lon="9.288587451448073"><ele>46.0</ele><time>2026-05-02T09:41:53.001Z</time></trkpt><trkpt lat="41.082313673389926" lon="9.288476726148078"><ele>46.0</ele><time>2026-05-02T09:41:54.001Z</time></trkpt><trkpt lat="41.08236049687493" lon="9.288346473937358"><ele>46.0</ele><time>2026-05-02T09:41:55.001Z</time></trkpt><trkpt lat="41.08235630349861" lon="9.288190916024543"><ele>46.0</ele><time>2026-05-02T09:41:56.001Z</time></trkpt><trkpt lat="41.082294047152814" lon="9.288037182144443"><ele>40.333333333333336</ele><time>2026-05-02T09:41:57.001Z</time></trkpt><trkpt lat="41.08218177009803" lon="9.287920536529231"><ele>34.666666666666664</ele><time>2026-05-02T09:41:58.001Z</time></trkpt><trkpt lat="41.082031729403674" lon="9.287870922185558"><ele>29.0</ele><time>2026-05-02T09:41:59.001Z</time></trkpt><trkpt lat="41.081871729540936" lon="9.287855411188811"><ele>29.0</ele><time>2026-05-02T09:42:00.001Z</time></trkpt><trkpt lat="41.08170467637144" lon="9.287790801376255"><ele>29.0</ele><time>2026-05-02T09:42:01.001Z</time></trkpt><trkpt lat="41.08153814554638" lon="9.287722544079875"><ele>29.0</ele><time>2026-05-02T09:42:02.001Z</time></trkpt><trkpt lat="41.081404368558445" lon="9.287631021489027"><ele>30.0</ele><time>2026-05-02T09:42:03.001Z</time></trkpt><trkpt lat="41.08132565971913" lon="9.28752425834175"><ele>31.0</ele><time>2026-05-02T09:42:04.001Z</time></trkpt><trkpt lat="41.081287969058494" lon="9.287390450977638"><ele>32.0</ele><time>2026-05-02T09:42:05.001Z</time></trkpt><trkpt lat="41.08127430238101" lon="9.287227097903537"><ele>33.0</ele><time>2026-05-02T09:42:06.001Z</time></trkpt><trkpt lat="41.08127423970364" lon="9.2870683793217"><ele>30.4</ele><time>2026-05-02T09:42:07.001Z</time></trkpt><trkpt lat="41.08126062653115" lon="9.286929952324243"><ele>27.799999999999997</ele><time>2026-05-02T09:42:08.001Z</time></trkpt><trkpt lat="41.081258983689146" lon="9.286799837669456"><ele>25.2</ele><time>2026-05-02T09:42:09.001Z</time></trkpt><trkpt lat="41.08126206650953" lon="9.28668001457059"><ele>22.6</ele><time>2026-05-02T09:42:10.001Z</time></trkpt><trkpt lat="41.08126535706085" lon="9.286569684358557"><ele>20.0</ele><time>2026-05-02T09:42:11.001Z</time></trkpt><trkpt lat="41.081267010545695" lon="9.28646826174539"><ele>20.833333333333336</ele><time>2026-05-02T09:42:12.001Z</time></trkpt><trkpt lat="41.081267698518026" lon="9.2863741958525"><ele>21.666666666666668</ele><time>2026-05-02T09:42:13.001Z</time></trkpt><trkpt lat="41.081269480810036" lon="9.286281410534277"><ele>22.5</ele><time>2026-05-02T09:42:14.001Z</time></trkpt><trkpt lat="41.08127210339587" lon="9.286195735570182"><ele>23.333333333333336</ele><time>2026-05-02T09:42:15.001Z</time></trkpt><trkpt lat="41.08131554530406" lon="9.286045562294925"><ele>24.166666666666668</ele><time>2026-05-02T09:42:17.001Z</time></trkpt><trkpt lat="41.08136642167289" lon="9.28595596033993"><ele>25.0</ele><time>2026-05-02T09:42:19.001Z</time></trkpt><trkpt lat="41.081279505390086" lon="9.285979102151073"><ele>25.0</ele><time>2026-05-02T09:42:24.001Z</time></trkpt><trkpt lat="41.08127435590363" lon="9.286159856443367"><ele>25.0</ele><time>2026-05-02T09:42:39Z</time></trkpt><trkpt lat="41.08125899865601" lon="9.2862773853766"><ele>25.0</ele><time>2026-05-02T09:42:40Z</time></trkpt><trkpt lat="41.08124292445" lon="9.286414260141411"><ele>25.0</ele><time>2026-05-02T09:42:41Z</time></trkpt><trkpt lat="41.08124138163041" lon="9.28657042237682"><ele>25.0</ele><time>2026-05-02T09:42:42Z</time></trkpt><trkpt lat="41.08124288842403" lon="9.286733742154587"><ele>23.75</ele><time>2026-05-02T09:42:43Z</time></trkpt><trkpt lat="41.081244630122974" lon="9.2869111105861"><ele>22.5</ele><time>2026-05-02T09:42:44Z</time></trkpt><trkpt lat="41.08124637975894" lon="9.287080524439979"><ele>21.25</ele><time>2026-05-02T09:42:45Z</time></trkpt><trkpt lat="41.08125037694857" lon="9.287255511386833"><ele>20.0</ele><time>2026-05-02T09:42:46Z</time></trkpt><trkpt lat="41.081263181054034" lon="9.287421621415124"><ele>22.25</ele><time>2026-05-02T09:42:47Z</time></trkpt><trkpt lat="41.08130116065489" lon="9.287569446835809"><ele>24.5</ele><time>2026-05-02T09:42:48Z</time></trkpt><trkpt lat="41.08137068004456" lon="9.287677393232133"><ele>26.75</ele><time>2026-05-02T09:42:49Z</time></trkpt><trkpt lat="41.08155148696195" lon="9.287795428286518"><ele>29.0</ele><time>2026-05-02T09:42:51Z</time></trkpt><trkpt lat="41.08163641115557" lon="9.28783143659042"><ele>28.999999999999996</ele><time>2026-05-02T09:42:52Z</time></trkpt><trkpt lat="41.0817160124097" lon="9.287857262438447"><ele>29.0</ele><time>2026-05-02T09:42:53Z</time></trkpt><trkpt lat="41.08178387429754" lon="9.287875237289024"><ele>29.0</ele><time>2026-05-02T09:42:54Z</time></trkpt><trkpt lat="41.08187932909305" lon="9.287900511161347"><ele>29.0</ele><time>2026-05-02T09:42:56Z</time></trkpt><trkpt lat="41.08194947765427" lon="9.287911611576611"><ele>28.999999999999996</ele><time>2026-05-02T09:42:58Z</time></trkpt><trkpt lat="41.08188385528047" lon="9.28787239617707"><ele>29.0</ele><time>2026-05-02T09:43:18Z</time></trkpt><trkpt lat="41.08183952978189" lon="9.287701776882209"><ele>28.999999999999996</ele><time>2026-05-02T09:43:20Z</time></trkpt><trkpt lat="41.08174798999761" lon="9.287658534541501"><ele>29.0</ele><time>2026-05-02T09:43:22Z</time></trkpt><trkpt lat="41.08167059085455" lon="9.28761571294227"><ele>29.0</ele><time>2026-05-02T09:43:24Z</time></trkpt><trkpt lat="41.081591966622085" lon="9.287563511768653"><ele>29.0</ele><time>2026-05-02T09:43:26Z</time></trkpt><trkpt lat="41.08152666440515" lon="9.287496344261688"><ele>28.999999999999996</ele><time>2026-05-02T09:43:28Z</time></trkpt><trkpt lat="41.08147042072444" lon="9.28740535065264"><ele>29.0</ele><time>2026-05-02T09:43:30Z</time></trkpt><trkpt lat="41.08143383015327" lon="9.287301204733364"><ele>27.71428571428572</ele><time>2026-05-02T09:43:32Z</time></trkpt><trkpt lat="41.08141290689829" lon="9.28720511122271"><ele>26.42857142857143</ele><time>2026-05-02T09:43:34Z</time></trkpt><trkpt lat="41.081431236617966" lon="9.287119346007339"><ele>25.142857142857146</ele><time>2026-05-02T09:43:37Z</time></trkpt><trkpt lat="41.08151849657598" lon="9.287116141093794"><ele>23.85714285714286</ele><time>2026-05-02T09:43:51Z</time></trkpt><trkpt lat="41.081581025219116" lon="9.287125949135504"><ele>22.571428571428573</ele><time>2026-05-02T09:43:52Z</time></trkpt><trkpt lat="41.08164843811547" lon="9.287150322423635"><ele>21.285714285714285</ele><time>2026-05-02T09:43:53Z</time></trkpt><trkpt lat="41.08171174651032" lon="9.287172058370615"><ele>20.0</ele><time>2026-05-02T09:43:54Z</time></trkpt><trkpt lat="41.081822580014105" lon="9.287216766742098"><ele>20.0</ele><time>2026-05-02T09:43:56Z</time></trkpt><trkpt lat="41.081935388400545" lon="9.287230242681721"><ele>20.0</ele><time>2026-05-02T09:43:58Z</time></trkpt><trkpt lat="41.0820638493473" lon="9.287253975169484"><ele>20.0</ele><time>2026-05-02T09:44:00Z</time></trkpt><trkpt lat="41.08220000984185" lon="9.287269094335198"><ele>20.0</ele><time>2026-05-02T09:44:02Z</time></trkpt><trkpt lat="41.08229216529957" lon="9.287272469613184"><ele>20.833333333333336</ele><time>2026-05-02T09:44:03Z</time></trkpt><trkpt lat="41.08236692263918" lon="9.287276053287343"><ele>21.666666666666668</ele><time>2026-05-02T09:44:04Z</time></trkpt><trkpt lat="41.08244617562406" lon="9.287282851822662"><ele>22.5</ele><time>2026-05-02T09:44:05Z</time></trkpt><trkpt lat="41.08253115576262" lon="9.287284918478372"><ele>23.333333333333336</ele><time>2026-05-02T09:44:06Z</time></trkpt><trkpt lat="41.08261032018995" lon="9.287283946491801"><ele>24.166666666666668</ele><time>2026-05-02T09:44:07Z</time></trkpt><trkpt lat="41.08269007871054" lon="9.2873198460571"><ele>25.0</ele><time>2026-05-02T09:44:08Z</time></trkpt><trkpt lat="41.082770206501245" lon="9.287326776926639"><ele>25.000000000000004</ele><time>2026-05-02T09:44:09Z</time></trkpt><trkpt lat="41.08285564629517" lon="9.28732966526545"><ele>25.0</ele><time>2026-05-02T09:44:10Z</time></trkpt><trkpt lat="41.08295366683494" lon="9.28732854016876"><ele>25.0</ele><time>2026-05-02T09:44:11Z</time></trkpt><trkpt lat="41.083044347955024" lon="9.287342682634863"><ele>25.0</ele><time>2026-05-02T09:44:12Z</time></trkpt><trkpt lat="41.08312717752166" lon="9.287364682762558"><ele>25.000000000000004</ele><time>2026-05-02T09:44:13Z</time></trkpt><trkpt lat="41.08320191789723" lon="9.287380174446113"><ele>25.0</ele><time>2026-05-02T09:44:14Z</time></trkpt><trkpt lat="41.08326249324783" lon="9.287409802734773"><ele>24.0</ele><time>2026-05-02T09:44:15Z</time></trkpt><trkpt lat="41.08337300715606" lon="9.287453377405896"><ele>23.0</ele><time>2026-05-02T09:44:17Z</time></trkpt><trkpt lat="41.083445798141376" lon="9.287457280544976"><ele>22.0</ele><time>2026-05-02T09:44:18Z</time></trkpt><trkpt lat="41.08355127823874" lon="9.287505175134937"><ele>21.0</ele><time>2026-05-02T09:44:19Z</time></trkpt><trkpt lat="41.08364005392391" lon="9.287555746594595"><ele>20.0</ele><time>2026-05-02T09:44:20Z</time></trkpt><trkpt lat="41.0837199605644" lon="9.2875901013892"><ele>20.0</ele><time>2026-05-02T09:44:21Z</time></trkpt><trkpt lat="41.08380299322904" lon="9.287607020612827"><ele>20.0</ele><time>2026-05-02T09:44:22Z</time></trkpt><trkpt lat="41.08388478983304" lon="9.287628172118339"><ele>20.0</ele><time>2026-05-02T09:44:23Z</time></trkpt><trkpt lat="41.0839603672999" lon="9.287671696853323"><ele>20.0</ele><time>2026-05-02T09:44:24Z</time></trkpt><trkpt lat="41.084023483942715" lon="9.287723708720021"><ele>20.0</ele><time>2026-05-02T09:44:25Z</time></trkpt><trkpt lat="41.08409003794378" lon="9.28776233386592"><ele>20.0</ele><time>2026-05-02T09:44:26Z</time></trkpt><trkpt lat="41.08416196486924" lon="9.287813962215328"><ele>19.0</ele><time>2026-05-02T09:44:27Z</time></trkpt><trkpt lat="41.08421810395142" lon="9.28785913937912"><ele>18.0</ele><time>2026-05-02T09:44:28Z</time></trkpt><trkpt lat="41.0843221489468" lon="9.287931901733955"><ele>17.0</ele><time>2026-05-02T09:44:30Z</time></trkpt><trkpt lat="41.08441304165035" lon="9.287978901273226"><ele>16.0</ele><time>2026-05-02T09:44:32Z</time></trkpt><trkpt lat="41.08451190860982" lon="9.288035773354244"><ele>15.0</ele><time>2026-05-02T09:44:34Z</time></trkpt><trkpt lat="41.08456823186534" lon="9.28808468243647"><ele>15.833333333333334</ele><time>2026-05-02T09:44:35Z</time></trkpt><trkpt lat="41.084639123626374" lon="9.28813956301516"><ele>16.666666666666668</ele><time>2026-05-02T09:44:36Z</time></trkpt><trkpt lat="41.08469798212488" lon="9.288188901517405"><ele>17.5</ele><time>2026-05-02T09:44:37Z</time></trkpt><trkpt lat="41.08474352394878" lon="9.288257060164318"><ele>18.333333333333336</ele><time>2026-05-02T09:44:38Z</time></trkpt><trkpt lat="41.08477676888929" lon="9.288337900750715"><ele>19.166666666666668</ele><time>2026-05-02T09:44:39Z</time></trkpt><trkpt lat="41.08488682100113" lon="9.288442391004269"><ele>20.0</ele><time>2026-05-02T09:44:41Z</time></trkpt><trkpt lat="41.085002036051094" lon="9.288461634988284"><ele>20.0</ele><time>2026-05-02T09:44:42Z</time></trkpt><trkpt lat="41.08509916813774" lon="9.288448258058684"><ele>20.0</ele><time>2026-05-02T09:44:43Z</time></trkpt><trkpt lat="41.08520536246895" lon="9.288434178427792"><ele>20.0</ele><time>2026-05-02T09:44:44Z</time></trkpt><trkpt lat="41.08533090949077" lon="9.28844561732271"><ele>20.0</ele><time>2026-05-02T09:44:45Z</time></trkpt><trkpt lat="41.08541499144709" lon="9.288482775865026"><ele>20.0</ele><time>2026-05-02T09:44:46Z</time></trkpt><trkpt lat="41.08550506903061" lon="9.288525838224936"><ele>20.0</ele><time>2026-05-02T09:44:47Z</time></trkpt><trkpt lat="41.085595051648376" lon="9.288581722425734"><ele>20.0</ele><time>2026-05-02T09:44:48Z</time></trkpt><trkpt lat="41.08566072942781" lon="9.288604020722774"><ele>20.0</ele><time>2026-05-02T09:44:49Z</time></trkpt><trkpt lat="41.085783794443664" lon="9.288598300733614"><ele>20.0</ele><time>2026-05-02T09:44:51Z</time></trkpt><trkpt lat="41.0858533755313" lon="9.28860404596747"><ele>20.0</ele><time>2026-05-02T09:44:52Z</time></trkpt><trkpt lat="41.08595384195011" lon="9.288604207923838"><ele>19.833333333333336</ele><time>2026-05-02T09:44:54Z</time></trkpt><trkpt lat="41.08602324382975" lon="9.288575441968064"><ele>19.666666666666668</ele><time>2026-05-02T09:44:56Z</time></trkpt><trkpt lat="41.08610723787833" lon="9.288568231572485"><ele>19.5</ele><time>2026-05-02T09:44:58Z</time></trkpt><trkpt lat="41.086214363827466" lon="9.28858121023326"><ele>19.333333333333332</ele><time>2026-05-02T09:45:00Z</time></trkpt><trkpt lat="41.08629421842285" lon="9.288582720536143"><ele>19.166666666666664</ele><time>2026-05-02T09:45:01Z</time></trkpt><trkpt lat="41.08636979217291" lon="9.288571097127885"><ele>19.0</ele><time>2026-05-02T09:45:02Z</time></trkpt><trkpt lat="41.086495966761525" lon="9.288574252781842"><ele>19.0</ele><time>2026-05-02T09:45:04Z</time></trkpt><trkpt lat="41.086571513861685" lon="9.288576343934501"><ele>19.0</ele><time>2026-05-02T09:45:05Z</time></trkpt><trkpt lat="41.086667063268" lon="9.288592835147602"><ele>19.0</ele><time>2026-05-02T09:45:06Z</time></trkpt><trkpt lat="41.08675408181589" lon="9.288615115819528"><ele>19.0</ele><time>2026-05-02T09:45:07Z</time></trkpt><trkpt lat="41.0868279442333" lon="9.28866515889733"><ele>19.0</ele><time>2026-05-02T09:45:08Z</time></trkpt><trkpt lat="41.08689827172161" lon="9.288722788219168"><ele>19.0</ele><time>2026-05-02T09:45:09Z</time></trkpt><trkpt lat="41.08698226749213" lon="9.288786454445962"><ele>19.0</ele><time>2026-05-02T09:45:10Z</time></trkpt><trkpt lat="41.087105269680315" lon="9.288842572895717"><ele>19.0</ele><time>2026-05-02T09:45:12Z</time></trkpt><trkpt lat="41.08716873529422" lon="9.288843340347192"><ele>19.0</ele><time>2026-05-02T09:45:13Z</time></trkpt><trkpt lat="41.08723347327357" lon="9.28884452431923"><ele>19.0</ele><time>2026-05-02T09:45:14Z</time></trkpt><trkpt lat="41.087304045784975" lon="9.28884842704017"><ele>19.0</ele><time>2026-05-02T09:45:15Z</time></trkpt><trkpt lat="41.08737811887855" lon="9.2888760918574"><ele>19.0</ele><time>2026-05-02T09:45:16Z</time></trkpt><trkpt lat="41.087449422977706" lon="9.288904485550894"><ele>19.833333333333332</ele><time>2026-05-02T09:45:17Z</time></trkpt><trkpt lat="41.08752642157474" lon="9.288928429506905"><ele>20.666666666666664</ele><time>2026-05-02T09:45:18Z</time></trkpt><trkpt lat="41.087609342106674" lon="9.288950416036696"><ele>21.5</ele><time>2026-05-02T09:45:19Z</time></trkpt><trkpt lat="41.087685110951" lon="9.288968780802831"><ele>22.333333333333332</ele><time>2026-05-02T09:45:20Z</time></trkpt><trkpt lat="41.087761394539626" lon="9.288994539644259"><ele>23.166666666666668</ele><time>2026-05-02T09:45:21Z</time></trkpt><trkpt lat="41.087827354051846" lon="9.289013805047537"><ele>24.0</ele><time>2026-05-02T09:45:22Z</time></trkpt><trkpt lat="41.0878914085032" lon="9.289030691219445"><ele>23.999999999999996</ele><time>2026-05-02T09:45:23Z</time></trkpt><trkpt lat="41.08795746603575" lon="9.289048932291518"><ele>24.0</ele><time>2026-05-02T09:45:24Z</time></trkpt><trkpt lat="41.088027764856086" lon="9.289085340492175"><ele>24.0</ele><time>2026-05-02T09:45:25Z</time></trkpt><trkpt lat="41.088102853171236" lon="9.289143199242002"><ele>24.0</ele><time>2026-05-02T09:45:26Z</time></trkpt><trkpt lat="41.08816547608767" lon="9.289194772748031"><ele>24.0</ele><time>2026-05-02T09:45:27Z</time></trkpt><trkpt lat="41.08823179750237" lon="9.289220572952818"><ele>23.999999999999996</ele><time>2026-05-02T09:45:28Z</time></trkpt><trkpt lat="41.088306890081014" lon="9.28923551451104"><ele>24.0</ele><time>2026-05-02T09:45:29Z</time></trkpt><trkpt lat="41.08842120429303" lon="9.2892843495453"><ele>23.0</ele><time>2026-05-02T09:45:31Z</time></trkpt><trkpt lat="41.08851393253129" lon="9.289369443093506"><ele>22.0</ele><time>2026-05-02T09:45:33Z</time></trkpt><trkpt lat="41.08861118663622" lon="9.28942870216849"><ele>21.0</ele><time>2026-05-02T09:45:35Z</time></trkpt><trkpt lat="41.088715743282684" lon="9.289437495349183"><ele>20.0</ele><time>2026-05-02T09:45:37Z</time></trkpt><trkpt lat="41.088808410100405" lon="9.289402197622787"><ele>19.0</ele><time>2026-05-02T09:45:39Z</time></trkpt><trkpt lat="41.08892187700479" lon="9.28941875586814"><ele>19.0</ele><time>2026-05-02T09:45:41Z</time></trkpt><trkpt lat="41.08898546924394" lon="9.289466170613844"><ele>19.0</ele><time>2026-05-02T09:45:42Z</time></trkpt><trkpt lat="41.08905863136849" lon="9.289503123948931"><ele>19.0</ele><time>2026-05-02T09:45:43Z</time></trkpt><trkpt lat="41.08914689747874" lon="9.289545200519367"><ele>19.0</ele><time>2026-05-02T09:45:44Z</time></trkpt><trkpt lat="41.08923951188872" lon="9.289586719232455"><ele>19.0</ele><time>2026-05-02T09:45:45Z</time></trkpt><trkpt lat="41.089324542554195" lon="9.289614325562649"><ele>19.0</ele><time>2026-05-02T09:45:46Z</time></trkpt><trkpt lat="41.08941276651963" lon="9.289641803541997"><ele>19.0</ele><time>2026-05-02T09:45:47Z</time></trkpt><trkpt lat="41.0894977533847" lon="9.289682254660125"><ele>19.0</ele><time>2026-05-02T09:45:48Z</time></trkpt><trkpt lat="41.08958453845928" lon="9.289711037861668"><ele>19.0</ele><time>2026-05-02T09:45:49Z</time></trkpt><trkpt lat="41.08967031076857" lon="9.289736857608965"><ele>19.0</ele><time>2026-05-02T09:45:50Z</time></trkpt><trkpt lat="41.08975793161865" lon="9.28976810245584"><ele>19.0</ele><time>2026-05-02T09:45:52Z</time></trkpt><trkpt lat="41.08983809415324" lon="9.289859446872953"><ele>19.0</ele><time>2026-05-02T09:45:54Z</time></trkpt><trkpt lat="41.0898977751179" lon="9.289916392024615"><ele>19.0</ele><time>2026-05-02T09:45:55Z</time></trkpt><trkpt lat="41.09000946081324" lon="9.28997420756144"><ele>19.0</ele><time>2026-05-02T09:45:57Z</time></trkpt><trkpt lat="41.09006746269792" lon="9.290014879588412"><ele>19.0</ele><time>2026-05-02T09:45:58Z</time></trkpt><trkpt lat="41.09012293312493" lon="9.290061076092062"><ele>19.0</ele><time>2026-05-02T09:45:59Z</time></trkpt><trkpt lat="41.09018013365505" lon="9.290110251429699"><ele>19.0</ele><time>2026-05-02T09:46:00Z</time></trkpt><trkpt lat="41.090238475960376" lon="9.290170726935893"><ele>18.333333333333332</ele><time>2026-05-02T09:46:01Z</time></trkpt><trkpt lat="41.09029837796105" lon="9.290227195903014"><ele>17.666666666666664</ele><time>2026-05-02T09:46:02Z</time></trkpt><trkpt lat="41.09037921711875" lon="9.290288740471054"><ele>17.0</ele><time>2026-05-02T09:46:04Z</time></trkpt><trkpt lat="41.09044571718332" lon="9.290299701970238"><ele>16.333333333333332</ele><time>2026-05-02T09:46:06Z</time></trkpt><trkpt lat="41.090538106653824" lon="9.290275346156982"><ele>15.666666666666666</ele><time>2026-05-02T09:46:08Z</time></trkpt><trkpt lat="41.09064060831846" lon="9.290257113738631"><ele>15.0</ele><time>2026-05-02T09:46:10Z</time></trkpt><trkpt lat="41.090709368190716" lon="9.290245421301703"><ele>15.285714285714286</ele><time>2026-05-02T09:46:14Z</time></trkpt><trkpt lat="41.09078067247026" lon="9.290194423579521"><ele>15.57142857142857</ele><time>2026-05-02T09:46:19Z</time></trkpt><trkpt lat="41.09084007354731" lon="9.290133943091726"><ele>15.857142857142856</ele><time>2026-05-02T09:46:23Z</time></trkpt><trkpt lat="41.09090199670803" lon="9.29009400492615"><ele>16.142857142857142</ele><time>2026-05-02T09:46:25Z</time></trkpt><trkpt lat="41.090965959763885" lon="9.290063946495593"><ele>16.428571428571427</ele><time>2026-05-02T09:46:27Z</time></trkpt><trkpt lat="41.09102971183831" lon="9.290039854826372"><ele>16.71428571428571</ele><time>2026-05-02T09:46:29Z</time></trkpt><trkpt lat="41.09110119807932" lon="9.2900364918083"><ele>17.0</ele><time>2026-05-02T09:46:31Z</time></trkpt><trkpt lat="41.091179971420246" lon="9.290052599347744"><ele>17.0</ele><time>2026-05-02T09:46:33Z</time></trkpt><trkpt lat="41.091254685635846" lon="9.290068401515695"><ele>17.0</ele><time>2026-05-02T09:46:35Z</time></trkpt><trkpt lat="41.09132369415258" lon="9.29008550134692"><ele>17.0</ele><time>2026-05-02T09:46:37Z</time></trkpt><trkpt lat="41.0914020141275" lon="9.290064655952088"><ele>17.0</ele><time>2026-05-02T09:46:39Z</time></trkpt><trkpt lat="41.0914956526304" lon="9.290061844609768"><ele>17.0</ele><time>2026-05-02T09:46:41Z</time></trkpt><trkpt lat="41.09155872222725" lon="9.290050007175338"><ele>17.0</ele><time>2026-05-02T09:46:43Z</time></trkpt><trkpt lat="41.09162468685088" lon="9.289991451237041"><ele>16.999999999999996</ele><time>2026-05-02T09:46:53Z</time></trkpt><trkpt lat="41.09168954505342" lon="9.289966015306529"><ele>17.0</ele><time>2026-05-02T09:46:56Z</time></trkpt><trkpt lat="41.091772503570716" lon="9.289954893717857"><ele>17.0</ele><time>2026-05-02T09:47:27Z</time></trkpt><trkpt lat="41.09184110024731" lon="9.289967380952612"><ele>17.0</ele><time>2026-05-02T09:47:52Z</time></trkpt><trkpt lat="41.09191649225936" lon="9.289968873100866"><ele>17.0</ele><time>2026-05-02T09:47:55Z</time></trkpt><trkpt lat="41.09199007187201" lon="9.289966726447286"><ele>16.999999999999996</ele><time>2026-05-02T09:47:59Z</time></trkpt><trkpt lat="41.09205474449492" lon="9.289980885471147"><ele>17.0</ele><time>2026-05-02T09:48:01Z</time></trkpt><trkpt lat="41.092131268162674" lon="9.290016268905083"><ele>17.0</ele><time>2026-05-02T09:48:03Z</time></trkpt><trkpt lat="41.09223154206709" lon="9.290061964133569"><ele>17.0</ele><time>2026-05-02T09:48:05Z</time></trkpt><trkpt lat="41.09233524880808" lon="9.290102539758761"><ele>17.0</ele><time>2026-05-02T09:48:07Z</time></trkpt><trkpt lat="41.092429451879504" lon="9.290131277755293"><ele>17.0</ele><time>2026-05-02T09:48:09Z</time></trkpt><trkpt lat="41.09250967271831" lon="9.290157842854581"><ele>17.0</ele><time>2026-05-02T09:48:12Z</time></trkpt><trkpt lat="41.09258822978125" lon="9.290210442556273"><ele>17.0</ele><time>2026-05-02T09:48:16Z</time></trkpt><trkpt lat="41.09267082630619" lon="9.290224721615473"><ele>17.0</ele><time>2026-05-02T09:48:18Z</time></trkpt><trkpt lat="41.09275992032518" lon="9.290192160261668"><ele>17.0</ele><time>2026-05-02T09:48:21Z</time></trkpt><trkpt lat="41.092828591061775" lon="9.290239515051358"><ele>17.0</ele><time>2026-05-02T09:48:23Z</time></trkpt><trkpt lat="41.092944800489036" lon="9.290260565730591"><ele>17.0</ele><time>2026-05-02T09:48:25Z</time></trkpt><trkpt lat="41.09303096423868" lon="9.290271169502084"><ele>17.0</ele><time>2026-05-02T09:48:27Z</time></trkpt><trkpt lat="41.093148472626936" lon="9.290302992080978"><ele>17.0</ele><time>2026-05-02T09:48:29Z</time></trkpt><trkpt lat="41.09328610603849" lon="9.290304363948188"><ele>17.0</ele><time>2026-05-02T09:48:31Z</time></trkpt><trkpt lat="41.09335667655863" lon="9.290309547539163"><ele>17.0</ele><time>2026-05-02T09:48:32Z</time></trkpt><trkpt lat="41.09346371077734" lon="9.290344399301969"><ele>17.0</ele><time>2026-05-02T09:48:34Z</time></trkpt><trkpt lat="41.09357870950217" lon="9.290351454314921"><ele>16.6</ele><time>2026-05-02T09:48:36Z</time></trkpt><trkpt lat="41.09367494957494" lon="9.290383229487855"><ele>16.2</ele><time>2026-05-02T09:48:37Z</time></trkpt><trkpt lat="41.0937728873796" lon="9.290410266325107"><ele>15.8</ele><time>2026-05-02T09:48:38Z</time></trkpt><trkpt lat="41.09386489642109" lon="9.290413843277646"><ele>15.4</ele><time>2026-05-02T09:48:39Z</time></trkpt><trkpt lat="41.09398487874067" lon="9.290420185460485"><ele>15.0</ele><time>2026-05-02T09:48:41Z</time></trkpt><trkpt lat="41.094055186490934" lon="9.290419538306772"><ele>15.0</ele><time>2026-05-02T09:48:42Z</time></trkpt><trkpt lat="41.094121217074225" lon="9.290425655713566"><ele>15.0</ele><time>2026-05-02T09:48:43Z</time></trkpt><trkpt lat="41.09418677897072" lon="9.290444552401167"><ele>15.0</ele><time>2026-05-02T09:48:44Z</time></trkpt><trkpt lat="41.094249156888054" lon="9.290468346134848"><ele>15.0</ele><time>2026-05-02T09:48:45Z</time></trkpt><trkpt lat="41.09432166017808" lon="9.29048952765866"><ele>15.0</ele><time>2026-05-02T09:48:46Z</time></trkpt><trkpt lat="41.094407040238615" lon="9.290517132461378"><ele>15.0</ele><time>2026-05-02T09:48:47Z</time></trkpt><trkpt lat="41.09447958896973" lon="9.290554982423508"><ele>15.0</ele><time>2026-05-02T09:48:48Z</time></trkpt><trkpt lat="41.094537815099315" lon="9.290612532557198"><ele>15.2</ele><time>2026-05-02T09:48:49Z</time></trkpt><trkpt lat="41.09461685533871" lon="9.290658237826046"><ele>15.4</ele><time>2026-05-02T09:48:50Z</time></trkpt><trkpt lat="41.094690287692856" lon="9.290677512718363"><ele>15.600000000000001</ele><time>2026-05-02T09:48:51Z</time></trkpt><trkpt lat="41.094773603817934" lon="9.290700373534479"><ele>15.8</ele><time>2026-05-02T09:48:52Z</time></trkpt><trkpt lat="41.09485056316706" lon="9.290731318539754"><ele>16.0</ele><time>2026-05-02T09:48:53Z</time></trkpt><trkpt lat="41.09497238611745" lon="9.29081737047637"><ele>15.499999999999998</ele><time>2026-05-02T09:48:55Z</time></trkpt><trkpt lat="41.09504509961768" lon="9.290882817010742"><ele>15.0</ele><time>2026-05-02T09:48:56Z</time></trkpt><trkpt lat="41.09510619923871" lon="9.29094457770428"><ele>14.5</ele><time>2026-05-02T09:48:57Z</time></trkpt><trkpt lat="41.09515245686179" lon="9.291007056939307"><ele>14.0</ele><time>2026-05-02T09:48:58Z</time></trkpt><trkpt lat="41.095209971635" lon="9.29105499855317"><ele>13.499999999999998</ele><time>2026-05-02T09:48:59Z</time></trkpt><trkpt lat="41.09528508134075" lon="9.291077982607549"><ele>13.0</ele><time>2026-05-02T09:49:00Z</time></trkpt><trkpt lat="41.09536926324611" lon="9.29109303050748"><ele>12.999999999999998</ele><time>2026-05-02T09:49:01Z</time></trkpt><trkpt lat="41.09544592775035" lon="9.291121556206793"><ele>13.0</ele><time>2026-05-02T09:49:02Z</time></trkpt><trkpt lat="41.0955163383915" lon="9.291153974066741"><ele>13.0</ele><time>2026-05-02T09:49:03Z</time></trkpt><trkpt lat="41.09557464695209" lon="9.29119185987145"><ele>13.0</ele><time>2026-05-02T09:49:04Z</time></trkpt><trkpt lat="41.09564207282746" lon="9.291245739307229"><ele>12.999999999999998</ele><time>2026-05-02T09:49:05Z</time></trkpt><trkpt lat="41.09572194346585" lon="9.291294041945706"><ele>13.0</ele><time>2026-05-02T09:49:06Z</time></trkpt><trkpt lat="41.095808687386835" lon="9.291355565084524"><ele>13.600000000000001</ele><time>2026-05-02T09:49:07Z</time></trkpt><trkpt lat="41.095901692697204" lon="9.291429222728707"><ele>14.200000000000001</ele><time>2026-05-02T09:49:08Z</time></trkpt><trkpt lat="41.096008777406574" lon="9.291508113025598"><ele>14.8</ele><time>2026-05-02T09:49:09Z</time></trkpt><trkpt lat="41.096103599180495" lon="9.291592138695105"><ele>15.4</ele><time>2026-05-02T09:49:10Z</time></trkpt><trkpt lat="41.096178823229366" lon="9.291663875691953"><ele>16.0</ele><time>2026-05-02T09:49:11Z</time></trkpt><trkpt lat="41.09624059097642" lon="9.291754055623546"><ele>16.0</ele><time>2026-05-02T09:49:12Z</time></trkpt><trkpt lat="41.096285014957566" lon="9.291878054254816"><ele>16.0</ele><time>2026-05-02T09:49:13Z</time></trkpt><trkpt lat="41.09634329326696" lon="9.292048497380977"><ele>16.0</ele><time>2026-05-02T09:49:14Z</time></trkpt><trkpt lat="41.0964056871627" lon="9.292239996436814"><ele>16.0</ele><time>2026-05-02T09:49:15Z</time></trkpt><trkpt lat="41.096455119078065" lon="9.292429269269114"><ele>15.4</ele><time>2026-05-02T09:49:16Z</time></trkpt><trkpt lat="41.09648684999361" lon="9.292593617323618"><ele>14.8</ele><time>2026-05-02T09:49:17Z</time></trkpt><trkpt lat="41.09651632793958" lon="9.292718698864473"><ele>14.200000000000001</ele><time>2026-05-02T09:49:18Z</time></trkpt><trkpt lat="41.09654247332461" lon="9.292848078716197"><ele>13.600000000000001</ele><time>2026-05-02T09:50:55Z</time></trkpt><trkpt lat="41.09656655460133" lon="9.292945582229063"><ele>13.0</ele><time>2026-05-02T09:50:56Z</time></trkpt><trkpt lat="41.096597643044724" lon="9.293067297973064"><ele>13.0</ele><time>2026-05-02T09:50:57Z</time></trkpt><trkpt lat="41.09662874562946" lon="9.293187534523478"><ele>13.0</ele><time>2026-05-02T09:50:58Z</time></trkpt><trkpt lat="41.09666331804429" lon="9.293323273174282"><ele>13.0</ele><time>2026-05-02T09:50:59Z</time></trkpt><trkpt lat="41.09669801315937" lon="9.293455912297992"><ele>13.0</ele><time>2026-05-02T09:51:00Z</time></trkpt><trkpt lat="41.096729244815506" lon="9.293573928180546"><ele>13.0</ele><time>2026-05-02T09:51:01Z</time></trkpt><trkpt lat="41.09675784789654" lon="9.293672051330566"><ele>12.999999999999998</ele><time>2026-05-02T09:51:02Z</time></trkpt><trkpt lat="41.096793670650655" lon="9.293764948044313"><ele>13.0</ele><time>2026-05-02T09:51:03Z</time></trkpt><trkpt lat="41.09683435598557" lon="9.293857262531304"><ele>13.0</ele><time>2026-05-02T09:51:04Z</time></trkpt><trkpt lat="41.096877006543735" lon="9.293967067046939"><ele>13.0</ele><time>2026-05-02T09:51:05Z</time></trkpt><trkpt lat="41.096918561059844" lon="9.294076429361747"><ele>12.999999999999998</ele><time>2026-05-02T09:51:06Z</time></trkpt><trkpt lat="41.096973468899954" lon="9.294180403324079"><ele>13.0</ele><time>2026-05-02T09:51:07Z</time></trkpt><trkpt lat="41.09703786811328" lon="9.294272094380787"><ele>13.166666666666666</ele><time>2026-05-02T09:51:08Z</time></trkpt><trkpt lat="41.097105736668574" lon="9.294350282145512"><ele>13.333333333333332</ele><time>2026-05-02T09:51:09Z</time></trkpt><trkpt lat="41.097167697937486" lon="9.294414944230379"><ele>13.5</ele><time>2026-05-02T09:51:10Z</time></trkpt><trkpt lat="41.09724842337817" lon="9.294493643054746"><ele>13.666666666666668</ele><time>2026-05-02T09:51:11Z</time></trkpt><trkpt lat="41.097320956096844" lon="9.294563985919488"><ele>13.833333333333334</ele><time>2026-05-02T09:51:12Z</time></trkpt><trkpt lat="41.09738835398302" lon="9.294608127979556"><ele>14.0</ele><time>2026-05-02T09:51:13Z</time></trkpt><trkpt lat="41.09747511067429" lon="9.294646793570585"><ele>14.000000000000002</ele><time>2026-05-02T09:51:14Z</time></trkpt><trkpt lat="41.09755464916419" lon="9.294687802230074"><ele>14.0</ele><time>2026-05-02T09:51:15Z</time></trkpt><trkpt lat="41.097625778093864" lon="9.294729285098922"><ele>14.0</ele><time>2026-05-02T09:51:16Z</time></trkpt><trkpt lat="41.09770604852333" lon="9.294781544671984"><ele>14.0</ele><time>2026-05-02T09:51:17Z</time></trkpt><trkpt lat="41.097764725130986" lon="9.294837513296379"><ele>14.000000000000002</ele><time>2026-05-02T09:51:18Z</time></trkpt><trkpt lat="41.09781406252167" lon="9.294918457475507"><ele>14.0</ele><time>2026-05-02T09:51:19Z</time></trkpt><trkpt lat="41.09785639221076" lon="9.295011047002623"><ele>14.166666666666668</ele><time>2026-05-02T09:51:20Z</time></trkpt><trkpt lat="41.09788555443622" lon="9.295098287192934"><ele>14.333333333333334</ele><time>2026-05-02T09:51:21Z</time></trkpt><trkpt lat="41.0979443347553" lon="9.295166364618435"><ele>14.5</ele><time>2026-05-02T09:51:23Z</time></trkpt><trkpt lat="41.09801634193324" lon="9.295141378235295"><ele>14.666666666666668</ele><time>2026-05-02T09:51:25Z</time></trkpt><trkpt lat="41.098129767830834" lon="9.295133545613217"><ele>14.833333333333334</ele><time>2026-05-02T09:51:27Z</time></trkpt><trkpt lat="41.09820310131886" lon="9.295145420779834"><ele>15.0</ele><time>2026-05-02T09:51:28Z</time></trkpt><trkpt lat="41.09827876391046" lon="9.295142565029973"><ele>15.0</ele><time>2026-05-02T09:51:29Z</time></trkpt><trkpt lat="41.09835059228364" lon="9.295153634394568"><ele>15.0</ele><time>2026-05-02T09:51:30Z</time></trkpt><trkpt lat="41.09842781964342" lon="9.295171694980038"><ele>15.0</ele><time>2026-05-02T09:51:31Z</time></trkpt><trkpt lat="41.098500800483215" lon="9.295185789185702"><ele>15.0</ele><time>2026-05-02T09:51:32Z</time></trkpt><trkpt lat="41.0985706383151" lon="9.295197012000353"><ele>15.0</ele><time>2026-05-02T09:51:33Z</time></trkpt><trkpt lat="41.09863556351866" lon="9.29521117756693"><ele>15.0</ele><time>2026-05-02T09:51:34Z</time></trkpt><trkpt lat="41.09873510471358" lon="9.295260607509817"><ele>15.0</ele><time>2026-05-02T09:51:36Z</time></trkpt><trkpt lat="41.09878977739848" lon="9.295302682280516"><ele>15.0</ele><time>2026-05-02T09:51:37Z</time></trkpt><trkpt lat="41.09884645583425" lon="9.295347536079992"><ele>15.0</ele><time>2026-05-02T09:51:38Z</time></trkpt><trkpt lat="41.09890580646423" lon="9.295383211625722"><ele>15.0</ele><time>2026-05-02T09:51:39Z</time></trkpt><trkpt lat="41.098971302521775" lon="9.295404458133072"><ele>15.0</ele><time>2026-05-02T09:51:40Z</time></trkpt><trkpt lat="41.09908303583316" lon="9.29541553255315"><ele>15.0</ele><time>2026-05-02T09:51:42Z</time></trkpt><trkpt lat="41.099182648187785" lon="9.295445268899673"><ele>14.8</ele><time>2026-05-02T09:51:44Z</time></trkpt><trkpt lat="41.09928246268029" lon="9.295449485292592"><ele>14.6</ele><time>2026-05-02T09:51:46Z</time></trkpt><trkpt lat="41.09935941039661" lon="9.295418821513769"><ele>14.399999999999999</ele><time>2026-05-02T09:51:48Z</time></trkpt><trkpt lat="41.09942297563785" lon="9.295420121832056"><ele>14.2</ele><time>2026-05-02T09:51:49Z</time></trkpt><trkpt lat="41.099500938849445" lon="9.29548792655255"><ele>14.0</ele><time>2026-05-02T09:51:51Z</time></trkpt><trkpt lat="41.09954423255186" lon="9.295632678420647"><ele>14.571428571428571</ele><time>2026-05-02T09:51:53Z</time></trkpt><trkpt lat="41.0995684998613" lon="9.295727240811937"><ele>15.142857142857142</ele><time>2026-05-02T09:51:54Z</time></trkpt><trkpt lat="41.09958857709231" lon="9.295818994921724"><ele>15.714285714285715</ele><time>2026-05-02T09:51:55Z</time></trkpt><trkpt lat="41.09960845006166" lon="9.295911983102858"><ele>16.285714285714285</ele><time>2026-05-02T09:51:56Z</time></trkpt><trkpt lat="41.09962437881155" lon="9.2959993969489"><ele>16.857142857142858</ele><time>2026-05-02T09:51:57Z</time></trkpt><trkpt lat="41.09963580246657" lon="9.29608745108646"><ele>17.42857142857143</ele><time>2026-05-02T09:51:58Z</time></trkpt><trkpt lat="41.09964094386911" lon="9.29617768847784"><ele>18.0</ele><time>2026-05-02T09:51:59Z</time></trkpt><trkpt lat="41.099643053152256" lon="9.296266697885837"><ele>18.4</ele><time>2026-05-02T09:52:00Z</time></trkpt><trkpt lat="41.0996680886862" lon="9.296428605375825"><ele>18.8</ele><time>2026-05-02T09:52:02Z</time></trkpt><trkpt lat="41.09969978800083" lon="9.296513482227098"><ele>19.2</ele><time>2026-05-02T09:52:03Z</time></trkpt><trkpt lat="41.09972821679554" lon="9.296611318963183"><ele>19.6</ele><time>2026-05-02T09:52:04Z</time></trkpt><trkpt lat="41.099741753329454" lon="9.296742475029477"><ele>20.0</ele><time>2026-05-02T09:52:05Z</time></trkpt><trkpt lat="41.09973899632769" lon="9.29688732915147"><ele>20.0</ele><time>2026-05-02T09:52:06Z</time></trkpt><trkpt lat="41.09973243956901" lon="9.297039046575637"><ele>20.0</ele><time>2026-05-02T09:52:07Z</time></trkpt><trkpt lat="41.09971707338593" lon="9.297167993089792"><ele>20.0</ele><time>2026-05-02T09:52:08Z</time></trkpt><trkpt lat="41.099685719774605" lon="9.297298825161128"><ele>20.0</ele><time>2026-05-02T09:52:09Z</time></trkpt><trkpt lat="41.09965382798636" lon="9.297440508525048"><ele>20.0</ele><time>2026-05-02T09:52:10Z</time></trkpt><trkpt lat="41.09963058212566" lon="9.297576316916667"><ele>20.166666666666668</ele><time>2026-05-02T09:52:11Z</time></trkpt><trkpt lat="41.0996205127366" lon="9.297692569738714"><ele>20.333333333333336</ele><time>2026-05-02T09:52:12Z</time></trkpt><trkpt lat="41.09962769717817" lon="9.297790133175981"><ele>20.5</ele><time>2026-05-02T09:52:13Z</time></trkpt><trkpt lat="41.09964146976715" lon="9.297907324128351"><ele>20.666666666666668</ele><time>2026-05-02T09:52:14Z</time></trkpt><trkpt lat="41.09966235212519" lon="9.298027997948859"><ele>20.833333333333332</ele><time>2026-05-02T09:52:15Z</time></trkpt><trkpt lat="41.09967583488039" lon="9.298154925329705"><ele>21.0</ele><time>2026-05-02T09:52:16Z</time></trkpt><trkpt lat="41.09969076190389" lon="9.298302650354755"><ele>21.4</ele><time>2026-05-02T09:52:17Z</time></trkpt><trkpt lat="41.09969755986107" lon="9.29844469546156"><ele>21.8</ele><time>2026-05-02T09:52:18Z</time></trkpt><trkpt lat="41.099691239963775" lon="9.298585889813006"><ele>22.2</ele><time>2026-05-02T09:52:19Z</time></trkpt><trkpt lat="41.09967783003149" lon="9.298745645928925"><ele>22.599999999999998</ele><time>2026-05-02T09:52:20Z</time></trkpt><trkpt lat="41.09966808724862" lon="9.298893315356548"><ele>23.0</ele><time>2026-05-02T09:52:21Z</time></trkpt><trkpt lat="41.09968267180275" lon="9.299012439171154"><ele>23.2</ele><time>2026-05-02T09:52:22Z</time></trkpt><trkpt lat="41.09972489022339" lon="9.299130222581331"><ele>23.4</ele><time>2026-05-02T09:52:23Z</time></trkpt><trkpt lat="41.099769259397" lon="9.299253487130438"><ele>23.599999999999998</ele><time>2026-05-02T09:52:24Z</time></trkpt><trkpt lat="41.09978717836823" lon="9.299381794431406"><ele>23.799999999999997</ele><time>2026-05-02T09:52:25Z</time></trkpt><trkpt lat="41.09979150876731" lon="9.299513116370223"><ele>24.0</ele><time>2026-05-02T09:52:26Z</time></trkpt><trkpt lat="41.09981603788717" lon="9.299635835062832"><ele>24.0</ele><time>2026-05-02T09:52:27Z</time></trkpt><trkpt lat="41.09986785502805" lon="9.299745878177225"><ele>24.0</ele><time>2026-05-02T09:52:28Z</time></trkpt><trkpt lat="41.099930597546425" lon="9.299863715821424"><ele>24.0</ele><time>2026-05-02T09:52:29Z</time></trkpt><trkpt lat="41.09998462661452" lon="9.299996022849259"><ele>24.0</ele><time>2026-05-02T09:52:30Z</time></trkpt><trkpt lat="41.10003002493339" lon="9.300121934197831"><ele>24.0</ele><time>2026-05-02T09:52:31Z</time></trkpt><trkpt lat="41.10007275553805" lon="9.300220974397634"><ele>23.0</ele><time>2026-05-02T09:52:32Z</time></trkpt><trkpt lat="41.10013823023512" lon="9.300320468587303"><ele>22.0</ele><time>2026-05-02T09:52:33Z</time></trkpt><trkpt lat="41.10021359667788" lon="9.30043661105752"><ele>21.0</ele><time>2026-05-02T09:52:34Z</time></trkpt><trkpt lat="41.10027329909764" lon="9.300559237892351"><ele>20.0</ele><time>2026-05-02T09:52:35Z</time></trkpt><trkpt lat="41.100308213222796" lon="9.300658900407996"><ele>19.0</ele><time>2026-05-02T09:52:36Z</time></trkpt><trkpt lat="41.10035512925691" lon="9.300733953105723"><ele>19.0</ele><time>2026-05-02T09:52:37Z</time></trkpt><trkpt lat="41.10042596622127" lon="9.300752853880864"><ele>19.0</ele><time>2026-05-02T09:52:38Z</time></trkpt><trkpt lat="41.10052383256281" lon="9.300787034002493"><ele>19.0</ele><time>2026-05-02T09:52:39Z</time></trkpt><trkpt lat="41.10060811131617" lon="9.300870247605943"><ele>19.0</ele><time>2026-05-02T09:52:40Z</time></trkpt><trkpt lat="41.100678837069914" lon="9.30098199904051"><ele>19.0</ele><time>2026-05-02T09:52:41Z</time></trkpt><trkpt lat="41.1007537663855" lon="9.301078968255107"><ele>16.5</ele><time>2026-05-02T09:52:42Z</time></trkpt><trkpt lat="41.100845480661256" lon="9.301140522360166"><ele>14.0</ele><time>2026-05-02T09:52:43Z</time></trkpt><trkpt lat="41.100964481990275" lon="9.301181004246606"><ele>11.5</ele><time>2026-05-02T09:52:44Z</time></trkpt><trkpt lat="41.10110953178885" lon="9.30123962950222"><ele>9.0</ele><time>2026-05-02T09:52:45Z</time></trkpt><trkpt lat="41.10125899807908" lon="9.301303483307278"><ele>9.0</ele><time>2026-05-02T09:52:46Z</time></trkpt><trkpt lat="41.101377569798146" lon="9.301365522279534"><ele>9.0</ele><time>2026-05-02T09:52:47Z</time></trkpt><trkpt lat="41.101477578607025" lon="9.3014208017702"><ele>9.0</ele><time>2026-05-02T09:52:47.999Z</time></trkpt><trkpt lat="41.101559959576676" lon="9.301495837913006"><ele>9.0</ele><time>2026-05-02T09:52:48.999Z</time></trkpt><trkpt lat="41.101651899182386" lon="9.301588556333861"><ele>9.833333333333334</ele><time>2026-05-02T09:52:49.999Z</time></trkpt><trkpt lat="41.101725557792676" lon="9.301653537096755"><ele>10.666666666666668</ele><time>2026-05-02T09:52:50.999Z</time></trkpt><trkpt lat="41.10179111064536" lon="9.301707768215318"><ele>11.5</ele><time>2026-05-02T09:52:51.999Z</time></trkpt><trkpt lat="41.101844144805476" lon="9.301770910560023"><ele>12.333333333333334</ele><time>2026-05-02T09:52:53Z</time></trkpt><trkpt lat="41.10186251062256" lon="9.30186770448605"><ele>13.166666666666668</ele><time>2026-05-02T09:52:54Z</time></trkpt><trkpt lat="41.10188572735165" lon="9.30198938977109"><ele>14.0</ele><time>2026-05-02T09:52:55Z</time></trkpt><trkpt lat="41.10188825415594" lon="9.302100994197632"><ele>14.0</ele><time>2026-05-02T09:52:56Z</time></trkpt><trkpt lat="41.10188000339216" lon="9.302238175419614"><ele>14.0</ele><time>2026-05-02T09:52:57Z</time></trkpt><trkpt lat="41.101870644082204" lon="9.302387233155622"><ele>14.0</ele><time>2026-05-02T09:52:58Z</time></trkpt><trkpt lat="41.101859175415775" lon="9.302542508740851"><ele>14.0</ele><time>2026-05-02T09:52:59Z</time></trkpt><trkpt lat="41.1018455859502" lon="9.302700185922099"><ele>14.799999999999999</ele><time>2026-05-02T09:53:00Z</time></trkpt><trkpt lat="41.10183052480632" lon="9.30285653252117"><ele>15.599999999999998</ele><time>2026-05-02T09:53:01Z</time></trkpt><trkpt lat="41.101820235306256" lon="9.302993358451177"><ele>16.4</ele><time>2026-05-02T09:53:02Z</time></trkpt><trkpt lat="41.101803517239226" lon="9.303114296262327"><ele>17.2</ele><time>2026-05-02T09:53:03Z</time></trkpt><trkpt lat="41.101771687140406" lon="9.303219029952995"><ele>18.0</ele><time>2026-05-02T09:53:04Z</time></trkpt><trkpt lat="41.10172033771422" lon="9.303316666443271"><ele>18.2</ele><time>2026-05-02T09:53:05Z</time></trkpt><trkpt lat="41.10165599562515" lon="9.303426428170598"><ele>18.4</ele><time>2026-05-02T09:53:06Z</time></trkpt><trkpt lat="41.101587718316445" lon="9.303512355095338"><ele>18.599999999999998</ele><time>2026-05-02T09:53:07Z</time></trkpt><trkpt lat="41.10150882890766" lon="9.303542353002365"><ele>18.8</ele><time>2026-05-02T09:53:09Z</time></trkpt><trkpt lat="41.101430810708734" lon="9.303488819890104"><ele>19.0</ele><time>2026-05-02T09:53:19Z</time></trkpt><trkpt lat="41.10129662552949" lon="9.303438961372914"><ele>20.0</ele><time>2026-05-02T09:53:21Z</time></trkpt><trkpt lat="41.10120318086841" lon="9.30342165102446"><ele>21.0</ele><time>2026-05-02T09:53:23Z</time></trkpt><trkpt lat="41.10113400413567" lon="9.303425589980682"><ele>22.0</ele><time>2026-05-02T09:53:25Z</time></trkpt><trkpt lat="41.10105366214701" lon="9.30343202685832"><ele>23.0</ele><time>2026-05-02T09:53:28Z</time></trkpt><trkpt lat="41.10096531425365" lon="9.303423431150604"><ele>24.000000000000004</ele><time>2026-05-02T09:53:30Z</time></trkpt><trkpt lat="41.10089483179585" lon="9.303419086696591"><ele>25.0</ele><time>2026-05-02T09:53:31Z</time></trkpt><trkpt lat="41.100801128243056" lon="9.303413310923071"><ele>26.2</ele><time>2026-05-02T09:53:32Z</time></trkpt><trkpt lat="41.100712217191656" lon="9.303407830553693"><ele>27.4</ele><time>2026-05-02T09:53:33Z</time></trkpt><trkpt lat="41.10061465557848" lon="9.303401816978647"><ele>28.6</ele><time>2026-05-02T09:53:34Z</time></trkpt><trkpt lat="41.100498573514116" lon="9.303394661819429"><ele>29.8</ele><time>2026-05-02T09:53:35Z</time></trkpt><trkpt lat="41.1003742701207" lon="9.303386999908065"><ele>31.0</ele><time>2026-05-02T09:53:36Z</time></trkpt><trkpt lat="41.10024475983631" lon="9.303379017054617"><ele>31.0</ele><time>2026-05-02T09:53:37Z</time></trkpt><trkpt lat="41.100120855041176" lon="9.30337137971475"><ele>31.0</ele><time>2026-05-02T09:53:38Z</time></trkpt><trkpt lat="41.10000673722691" lon="9.303364345633511"><ele>31.0</ele><time>2026-05-02T09:53:39Z</time></trkpt><trkpt lat="41.09989885386222" lon="9.30337871919257"><ele>31.0</ele><time>2026-05-02T09:53:40Z</time></trkpt><trkpt lat="41.099798886772234" lon="9.303363847356344"><ele>31.0</ele><time>2026-05-02T09:53:41Z</time></trkpt><trkpt lat="41.099691884592616" lon="9.303361044731924"><ele>32.6</ele><time>2026-05-02T09:53:42Z</time></trkpt><trkpt lat="41.09958580722031" lon="9.30335453950607"><ele>34.2</ele><time>2026-05-02T09:53:43Z</time></trkpt><trkpt lat="41.09947420898674" lon="9.303327899950988"><ele>35.8</ele><time>2026-05-02T09:53:44Z</time></trkpt><trkpt lat="41.09936193393443" lon="9.303320188474991"><ele>37.4</ele><time>2026-05-02T09:53:45Z</time></trkpt><trkpt lat="41.09925355273289" lon="9.303301767435157"><ele>39.0</ele><time>2026-05-02T09:53:46Z</time></trkpt><trkpt lat="41.099144197893835" lon="9.303273828030441"><ele>40.25</ele><time>2026-05-02T09:53:47Z</time></trkpt><trkpt lat="41.099038211441716" lon="9.303246452370622"><ele>41.5</ele><time>2026-05-02T09:53:48Z</time></trkpt><trkpt lat="41.09892792681818" lon="9.30321796651143"><ele>42.75</ele><time>2026-05-02T09:53:49Z</time></trkpt><trkpt lat="41.098814256144465" lon="9.303190323585278"><ele>44.0</ele><time>2026-05-02T09:53:50Z</time></trkpt><trkpt lat="41.098697929907914" lon="9.303166571536766"><ele>44.0</ele><time>2026-05-02T09:53:51Z</time></trkpt><trkpt lat="41.098587620637836" lon="9.303150566567837"><ele>44.0</ele><time>2026-05-02T09:53:52Z</time></trkpt><trkpt lat="41.09847418190773" lon="9.303139586611946"><ele>44.0</ele><time>2026-05-02T09:53:53Z</time></trkpt><trkpt lat="41.09836734628513" lon="9.303133243431454"><ele>44.0</ele><time>2026-05-02T09:53:54Z</time></trkpt><trkpt lat="41.098254648319276" lon="9.303129257576245"><ele>44.0</ele><time>2026-05-02T09:53:55Z</time></trkpt><trkpt lat="41.09814051055223" lon="9.303128158519726"><ele>46.5</ele><time>2026-05-02T09:53:56Z</time></trkpt><trkpt lat="41.098022505837754" lon="9.303127022225114"><ele>49.0</ele><time>2026-05-02T09:53:57Z</time></trkpt><trkpt lat="41.09790277429275" lon="9.303125870886785"><ele>51.5</ele><time>2026-05-02T09:53:58Z</time></trkpt><trkpt lat="41.09777614232267" lon="9.303130203746374"><ele>54.0</ele><time>2026-05-02T09:53:59Z</time></trkpt><trkpt lat="41.09765838424129" lon="9.303135619585289"><ele>54.0</ele><time>2026-05-02T09:54:00Z</time></trkpt><trkpt lat="41.09754026917724" lon="9.303161850793446"><ele>54.0</ele><time>2026-05-02T09:54:01Z</time></trkpt><trkpt lat="41.097431900931916" lon="9.303234193362316"><ele>54.0</ele><time>2026-05-02T09:54:02Z</time></trkpt><trkpt lat="41.09735162644111" lon="9.30338102749939"><ele>54.0</ele><time>2026-05-02T09:54:03Z</time></trkpt><trkpt lat="41.09727177522554" lon="9.30351025164307"><ele>57.0</ele><time>2026-05-02T09:54:04Z</time></trkpt><trkpt lat="41.0971913161811" lon="9.30364120713766"><ele>60.0</ele><time>2026-05-02T09:54:05Z</time></trkpt><trkpt lat="41.097102389444096" lon="9.303785565499787"><ele>63.0</ele><time>2026-05-02T09:54:06Z</time></trkpt><trkpt lat="41.097005545143034" lon="9.303942409881003"><ele>66.0</ele><time>2026-05-02T09:54:07Z</time></trkpt><trkpt lat="41.09690009202417" lon="9.30411488544475"><ele>66.0</ele><time>2026-05-02T09:54:08Z</time></trkpt><trkpt lat="41.096813174182444" lon="9.30423025092583"><ele>66.0</ele><time>2026-05-02T09:54:09Z</time></trkpt><trkpt lat="41.09673352578803" lon="9.304292784274923"><ele>66.0</ele><time>2026-05-02T09:54:10Z</time></trkpt><trkpt lat="41.09664085059488" lon="9.304325749399185"><ele>66.0</ele><time>2026-05-02T09:54:11Z</time></trkpt><trkpt lat="41.09653360854903" lon="9.304325597571463"><ele>66.0</ele><time>2026-05-02T09:54:12Z</time></trkpt><trkpt lat="41.09641345765349" lon="9.304299473284788"><ele>69.0</ele><time>2026-05-02T09:54:13Z</time></trkpt><trkpt lat="41.0962931319051" lon="9.304240596360478"><ele>72.0</ele><time>2026-05-02T09:54:14Z</time></trkpt><trkpt lat="41.09613687204834" lon="9.304151746195016"><ele>75.0</ele><time>2026-05-02T09:54:15Z</time></trkpt><trkpt lat="41.095969099359614" lon="9.304072770382426"><ele>75.0</ele><time>2026-05-02T09:54:16Z</time></trkpt><trkpt lat="41.09583027913407" lon="9.304004053477124"><ele>75.0</ele><time>2026-05-02T09:54:17Z</time></trkpt><trkpt lat="41.09569383394367" lon="9.303962968804997"><ele>75.0</ele><time>2026-05-02T09:54:18Z</time></trkpt><trkpt lat="41.09553759580441" lon="9.303949990755605"><ele>75.0</ele><time>2026-05-02T09:54:19Z</time></trkpt><trkpt lat="41.09537903728911" lon="9.303920542153138"><ele>76.5</ele><time>2026-05-02T09:54:20Z</time></trkpt><trkpt lat="41.095248324680135" lon="9.303905952201678"><ele>78.0</ele><time>2026-05-02T09:54:21Z</time></trkpt><trkpt lat="41.09516016522237" lon="9.303823572981456"><ele>79.5</ele><time>2026-05-02T09:54:22Z</time></trkpt><trkpt lat="41.09507349486185" lon="9.303755233979897"><ele>81.0</ele><time>2026-05-02T09:54:23Z</time></trkpt><trkpt lat="41.09497204229745" lon="9.303679908388855"><ele>81.75</ele><time>2026-05-02T09:54:24Z</time></trkpt><trkpt lat="41.09486029611816" lon="9.303600567163627"><ele>82.5</ele><time>2026-05-02T09:54:25Z</time></trkpt><trkpt lat="41.09474300541424" lon="9.303521477858636"><ele>83.25</ele><time>2026-05-02T09:54:26Z</time></trkpt><trkpt lat="41.09461069026329" lon="9.303439095080144"><ele>84.0</ele><time>2026-05-02T09:54:27Z</time></trkpt><trkpt lat="41.094489480858805" lon="9.303378914580975"><ele>84.0</ele><time>2026-05-02T09:54:28Z</time></trkpt><trkpt lat="41.094361423143425" lon="9.303354139709318"><ele>84.0</ele><time>2026-05-02T09:54:29Z</time></trkpt><trkpt lat="41.09422956543447" lon="9.303338446437"><ele>84.0</ele><time>2026-05-02T09:54:30Z</time></trkpt><trkpt lat="41.09407733762708" lon="9.303310392622711"><ele>84.0</ele><time>2026-05-02T09:54:31Z</time></trkpt><trkpt lat="41.093907528990684" lon="9.303266361499126"><ele>86.0</ele><time>2026-05-02T09:54:32Z</time></trkpt><trkpt lat="41.09371192786883" lon="9.303217709034312"><ele>88.0</ele><time>2026-05-02T09:54:33Z</time></trkpt><trkpt lat="41.09348576035805" lon="9.303161012301095"><ele>90.0</ele><time>2026-05-02T09:54:34Z</time></trkpt><trkpt lat="41.093251324795254" lon="9.303102242897529"><ele>92.33333333333334</ele><time>2026-05-02T09:54:35Z</time></trkpt><trkpt lat="41.09303475138246" lon="9.303053627921988"><ele>94.66666666666667</ele><time>2026-05-02T09:54:36Z</time></trkpt><trkpt lat="41.09287798642141" lon="9.303019184054737"><ele>97.0</ele><time>2026-05-02T09:54:37Z</time></trkpt><trkpt lat="41.09274772344487" lon="9.302999560172765"><ele>97.0</ele><time>2026-05-02T09:54:38Z</time></trkpt><trkpt lat="41.09256961081217" lon="9.302989807822243"><ele>97.0</ele><time>2026-05-02T09:54:39Z</time></trkpt><trkpt lat="41.09237662072626" lon="9.302990364191617"><ele>97.0</ele><time>2026-05-02T09:54:40Z</time></trkpt><trkpt lat="41.09217585853514" lon="9.302989626793863"><ele>99.33333333333334</ele><time>2026-05-02T09:54:41Z</time></trkpt><trkpt lat="41.0919533412894" lon="9.302986905592476"><ele>101.66666666666666</ele><time>2026-05-02T09:54:42Z</time></trkpt><trkpt lat="41.09176900051053" lon="9.302986625078097"><ele>104.0</ele><time>2026-05-02T09:54:43Z</time></trkpt><trkpt lat="41.09164912985414" lon="9.30297612529293"><ele>105.75</ele><time>2026-05-02T09:54:44Z</time></trkpt><trkpt lat="41.0915332586926" lon="9.303001145469391"><ele>107.5</ele><time>2026-05-02T09:54:45Z</time></trkpt><trkpt lat="41.09140826805301" lon="9.302914163529291"><ele>109.25</ele><time>2026-05-02T09:54:46Z</time></trkpt><trkpt lat="41.091265813061675" lon="9.302794576258094"><ele>111.0</ele><time>2026-05-02T09:54:47Z</time></trkpt><trkpt lat="41.09116040436059" lon="9.302694108277224"><ele>111.0</ele><time>2026-05-02T09:54:48Z</time></trkpt><trkpt lat="41.091123271408605" lon="9.302603219547853"><ele>111.0</ele><time>2026-05-02T09:54:49Z</time></trkpt><trkpt lat="41.09109136194773" lon="9.302518689295612"><ele>111.0</ele><time>2026-05-02T09:54:50Z</time></trkpt><trkpt lat="41.09111579480895" lon="9.302398484203088"><ele>111.0</ele><time>2026-05-02T09:54:51Z</time></trkpt><trkpt lat="41.09112200719798" lon="9.302227652988512"><ele>111.0</ele><time>2026-05-02T09:54:52Z</time></trkpt><trkpt lat="41.09110904344644" lon="9.30203469185028"><ele>108.66666666666666</ele><time>2026-05-02T09:54:53Z</time></trkpt><trkpt lat="41.09107409113833" lon="9.301869110607344"><ele>106.33333333333333</ele><time>2026-05-02T09:54:53.999Z</time></trkpt><trkpt lat="41.090995787453565" lon="9.301678185204077"><ele>104.0</ele><time>2026-05-02T09:54:54.999Z</time></trkpt><trkpt lat="41.09092446784212" lon="9.301473486347822"><ele>101.33333333333333</ele><time>2026-05-02T09:54:55.999Z</time></trkpt><trkpt lat="41.09084156012381" lon="9.301322402911415"><ele>98.66666666666666</ele><time>2026-05-02T09:54:56.999Z</time></trkpt><trkpt lat="41.09072574178648" lon="9.301183786821714"><ele>96.0</ele><time>2026-05-02T09:54:57.999Z</time></trkpt><trkpt lat="41.090567873323366" lon="9.301023879185998"><ele>96.0</ele><time>2026-05-02T09:54:59Z</time></trkpt><trkpt lat="41.09040268005218" lon="9.30086314161112"><ele>96.0</ele><time>2026-05-02T09:55:00Z</time></trkpt><trkpt lat="41.09026088828121" lon="9.3007265294468"><ele>96.0</ele><time>2026-05-02T09:55:01Z</time></trkpt><trkpt lat="41.09013407120387" lon="9.300603055794515"><ele>94.6</ele><time>2026-05-02T09:55:02Z</time></trkpt><trkpt lat="41.09002665006924" lon="9.300496363340157"><ele>93.19999999999999</ele><time>2026-05-02T09:55:03Z</time></trkpt><trkpt lat="41.08992240056781" lon="9.300396258336937"><ele>91.80000000000001</ele><time>2026-05-02T09:55:04Z</time></trkpt><trkpt lat="41.08983910252219" lon="9.300312242907365"><ele>90.4</ele><time>2026-05-02T09:55:05Z</time></trkpt><trkpt lat="41.08978242335037" lon="9.300247782867798"><ele>89.0</ele><time>2026-05-02T09:55:06Z</time></trkpt><trkpt lat="41.089742966025334" lon="9.300181148823011"><ele>87.25</ele><time>2026-05-02T09:55:07Z</time></trkpt><trkpt lat="41.089774869457884" lon="9.299999649424457"><ele>85.5</ele><time>2026-05-02T09:55:09Z</time></trkpt><trkpt lat="41.08981543766828" lon="9.2998320586187"><ele>83.75</ele><time>2026-05-02T09:55:10Z</time></trkpt><trkpt lat="41.08985435402436" lon="9.299664605961054"><ele>82.0</ele><time>2026-05-02T09:55:11Z</time></trkpt><trkpt lat="41.08987949835302" lon="9.29954533033693"><ele>82.0</ele><time>2026-05-02T09:55:12Z</time></trkpt><trkpt lat="41.089939473029844" lon="9.29947896609154"><ele>82.0</ele><time>2026-05-02T09:55:13Z</time></trkpt><trkpt lat="41.09004007557448" lon="9.29948014422914"><ele>82.0</ele><time>2026-05-02T09:55:14Z</time></trkpt><trkpt lat="41.09015272505906" lon="9.299418671608603"><ele>82.0</ele><time>2026-05-02T09:55:15Z</time></trkpt><trkpt lat="41.090253930956905" lon="9.29933311243989"><ele>82.0</ele><time>2026-05-02T09:55:16Z</time></trkpt><trkpt lat="41.090322003756654" lon="9.299198417429896"><ele>82.0</ele><time>2026-05-02T09:55:17Z</time></trkpt><trkpt lat="41.09039181899923" lon="9.299007542352248"><ele>82.0</ele><time>2026-05-02T09:55:18Z</time></trkpt><trkpt lat="41.090439536906096" lon="9.298864108485175"><ele>82.0</ele><time>2026-05-02T09:55:19Z</time></trkpt><trkpt lat="41.090454279182325" lon="9.298748296000575"><ele>82.0</ele><time>2026-05-02T09:55:20Z</time></trkpt><trkpt lat="41.09042494042933" lon="9.29862540406836"><ele>81.19999999999999</ele><time>2026-05-02T09:55:21Z</time></trkpt><trkpt lat="41.09036584139661" lon="9.298527399128076"><ele>80.39999999999999</ele><time>2026-05-02T09:55:22Z</time></trkpt><trkpt lat="41.09028819656219" lon="9.298442839120645"><ele>79.6</ele><time>2026-05-02T09:55:23Z</time></trkpt><trkpt lat="41.0901653760276" lon="9.298463509535262"><ele>78.8</ele><time>2026-05-02T09:55:24Z</time></trkpt><trkpt lat="41.090053837752436" lon="9.298542296767751"><ele>78.0</ele><time>2026-05-02T09:55:25Z</time></trkpt><trkpt lat="41.08990906991406" lon="9.29859712348153"><ele>78.0</ele><time>2026-05-02T09:55:26Z</time></trkpt><trkpt lat="41.0897858166025" lon="9.298629715731124"><ele>78.0</ele><time>2026-05-02T09:55:27Z</time></trkpt><trkpt lat="41.08968127147002" lon="9.298596995793691"><ele>78.0</ele><time>2026-05-02T09:55:28Z</time></trkpt><trkpt lat="41.089564013405855" lon="9.298525392983155"><ele>78.0</ele><time>2026-05-02T09:55:29Z</time></trkpt><trkpt lat="41.08945560957177" lon="9.298419121429237"><ele>78.0</ele><time>2026-05-02T09:55:30Z</time></trkpt><trkpt lat="41.089363979372465" lon="9.298296688750158"><ele>78.0</ele><time>2026-05-02T09:55:31Z</time></trkpt><trkpt lat="41.08926819400958" lon="9.298121668054529"><ele>78.0</ele><time>2026-05-02T09:55:32Z</time></trkpt><trkpt lat="41.08914939854793" lon="9.297936412508454"><ele>80.0</ele><time>2026-05-02T09:55:33Z</time></trkpt><trkpt lat="41.08902887693797" lon="9.297737426481827"><ele>82.0</ele><time>2026-05-02T09:55:34Z</time></trkpt><trkpt lat="41.088921809826346" lon="9.297565093081936"><ele>84.0</ele><time>2026-05-02T09:55:35Z</time></trkpt><trkpt lat="41.088834285889725" lon="9.297470137089023"><ele>84.0</ele><time>2026-05-02T09:55:36Z</time></trkpt><trkpt lat="41.08872877704414" lon="9.297411668947587"><ele>84.0</ele><time>2026-05-02T09:55:37Z</time></trkpt><trkpt lat="41.08860507535648" lon="9.297352876822893"><ele>84.0</ele><time>2026-05-02T09:55:38Z</time></trkpt><trkpt lat="41.08845316791223" lon="9.297316313929585"><ele>84.0</ele><time>2026-05-02T09:55:39Z</time></trkpt><trkpt lat="41.08828039014257" lon="9.297258993919732"><ele>84.0</ele><time>2026-05-02T09:55:40Z</time></trkpt><trkpt lat="41.08807916107682" lon="9.297182079164097"><ele>84.0</ele><time>2026-05-02T09:55:41Z</time></trkpt><trkpt lat="41.08789274632836" lon="9.297129654759901"><ele>84.0</ele><time>2026-05-02T09:55:42Z</time></trkpt><trkpt lat="41.087748576900765" lon="9.297067966696995"><ele>84.0</ele><time>2026-05-02T09:55:43Z</time></trkpt><trkpt lat="41.08762485304114" lon="9.297030755613688"><ele>84.0</ele><time>2026-05-02T09:55:44Z</time></trkpt><trkpt lat="41.087489856733335" lon="9.297033011765956"><ele>84.0</ele><time>2026-05-02T09:55:45Z</time></trkpt><trkpt lat="41.08731597527894" lon="9.29706417300605"><ele>84.0</ele><time>2026-05-02T09:55:46Z</time></trkpt><trkpt lat="41.08713287190561" lon="9.297067051634038"><ele>84.75</ele><time>2026-05-02T09:55:47Z</time></trkpt><trkpt lat="41.086992300313604" lon="9.297116657353323"><ele>85.5</ele><time>2026-05-02T09:55:48Z</time></trkpt><trkpt lat="41.08686037006357" lon="9.297165844723398"><ele>86.25</ele><time>2026-05-02T09:55:49Z</time></trkpt><trkpt lat="41.086714794482106" lon="9.297231965531711"><ele>87.0</ele><time>2026-05-02T09:55:50Z</time></trkpt><trkpt lat="41.08654983047004" lon="9.297338787603183"><ele>90.0</ele><time>2026-05-02T09:55:51Z</time></trkpt><trkpt lat="41.086365208596774" lon="9.297474118148568"><ele>93.0</ele><time>2026-05-02T09:55:52Z</time></trkpt><trkpt lat="41.086225761750576" lon="9.297610207435401"><ele>96.0</ele><time>2026-05-02T09:55:53Z</time></trkpt><trkpt lat="41.08611886755351" lon="9.297711137831554"><ele>96.0</ele><time>2026-05-02T09:55:54Z</time></trkpt><trkpt lat="41.08603045513698" lon="9.297808429004268"><ele>96.0</ele><time>2026-05-02T09:55:55Z</time></trkpt><trkpt lat="41.08593185775229" lon="9.297887324471946"><ele>96.0</ele><time>2026-05-02T09:55:56Z</time></trkpt><trkpt lat="41.08582398853808" lon="9.298003391225096"><ele>96.0</ele><time>2026-05-02T09:55:57Z</time></trkpt><trkpt lat="41.08568489258275" lon="9.298144039643278"><ele>97.75</ele><time>2026-05-02T09:55:58Z</time></trkpt><trkpt lat="41.08554965843533" lon="9.2982664878325"><ele>99.5</ele><time>2026-05-02T09:55:59Z</time></trkpt><trkpt lat="41.08542675544864" lon="9.298342084495994"><ele>101.25</ele><time>2026-05-02T09:56:00Z</time></trkpt><trkpt lat="41.08531185580378" lon="9.298382858967706"><ele>103.0</ele><time>2026-05-02T09:56:01Z</time></trkpt><trkpt lat="41.08517928596342" lon="9.298410555845328"><ele>103.0</ele><time>2026-05-02T09:56:02Z</time></trkpt><trkpt lat="41.085000299993624" lon="9.298444914631643"><ele>103.0</ele><time>2026-05-02T09:56:03Z</time></trkpt><trkpt lat="41.0848101638097" lon="9.298490617762136"><ele>103.0</ele><time>2026-05-02T09:56:04Z</time></trkpt><trkpt lat="41.08461186612207" lon="9.298547880523037"><ele>103.0</ele><time>2026-05-02T09:56:05Z</time></trkpt><trkpt lat="41.08438293578361" lon="9.298601000605194"><ele>103.0</ele><time>2026-05-02T09:56:06Z</time></trkpt><trkpt lat="41.084146230729374" lon="9.29866156386644"><ele>105.0</ele><time>2026-05-02T09:56:07Z</time></trkpt><trkpt lat="41.08394746022777" lon="9.298701359829195"><ele>107.0</ele><time>2026-05-02T09:56:08Z</time></trkpt><trkpt lat="41.08376348586742" lon="9.298729513632422"><ele>109.0</ele><time>2026-05-02T09:56:09Z</time></trkpt><trkpt lat="41.08359275893434" lon="9.298755275968425"><ele>109.0</ele><time>2026-05-02T09:56:10Z</time></trkpt><trkpt lat="41.083430778487674" lon="9.298774449828088"><ele>109.0</ele><time>2026-05-02T09:56:11Z</time></trkpt><trkpt lat="41.08325281554893" lon="9.29878280264981"><ele>109.0</ele><time>2026-05-02T09:56:12Z</time></trkpt><trkpt lat="41.08309201991848" lon="9.298769078423001"><ele>111.0</ele><time>2026-05-02T09:56:13Z</time></trkpt><trkpt lat="41.08295450306526" lon="9.298750855528123"><ele>113.0</ele><time>2026-05-02T09:56:14Z</time></trkpt><trkpt lat="41.082831319854705" lon="9.298728556557531"><ele>115.0</ele><time>2026-05-02T09:56:15Z</time></trkpt><trkpt lat="41.08272496469173" lon="9.298704999387885"><ele>117.0</ele><time>2026-05-02T09:56:16Z</time></trkpt><trkpt lat="41.08264266504451" lon="9.29868689919627"><ele>117.0</ele><time>2026-05-02T09:56:17Z</time></trkpt><trkpt lat="41.082535289776274" lon="9.298663284116389"><ele>117.0</ele><time>2026-05-02T09:56:19Z</time></trkpt><trkpt lat="41.08242579102193" lon="9.298639469877916"><ele>117.0</ele><time>2026-05-02T09:56:21Z</time></trkpt><trkpt lat="41.082355948477684" lon="9.298626629344351"><ele>117.0</ele><time>2026-05-02T09:56:22Z</time></trkpt><trkpt lat="41.08228213636045" lon="9.2986130589949"><ele>117.0</ele><time>2026-05-02T09:56:23Z</time></trkpt><trkpt lat="41.08220431375334" lon="9.298618610573955"><ele>117.0</ele><time>2026-05-02T09:56:24Z</time></trkpt><trkpt lat="41.082123362921976" lon="9.298601294730945"><ele>117.0</ele><time>2026-05-02T09:56:25Z</time></trkpt><trkpt lat="41.08204499800397" lon="9.29858112946661"><ele>116.99999999999999</ele><time>2026-05-02T09:56:26Z</time></trkpt><trkpt lat="41.08196127353391" lon="9.298576270697868"><ele>116.99999999999999</ele><time>2026-05-02T09:56:27Z</time></trkpt><trkpt lat="41.08186643944285" lon="9.298537461206774"><ele>117.0</ele><time>2026-05-02T09:56:28Z</time></trkpt><trkpt lat="41.08175970307203" lon="9.2985182204385"><ele>117.0</ele><time>2026-05-02T09:56:29Z</time></trkpt><trkpt lat="41.08165269401495" lon="9.298498930505142"><ele>117.8</ele><time>2026-05-02T09:56:30Z</time></trkpt><trkpt lat="41.081543199480926" lon="9.298476407175885"><ele>118.6</ele><time>2026-05-02T09:56:31Z</time></trkpt><trkpt lat="41.08143358170684" lon="9.298451654787453"><ele>119.39999999999999</ele><time>2026-05-02T09:56:32Z</time></trkpt><trkpt lat="41.08132410210219" lon="9.298428326167151"><ele>120.19999999999999</ele><time>2026-05-02T09:56:33Z</time></trkpt><trkpt lat="41.08121380851277" lon="9.298407002991771"><ele>121.0</ele><time>2026-05-02T09:56:34Z</time></trkpt><trkpt lat="41.08110674400303" lon="9.298386622403337"><ele>121.0</ele><time>2026-05-02T09:56:35Z</time></trkpt><trkpt lat="41.08100164017903" lon="9.29836521450674"><ele>121.0</ele><time>2026-05-02T09:56:36Z</time></trkpt><trkpt lat="41.080898335810126" lon="9.298339639925093"><ele>121.0</ele><time>2026-05-02T09:56:37Z</time></trkpt><trkpt lat="41.08079639467489" lon="9.298317483112726"><ele>121.0</ele><time>2026-05-02T09:56:38Z</time></trkpt><trkpt lat="41.08069103145407" lon="9.298319814320816"><ele>121.0</ele><time>2026-05-02T09:56:39Z</time></trkpt><trkpt lat="41.08058719012855" lon="9.298314772523863"><ele>121.0</ele><time>2026-05-02T09:56:40Z</time></trkpt><trkpt lat="41.08048072591917" lon="9.29830247165982"><ele>121.0</ele><time>2026-05-02T09:56:41Z</time></trkpt><trkpt lat="41.08037278690399" lon="9.298324875546033"><ele>121.0</ele><time>2026-05-02T09:56:42Z</time></trkpt><trkpt lat="41.08025751931105" lon="9.298354490566176"><ele>121.0</ele><time>2026-05-02T09:56:43Z</time></trkpt><trkpt lat="41.08012897782954" lon="9.298386537227344"><ele>121.0</ele><time>2026-05-02T09:56:44Z</time></trkpt><trkpt lat="41.07999185317412" lon="9.298439211034196"><ele>121.0</ele><time>2026-05-02T09:56:45Z</time></trkpt><trkpt lat="41.07985101193008" lon="9.298448107745479"><ele>121.0</ele><time>2026-05-02T09:56:46Z</time></trkpt><trkpt lat="41.079705593341586" lon="9.298497589537496"><ele>121.0</ele><time>2026-05-02T09:56:47Z</time></trkpt><trkpt lat="41.07956843726999" lon="9.298532575711667"><ele>120.8</ele><time>2026-05-02T09:56:48Z</time></trkpt><trkpt lat="41.079454354598454" lon="9.298588859468463"><ele>120.6</ele><time>2026-05-02T09:56:49Z</time></trkpt><trkpt lat="41.07936593240159" lon="9.298647982510213"><ele>120.4</ele><time>2026-05-02T09:56:50Z</time></trkpt><trkpt lat="41.079298245592824" lon="9.29870404272921"><ele>120.2</ele><time>2026-05-02T09:56:51Z</time></trkpt><trkpt lat="41.079234168145675" lon="9.298768491847936"><ele>120.0</ele><time>2026-05-02T09:56:52Z</time></trkpt><trkpt lat="41.07915402918244" lon="9.298822615522237"><ele>120.0</ele><time>2026-05-02T09:56:54Z</time></trkpt><trkpt lat="41.07908397464163" lon="9.298789615876638"><ele>120.0</ele><time>2026-05-02T09:59:05.001Z</time></trkpt><trkpt lat="41.07916202961436" lon="9.29855740127659"><ele>120.0</ele><time>2026-05-02T09:59:07.001Z</time></trkpt><trkpt lat="41.07919292179441" lon="9.29845097545065"><ele>120.0</ele><time>2026-05-02T09:59:08.001Z</time></trkpt><trkpt lat="41.07923215618479" lon="9.298332561694117"><ele>120.0</ele><time>2026-05-02T09:59:09.001Z</time></trkpt><trkpt lat="41.07930149311887" lon="9.298221006663983"><ele>120.0</ele><time>2026-05-02T09:59:10.001Z</time></trkpt><trkpt lat="41.07939194887016" lon="9.298121685669209"><ele>120.0</ele><time>2026-05-02T09:59:11.001Z</time></trkpt><trkpt lat="41.079496765587294" lon="9.298035678474461"><ele>120.0</ele><time>2026-05-02T09:59:12.001Z</time></trkpt><trkpt lat="41.07960414119249" lon="9.297970588757588"><ele>120.0</ele><time>2026-05-02T09:59:13.001Z</time></trkpt><trkpt lat="41.07970875900608" lon="9.297910669868298"><ele>120.5</ele><time>2026-05-02T09:59:14.001Z</time></trkpt><trkpt lat="41.07981853097251" lon="9.29783727391459"><ele>121.0</ele><time>2026-05-02T09:59:15.001Z</time></trkpt><trkpt lat="41.07992667572052" lon="9.297760337844217"><ele>121.5</ele><time>2026-05-02T09:59:16.001Z</time></trkpt><trkpt lat="41.08003327908944" lon="9.29767488123328"><ele>122.0</ele><time>2026-05-02T09:59:17.001Z</time></trkpt><trkpt lat="41.08012862677821" lon="9.297560643316533"><ele>121.25</ele><time>2026-05-02T09:59:18.001Z</time></trkpt><trkpt lat="41.08021423042065" lon="9.297424989521224"><ele>120.5</ele><time>2026-05-02T09:59:19.001Z</time></trkpt><trkpt lat="41.08028586499365" lon="9.297274529338365"><ele>119.75</ele><time>2026-05-02T09:59:20.001Z</time></trkpt><trkpt lat="41.08035550187426" lon="9.29712161565531"><ele>119.0</ele><time>2026-05-02T09:59:21.001Z</time></trkpt><trkpt lat="41.080433320225815" lon="9.296976948532285"><ele>119.0</ele><time>2026-05-02T09:59:22.001Z</time></trkpt><trkpt lat="41.080518185639455" lon="9.296836080097792"><ele>119.0</ele><time>2026-05-02T09:59:23.001Z</time></trkpt><trkpt lat="41.080594551659" lon="9.29668801801573"><ele>119.0</ele><time>2026-05-02T09:59:24.001Z</time></trkpt><trkpt lat="41.08067176002905" lon="9.296536198959522"><ele>119.0</ele><time>2026-05-02T09:59:25.001Z</time></trkpt><trkpt lat="41.08075348885802" lon="9.296391534903028"><ele>115.75</ele><time>2026-05-02T09:59:26.001Z</time></trkpt><trkpt lat="41.08083360246739" lon="9.296247492605175"><ele>112.5</ele><time>2026-05-02T09:59:27.001Z</time></trkpt><trkpt lat="41.080914157405076" lon="9.296102375674725"><ele>109.25</ele><time>2026-05-02T09:59:28.001Z</time></trkpt><trkpt lat="41.08099387184526" lon="9.295954625395883"><ele>106.0</ele><time>2026-05-02T09:59:29.001Z</time></trkpt><trkpt lat="41.08107058452024" lon="9.295805860355125"><ele>106.0</ele><time>2026-05-02T09:59:30.001Z</time></trkpt><trkpt lat="41.081133215480236" lon="9.295646761925148"><ele>106.0</ele><time>2026-05-02T09:59:31.001Z</time></trkpt><trkpt lat="41.08116577669191" lon="9.295464817357526"><ele>106.0</ele><time>2026-05-02T09:59:32.001Z</time></trkpt><trkpt lat="41.08117602113474" lon="9.295258123777803"><ele>106.0</ele><time>2026-05-02T09:59:33.001Z</time></trkpt><trkpt lat="41.08118600398815" lon="9.295042480223067"><ele>104.5</ele><time>2026-05-02T09:59:34.001Z</time></trkpt><trkpt lat="41.08120370055237" lon="9.294825574648728"><ele>103.0</ele><time>2026-05-02T09:59:35Z</time></trkpt><trkpt lat="41.08122283895664" lon="9.294628742655469"><ele>101.5</ele><time>2026-05-02T09:59:36Z</time></trkpt><trkpt lat="41.08123134927232" lon="9.294449964257753"><ele>100.0</ele><time>2026-05-02T09:59:37Z</time></trkpt><trkpt lat="41.081199570677796" lon="9.294290938051011"><ele>98.0</ele><time>2026-05-02T09:59:38Z</time></trkpt><trkpt lat="41.08112298829992" lon="9.294147634344418"><ele>96.0</ele><time>2026-05-02T09:59:39Z</time></trkpt><trkpt lat="41.08099995000649" lon="9.294032365839593"><ele>94.0</ele><time>2026-05-02T09:59:40Z</time></trkpt><trkpt lat="41.0808564949956" lon="9.293951868415762"><ele>92.0</ele><time>2026-05-02T09:59:41Z</time></trkpt><trkpt lat="41.08074195891471" lon="9.293846289966051"><ele>90.75</ele><time>2026-05-02T09:59:42Z</time></trkpt><trkpt lat="41.08066000971679" lon="9.293720267740882"><ele>89.5</ele><time>2026-05-02T09:59:43Z</time></trkpt><trkpt lat="41.08062487810544" lon="9.293568213391007"><ele>88.25</ele><time>2026-05-02T09:59:44Z</time></trkpt><trkpt lat="41.08060458566969" lon="9.293405094741573"><ele>87.0</ele><time>2026-05-02T09:59:45Z</time></trkpt><trkpt lat="41.08063511344138" lon="9.293237939748112"><ele>85.33333333333333</ele><time>2026-05-02T09:59:46Z</time></trkpt><trkpt lat="41.08070952767682" lon="9.293068905057014"><ele>83.66666666666666</ele><time>2026-05-02T09:59:47Z</time></trkpt><trkpt lat="41.08079827651702" lon="9.292898238510562"><ele>82.0</ele><time>2026-05-02T09:59:48Z</time></trkpt><trkpt lat="41.08090145347402" lon="9.292719365525903"><ele>82.0</ele><time>2026-05-02T09:59:49Z</time></trkpt><trkpt lat="41.08099920072384" lon="9.292538914099751"><ele>82.0</ele><time>2026-05-02T09:59:50Z</time></trkpt><trkpt lat="41.0810921896142" lon="9.292365092051154"><ele>82.0</ele><time>2026-05-02T09:59:51Z</time></trkpt><trkpt lat="41.081193680151216" lon="9.292200464013643"><ele>79.33333333333333</ele><time>2026-05-02T09:59:52Z</time></trkpt><trkpt lat="41.08130948163309" lon="9.292041188048659"><ele>76.66666666666667</ele><time>2026-05-02T09:59:53Z</time></trkpt><trkpt lat="41.081426647379274" lon="9.291890739944483"><ele>74.0</ele><time>2026-05-02T09:59:54Z</time></trkpt><trkpt lat="41.081535665121365" lon="9.291756950663967"><ele>74.25</ele><time>2026-05-02T09:59:55Z</time></trkpt><trkpt lat="41.08164872364488" lon="9.29166335785704"><ele>74.5</ele><time>2026-05-02T09:59:56Z</time></trkpt><trkpt lat="41.08177549956871" lon="9.291629642931161"><ele>74.75</ele><time>2026-05-02T09:59:57Z</time></trkpt><trkpt lat="41.081908454305434" lon="9.291657778555175"><ele>75.0</ele><time>2026-05-02T09:59:58Z</time></trkpt><trkpt lat="41.082037415241096" lon="9.291750195301596"><ele>75.0</ele><time>2026-05-02T09:59:59Z</time></trkpt><trkpt lat="41.082152058759135" lon="9.291901757907125"><ele>75.0</ele><time>2026-05-02T10:00:00Z</time></trkpt><trkpt lat="41.082261495144756" lon="9.292073403937847"><ele>75.0</ele><time>2026-05-02T10:00:01Z</time></trkpt><trkpt lat="41.082372478574015" lon="9.292236343972826"><ele>74.25</ele><time>2026-05-02T10:00:02Z</time></trkpt><trkpt lat="41.082476453230676" lon="9.292385252818713"><ele>73.5</ele><time>2026-05-02T10:00:03Z</time></trkpt><trkpt lat="41.08257461586652" lon="9.292522158106513"><ele>72.75</ele><time>2026-05-02T10:00:04Z</time></trkpt><trkpt lat="41.08267717965092" lon="9.292640911889379"><ele>72.0</ele><time>2026-05-02T10:00:05Z</time></trkpt><trkpt lat="41.08279335974869" lon="9.292730632671509"><ele>72.0</ele><time>2026-05-02T10:00:06Z</time></trkpt><trkpt lat="41.08292646287673" lon="9.29276676996312"><ele>72.0</ele><time>2026-05-02T10:00:07Z</time></trkpt><trkpt lat="41.08305989365717" lon="9.292742462203961"><ele>72.0</ele><time>2026-05-02T10:00:08Z</time></trkpt><trkpt lat="41.083173386683924" lon="9.292646271964433"><ele>72.0</ele><time>2026-05-02T10:00:09Z</time></trkpt><trkpt lat="41.08325819538394" lon="9.292491465283787"><ele>69.33333333333333</ele><time>2026-05-02T10:00:10Z</time></trkpt><trkpt lat="41.08330315245044" lon="9.2923061634449"><ele>66.66666666666666</ele><time>2026-05-02T10:00:11Z</time></trkpt><trkpt lat="41.083315003321225" lon="9.292101232174883"><ele>64.0</ele><time>2026-05-02T10:00:12Z</time></trkpt><trkpt lat="41.083303211647966" lon="9.291882903368244"><ele>63.666666666666664</ele><time>2026-05-02T10:00:13Z</time></trkpt><trkpt lat="41.083300625923144" lon="9.291662559398446"><ele>63.33333333333333</ele><time>2026-05-02T10:00:14Z</time></trkpt><trkpt lat="41.08330589757021" lon="9.291440917638857"><ele>63.0</ele><time>2026-05-02T10:00:15Z</time></trkpt><trkpt lat="41.08330019745112" lon="9.291218554392946"><ele>62.66666666666667</ele><time>2026-05-02T10:00:16Z</time></trkpt><trkpt lat="41.08328173505234" lon="9.291000845450013"><ele>62.333333333333336</ele><time>2026-05-02T10:00:17Z</time></trkpt><trkpt lat="41.0832552497407" lon="9.290793756291249"><ele>62.0</ele><time>2026-05-02T10:00:18Z</time></trkpt><trkpt lat="41.08320620945706" lon="9.290592176531415"><ele>58.66666666666667</ele><time>2026-05-02T10:00:19Z</time></trkpt><trkpt lat="41.08312068441482" lon="9.290399960966655"><ele>55.33333333333333</ele><time>2026-05-02T10:00:20Z</time></trkpt><trkpt lat="41.08300082716851" lon="9.29022468327558"><ele>52.0</ele><time>2026-05-02T10:00:21Z</time></trkpt><trkpt lat="41.08288592233017" lon="9.290059558726638"><ele>52.0</ele><time>2026-05-02T10:00:22Z</time></trkpt><trkpt lat="41.08278174172424" lon="9.289900030935645"><ele>52.0</ele><time>2026-05-02T10:00:23.001Z</time></trkpt><trkpt lat="41.08267860489193" lon="9.289756979718597"><ele>52.0</ele><time>2026-05-02T10:00:24.001Z</time></trkpt><trkpt lat="41.082550038827435" lon="9.28965812406572"><ele>51.5</ele><time>2026-05-02T10:00:25.001Z</time></trkpt><trkpt lat="41.08239424040203" lon="9.289628789899204"><ele>51.0</ele><time>2026-05-02T10:00:26.001Z</time></trkpt><trkpt lat="41.08224268925595" lon="9.289659043376446"><ele>50.5</ele><time>2026-05-02T10:00:27.001Z</time></trkpt><trkpt lat="41.082107965361686" lon="9.289640615200355"><ele>50.0</ele><time>2026-05-02T10:00:28.001Z</time></trkpt><trkpt lat="41.0819945870529" lon="9.289596255154493"><ele>50.0</ele><time>2026-05-02T10:00:29.001Z</time></trkpt><trkpt lat="41.08191640312669" lon="9.289473227287878"><ele>50.0</ele><time>2026-05-02T10:00:30.001Z</time></trkpt><trkpt lat="41.081841583291656" lon="9.289322060523858"><ele>50.0</ele><time>2026-05-02T10:00:31.001Z</time></trkpt><trkpt lat="41.081843344929105" lon="9.289139591686762"><ele>50.0</ele><time>2026-05-02T10:00:32.001Z</time></trkpt><trkpt lat="41.0818882470033" lon="9.288985288879681"><ele>48.66666666666667</ele><time>2026-05-02T10:00:33.001Z</time></trkpt><trkpt lat="41.081963925590564" lon="9.288827937833219"><ele>47.333333333333336</ele><time>2026-05-02T10:00:34.001Z</time></trkpt><trkpt lat="41.082101824894536" lon="9.288695665877732"><ele>46.0</ele><time>2026-05-02T10:00:35.001Z</time></trkpt><trkpt lat="41.08223540927059" lon="9.288577338159676"><ele>46.0</ele><time>2026-05-02T10:00:36.001Z</time></trkpt><trkpt lat="41.08232561746652" lon="9.28844321977482"><ele>46.0</ele><time>2026-05-02T10:00:37.001Z</time></trkpt><trkpt lat="41.08235945989384" lon="9.288291282086815"><ele>46.0</ele><time>2026-05-02T10:00:38.001Z</time></trkpt><trkpt lat="41.0823393748167" lon="9.288140060244515"><ele>46.0</ele><time>2026-05-02T10:00:39.001Z</time></trkpt><trkpt lat="41.08227093401765" lon="9.288016979925064"><ele>41.75</ele><time>2026-05-02T10:00:40.001Z</time></trkpt><trkpt lat="41.0821585191017" lon="9.287917446301858"><ele>37.5</ele><time>2026-05-02T10:00:41.001Z</time></trkpt><trkpt lat="41.08202215619305" lon="9.287866933037643"><ele>33.25</ele><time>2026-05-02T10:00:42.001Z</time></trkpt><trkpt lat="41.08186921722518" lon="9.287850468390841"><ele>29.0</ele><time>2026-05-02T10:00:43.001Z</time></trkpt><trkpt lat="41.081722537473" lon="9.28779609474731"><ele>30.0</ele><time>2026-05-02T10:00:44.001Z</time></trkpt><trkpt lat="41.081575258294635" lon="9.287740821546498"><ele>31.0</ele><time>2026-05-02T10:00:45.001Z</time></trkpt><trkpt lat="41.08144605074943" lon="9.287662132392027"><ele>32.0</ele><time>2026-05-02T10:00:46.001Z</time></trkpt><trkpt lat="41.081346003474785" lon="9.28758167408917"><ele>33.0</ele><time>2026-05-02T10:00:47.001Z</time></trkpt><trkpt lat="41.08130087448407" lon="9.287433400031302"><ele>33.0</ele><time>2026-05-02T10:00:48.001Z</time></trkpt><trkpt lat="41.08125081295208" lon="9.287268348293303"><ele>33.0</ele><time>2026-05-02T10:00:49.001Z</time></trkpt><trkpt lat="41.08127423286234" lon="9.287065636587922"><ele>33.0</ele><time>2026-05-02T10:00:50.001Z</time></trkpt><trkpt lat="41.08127371516932" lon="9.286857994953536"><ele>33.0</ele><time>2026-05-02T10:00:51.001Z</time></trkpt><trkpt lat="41.0812742721599" lon="9.286639231675936"><ele>31.0</ele><time>2026-05-02T10:00:52.001Z</time></trkpt><trkpt lat="41.081275156584056" lon="9.286446049338734"><ele>29.0</ele><time>2026-05-02T10:00:53.001Z</time></trkpt><trkpt lat="41.08126362566214" lon="9.28627420520464"><ele>27.0</ele><time>2026-05-02T10:00:54.001Z</time></trkpt><trkpt lat="41.081289637514246" lon="9.286118344069209"><ele>25.0</ele><time>2026-05-02T10:00:55.001Z</time></trkpt><trkpt lat="41.08134929487665" lon="9.285989376761716"><ele>25.0</ele><time>2026-05-02T10:00:56.001Z</time></trkpt><trkpt lat="41.08143743942356" lon="9.285878645055769"><ele>25.0</ele><time>2026-05-02T10:00:57.001Z</time></trkpt><trkpt lat="41.08156161638618" lon="9.285810703937024"><ele>25.0</ele><time>2026-05-02T10:00:58.001Z</time></trkpt><trkpt lat="41.081714287852456" lon="9.285816987634199"><ele>25.0</ele><time>2026-05-02T10:00:59.001Z</time></trkpt><trkpt lat="41.081886972010665" lon="9.28580225996244"><ele>24.666666666666668</ele><time>2026-05-02T10:01:00.001Z</time></trkpt><trkpt lat="41.08206615125564" lon="9.28581191921891"><ele>24.333333333333336</ele><time>2026-05-02T10:01:01.001Z</time></trkpt><trkpt lat="41.08225195788354" lon="9.285817563281487"><ele>24.0</ele><time>2026-05-02T10:01:02.001Z</time></trkpt><trkpt lat="41.08242958069213" lon="9.285799310874088"><ele>24.666666666666664</ele><time>2026-05-02T10:01:03.001Z</time></trkpt><trkpt lat="41.08259546234305" lon="9.285738019849381"><ele>25.333333333333332</ele><time>2026-05-02T10:01:04.001Z</time></trkpt><trkpt lat="41.08274584490926" lon="9.285631312182323"><ele>26.0</ele><time>2026-05-02T10:01:05.001Z</time></trkpt><trkpt lat="41.082905286479175" lon="9.285521529203777"><ele>30.0</ele><time>2026-05-02T10:01:06.001Z</time></trkpt><trkpt lat="41.083072827189376" lon="9.285418968136135"><ele>34.0</ele><time>2026-05-02T10:01:07.001Z</time></trkpt><trkpt lat="41.08323783488611" lon="9.285321344587073"><ele>38.0</ele><time>2026-05-02T10:01:08.001Z</time></trkpt><trkpt lat="41.08339596906402" lon="9.285235420566494"><ele>39.0</ele><time>2026-05-02T10:01:09.001Z</time></trkpt><trkpt lat="41.08354066483556" lon="9.285189430831947"><ele>40.0</ele><time>2026-05-02T10:01:10.001Z</time></trkpt><trkpt lat="41.08368307442481" lon="9.285200772956978"><ele>41.0</ele><time>2026-05-02T10:01:11.001Z</time></trkpt><trkpt lat="41.083804578694114" lon="9.285325780600553"><ele>42.0</ele><time>2026-05-02T10:01:12.001Z</time></trkpt><trkpt lat="41.08391742891972" lon="9.285474053959424"><ele>41.0</ele><time>2026-05-02T10:01:13.001Z</time></trkpt><trkpt lat="41.08400661395193" lon="9.285671617608534"><ele>40.0</ele><time>2026-05-02T10:01:14.001Z</time></trkpt><trkpt lat="41.08410666685535" lon="9.285862324301123"><ele>39.0</ele><time>2026-05-02T10:01:15.001Z</time></trkpt><trkpt lat="41.084240536490455" lon="9.286005860289588"><ele>39.0</ele><time>2026-05-02T10:01:16.001Z</time></trkpt><trkpt lat="41.084412600896975" lon="9.286094079112633"><ele>39.0</ele><time>2026-05-02T10:01:17.001Z</time></trkpt><trkpt lat="41.0845920749897" lon="9.286170048215707"><ele>39.0</ele><time>2026-05-02T10:01:18.001Z</time></trkpt><trkpt lat="41.084775504006025" lon="9.286219466549577"><ele>42.66666666666667</ele><time>2026-05-02T10:01:19.001Z</time></trkpt><trkpt lat="41.084964252384644" lon="9.286210224122943"><ele>46.333333333333336</ele><time>2026-05-02T10:01:20.001Z</time></trkpt><trkpt lat="41.08514673672973" lon="9.286134907682076"><ele>50.0</ele><time>2026-05-02T10:01:21.001Z</time></trkpt><trkpt lat="41.08532397457791" lon="9.28604491363023"><ele>50.0</ele><time>2026-05-02T10:01:22.001Z</time></trkpt><trkpt lat="41.085492074099555" lon="9.285934444523242"><ele>50.0</ele><time>2026-05-02T10:01:23Z</time></trkpt><trkpt lat="41.08565603066291" lon="9.285835873233726"><ele>50.0</ele><time>2026-05-02T10:01:24Z</time></trkpt><trkpt lat="41.08582565453063" lon="9.285828616248033"><ele>48.5</ele><time>2026-05-02T10:01:25Z</time></trkpt><trkpt lat="41.08597771429957" lon="9.285862836197763"><ele>47.0</ele><time>2026-05-02T10:01:26Z</time></trkpt><trkpt lat="41.086121044470865" lon="9.285854229925697"><ele>45.5</ele><time>2026-05-02T10:01:27Z</time></trkpt><trkpt lat="41.08625797157032" lon="9.285776560511623"><ele>44.0</ele><time>2026-05-02T10:01:28Z</time></trkpt><trkpt lat="41.08638665651132" lon="9.285654877374881"><ele>44.33333333333333</ele><time>2026-05-02T10:01:29Z</time></trkpt><trkpt lat="41.08653120807414" lon="9.285568824019613"><ele>44.666666666666664</ele><time>2026-05-02T10:01:30Z</time></trkpt><trkpt lat="41.08669505114961" lon="9.28559407666677"><ele>45.0</ele><time>2026-05-02T10:01:31Z</time></trkpt><trkpt lat="41.08686079754519" lon="9.28560146010925"><ele>45.0</ele><time>2026-05-02T10:01:32Z</time></trkpt><trkpt lat="41.08702249509898" lon="9.285649178859618"><ele>45.0</ele><time>2026-05-02T10:01:33Z</time></trkpt><trkpt lat="41.08717455523795" lon="9.285718535551432"><ele>45.0</ele><time>2026-05-02T10:01:34Z</time></trkpt><trkpt lat="41.087294659886844" lon="9.285841968376968"><ele>45.0</ele><time>2026-05-02T10:01:35Z</time></trkpt><trkpt lat="41.08741856663687" lon="9.285938549497248"><ele>45.0</ele><time>2026-05-02T10:01:36Z</time></trkpt><trkpt lat="41.08755101616196" lon="9.286015650519783"><ele>45.0</ele><time>2026-05-02T10:01:37Z</time></trkpt><trkpt lat="41.08769562094606" lon="9.286039399933214"><ele>45.0</ele><time>2026-05-02T10:01:38Z</time></trkpt><trkpt lat="41.087840169709196" lon="9.286047667583954"><ele>48.66666666666667</ele><time>2026-05-02T10:01:39Z</time></trkpt><trkpt lat="41.08797542794866" lon="9.28607657286342"><ele>52.333333333333336</ele><time>2026-05-02T10:01:40Z</time></trkpt><trkpt lat="41.088120177952845" lon="9.285916816189777"><ele>56.0</ele><time>2026-05-02T10:01:41Z</time></trkpt><trkpt lat="41.088238452322535" lon="9.28580889494735"><ele>56.0</ele><time>2026-05-02T10:01:42Z</time></trkpt><trkpt lat="41.08834671127712" lon="9.285687461232653"><ele>56.0</ele><time>2026-05-02T10:01:43Z</time></trkpt><trkpt lat="41.08844805966236" lon="9.28555690550227"><ele>56.0</ele><time>2026-05-02T10:01:44Z</time></trkpt><trkpt lat="41.08855574487906" lon="9.28545454204609"><ele>56.0</ele><time>2026-05-02T10:01:45Z</time></trkpt><trkpt lat="41.0886846630023" lon="9.285433879538138"><ele>56.0</ele><time>2026-05-02T10:01:46Z</time></trkpt><trkpt lat="41.0888158398954" lon="9.28548015834958"><ele>56.0</ele><time>2026-05-02T10:01:47Z</time></trkpt><trkpt lat="41.08892492206667" lon="9.28559532765808"><ele>56.0</ele><time>2026-05-02T10:01:48Z</time></trkpt><trkpt lat="41.08900319187786" lon="9.285762663650438"><ele>56.0</ele><time>2026-05-02T10:01:49Z</time></trkpt><trkpt lat="41.089064615835156" lon="9.285948315596883"><ele>58.333333333333336</ele><time>2026-05-02T10:01:50Z</time></trkpt><trkpt lat="41.089167972823724" lon="9.286079595484997"><ele>60.66666666666667</ele><time>2026-05-02T10:01:51Z</time></trkpt><trkpt lat="41.08933050776814" lon="9.286090747556253"><ele>63.0</ele><time>2026-05-02T10:01:52Z</time></trkpt><trkpt lat="41.08948441300176" lon="9.286051978352633"><ele>63.0</ele><time>2026-05-02T10:01:53Z</time></trkpt><trkpt lat="41.08962406196287" lon="9.285972904586917"><ele>63.0</ele><time>2026-05-02T10:01:54Z</time></trkpt><trkpt lat="41.08975354158536" lon="9.285871201606799"><ele>63.0</ele><time>2026-05-02T10:01:55Z</time></trkpt><trkpt lat="41.08988754695858" lon="9.285777464312577"><ele>63.25</ele><time>2026-05-02T10:01:56Z</time></trkpt><trkpt lat="41.0900289712439" lon="9.28570667410958"><ele>63.5</ele><time>2026-05-02T10:01:57Z</time></trkpt><trkpt lat="41.090170782589674" lon="9.285652335960307"><ele>63.75</ele><time>2026-05-02T10:01:58Z</time></trkpt><trkpt lat="41.09031237797726" lon="9.28560212926258"><ele>64.0</ele><time>2026-05-02T10:01:59Z</time></trkpt><trkpt lat="41.09044657992878" lon="9.28555507762333"><ele>66.25</ele><time>2026-05-02T10:02:00Z</time></trkpt><trkpt lat="41.090580653643364" lon="9.285501026473288"><ele>68.5</ele><time>2026-05-02T10:02:01Z</time></trkpt><trkpt lat="41.090709840725765" lon="9.285449742580212"><ele>70.75</ele><time>2026-05-02T10:02:02Z</time></trkpt><trkpt lat="41.090839476905884" lon="9.285403880538144"><ele>73.0</ele><time>2026-05-02T10:02:03Z</time></trkpt><trkpt lat="41.09096749722629" lon="9.285351789694602"><ele>73.0</ele><time>2026-05-02T10:02:04Z</time></trkpt><trkpt lat="41.091086557790796" lon="9.285279617047808"><ele>73.0</ele><time>2026-05-02T10:02:05Z</time></trkpt><trkpt lat="41.091199811609336" lon="9.285180682049377"><ele>73.0</ele><time>2026-05-02T10:02:06Z</time></trkpt><trkpt lat="41.09130792185671" lon="9.285078519776519"><ele>73.0</ele><time>2026-05-02T10:02:07Z</time></trkpt><trkpt lat="41.09141348550565" lon="9.284977178635653"><ele>73.0</ele><time>2026-05-02T10:02:08Z</time></trkpt><trkpt lat="41.09151808539451" lon="9.28487655767925"><ele>73.0</ele><time>2026-05-02T10:02:09Z</time></trkpt><trkpt lat="41.09162509650957" lon="9.284782295529403"><ele>73.0</ele><time>2026-05-02T10:02:10Z</time></trkpt><trkpt lat="41.091731909658826" lon="9.284687447260817"><ele>73.0</ele><time>2026-05-02T10:02:11Z</time></trkpt><trkpt lat="41.09183827569382" lon="9.284599246957765"><ele>76.25</ele><time>2026-05-02T10:02:12Z</time></trkpt><trkpt lat="41.09194945886694" lon="9.284516003705471"><ele>79.5</ele><time>2026-05-02T10:02:13Z</time></trkpt><trkpt lat="41.09205840187633" lon="9.284432731953538"><ele>82.75</ele><time>2026-05-02T10:02:14Z</time></trkpt><trkpt lat="41.09216757439416" lon="9.284349929523781"><ele>86.0</ele><time>2026-05-02T10:02:15Z</time></trkpt><trkpt lat="41.09227881393135" lon="9.284271403699853"><ele>86.0</ele><time>2026-05-02T10:02:16Z</time></trkpt><trkpt lat="41.092387596178284" lon="9.284189620814832"><ele>86.0</ele><time>2026-05-02T10:02:17Z</time></trkpt><trkpt lat="41.0924945336413" lon="9.284106562703018"><ele>86.0</ele><time>2026-05-02T10:02:18Z</time></trkpt><trkpt lat="41.092598629159674" lon="9.28401515489573"><ele>86.0</ele><time>2026-05-02T10:02:19Z</time></trkpt><trkpt lat="41.09269887667687" lon="9.283912471350805"><ele>86.5</ele><time>2026-05-02T10:02:20Z</time></trkpt><trkpt lat="41.092792147333654" lon="9.283795481668369"><ele>87.0</ele><time>2026-05-02T10:02:21Z</time></trkpt><trkpt lat="41.092880667782616" lon="9.283669777490854"><ele>87.5</ele><time>2026-05-02T10:02:22Z</time></trkpt><trkpt lat="41.09296417361472" lon="9.283535594873282"><ele>88.0</ele><time>2026-05-02T10:02:23Z</time></trkpt><trkpt lat="41.09304431723617" lon="9.28339619264265"><ele>88.0</ele><time>2026-05-02T10:02:24Z</time></trkpt><trkpt lat="41.09312499533121" lon="9.283256385417943"><ele>88.0</ele><time>2026-05-02T10:02:25Z</time></trkpt><trkpt lat="41.09321266037377" lon="9.283118394233748"><ele>88.0</ele><time>2026-05-02T10:02:26Z</time></trkpt><trkpt lat="41.09329914645671" lon="9.282982498504571"><ele>88.0</ele><time>2026-05-02T10:02:27Z</time></trkpt><trkpt lat="41.09336873394701" lon="9.282829164318567"><ele>87.5</ele><time>2026-05-02T10:02:28Z</time></trkpt><trkpt lat="41.09341453224722" lon="9.282656703523937"><ele>87.0</ele><time>2026-05-02T10:02:29Z</time></trkpt><trkpt lat="41.09343490797855" lon="9.282470596141648"><ele>86.5</ele><time>2026-05-02T10:02:30Z</time></trkpt><trkpt lat="41.093444174781744" lon="9.282286561929762"><ele>86.0</ele><time>2026-05-02T10:02:31Z</time></trkpt><trkpt lat="41.09345904049365" lon="9.282104226148666"><ele>86.0</ele><time>2026-05-02T10:02:32Z</time></trkpt><trkpt lat="41.09347609313367" lon="9.281920681239573"><ele>86.0</ele><time>2026-05-02T10:02:33Z</time></trkpt><trkpt lat="41.093510663142126" lon="9.281746737192517"><ele>86.0</ele><time>2026-05-02T10:02:34Z</time></trkpt><trkpt lat="41.09352965059972" lon="9.281560016066457"><ele>86.0</ele><time>2026-05-02T10:02:35Z</time></trkpt><trkpt lat="41.09354811586258" lon="9.281378430119464"><ele>86.5</ele><time>2026-05-02T10:02:36Z</time></trkpt><trkpt lat="41.093567080978495" lon="9.28119163408374"><ele>87.0</ele><time>2026-05-02T10:02:37Z</time></trkpt><trkpt lat="41.09358630419723" lon="9.281001432151509"><ele>87.5</ele><time>2026-05-02T10:02:38Z</time></trkpt><trkpt lat="41.093596355503216" lon="9.2808137117114"><ele>88.0</ele><time>2026-05-02T10:02:39Z</time></trkpt><trkpt lat="41.093625650326736" lon="9.280630863895691"><ele>88.5</ele><time>2026-05-02T10:02:40Z</time></trkpt><trkpt lat="41.093648247377324" lon="9.280444794132935"><ele>89.0</ele><time>2026-05-02T10:02:41Z</time></trkpt><trkpt lat="41.09367615610271" lon="9.280262997113434"><ele>89.5</ele><time>2026-05-02T10:02:42Z</time></trkpt><trkpt lat="41.09371726789614" lon="9.280083106008291"><ele>90.0</ele><time>2026-05-02T10:02:43Z</time></trkpt><trkpt lat="41.09376734495679" lon="9.279902663455298"><ele>91.66666666666667</ele><time>2026-05-02T10:02:44Z</time></trkpt><trkpt lat="41.093819710091154" lon="9.279716942168307"><ele>93.33333333333334</ele><time>2026-05-02T10:02:45Z</time></trkpt><trkpt lat="41.09387167922521" lon="9.279525946501192"><ele>95.0</ele><time>2026-05-02T10:02:46Z</time></trkpt><trkpt lat="41.09392339641269" lon="9.279335347343567"><ele>95.0</ele><time>2026-05-02T10:02:47Z</time></trkpt><trkpt lat="41.09397519915896" lon="9.279146245524286"><ele>95.0</ele><time>2026-05-02T10:02:48Z</time></trkpt><trkpt lat="41.0940264943024" lon="9.278951837869784"><ele>95.0</ele><time>2026-05-02T10:02:49Z</time></trkpt><trkpt lat="41.09407759160586" lon="9.278767853718657"><ele>98.0</ele><time>2026-05-02T10:02:50Z</time></trkpt><trkpt lat="41.094128997011175" lon="9.278568886343328"><ele>101.0</ele><time>2026-05-02T10:02:51Z</time></trkpt><trkpt lat="41.0941794382416" lon="9.278370867318063"><ele>104.0</ele><time>2026-05-02T10:02:52Z</time></trkpt><trkpt lat="41.09423395079058" lon="9.27817666502534"><ele>103.75</ele><time>2026-05-02T10:02:53Z</time></trkpt><trkpt lat="41.0942829065386" lon="9.278001686543544"><ele>103.5</ele><time>2026-05-02T10:02:54Z</time></trkpt><trkpt lat="41.09434442369983" lon="9.277827074515569"><ele>103.25</ele><time>2026-05-02T10:02:55Z</time></trkpt><trkpt lat="41.09442101075799" lon="9.277654927348358"><ele>103.0</ele><time>2026-05-02T10:02:56Z</time></trkpt><trkpt lat="41.09450306285539" lon="9.27748805494618"><ele>103.0</ele><time>2026-05-02T10:02:57Z</time></trkpt><trkpt lat="41.09458457588016" lon="9.277319901243613"><ele>103.0</ele><time>2026-05-02T10:02:58Z</time></trkpt><trkpt lat="41.094667755349704" lon="9.277148398217411"><ele>103.0</ele><time>2026-05-02T10:02:59Z</time></trkpt><trkpt lat="41.09474915012708" lon="9.276974539009931"><ele>104.33333333333334</ele><time>2026-05-02T10:03:00Z</time></trkpt><trkpt lat="41.09483161691674" lon="9.276796889758701"><ele>105.66666666666666</ele><time>2026-05-02T10:03:01Z</time></trkpt><trkpt lat="41.09491217924719" lon="9.276615427713313"><ele>107.0</ele><time>2026-05-02T10:03:02Z</time></trkpt><trkpt lat="41.094995230464654" lon="9.276430977704674"><ele>109.5</ele><time>2026-05-02T10:03:03Z</time></trkpt><trkpt lat="41.09507202714642" lon="9.2762650023165"><ele>112.0</ele><time>2026-05-02T10:03:04Z</time></trkpt><trkpt lat="41.09513608623219" lon="9.276102074579944"><ele>114.5</ele><time>2026-05-02T10:03:05Z</time></trkpt><trkpt lat="41.095174101109656" lon="9.275920178138671"><ele>117.0</ele><time>2026-05-02T10:03:06Z</time></trkpt><trkpt lat="41.095177142600754" lon="9.275729807345646"><ele>117.75</ele><time>2026-05-02T10:03:07Z</time></trkpt><trkpt lat="41.095148646462114" lon="9.275530772370123"><ele>118.5</ele><time>2026-05-02T10:03:08Z</time></trkpt><trkpt lat="41.09513311175859" lon="9.275342215638375"><ele>119.25</ele><time>2026-05-02T10:03:09Z</time></trkpt><trkpt lat="41.09514742026576" lon="9.275147021832355"><ele>120.0</ele><time>2026-05-02T10:03:10Z</time></trkpt><trkpt lat="41.095200296157934" lon="9.274965794152402"><ele>120.0</ele><time>2026-05-02T10:03:11Z</time></trkpt><trkpt lat="41.09526138317872" lon="9.274783090222428"><ele>120.0</ele><time>2026-05-02T10:03:12Z</time></trkpt><trkpt lat="41.09532189321819" lon="9.274606991872002"><ele>120.0</ele><time>2026-05-02T10:03:13Z</time></trkpt><trkpt lat="41.09537957611175" lon="9.274457401185352"><ele>120.0</ele><time>2026-05-02T10:03:14Z</time></trkpt><trkpt lat="41.09543176549237" lon="9.274349122113058"><ele>121.0</ele><time>2026-05-02T10:03:15Z</time></trkpt><trkpt lat="41.09546647486222" lon="9.274271842039633"><ele>122.0</ele><time>2026-05-02T10:03:16Z</time></trkpt><trkpt lat="41.09543680042405" lon="9.274188147779432"><ele>123.0</ele><time>2026-05-02T10:03:18Z</time></trkpt><trkpt lat="41.09537158153183" lon="9.274182282560801"><ele>124.0</ele><time>2026-05-02T10:03:26Z</time></trkpt><trkpt lat="41.09530460003913" lon="9.274154275353728"><ele>125.0</ele><time>2026-05-02T10:03:27Z</time></trkpt><trkpt lat="41.095227329231136" lon="9.274091445318168"><ele>126.0</ele><time>2026-05-02T10:03:28Z</time></trkpt><trkpt lat="41.095142913042395" lon="9.274062794379288"><ele>126.0</ele><time>2026-05-02T10:03:29Z</time></trkpt><trkpt lat="41.09504063693292" lon="9.274034700276145"><ele>126.0</ele><time>2026-05-02T10:03:30Z</time></trkpt><trkpt lat="41.09493392024205" lon="9.27400254900632"><ele>126.0</ele><time>2026-05-02T10:03:31Z</time></trkpt><trkpt lat="41.09481590928528" lon="9.273966234350189"><ele>126.0</ele><time>2026-05-02T10:03:32Z</time></trkpt><trkpt lat="41.09470351613591" lon="9.273932904156823"><ele>125.8</ele><time>2026-05-02T10:03:33Z</time></trkpt><trkpt lat="41.09459489967205" lon="9.273917529073445"><ele>125.6</ele><time>2026-05-02T10:03:34Z</time></trkpt><trkpt lat="41.09449725089786" lon="9.273923897578115"><ele>125.4</ele><time>2026-05-02T10:03:35Z</time></trkpt><trkpt lat="41.09439265668887" lon="9.273944805414486"><ele>125.2</ele><time>2026-05-02T10:03:36Z</time></trkpt><trkpt lat="41.09429977563662" lon="9.273946480160696"><ele>125.0</ele><time>2026-05-02T10:03:37Z</time></trkpt><trkpt lat="41.0942208028503" lon="9.273860927395987"><ele>125.4</ele><time>2026-05-02T10:03:39Z</time></trkpt><trkpt lat="41.09420043219649" lon="9.273774306659279"><ele>125.8</ele><time>2026-05-02T10:03:40Z</time></trkpt><trkpt lat="41.094230042849105" lon="9.273622605635056"><ele>126.19999999999999</ele><time>2026-05-02T10:03:41Z</time></trkpt><trkpt lat="41.09420101307468" lon="9.27348172004964"><ele>126.6</ele><time>2026-05-02T10:03:42Z</time></trkpt><trkpt lat="41.094117545068706" lon="9.273357749700192"><ele>127.0</ele><time>2026-05-02T10:03:43Z</time></trkpt><trkpt lat="41.094027336033335" lon="9.273238170337342"><ele>128.33333333333334</ele><time>2026-05-02T10:03:44Z</time></trkpt><trkpt lat="41.09396382458737" lon="9.273091997938742"><ele>129.66666666666666</ele><time>2026-05-02T10:03:45Z</time></trkpt><trkpt lat="41.09387423373654" lon="9.272914396996338"><ele>131.0</ele><time>2026-05-02T10:03:46Z</time></trkpt><trkpt lat="41.09377002570353" lon="9.272714436371087"><ele>131.0</ele><time>2026-05-02T10:03:47Z</time></trkpt><trkpt lat="41.09367467396874" lon="9.27252042617431"><ele>131.0</ele><time>2026-05-02T10:03:48Z</time></trkpt><trkpt lat="41.09358799209701" lon="9.272343228446456"><ele>131.0</ele><time>2026-05-02T10:03:49Z</time></trkpt><trkpt lat="41.093522968469024" lon="9.27219654352195"><ele>131.6</ele><time>2026-05-02T10:03:50Z</time></trkpt><trkpt lat="41.093473199534195" lon="9.272099069678763"><ele>132.2</ele><time>2026-05-02T10:03:51Z</time></trkpt><trkpt lat="41.093425116312694" lon="9.271994095668902"><ele>132.8</ele><time>2026-05-02T10:03:52Z</time></trkpt><trkpt lat="41.09340678905671" lon="9.271856759028733"><ele>133.4</ele><time>2026-05-02T10:03:53Z</time></trkpt><trkpt lat="41.093375598274164" lon="9.271688589242226"><ele>134.0</ele><time>2026-05-02T10:03:54Z</time></trkpt><trkpt lat="41.093320667135195" lon="9.271519547591282"><ele>134.4</ele><time>2026-05-02T10:03:55Z</time></trkpt><trkpt lat="41.093226508364786" lon="9.271399982501178"><ele>134.8</ele><time>2026-05-02T10:03:56Z</time></trkpt><trkpt lat="41.09315563555577" lon="9.271286226097844"><ele>135.2</ele><time>2026-05-02T10:03:57Z</time></trkpt><trkpt lat="41.093070864413434" lon="9.27126875006962"><ele>135.6</ele><time>2026-05-02T10:03:58Z</time></trkpt><trkpt lat="41.09298235593811" lon="9.271220262539034"><ele>136.0</ele><time>2026-05-02T10:04:00Z</time></trkpt><trkpt lat="41.09298829749013" lon="9.2710365443634"><ele>136.0</ele><time>2026-05-02T10:04:02Z</time></trkpt><trkpt lat="41.09292514754418" lon="9.270923256311715"><ele>136.0</ele><time>2026-05-02T10:04:04Z</time></trkpt><trkpt lat="41.09295997747995" lon="9.270851231708194"><ele>136.0</ele><time>2026-05-02T10:04:06Z</time></trkpt><trkpt lat="41.09301735284824" lon="9.270810701648559"><ele>136.0</ele><time>2026-05-02T10:04:07Z</time></trkpt><trkpt lat="41.09308550345933" lon="9.270760299541788"><ele>136.0</ele><time>2026-05-02T10:04:08Z</time></trkpt><trkpt lat="41.093158117796115" lon="9.270710553811726"><ele>136.0</ele><time>2026-05-02T10:04:09Z</time></trkpt><trkpt lat="41.093236203699036" lon="9.27065485394119"><ele>136.0</ele><time>2026-05-02T10:04:10Z</time></trkpt><trkpt lat="41.09332644041958" lon="9.270587151272052"><ele>136.0</ele><time>2026-05-02T10:04:11Z</time></trkpt><trkpt lat="41.09341196195464" lon="9.270514723514635"><ele>136.0</ele><time>2026-05-02T10:04:12Z</time></trkpt><trkpt lat="41.09350222417283" lon="9.270422794759304"><ele>136.0</ele><time>2026-05-02T10:04:13Z</time></trkpt><trkpt lat="41.09358458797418" lon="9.270297019008542"><ele>136.0</ele><time>2026-05-02T10:04:14Z</time></trkpt><trkpt lat="41.09364883788512" lon="9.270150885538841"><ele>136.0</ele><time>2026-05-02T10:04:15Z</time></trkpt><trkpt lat="41.09368602048374" lon="9.269983761680527"><ele>136.0</ele><time>2026-05-02T10:04:16Z</time></trkpt><trkpt lat="41.09370473486521" lon="9.269813523804958"><ele>136.0</ele><time>2026-05-02T10:04:17Z</time></trkpt><trkpt lat="41.09370976015707" lon="9.269636835041757"><ele>136.0</ele><time>2026-05-02T10:04:18Z</time></trkpt><trkpt lat="41.09369913670484" lon="9.269452259454097"><ele>136.0</ele><time>2026-05-02T10:04:19Z</time></trkpt><trkpt lat="41.093664658897566" lon="9.269263663086088"><ele>136.0</ele><time>2026-05-02T10:04:20Z</time></trkpt><trkpt lat="41.09360947595713" lon="9.269088959269569"><ele>136.0</ele><time>2026-05-02T10:04:21Z</time></trkpt><trkpt lat="41.09356018695702" lon="9.268904150603401"><ele>136.0</ele><time>2026-05-02T10:04:22Z</time></trkpt><trkpt lat="41.093509277962795" lon="9.268720318531559"><ele>135.75</ele><time>2026-05-02T10:04:23Z</time></trkpt><trkpt lat="41.09346427854255" lon="9.2685357953973"><ele>135.5</ele><time>2026-05-02T10:04:24Z</time></trkpt><trkpt lat="41.093439403638456" lon="9.268344751002127"><ele>135.25</ele><time>2026-05-02T10:04:25Z</time></trkpt><trkpt lat="41.09342271756755" lon="9.268150007934393"><ele>135.0</ele><time>2026-05-02T10:04:26Z</time></trkpt><trkpt lat="41.0934077919713" lon="9.267975001100329"><ele>134.0</ele><time>2026-05-02T10:04:27Z</time></trkpt><trkpt lat="41.093373677715945" lon="9.267813601142345"><ele>133.0</ele><time>2026-05-02T10:04:28Z</time></trkpt><trkpt lat="41.093351467935136" lon="9.267662421335505"><ele>132.0</ele><time>2026-05-02T10:04:29Z</time></trkpt><trkpt lat="41.09332859037158" lon="9.267512577243815"><ele>131.0</ele><time>2026-05-02T10:04:30Z</time></trkpt><trkpt lat="41.09332898943297" lon="9.267363539969828"><ele>130.25</ele><time>2026-05-02T10:04:31Z</time></trkpt><trkpt lat="41.093361833462005" lon="9.267239280512067"><ele>129.5</ele><time>2026-05-02T10:04:32Z</time></trkpt><trkpt lat="41.09344082164402" lon="9.267150307038703"><ele>128.75</ele><time>2026-05-02T10:04:33Z</time></trkpt><trkpt lat="41.093545487266546" lon="9.26706829985532"><ele>128.0</ele><time>2026-05-02T10:04:34Z</time></trkpt><trkpt lat="41.09365154142919" lon="9.26697590776566"><ele>128.0</ele><time>2026-05-02T10:04:35Z</time></trkpt><trkpt lat="41.09372394793211" lon="9.266861735327785"><ele>128.0</ele><time>2026-05-02T10:04:36Z</time></trkpt><trkpt lat="41.09376017179364" lon="9.266727002229128"><ele>128.0</ele><time>2026-05-02T10:04:37Z</time></trkpt><trkpt lat="41.09375230913584" lon="9.26657437868236"><ele>128.0</ele><time>2026-05-02T10:04:38Z</time></trkpt><trkpt lat="41.09372502591402" lon="9.26641549483754"><ele>127.0</ele><time>2026-05-02T10:04:39Z</time></trkpt><trkpt lat="41.09371719015854" lon="9.266243767118143"><ele>126.0</ele><time>2026-05-02T10:04:40Z</time></trkpt><trkpt lat="41.093699510570836" lon="9.266088579828322"><ele>125.0</ele><time>2026-05-02T10:04:41Z</time></trkpt><trkpt lat="41.093684405449615" lon="9.265942087786748"><ele>124.0</ele><time>2026-05-02T10:04:42Z</time></trkpt><trkpt lat="41.09367161062373" lon="9.265808398074553"><ele>124.0</ele><time>2026-05-02T10:04:43Z</time></trkpt><trkpt lat="41.09366507358347" lon="9.26567896673764"><ele>124.0</ele><time>2026-05-02T10:04:44Z</time></trkpt><trkpt lat="41.093668411217955" lon="9.265558082714072"><ele>124.0</ele><time>2026-05-02T10:04:45Z</time></trkpt><trkpt lat="41.09369114040882" lon="9.265435038146714"><ele>124.0</ele><time>2026-05-02T10:04:46Z</time></trkpt><trkpt lat="41.093725290318176" lon="9.265290430235389"><ele>124.0</ele><time>2026-05-02T10:04:47Z</time></trkpt><trkpt lat="41.09374494298884" lon="9.2651290962151"><ele>123.0</ele><time>2026-05-02T10:04:48Z</time></trkpt><trkpt lat="41.09377172600243" lon="9.26495660275909"><ele>122.0</ele><time>2026-05-02T10:04:49Z</time></trkpt><trkpt lat="41.093787526555126" lon="9.264778931756213"><ele>121.0</ele><time>2026-05-02T10:04:50Z</time></trkpt><trkpt lat="41.09379187370181" lon="9.264594893443123"><ele>120.0</ele><time>2026-05-02T10:04:51Z</time></trkpt><trkpt lat="41.09382055397225" lon="9.264416971975352"><ele>119.0</ele><time>2026-05-02T10:04:52Z</time></trkpt><trkpt lat="41.09383163574796" lon="9.264244830325596"><ele>118.0</ele><time>2026-05-02T10:04:53Z</time></trkpt><trkpt lat="41.093840947083805" lon="9.264086361971373"><ele>117.0</ele><time>2026-05-02T10:04:54Z</time></trkpt><trkpt lat="41.09385048058598" lon="9.263935243036839"><ele>116.0</ele><time>2026-05-02T10:04:55Z</time></trkpt><trkpt lat="41.09386144931702" lon="9.263788129403943"><ele>114.75</ele><time>2026-05-02T10:04:56Z</time></trkpt><trkpt lat="41.093860451579324" lon="9.26363833244047"><ele>113.5</ele><time>2026-05-02T10:04:57Z</time></trkpt><trkpt lat="41.093895497213865" lon="9.263499145308879"><ele>112.25</ele><time>2026-05-02T10:04:58Z</time></trkpt><trkpt lat="41.09393229108712" lon="9.26335786433503"><ele>111.0</ele><time>2026-05-02T10:04:59Z</time></trkpt><trkpt lat="41.093985435283884" lon="9.26321571776959"><ele>111.0</ele><time>2026-05-02T10:05:00Z</time></trkpt><trkpt lat="41.09405939986481" lon="9.263075243677532"><ele>111.0</ele><time>2026-05-02T10:05:01Z</time></trkpt><trkpt lat="41.09414532468418" lon="9.262932206609335"><ele>111.0</ele><time>2026-05-02T10:05:02Z</time></trkpt><trkpt lat="41.09425073960599" lon="9.26280389888884"><ele>111.0</ele><time>2026-05-02T10:05:03Z</time></trkpt><trkpt lat="41.09435348651803" lon="9.262670781788383"><ele>111.0</ele><time>2026-05-02T10:05:04Z</time></trkpt><trkpt lat="41.09445708108718" lon="9.262530240594039"><ele>111.0</ele><time>2026-05-02T10:05:05Z</time></trkpt><trkpt lat="41.09456230687639" lon="9.262395198321427"><ele>111.0</ele><time>2026-05-02T10:05:06Z</time></trkpt><trkpt lat="41.09466923707823" lon="9.262261303576347"><ele>111.0</ele><time>2026-05-02T10:05:07Z</time></trkpt><trkpt lat="41.09477391187539" lon="9.262125251481791"><ele>110.25</ele><time>2026-05-02T10:05:08Z</time></trkpt><trkpt lat="41.094870586248675" lon="9.261976228064793"><ele>109.5</ele><time>2026-05-02T10:05:09Z</time></trkpt><trkpt lat="41.0949568647409" lon="9.261815836067134"><ele>108.75</ele><time>2026-05-02T10:05:10Z</time></trkpt><trkpt lat="41.095029543683914" lon="9.261647223797828"><ele>108.0</ele><time>2026-05-02T10:05:11Z</time></trkpt><trkpt lat="41.095085108662666" lon="9.26146559037714"><ele>108.25</ele><time>2026-05-02T10:05:12Z</time></trkpt><trkpt lat="41.095129285687605" lon="9.261281407935856"><ele>108.5</ele><time>2026-05-02T10:05:13Z</time></trkpt><trkpt lat="41.09517125548883" lon="9.26109585567441"><ele>108.75</ele><time>2026-05-02T10:05:14Z</time></trkpt><trkpt lat="41.095214824019074" lon="9.260915795803475"><ele>109.0</ele><time>2026-05-02T10:05:15Z</time></trkpt><trkpt lat="41.095252797164584" lon="9.260735792343256"><ele>109.25</ele><time>2026-05-02T10:05:16Z</time></trkpt><trkpt lat="41.095280065385296" lon="9.260549201738522"><ele>109.5</ele><time>2026-05-02T10:05:17Z</time></trkpt><trkpt lat="41.095289958412046" lon="9.260385612151909"><ele>109.75</ele><time>2026-05-02T10:05:18Z</time></trkpt><trkpt lat="41.09530011895059" lon="9.260239757756166"><ele>110.0</ele><time>2026-05-02T10:05:19Z</time></trkpt><trkpt lat="41.0953317430151" lon="9.26011553491342"><ele>110.0</ele><time>2026-05-02T10:05:20Z</time></trkpt><trkpt lat="41.09539489208729" lon="9.2600007179001"><ele>110.0</ele><time>2026-05-02T10:05:21Z</time></trkpt><trkpt lat="41.09548043841776" lon="9.259905553422874"><ele>110.0</ele><time>2026-05-02T10:05:22Z</time></trkpt><trkpt lat="41.095599745741666" lon="9.259873647749828"><ele>110.0</ele><time>2026-05-02T10:05:23Z</time></trkpt><trkpt lat="41.09572462784826" lon="9.259812593613766"><ele>108.75</ele><time>2026-05-02T10:05:24Z</time></trkpt><trkpt lat="41.09586493974696" lon="9.25979369738921"><ele>107.5</ele><time>2026-05-02T10:05:25Z</time></trkpt><trkpt lat="41.09600285327615" lon="9.259772840231795"><ele>106.25</ele><time>2026-05-02T10:05:26Z</time></trkpt><trkpt lat="41.09612813950385" lon="9.259737747129542"><ele>105.0</ele><time>2026-05-02T10:05:27Z</time></trkpt><trkpt lat="41.09624437321288" lon="9.259681530422029"><ele>104.5</ele><time>2026-05-02T10:05:28Z</time></trkpt><trkpt lat="41.096347638276484" lon="9.259599196430557"><ele>104.0</ele><time>2026-05-02T10:05:29Z</time></trkpt><trkpt lat="41.09644416382187" lon="9.259485801141272"><ele>103.5</ele><time>2026-05-02T10:05:30Z</time></trkpt><trkpt lat="41.09653823627264" lon="9.259352675472396"><ele>103.0</ele><time>2026-05-02T10:05:31Z</time></trkpt><trkpt lat="41.096635398938396" lon="9.25920821027266"><ele>100.0</ele><time>2026-05-02T10:05:32Z</time></trkpt><trkpt lat="41.09673999478738" lon="9.25906013014341"><ele>97.0</ele><time>2026-05-02T10:05:33Z</time></trkpt><trkpt lat="41.096853670610955" lon="9.258909948805702"><ele>94.0</ele><time>2026-05-02T10:05:34Z</time></trkpt><trkpt lat="41.09696812086055" lon="9.25875537701278"><ele>91.66666666666666</ele><time>2026-05-02T10:05:35Z</time></trkpt><trkpt lat="41.097080536993516" lon="9.258601087874046"><ele>89.33333333333333</ele><time>2026-05-02T10:05:36Z</time></trkpt><trkpt lat="41.097189608928446" lon="9.258447061954344"><ele>87.0</ele><time>2026-05-02T10:05:37Z</time></trkpt><trkpt lat="41.09728363585351" lon="9.258306380478837"><ele>87.0</ele><time>2026-05-02T10:05:38Z</time></trkpt><trkpt lat="41.09737949910556" lon="9.258172390290646"><ele>87.0</ele><time>2026-05-02T10:05:39Z</time></trkpt><trkpt lat="41.097481896152416" lon="9.258041819594501"><ele>87.0</ele><time>2026-05-02T10:05:40Z</time></trkpt><trkpt lat="41.09758976366916" lon="9.25792660568703"><ele>87.0</ele><time>2026-05-02T10:05:41Z</time></trkpt><trkpt lat="41.097700151053374" lon="9.257823283404052"><ele>84.25</ele><time>2026-05-02T10:05:42Z</time></trkpt><trkpt lat="41.0978098641289" lon="9.257724592834137"><ele>81.5</ele><time>2026-05-02T10:05:43Z</time></trkpt><trkpt lat="41.09792450090858" lon="9.257631439116377"><ele>78.75</ele><time>2026-05-02T10:05:44Z</time></trkpt><trkpt lat="41.09804057328678" lon="9.257540812633787"><ele>76.0</ele><time>2026-05-02T10:05:45Z</time></trkpt><trkpt lat="41.09816690349769" lon="9.257454764786594"><ele>76.25</ele><time>2026-05-02T10:05:46Z</time></trkpt><trkpt lat="41.09829008879595" lon="9.257376691988801"><ele>76.5</ele><time>2026-05-02T10:05:47Z</time></trkpt><trkpt lat="41.098410594355016" lon="9.257282739858663"><ele>76.75</ele><time>2026-05-02T10:05:48Z</time></trkpt><trkpt lat="41.09851298463752" lon="9.257159560003103"><ele>77.0</ele><time>2026-05-02T10:05:49Z</time></trkpt><trkpt lat="41.098593999603644" lon="9.257010759113292"><ele>75.75</ele><time>2026-05-02T10:05:50Z</time></trkpt><trkpt lat="41.09864659350638" lon="9.256834474433672"><ele>74.5</ele><time>2026-05-02T10:05:51Z</time></trkpt><trkpt lat="41.09868962399923" lon="9.256654302034356"><ele>73.25</ele><time>2026-05-02T10:05:52Z</time></trkpt><trkpt lat="41.09873239176849" lon="9.256469344318532"><ele>72.0</ele><time>2026-05-02T10:05:53Z</time></trkpt><trkpt lat="41.09877383347283" lon="9.256284352756605"><ele>72.0</ele><time>2026-05-02T10:05:54Z</time></trkpt><trkpt lat="41.09882004212031" lon="9.256105598237372"><ele>72.0</ele><time>2026-05-02T10:05:55Z</time></trkpt><trkpt lat="41.09886724164171" lon="9.255934677157079"><ele>72.0</ele><time>2026-05-02T10:05:56Z</time></trkpt><trkpt lat="41.098911009859386" lon="9.255765019114719"><ele>72.0</ele><time>2026-05-02T10:05:57Z</time></trkpt><trkpt lat="41.0989600045131" lon="9.255603180218072"><ele>72.0</ele><time>2026-05-02T10:05:58Z</time></trkpt><trkpt lat="41.09904522259272" lon="9.25547203942944"><ele>72.0</ele><time>2026-05-02T10:05:59Z</time></trkpt><trkpt lat="41.099133153717105" lon="9.255332872555917"><ele>72.0</ele><time>2026-05-02T10:06:00Z</time></trkpt><trkpt lat="41.09925422775858" lon="9.255256097710708"><ele>72.0</ele><time>2026-05-02T10:06:01Z</time></trkpt><trkpt lat="41.09938367148308" lon="9.255262876517346"><ele>72.0</ele><time>2026-05-02T10:06:02Z</time></trkpt><trkpt lat="41.09948087747035" lon="9.25530264512434"><ele>72.0</ele><time>2026-05-02T10:06:03Z</time></trkpt><trkpt lat="41.09955194710224" lon="9.255327922058422"><ele>72.0</ele><time>2026-05-02T10:06:04Z</time></trkpt><trkpt lat="41.09962067360915" lon="9.255321218802603"><ele>72.0</ele><time>2026-05-02T10:06:07Z</time></trkpt><trkpt lat="41.09962775254182" lon="9.255182088550578"><ele>72.0</ele><time>2026-05-02T10:06:09Z</time></trkpt><trkpt lat="41.0996000244689" lon="9.25508858788396"><ele>72.0</ele><time>2026-05-02T10:06:10Z</time></trkpt><trkpt lat="41.09956931919314" lon="9.254985715078849"><ele>72.0</ele><time>2026-05-02T10:06:11Z</time></trkpt><trkpt lat="41.09953951281511" lon="9.25487009275773"><ele>72.0</ele><time>2026-05-02T10:06:12Z</time></trkpt><trkpt lat="41.099512509977515" lon="9.254749530355582"><ele>72.0</ele><time>2026-05-02T10:06:13Z</time></trkpt><trkpt lat="41.099488066841516" lon="9.254628176634926"><ele>72.0</ele><time>2026-05-02T10:06:14Z</time></trkpt><trkpt lat="41.099452357917826" lon="9.254484085554925"><ele>72.0</ele><time>2026-05-02T10:06:15Z</time></trkpt><trkpt lat="41.099412320397484" lon="9.25431792456645"><ele>72.5</ele><time>2026-05-02T10:06:16Z</time></trkpt><trkpt lat="41.0993765757304" lon="9.254159805594416"><ele>73.0</ele><time>2026-05-02T10:06:17Z</time></trkpt><trkpt lat="41.09932921311349" lon="9.254003391068204"><ele>73.5</ele><time>2026-05-02T10:06:18Z</time></trkpt><trkpt lat="41.099265804071855" lon="9.253843922551864"><ele>74.0</ele><time>2026-05-02T10:06:19Z</time></trkpt><trkpt lat="41.09916431953964" lon="9.253704757555788"><ele>76.0</ele><time>2026-05-02T10:06:20Z</time></trkpt><trkpt lat="41.09904008386809" lon="9.253578848380476"><ele>78.0</ele><time>2026-05-02T10:06:21Z</time></trkpt><trkpt lat="41.098877799722096" lon="9.253536887527355"><ele>80.0</ele><time>2026-05-02T10:06:22Z</time></trkpt><trkpt lat="41.09871300256063" lon="9.253479897267633"><ele>80.0</ele><time>2026-05-02T10:06:23Z</time></trkpt><trkpt lat="41.09855872329981" lon="9.253443143564791"><ele>80.0</ele><time>2026-05-02T10:06:24Z</time></trkpt><trkpt lat="41.098416823604715" lon="9.253384125836432"><ele>80.0</ele><time>2026-05-02T10:06:25Z</time></trkpt><trkpt lat="41.09828109803346" lon="9.25329687028022"><ele>79.66666666666667</ele><time>2026-05-02T10:06:26Z</time></trkpt><trkpt lat="41.09816658312123" lon="9.253153432420783"><ele>79.33333333333333</ele><time>2026-05-02T10:06:27Z</time></trkpt><trkpt lat="41.09807266325884" lon="9.252969180159107"><ele>79.0</ele><time>2026-05-02T10:06:28Z</time></trkpt><trkpt lat="41.09799431634903" lon="9.252769192599905"><ele>78.66666666666666</ele><time>2026-05-02T10:06:29Z</time></trkpt><trkpt lat="41.09792086487197" lon="9.25256931513459"><ele>78.33333333333333</ele><time>2026-05-02T10:06:30Z</time></trkpt><trkpt lat="41.09784351167985" lon="9.252366399645144"><ele>78.0</ele><time>2026-05-02T10:06:31Z</time></trkpt><trkpt lat="41.09776131198643" lon="9.252161106972036"><ele>78.66666666666667</ele><time>2026-05-02T10:06:32Z</time></trkpt><trkpt lat="41.09767545170944" lon="9.251950389806174"><ele>79.33333333333334</ele><time>2026-05-02T10:06:33Z</time></trkpt><trkpt lat="41.09759104850852" lon="9.251738332625044"><ele>80.0</ele><time>2026-05-02T10:06:34Z</time></trkpt><trkpt lat="41.097505932978216" lon="9.25152374015031"><ele>80.0</ele><time>2026-05-02T10:06:35Z</time></trkpt><trkpt lat="41.09742092205352" lon="9.25130378379379"><ele>80.0</ele><time>2026-05-02T10:06:36Z</time></trkpt><trkpt lat="41.097333341667145" lon="9.251081764883567"><ele>80.0</ele><time>2026-05-02T10:06:37Z</time></trkpt><trkpt lat="41.09724438084049" lon="9.250859576620352"><ele>79.33333333333334</ele><time>2026-05-02T10:06:38Z</time></trkpt><trkpt lat="41.09715419955199" lon="9.250634290546019"><ele>78.66666666666667</ele><time>2026-05-02T10:06:39Z</time></trkpt><trkpt lat="41.09706472136379" lon="9.250405598358363"><ele>78.0</ele><time>2026-05-02T10:06:40Z</time></trkpt><trkpt lat="41.09697453347307" lon="9.250172478061156"><ele>78.0</ele><time>2026-05-02T10:06:41Z</time></trkpt><trkpt lat="41.09688484530053" lon="9.249939663008261"><ele>78.0</ele><time>2026-05-02T10:06:42Z</time></trkpt><trkpt lat="41.096794739983395" lon="9.249710989687761"><ele>78.0</ele><time>2026-05-02T10:06:43Z</time></trkpt><trkpt lat="41.09670358454349" lon="9.249482902606562"><ele>78.0</ele><time>2026-05-02T10:06:44Z</time></trkpt><trkpt lat="41.09661051775258" lon="9.249246959573735"><ele>78.0</ele><time>2026-05-02T10:06:45Z</time></trkpt><trkpt lat="41.09652243403678" lon="9.24900337947345"><ele>78.0</ele><time>2026-05-02T10:06:46Z</time></trkpt><trkpt lat="41.09644205968876" lon="9.248751924253098"><ele>78.33333333333333</ele><time>2026-05-02T10:06:47Z</time></trkpt><trkpt lat="41.09636194874198" lon="9.24849833390768"><ele>78.66666666666666</ele><time>2026-05-02T10:06:48Z</time></trkpt><trkpt lat="41.096281688850716" lon="9.248239155802056"><ele>79.0</ele><time>2026-05-02T10:06:49Z</time></trkpt><trkpt lat="41.096199520178104" lon="9.247980858060474"><ele>79.0</ele><time>2026-05-02T10:06:50Z</time></trkpt><trkpt lat="41.096114540393906" lon="9.247719315344035"><ele>79.0</ele><time>2026-05-02T10:06:51Z</time></trkpt><trkpt lat="41.09603073758021" lon="9.247456684294908"><ele>79.0</ele><time>2026-05-02T10:06:52Z</time></trkpt><trkpt lat="41.09594632327716" lon="9.247192865841882"><ele>79.0</ele><time>2026-05-02T10:06:53Z</time></trkpt><trkpt lat="41.095860993654" lon="9.246930504477826"><ele>79.0</ele><time>2026-05-02T10:06:54Z</time></trkpt><trkpt lat="41.09577637989182" lon="9.246667564950561"><ele>79.0</ele><time>2026-05-02T10:06:55Z</time></trkpt><trkpt lat="41.09569213572352" lon="9.24640222270904"><ele>79.0</ele><time>2026-05-02T10:06:56Z</time></trkpt><trkpt lat="41.09560658064551" lon="9.24613631022833"><ele>79.0</ele><time>2026-05-02T10:06:57Z</time></trkpt><trkpt lat="41.09551992881796" lon="9.245871979113787"><ele>79.0</ele><time>2026-05-02T10:06:58Z</time></trkpt><trkpt lat="41.09543337171491" lon="9.24561022456518"><ele>80.0</ele><time>2026-05-02T10:06:59Z</time></trkpt><trkpt lat="41.09534924187648" lon="9.245348245805884"><ele>81.0</ele><time>2026-05-02T10:07:00Z</time></trkpt><trkpt lat="41.095269512135715" lon="9.245090359009206"><ele>82.0</ele><time>2026-05-02T10:07:01Z</time></trkpt><trkpt lat="41.09519216365101" lon="9.244841932594742"><ele>82.0</ele><time>2026-05-02T10:07:02Z</time></trkpt><trkpt lat="41.09511799638722" lon="9.24460450786182"><ele>82.0</ele><time>2026-05-02T10:07:03Z</time></trkpt><trkpt lat="41.09504540174698" lon="9.244372677574072"><ele>82.0</ele><time>2026-05-02T10:07:04Z</time></trkpt><trkpt lat="41.094972129482734" lon="9.24415132583355"><ele>82.66666666666666</ele><time>2026-05-02T10:07:05Z</time></trkpt><trkpt lat="41.09490328869239" lon="9.243946243389242"><ele>83.33333333333333</ele><time>2026-05-02T10:07:06Z</time></trkpt><trkpt lat="41.09483701820073" lon="9.24374848305063"><ele>84.0</ele><time>2026-05-02T10:07:07Z</time></trkpt><trkpt lat="41.09477965274816" lon="9.24357192714122"><ele>84.0</ele><time>2026-05-02T10:07:08Z</time></trkpt><trkpt lat="41.094737726120314" lon="9.243392435264"><ele>84.0</ele><time>2026-05-02T10:07:09Z</time></trkpt><trkpt lat="41.094686501072104" lon="9.24323101001415"><ele>84.0</ele><time>2026-05-02T10:07:10Z</time></trkpt><trkpt lat="41.09462635905629" lon="9.243087104045582"><ele>84.0</ele><time>2026-05-02T10:07:11Z</time></trkpt><trkpt lat="41.09458722414426" lon="9.242943595525999"><ele>84.2</ele><time>2026-05-02T10:07:12Z</time></trkpt><trkpt lat="41.09454862004998" lon="9.24282078433363"><ele>84.4</ele><time>2026-05-02T10:07:13Z</time></trkpt><trkpt lat="41.09452946943595" lon="9.242736156717015"><ele>84.6</ele><time>2026-05-02T10:07:14Z</time></trkpt><trkpt lat="41.09434854407305" lon="9.242801664437973"><ele>84.8</ele><time>2026-05-02T10:07:28Z</time></trkpt><trkpt lat="41.09427865276074" lon="9.242834008817697"><ele>85.0</ele><time>2026-05-02T10:07:28.999Z</time></trkpt><trkpt lat="41.0941906611416" lon="9.242880418285436"><ele>85.0</ele><time>2026-05-02T10:07:29.999Z</time></trkpt><trkpt lat="41.09409455233749" lon="9.242940979666106"><ele>85.0</ele><time>2026-05-02T10:07:30.999Z</time></trkpt><trkpt lat="41.093981538331285" lon="9.243023783119472"><ele>85.0</ele><time>2026-05-02T10:07:31.999Z</time></trkpt><trkpt lat="41.0938647047814" lon="9.24311330033756"><ele>85.0</ele><time>2026-05-02T10:07:32.999Z</time></trkpt><trkpt lat="41.09374391408565" lon="9.243207838127418"><ele>84.0</ele><time>2026-05-02T10:07:33.999Z</time></trkpt><trkpt lat="41.093618643951544" lon="9.243309780675864"><ele>83.0</ele><time>2026-05-02T10:07:34.999Z</time></trkpt><trkpt lat="41.093509236075796" lon="9.24339793436725"><ele>82.0</ele><time>2026-05-02T10:07:35.999Z</time></trkpt><trkpt lat="41.09342492708665" lon="9.243459195328304"><ele>81.0</ele><time>2026-05-02T10:07:36.999Z</time></trkpt><trkpt lat="41.09334938186269" lon="9.243497734143636"><ele>81.0</ele><time>2026-05-02T10:07:37.999Z</time></trkpt><trkpt lat="41.09328630730531" lon="9.243482564981084"><ele>81.0</ele><time>2026-05-02T10:07:39Z</time></trkpt><trkpt lat="41.09319859176903" lon="9.243487254925142"><ele>81.0</ele><time>2026-05-02T10:07:40Z</time></trkpt><trkpt lat="41.09309678042976" lon="9.243495790234373"><ele>81.0</ele><time>2026-05-02T10:07:41Z</time></trkpt><trkpt lat="41.09301188629849" lon="9.243554302297666"><ele>81.0</ele><time>2026-05-02T10:07:42Z</time></trkpt><trkpt lat="41.092959711977414" lon="9.243658547510531"><ele>81.0</ele><time>2026-05-02T10:07:43Z</time></trkpt><trkpt lat="41.09293243343655" lon="9.24378873131997"><ele>81.66666666666667</ele><time>2026-05-02T10:07:44Z</time></trkpt><trkpt lat="41.09287693888574" lon="9.243951451764474"><ele>82.33333333333334</ele><time>2026-05-02T10:07:45Z</time></trkpt><trkpt lat="41.092823839933516" lon="9.244142333946098"><ele>83.0</ele><time>2026-05-02T10:07:46Z</time></trkpt><trkpt lat="41.09276195864435" lon="9.244356430597794"><ele>83.0</ele><time>2026-05-02T10:07:47Z</time></trkpt><trkpt lat="41.092695126348765" lon="9.244527879671365"><ele>83.0</ele><time>2026-05-02T10:07:48Z</time></trkpt><trkpt lat="41.092615000204525" lon="9.244688267030226"><ele>83.0</ele><time>2026-05-02T10:07:49Z</time></trkpt><trkpt lat="41.09250689665613" lon="9.24486095345378"><ele>84.0</ele><time>2026-05-02T10:07:50Z</time></trkpt><trkpt lat="41.092390933698375" lon="9.245026647765036"><ele>85.0</ele><time>2026-05-02T10:07:51Z</time></trkpt><trkpt lat="41.09228531035415" lon="9.245156691344485"><ele>86.0</ele><time>2026-05-02T10:07:52Z</time></trkpt><trkpt lat="41.09217445649708" lon="9.24528789818357"><ele>86.0</ele><time>2026-05-02T10:07:53Z</time></trkpt><trkpt lat="41.092066907513605" lon="9.245424960907563"><ele>86.0</ele><time>2026-05-02T10:07:54Z</time></trkpt><trkpt lat="41.09199849571783" lon="9.245543017669258"><ele>86.0</ele><time>2026-05-02T10:07:55Z</time></trkpt><trkpt lat="41.09197730754428" lon="9.24568069950021"><ele>86.0</ele><time>2026-05-02T10:07:56Z</time></trkpt><trkpt lat="41.091940697452756" lon="9.24583170906551"><ele>86.33333333333334</ele><time>2026-05-02T10:07:57Z</time></trkpt><trkpt lat="41.0918906670763" lon="9.246008842344134"><ele>86.66666666666667</ele><time>2026-05-02T10:07:58Z</time></trkpt><trkpt lat="41.09182456747381" lon="9.246192751065132"><ele>87.0</ele><time>2026-05-02T10:07:59Z</time></trkpt><trkpt lat="41.091751591502536" lon="9.24638560696479"><ele>88.33333333333333</ele><time>2026-05-02T10:08:00Z</time></trkpt><trkpt lat="41.09167411137486" lon="9.246591045143148"><ele>89.66666666666666</ele><time>2026-05-02T10:08:01Z</time></trkpt><trkpt lat="41.09158838320508" lon="9.246815483829202"><ele>91.0</ele><time>2026-05-02T10:08:02Z</time></trkpt><trkpt lat="41.09149582579195" lon="9.247025605594564"><ele>93.0</ele><time>2026-05-02T10:08:03Z</time></trkpt><trkpt lat="41.091397108181525" lon="9.247216263812225"><ele>95.0</ele><time>2026-05-02T10:08:04Z</time></trkpt><trkpt lat="41.0913135847789" lon="9.247380706608725"><ele>97.0</ele><time>2026-05-02T10:08:05Z</time></trkpt><trkpt lat="41.09124253928713" lon="9.24755884762157"><ele>97.33333333333334</ele><time>2026-05-02T10:08:06Z</time></trkpt><trkpt lat="41.09120931608625" lon="9.247741849937029"><ele>97.66666666666666</ele><time>2026-05-02T10:08:07Z</time></trkpt><trkpt lat="41.09116830276516" lon="9.247936375339401"><ele>98.0</ele><time>2026-05-02T10:08:08Z</time></trkpt><trkpt lat="41.09111291152097" lon="9.248170640419762"><ele>98.33333333333333</ele><time>2026-05-02T10:08:09Z</time></trkpt><trkpt lat="41.091074054063036" lon="9.248426099133649"><ele>98.66666666666666</ele><time>2026-05-02T10:08:10Z</time></trkpt><trkpt lat="41.091047718833615" lon="9.248633135404756"><ele>99.0</ele><time>2026-05-02T10:08:11Z</time></trkpt><trkpt lat="41.091030567576375" lon="9.248828889480759"><ele>100.0</ele><time>2026-05-02T10:08:12Z</time></trkpt><trkpt lat="41.09100944421346" lon="9.248981141706288"><ele>101.0</ele><time>2026-05-02T10:08:13Z</time></trkpt><trkpt lat="41.09096582068382" lon="9.249121835191671"><ele>102.0</ele><time>2026-05-02T10:08:14Z</time></trkpt><trkpt lat="41.09089987023901" lon="9.249227998240675"><ele>103.0</ele><time>2026-05-02T10:08:15Z</time></trkpt><trkpt lat="41.09082975470115" lon="9.249350056953379"><ele>103.75</ele><time>2026-05-02T10:08:16Z</time></trkpt><trkpt lat="41.09074175520862" lon="9.249498467473204"><ele>104.5</ele><time>2026-05-02T10:08:17Z</time></trkpt><trkpt lat="41.09064658168403" lon="9.249653122332306"><ele>105.25</ele><time>2026-05-02T10:08:18Z</time></trkpt><trkpt lat="41.090564323118905" lon="9.249782872553853"><ele>106.0</ele><time>2026-05-02T10:08:19Z</time></trkpt><trkpt lat="41.09048578170461" lon="9.249885768462484"><ele>106.0</ele><time>2026-05-02T10:08:20Z</time></trkpt><trkpt lat="41.09040552698839" lon="9.24997830369119"><ele>106.0</ele><time>2026-05-02T10:08:21Z</time></trkpt><trkpt lat="41.09030954750855" lon="9.250083206905147"><ele>106.0</ele><time>2026-05-02T10:08:22Z</time></trkpt><trkpt lat="41.09019628490665" lon="9.250206170844955"><ele>106.0</ele><time>2026-05-02T10:08:23Z</time></trkpt><trkpt lat="41.09007995530215" lon="9.250333546144889"><ele>106.0</ele><time>2026-05-02T10:08:24Z</time></trkpt><trkpt lat="41.08995173167037" lon="9.250474534764837"><ele>106.0</ele><time>2026-05-02T10:08:25Z</time></trkpt><trkpt lat="41.08981511800806" lon="9.250622727882389"><ele>106.0</ele><time>2026-05-02T10:08:26Z</time></trkpt><trkpt lat="41.08967164510727" lon="9.25077836168275"><ele>105.0</ele><time>2026-05-02T10:08:27Z</time></trkpt><trkpt lat="41.08954076538515" lon="9.250920334992957"><ele>104.0</ele><time>2026-05-02T10:08:28Z</time></trkpt><trkpt lat="41.08942325122657" lon="9.251045044981453"><ele>103.0</ele><time>2026-05-02T10:08:29Z</time></trkpt><trkpt lat="41.089328900076744" lon="9.25114461414467"><ele>102.0</ele><time>2026-05-02T10:08:30Z</time></trkpt><trkpt lat="41.089260462368465" lon="9.251213493109564"><ele>102.0</ele><time>2026-05-02T10:08:31Z</time></trkpt><trkpt lat="41.0892010898653" lon="9.251263580420575"><ele>102.0</ele><time>2026-05-02T10:08:32Z</time></trkpt><trkpt lat="41.08913765766077" lon="9.251292184032259"><ele>102.0</ele><time>2026-05-02T10:08:33Z</time></trkpt><trkpt lat="41.08903984388172" lon="9.251316863725283"><ele>102.0</ele><time>2026-05-02T10:08:34Z</time></trkpt><trkpt lat="41.08892790408091" lon="9.251307728481155"><ele>102.0</ele><time>2026-05-02T10:08:35Z</time></trkpt><trkpt lat="41.088780761533044" lon="9.251289644245428"><ele>103.0</ele><time>2026-05-02T10:08:36Z</time></trkpt><trkpt lat="41.088609799598146" lon="9.251265345971083"><ele>104.0</ele><time>2026-05-02T10:08:37Z</time></trkpt><trkpt lat="41.088463383787314" lon="9.251285753620547"><ele>105.0</ele><time>2026-05-02T10:08:38Z</time></trkpt><trkpt lat="41.088347767590555" lon="9.251270981879232"><ele>106.0</ele><time>2026-05-02T10:08:39Z</time></trkpt><trkpt lat="41.08824543254103" lon="9.251270981882854"><ele>106.0</ele><time>2026-05-02T10:08:40Z</time></trkpt><trkpt lat="41.0881920182788" lon="9.251220018863592"><ele>106.0</ele><time>2026-05-02T10:08:41Z</time></trkpt><trkpt lat="41.08813769643573" lon="9.251126328733864"><ele>106.0</ele><time>2026-05-02T10:08:42Z</time></trkpt><trkpt lat="41.08805099857042" lon="9.251012012911687"><ele>106.0</ele><time>2026-05-02T10:08:43Z</time></trkpt><trkpt lat="41.08793844078817" lon="9.250923411855027"><ele>106.0</ele><time>2026-05-02T10:08:44Z</time></trkpt><trkpt lat="41.087791458562585" lon="9.250893828844731"><ele>106.0</ele><time>2026-05-02T10:08:45Z</time></trkpt><trkpt lat="41.087619300320576" lon="9.25083780133365"><ele>106.0</ele><time>2026-05-02T10:08:46Z</time></trkpt><trkpt lat="41.08746806911822" lon="9.250770767104097"><ele>106.0</ele><time>2026-05-02T10:08:47Z</time></trkpt><trkpt lat="41.08730659832145" lon="9.250686571957091"><ele>109.66666666666667</ele><time>2026-05-02T10:08:48Z</time></trkpt><trkpt lat="41.08712460178878" lon="9.250601961619964"><ele>113.33333333333334</ele><time>2026-05-02T10:08:49Z</time></trkpt><trkpt lat="41.086942146707884" lon="9.250499606004094"><ele>117.0</ele><time>2026-05-02T10:08:50Z</time></trkpt><trkpt lat="41.086799759903876" lon="9.250413156493764"><ele>117.0</ele><time>2026-05-02T10:08:51Z</time></trkpt><trkpt lat="41.086659270845956" lon="9.250340895932474"><ele>117.0</ele><time>2026-05-02T10:08:52Z</time></trkpt><trkpt lat="41.086523922160474" lon="9.250303169561604"><ele>117.0</ele><time>2026-05-02T10:08:53Z</time></trkpt><trkpt lat="41.086377185829534" lon="9.250316070678297"><ele>117.0</ele><time>2026-05-02T10:08:54Z</time></trkpt><trkpt lat="41.086247938944254" lon="9.250320045014718"><ele>116.75</ele><time>2026-05-02T10:08:55Z</time></trkpt><trkpt lat="41.08613149224349" lon="9.250282474325239"><ele>116.5</ele><time>2026-05-02T10:08:56Z</time></trkpt><trkpt lat="41.08601343793419" lon="9.250212281529096"><ele>116.25</ele><time>2026-05-02T10:08:57Z</time></trkpt><trkpt lat="41.08588451185181" lon="9.250102066801547"><ele>116.0</ele><time>2026-05-02T10:08:58Z</time></trkpt><trkpt lat="41.085777139955546" lon="9.250015177634719"><ele>116.4</ele><time>2026-05-02T10:08:59Z</time></trkpt><trkpt lat="41.08567949639689" lon="9.249974801243939"><ele>116.8</ele><time>2026-05-02T10:09:00Z</time></trkpt><trkpt lat="41.08559405442414" lon="9.249973355522467"><ele>117.20000000000002</ele><time>2026-05-02T10:09:01Z</time></trkpt><trkpt lat="41.08548597570704" lon="9.25007815868522"><ele>117.60000000000001</ele><time>2026-05-02T10:09:02Z</time></trkpt><trkpt lat="41.08537219954361" lon="9.250140595940776"><ele>118.0</ele><time>2026-05-02T10:09:03Z</time></trkpt><trkpt lat="41.08525723377537" lon="9.250191935180974"><ele>118.00000000000001</ele><time>2026-05-02T10:09:04Z</time></trkpt><trkpt lat="41.08515455429726" lon="9.250193977792122"><ele>118.0</ele><time>2026-05-02T10:09:05Z</time></trkpt><trkpt lat="41.08509435484916" lon="9.25016330136571"><ele>118.0</ele><time>2026-05-02T10:09:06Z</time></trkpt><trkpt lat="41.08503367286265" lon="9.250114708898286"><ele>118.0</ele><time>2026-05-02T10:09:07Z</time></trkpt><trkpt lat="41.084975642167485" lon="9.250050615490455"><ele>118.00000000000001</ele><time>2026-05-02T10:09:08Z</time></trkpt><trkpt lat="41.08490190957388" lon="9.249968539305266"><ele>118.0</ele><time>2026-05-02T10:09:09Z</time></trkpt><trkpt lat="41.08481606361875" lon="9.249864719056133"><ele>119.66666666666667</ele><time>2026-05-02T10:09:10Z</time></trkpt><trkpt lat="41.08471412548118" lon="9.24974358301965"><ele>121.33333333333334</ele><time>2026-05-02T10:09:11Z</time></trkpt><trkpt lat="41.0845810569809" lon="9.249635907265429"><ele>123.0</ele><time>2026-05-02T10:09:12Z</time></trkpt><trkpt lat="41.084444313556965" lon="9.249512499088889"><ele>123.0</ele><time>2026-05-02T10:09:13Z</time></trkpt><trkpt lat="41.08428048739061" lon="9.2494113778031"><ele>123.0</ele><time>2026-05-02T10:09:14Z</time></trkpt><trkpt lat="41.08413686153695" lon="9.24932180187437"><ele>123.0</ele><time>2026-05-02T10:09:15Z</time></trkpt><trkpt lat="41.08401966730162" lon="9.249228466347233"><ele>122.25</ele><time>2026-05-02T10:09:16Z</time></trkpt><trkpt lat="41.08389692893314" lon="9.249097094964602"><ele>121.5</ele><time>2026-05-02T10:09:17Z</time></trkpt><trkpt lat="41.08376637137496" lon="9.249015176639263"><ele>120.75</ele><time>2026-05-02T10:09:18Z</time></trkpt><trkpt lat="41.08364335994739" lon="9.248968500984917"><ele>120.0</ele><time>2026-05-02T10:09:19Z</time></trkpt><trkpt lat="41.083523539669095" lon="9.248972887245802"><ele>120.0</ele><time>2026-05-02T10:09:20Z</time></trkpt><trkpt lat="41.08338657413098" lon="9.248984921021375"><ele>120.0</ele><time>2026-05-02T10:09:21Z</time></trkpt><trkpt lat="41.08321388629493" lon="9.248986593632063"><ele>120.0</ele><time>2026-05-02T10:09:22Z</time></trkpt><trkpt lat="41.08302950713621" lon="9.249008767324007"><ele>121.33333333333334</ele><time>2026-05-02T10:09:23Z</time></trkpt><trkpt lat="41.082829972324205" lon="9.24903022011885"><ele>122.66666666666667</ele><time>2026-05-02T10:09:24Z</time></trkpt><trkpt lat="41.08267441179082" lon="9.249049656569449"><ele>124.0</ele><time>2026-05-02T10:09:25Z</time></trkpt><trkpt lat="41.08257131222056" lon="9.249059594256938"><ele>124.0</ele><time>2026-05-02T10:09:26Z</time></trkpt><trkpt lat="41.0824768836126" lon="9.249054015472376"><ele>124.0</ele><time>2026-05-02T10:09:27Z</time></trkpt><trkpt lat="41.0823432403527" lon="9.249020568647486"><ele>124.0</ele><time>2026-05-02T10:09:28Z</time></trkpt><trkpt lat="41.08221999679931" lon="9.24893719449363"><ele>124.0</ele><time>2026-05-02T10:09:29Z</time></trkpt><trkpt lat="41.08208272714231" lon="9.248821892782269"><ele>123.0</ele><time>2026-05-02T10:09:30Z</time></trkpt><trkpt lat="41.08192445306196" lon="9.24865333790493"><ele>122.0</ele><time>2026-05-02T10:09:31Z</time></trkpt><trkpt lat="41.081760606885055" lon="9.248465612014344"><ele>121.0</ele><time>2026-05-02T10:09:32Z</time></trkpt><trkpt lat="41.0816260330738" lon="9.248300532748244"><ele>120.33333333333334</ele><time>2026-05-02T10:09:33Z</time></trkpt><trkpt lat="41.08151106388208" lon="9.248159828028731"><ele>119.66666666666666</ele><time>2026-05-02T10:09:34Z</time></trkpt><trkpt lat="41.08138706480052" lon="9.248024368509043"><ele>119.0</ele><time>2026-05-02T10:09:35Z</time></trkpt><trkpt lat="41.08124090020949" lon="9.247886644700653"><ele>119.0</ele><time>2026-05-02T10:09:36Z</time></trkpt><trkpt lat="41.08107339242991" lon="9.247769217181531"><ele>119.0</ele><time>2026-05-02T10:09:37Z</time></trkpt><trkpt lat="41.08092750686236" lon="9.247625238336207"><ele>119.0</ele><time>2026-05-02T10:09:38Z</time></trkpt><trkpt lat="41.08079736444028" lon="9.247523412008404"><ele>119.4</ele><time>2026-05-02T10:09:39Z</time></trkpt><trkpt lat="41.08069881292802" lon="9.24745386812999"><ele>119.80000000000001</ele><time>2026-05-02T10:09:40Z</time></trkpt><trkpt lat="41.08060518990749" lon="9.247418952198005"><ele>120.19999999999999</ele><time>2026-05-02T10:09:41Z</time></trkpt><trkpt lat="41.080508271024705" lon="9.247411355165434"><ele>120.6</ele><time>2026-05-02T10:09:42Z</time></trkpt><trkpt lat="41.08037207924503" lon="9.247429132377171"><ele>121.0</ele><time>2026-05-02T10:09:43Z</time></trkpt><trkpt lat="41.080214863360595" lon="9.247438104011707"><ele>121.0</ele><time>2026-05-02T10:09:44Z</time></trkpt><trkpt lat="41.08004055452916" lon="9.247444385202053"><ele>121.0</ele><time>2026-05-02T10:09:45Z</time></trkpt><trkpt lat="41.079866965203266" lon="9.24742896734416"><ele>121.0</ele><time>2026-05-02T10:09:46Z</time></trkpt><trkpt lat="41.07969438751633" lon="9.24739207850819"><ele>122.0</ele><time>2026-05-02T10:09:47Z</time></trkpt><trkpt lat="41.07951607211707" lon="9.247345103177429"><ele>123.0</ele><time>2026-05-02T10:09:48Z</time></trkpt><trkpt lat="41.079359675441275" lon="9.247291060884164"><ele>124.0</ele><time>2026-05-02T10:09:49Z</time></trkpt><trkpt lat="41.07925436142812" lon="9.24724477248585"><ele>124.80000000000001</ele><time>2026-05-02T10:09:50Z</time></trkpt><trkpt lat="41.079159223117856" lon="9.24720398710646"><ele>125.60000000000001</ele><time>2026-05-02T10:09:51Z</time></trkpt><trkpt lat="41.079077802616936" lon="9.24717838620569"><ele>126.4</ele><time>2026-05-02T10:09:52Z</time></trkpt><trkpt lat="41.07899439337588" lon="9.247157629747258"><ele>127.2</ele><time>2026-05-02T10:09:53Z</time></trkpt><trkpt lat="41.07889403626987" lon="9.247138096879835"><ele>128.0</ele><time>2026-05-02T10:09:54Z</time></trkpt><trkpt lat="41.078794592697626" lon="9.247122048177845"><ele>128.0</ele><time>2026-05-02T10:09:55Z</time></trkpt><trkpt lat="41.078696984537615" lon="9.247108089275477"><ele>128.0</ele><time>2026-05-02T10:09:56Z</time></trkpt><trkpt lat="41.07860188645891" lon="9.247094489338867"><ele>128.0</ele><time>2026-05-02T10:09:57Z</time></trkpt><trkpt lat="41.07851128363686" lon="9.247079386354203"><ele>128.0</ele><time>2026-05-02T10:09:58Z</time></trkpt><trkpt lat="41.07839880734589" lon="9.247057214864869"><ele>128.0</ele><time>2026-05-02T10:09:59Z</time></trkpt><trkpt lat="41.07827198936429" lon="9.247023485668215"><ele>127.5</ele><time>2026-05-02T10:10:00Z</time></trkpt><trkpt lat="41.07814787929169" lon="9.246982628218905"><ele>127.0</ele><time>2026-05-02T10:10:01Z</time></trkpt><trkpt lat="41.078037796532165" lon="9.246942009609906"><ele>126.5</ele><time>2026-05-02T10:10:02Z</time></trkpt><trkpt lat="41.077922788382345" lon="9.246897474382015"><ele>126.0</ele><time>2026-05-02T10:10:03Z</time></trkpt><trkpt lat="41.0777965773286" lon="9.246847427631804"><ele>126.0</ele><time>2026-05-02T10:10:04Z</time></trkpt><trkpt lat="41.07766301753412" lon="9.246793059741474"><ele>126.0</ele><time>2026-05-02T10:10:05Z</time></trkpt><trkpt lat="41.07752521040422" lon="9.246735841759849"><ele>126.0</ele><time>2026-05-02T10:10:06Z</time></trkpt><trkpt lat="41.077384657199204" lon="9.246677483588064"><ele>126.0</ele><time>2026-05-02T10:10:07Z</time></trkpt><trkpt lat="41.07724314827654" lon="9.246620433980645"><ele>126.25</ele><time>2026-05-02T10:10:08Z</time></trkpt><trkpt lat="41.0771048161596" lon="9.24656677890682"><ele>126.5</ele><time>2026-05-02T10:10:09Z</time></trkpt><trkpt lat="41.07699295422565" lon="9.246519306410926"><ele>126.75</ele><time>2026-05-02T10:10:10Z</time></trkpt><trkpt lat="41.07690132420748" lon="9.24646614323861"><ele>127.0</ele><time>2026-05-02T10:10:11Z</time></trkpt><trkpt lat="41.076818190099864" lon="9.246406502512654"><ele>127.66666666666667</ele><time>2026-05-02T10:10:12Z</time></trkpt><trkpt lat="41.07675296873451" lon="9.246348912613655"><ele>128.33333333333334</ele><time>2026-05-02T10:10:13Z</time></trkpt><trkpt lat="41.07669136555875" lon="9.246289837033604"><ele>129.0</ele><time>2026-05-02T10:10:14Z</time></trkpt><trkpt lat="41.07663616197959" lon="9.246236526847056"><ele>129.66666666666666</ele><time>2026-05-02T10:10:15Z</time></trkpt><trkpt lat="41.07658430847393" lon="9.246186174588525"><ele>130.33333333333331</ele><time>2026-05-02T10:10:16Z</time></trkpt><trkpt lat="41.076531072657225" lon="9.24613753257441"><ele>131.0</ele><time>2026-05-02T10:10:17Z</time></trkpt><trkpt lat="41.07641759019815" lon="9.246069901430218"><ele>131.0</ele><time>2026-05-02T10:10:19Z</time></trkpt><trkpt lat="41.0763258177225" lon="9.24598427018439"><ele>131.0</ele><time>2026-05-02T10:10:21Z</time></trkpt><trkpt lat="41.07622938323432" lon="9.245933076963201"><ele>131.0</ele><time>2026-05-02T10:10:23Z</time></trkpt><trkpt lat="41.0761052521723" lon="9.245896436586271"><ele>131.0</ele><time>2026-05-02T10:10:25Z</time></trkpt><trkpt lat="41.076034654257235" lon="9.245895185233978"><ele>131.0</ele><time>2026-05-02T10:10:26Z</time></trkpt><trkpt lat="41.075968676105944" lon="9.245898092687106"><ele>131.0</ele><time>2026-05-02T10:10:27Z</time></trkpt><trkpt lat="41.075902850997494" lon="9.245902955220975"><ele>131.0</ele><time>2026-05-02T10:10:28Z</time></trkpt><trkpt lat="41.0758373367277" lon="9.245907456372537"><ele>131.0</ele><time>2026-05-02T10:10:29Z</time></trkpt><trkpt lat="41.075763006179194" lon="9.245909202379561"><ele>131.0</ele><time>2026-05-02T10:10:30.001Z</time></trkpt><trkpt lat="41.075625641530145" lon="9.245900493313849"><ele>131.0</ele><time>2026-05-02T10:10:32.001Z</time></trkpt><trkpt lat="41.07554944115948" lon="9.245851995887994"><ele>131.0</ele><time>2026-05-02T10:10:33.001Z</time></trkpt><trkpt lat="41.07546356161349" lon="9.245805239923053"><ele>130.8</ele><time>2026-05-02T10:10:34.001Z</time></trkpt><trkpt lat="41.07536464509844" lon="9.245766729469416"><ele>130.6</ele><time>2026-05-02T10:10:35.001Z</time></trkpt><trkpt lat="41.07525972393059" lon="9.245729032534832"><ele>130.4</ele><time>2026-05-02T10:10:36.001Z</time></trkpt><trkpt lat="41.07515619430796" lon="9.245650156331987"><ele>130.2</ele><time>2026-05-02T10:10:37.001Z</time></trkpt><trkpt lat="41.07505101631528" lon="9.245589798179582"><ele>130.0</ele><time>2026-05-02T10:10:38.001Z</time></trkpt><trkpt lat="41.07495550611892" lon="9.245534610115982"><ele>130.25</ele><time>2026-05-02T10:10:39.001Z</time></trkpt><trkpt lat="41.07485364185261" lon="9.245484790124932"><ele>130.5</ele><time>2026-05-02T10:10:40.001Z</time></trkpt><trkpt lat="41.07473875397646" lon="9.245425109957292"><ele>130.75</ele><time>2026-05-02T10:10:41.001Z</time></trkpt><trkpt lat="41.07462723246158" lon="9.245357213524729"><ele>131.0</ele><time>2026-05-02T10:10:42.001Z</time></trkpt><trkpt lat="41.07452555697521" lon="9.24526914194021"><ele>131.0</ele><time>2026-05-02T10:10:43.001Z</time></trkpt><trkpt lat="41.07441494339771" lon="9.245196215978957"><ele>131.0</ele><time>2026-05-02T10:10:44.001Z</time></trkpt><trkpt lat="41.07429454167187" lon="9.245116800602622"><ele>131.0</ele><time>2026-05-02T10:10:45.001Z</time></trkpt><trkpt lat="41.07416835671352" lon="9.245055023882118"><ele>131.0</ele><time>2026-05-02T10:10:46.001Z</time></trkpt><trkpt lat="41.074056401018794" lon="9.244973515148807"><ele>131.25</ele><time>2026-05-02T10:10:47.001Z</time></trkpt><trkpt lat="41.07394439762968" lon="9.24488231007591"><ele>131.5</ele><time>2026-05-02T10:10:48.001Z</time></trkpt><trkpt lat="41.07381566014014" lon="9.244796092974514"><ele>131.75</ele><time>2026-05-02T10:10:49.001Z</time></trkpt><trkpt lat="41.07368471593752" lon="9.244708179900817"><ele>132.0</ele><time>2026-05-02T10:10:50.001Z</time></trkpt><trkpt lat="41.07355249577882" lon="9.244621427228862"><ele>132.0</ele><time>2026-05-02T10:10:51.001Z</time></trkpt><trkpt lat="41.07341812403251" lon="9.244533854520128"><ele>132.0</ele><time>2026-05-02T10:10:52.001Z</time></trkpt><trkpt lat="41.07328426713596" lon="9.244448726423604"><ele>132.0</ele><time>2026-05-02T10:10:53.001Z</time></trkpt><trkpt lat="41.07315388739243" lon="9.244365809685261"><ele>132.0</ele><time>2026-05-02T10:10:54.001Z</time></trkpt><trkpt lat="41.073026369084474" lon="9.244286878879132"><ele>132.66666666666666</ele><time>2026-05-02T10:10:55.001Z</time></trkpt><trkpt lat="41.07289223028289" lon="9.244220612660007"><ele>133.33333333333331</ele><time>2026-05-02T10:10:56.001Z</time></trkpt><trkpt lat="41.07274407774166" lon="9.244115880970954"><ele>134.0</ele><time>2026-05-02T10:10:57.001Z</time></trkpt><trkpt lat="41.0726056301782" lon="9.244036028585732"><ele>134.0</ele><time>2026-05-02T10:10:58.001Z</time></trkpt><trkpt lat="41.07247634936085" lon="9.243962726276933"><ele>134.0</ele><time>2026-05-02T10:10:59.001Z</time></trkpt><trkpt lat="41.07235389567136" lon="9.243893296314013"><ele>134.0</ele><time>2026-05-02T10:11:00.001Z</time></trkpt><trkpt lat="41.07224248508864" lon="9.243830127679578"><ele>134.0</ele><time>2026-05-02T10:11:01.001Z</time></trkpt><trkpt lat="41.072110969005514" lon="9.243817174488283"><ele>133.5</ele><time>2026-05-02T10:11:02.001Z</time></trkpt><trkpt lat="41.07199086807089" lon="9.243759550597018"><ele>133.0</ele><time>2026-05-02T10:11:03.001Z</time></trkpt><trkpt lat="41.07186490068009" lon="9.243696640746462"><ele>132.5</ele><time>2026-05-02T10:11:04.001Z</time></trkpt><trkpt lat="41.07174698851739" lon="9.243634522107135"><ele>132.0</ele><time>2026-05-02T10:11:05.001Z</time></trkpt><trkpt lat="41.07162671304327" lon="9.243575263988758"><ele>133.75</ele><time>2026-05-02T10:11:06.001Z</time></trkpt><trkpt lat="41.0714996765377" lon="9.243527352576802"><ele>135.5</ele><time>2026-05-02T10:11:07.001Z</time></trkpt><trkpt lat="41.07138240911078" lon="9.243488297872636"><ele>137.25</ele><time>2026-05-02T10:11:08.001Z</time></trkpt><trkpt lat="41.07128485423152" lon="9.243464559023991"><ele>139.0</ele><time>2026-05-02T10:11:09.001Z</time></trkpt><trkpt lat="41.07118571483998" lon="9.243431576283985"><ele>139.0</ele><time>2026-05-02T10:11:10.001Z</time></trkpt><trkpt lat="41.071087407129376" lon="9.243369718215703"><ele>139.0</ele><time>2026-05-02T10:11:11.001Z</time></trkpt><trkpt lat="41.07098963539428" lon="9.243289053705691"><ele>139.0</ele><time>2026-05-02T10:11:12.001Z</time></trkpt><trkpt lat="41.07088630894278" lon="9.243196164609456"><ele>139.0</ele><time>2026-05-02T10:11:13.001Z</time></trkpt><trkpt lat="41.07079024894728" lon="9.243109305014475"><ele>138.6</ele><time>2026-05-02T10:11:14.001Z</time></trkpt><trkpt lat="41.07069430056593" lon="9.243035556773155"><ele>138.2</ele><time>2026-05-02T10:11:15.001Z</time></trkpt><trkpt lat="41.070590718700615" lon="9.242983875139426"><ele>137.79999999999998</ele><time>2026-05-02T10:11:16.001Z</time></trkpt><trkpt lat="41.07048016874513" lon="9.242958010242448"><ele>137.4</ele><time>2026-05-02T10:11:17.001Z</time></trkpt><trkpt lat="41.070364776990914" lon="9.242963294181171"><ele>137.0</ele><time>2026-05-02T10:11:18.001Z</time></trkpt><trkpt lat="41.07024800099858" lon="9.242973629896143"><ele>137.0</ele><time>2026-05-02T10:11:19.001Z</time></trkpt><trkpt lat="41.070131931760514" lon="9.242993171043848"><ele>137.0</ele><time>2026-05-02T10:11:20.001Z</time></trkpt><trkpt lat="41.07003720275207" lon="9.243013306415085"><ele>137.0</ele><time>2026-05-02T10:11:21.001Z</time></trkpt><trkpt lat="41.069973236577475" lon="9.243009057736552"><ele>137.0</ele><time>2026-05-02T10:11:22.001Z</time></trkpt><trkpt lat="41.06987247842975" lon="9.242993488451404"><ele>137.0</ele><time>2026-05-02T10:11:23.001Z</time></trkpt><trkpt lat="41.069769810569106" lon="9.242942990535962"><ele>137.25</ele><time>2026-05-02T10:11:24.001Z</time></trkpt><trkpt lat="41.06966964884316" lon="9.242862261683776"><ele>137.5</ele><time>2026-05-02T10:11:25.001Z</time></trkpt><trkpt lat="41.06955302278879" lon="9.242776863405641"><ele>137.75</ele><time>2026-05-02T10:11:26.001Z</time></trkpt><trkpt lat="41.06941246900519" lon="9.242703030396763"><ele>138.0</ele><time>2026-05-02T10:11:27.001Z</time></trkpt><trkpt lat="41.06925235163634" lon="9.242634479074969"><ele>140.33333333333334</ele><time>2026-05-02T10:11:28.001Z</time></trkpt><trkpt lat="41.06909857606199" lon="9.24255822744202"><ele>142.66666666666669</ele><time>2026-05-02T10:11:29.001Z</time></trkpt><trkpt lat="41.068915693288716" lon="9.242502615741516"><ele>145.0</ele><time>2026-05-02T10:11:30.001Z</time></trkpt><trkpt lat="41.0687183034969" lon="9.242430851115081"><ele>145.0</ele><time>2026-05-02T10:11:31.001Z</time></trkpt><trkpt lat="41.068542335604036" lon="9.242358537285774"><ele>145.0</ele><time>2026-05-02T10:11:32.001Z</time></trkpt><trkpt lat="41.068409363855324" lon="9.242298543098817"><ele>145.0</ele><time>2026-05-02T10:11:33.001Z</time></trkpt><trkpt lat="41.06830157192323" lon="9.24224787095368"><ele>145.0</ele><time>2026-05-02T10:11:34.001Z</time></trkpt><trkpt lat="41.06819591200155" lon="9.242227622437145"><ele>144.75</ele><time>2026-05-02T10:11:35.001Z</time></trkpt><trkpt lat="41.0680670324033" lon="9.242228120080554"><ele>144.5</ele><time>2026-05-02T10:11:36.001Z</time></trkpt><trkpt lat="41.067919737646335" lon="9.242278643699176"><ele>144.25</ele><time>2026-05-02T10:11:37.001Z</time></trkpt><trkpt lat="41.06779576934849" lon="9.242315706514944"><ele>144.0</ele><time>2026-05-02T10:11:38.001Z</time></trkpt><trkpt lat="41.06770540505633" lon="9.242311897121215"><ele>144.0</ele><time>2026-05-02T10:11:39.001Z</time></trkpt><trkpt lat="41.06759548152916" lon="9.242258217495273"><ele>144.0</ele><time>2026-05-02T10:11:40.001Z</time></trkpt><trkpt lat="41.0674746406774" lon="9.242181451926333"><ele>144.0</ele><time>2026-05-02T10:11:41.001Z</time></trkpt><trkpt lat="41.06733602809518" lon="9.24208040082717"><ele>144.0</ele><time>2026-05-02T10:11:42.001Z</time></trkpt><trkpt lat="41.06718629103481" lon="9.2419554460666"><ele>144.5</ele><time>2026-05-02T10:11:43.001Z</time></trkpt><trkpt lat="41.06708002523812" lon="9.241856656175521"><ele>145.0</ele><time>2026-05-02T10:11:44.001Z</time></trkpt><trkpt lat="41.0669770062956" lon="9.241765352254893"><ele>145.5</ele><time>2026-05-02T10:11:45.001Z</time></trkpt><trkpt lat="41.06690087250263" lon="9.241681345974916"><ele>146.0</ele><time>2026-05-02T10:11:46.001Z</time></trkpt><trkpt lat="41.06680488888886" lon="9.241641863190768"><ele>146.0</ele><time>2026-05-02T10:11:47.001Z</time></trkpt><trkpt lat="41.06667778159798" lon="9.241650535682757"><ele>146.0</ele><time>2026-05-02T10:11:48.001Z</time></trkpt><trkpt lat="41.0665409415763" lon="9.241640230255966"><ele>146.0</ele><time>2026-05-02T10:11:49.001Z</time></trkpt><trkpt lat="41.06641999307745" lon="9.241574905067464"><ele>146.0</ele><time>2026-05-02T10:11:50.001Z</time></trkpt><trkpt lat="41.06630979141796" lon="9.241470865685839"><ele>146.33333333333331</ele><time>2026-05-02T10:11:51.001Z</time></trkpt><trkpt lat="41.06621753635569" lon="9.241324023597334"><ele>146.66666666666666</ele><time>2026-05-02T10:11:52.001Z</time></trkpt><trkpt lat="41.06612859756168" lon="9.24114505348998"><ele>147.0</ele><time>2026-05-02T10:11:53.001Z</time></trkpt><trkpt lat="41.06602398494896" lon="9.240923531365002"><ele>147.0</ele><time>2026-05-02T10:11:54.001Z</time></trkpt><trkpt lat="41.06593313936006" lon="9.24074559074865"><ele>147.0</ele><time>2026-05-02T10:11:55.001Z</time></trkpt><trkpt lat="41.06584829648459" lon="9.240608501121729"><ele>147.0</ele><time>2026-05-02T10:11:56.001Z</time></trkpt><trkpt lat="41.065747884631286" lon="9.240510531799883"><ele>147.0</ele><time>2026-05-02T10:11:57.001Z</time></trkpt><trkpt lat="41.065622696459364" lon="9.24043968319546"><ele>150.0</ele><time>2026-05-02T10:11:58.001Z</time></trkpt><trkpt lat="41.06546322785381" lon="9.240367866202432"><ele>153.0</ele><time>2026-05-02T10:11:59.001Z</time></trkpt><trkpt lat="41.06529349405835" lon="9.240292939076797"><ele>156.0</ele><time>2026-05-02T10:12:00.001Z</time></trkpt><trkpt lat="41.065113997069744" lon="9.240186690417216"><ele>156.0</ele><time>2026-05-02T10:12:01.001Z</time></trkpt><trkpt lat="41.064949582627634" lon="9.240079147931029"><ele>156.0</ele><time>2026-05-02T10:12:02.001Z</time></trkpt><trkpt lat="41.06481247717236" lon="9.239960226091096"><ele>156.0</ele><time>2026-05-02T10:12:03.001Z</time></trkpt><trkpt lat="41.064658669806605" lon="9.239806742462838"><ele>156.66666666666666</ele><time>2026-05-02T10:12:04.001Z</time></trkpt><trkpt lat="41.06448783299903" lon="9.239637974226518"><ele>157.33333333333331</ele><time>2026-05-02T10:12:05.001Z</time></trkpt><trkpt lat="41.064305083050954" lon="9.239480996214722"><ele>158.0</ele><time>2026-05-02T10:12:06.001Z</time></trkpt><trkpt lat="41.064153179889125" lon="9.239369554074754"><ele>157.75</ele><time>2026-05-02T10:12:07.001Z</time></trkpt><trkpt lat="41.0640257744534" lon="9.239289389978898"><ele>157.5</ele><time>2026-05-02T10:12:08.001Z</time></trkpt><trkpt lat="41.063904954217065" lon="9.239239041277187"><ele>157.25</ele><time>2026-05-02T10:12:09.001Z</time></trkpt><trkpt lat="41.06378060623152" lon="9.23922843991085"><ele>157.0</ele><time>2026-05-02T10:12:10.001Z</time></trkpt><trkpt lat="41.06364948612874" lon="9.239260663791127"><ele>157.0</ele><time>2026-05-02T10:12:11.001Z</time></trkpt><trkpt lat="41.06351784129205" lon="9.239335163305798"><ele>157.0</ele><time>2026-05-02T10:12:12.001Z</time></trkpt><trkpt lat="41.06338448541209" lon="9.239438862272507"><ele>157.0</ele><time>2026-05-02T10:12:13.001Z</time></trkpt><trkpt lat="41.06327604347702" lon="9.239520033601725"><ele>157.0</ele><time>2026-05-02T10:12:14.001Z</time></trkpt><trkpt lat="41.06318756867077" lon="9.239562627746684"><ele>157.25</ele><time>2026-05-02T10:12:15.001Z</time></trkpt><trkpt lat="41.06309508607742" lon="9.239556494170241"><ele>157.5</ele><time>2026-05-02T10:12:16.001Z</time></trkpt><trkpt lat="41.06298457930017" lon="9.239509081954067"><ele>157.75</ele><time>2026-05-02T10:12:17.001Z</time></trkpt><trkpt lat="41.062862580921404" lon="9.2394180474004"><ele>158.0</ele><time>2026-05-02T10:12:18.001Z</time></trkpt><trkpt lat="41.06273045156255" lon="9.239324625677177"><ele>158.0</ele><time>2026-05-02T10:12:19.001Z</time></trkpt><trkpt lat="41.06259209980745" lon="9.239244717051816"><ele>158.0</ele><time>2026-05-02T10:12:20.001Z</time></trkpt><trkpt lat="41.06244553156237" lon="9.239184125958912"><ele>158.0</ele><time>2026-05-02T10:12:21.001Z</time></trkpt><trkpt lat="41.06230506014093" lon="9.239178988482422"><ele>158.0</ele><time>2026-05-02T10:12:22.001Z</time></trkpt><trkpt lat="41.06217099203596" lon="9.239235095936808"><ele>159.5</ele><time>2026-05-02T10:12:23.001Z</time></trkpt><trkpt lat="41.0620282423252" lon="9.239335885777464"><ele>161.0</ele><time>2026-05-02T10:12:24.001Z</time></trkpt><trkpt lat="41.06189806097391" lon="9.239379475261561"><ele>162.5</ele><time>2026-05-02T10:12:25.001Z</time></trkpt><trkpt lat="41.06177630324976" lon="9.239388987376094"><ele>164.0</ele><time>2026-05-02T10:12:26.001Z</time></trkpt><trkpt lat="41.06163618559211" lon="9.239352033962284"><ele>165.25</ele><time>2026-05-02T10:12:27.001Z</time></trkpt><trkpt lat="41.061509755423565" lon="9.239302004454824"><ele>166.5</ele><time>2026-05-02T10:12:28.001Z</time></trkpt><trkpt lat="41.061385200557766" lon="9.239210770386274"><ele>167.75</ele><time>2026-05-02T10:12:29.001Z</time></trkpt><trkpt lat="41.06126616888012" lon="9.239077481402248"><ele>169.0</ele><time>2026-05-02T10:12:30.001Z</time></trkpt><trkpt lat="41.061146560846005" lon="9.238927886068794"><ele>169.0</ele><time>2026-05-02T10:12:31.001Z</time></trkpt><trkpt lat="41.0609998720966" lon="9.238824697466102"><ele>169.0</ele><time>2026-05-02T10:12:32.001Z</time></trkpt><trkpt lat="41.060844314804804" lon="9.238736147150108"><ele>169.0</ele><time>2026-05-02T10:12:33.001Z</time></trkpt><trkpt lat="41.060692227516626" lon="9.23862647152108"><ele>171.0</ele><time>2026-05-02T10:12:34.001Z</time></trkpt><trkpt lat="41.06054782728752" lon="9.238521982940398"><ele>173.0</ele><time>2026-05-02T10:12:35.001Z</time></trkpt><trkpt lat="41.060411055176466" lon="9.238427317499465"><ele>175.0</ele><time>2026-05-02T10:12:36.001Z</time></trkpt><trkpt lat="41.06028676580085" lon="9.238327942480483"><ele>175.0</ele><time>2026-05-02T10:12:37.001Z</time></trkpt><trkpt lat="41.0601884851089" lon="9.238206892295795"><ele>175.0</ele><time>2026-05-02T10:12:38.001Z</time></trkpt><trkpt lat="41.060105223429744" lon="9.23805996398988"><ele>175.0</ele><time>2026-05-02T10:12:39.001Z</time></trkpt><trkpt lat="41.060025226376105" lon="9.23789225399066"><ele>175.0</ele><time>2026-05-02T10:12:40.001Z</time></trkpt><trkpt lat="41.05993002587913" lon="9.237756979246095"><ele>177.4</ele><time>2026-05-02T10:12:41.001Z</time></trkpt><trkpt lat="41.05982176159916" lon="9.237701262694392"><ele>179.8</ele><time>2026-05-02T10:12:42.001Z</time></trkpt><trkpt lat="41.05971220744571" lon="9.237677818580195"><ele>182.2</ele><time>2026-05-02T10:12:43.001Z</time></trkpt><trkpt lat="41.059604383766946" lon="9.237667923007516"><ele>184.6</ele><time>2026-05-02T10:12:44.001Z</time></trkpt><trkpt lat="41.05949837217849" lon="9.237658604281592"><ele>187.0</ele><time>2026-05-02T10:12:45.001Z</time></trkpt><trkpt lat="41.05940130403564" lon="9.237620450123769"><ele>187.0</ele><time>2026-05-02T10:12:46.001Z</time></trkpt><trkpt lat="41.059323812357135" lon="9.237543522314581"><ele>187.0</ele><time>2026-05-02T10:12:47.001Z</time></trkpt><trkpt lat="41.059256267908225" lon="9.237427309416635"><ele>187.0</ele><time>2026-05-02T10:12:48.001Z</time></trkpt><trkpt lat="41.05918343604956" lon="9.237312313067267"><ele>187.0</ele><time>2026-05-02T10:12:49.001Z</time></trkpt><trkpt lat="41.059079852085716" lon="9.237256915664245"><ele>187.0</ele><time>2026-05-02T10:12:50.001Z</time></trkpt><trkpt lat="41.05895993346144" lon="9.237254623832053"><ele>191.0</ele><time>2026-05-02T10:12:51.001Z</time></trkpt><trkpt lat="41.0588403707034" lon="9.237261861669763"><ele>195.0</ele><time>2026-05-02T10:12:52.001Z</time></trkpt><trkpt lat="41.05872904200633" lon="9.237252583090834"><ele>199.0</ele><time>2026-05-02T10:12:53.001Z</time></trkpt><trkpt lat="41.05861609676023" lon="9.237229189943884"><ele>203.0</ele><time>2026-05-02T10:12:54.001Z</time></trkpt><trkpt lat="41.058504834663516" lon="9.237222351160524"><ele>203.0</ele><time>2026-05-02T10:12:55.001Z</time></trkpt><trkpt lat="41.058391254943956" lon="9.237220650700682"><ele>203.0</ele><time>2026-05-02T10:12:56.001Z</time></trkpt><trkpt lat="41.058274615842016" lon="9.237214848556954"><ele>203.0</ele><time>2026-05-02T10:12:57.001Z</time></trkpt><trkpt lat="41.05816171228317" lon="9.23720802316502"><ele>203.0</ele><time>2026-05-02T10:12:58.001Z</time></trkpt><trkpt lat="41.05805352608202" lon="9.237205120325445"><ele>203.4</ele><time>2026-05-02T10:12:59.001Z</time></trkpt><trkpt lat="41.05794931105182" lon="9.237187468783082"><ele>203.8</ele><time>2026-05-02T10:13:00.001Z</time></trkpt><trkpt lat="41.05785231953751" lon="9.237126335721175"><ele>204.2</ele><time>2026-05-02T10:13:01.001Z</time></trkpt><trkpt lat="41.05775992024902" lon="9.237044032081045"><ele>204.6</ele><time>2026-05-02T10:13:02.001Z</time></trkpt><trkpt lat="41.05767246800988" lon="9.236959031117628"><ele>205.0</ele><time>2026-05-02T10:13:03.001Z</time></trkpt><trkpt lat="41.05758389536897" lon="9.236877034587097"><ele>205.0</ele><time>2026-05-02T10:13:04.001Z</time></trkpt><trkpt lat="41.057492938159065" lon="9.236802429495132"><ele>205.0</ele><time>2026-05-02T10:13:05.001Z</time></trkpt><trkpt lat="41.05739900315174" lon="9.236739966714405"><ele>205.0</ele><time>2026-05-02T10:13:06.001Z</time></trkpt><trkpt lat="41.05730637448768" lon="9.236671942491308"><ele>205.0</ele><time>2026-05-02T10:13:07.001Z</time></trkpt><trkpt lat="41.057195660806485" lon="9.236645200676074"><ele>205.0</ele><time>2026-05-02T10:13:08.001Z</time></trkpt><trkpt lat="41.057082471247924" lon="9.236638185772435"><ele>205.75</ele><time>2026-05-02T10:13:09.001Z</time></trkpt><trkpt lat="41.056967496292906" lon="9.236636493177404"><ele>206.5</ele><time>2026-05-02T10:13:10.001Z</time></trkpt><trkpt lat="41.056849400797375" lon="9.236644581397902"><ele>207.25</ele><time>2026-05-02T10:13:11.001Z</time></trkpt><trkpt lat="41.056732715657134" lon="9.236648802744714"><ele>208.0</ele><time>2026-05-02T10:13:12.001Z</time></trkpt><trkpt lat="41.05661186135368" lon="9.236649893184408"><ele>208.0</ele><time>2026-05-02T10:13:13.001Z</time></trkpt><trkpt lat="41.05649044837522" lon="9.236646388882889"><ele>208.0</ele><time>2026-05-02T10:13:14.001Z</time></trkpt><trkpt lat="41.056372966154" lon="9.23664182448571"><ele>208.0</ele><time>2026-05-02T10:13:15.001Z</time></trkpt><trkpt lat="41.056247584604314" lon="9.236636953180188"><ele>208.0</ele><time>2026-05-02T10:13:16.001Z</time></trkpt><trkpt lat="41.05611520297587" lon="9.23663549228113"><ele>208.0</ele><time>2026-05-02T10:13:17.001Z</time></trkpt><trkpt lat="41.05597938913916" lon="9.236634362764615"><ele>208.0</ele><time>2026-05-02T10:13:18.001Z</time></trkpt><trkpt lat="41.05583819675606" lon="9.236633188515935"><ele>208.0</ele><time>2026-05-02T10:13:19.001Z</time></trkpt><trkpt lat="41.0556965865444" lon="9.236632010795166"><ele>208.0</ele><time>2026-05-02T10:13:20.001Z</time></trkpt><trkpt lat="41.05555408227573" lon="9.236630290335432"><ele>208.75</ele><time>2026-05-02T10:13:21.001Z</time></trkpt><trkpt lat="41.0554088014316" lon="9.23662667638396"><ele>209.5</ele><time>2026-05-02T10:13:22.001Z</time></trkpt><trkpt lat="41.05526683159252" lon="9.236623144796827"><ele>210.25</ele><time>2026-05-02T10:13:23.001Z</time></trkpt><trkpt lat="41.05511935031255" lon="9.236625571556756"><ele>211.0</ele><time>2026-05-02T10:13:24.001Z</time></trkpt><trkpt lat="41.05498104532903" lon="9.236634056783325"><ele>212.25</ele><time>2026-05-02T10:13:25.001Z</time></trkpt><trkpt lat="41.054854715812375" lon="9.236643836468891"><ele>213.5</ele><time>2026-05-02T10:13:26.001Z</time></trkpt><trkpt lat="41.05472904571698" lon="9.236659600226744"><ele>214.75</ele><time>2026-05-02T10:13:27.001Z</time></trkpt><trkpt lat="41.05459767211121" lon="9.236707386471226"><ele>216.0</ele><time>2026-05-02T10:13:28.001Z</time></trkpt><trkpt lat="41.054471782850584" lon="9.23676911975222"><ele>216.0</ele><time>2026-05-02T10:13:29.001Z</time></trkpt><trkpt lat="41.05434669361286" lon="9.236850185703304"><ele>216.0</ele><time>2026-05-02T10:13:30.001Z</time></trkpt><trkpt lat="41.05422764719311" lon="9.236942094675246"><ele>216.0</ele><time>2026-05-02T10:13:31.001Z</time></trkpt><trkpt lat="41.0541120731" lon="9.237039315372561"><ele>216.0</ele><time>2026-05-02T10:13:32.001Z</time></trkpt><trkpt lat="41.05399948643353" lon="9.237134755441337"><ele>217.0</ele><time>2026-05-02T10:13:33.001Z</time></trkpt><trkpt lat="41.05388583677897" lon="9.237232361366113"><ele>218.0</ele><time>2026-05-02T10:13:34.001Z</time></trkpt><trkpt lat="41.05377747638476" lon="9.237328031867595"><ele>219.0</ele><time>2026-05-02T10:13:35.001Z</time></trkpt><trkpt lat="41.05366636953957" lon="9.23741855037095"><ele>220.0</ele><time>2026-05-02T10:13:36.001Z</time></trkpt><trkpt lat="41.05354869229965" lon="9.237492062312239"><ele>220.0</ele><time>2026-05-02T10:13:37.001Z</time></trkpt><trkpt lat="41.0534259431401" lon="9.237564882287476"><ele>220.0</ele><time>2026-05-02T10:13:38.001Z</time></trkpt><trkpt lat="41.05330475950887" lon="9.237636131050884"><ele>220.0</ele><time>2026-05-02T10:13:39.001Z</time></trkpt><trkpt lat="41.05318312220981" lon="9.237706543279858"><ele>220.0</ele><time>2026-05-02T10:13:40.001Z</time></trkpt><trkpt lat="41.053063802347765" lon="9.23777271900659"><ele>222.75</ele><time>2026-05-02T10:13:41.001Z</time></trkpt><trkpt lat="41.05294928348381" lon="9.237835252579218"><ele>225.5</ele><time>2026-05-02T10:13:42.001Z</time></trkpt><trkpt lat="41.052841983091305" lon="9.237881464832327"><ele>228.25</ele><time>2026-05-02T10:13:43.001Z</time></trkpt><trkpt lat="41.05272870070042" lon="9.237906186981657"><ele>231.0</ele><time>2026-05-02T10:13:44.001Z</time></trkpt><trkpt lat="41.05259872338239" lon="9.237919539971818"><ele>231.0</ele><time>2026-05-02T10:13:45.001Z</time></trkpt><trkpt lat="41.05246521570835" lon="9.237924094874518"><ele>231.0</ele><time>2026-05-02T10:13:46.001Z</time></trkpt><trkpt lat="41.05233810121892" lon="9.237908524166304"><ele>231.0</ele><time>2026-05-02T10:13:47.001Z</time></trkpt><trkpt lat="41.052242127403545" lon="9.237856384050556"><ele>231.0</ele><time>2026-05-02T10:13:48.001Z</time></trkpt><trkpt lat="41.052151301425766" lon="9.237806765420652"><ele>232.20000000000002</ele><time>2026-05-02T10:13:49.001Z</time></trkpt><trkpt lat="41.05206892885377" lon="9.23777891949413"><ele>233.40000000000003</ele><time>2026-05-02T10:13:50.001Z</time></trkpt><trkpt lat="41.05197135479785" lon="9.23786106953011"><ele>234.6</ele><time>2026-05-02T10:13:51.001Z</time></trkpt><trkpt lat="41.051929519084304" lon="9.238005644569682"><ele>235.8</ele><time>2026-05-02T10:13:52.001Z</time></trkpt><trkpt lat="41.051965800045515" lon="9.23816808903492"><ele>237.0</ele><time>2026-05-02T10:13:53.001Z</time></trkpt><trkpt lat="41.052021760868946" lon="9.2383122713592"><ele>237.2</ele><time>2026-05-02T10:13:54.001Z</time></trkpt><trkpt lat="41.05204352234228" lon="9.238445974018806"><ele>237.39999999999998</ele><time>2026-05-02T10:13:55.001Z</time></trkpt><trkpt lat="41.05204836782692" lon="9.238579592112373"><ele>237.60000000000002</ele><time>2026-05-02T10:13:56.001Z</time></trkpt><trkpt lat="41.05197387305651" lon="9.238640450695287"><ele>237.8</ele><time>2026-05-02T10:13:57.001Z</time></trkpt><trkpt lat="41.05189528403832" lon="9.238648692865729"><ele>238.0</ele><time>2026-05-02T10:13:58.001Z</time></trkpt><trkpt lat="41.051805984281884" lon="9.238625594917004"><ele>238.0</ele><time>2026-05-02T10:13:59.001Z</time></trkpt><trkpt lat="41.051690446664324" lon="9.238647157760289"><ele>238.0</ele><time>2026-05-02T10:14:00.001Z</time></trkpt><trkpt lat="41.051579520565504" lon="9.23870966398837"><ele>238.0</ele><time>2026-05-02T10:14:01.001Z</time></trkpt><trkpt lat="41.05148085353699" lon="9.238821885327905"><ele>238.0</ele><time>2026-05-02T10:14:02.001Z</time></trkpt><trkpt lat="41.05140131637943" lon="9.238939917917813"><ele>239.60000000000002</ele><time>2026-05-02T10:14:03.001Z</time></trkpt><trkpt lat="41.05133267002547" lon="9.239054210060804"><ele>241.20000000000002</ele><time>2026-05-02T10:14:04.001Z</time></trkpt><trkpt lat="41.05132230560307" lon="9.239200662106587"><ele>242.8</ele><time>2026-05-02T10:14:05.001Z</time></trkpt><trkpt lat="41.05133013137543" lon="9.239333517223304"><ele>244.4</ele><time>2026-05-02T10:14:06.001Z</time></trkpt><trkpt lat="41.05132163675496" lon="9.239436939686348"><ele>246.0</ele><time>2026-05-02T10:14:07.001Z</time></trkpt><trkpt lat="41.05124652485238" lon="9.239471691666019"><ele>246.0</ele><time>2026-05-02T10:14:10.001Z</time></trkpt><trkpt lat="41.051185729211575" lon="9.239426212459106"><ele>246.00000000000003</ele><time>2026-05-02T10:14:14.001Z</time></trkpt><trkpt lat="41.051121550446034" lon="9.239340305044786"><ele>246.00000000000003</ele><time>2026-05-02T10:14:16.001Z</time></trkpt><trkpt lat="41.05099904978542" lon="9.239246002614026"><ele>246.0</ele><time>2026-05-02T10:14:18.001Z</time></trkpt><trkpt lat="41.0509226126008" lon="9.239186235307585"><ele>246.0</ele><time>2026-05-02T10:14:19.001Z</time></trkpt><trkpt lat="41.05083890219054" lon="9.239120780953819"><ele>245.8</ele><time>2026-05-02T10:14:20.001Z</time></trkpt><trkpt lat="41.05075296321273" lon="9.239053584129744"><ele>245.60000000000002</ele><time>2026-05-02T10:14:21.001Z</time></trkpt><trkpt lat="41.05067359356683" lon="9.23899152385138"><ele>245.4</ele><time>2026-05-02T10:14:22.001Z</time></trkpt><trkpt lat="41.05058235899852" lon="9.238920186290834"><ele>245.2</ele><time>2026-05-02T10:14:23.001Z</time></trkpt><trkpt lat="41.050479508536185" lon="9.23883976604816"><ele>245.0</ele><time>2026-05-02T10:14:24.001Z</time></trkpt><trkpt lat="41.050375550608216" lon="9.238755857383042"><ele>245.6</ele><time>2026-05-02T10:14:25.001Z</time></trkpt><trkpt lat="41.05028341362767" lon="9.23868183144524"><ele>246.2</ele><time>2026-05-02T10:14:26.001Z</time></trkpt><trkpt lat="41.05019569081938" lon="9.238637576581729"><ele>246.8</ele><time>2026-05-02T10:14:27.001Z</time></trkpt><trkpt lat="41.05013430143054" lon="9.23859101147303"><ele>247.4</ele><time>2026-05-02T10:14:28.001Z</time></trkpt><trkpt lat="41.05007459397542" lon="9.238560527318748"><ele>248.0</ele><time>2026-05-02T10:14:31.001Z</time></trkpt><trkpt lat="41.050016451774944" lon="9.238717246983548"><ele>248.0</ele><time>2026-05-02T10:14:34.001Z</time></trkpt><trkpt lat="41.050010085007" lon="9.238812946445462"><ele>248.0</ele><time>2026-05-02T10:14:58.001Z</time></trkpt><trkpt lat="41.050019371861566" lon="9.238690619923783"><ele>248.0</ele><time>2026-05-02T10:15:08.001Z</time></trkpt><trkpt lat="41.0502585995783" lon="9.238696461935989"><ele>248.0</ele><time>2026-05-02T10:15:11.001Z</time></trkpt><trkpt lat="41.05033720911874" lon="9.238779065380804"><ele>248.00000000000003</ele><time>2026-05-02T10:15:12.001Z</time></trkpt><trkpt lat="41.05041822122757" lon="9.238847852714146"><ele>248.0</ele><time>2026-05-02T10:15:13.001Z</time></trkpt><trkpt lat="41.05049922577054" lon="9.238906052968911"><ele>248.0</ele><time>2026-05-02T10:15:14.001Z</time></trkpt><trkpt lat="41.05056999851845" lon="9.238958009211546"><ele>248.0</ele><time>2026-05-02T10:15:15.001Z</time></trkpt><trkpt lat="41.050645390264" lon="9.239023855905497"><ele>248.00000000000003</ele><time>2026-05-02T10:15:17.001Z</time></trkpt><trkpt lat="41.05070311977156" lon="9.239061769946929"><ele>248.0</ele><time>2026-05-02T10:19:46Z</time></trkpt><trkpt lat="41.05062048006305" lon="9.238986519287472"><ele>248.00000000000003</ele><time>2026-05-02T10:20:48Z</time></trkpt><trkpt lat="41.050516333419665" lon="9.238903486174038"><ele>248.0</ele><time>2026-05-02T10:20:50Z</time></trkpt><trkpt lat="41.05045153363064" lon="9.238857830331835"><ele>248.0</ele><time>2026-05-02T10:20:51Z</time></trkpt><trkpt lat="41.05040146368289" lon="9.238776957507044"><ele>248.0</ele><time>2026-05-02T10:20:52Z</time></trkpt><trkpt lat="41.05034445935417" lon="9.238730540857883"><ele>248.00000000000003</ele><time>2026-05-02T10:20:53Z</time></trkpt><trkpt lat="41.05028973640622" lon="9.23868678020085"><ele>248.0</ele><time>2026-05-02T10:20:54Z</time></trkpt><trkpt lat="41.05019502453625" lon="9.238618059743708"><ele>248.0</ele><time>2026-05-02T10:20:56Z</time></trkpt><trkpt lat="41.05011611442278" lon="9.238571989921365"><ele>248.0</ele><time>2026-05-02T10:20:58Z</time></trkpt><trkpt lat="41.05002107763916" lon="9.238669401682754"><ele>248.0</ele><time>2026-05-02T10:21:02Z</time></trkpt><trkpt lat="41.050003279252785" lon="9.238784726181331"><ele>248.0</ele><time>2026-05-02T10:21:09Z</time></trkpt><trkpt lat="41.04999953519998" lon="9.238892367399291"><ele>248.0</ele><time>2026-05-02T10:21:10Z</time></trkpt><trkpt lat="41.04998084552422" lon="9.239000084734675"><ele>247.8</ele><time>2026-05-02T10:21:11Z</time></trkpt><trkpt lat="41.04995371736949" lon="9.23909633586826"><ele>247.60000000000002</ele><time>2026-05-02T10:21:12Z</time></trkpt><trkpt lat="41.04991849163395" lon="9.23920460451371"><ele>247.39999999999998</ele><time>2026-05-02T10:21:13Z</time></trkpt><trkpt lat="41.049872101657265" lon="9.23931112677829"><ele>247.2</ele><time>2026-05-02T10:21:14Z</time></trkpt><trkpt lat="41.04981857418533" lon="9.23941858076107"><ele>247.0</ele><time>2026-05-02T10:21:15Z</time></trkpt><trkpt lat="41.049765314885875" lon="9.239536778332507"><ele>247.0</ele><time>2026-05-02T10:21:16Z</time></trkpt><trkpt lat="41.04971228420419" lon="9.239660163921432"><ele>247.0</ele><time>2026-05-02T10:21:17Z</time></trkpt><trkpt lat="41.049655283394436" lon="9.239787560239586"><ele>247.0</ele><time>2026-05-02T10:21:18Z</time></trkpt><trkpt lat="41.04959788007162" lon="9.239920861291255"><ele>247.0</ele><time>2026-05-02T10:21:19Z</time></trkpt><trkpt lat="41.049533417018196" lon="9.240076373696926"><ele>245.33333333333331</ele><time>2026-05-02T10:21:20Z</time></trkpt><trkpt lat="41.049459881167856" lon="9.240245406482051"><ele>243.66666666666669</ele><time>2026-05-02T10:21:21Z</time></trkpt><trkpt lat="41.04938169078737" lon="9.240422601370685"><ele>242.0</ele><time>2026-05-02T10:21:22Z</time></trkpt><trkpt lat="41.04930175954057" lon="9.240601123649402"><ele>241.0</ele><time>2026-05-02T10:21:23Z</time></trkpt><trkpt lat="41.04922091768145" lon="9.240786688972296"><ele>240.0</ele><time>2026-05-02T10:21:24Z</time></trkpt><trkpt lat="41.049138087526586" lon="9.24097831524775"><ele>239.0</ele><time>2026-05-02T10:21:25Z</time></trkpt><trkpt lat="41.049052346759524" lon="9.241175745623375"><ele>239.0</ele><time>2026-05-02T10:21:26Z</time></trkpt><trkpt lat="41.04896460451669" lon="9.241378617878194"><ele>239.0</ele><time>2026-05-02T10:21:27Z</time></trkpt><trkpt lat="41.04887392636996" lon="9.241584913181637"><ele>239.0</ele><time>2026-05-02T10:21:28Z</time></trkpt><trkpt lat="41.04877765509063" lon="9.24179916742962"><ele>237.66666666666669</ele><time>2026-05-02T10:21:29Z</time></trkpt><trkpt lat="41.04868152138604" lon="9.242007409641547"><ele>236.33333333333331</ele><time>2026-05-02T10:21:30Z</time></trkpt><trkpt lat="41.04855992176632" lon="9.242192755386656"><ele>235.0</ele><time>2026-05-02T10:21:31Z</time></trkpt><trkpt lat="41.048436496857484" lon="9.242381938688235"><ele>233.33333333333331</ele><time>2026-05-02T10:21:32Z</time></trkpt><trkpt lat="41.04831004000881" lon="9.242563919679661"><ele>231.66666666666669</ele><time>2026-05-02T10:21:33Z</time></trkpt><trkpt lat="41.04817707487097" lon="9.242734149621718"><ele>230.0</ele><time>2026-05-02T10:21:34Z</time></trkpt><trkpt lat="41.0480476250045" lon="9.242918299605961"><ele>230.0</ele><time>2026-05-02T10:21:35Z</time></trkpt><trkpt lat="41.04790352569332" lon="9.243092478464112"><ele>230.0</ele><time>2026-05-02T10:21:36Z</time></trkpt><trkpt lat="41.047757228603196" lon="9.243269964902955"><ele>230.0</ele><time>2026-05-02T10:21:37Z</time></trkpt><trkpt lat="41.04762114900516" lon="9.243438275359049"><ele>226.33333333333334</ele><time>2026-05-02T10:21:38Z</time></trkpt><trkpt lat="41.04748962227723" lon="9.24361342991002"><ele>222.66666666666669</ele><time>2026-05-02T10:21:39Z</time></trkpt><trkpt lat="41.04736011591525" lon="9.243806360286838"><ele>219.0</ele><time>2026-05-02T10:21:40Z</time></trkpt><trkpt lat="41.047247382102775" lon="9.244016593304236"><ele>214.66666666666669</ele><time>2026-05-02T10:21:41Z</time></trkpt><trkpt lat="41.04715736796215" lon="9.244230183399607"><ele>210.33333333333334</ele><time>2026-05-02T10:21:42Z</time></trkpt><trkpt lat="41.047098456203884" lon="9.244465831823074"><ele>206.0</ele><time>2026-05-02T10:21:43Z</time></trkpt><trkpt lat="41.04707510356753" lon="9.244717400148874"><ele>205.0</ele><time>2026-05-02T10:21:44Z</time></trkpt><trkpt lat="41.04705886357086" lon="9.244979990393295"><ele>204.0</ele><time>2026-05-02T10:21:45Z</time></trkpt><trkpt lat="41.04701690190748" lon="9.24523554837197"><ele>203.0</ele><time>2026-05-02T10:21:46Z</time></trkpt><trkpt lat="41.04700116035205" lon="9.245507707605984"><ele>201.33333333333334</ele><time>2026-05-02T10:21:47Z</time></trkpt><trkpt lat="41.046964887647746" lon="9.24577854779901"><ele>199.66666666666669</ele><time>2026-05-02T10:21:48Z</time></trkpt><trkpt lat="41.046931131349645" lon="9.246055108790848"><ele>198.0</ele><time>2026-05-02T10:21:49Z</time></trkpt><trkpt lat="41.04690083008952" lon="9.246334072559444"><ele>196.66666666666669</ele><time>2026-05-02T10:21:50Z</time></trkpt><trkpt lat="41.046868736933455" lon="9.246607429948966"><ele>195.33333333333334</ele><time>2026-05-02T10:21:51Z</time></trkpt><trkpt lat="41.04683434099604" lon="9.246869196045349"><ele>194.0</ele><time>2026-05-02T10:21:52Z</time></trkpt><trkpt lat="41.04680628500224" lon="9.24712779663236"><ele>195.0</ele><time>2026-05-02T10:21:53Z</time></trkpt><trkpt lat="41.0467746834142" lon="9.247382608744154"><ele>196.0</ele><time>2026-05-02T10:21:54Z</time></trkpt><trkpt lat="41.046744442856934" lon="9.247635236603855"><ele>197.0</ele><time>2026-05-02T10:21:55Z</time></trkpt><trkpt lat="41.04671218630283" lon="9.247883095958551"><ele>196.0</ele><time>2026-05-02T10:21:56Z</time></trkpt><trkpt lat="41.04668127838019" lon="9.24812798064271"><ele>195.0</ele><time>2026-05-02T10:21:57Z</time></trkpt><trkpt lat="41.04665443608302" lon="9.248373930161796"><ele>194.0</ele><time>2026-05-02T10:21:58Z</time></trkpt><trkpt lat="41.046628082691235" lon="9.24861286789642"><ele>192.33333333333334</ele><time>2026-05-02T10:21:59Z</time></trkpt><trkpt lat="41.04660050061243" lon="9.248850762870305"><ele>190.66666666666669</ele><time>2026-05-02T10:22:00Z</time></trkpt><trkpt lat="41.046572423670526" lon="9.249075330703874"><ele>189.0</ele><time>2026-05-02T10:22:01Z</time></trkpt><trkpt lat="41.04654743151158" lon="9.24928425370686"><ele>189.0</ele><time>2026-05-02T10:22:02Z</time></trkpt><trkpt lat="41.046523173204655" lon="9.249483088549615"><ele>189.0</ele><time>2026-05-02T10:22:03Z</time></trkpt><trkpt lat="41.046496876457795" lon="9.249678657803472"><ele>189.0</ele><time>2026-05-02T10:22:04Z</time></trkpt><trkpt lat="41.046474439139025" lon="9.24986069940251"><ele>189.0</ele><time>2026-05-02T10:22:05Z</time></trkpt><trkpt lat="41.04645398694545" lon="9.250029698191609"><ele>188.5</ele><time>2026-05-02T10:22:06Z</time></trkpt><trkpt lat="41.04642189757397" lon="9.25014729973154"><ele>188.0</ele><time>2026-05-02T10:22:07Z</time></trkpt><trkpt lat="41.0463672747785" lon="9.250222955914516"><ele>187.5</ele><time>2026-05-02T10:22:08Z</time></trkpt><trkpt lat="41.04635749973947" lon="9.250307785044221"><ele>187.0</ele><time>2026-05-02T10:22:08.999Z</time></trkpt><trkpt lat="41.04634799714534" lon="9.250391824581053"><ele>186.5</ele><time>2026-05-02T10:22:09.999Z</time></trkpt><trkpt lat="41.04633814023466" lon="9.25047899766213"><ele>186.0</ele><time>2026-05-02T10:22:10.999Z</time></trkpt><trkpt lat="41.04617526607792" lon="9.250524010613855"><ele>186.0</ele><time>2026-05-02T10:22:11.999Z</time></trkpt><trkpt lat="41.046136642841205" lon="9.250605284071447"><ele>186.0</ele><time>2026-05-02T10:22:13.999Z</time></trkpt><trkpt lat="41.04609301748052" lon="9.25070084657199"><ele>186.0</ele><time>2026-05-02T10:22:24Z</time></trkpt><trkpt lat="41.04605274089711" lon="9.250785207702187"><ele>186.0</ele><time>2026-05-02T10:22:25Z</time></trkpt><trkpt lat="41.04600288476085" lon="9.250884643317775"><ele>186.0</ele><time>2026-05-02T10:22:26Z</time></trkpt><trkpt lat="41.04594838794587" lon="9.250990650312039"><ele>186.0</ele><time>2026-05-02T10:22:27Z</time></trkpt><trkpt lat="41.04587400251878" lon="9.251108888737107"><ele>184.8</ele><time>2026-05-02T10:22:28Z</time></trkpt><trkpt lat="41.045788074148696" lon="9.251219554219242"><ele>183.60000000000002</ele><time>2026-05-02T10:22:29Z</time></trkpt><trkpt lat="41.04571305509743" lon="9.25131554536648"><ele>182.4</ele><time>2026-05-02T10:22:30Z</time></trkpt><trkpt lat="41.045650914317676" lon="9.251413141413646"><ele>181.2</ele><time>2026-05-02T10:22:31Z</time></trkpt><trkpt lat="41.04562135211366" lon="9.251533925163578"><ele>180.0</ele><time>2026-05-02T10:22:32Z</time></trkpt><trkpt lat="41.04562404824723" lon="9.251683647073426"><ele>179.5</ele><time>2026-05-02T10:22:33Z</time></trkpt><trkpt lat="41.045652788349116" lon="9.25184533362394"><ele>179.0</ele><time>2026-05-02T10:22:34Z</time></trkpt><trkpt lat="41.04567904590476" lon="9.252014863900099"><ele>178.5</ele><time>2026-05-02T10:22:35Z</time></trkpt><trkpt lat="41.04569497357923" lon="9.252172169314878"><ele>178.0</ele><time>2026-05-02T10:22:36Z</time></trkpt><trkpt lat="41.04568320079681" lon="9.252334167949945"><ele>177.5</ele><time>2026-05-02T10:22:37Z</time></trkpt><trkpt lat="41.045637140000245" lon="9.252498096778716"><ele>177.0</ele><time>2026-05-02T10:22:38Z</time></trkpt><trkpt lat="41.04556456366049" lon="9.252679443590358"><ele>176.5</ele><time>2026-05-02T10:22:39Z</time></trkpt><trkpt lat="41.045490069431075" lon="9.252869805757568"><ele>176.0</ele><time>2026-05-02T10:22:40Z</time></trkpt><trkpt lat="41.04541591465946" lon="9.253073439074715"><ele>175.33333333333331</ele><time>2026-05-02T10:22:41Z</time></trkpt><trkpt lat="41.045342833629" lon="9.253276867391028"><ele>174.66666666666666</ele><time>2026-05-02T10:22:42Z</time></trkpt><trkpt lat="41.04527516027313" lon="9.253465419784256"><ele>174.0</ele><time>2026-05-02T10:22:43Z</time></trkpt><trkpt lat="41.04520544269575" lon="9.253658391459746"><ele>174.0</ele><time>2026-05-02T10:22:44Z</time></trkpt><trkpt lat="41.045134262505215" lon="9.253852389265932"><ele>174.0</ele><time>2026-05-02T10:22:45Z</time></trkpt><trkpt lat="41.04505891174509" lon="9.254039527049834"><ele>174.0</ele><time>2026-05-02T10:22:46Z</time></trkpt><trkpt lat="41.04496534024654" lon="9.25421954861271"><ele>172.0</ele><time>2026-05-02T10:22:47Z</time></trkpt><trkpt lat="41.04486242701137" lon="9.25440393297555"><ele>170.0</ele><time>2026-05-02T10:22:48Z</time></trkpt><trkpt lat="41.0447538868415" lon="9.254590233022038"><ele>168.0</ele><time>2026-05-02T10:22:49Z</time></trkpt><trkpt lat="41.044642031964656" lon="9.254784766870378"><ele>167.33333333333334</ele><time>2026-05-02T10:22:50Z</time></trkpt><trkpt lat="41.04453062119584" lon="9.254983664692174"><ele>166.66666666666669</ele><time>2026-05-02T10:22:51Z</time></trkpt><trkpt lat="41.044421646814726" lon="9.25517367648624"><ele>166.0</ele><time>2026-05-02T10:22:52Z</time></trkpt><trkpt lat="41.044322331652246" lon="9.255346202658453"><ele>166.0</ele><time>2026-05-02T10:22:53Z</time></trkpt><trkpt lat="41.04423549589844" lon="9.255522125278096"><ele>166.0</ele><time>2026-05-02T10:22:54Z</time></trkpt><trkpt lat="41.044174957921285" lon="9.255704701737235"><ele>166.0</ele><time>2026-05-02T10:22:55Z</time></trkpt><trkpt lat="41.04414313128007" lon="9.255897193659523"><ele>165.75</ele><time>2026-05-02T10:22:56Z</time></trkpt><trkpt lat="41.04414164233209" lon="9.256092870523341"><ele>165.5</ele><time>2026-05-02T10:22:57Z</time></trkpt><trkpt lat="41.04416098583827" lon="9.25629070504184"><ele>165.25</ele><time>2026-05-02T10:22:58Z</time></trkpt><trkpt lat="41.044212167925814" lon="9.256467985024964"><ele>165.0</ele><time>2026-05-02T10:22:59Z</time></trkpt><trkpt lat="41.04427882876044" lon="9.256635900031496"><ele>164.5</ele><time>2026-05-02T10:23:00Z</time></trkpt><trkpt lat="41.04435202229572" lon="9.256795876900881"><ele>164.0</ele><time>2026-05-02T10:23:01Z</time></trkpt><trkpt lat="41.04443665471915" lon="9.25694925201012"><ele>163.5</ele><time>2026-05-02T10:23:02Z</time></trkpt><trkpt lat="41.0445162220483" lon="9.257104466825295"><ele>163.0</ele><time>2026-05-02T10:23:03Z</time></trkpt><trkpt lat="41.04460286688214" lon="9.257256738269286"><ele>163.0</ele><time>2026-05-02T10:23:04Z</time></trkpt><trkpt lat="41.044698205198806" lon="9.257407147353225"><ele>163.0</ele><time>2026-05-02T10:23:05Z</time></trkpt><trkpt lat="41.0447982404146" lon="9.257545291140394"><ele>163.0</ele><time>2026-05-02T10:23:06Z</time></trkpt><trkpt lat="41.04491197361927" lon="9.257666234958387"><ele>163.0</ele><time>2026-05-02T10:23:07Z</time></trkpt><trkpt lat="41.04502209845031" lon="9.257756866844488"><ele>163.2</ele><time>2026-05-02T10:23:08Z</time></trkpt><trkpt lat="41.04509272854621" lon="9.25783556388309"><ele>163.4</ele><time>2026-05-02T10:23:09Z</time></trkpt><trkpt lat="41.04511124837654" lon="9.257924488783283"><ele>163.6</ele><time>2026-05-02T10:23:10Z</time></trkpt><trkpt lat="41.04507005090229" lon="9.258026159648772"><ele>163.79999999999998</ele><time>2026-05-02T10:23:11Z</time></trkpt><trkpt lat="41.04500456063339" lon="9.2581329260958"><ele>164.0</ele><time>2026-05-02T10:23:12Z</time></trkpt><trkpt lat="41.044893551275955" lon="9.258201298607823"><ele>167.75</ele><time>2026-05-02T10:23:13Z</time></trkpt><trkpt lat="41.04476168686197" lon="9.258230441988594"><ele>171.5</ele><time>2026-05-02T10:23:14Z</time></trkpt><trkpt lat="41.044628757659154" lon="9.258225457752866"><ele>175.25</ele><time>2026-05-02T10:23:15Z</time></trkpt><trkpt lat="41.04449630012212" lon="9.258201337762289"><ele>179.0</ele><time>2026-05-02T10:23:16Z</time></trkpt><trkpt lat="41.04436035144941" lon="9.258167257663231"><ele>179.0</ele><time>2026-05-02T10:23:17Z</time></trkpt><trkpt lat="41.04422074049448" lon="9.258135031785754"><ele>179.0</ele><time>2026-05-02T10:23:18Z</time></trkpt><trkpt lat="41.04407445635794" lon="9.258104419892678"><ele>179.0</ele><time>2026-05-02T10:23:19Z</time></trkpt><trkpt lat="41.04392117211761" lon="9.258075603176108"><ele>179.0</ele><time>2026-05-02T10:23:20Z</time></trkpt><trkpt lat="41.04376847773658" lon="9.258044844092653"><ele>176.75</ele><time>2026-05-02T10:23:21Z</time></trkpt><trkpt lat="41.04361877969321" lon="9.258013498964809"><ele>174.5</ele><time>2026-05-02T10:23:22Z</time></trkpt><trkpt lat="41.04347641117616" lon="9.258007011001718"><ele>172.25</ele><time>2026-05-02T10:23:23Z</time></trkpt><trkpt lat="41.04334315977773" lon="9.25804780917309"><ele>170.0</ele><time>2026-05-02T10:23:24Z</time></trkpt><trkpt lat="41.043221023685284" lon="9.25814418486288"><ele>174.75</ele><time>2026-05-02T10:23:25Z</time></trkpt><trkpt lat="41.043115942269445" lon="9.25827739292143"><ele>179.5</ele><time>2026-05-02T10:23:26Z</time></trkpt><trkpt lat="41.04302354642322" lon="9.258427765074858"><ele>184.25</ele><time>2026-05-02T10:23:27Z</time></trkpt><trkpt lat="41.04293665202715" lon="9.258590526358743"><ele>189.0</ele><time>2026-05-02T10:23:28Z</time></trkpt><trkpt lat="41.042856127552064" lon="9.2587561251392"><ele>189.0</ele><time>2026-05-02T10:23:29Z</time></trkpt><trkpt lat="41.04277806250804" lon="9.258928041991586"><ele>189.0</ele><time>2026-05-02T10:23:30Z</time></trkpt><trkpt lat="41.04270825508235" lon="9.259110812431231"><ele>189.0</ele><time>2026-05-02T10:23:31Z</time></trkpt><trkpt lat="41.04264848442849" lon="9.259297068684656"><ele>193.33333333333331</ele><time>2026-05-02T10:23:32Z</time></trkpt><trkpt lat="41.042591682566574" lon="9.259486413520538"><ele>197.66666666666666</ele><time>2026-05-02T10:23:33Z</time></trkpt><trkpt lat="41.04251998707887" lon="9.259666018560436"><ele>202.0</ele><time>2026-05-02T10:23:34Z</time></trkpt><trkpt lat="41.04242163944632" lon="9.259833658159126"><ele>205.66666666666666</ele><time>2026-05-02T10:23:35Z</time></trkpt><trkpt lat="41.04229361698066" lon="9.2599825408294"><ele>209.33333333333331</ele><time>2026-05-02T10:23:36Z</time></trkpt><trkpt lat="41.04215154104418" lon="9.2601240450818"><ele>213.0</ele><time>2026-05-02T10:23:37Z</time></trkpt><trkpt lat="41.042018450634046" lon="9.260223874461563"><ele>213.0</ele><time>2026-05-02T10:23:38Z</time></trkpt><trkpt lat="41.041901713482005" lon="9.260277398022795"><ele>213.0</ele><time>2026-05-02T10:23:39Z</time></trkpt><trkpt lat="41.04180409297942" lon="9.260289070825234"><ele>213.0</ele><time>2026-05-02T10:23:40Z</time></trkpt><trkpt lat="41.04170871227826" lon="9.260273050131012"><ele>213.0</ele><time>2026-05-02T10:23:41Z</time></trkpt><trkpt lat="41.0416121129232" lon="9.260236233462336"><ele>213.0</ele><time>2026-05-02T10:23:42Z</time></trkpt><trkpt lat="41.04151250236078" lon="9.260207922331714"><ele>212.60000000000002</ele><time>2026-05-02T10:23:43Z</time></trkpt><trkpt lat="41.04141241158504" lon="9.260194713811646"><ele>212.20000000000002</ele><time>2026-05-02T10:23:44Z</time></trkpt><trkpt lat="41.041311856129155" lon="9.260188525047903"><ele>211.8</ele><time>2026-05-02T10:23:45Z</time></trkpt><trkpt lat="41.04121613232307" lon="9.26018304808688"><ele>211.4</ele><time>2026-05-02T10:23:46Z</time></trkpt><trkpt lat="41.041126284135146" lon="9.260177460390826"><ele>211.0</ele><time>2026-05-02T10:23:47Z</time></trkpt><trkpt lat="41.04103953611542" lon="9.260176728199266"><ele>210.99999999999997</ele><time>2026-05-02T10:23:48Z</time></trkpt><trkpt lat="41.04095305891261" lon="9.260175509309502"><ele>211.0</ele><time>2026-05-02T10:23:49Z</time></trkpt><trkpt lat="41.040866171554136" lon="9.260179673648604"><ele>211.0</ele><time>2026-05-02T10:23:50Z</time></trkpt><trkpt lat="41.04078247023435" lon="9.260181254984609"><ele>211.0</ele><time>2026-05-02T10:23:51Z</time></trkpt><trkpt lat="41.04069696375244" lon="9.260172342998075"><ele>210.99999999999997</ele><time>2026-05-02T10:23:52Z</time></trkpt><trkpt lat="41.04061415674392" lon="9.260153432174294"><ele>211.0</ele><time>2026-05-02T10:23:53Z</time></trkpt><trkpt lat="41.04053180558664" lon="9.26012152574706"><ele>211.0</ele><time>2026-05-02T10:23:54Z</time></trkpt><trkpt lat="41.0404550543877" lon="9.26008161831086"><ele>211.0</ele><time>2026-05-02T10:23:55Z</time></trkpt><trkpt lat="41.04037881918002" lon="9.260020243282119"><ele>211.0</ele><time>2026-05-02T10:23:56Z</time></trkpt><trkpt lat="41.04030802081123" lon="9.259942966207173"><ele>211.0</ele><time>2026-05-02T10:23:57Z</time></trkpt><trkpt lat="41.040240558476675" lon="9.259856544358971"><ele>211.0</ele><time>2026-05-02T10:23:58Z</time></trkpt><trkpt lat="41.04017281538653" lon="9.259763813085591"><ele>211.0</ele><time>2026-05-02T10:23:59Z</time></trkpt><trkpt lat="41.04010150718197" lon="9.259669173575315"><ele>211.0</ele><time>2026-05-02T10:24:00Z</time></trkpt><trkpt lat="41.04003279503298" lon="9.259574346626056"><ele>211.0</ele><time>2026-05-02T10:24:01Z</time></trkpt><trkpt lat="41.039964127651224" lon="9.259472960326315"><ele>211.0</ele><time>2026-05-02T10:24:02Z</time></trkpt><trkpt lat="41.03989037519102" lon="9.259379039488211"><ele>211.0</ele><time>2026-05-02T10:24:03Z</time></trkpt><trkpt lat="41.03980874876797" lon="9.259290779853554"><ele>211.4</ele><time>2026-05-02T10:24:04Z</time></trkpt><trkpt lat="41.03973423912498" lon="9.259230056877387"><ele>211.8</ele><time>2026-05-02T10:24:05Z</time></trkpt><trkpt lat="41.0396316025498" lon="9.259148191262128"><ele>212.20000000000002</ele><time>2026-05-02T10:24:06Z</time></trkpt><trkpt lat="41.03955979120829" lon="9.259032537270015"><ele>212.60000000000002</ele><time>2026-05-02T10:24:07Z</time></trkpt><trkpt lat="41.03947431565713" lon="9.258931162853816"><ele>213.0</ele><time>2026-05-02T10:24:08Z</time></trkpt><trkpt lat="41.03938730295127" lon="9.258821511914114"><ele>211.5</ele><time>2026-05-02T10:24:09Z</time></trkpt><trkpt lat="41.03929677988713" lon="9.25870998079348"><ele>210.0</ele><time>2026-05-02T10:24:10Z</time></trkpt><trkpt lat="41.03919089690363" lon="9.258618281181825"><ele>208.5</ele><time>2026-05-02T10:24:11Z</time></trkpt><trkpt lat="41.03906256740667" lon="9.258561309582044"><ele>207.0</ele><time>2026-05-02T10:24:12Z</time></trkpt><trkpt lat="41.03893272985904" lon="9.258527652093555"><ele>207.0</ele><time>2026-05-02T10:24:13Z</time></trkpt><trkpt lat="41.03880225915613" lon="9.258504422024474"><ele>207.0</ele><time>2026-05-02T10:24:14Z</time></trkpt><trkpt lat="41.03867075404343" lon="9.258477444591518"><ele>207.0</ele><time>2026-05-02T10:24:15Z</time></trkpt><trkpt lat="41.03854282455278" lon="9.258440179485119"><ele>207.0</ele><time>2026-05-02T10:24:16Z</time></trkpt><trkpt lat="41.03842244988603" lon="9.258376505911775"><ele>207.0</ele><time>2026-05-02T10:24:17Z</time></trkpt><trkpt lat="41.03831397154375" lon="9.258282084480518"><ele>207.0</ele><time>2026-05-02T10:24:18Z</time></trkpt><trkpt lat="41.03819972207038" lon="9.258200764803801"><ele>207.0</ele><time>2026-05-02T10:24:19Z</time></trkpt><trkpt lat="41.03808328031395" lon="9.25815184371621"><ele>207.0</ele><time>2026-05-02T10:24:20Z</time></trkpt><trkpt lat="41.03795940107054" lon="9.258112089497212"><ele>208.5</ele><time>2026-05-02T10:24:21Z</time></trkpt><trkpt lat="41.03783148201032" lon="9.25807929315467"><ele>210.0</ele><time>2026-05-02T10:24:22Z</time></trkpt><trkpt lat="41.03771110750704" lon="9.258099635444443"><ele>211.5</ele><time>2026-05-02T10:24:23Z</time></trkpt><trkpt lat="41.03760581843969" lon="9.258159157487242"><ele>213.0</ele><time>2026-05-02T10:24:24Z</time></trkpt><trkpt lat="41.03752689511426" lon="9.258298425767228"><ele>214.25</ele><time>2026-05-02T10:24:25Z</time></trkpt><trkpt lat="41.03743430825454" lon="9.258427714578772"><ele>215.5</ele><time>2026-05-02T10:24:26Z</time></trkpt><trkpt lat="41.03733610299857" lon="9.258518315936044"><ele>216.75</ele><time>2026-05-02T10:24:27Z</time></trkpt><trkpt lat="41.037225430956624" lon="9.25855614142934"><ele>218.0</ele><time>2026-05-02T10:24:28Z</time></trkpt><trkpt lat="41.037109877589884" lon="9.258559499053804"><ele>218.0</ele><time>2026-05-02T10:24:29Z</time></trkpt><trkpt lat="41.03701543154975" lon="9.258524091805759"><ele>218.0</ele><time>2026-05-02T10:24:30Z</time></trkpt><trkpt lat="41.0369571293902" lon="9.25844288584333"><ele>218.0</ele><time>2026-05-02T10:24:31Z</time></trkpt><trkpt lat="41.036943471633045" lon="9.258320226532254"><ele>218.0</ele><time>2026-05-02T10:24:32Z</time></trkpt><trkpt lat="41.03700486420032" lon="9.25815066906805"><ele>218.0</ele><time>2026-05-02T10:24:33Z</time></trkpt><trkpt lat="41.0371042406771" lon="9.257997937737237"><ele>219.0</ele><time>2026-05-02T10:24:34Z</time></trkpt><trkpt lat="41.03718896055762" lon="9.25784505319279"><ele>220.0</ele><time>2026-05-02T10:24:35Z</time></trkpt><trkpt lat="41.03722261695862" lon="9.25765021026192"><ele>221.0</ele><time>2026-05-02T10:24:36Z</time></trkpt><trkpt lat="41.03721211352025" lon="9.257429672153648"><ele>223.33333333333334</ele><time>2026-05-02T10:24:37Z</time></trkpt><trkpt lat="41.037201959867716" lon="9.257192512395989"><ele>225.66666666666669</ele><time>2026-05-02T10:24:38Z</time></trkpt><trkpt lat="41.03718579803807" lon="9.256971578289201"><ele>228.0</ele><time>2026-05-02T10:24:39Z</time></trkpt><trkpt lat="41.03712720054752" lon="9.256748194012326"><ele>228.0</ele><time>2026-05-02T10:24:40Z</time></trkpt><trkpt lat="41.03705541741988" lon="9.256570634567701"><ele>228.0</ele><time>2026-05-02T10:24:41Z</time></trkpt><trkpt lat="41.03700008911592" lon="9.256434335108022"><ele>228.0</ele><time>2026-05-02T10:24:42Z</time></trkpt><trkpt lat="41.03701313335852" lon="9.256263437914946"><ele>228.0</ele><time>2026-05-02T10:24:43Z</time></trkpt><trkpt lat="41.03701398232485" lon="9.256075950581936"><ele>229.5</ele><time>2026-05-02T10:24:44Z</time></trkpt><trkpt lat="41.036999145168" lon="9.255895459395749"><ele>231.0</ele><time>2026-05-02T10:24:45Z</time></trkpt><trkpt lat="41.036964629738904" lon="9.255762545342707"><ele>232.5</ele><time>2026-05-02T10:24:46Z</time></trkpt><trkpt lat="41.036891181760964" lon="9.255665089073778"><ele>234.0</ele><time>2026-05-02T10:24:47Z</time></trkpt><trkpt lat="41.036789092320056" lon="9.255574991770935"><ele>234.5</ele><time>2026-05-02T10:24:48Z</time></trkpt><trkpt lat="41.03667545527971" lon="9.255464849263289"><ele>235.0</ele><time>2026-05-02T10:24:49Z</time></trkpt><trkpt lat="41.03655260838057" lon="9.255375960151259"><ele>235.5</ele><time>2026-05-02T10:24:50Z</time></trkpt><trkpt lat="41.03642947863106" lon="9.255291471232358"><ele>236.0</ele><time>2026-05-02T10:24:51Z</time></trkpt><trkpt lat="41.03629907463816" lon="9.255200950209565"><ele>236.66666666666669</ele><time>2026-05-02T10:24:52Z</time></trkpt><trkpt lat="41.036168832558516" lon="9.255104536972315"><ele>237.33333333333331</ele><time>2026-05-02T10:24:53Z</time></trkpt><trkpt lat="41.036040084524885" lon="9.25499874286395"><ele>238.0</ele><time>2026-05-02T10:24:54Z</time></trkpt><trkpt lat="41.03590450092988" lon="9.254891803054742"><ele>240.0</ele><time>2026-05-02T10:24:55Z</time></trkpt><trkpt lat="41.035777385126195" lon="9.254796919938231"><ele>242.0</ele><time>2026-05-02T10:24:56Z</time></trkpt><trkpt lat="41.03566536417022" lon="9.254718202281131"><ele>244.0</ele><time>2026-05-02T10:24:57Z</time></trkpt><trkpt lat="41.03555180166116" lon="9.25466568110256"><ele>246.0</ele><time>2026-05-02T10:24:58Z</time></trkpt><trkpt lat="41.035446659115266" lon="9.254593917633722"><ele>246.75</ele><time>2026-05-02T10:24:59Z</time></trkpt><trkpt lat="41.035344471292376" lon="9.254508586488928"><ele>247.5</ele><time>2026-05-02T10:25:00Z</time></trkpt><trkpt lat="41.03523757868758" lon="9.254443545832894"><ele>248.25</ele><time>2026-05-02T10:25:01Z</time></trkpt><trkpt lat="41.035126978959724" lon="9.254385187461056"><ele>249.0</ele><time>2026-05-02T10:25:02Z</time></trkpt><trkpt lat="41.035012258991266" lon="9.254367210037444"><ele>250.6</ele><time>2026-05-02T10:25:03Z</time></trkpt><trkpt lat="41.034901545869005" lon="9.254347450809105"><ele>252.2</ele><time>2026-05-02T10:25:04Z</time></trkpt><trkpt lat="41.03479303615735" lon="9.254299252672878"><ele>253.79999999999998</ele><time>2026-05-02T10:25:05Z</time></trkpt><trkpt lat="41.034684701061124" lon="9.25426419432015"><ele>255.39999999999998</ele><time>2026-05-02T10:25:06Z</time></trkpt><trkpt lat="41.0345847429216" lon="9.254202678508298"><ele>257.0</ele><time>2026-05-02T10:25:07Z</time></trkpt><trkpt lat="41.03447967008495" lon="9.254130517784477"><ele>257.0</ele><time>2026-05-02T10:25:08Z</time></trkpt><trkpt lat="41.03437562165806" lon="9.254049976891553"><ele>257.0</ele><time>2026-05-02T10:25:09Z</time></trkpt><trkpt lat="41.03427001688829" lon="9.253968125520927"><ele>257.0</ele><time>2026-05-02T10:25:10Z</time></trkpt><trkpt lat="41.03416618278702" lon="9.253887646570403"><ele>257.0</ele><time>2026-05-02T10:25:11Z</time></trkpt><trkpt lat="41.0340601792346" lon="9.25380584592227"><ele>260.75</ele><time>2026-05-02T10:25:12Z</time></trkpt><trkpt lat="41.033954859800495" lon="9.253744272919679"><ele>264.5</ele><time>2026-05-02T10:25:13Z</time></trkpt><trkpt lat="41.033857450516784" lon="9.253710525891247"><ele>268.25</ele><time>2026-05-02T10:25:14Z</time></trkpt><trkpt lat="41.0337529767794" lon="9.25380136801856"><ele>272.0</ele><time>2026-05-02T10:25:15Z</time></trkpt><trkpt lat="41.033712822265095" lon="9.253959179882353"><ele>272.75</ele><time>2026-05-02T10:25:16Z</time></trkpt><trkpt lat="41.03368260238582" lon="9.254104815654628"><ele>273.5</ele><time>2026-05-02T10:25:17Z</time></trkpt><trkpt lat="41.03362773286693" lon="9.25423867697443"><ele>274.25</ele><time>2026-05-02T10:25:18Z</time></trkpt><trkpt lat="41.03358466880043" lon="9.254378851082018"><ele>275.0</ele><time>2026-05-02T10:25:19Z</time></trkpt><trkpt lat="41.033537926513894" lon="9.254521087930197"><ele>275.0</ele><time>2026-05-02T10:25:20Z</time></trkpt><trkpt lat="41.033491825495425" lon="9.254661373338068"><ele>275.0</ele><time>2026-05-02T10:25:21Z</time></trkpt><trkpt lat="41.03344646244095" lon="9.254795473869688"><ele>275.0</ele><time>2026-05-02T10:25:22Z</time></trkpt><trkpt lat="41.03340707934709" lon="9.254911398751386"><ele>275.0</ele><time>2026-05-02T10:25:23Z</time></trkpt><trkpt lat="41.0333692690078" lon="9.25500896036034"><ele>275.0</ele><time>2026-05-02T10:25:24Z</time></trkpt><trkpt lat="41.033317987817455" lon="9.25507446638898"><ele>277.4</ele><time>2026-05-02T10:25:25Z</time></trkpt><trkpt lat="41.03326117090062" lon="9.255118156874838"><ele>279.8</ele><time>2026-05-02T10:25:26Z</time></trkpt><trkpt lat="41.033183391818795" lon="9.255157098000176"><ele>282.2</ele><time>2026-05-02T10:25:27Z</time></trkpt><trkpt lat="41.033121780390516" lon="9.255230465395655"><ele>284.6</ele><time>2026-05-02T10:25:28Z</time></trkpt><trkpt lat="41.03305899354137" lon="9.25528736043088"><ele>287.0</ele><time>2026-05-02T10:25:29Z</time></trkpt><trkpt lat="41.03286112436945" lon="9.255107594721197"><ele>287.0</ele><time>2026-05-02T10:25:30Z</time></trkpt><trkpt lat="41.03275189433763" lon="9.255048610598042"><ele>287.0</ele><time>2026-05-02T10:25:31Z</time></trkpt><trkpt lat="41.032660999679116" lon="9.254959541094141"><ele>287.0</ele><time>2026-05-02T10:25:32Z</time></trkpt><trkpt lat="41.03258162772575" lon="9.25484218018759"><ele>287.0</ele><time>2026-05-02T10:25:33Z</time></trkpt><trkpt lat="41.03250740931256" lon="9.254697456603033"><ele>292.0</ele><time>2026-05-02T10:25:34Z</time></trkpt><trkpt lat="41.03243165691108" lon="9.254539593844077"><ele>297.0</ele><time>2026-05-02T10:25:35Z</time></trkpt><trkpt lat="41.03234545457099" lon="9.254373449353075"><ele>302.0</ele><time>2026-05-02T10:25:36Z</time></trkpt><trkpt lat="41.0322735155678" lon="9.25419438713858"><ele>307.0</ele><time>2026-05-02T10:25:37Z</time></trkpt><trkpt lat="41.032209971756274" lon="9.254052534255429"><ele>307.0</ele><time>2026-05-02T10:25:38Z</time></trkpt><trkpt lat="41.032161201284524" lon="9.25396394330527"><ele>307.0</ele><time>2026-05-02T10:25:39Z</time></trkpt><trkpt lat="41.03210686242408" lon="9.25391894437092"><ele>307.0</ele><time>2026-05-02T10:25:40Z</time></trkpt><trkpt lat="41.03203347557294" lon="9.253918347521566"><ele>307.0</ele><time>2026-05-02T10:25:41Z</time></trkpt><trkpt lat="41.0319662061877" lon="9.253967905987698"><ele>307.0</ele><time>2026-05-02T10:25:42Z</time></trkpt><trkpt lat="41.031903931533925" lon="9.254062430011654"><ele>307.0</ele><time>2026-05-02T10:25:43Z</time></trkpt><trkpt lat="41.03185227114351" lon="9.25418334039099"><ele>307.0</ele><time>2026-05-02T10:25:44Z</time></trkpt><trkpt lat="41.03178644402678" lon="9.254339704380182"><ele>307.0</ele><time>2026-05-02T10:25:45Z</time></trkpt><trkpt lat="41.03170549777632" lon="9.254500957688554"><ele>307.0</ele><time>2026-05-02T10:25:46Z</time></trkpt><trkpt lat="41.03163432580203" lon="9.254703459242267"><ele>312.66666666666663</ele><time>2026-05-02T10:25:47Z</time></trkpt><trkpt lat="41.031563103677456" lon="9.254915103509378"><ele>318.3333333333333</ele><time>2026-05-02T10:25:48Z</time></trkpt><trkpt lat="41.031481496751134" lon="9.255079432979372"><ele>324.0</ele><time>2026-05-02T10:25:49Z</time></trkpt><trkpt lat="41.03140759899035" lon="9.255219705107963"><ele>324.0</ele><time>2026-05-02T10:25:50Z</time></trkpt><trkpt lat="41.03131555044427" lon="9.255323152840065"><ele>324.0</ele><time>2026-05-02T10:25:51Z</time></trkpt><trkpt lat="41.03120617942629" lon="9.255395733387235"><ele>324.0</ele><time>2026-05-02T10:25:52Z</time></trkpt><trkpt lat="41.03107605892824" lon="9.255458362253083"><ele>324.0</ele><time>2026-05-02T10:25:53Z</time></trkpt><trkpt lat="41.03094866959827" lon="9.25549369909143"><ele>323.0</ele><time>2026-05-02T10:25:54Z</time></trkpt><trkpt lat="41.030796192417014" lon="9.255491060287435"><ele>322.0</ele><time>2026-05-02T10:25:55Z</time></trkpt><trkpt lat="41.030629790621965" lon="9.255450820669774"><ele>321.0</ele><time>2026-05-02T10:25:56Z</time></trkpt><trkpt lat="41.03043232343199" lon="9.255386669572191"><ele>321.0</ele><time>2026-05-02T10:25:57Z</time></trkpt><trkpt lat="41.03026382746685" lon="9.255328935438833"><ele>321.0</ele><time>2026-05-02T10:25:58Z</time></trkpt><trkpt lat="41.03013364670071" lon="9.255283983683418"><ele>321.0</ele><time>2026-05-02T10:25:59Z</time></trkpt><trkpt lat="41.0300193337676" lon="9.255221916763471"><ele>321.0</ele><time>2026-05-02T10:26:00Z</time></trkpt><trkpt lat="41.029925070429115" lon="9.255111835421893"><ele>323.75</ele><time>2026-05-02T10:26:01Z</time></trkpt><trkpt lat="41.029845573332715" lon="9.254985447147506"><ele>326.5</ele><time>2026-05-02T10:26:02Z</time></trkpt><trkpt lat="41.029750593633345" lon="9.254901220175038"><ele>329.25</ele><time>2026-05-02T10:26:03Z</time></trkpt><trkpt lat="41.02959958035641" lon="9.25485127339871"><ele>332.0</ele><time>2026-05-02T10:26:04Z</time></trkpt><trkpt lat="41.02947116166179" lon="9.254766704759755"><ele>332.0</ele><time>2026-05-02T10:26:05Z</time></trkpt><trkpt lat="41.02936337593686" lon="9.254641820288471"><ele>332.0</ele><time>2026-05-02T10:26:06Z</time></trkpt><trkpt lat="41.029269858844856" lon="9.254492521513216"><ele>332.0</ele><time>2026-05-02T10:26:07Z</time></trkpt><trkpt lat="41.02916798418315" lon="9.254378007211296"><ele>332.0</ele><time>2026-05-02T10:26:08Z</time></trkpt><trkpt lat="41.02903587197651" lon="9.254309361256515"><ele>330.0</ele><time>2026-05-02T10:26:09Z</time></trkpt><trkpt lat="41.02889405232811" lon="9.254283703533773"><ele>328.0</ele><time>2026-05-02T10:26:10Z</time></trkpt><trkpt lat="41.02875250689792" lon="9.254287863471927"><ele>326.0</ele><time>2026-05-02T10:26:11Z</time></trkpt><trkpt lat="41.0285995572281" lon="9.254325194344679"><ele>324.0</ele><time>2026-05-02T10:26:12Z</time></trkpt><trkpt lat="41.028448009491605" lon="9.254380288802736"><ele>324.0</ele><time>2026-05-02T10:26:13Z</time></trkpt><trkpt lat="41.028313368835526" lon="9.25440786532216"><ele>324.0</ele><time>2026-05-02T10:26:14Z</time></trkpt><trkpt lat="41.02818682297687" lon="9.254394288495277"><ele>324.0</ele><time>2026-05-02T10:26:15Z</time></trkpt><trkpt lat="41.02805505319394" lon="9.254316018659717"><ele>324.0</ele><time>2026-05-02T10:26:16Z</time></trkpt><trkpt lat="41.02796053732903" lon="9.254223115762924"><ele>323.79999999999995</ele><time>2026-05-02T10:26:17Z</time></trkpt><trkpt lat="41.02790667718865" lon="9.254119403467213"><ele>323.59999999999997</ele><time>2026-05-02T10:26:18Z</time></trkpt><trkpt lat="41.02788610713751" lon="9.254000358892334"><ele>323.4</ele><time>2026-05-02T10:26:19Z</time></trkpt><trkpt lat="41.027882120181225" lon="9.253862004623779"><ele>323.2</ele><time>2026-05-02T10:26:20Z</time></trkpt><trkpt lat="41.02787119148043" lon="9.253688229560119"><ele>323.0</ele><time>2026-05-02T10:26:21Z</time></trkpt><trkpt lat="41.02782648046227" lon="9.253551655140063"><ele>323.75</ele><time>2026-05-02T10:26:22Z</time></trkpt><trkpt lat="41.02772807661186" lon="9.253441788000403"><ele>324.5</ele><time>2026-05-02T10:26:23Z</time></trkpt><trkpt lat="41.02759848250997" lon="9.253357810829334"><ele>325.25</ele><time>2026-05-02T10:26:24Z</time></trkpt><trkpt lat="41.02746077172797" lon="9.253316428501728"><ele>326.0</ele><time>2026-05-02T10:26:25Z</time></trkpt><trkpt lat="41.02736353613755" lon="9.253306928898876"><ele>328.4</ele><time>2026-05-02T10:26:26Z</time></trkpt><trkpt lat="41.0273014075118" lon="9.253339348987451"><ele>330.8</ele><time>2026-05-02T10:26:27Z</time></trkpt><trkpt lat="41.02726051132429" lon="9.253488025383469"><ele>333.2</ele><time>2026-05-02T10:26:29Z</time></trkpt><trkpt lat="41.02723433811855" lon="9.253618102060175"><ele>335.59999999999997</ele><time>2026-05-02T10:26:30Z</time></trkpt><trkpt lat="41.02723439265469" lon="9.25376784341888"><ele>338.0</ele><time>2026-05-02T10:26:31Z</time></trkpt><trkpt lat="41.02726852159706" lon="9.253926429383704"><ele>340.6666666666667</ele><time>2026-05-02T10:26:32Z</time></trkpt><trkpt lat="41.02732190716193" lon="9.2541043543251"><ele>343.3333333333333</ele><time>2026-05-02T10:26:33Z</time></trkpt><trkpt lat="41.02740181001562" lon="9.254299232278774"><ele>346.0</ele><time>2026-05-02T10:26:34Z</time></trkpt><trkpt lat="41.027459178018475" lon="9.254488180444707"><ele>346.0</ele><time>2026-05-02T10:26:35Z</time></trkpt><trkpt lat="41.02748392000478" lon="9.254638278203053"><ele>346.0</ele><time>2026-05-02T10:26:36Z</time></trkpt><trkpt lat="41.02747991001564" lon="9.254766550710356"><ele>346.0</ele><time>2026-05-02T10:26:37Z</time></trkpt><trkpt lat="41.02744952952591" lon="9.254888124654283"><ele>346.0</ele><time>2026-05-02T10:26:38Z</time></trkpt><trkpt lat="41.02739411098616" lon="9.255009147888723"><ele>346.0</ele><time>2026-05-02T10:26:39Z</time></trkpt><trkpt lat="41.027346756457426" lon="9.255175607721135"><ele>346.0</ele><time>2026-05-02T10:26:40Z</time></trkpt><trkpt lat="41.02732450697935" lon="9.255359717063788"><ele>346.0</ele><time>2026-05-02T10:26:41Z</time></trkpt><trkpt lat="41.02730951549489" lon="9.255563997470142"><ele>346.0</ele><time>2026-05-02T10:26:42Z</time></trkpt><trkpt lat="41.02728512933473" lon="9.255755523865384"><ele>346.0</ele><time>2026-05-02T10:26:43Z</time></trkpt><trkpt lat="41.02722078933927" lon="9.255911737155785"><ele>346.75</ele><time>2026-05-02T10:26:44Z</time></trkpt><trkpt lat="41.027133826352205" lon="9.256061500413894"><ele>347.5</ele><time>2026-05-02T10:26:45Z</time></trkpt><trkpt lat="41.027038179322396" lon="9.256241948773004"><ele>348.25</ele><time>2026-05-02T10:26:46Z</time></trkpt><trkpt lat="41.026998126921704" lon="9.256406987691129"><ele>349.0</ele><time>2026-05-02T10:26:47Z</time></trkpt><trkpt lat="41.0269859397145" lon="9.256498065563438"><ele>349.0</ele><time>2026-05-02T10:26:48Z</time></trkpt><trkpt lat="41.02690473561685" lon="9.25651654404925"><ele>349.0</ele><time>2026-05-02T10:26:50Z</time></trkpt><trkpt lat="41.0268508546719" lon="9.256455209435366"><ele>349.0</ele><time>2026-05-02T10:26:51Z</time></trkpt><trkpt lat="41.026833522593115" lon="9.256351639694028"><ele>349.0</ele><time>2026-05-02T10:26:52Z</time></trkpt><trkpt lat="41.02686030282624" lon="9.256219819302734"><ele>349.0</ele><time>2026-05-02T10:26:53Z</time></trkpt><trkpt lat="41.02686712902165" lon="9.256079633772865"><ele>349.0</ele><time>2026-05-02T10:26:54Z</time></trkpt><trkpt lat="41.0268353967821" lon="9.25596765631217"><ele>349.0</ele><time>2026-05-02T10:26:55Z</time></trkpt><trkpt lat="41.026752714510785" lon="9.255889276704156"><ele>349.0</ele><time>2026-05-02T10:26:56Z</time></trkpt><trkpt lat="41.026657319134564" lon="9.25585692263647"><ele>349.0</ele><time>2026-05-02T10:26:57Z</time></trkpt><trkpt lat="41.02653586391396" lon="9.255864340406923"><ele>349.0</ele><time>2026-05-02T10:26:58Z</time></trkpt><trkpt lat="41.026438707056556" lon="9.25591530998186"><ele>349.0</ele><time>2026-05-02T10:26:59Z</time></trkpt><trkpt lat="41.02635725739096" lon="9.256016888777447"><ele>351.25</ele><time>2026-05-02T10:27:00Z</time></trkpt><trkpt lat="41.02626526214925" lon="9.256141202303063"><ele>353.5</ele><time>2026-05-02T10:27:01Z</time></trkpt><trkpt lat="41.026168040520325" lon="9.256226504034874"><ele>355.75</ele><time>2026-05-02T10:27:02Z</time></trkpt><trkpt lat="41.02607195999955" lon="9.256298281976392"><ele>358.0</ele><time>2026-05-02T10:27:03Z</time></trkpt><trkpt lat="41.02595860942344" lon="9.256392449434435"><ele>359.4</ele><time>2026-05-02T10:27:04Z</time></trkpt><trkpt lat="41.02583294796919" lon="9.256499304463377"><ele>360.79999999999995</ele><time>2026-05-02T10:27:05Z</time></trkpt><trkpt lat="41.02573809724197" lon="9.256580077844138"><ele>362.2</ele><time>2026-05-02T10:27:06Z</time></trkpt><trkpt lat="41.02567157347704" lon="9.256655887358884"><ele>363.6</ele><time>2026-05-02T10:27:07Z</time></trkpt><trkpt lat="41.02562538435635" lon="9.256718654770395"><ele>365.0</ele><time>2026-05-02T10:27:08Z</time></trkpt><trkpt lat="41.025539025387445" lon="9.256789065301547"><ele>365.14285714285717</ele><time>2026-05-02T10:27:10Z</time></trkpt><trkpt lat="41.025561968849665" lon="9.256867766543705"><ele>365.2857142857143</ele><time>2026-05-02T10:27:14Z</time></trkpt><trkpt lat="41.025629232662524" lon="9.256803535531745"><ele>365.42857142857144</ele><time>2026-05-02T10:27:16Z</time></trkpt><trkpt lat="41.02566719330881" lon="9.256707714172766"><ele>365.57142857142856</ele><time>2026-05-02T10:27:17Z</time></trkpt><trkpt lat="41.02570699764626" lon="9.256639946087164"><ele>365.7142857142857</ele><time>2026-05-02T10:27:18Z</time></trkpt><trkpt lat="41.02574547488852" lon="9.256570525723035"><ele>365.8571428571429</ele><time>2026-05-02T10:27:21Z</time></trkpt><trkpt lat="41.02570865486419" lon="9.256484852581007"><ele>366.0</ele><time>2026-05-02T10:27:35Z</time></trkpt><trkpt lat="41.02565596759455" lon="9.25643316411134"><ele>366.0</ele><time>2026-05-02T10:27:37Z</time></trkpt><trkpt lat="41.02558566431595" lon="9.256378224427651"><ele>366.0</ele><time>2026-05-02T10:27:39Z</time></trkpt><trkpt lat="41.025458616304306" lon="9.256315406469373"><ele>366.0</ele><time>2026-05-02T10:27:41Z</time></trkpt><trkpt lat="41.02538512641318" lon="9.256278491248729"><ele>366.0</ele><time>2026-05-02T10:27:42Z</time></trkpt><trkpt lat="41.025297612786474" lon="9.256234531720063"><ele>366.0</ele><time>2026-05-02T10:27:43Z</time></trkpt><trkpt lat="41.02519906502974" lon="9.256184426874821"><ele>366.0</ele><time>2026-05-02T10:27:44Z</time></trkpt><trkpt lat="41.02509584634432" lon="9.256128307941745"><ele>366.0</ele><time>2026-05-02T10:27:45Z</time></trkpt><trkpt lat="41.024981337523414" lon="9.256067246819283"><ele>366.0</ele><time>2026-05-02T10:27:46Z</time></trkpt><trkpt lat="41.024853471338886" lon="9.256003971099139"><ele>366.0</ele><time>2026-05-02T10:27:47Z</time></trkpt><trkpt lat="41.02472213178076" lon="9.255941200467449"><ele>368.0</ele><time>2026-05-02T10:27:48Z</time></trkpt><trkpt lat="41.02458885353805" lon="9.25587472232611"><ele>370.0</ele><time>2026-05-02T10:27:49Z</time></trkpt><trkpt lat="41.02447080508054" lon="9.255797755116621"><ele>372.0</ele><time>2026-05-02T10:27:50Z</time></trkpt><trkpt lat="41.02437691953508" lon="9.255712550579656"><ele>374.0</ele><time>2026-05-02T10:27:51Z</time></trkpt><trkpt lat="41.024294441035636" lon="9.255604284854368"><ele>375.0</ele><time>2026-05-02T10:27:52Z</time></trkpt><trkpt lat="41.024214529579474" lon="9.255455076865537"><ele>376.0</ele><time>2026-05-02T10:27:53Z</time></trkpt><trkpt lat="41.024137366911525" lon="9.255295884746495"><ele>377.0</ele><time>2026-05-02T10:27:54Z</time></trkpt><trkpt lat="41.02405881415201" lon="9.255127149863302"><ele>378.0</ele><time>2026-05-02T10:27:55Z</time></trkpt><trkpt lat="41.02398701279579" lon="9.254950263303003"><ele>377.0</ele><time>2026-05-02T10:27:56Z</time></trkpt><trkpt lat="41.0239209226921" lon="9.254762818058165"><ele>376.0</ele><time>2026-05-02T10:27:57Z</time></trkpt><trkpt lat="41.02387079093266" lon="9.254572225265129"><ele>375.0</ele><time>2026-05-02T10:27:58Z</time></trkpt><trkpt lat="41.02384850035067" lon="9.254387179693078"><ele>375.0</ele><time>2026-05-02T10:27:59Z</time></trkpt><trkpt lat="41.02385225147421" lon="9.254216919117148"><ele>375.0</ele><time>2026-05-02T10:28:00Z</time></trkpt><trkpt lat="41.023874984606366" lon="9.254050718859682"><ele>375.0</ele><time>2026-05-02T10:28:01Z</time></trkpt><trkpt lat="41.0239163775324" lon="9.253865210887948"><ele>375.0</ele><time>2026-05-02T10:28:02Z</time></trkpt><trkpt lat="41.02396305458269" lon="9.253661380243711"><ele>376.6666666666667</ele><time>2026-05-02T10:28:03Z</time></trkpt><trkpt lat="41.024012500737456" lon="9.253456825560596"><ele>378.33333333333337</ele><time>2026-05-02T10:28:04Z</time></trkpt><trkpt lat="41.02406825492253" lon="9.253224405117772"><ele>380.0</ele><time>2026-05-02T10:28:05Z</time></trkpt><trkpt lat="41.02412187647376" lon="9.252976237982574"><ele>383.33333333333337</ele><time>2026-05-02T10:28:06Z</time></trkpt><trkpt lat="41.024168970171885" lon="9.252735050010408"><ele>386.6666666666667</ele><time>2026-05-02T10:28:07Z</time></trkpt><trkpt lat="41.02419884851696" lon="9.252543906817204"><ele>390.0</ele><time>2026-05-02T10:28:08Z</time></trkpt><trkpt lat="41.02421406738753" lon="9.252378935321111"><ele>391.0</ele><time>2026-05-02T10:28:09Z</time></trkpt><trkpt lat="41.02421049421642" lon="9.252156832219244"><ele>392.0</ele><time>2026-05-02T10:28:10Z</time></trkpt><trkpt lat="41.02418785418029" lon="9.251894637420218"><ele>393.0</ele><time>2026-05-02T10:28:11Z</time></trkpt><trkpt lat="41.02415820700619" lon="9.251615353258886"><ele>396.0</ele><time>2026-05-02T10:28:12Z</time></trkpt><trkpt lat="41.02413212094621" lon="9.251372006043209"><ele>399.0</ele><time>2026-05-02T10:28:13Z</time></trkpt><trkpt lat="41.02410434680952" lon="9.251154752222773"><ele>402.0</ele><time>2026-05-02T10:28:14Z</time></trkpt><trkpt lat="41.02406690325384" lon="9.250989337932882"><ele>402.0</ele><time>2026-05-02T10:28:15Z</time></trkpt><trkpt lat="41.02402757493621" lon="9.250881157783908"><ele>402.0</ele><time>2026-05-02T10:28:16Z</time></trkpt><trkpt lat="41.02397719023279" lon="9.250815684331585"><ele>402.0</ele><time>2026-05-02T10:28:17Z</time></trkpt><trkpt lat="41.023891305651084" lon="9.25078967263024"><ele>402.0</ele><time>2026-05-02T10:28:18Z</time></trkpt><trkpt lat="41.02378457948796" lon="9.250830967624985"><ele>402.0</ele><time>2026-05-02T10:28:19Z</time></trkpt><trkpt lat="41.023682230660086" lon="9.250886721402802"><ele>402.0</ele><time>2026-05-02T10:28:20Z</time></trkpt><trkpt lat="41.02357600693479" lon="9.250975709887458"><ele>402.0</ele><time>2026-05-02T10:28:21Z</time></trkpt><trkpt lat="41.02346323348082" lon="9.251076213682612"><ele>402.0</ele><time>2026-05-02T10:28:22Z</time></trkpt><trkpt lat="41.02333069645072" lon="9.251163283001056"><ele>402.0</ele><time>2026-05-02T10:28:23Z</time></trkpt><trkpt lat="41.02322083914271" lon="9.251268559204448"><ele>403.0</ele><time>2026-05-02T10:28:24Z</time></trkpt><trkpt lat="41.02310439184563" lon="9.251336762749222"><ele>404.0</ele><time>2026-05-02T10:28:25Z</time></trkpt><trkpt lat="41.02301800073505" lon="9.2513954495777"><ele>405.0</ele><time>2026-05-02T10:28:26Z</time></trkpt><trkpt lat="41.022942882995984" lon="9.251439053474797"><ele>406.0</ele><time>2026-05-02T10:28:27Z</time></trkpt><trkpt lat="41.022869102777" lon="9.251353694274036"><ele>407.0</ele><time>2026-05-02T10:28:28Z</time></trkpt><trkpt lat="41.022808555013775" lon="9.25126158577314"><ele>407.0</ele><time>2026-05-02T10:28:29Z</time></trkpt><trkpt lat="41.02273634917198" lon="9.251162950345236"><ele>407.0</ele><time>2026-05-02T10:28:30Z</time></trkpt><trkpt lat="41.02267581463163" lon="9.251060455815177"><ele>407.0</ele><time>2026-05-02T10:28:31Z</time></trkpt><trkpt lat="41.02260558883574" lon="9.2509381417615"><ele>407.0</ele><time>2026-05-02T10:28:32Z</time></trkpt><trkpt lat="41.022544831615086" lon="9.250771702671523"><ele>406.5</ele><time>2026-05-02T10:28:33Z</time></trkpt><trkpt lat="41.02249573097274" lon="9.25057108207854"><ele>406.0</ele><time>2026-05-02T10:28:34Z</time></trkpt><trkpt lat="41.022468480024656" lon="9.250382697458258"><ele>405.5</ele><time>2026-05-02T10:28:35Z</time></trkpt><trkpt lat="41.022458732625665" lon="9.250219915131266"><ele>405.0</ele><time>2026-05-02T10:28:36Z</time></trkpt><trkpt lat="41.02244395285663" lon="9.250036840242581"><ele>405.0</ele><time>2026-05-02T10:28:37Z</time></trkpt><trkpt lat="41.022411222685406" lon="9.249822792067262"><ele>405.0</ele><time>2026-05-02T10:28:38Z</time></trkpt><trkpt lat="41.02239626183814" lon="9.249583517290949"><ele>405.0</ele><time>2026-05-02T10:28:39Z</time></trkpt><trkpt lat="41.02236415310627" lon="9.24934171561887"><ele>407.66666666666663</ele><time>2026-05-02T10:28:40Z</time></trkpt><trkpt lat="41.022324307361174" lon="9.249129294293407"><ele>410.3333333333333</ele><time>2026-05-02T10:28:41Z</time></trkpt><trkpt lat="41.02227941497235" lon="9.248920693398945"><ele>413.0</ele><time>2026-05-02T10:28:42Z</time></trkpt><trkpt lat="41.02219579580756" lon="9.248685818351861"><ele>414.3333333333333</ele><time>2026-05-02T10:28:43Z</time></trkpt><trkpt lat="41.02210144900802" lon="9.248454236686092"><ele>415.66666666666663</ele><time>2026-05-02T10:28:44Z</time></trkpt><trkpt lat="41.02200849120621" lon="9.248233018120064"><ele>417.0</ele><time>2026-05-02T10:28:45Z</time></trkpt><trkpt lat="41.021928106573064" lon="9.248031628410969"><ele>417.75</ele><time>2026-05-02T10:28:46Z</time></trkpt><trkpt lat="41.021869341831646" lon="9.247838204891337"><ele>418.5</ele><time>2026-05-02T10:28:47Z</time></trkpt><trkpt lat="41.02184323751926" lon="9.247649790036403"><ele>419.25</ele><time>2026-05-02T10:28:48Z</time></trkpt><trkpt lat="41.021842661610734" lon="9.247458836040446"><ele>420.0</ele><time>2026-05-02T10:28:49Z</time></trkpt><trkpt lat="41.02184552087029" lon="9.247259368564576"><ele>420.5</ele><time>2026-05-02T10:28:50Z</time></trkpt><trkpt lat="41.0218643468084" lon="9.247105464909236"><ele>421.0</ele><time>2026-05-02T10:28:51Z</time></trkpt><trkpt lat="41.02184747772401" lon="9.246971090071447"><ele>421.5</ele><time>2026-05-02T10:28:52Z</time></trkpt><trkpt lat="41.02177711044664" lon="9.246820565612675"><ele>422.0</ele><time>2026-05-02T10:28:53Z</time></trkpt><trkpt lat="41.021678069489596" lon="9.246660484565542"><ele>422.66666666666663</ele><time>2026-05-02T10:28:54Z</time></trkpt><trkpt lat="41.021580399697406" lon="9.246454359434129"><ele>423.33333333333337</ele><time>2026-05-02T10:28:55Z</time></trkpt><trkpt lat="41.02146268054409" lon="9.246245206750912"><ele>424.0</ele><time>2026-05-02T10:28:56Z</time></trkpt><trkpt lat="41.02132968516114" lon="9.246011795905856"><ele>424.0</ele><time>2026-05-02T10:28:57Z</time></trkpt><trkpt lat="41.02117501308853" lon="9.245781692175697"><ele>424.0</ele><time>2026-05-02T10:28:58Z</time></trkpt><trkpt lat="41.02102469032108" lon="9.245569235775603"><ele>423.6666666666667</ele><time>2026-05-02T10:28:59Z</time></trkpt><trkpt lat="41.02090340935308" lon="9.245367689748544"><ele>423.33333333333337</ele><time>2026-05-02T10:29:00Z</time></trkpt><trkpt lat="41.020776785856114" lon="9.245129992518246"><ele>423.0</ele><time>2026-05-02T10:29:01Z</time></trkpt><trkpt lat="41.02064632813586" lon="9.244874301382069"><ele>424.66666666666663</ele><time>2026-05-02T10:29:02Z</time></trkpt><trkpt lat="41.02054179435903" lon="9.244648141438047"><ele>426.3333333333333</ele><time>2026-05-02T10:29:03Z</time></trkpt><trkpt lat="41.02046526800796" lon="9.244478880418507"><ele>428.0</ele><time>2026-05-02T10:29:04Z</time></trkpt><trkpt lat="41.02042950401631" lon="9.244353828644737"><ele>428.0</ele><time>2026-05-02T10:29:05Z</time></trkpt><trkpt lat="41.020414621373824" lon="9.244230266417642"><ele>428.0</ele><time>2026-05-02T10:29:06Z</time></trkpt><trkpt lat="41.020421834719734" lon="9.244091523287478"><ele>428.0</ele><time>2026-05-02T10:29:07Z</time></trkpt><trkpt lat="41.020456752973985" lon="9.243923075844112"><ele>428.0</ele><time>2026-05-02T10:29:08Z</time></trkpt><trkpt lat="41.02047722135898" lon="9.243710209925805"><ele>430.0</ele><time>2026-05-02T10:29:09Z</time></trkpt><trkpt lat="41.02051228388352" lon="9.243480342196225"><ele>432.0</ele><time>2026-05-02T10:29:10Z</time></trkpt><trkpt lat="41.020543075617375" lon="9.243238241054085"><ele>434.0</ele><time>2026-05-02T10:29:11Z</time></trkpt><trkpt lat="41.02057252493176" lon="9.242972051842516"><ele>434.0</ele><time>2026-05-02T10:29:12Z</time></trkpt><trkpt lat="41.020596865518975" lon="9.24274057774158"><ele>434.0</ele><time>2026-05-02T10:29:13Z</time></trkpt><trkpt lat="41.02061658231116" lon="9.2424754460161"><ele>434.0</ele><time>2026-05-02T10:29:14Z</time></trkpt><trkpt lat="41.02063357580099" lon="9.24220609864215"><ele>434.0</ele><time>2026-05-02T10:29:15Z</time></trkpt><trkpt lat="41.02064656204033" lon="9.241983872110918"><ele>434.0</ele><time>2026-05-02T10:29:16Z</time></trkpt><trkpt lat="41.0206546710989" lon="9.24181791590114"><ele>434.0</ele><time>2026-05-02T10:29:17Z</time></trkpt><trkpt lat="41.02066339457849" lon="9.241638284060386"><ele>434.0</ele><time>2026-05-02T10:29:18Z</time></trkpt><trkpt lat="41.020688884374856" lon="9.241434753955758"><ele>433.3333333333333</ele><time>2026-05-02T10:29:19Z</time></trkpt><trkpt lat="41.020703552799276" lon="9.2412117599489"><ele>432.66666666666663</ele><time>2026-05-02T10:29:20Z</time></trkpt><trkpt lat="41.02071790345667" lon="9.240993597698084"><ele>432.0</ele><time>2026-05-02T10:29:21Z</time></trkpt><trkpt lat="41.020730903062336" lon="9.240833560193268"><ele>432.0</ele><time>2026-05-02T10:29:22Z</time></trkpt><trkpt lat="41.020745450162586" lon="9.240692107183563"><ele>432.0</ele><time>2026-05-02T10:29:23Z</time></trkpt><trkpt lat="41.020746655297685" lon="9.240517041871806"><ele>432.0</ele><time>2026-05-02T10:29:24Z</time></trkpt><trkpt lat="41.02076207464697" lon="9.240298500095728"><ele>432.0</ele><time>2026-05-02T10:29:25Z</time></trkpt><trkpt lat="41.020791429868844" lon="9.24009678628934"><ele>431.25</ele><time>2026-05-02T10:29:26Z</time></trkpt><trkpt lat="41.02080390288056" lon="9.23990488896697"><ele>430.5</ele><time>2026-05-02T10:29:27Z</time></trkpt><trkpt lat="41.02081730130314" lon="9.2397360213612"><ele>429.75</ele><time>2026-05-02T10:29:28Z</time></trkpt><trkpt lat="41.02082698184896" lon="9.239582839938556"><ele>429.0</ele><time>2026-05-02T10:29:29Z</time></trkpt><trkpt lat="41.02081352696721" lon="9.239448206719828"><ele>428.6</ele><time>2026-05-02T10:29:30Z</time></trkpt><trkpt lat="41.02082162279665" lon="9.239334198807452"><ele>428.2</ele><time>2026-05-02T10:29:31Z</time></trkpt><trkpt lat="41.020781231890425" lon="9.23920572229469"><ele>427.80000000000007</ele><time>2026-05-02T10:29:32Z</time></trkpt><trkpt lat="41.02070901024187" lon="9.23908137408181"><ele>427.40000000000003</ele><time>2026-05-02T10:29:33Z</time></trkpt><trkpt lat="41.02061592101063" lon="9.238965796577206"><ele>427.0</ele><time>2026-05-02T10:29:34Z</time></trkpt><trkpt lat="41.020510893506604" lon="9.238842758488797"><ele>426.6666666666667</ele><time>2026-05-02T10:29:35Z</time></trkpt><trkpt lat="41.02040149284008" lon="9.23871259596378"><ele>426.33333333333337</ele><time>2026-05-02T10:29:36Z</time></trkpt><trkpt lat="41.02028894827689" lon="9.238572577687295"><ele>426.0</ele><time>2026-05-02T10:29:37Z</time></trkpt><trkpt lat="41.02017700627191" lon="9.23844355362971"><ele>426.0</ele><time>2026-05-02T10:29:38Z</time></trkpt><trkpt lat="41.02008700178411" lon="9.238331919075106"><ele>426.0</ele><time>2026-05-02T10:29:39Z</time></trkpt><trkpt lat="41.02001805937907" lon="9.238210470377123"><ele>426.0</ele><time>2026-05-02T10:29:40Z</time></trkpt><trkpt lat="41.0200157256361" lon="9.23802157522404"><ele>426.0</ele><time>2026-05-02T10:29:42Z</time></trkpt><trkpt lat="41.020014083766846" lon="9.237840969787486"><ele>426.5</ele><time>2026-05-02T10:29:43Z</time></trkpt><trkpt lat="41.01999955913041" lon="9.237639802181858"><ele>427.0</ele><time>2026-05-02T10:29:44Z</time></trkpt><trkpt lat="41.02000621166449" lon="9.237475659367067"><ele>427.5</ele><time>2026-05-02T10:29:45Z</time></trkpt><trkpt lat="41.02002097723087" lon="9.237349571838015"><ele>428.0</ele><time>2026-05-02T10:29:46Z</time></trkpt><trkpt lat="41.02002385738884" lon="9.237236579954285"><ele>428.3333333333333</ele><time>2026-05-02T10:29:47Z</time></trkpt><trkpt lat="41.020007569422965" lon="9.237138807806708"><ele>428.66666666666663</ele><time>2026-05-02T10:29:48Z</time></trkpt><trkpt lat="41.020013441457166" lon="9.237055247240747"><ele>429.0</ele><time>2026-05-02T10:29:49Z</time></trkpt><trkpt lat="41.01993836173189" lon="9.237079468747108"><ele>429.33333333333337</ele><time>2026-05-02T10:29:54Z</time></trkpt><trkpt lat="41.01990558377314" lon="9.237169571903268"><ele>429.6666666666667</ele><time>2026-05-02T10:30:32Z</time></trkpt><trkpt lat="41.01988580698927" lon="9.23726301826827"><ele>430.0</ele><time>2026-05-02T10:30:34Z</time></trkpt><trkpt lat="41.01987366231652" lon="9.237402171475468"><ele>427.6</ele><time>2026-05-02T10:30:36Z</time></trkpt><trkpt lat="41.01982686542607" lon="9.237546847025687"><ele>425.2</ele><time>2026-05-02T10:30:38Z</time></trkpt><trkpt lat="41.0197342286441" lon="9.23766693435073"><ele>422.79999999999995</ele><time>2026-05-02T10:30:40Z</time></trkpt><trkpt lat="41.01966834360325" lon="9.237720594667886"><ele>420.4</ele><time>2026-05-02T10:30:41Z</time></trkpt><trkpt lat="41.01959794421363" lon="9.237755845138599"><ele>418.0</ele><time>2026-05-02T10:30:42Z</time></trkpt><trkpt lat="41.019517917741375" lon="9.237781876627588"><ele>418.0</ele><time>2026-05-02T10:30:43Z</time></trkpt><trkpt lat="41.01943256543742" lon="9.23778495152949"><ele>418.0</ele><time>2026-05-02T10:30:44Z</time></trkpt><trkpt lat="41.019343980258334" lon="9.237771922245223"><ele>418.0</ele><time>2026-05-02T10:30:45Z</time></trkpt><trkpt lat="41.01924467622462" lon="9.237760623517659"><ele>418.0</ele><time>2026-05-02T10:30:46Z</time></trkpt><trkpt lat="41.019145263797625" lon="9.237750322953525"><ele>418.0</ele><time>2026-05-02T10:30:47Z</time></trkpt><trkpt lat="41.0190443351701" lon="9.237742799764835"><ele>415.4</ele><time>2026-05-02T10:30:48Z</time></trkpt><trkpt lat="41.01894449311414" lon="9.237738537724828"><ele>412.79999999999995</ele><time>2026-05-02T10:30:49Z</time></trkpt><trkpt lat="41.01884937679085" lon="9.237731094540573"><ele>410.2</ele><time>2026-05-02T10:30:50Z</time></trkpt><trkpt lat="41.01876063638179" lon="9.237719738064753"><ele>407.6</ele><time>2026-05-02T10:30:51Z</time></trkpt><trkpt lat="41.0186764709891" lon="9.237682157224945"><ele>405.0</ele><time>2026-05-02T10:30:52Z</time></trkpt><trkpt lat="41.01860342492758" lon="9.237619349045202"><ele>405.0</ele><time>2026-05-02T10:30:53Z</time></trkpt><trkpt lat="41.0185445807911" lon="9.237529501196333"><ele>405.0</ele><time>2026-05-02T10:30:54Z</time></trkpt><trkpt lat="41.01850725016287" lon="9.237424946395233"><ele>405.0</ele><time>2026-05-02T10:30:55Z</time></trkpt><trkpt lat="41.01846917448222" lon="9.23731379365016"><ele>405.0</ele><time>2026-05-02T10:30:56Z</time></trkpt><trkpt lat="41.01844911045022" lon="9.237198146607243"><ele>405.0</ele><time>2026-05-02T10:30:57Z</time></trkpt><trkpt lat="41.01840194435109" lon="9.237094025473821"><ele>405.6</ele><time>2026-05-02T10:30:58Z</time></trkpt><trkpt lat="41.01835032876654" lon="9.236995637890915"><ele>406.2</ele><time>2026-05-02T10:30:59Z</time></trkpt><trkpt lat="41.01829344027545" lon="9.236901262800563"><ele>406.79999999999995</ele><time>2026-05-02T10:31:00Z</time></trkpt><trkpt lat="41.01819632532918" lon="9.236866928988587"><ele>407.4</ele><time>2026-05-02T10:31:01Z</time></trkpt><trkpt lat="41.018113336292565" lon="9.236780956396016"><ele>408.0</ele><time>2026-05-02T10:31:02Z</time></trkpt><trkpt lat="41.01801008070147" lon="9.236729895145027"><ele>409.0</ele><time>2026-05-02T10:31:03Z</time></trkpt><trkpt lat="41.01789184435742" lon="9.23674086212398"><ele>410.0</ele><time>2026-05-02T10:31:04Z</time></trkpt><trkpt lat="41.01778532439707" lon="9.236765273965705"><ele>411.0</ele><time>2026-05-02T10:31:05Z</time></trkpt><trkpt lat="41.0176728919596" lon="9.23680424971985"><ele>412.0</ele><time>2026-05-02T10:31:06Z</time></trkpt><trkpt lat="41.01756241815046" lon="9.236852922394997"><ele>412.25</ele><time>2026-05-02T10:31:07Z</time></trkpt><trkpt lat="41.01746030476795" lon="9.236910162734079"><ele>412.5</ele><time>2026-05-02T10:31:08Z</time></trkpt><trkpt lat="41.01739332945896" lon="9.237025845496873"><ele>412.75</ele><time>2026-05-02T10:31:09Z</time></trkpt><trkpt lat="41.01733043470527" lon="9.237159839534996"><ele>413.0</ele><time>2026-05-02T10:31:10Z</time></trkpt><trkpt lat="41.01725278428478" lon="9.23732665856251"><ele>413.0</ele><time>2026-05-02T10:31:11Z</time></trkpt><trkpt lat="41.01717731964987" lon="9.237500247784693"><ele>413.0</ele><time>2026-05-02T10:31:12Z</time></trkpt><trkpt lat="41.01710011984862" lon="9.237670868491321"><ele>413.0</ele><time>2026-05-02T10:31:13Z</time></trkpt><trkpt lat="41.01701366305541" lon="9.237839779342403"><ele>413.0</ele><time>2026-05-02T10:31:14Z</time></trkpt><trkpt lat="41.01691226904168" lon="9.23799433866789"><ele>413.0</ele><time>2026-05-02T10:31:15Z</time></trkpt><trkpt lat="41.01681238965421" lon="9.238142569190758"><ele>413.0</ele><time>2026-05-02T10:31:16Z</time></trkpt><trkpt lat="41.0167214499077" lon="9.238282112132477"><ele>413.0</ele><time>2026-05-02T10:31:17Z</time></trkpt><trkpt lat="41.01664085227265" lon="9.238425007423029"><ele>413.0</ele><time>2026-05-02T10:31:18Z</time></trkpt><trkpt lat="41.01658360885689" lon="9.238614793330022"><ele>413.0</ele><time>2026-05-02T10:31:19Z</time></trkpt><trkpt lat="41.01653424901763" lon="9.23881794902707"><ele>413.0</ele><time>2026-05-02T10:31:20Z</time></trkpt><trkpt lat="41.01648879891856" lon="9.23903528266081"><ele>409.25</ele><time>2026-05-02T10:31:21Z</time></trkpt><trkpt lat="41.01644323899679" lon="9.239240905311645"><ele>405.5</ele><time>2026-05-02T10:31:22Z</time></trkpt><trkpt lat="41.01639254009992" lon="9.239415147626982"><ele>401.75</ele><time>2026-05-02T10:31:23Z</time></trkpt><trkpt lat="41.01632292103807" lon="9.23955585284347"><ele>398.0</ele><time>2026-05-02T10:31:24Z</time></trkpt><trkpt lat="41.01623905154703" lon="9.239691055773088"><ele>398.0</ele><time>2026-05-02T10:31:25Z</time></trkpt><trkpt lat="41.01615890069547" lon="9.239798157624016"><ele>398.0</ele><time>2026-05-02T10:31:26Z</time></trkpt><trkpt lat="41.0160690484772" lon="9.23984599845258"><ele>398.0</ele><time>2026-05-02T10:31:27Z</time></trkpt><trkpt lat="41.01596420622138" lon="9.23990006873724"><ele>398.0</ele><time>2026-05-02T10:31:28Z</time></trkpt><trkpt lat="41.01585727766015" lon="9.23993970991907"><ele>398.0</ele><time>2026-05-02T10:31:29Z</time></trkpt><trkpt lat="41.01574223557571" lon="9.23997645132611"><ele>395.25</ele><time>2026-05-02T10:31:30Z</time></trkpt><trkpt lat="41.015609094243004" lon="9.240027491622758"><ele>392.5</ele><time>2026-05-02T10:31:31Z</time></trkpt><trkpt lat="41.015476148968176" lon="9.240087656774081"><ele>389.75</ele><time>2026-05-02T10:31:32Z</time></trkpt><trkpt lat="41.015353306180515" lon="9.24015454742637"><ele>387.0</ele><time>2026-05-02T10:31:33Z</time></trkpt><trkpt lat="41.015244230037666" lon="9.240216199190133"><ele>387.0</ele><time>2026-05-02T10:31:34Z</time></trkpt><trkpt lat="41.01514475710416" lon="9.240274826527397"><ele>387.0</ele><time>2026-05-02T10:31:35Z</time></trkpt><trkpt lat="41.01504075837023" lon="9.240318721371834"><ele>387.0</ele><time>2026-05-02T10:31:36Z</time></trkpt><trkpt lat="41.014936250756016" lon="9.240314037796937"><ele>387.0</ele><time>2026-05-02T10:31:37Z</time></trkpt><trkpt lat="41.01482770149575" lon="9.240274973475856"><ele>387.0</ele><time>2026-05-02T10:31:38Z</time></trkpt><trkpt lat="41.01470825384072" lon="9.24022534691504"><ele>384.75</ele><time>2026-05-02T10:31:39Z</time></trkpt><trkpt lat="41.014583612857955" lon="9.24017896746116"><ele>382.5</ele><time>2026-05-02T10:31:40Z</time></trkpt><trkpt lat="41.01445764087582" lon="9.240144084054469"><ele>380.25</ele><time>2026-05-02T10:31:41Z</time></trkpt><trkpt lat="41.01432268513362" lon="9.240119030023797"><ele>378.0</ele><time>2026-05-02T10:31:42Z</time></trkpt><trkpt lat="41.01418860550395" lon="9.240115707577479"><ele>373.0</ele><time>2026-05-02T10:31:43Z</time></trkpt><trkpt lat="41.01407515416061" lon="9.240104043442088"><ele>368.0</ele><time>2026-05-02T10:31:44Z</time></trkpt><trkpt lat="41.013969553456036" lon="9.240070391953335"><ele>363.0</ele><time>2026-05-02T10:31:45Z</time></trkpt><trkpt lat="41.01388791901223" lon="9.239998955589508"><ele>358.0</ele><time>2026-05-02T10:31:46Z</time></trkpt><trkpt lat="41.01380382997342" lon="9.239909850790626"><ele>353.0</ele><time>2026-05-02T10:31:47Z</time></trkpt><trkpt lat="41.01371283591061" lon="9.239813560450202"><ele>356.75</ele><time>2026-05-02T10:31:48Z</time></trkpt><trkpt lat="41.013620456435376" lon="9.239713400590126"><ele>360.5</ele><time>2026-05-02T10:31:49Z</time></trkpt><trkpt lat="41.013527607768204" lon="9.239620800130979"><ele>364.25</ele><time>2026-05-02T10:31:50Z</time></trkpt><trkpt lat="41.01343585999195" lon="9.239535117174613"><ele>368.0</ele><time>2026-05-02T10:31:51Z</time></trkpt><trkpt lat="41.01334599684159" lon="9.239451428365266"><ele>361.79999999999995</ele><time>2026-05-02T10:31:52Z</time></trkpt><trkpt lat="41.013257226666305" lon="9.239368755830707"><ele>355.6</ele><time>2026-05-02T10:31:53Z</time></trkpt><trkpt lat="41.01316081575887" lon="9.239302331813317"><ele>349.4</ele><time>2026-05-02T10:31:54Z</time></trkpt><trkpt lat="41.01308509566993" lon="9.239206811251506"><ele>343.20000000000005</ele><time>2026-05-02T10:31:55Z</time></trkpt><trkpt lat="41.01301087525106" lon="9.23910852509889"><ele>337.0</ele><time>2026-05-02T10:31:56Z</time></trkpt><trkpt lat="41.01295774650191" lon="9.238987519790992"><ele>336.6</ele><time>2026-05-02T10:31:57Z</time></trkpt><trkpt lat="41.01293268877591" lon="9.238850833741182"><ele>336.20000000000005</ele><time>2026-05-02T10:31:58Z</time></trkpt><trkpt lat="41.01291021640307" lon="9.238711914656767"><ele>335.8</ele><time>2026-05-02T10:31:59Z</time></trkpt><trkpt lat="41.012888769734005" lon="9.238575340583763"><ele>335.4</ele><time>2026-05-02T10:32:00Z</time></trkpt><trkpt lat="41.01287235164875" lon="9.238437921635338"><ele>335.0</ele><time>2026-05-02T10:32:01Z</time></trkpt><trkpt lat="41.012868604061055" lon="9.238298724392825"><ele>335.0</ele><time>2026-05-02T10:32:02Z</time></trkpt><trkpt lat="41.012890222214594" lon="9.238167736548201"><ele>335.0</ele><time>2026-05-02T10:32:03Z</time></trkpt><trkpt lat="41.012952192652854" lon="9.238057604635317"><ele>335.0</ele><time>2026-05-02T10:32:04Z</time></trkpt><trkpt lat="41.01303149681189" lon="9.237945172883142"><ele>335.0</ele><time>2026-05-02T10:32:05Z</time></trkpt><trkpt lat="41.013106470150284" lon="9.237818758339392"><ele>335.0</ele><time>2026-05-02T10:32:06Z</time></trkpt><trkpt lat="41.01316088606737" lon="9.237685956452403"><ele>336.25</ele><time>2026-05-02T10:32:07Z</time></trkpt><trkpt lat="41.01317031513525" lon="9.237547542634136"><ele>337.5</ele><time>2026-05-02T10:32:08Z</time></trkpt><trkpt lat="41.013141883020964" lon="9.237403440311807"><ele>338.75</ele><time>2026-05-02T10:32:09Z</time></trkpt><trkpt lat="41.01308348374501" lon="9.237260137720249"><ele>340.0</ele><time>2026-05-02T10:32:10Z</time></trkpt><trkpt lat="41.01303002320693" lon="9.237115496018175"><ele>340.0</ele><time>2026-05-02T10:32:11Z</time></trkpt><trkpt lat="41.0129512734646" lon="9.236987593104363"><ele>340.0</ele><time>2026-05-02T10:32:12Z</time></trkpt><trkpt lat="41.01283711493731" lon="9.23687769627338"><ele>340.0</ele><time>2026-05-02T10:32:13Z</time></trkpt><trkpt lat="41.01270564102695" lon="9.236788964134396"><ele>340.0</ele><time>2026-05-02T10:32:14Z</time></trkpt><trkpt lat="41.01258270315227" lon="9.23671260101322"><ele>337.75</ele><time>2026-05-02T10:32:15Z</time></trkpt><trkpt lat="41.012468669510085" lon="9.236638912635819"><ele>335.5</ele><time>2026-05-02T10:32:16Z</time></trkpt><trkpt lat="41.01235219529658" lon="9.236546794803326"><ele>333.25</ele><time>2026-05-02T10:32:17Z</time></trkpt><trkpt lat="41.012242197917935" lon="9.236426635597352"><ele>331.0</ele><time>2026-05-02T10:32:18Z</time></trkpt><trkpt lat="41.01214963892228" lon="9.236298496687644"><ele>334.6</ele><time>2026-05-02T10:32:19Z</time></trkpt><trkpt lat="41.012073022540584" lon="9.236171678559128"><ele>338.20000000000005</ele><time>2026-05-02T10:32:20Z</time></trkpt><trkpt lat="41.01201733785696" lon="9.236034483416795"><ele>341.79999999999995</ele><time>2026-05-02T10:32:21Z</time></trkpt><trkpt lat="41.01197879844921" lon="9.23589897802857"><ele>345.4</ele><time>2026-05-02T10:32:22Z</time></trkpt><trkpt lat="41.01194028377428" lon="9.235789570219321"><ele>349.0</ele><time>2026-05-02T10:32:23Z</time></trkpt><trkpt lat="41.01187547513098" lon="9.235743395775664"><ele>349.0</ele><time>2026-05-02T10:32:24Z</time></trkpt><trkpt lat="41.011796849168036" lon="9.235768412202411"><ele>349.0</ele><time>2026-05-02T10:32:25Z</time></trkpt><trkpt lat="41.01171892165074" lon="9.235865722332447"><ele>349.0</ele><time>2026-05-02T10:32:26Z</time></trkpt><trkpt lat="41.01166784668778" lon="9.235993985481372"><ele>349.0</ele><time>2026-05-02T10:32:27Z</time></trkpt><trkpt lat="41.01162785427029" lon="9.236136774152612"><ele>349.0</ele><time>2026-05-02T10:32:28Z</time></trkpt><trkpt lat="41.01159596778568" lon="9.236289044695196"><ele>351.25</ele><time>2026-05-02T10:32:29Z</time></trkpt><trkpt lat="41.01159886832511" lon="9.236443497268581"><ele>353.5</ele><time>2026-05-02T10:32:30Z</time></trkpt><trkpt lat="41.011607023621856" lon="9.236598335470793"><ele>355.75</ele><time>2026-05-02T10:32:31Z</time></trkpt><trkpt lat="41.01160274023951" lon="9.236759108786941"><ele>358.0</ele><time>2026-05-02T10:32:32Z</time></trkpt><trkpt lat="41.01159572069175" lon="9.236923244355982"><ele>358.0</ele><time>2026-05-02T10:32:33Z</time></trkpt><trkpt lat="41.011586930251205" lon="9.237080941106788"><ele>358.0</ele><time>2026-05-02T10:32:34Z</time></trkpt><trkpt lat="41.01157739085758" lon="9.237215673733976"><ele>358.0</ele><time>2026-05-02T10:32:35Z</time></trkpt><trkpt lat="41.011523070110535" lon="9.237384746220512"><ele>358.0</ele><time>2026-05-02T10:32:36Z</time></trkpt><trkpt lat="41.01146973942145" lon="9.237526649172194"><ele>353.0</ele><time>2026-05-02T10:32:37.001Z</time></trkpt><trkpt lat="41.01140756473996" lon="9.237637520294038"><ele>348.0</ele><time>2026-05-02T10:32:38.001Z</time></trkpt><trkpt lat="41.01132235699023" lon="9.23769944401484"><ele>343.0</ele><time>2026-05-02T10:32:39.001Z</time></trkpt><trkpt lat="41.011208303822244" lon="9.23771690040585"><ele>338.0</ele><time>2026-05-02T10:32:40.001Z</time></trkpt><trkpt lat="41.011085376212534" lon="9.237712211085553"><ele>333.0</ele><time>2026-05-02T10:32:41.001Z</time></trkpt><trkpt lat="41.010990026348864" lon="9.237748260332635"><ele>333.0</ele><time>2026-05-02T10:32:42.001Z</time></trkpt><trkpt lat="41.01094127009816" lon="9.237841087624096"><ele>333.0</ele><time>2026-05-02T10:32:43.001Z</time></trkpt><trkpt lat="41.01091691804705" lon="9.237961538085795"><ele>333.0</ele><time>2026-05-02T10:32:44.001Z</time></trkpt><trkpt lat="41.01088366672764" lon="9.238107501404524"><ele>333.0</ele><time>2026-05-02T10:32:45.001Z</time></trkpt><trkpt lat="41.01081725791646" lon="9.2382382603082"><ele>333.0</ele><time>2026-05-02T10:32:46.001Z</time></trkpt><trkpt lat="41.01074771050331" lon="9.238373220281364"><ele>329.2</ele><time>2026-05-02T10:32:47.001Z</time></trkpt><trkpt lat="41.0106767747404" lon="9.238502870725059"><ele>325.4</ele><time>2026-05-02T10:32:48.001Z</time></trkpt><trkpt lat="41.0106165874549" lon="9.238623810336152"><ele>321.59999999999997</ele><time>2026-05-02T10:32:49.001Z</time></trkpt><trkpt lat="41.01055456387488" lon="9.238725959895536"><ele>317.79999999999995</ele><time>2026-05-02T10:32:50.001Z</time></trkpt><trkpt lat="41.01047746356256" lon="9.23880068423681"><ele>314.0</ele><time>2026-05-02T10:32:51.001Z</time></trkpt><trkpt lat="41.01038039521431" lon="9.238800682214642"><ele>314.0</ele><time>2026-05-02T10:32:52.001Z</time></trkpt><trkpt lat="41.01027702361586" lon="9.2387257646161"><ele>314.0</ele><time>2026-05-02T10:32:53.001Z</time></trkpt><trkpt lat="41.01017020279594" lon="9.238646953219886"><ele>314.0</ele><time>2026-05-02T10:32:54.001Z</time></trkpt><trkpt lat="41.010057956148586" lon="9.238576526858846"><ele>314.0</ele><time>2026-05-02T10:32:55.001Z</time></trkpt><trkpt lat="41.009939313602835" lon="9.238510954084244"><ele>311.0</ele><time>2026-05-02T10:32:56.001Z</time></trkpt><trkpt lat="41.00981672207" lon="9.238459296032284"><ele>308.0</ele><time>2026-05-02T10:32:57.001Z</time></trkpt><trkpt lat="41.00969353538476" lon="9.238422650295245"><ele>305.0</ele><time>2026-05-02T10:32:58.001Z</time></trkpt><trkpt lat="41.00957683875286" lon="9.238408343628944"><ele>302.0</ele><time>2026-05-02T10:32:59Z</time></trkpt><trkpt lat="41.009470869224415" lon="9.238433233094026"><ele>302.0</ele><time>2026-05-02T10:33:00Z</time></trkpt><trkpt lat="41.00937026173351" lon="9.238512376860191"><ele>302.0</ele><time>2026-05-02T10:33:01Z</time></trkpt><trkpt lat="41.00928082595106" lon="9.238629173934822"><ele>302.0</ele><time>2026-05-02T10:33:02Z</time></trkpt><trkpt lat="41.00920521529999" lon="9.238763490355648"><ele>302.0</ele><time>2026-05-02T10:33:03Z</time></trkpt><trkpt lat="41.00914846524954" lon="9.238899919011923"><ele>303.2</ele><time>2026-05-02T10:33:04Z</time></trkpt><trkpt lat="41.00911857564525" lon="9.239041262388563"><ele>304.4</ele><time>2026-05-02T10:33:05Z</time></trkpt><trkpt lat="41.009132541641094" lon="9.239180775026554"><ele>305.6</ele><time>2026-05-02T10:33:06Z</time></trkpt><trkpt lat="41.009175780121105" lon="9.239306724022235"><ele>306.8</ele><time>2026-05-02T10:33:07Z</time></trkpt><trkpt lat="41.00923284805279" lon="9.239427555559525"><ele>308.0</ele><time>2026-05-02T10:33:08Z</time></trkpt><trkpt lat="41.00927433059154" lon="9.239551954999218"><ele>308.0</ele><time>2026-05-02T10:33:09Z</time></trkpt><trkpt lat="41.00929822459834" lon="9.23969315436494"><ele>308.0</ele><time>2026-05-02T10:33:10Z</time></trkpt><trkpt lat="41.009305541895415" lon="9.239829804275564"><ele>308.0</ele><time>2026-05-02T10:33:11Z</time></trkpt><trkpt lat="41.009307489512516" lon="9.23996883279919"><ele>308.0</ele><time>2026-05-02T10:33:12Z</time></trkpt><trkpt lat="41.009291810418574" lon="9.240109145683943"><ele>308.0</ele><time>2026-05-02T10:33:13Z</time></trkpt><trkpt lat="41.00925666705144" lon="9.240254804395303"><ele>309.75</ele><time>2026-05-02T10:33:14Z</time></trkpt><trkpt lat="41.00921563602567" lon="9.240410011150338"><ele>311.5</ele><time>2026-05-02T10:33:15Z</time></trkpt><trkpt lat="41.00917311263111" lon="9.240570257190518"><ele>313.25</ele><time>2026-05-02T10:33:16Z</time></trkpt><trkpt lat="41.00913199708746" lon="9.240725997298403"><ele>315.0</ele><time>2026-05-02T10:33:17Z</time></trkpt><trkpt lat="41.00909286154004" lon="9.240878060304277"><ele>319.25</ele><time>2026-05-02T10:33:18Z</time></trkpt><trkpt lat="41.00904684665326" lon="9.241021940955156"><ele>323.5</ele><time>2026-05-02T10:33:19Z</time></trkpt><trkpt lat="41.00897752014" lon="9.241145792973969"><ele>327.75</ele><time>2026-05-02T10:33:20Z</time></trkpt><trkpt lat="41.0088818640311" lon="9.24123934742367"><ele>332.0</ele><time>2026-05-02T10:33:21Z</time></trkpt><trkpt lat="41.0087553697093" lon="9.241297903440595"><ele>332.0</ele><time>2026-05-02T10:33:22Z</time></trkpt><trkpt lat="41.00862596399686" lon="9.241335562631093"><ele>332.0</ele><time>2026-05-02T10:33:23Z</time></trkpt><trkpt lat="41.00850373946195" lon="9.241371272057215"><ele>332.0</ele><time>2026-05-02T10:33:24Z</time></trkpt><trkpt lat="41.00837842237523" lon="9.241420315051931"><ele>332.0</ele><time>2026-05-02T10:33:25Z</time></trkpt><trkpt lat="41.00826238319799" lon="9.241499786276668"><ele>331.25</ele><time>2026-05-02T10:33:26Z</time></trkpt><trkpt lat="41.008162877645255" lon="9.241607489065796"><ele>330.5</ele><time>2026-05-02T10:33:27Z</time></trkpt><trkpt lat="41.008072021215945" lon="9.241735268311443"><ele>329.75</ele><time>2026-05-02T10:33:28Z</time></trkpt><trkpt lat="41.00796981121299" lon="9.241840298723691"><ele>329.0</ele><time>2026-05-02T10:33:29Z</time></trkpt><trkpt lat="41.00786864751182" lon="9.241934994517136"><ele>329.0</ele><time>2026-05-02T10:33:30Z</time></trkpt><trkpt lat="41.00780428824254" lon="9.242049518012392"><ele>329.0</ele><time>2026-05-02T10:33:31Z</time></trkpt><trkpt lat="41.00779401775884" lon="9.24219443882745"><ele>329.0</ele><time>2026-05-02T10:33:32Z</time></trkpt><trkpt lat="41.00782524149585" lon="9.242344360255512"><ele>329.0</ele><time>2026-05-02T10:33:33Z</time></trkpt><trkpt lat="41.00786082315557" lon="9.242493289215338"><ele>328.75</ele><time>2026-05-02T10:33:34Z</time></trkpt><trkpt lat="41.00788526809954" lon="9.24264699539648"><ele>328.5</ele><time>2026-05-02T10:33:35Z</time></trkpt><trkpt lat="41.00788374809916" lon="9.242816501823308"><ele>328.25</ele><time>2026-05-02T10:33:36Z</time></trkpt><trkpt lat="41.00786115800746" lon="9.24298723830258"><ele>328.0</ele><time>2026-05-02T10:33:37Z</time></trkpt><trkpt lat="41.007820728131094" lon="9.24316266979295"><ele>327.0</ele><time>2026-05-02T10:33:38Z</time></trkpt><trkpt lat="41.0077838850256" lon="9.243328869658685"><ele>326.0</ele><time>2026-05-02T10:33:39Z</time></trkpt><trkpt lat="41.007752133443155" lon="9.24348277178624"><ele>325.0</ele><time>2026-05-02T10:33:40Z</time></trkpt><trkpt lat="41.007711452325424" lon="9.243625298541922"><ele>324.0</ele><time>2026-05-02T10:33:41Z</time></trkpt><trkpt lat="41.00764841770363" lon="9.243755335429032"><ele>324.0</ele><time>2026-05-02T10:33:42Z</time></trkpt><trkpt lat="41.00756664893166" lon="9.243869687642292"><ele>324.0</ele><time>2026-05-02T10:33:43Z</time></trkpt><trkpt lat="41.00749586251401" lon="9.243993534068748"><ele>324.0</ele><time>2026-05-02T10:33:44Z</time></trkpt><trkpt lat="41.007443935122666" lon="9.24413544312355"><ele>324.0</ele><time>2026-05-02T10:33:45Z</time></trkpt><trkpt lat="41.00739927662725" lon="9.244282983900886"><ele>320.75</ele><time>2026-05-02T10:33:46Z</time></trkpt><trkpt lat="41.007354359163905" lon="9.244432017053462"><ele>317.5</ele><time>2026-05-02T10:33:47Z</time></trkpt><trkpt lat="41.007305277889515" lon="9.244582802531157"><ele>314.25</ele><time>2026-05-02T10:33:48Z</time></trkpt><trkpt lat="41.00725221045261" lon="9.244733044822308"><ele>311.0</ele><time>2026-05-02T10:33:49Z</time></trkpt><trkpt lat="41.00719801418312" lon="9.244884744641782"><ele>310.0</ele><time>2026-05-02T10:33:50Z</time></trkpt><trkpt lat="41.00714560008905" lon="9.245036862643248"><ele>309.0</ele><time>2026-05-02T10:33:51Z</time></trkpt><trkpt lat="41.00709337864149" lon="9.245192650521043"><ele>308.0</ele><time>2026-05-02T10:33:52Z</time></trkpt><trkpt lat="41.007042515124795" lon="9.245344052211582"><ele>307.0</ele><time>2026-05-02T10:33:53Z</time></trkpt><trkpt lat="41.00699173307642" lon="9.24549443939255"><ele>306.75</ele><time>2026-05-02T10:33:54Z</time></trkpt><trkpt lat="41.00694266228746" lon="9.245644267730595"><ele>306.5</ele><time>2026-05-02T10:33:55Z</time></trkpt><trkpt lat="41.006894218999214" lon="9.245793421414197"><ele>306.25</ele><time>2026-05-02T10:33:56Z</time></trkpt><trkpt lat="41.006846530252325" lon="9.245945500680744"><ele>306.0</ele><time>2026-05-02T10:33:57Z</time></trkpt><trkpt lat="41.0067989624186" lon="9.24609876047289"><ele>306.0</ele><time>2026-05-02T10:33:58Z</time></trkpt><trkpt lat="41.00675161747561" lon="9.24625441021011"><ele>306.0</ele><time>2026-05-02T10:33:59Z</time></trkpt><trkpt lat="41.00671113099535" lon="9.24640256649842"><ele>306.0</ele><time>2026-05-02T10:34:00Z</time></trkpt><trkpt lat="41.0066753147764" lon="9.24654948694656"><ele>306.0</ele><time>2026-05-02T10:34:01Z</time></trkpt><trkpt lat="41.006646565880224" lon="9.246680906946606"><ele>305.0</ele><time>2026-05-02T10:34:02Z</time></trkpt><trkpt lat="41.00659657400367" lon="9.246792456791908"><ele>304.0</ele><time>2026-05-02T10:34:03Z</time></trkpt><trkpt lat="41.006494800864026" lon="9.246855323572204"><ele>303.0</ele><time>2026-05-02T10:34:04Z</time></trkpt><trkpt lat="41.006375695998884" lon="9.246883431358738"><ele>302.0</ele><time>2026-05-02T10:34:05Z</time></trkpt><trkpt lat="41.006260832187046" lon="9.246894213810766"><ele>301.0</ele><time>2026-05-02T10:34:06Z</time></trkpt><trkpt lat="41.00618599904898" lon="9.246904879011705"><ele>301.0</ele><time>2026-05-02T10:34:07Z</time></trkpt><trkpt lat="41.00610852907321" lon="9.246923084552702"><ele>301.0</ele><time>2026-05-02T10:34:09Z</time></trkpt><trkpt lat="41.006074648967065" lon="9.246804159560119"><ele>301.0</ele><time>2026-05-02T10:34:13Z</time></trkpt><trkpt lat="41.00604922185913" lon="9.24669150207754"><ele>301.0</ele><time>2026-05-02T10:34:15Z</time></trkpt><trkpt lat="41.00596574360574" lon="9.246588919403088"><ele>301.0</ele><time>2026-05-02T10:34:17Z</time></trkpt><trkpt lat="41.005887414805734" lon="9.246558019130108"><ele>299.2</ele><time>2026-05-02T10:34:19Z</time></trkpt><trkpt lat="41.005790377466866" lon="9.246527032878141"><ele>297.40000000000003</ele><time>2026-05-02T10:34:21Z</time></trkpt><trkpt lat="41.00572587966456" lon="9.246518262961505"><ele>295.6</ele><time>2026-05-02T10:34:22Z</time></trkpt><trkpt lat="41.0056122186297" lon="9.246527719503446"><ele>293.8</ele><time>2026-05-02T10:34:24Z</time></trkpt><trkpt lat="41.005517611216504" lon="9.246526885132194"><ele>292.0</ele><time>2026-05-02T10:34:26Z</time></trkpt><trkpt lat="41.005434038704344" lon="9.24653073694808"><ele>292.0</ele><time>2026-05-02T10:34:28Z</time></trkpt><trkpt lat="41.00533835132842" lon="9.246486233715828"><ele>292.0</ele><time>2026-05-02T10:34:30Z</time></trkpt><trkpt lat="41.00524585661353" lon="9.246464650641544"><ele>292.0</ele><time>2026-05-02T10:34:32Z</time></trkpt><trkpt lat="41.00515665606891" lon="9.246420187553849"><ele>292.0</ele><time>2026-05-02T10:34:34Z</time></trkpt><trkpt lat="41.00502781915841" lon="9.24641007910013"><ele>292.0</ele><time>2026-05-02T10:34:36Z</time></trkpt><trkpt lat="41.004964147243776" lon="9.246394181138742"><ele>289.5</ele><time>2026-05-02T10:34:37Z</time></trkpt><trkpt lat="41.00484323804718" lon="9.246363727532152"><ele>287.0</ele><time>2026-05-02T10:34:39Z</time></trkpt><trkpt lat="41.004719686327405" lon="9.246386383961879"><ele>284.5</ele><time>2026-05-02T10:34:41Z</time></trkpt><trkpt lat="41.00460554624121" lon="9.246413111400587"><ele>282.0</ele><time>2026-05-02T10:34:43.001Z</time></trkpt><trkpt lat="41.004501282960696" lon="9.246375991085662"><ele>282.0</ele><time>2026-05-02T10:34:45.001Z</time></trkpt><trkpt lat="41.00439219972725" lon="9.24629638212016"><ele>282.0</ele><time>2026-05-02T10:34:47.001Z</time></trkpt><trkpt lat="41.00432673180409" lon="9.24623071502318"><ele>282.0</ele><time>2026-05-02T10:34:48.001Z</time></trkpt><trkpt lat="41.00427148084378" lon="9.246169859419592"><ele>282.0</ele><time>2026-05-02T10:34:49.001Z</time></trkpt><trkpt lat="41.00420203945671" lon="9.246125114176179"><ele>282.0</ele><time>2026-05-02T10:34:50.001Z</time></trkpt><trkpt lat="41.004110614766" lon="9.24609648943757"><ele>281.0</ele><time>2026-05-02T10:34:51.001Z</time></trkpt><trkpt lat="41.00402049344342" lon="9.246074745151425"><ele>280.0</ele><time>2026-05-02T10:34:52.001Z</time></trkpt><trkpt lat="41.00392898283457" lon="9.24605441603175"><ele>279.0</ele><time>2026-05-02T10:34:53.001Z</time></trkpt><trkpt lat="41.00384069129576" lon="9.246035792658432"><ele>278.0</ele><time>2026-05-02T10:34:54.001Z</time></trkpt><trkpt lat="41.00375968478395" lon="9.246023565378618"><ele>277.0</ele><time>2026-05-02T10:34:55.001Z</time></trkpt><trkpt lat="41.003675808861" lon="9.246010021207447"><ele>276.0</ele><time>2026-05-02T10:34:56.001Z</time></trkpt><trkpt lat="41.0035991754129" lon="9.245985536367947"><ele>276.0</ele><time>2026-05-02T10:34:57.001Z</time></trkpt><trkpt lat="41.003525163832215" lon="9.245942201085661"><ele>276.0</ele><time>2026-05-02T10:34:58.001Z</time></trkpt><trkpt lat="41.00345227148903" lon="9.245894223463077"><ele>276.0</ele><time>2026-05-02T10:34:59.001Z</time></trkpt><trkpt lat="41.00338650223399" lon="9.245845301908524"><ele>276.0</ele><time>2026-05-02T10:35:00.001Z</time></trkpt><trkpt lat="41.0033317365125" lon="9.245799065191681"><ele>276.0</ele><time>2026-05-02T10:35:01.001Z</time></trkpt><trkpt lat="41.00327042384754" lon="9.245744472227594"><ele>276.0</ele><time>2026-05-02T10:35:02.001Z</time></trkpt><trkpt lat="41.003212122536226" lon="9.245687238207223"><ele>276.0</ele><time>2026-05-02T10:35:03.001Z</time></trkpt><trkpt lat="41.00313987355525" lon="9.245647822667383"><ele>275.6666666666667</ele><time>2026-05-02T10:35:05.001Z</time></trkpt><trkpt lat="41.003026421942174" lon="9.24564453427559"><ele>275.3333333333333</ele><time>2026-05-02T10:35:07Z</time></trkpt><trkpt lat="41.00294886706185" lon="9.245655831692764"><ele>275.0</ele><time>2026-05-02T10:35:08Z</time></trkpt><trkpt lat="41.00288396476538" lon="9.245677744066398"><ele>274.66666666666663</ele><time>2026-05-02T10:35:09Z</time></trkpt><trkpt lat="41.00281383601269" lon="9.245699799596554"><ele>274.3333333333333</ele><time>2026-05-02T10:35:10Z</time></trkpt><trkpt lat="41.002743443244476" lon="9.245704000007649"><ele>274.0</ele><time>2026-05-02T10:35:11Z</time></trkpt><trkpt lat="41.002658423529255" lon="9.245717348460888"><ele>274.0</ele><time>2026-05-02T10:35:12Z</time></trkpt><trkpt lat="41.00257926594385" lon="9.245754514648661"><ele>274.0</ele><time>2026-05-02T10:35:13Z</time></trkpt><trkpt lat="41.00249477275093" lon="9.24579983400199"><ele>274.0</ele><time>2026-05-02T10:35:14Z</time></trkpt><trkpt lat="41.00241926537088" lon="9.245814108121248"><ele>274.0</ele><time>2026-05-02T10:35:15Z</time></trkpt><trkpt lat="41.00232942957434" lon="9.245846638912447"><ele>274.0</ele><time>2026-05-02T10:35:16Z</time></trkpt><trkpt lat="41.00226287542623" lon="9.245879638358424"><ele>274.0</ele><time>2026-05-02T10:35:17Z</time></trkpt><trkpt lat="41.002203728922524" lon="9.245914998165382"><ele>273.16666666666663</ele><time>2026-05-02T10:35:18Z</time></trkpt><trkpt lat="41.00207761977731" lon="9.245947031819185"><ele>272.3333333333333</ele><time>2026-05-02T10:35:20Z</time></trkpt><trkpt lat="41.001990173713885" lon="9.245964218912155"><ele>271.5</ele><time>2026-05-02T10:35:21Z</time></trkpt><trkpt lat="41.00191170320986" lon="9.245995143531305"><ele>270.6666666666667</ele><time>2026-05-02T10:35:22Z</time></trkpt><trkpt lat="41.001849604364885" lon="9.246022119819907"><ele>269.83333333333337</ele><time>2026-05-02T10:35:23Z</time></trkpt><trkpt lat="41.001784987805266" lon="9.246040698919574"><ele>269.0</ele><time>2026-05-02T10:35:25Z</time></trkpt><trkpt lat="41.00171847461488" lon="9.246062854538497"><ele>265.1666666666667</ele><time>2026-05-02T10:35:29Z</time></trkpt><trkpt lat="41.00164499912723" lon="9.246086876905029"><ele>261.33333333333337</ele><time>2026-05-02T10:35:31Z</time></trkpt><trkpt lat="41.00154454150536" lon="9.246065222170744"><ele>257.5</ele><time>2026-05-02T10:35:33Z</time></trkpt><trkpt lat="41.0014884055346" lon="9.246026831152983"><ele>253.66666666666669</ele><time>2026-05-02T10:35:38Z</time></trkpt><trkpt lat="41.00143106954162" lon="9.24598076096404"><ele>249.83333333333334</ele><time>2026-05-02T10:35:43Z</time></trkpt><trkpt lat="41.00136244731272" lon="9.24593061419346"><ele>246.0</ele><time>2026-05-02T10:35:46Z</time></trkpt><trkpt lat="41.00130130402448" lon="9.245829617955987"><ele>246.0</ele><time>2026-05-02T10:35:51Z</time></trkpt><trkpt lat="41.001238763944215" lon="9.245750757265045"><ele>246.0</ele><time>2026-05-02T10:35:53Z</time></trkpt><trkpt lat="41.00117565077257" lon="9.245666034120775"><ele>246.0</ele><time>2026-05-02T10:35:55Z</time></trkpt><trkpt lat="41.00109304194674" lon="9.245588136993057"><ele>246.0</ele><time>2026-05-02T10:35:57Z</time></trkpt><trkpt lat="41.00103632059717" lon="9.245509106128788"><ele>246.0</ele><time>2026-05-02T10:35:59Z</time></trkpt><trkpt lat="41.00102042137041" lon="9.245396496723005"><ele>246.0</ele><time>2026-05-02T10:36:02Z</time></trkpt><trkpt lat="41.000972606800445" lon="9.2453289744879"><ele>247.8</ele><time>2026-05-02T10:36:05Z</time></trkpt><trkpt lat="41.00092542425507" lon="9.245240634266553"><ele>249.60000000000002</ele><time>2026-05-02T10:36:09Z</time></trkpt><trkpt lat="41.00091327233794" lon="9.24513450049913"><ele>251.4</ele><time>2026-05-02T10:40:44.999Z</time></trkpt><trkpt lat="41.000892733936205" lon="9.244978971384217"><ele>253.2</ele><time>2026-05-02T10:40:46.999Z</time></trkpt><trkpt lat="41.00086977920193" lon="9.244877852718954"><ele>255.0</ele><time>2026-05-02T10:40:47.999Z</time></trkpt><trkpt lat="41.00084353578318" lon="9.244765637122551"><ele>256.0</ele><time>2026-05-02T10:40:48.999Z</time></trkpt><trkpt lat="41.0008215697524" lon="9.244649466269506"><ele>257.0</ele><time>2026-05-02T10:40:49.999Z</time></trkpt><trkpt lat="41.000811323294855" lon="9.244537301596617"><ele>258.0</ele><time>2026-05-02T10:40:50.999Z</time></trkpt><trkpt lat="41.000811243018276" lon="9.244418518541329"><ele>259.0</ele><time>2026-05-02T10:40:51.999Z</time></trkpt><trkpt lat="41.00083256583682" lon="9.244290441957588"><ele>260.0</ele><time>2026-05-02T10:40:52.999Z</time></trkpt><trkpt lat="41.00087319091944" lon="9.244165967938947"><ele>260.0</ele><time>2026-05-02T10:40:53.999Z</time></trkpt><trkpt lat="41.000926346211926" lon="9.24406120427511"><ele>260.0</ele><time>2026-05-02T10:40:54.999Z</time></trkpt><trkpt lat="41.0009919688495" lon="9.243990256439906"><ele>260.0</ele><time>2026-05-02T10:40:55.999Z</time></trkpt><trkpt lat="41.00106693109524" lon="9.243939905721316"><ele>260.0</ele><time>2026-05-02T10:40:56.999Z</time></trkpt><trkpt lat="41.0011458417547" lon="9.243904782067766"><ele>260.0</ele><time>2026-05-02T10:40:57.999Z</time></trkpt><trkpt lat="41.00123312738515" lon="9.243869785171835"><ele>260.0</ele><time>2026-05-02T10:40:58.999Z</time></trkpt><trkpt lat="41.00132464134616" lon="9.243837852275941"><ele>257.2</ele><time>2026-05-02T10:41:00Z</time></trkpt><trkpt lat="41.00142170586815" lon="9.243812274363522"><ele>254.4</ele><time>2026-05-02T10:41:01Z</time></trkpt><trkpt lat="41.001521471061096" lon="9.243783830836179"><ele>251.60000000000002</ele><time>2026-05-02T10:41:02Z</time></trkpt><trkpt lat="41.00161868578874" lon="9.243747160513804"><ele>248.8</ele><time>2026-05-02T10:41:03Z</time></trkpt><trkpt lat="41.001714341020566" lon="9.243692563819254"><ele>246.0</ele><time>2026-05-02T10:41:04Z</time></trkpt><trkpt lat="41.00180219235753" lon="9.243612429543477"><ele>246.0</ele><time>2026-05-02T10:41:05Z</time></trkpt><trkpt lat="41.001885464580184" lon="9.24349528360638"><ele>246.0</ele><time>2026-05-02T10:41:06Z</time></trkpt><trkpt lat="41.001954173525085" lon="9.243348034031099"><ele>246.0</ele><time>2026-05-02T10:41:07Z</time></trkpt><trkpt lat="41.0019925632707" lon="9.243167735621737"><ele>246.0</ele><time>2026-05-02T10:41:08Z</time></trkpt><trkpt lat="41.00201407729344" lon="9.242966408897253"><ele>242.33333333333331</ele><time>2026-05-02T10:41:09Z</time></trkpt><trkpt lat="41.00200616626174" lon="9.242762213239992"><ele>238.66666666666666</ele><time>2026-05-02T10:41:10Z</time></trkpt><trkpt lat="41.001981938745914" lon="9.242557621547071"><ele>235.0</ele><time>2026-05-02T10:41:11Z</time></trkpt><trkpt lat="41.00196935942234" lon="9.242347420468057"><ele>234.33333333333331</ele><time>2026-05-02T10:41:12Z</time></trkpt><trkpt lat="41.00196483064116" lon="9.242132999606852"><ele>233.66666666666669</ele><time>2026-05-02T10:41:13Z</time></trkpt><trkpt lat="41.00196065443964" lon="9.241909767721014"><ele>233.0</ele><time>2026-05-02T10:41:14Z</time></trkpt><trkpt lat="41.00195720319411" lon="9.241682766149577"><ele>234.0</ele><time>2026-05-02T10:41:15Z</time></trkpt><trkpt lat="41.00194946911144" lon="9.24145837887367"><ele>235.0</ele><time>2026-05-02T10:41:16Z</time></trkpt><trkpt lat="41.0019382723372" lon="9.241236550185604"><ele>236.0</ele><time>2026-05-02T10:41:17Z</time></trkpt><trkpt lat="41.00192812178121" lon="9.241038443638724"><ele>236.0</ele><time>2026-05-02T10:41:18Z</time></trkpt><trkpt lat="41.001921364710604" lon="9.240851870303002"><ele>236.0</ele><time>2026-05-02T10:41:19Z</time></trkpt><trkpt lat="41.00191108841799" lon="9.24066504774797"><ele>236.0</ele><time>2026-05-02T10:41:20Z</time></trkpt><trkpt lat="41.00189329426172" lon="9.240492529647993"><ele>236.0</ele><time>2026-05-02T10:41:21Z</time></trkpt><trkpt lat="41.00185644449998" lon="9.240324825965692"><ele>236.5</ele><time>2026-05-02T10:41:22Z</time></trkpt><trkpt lat="41.00178799830593" lon="9.240172635386292"><ele>237.0</ele><time>2026-05-02T10:41:23Z</time></trkpt><trkpt lat="41.00169357741578" lon="9.240039470309751"><ele>237.5</ele><time>2026-05-02T10:41:24Z</time></trkpt><trkpt lat="41.001576728549665" lon="9.239931573950578"><ele>238.0</ele><time>2026-05-02T10:41:25Z</time></trkpt><trkpt lat="41.00143787661159" lon="9.239858305502075"><ele>238.0</ele><time>2026-05-02T10:41:26Z</time></trkpt><trkpt lat="41.00129143299297" lon="9.239819313535772"><ele>238.0</ele><time>2026-05-02T10:41:27Z</time></trkpt><trkpt lat="41.00113647492091" lon="9.239796733928177"><ele>238.0</ele><time>2026-05-02T10:41:28Z</time></trkpt><trkpt lat="41.00098127194919" lon="9.239767413783996"><ele>235.66666666666666</ele><time>2026-05-02T10:41:29Z</time></trkpt><trkpt lat="41.00082657559704" lon="9.239728212969931"><ele>233.33333333333331</ele><time>2026-05-02T10:41:30Z</time></trkpt><trkpt lat="41.00066966967419" lon="9.239681918551195"><ele>231.0</ele><time>2026-05-02T10:41:31Z</time></trkpt><trkpt lat="41.00052226542828" lon="9.239636088165126"><ele>231.0</ele><time>2026-05-02T10:41:32Z</time></trkpt><trkpt lat="41.000391069336395" lon="9.239581866511498"><ele>231.0</ele><time>2026-05-02T10:41:33Z</time></trkpt><trkpt lat="41.000269570887426" lon="9.239506033717452"><ele>231.0</ele><time>2026-05-02T10:41:34Z</time></trkpt><trkpt lat="41.000157622136356" lon="9.239387552923693"><ele>231.0</ele><time>2026-05-02T10:41:35Z</time></trkpt><trkpt lat="41.00006669916294" lon="9.239236356263424"><ele>231.0</ele><time>2026-05-02T10:41:36Z</time></trkpt><trkpt lat="40.99999878825414" lon="9.239065839989168"><ele>231.0</ele><time>2026-05-02T10:41:37Z</time></trkpt><trkpt lat="40.99996088432318" lon="9.238874947489807"><ele>231.0</ele><time>2026-05-02T10:41:38Z</time></trkpt><trkpt lat="40.99993449060852" lon="9.23868197873414"><ele>231.0</ele><time>2026-05-02T10:41:39Z</time></trkpt><trkpt lat="40.99991577867099" lon="9.23848708753636"><ele>230.5</ele><time>2026-05-02T10:41:40Z</time></trkpt><trkpt lat="40.999903470423085" lon="9.238297169722332"><ele>230.0</ele><time>2026-05-02T10:41:41Z</time></trkpt><trkpt lat="40.99989865382253" lon="9.238108789361494"><ele>229.5</ele><time>2026-05-02T10:41:42Z</time></trkpt><trkpt lat="40.999907609359035" lon="9.237922177307412"><ele>229.0</ele><time>2026-05-02T10:41:43Z</time></trkpt><trkpt lat="40.99993206323507" lon="9.237736142345364"><ele>229.0</ele><time>2026-05-02T10:41:44Z</time></trkpt><trkpt lat="40.999982835110224" lon="9.23755609606447"><ele>229.0</ele><time>2026-05-02T10:41:44.999Z</time></trkpt><trkpt lat="41.00005763573234" lon="9.237390623541545"><ele>229.0</ele><time>2026-05-02T10:41:45.999Z</time></trkpt><trkpt lat="41.00014963146959" lon="9.237233348354001"><ele>229.0</ele><time>2026-05-02T10:41:46.999Z</time></trkpt><trkpt lat="41.00023961276977" lon="9.237068439326116"><ele>226.33333333333331</ele><time>2026-05-02T10:41:47.999Z</time></trkpt><trkpt lat="41.00032592184408" lon="9.236894147307689"><ele>223.66666666666669</ele><time>2026-05-02T10:41:48.999Z</time></trkpt><trkpt lat="41.00040982966992" lon="9.236715921219162"><ele>221.0</ele><time>2026-05-02T10:41:49.999Z</time></trkpt><trkpt lat="41.00049188325235" lon="9.236543729226254"><ele>221.0</ele><time>2026-05-02T10:41:50.999Z</time></trkpt><trkpt lat="41.000571019410756" lon="9.236377049891018"><ele>221.0</ele><time>2026-05-02T10:41:51.999Z</time></trkpt><trkpt lat="41.000651480647626" lon="9.236217329805395"><ele>221.0</ele><time>2026-05-02T10:41:52.999Z</time></trkpt><trkpt lat="41.00074048864293" lon="9.236069897215149"><ele>221.0</ele><time>2026-05-02T10:41:53.999Z</time></trkpt><trkpt lat="41.00084310111822" lon="9.235940748695107"><ele>221.0</ele><time>2026-05-02T10:41:54.999Z</time></trkpt><trkpt lat="41.000965239765854" lon="9.235836906314672"><ele>221.0</ele><time>2026-05-02T10:41:55.999Z</time></trkpt><trkpt lat="41.00109932906894" lon="9.235752257036767"><ele>221.0</ele><time>2026-05-02T10:41:56.999Z</time></trkpt><trkpt lat="41.00123812476105" lon="9.235662090286652"><ele>221.0</ele><time>2026-05-02T10:41:57.999Z</time></trkpt><trkpt lat="41.00137043857577" lon="9.235560565618908"><ele>217.5</ele><time>2026-05-02T10:41:58.999Z</time></trkpt><trkpt lat="41.001480025683904" lon="9.235428090445103"><ele>214.0</ele><time>2026-05-02T10:41:59.999Z</time></trkpt><trkpt lat="41.001556642805646" lon="9.235253249693148"><ele>210.5</ele><time>2026-05-02T10:42:00.999Z</time></trkpt><trkpt lat="41.0016034875647" lon="9.235067831166836"><ele>207.0</ele><time>2026-05-02T10:42:01.999Z</time></trkpt><trkpt lat="41.00163048448299" lon="9.234871662626102"><ele>207.33333333333331</ele><time>2026-05-02T10:42:02.999Z</time></trkpt><trkpt lat="41.001653134059396" lon="9.234670451831189"><ele>207.66666666666666</ele><time>2026-05-02T10:42:03.999Z</time></trkpt><trkpt lat="41.0016699590588" lon="9.234459714988915"><ele>208.0</ele><time>2026-05-02T10:42:04.999Z</time></trkpt><trkpt lat="41.001689841113105" lon="9.234250265649097"><ele>208.0</ele><time>2026-05-02T10:42:05.999Z</time></trkpt><trkpt lat="41.00170615445278" lon="9.234035043519464"><ele>208.0</ele><time>2026-05-02T10:42:06.999Z</time></trkpt><trkpt lat="41.00171376232474" lon="9.23383764728095"><ele>208.0</ele><time>2026-05-02T10:42:07.999Z</time></trkpt><trkpt lat="41.00168569706886" lon="9.23359582786315"><ele>203.33333333333331</ele><time>2026-05-02T10:42:08.999Z</time></trkpt><trkpt lat="41.001641907866436" lon="9.233376061764845"><ele>198.66666666666669</ele><time>2026-05-02T10:42:09.999Z</time></trkpt><trkpt lat="41.00159143431784" lon="9.233165119807948"><ele>194.0</ele><time>2026-05-02T10:42:10.999Z</time></trkpt><trkpt lat="41.00154126901355" lon="9.232950508006525"><ele>193.0</ele><time>2026-05-02T10:42:11.999Z</time></trkpt><trkpt lat="41.00149653726451" lon="9.232745081228183"><ele>192.0</ele><time>2026-05-02T10:42:12.999Z</time></trkpt><trkpt lat="41.00145108832251" lon="9.23254802454549"><ele>191.0</ele><time>2026-05-02T10:42:13.999Z</time></trkpt><trkpt lat="41.00139770901849" lon="9.232361354925139"><ele>194.0</ele><time>2026-05-02T10:42:14.999Z</time></trkpt><trkpt lat="41.0013190605144" lon="9.23219612203709"><ele>197.0</ele><time>2026-05-02T10:42:15.999Z</time></trkpt><trkpt lat="41.00121041965302" lon="9.232052053009594"><ele>200.0</ele><time>2026-05-02T10:42:16.999Z</time></trkpt><trkpt lat="41.001073270553405" lon="9.23194414171251"><ele>200.0</ele><time>2026-05-02T10:42:17.999Z</time></trkpt><trkpt lat="41.00093185715214" lon="9.231851151797617"><ele>200.0</ele><time>2026-05-02T10:42:18.999Z</time></trkpt><trkpt lat="41.00079549024165" lon="9.231754819927074"><ele>200.0</ele><time>2026-05-02T10:42:19.999Z</time></trkpt><trkpt lat="41.000660056350405" lon="9.231655103067807"><ele>198.0</ele><time>2026-05-02T10:42:20.999Z</time></trkpt><trkpt lat="41.00052359193329" lon="9.231555909261845"><ele>196.0</ele><time>2026-05-02T10:42:21.999Z</time></trkpt><trkpt lat="41.00039048214228" lon="9.231458374853377"><ele>194.0</ele><time>2026-05-02T10:42:22.999Z</time></trkpt><trkpt lat="41.00026164782517" lon="9.231349134390708"><ele>194.0</ele><time>2026-05-02T10:42:23.999Z</time></trkpt><trkpt lat="41.000141737524594" lon="9.23121586127153"><ele>194.0</ele><time>2026-05-02T10:42:24.999Z</time></trkpt><trkpt lat="41.000037341133115" lon="9.231065226805303"><ele>194.0</ele><time>2026-05-02T10:42:25.999Z</time></trkpt><trkpt lat="40.99994372146586" lon="9.230899424103711"><ele>194.0</ele><time>2026-05-02T10:42:26.999Z</time></trkpt><trkpt lat="40.99985335376685" lon="9.23072878636973"><ele>194.0</ele><time>2026-05-02T10:42:27.999Z</time></trkpt><trkpt lat="40.999772687444" lon="9.2305483643625"><ele>194.0</ele><time>2026-05-02T10:42:28.999Z</time></trkpt><trkpt lat="40.99971096247899" lon="9.230350076886122"><ele>192.0</ele><time>2026-05-02T10:42:29.999Z</time></trkpt><trkpt lat="40.99967289824619" lon="9.230142448813448"><ele>190.0</ele><time>2026-05-02T10:42:30.999Z</time></trkpt><trkpt lat="40.99965556582553" lon="9.229927443890132"><ele>188.0</ele><time>2026-05-02T10:42:31.999Z</time></trkpt><trkpt lat="40.99965324878337" lon="9.229713714852863"><ele>186.0</ele><time>2026-05-02T10:42:32.999Z</time></trkpt><trkpt lat="40.99964892514532" lon="9.229498089165237"><ele>184.0</ele><time>2026-05-02T10:42:33.999Z</time></trkpt><trkpt lat="40.99965572708268" lon="9.229272981491592"><ele>182.0</ele><time>2026-05-02T10:42:34.999Z</time></trkpt><trkpt lat="40.99965537573372" lon="9.22906024717614"><ele>184.0</ele><time>2026-05-02T10:42:35.999Z</time></trkpt><trkpt lat="40.99965300115964" lon="9.228845581084597"><ele>186.0</ele><time>2026-05-02T10:42:36.999Z</time></trkpt><trkpt lat="40.99965089046373" lon="9.228632092256886"><ele>188.0</ele><time>2026-05-02T10:42:37.999Z</time></trkpt><trkpt lat="40.999646309955445" lon="9.228423166972025"><ele>188.0</ele><time>2026-05-02T10:42:38.999Z</time></trkpt><trkpt lat="40.99963764792642" lon="9.228215836281619"><ele>188.0</ele><time>2026-05-02T10:42:39.999Z</time></trkpt><trkpt lat="40.999615679658596" lon="9.228000023268034"><ele>188.0</ele><time>2026-05-02T10:42:40.999Z</time></trkpt><trkpt lat="40.99958688973895" lon="9.2277881570816"><ele>190.0</ele><time>2026-05-02T10:42:41.999Z</time></trkpt><trkpt lat="40.999557605864084" lon="9.227576620644397"><ele>192.0</ele><time>2026-05-02T10:42:42.999Z</time></trkpt><trkpt lat="40.999528002379144" lon="9.227362477688196"><ele>194.0</ele><time>2026-05-02T10:42:43.999Z</time></trkpt><trkpt lat="40.99949838501177" lon="9.227143822639569"><ele>197.66666666666669</ele><time>2026-05-02T10:42:44.999Z</time></trkpt><trkpt lat="40.999468795050284" lon="9.226921418991573"><ele>201.33333333333331</ele><time>2026-05-02T10:42:45.999Z</time></trkpt><trkpt lat="40.999439676824714" lon="9.226696758503419"><ele>205.0</ele><time>2026-05-02T10:42:46.999Z</time></trkpt><trkpt lat="40.99941312380061" lon="9.226471826285419"><ele>209.66666666666666</ele><time>2026-05-02T10:42:47.999Z</time></trkpt><trkpt lat="40.999386729994534" lon="9.226241440249382"><ele>214.33333333333331</ele><time>2026-05-02T10:42:48.999Z</time></trkpt><trkpt lat="40.9993594305898" lon="9.226009908129509"><ele>219.0</ele><time>2026-05-02T10:42:49.999Z</time></trkpt><trkpt lat="40.99933117119565" lon="9.22577628416105"><ele>224.0</ele><time>2026-05-02T10:42:50.999Z</time></trkpt><trkpt lat="40.99930237493415" lon="9.225542621670547"><ele>229.0</ele><time>2026-05-02T10:42:51.999Z</time></trkpt><trkpt lat="40.99926967311341" lon="9.22530866544564"><ele>234.0</ele><time>2026-05-02T10:42:52.999Z</time></trkpt><trkpt lat="40.99922470918258" lon="9.225086396914534"><ele>230.66666666666669</ele><time>2026-05-02T10:42:53.999Z</time></trkpt><trkpt lat="40.99915641739225" lon="9.22488827799851"><ele>227.33333333333334</ele><time>2026-05-02T10:42:54.999Z</time></trkpt><trkpt lat="40.99905720165674" lon="9.224702756318221"><ele>224.0</ele><time>2026-05-02T10:42:55.999Z</time></trkpt><trkpt lat="40.998931626260955" lon="9.22453913207244"><ele>224.0</ele><time>2026-05-02T10:42:56.999Z</time></trkpt><trkpt lat="40.99878602372993" lon="9.224389981140723"><ele>224.0</ele><time>2026-05-02T10:42:57.999Z</time></trkpt><trkpt lat="40.998629632033946" lon="9.224258387708879"><ele>224.0</ele><time>2026-05-02T10:42:58.999Z</time></trkpt><trkpt lat="40.998473437996175" lon="9.224134308435683"><ele>222.0</ele><time>2026-05-02T10:42:59.999Z</time></trkpt><trkpt lat="40.998316046433416" lon="9.224006435778044"><ele>220.0</ele><time>2026-05-02T10:43:00.999Z</time></trkpt><trkpt lat="40.998161342226155" lon="9.223875969079565"><ele>218.0</ele><time>2026-05-02T10:43:01.999Z</time></trkpt><trkpt lat="40.99801029842943" lon="9.223747182716597"><ele>218.0</ele><time>2026-05-02T10:43:02.999Z</time></trkpt><trkpt lat="40.99786406035768" lon="9.223621856189972"><ele>218.0</ele><time>2026-05-02T10:43:03.999Z</time></trkpt><trkpt lat="40.99772211471474" lon="9.223493192019307"><ele>218.0</ele><time>2026-05-02T10:43:05Z</time></trkpt><trkpt lat="40.997582408327474" lon="9.223363792482552"><ele>219.0</ele><time>2026-05-02T10:43:06Z</time></trkpt><trkpt lat="40.997447234078756" lon="9.223239459290834"><ele>220.0</ele><time>2026-05-02T10:43:07Z</time></trkpt><trkpt lat="40.99730960701871" lon="9.22311926715329"><ele>221.0</ele><time>2026-05-02T10:43:08Z</time></trkpt><trkpt lat="40.99717408657702" lon="9.223002077961148"><ele>221.0</ele><time>2026-05-02T10:43:09Z</time></trkpt><trkpt lat="40.997035400597845" lon="9.222879753934397"><ele>221.0</ele><time>2026-05-02T10:43:10Z</time></trkpt><trkpt lat="40.99690267260621" lon="9.222760947774605"><ele>221.0</ele><time>2026-05-02T10:43:11Z</time></trkpt><trkpt lat="40.99677528863613" lon="9.222637895848075"><ele>221.0</ele><time>2026-05-02T10:43:12Z</time></trkpt><trkpt lat="40.99665346921885" lon="9.222499240634821"><ele>221.0</ele><time>2026-05-02T10:43:13Z</time></trkpt><trkpt lat="40.99653406457955" lon="9.22235679114536"><ele>221.0</ele><time>2026-05-02T10:43:14Z</time></trkpt><trkpt lat="40.996418294933456" lon="9.222201841412232"><ele>221.0</ele><time>2026-05-02T10:43:15Z</time></trkpt><trkpt lat="40.99630041891154" lon="9.222043006422536"><ele>221.0</ele><time>2026-05-02T10:43:16Z</time></trkpt><trkpt lat="40.996183262135254" lon="9.22188030953545"><ele>221.0</ele><time>2026-05-02T10:43:17Z</time></trkpt><trkpt lat="40.996066915245606" lon="9.221709446623551"><ele>221.0</ele><time>2026-05-02T10:43:18Z</time></trkpt><trkpt lat="40.995949120648945" lon="9.221537757051642"><ele>221.0</ele><time>2026-05-02T10:43:19Z</time></trkpt><trkpt lat="40.995830302289136" lon="9.221368031675045"><ele>221.0</ele><time>2026-05-02T10:43:20Z</time></trkpt><trkpt lat="40.9957135660638" lon="9.22119979794806"><ele>218.66666666666669</ele><time>2026-05-02T10:43:21Z</time></trkpt><trkpt lat="40.99560030128785" lon="9.221032373448926"><ele>216.33333333333331</ele><time>2026-05-02T10:43:22Z</time></trkpt><trkpt lat="40.995492032581716" lon="9.220866147196952"><ele>214.0</ele><time>2026-05-02T10:43:23Z</time></trkpt><trkpt lat="40.99538524457524" lon="9.220697927717502"><ele>218.0</ele><time>2026-05-02T10:43:24Z</time></trkpt><trkpt lat="40.995276935798294" lon="9.220524750533764"><ele>222.0</ele><time>2026-05-02T10:43:25Z</time></trkpt><trkpt lat="40.99516856337936" lon="9.220353136252886"><ele>226.0</ele><time>2026-05-02T10:43:25.999Z</time></trkpt><trkpt lat="40.99505754129875" lon="9.220177899621278"><ele>223.0</ele><time>2026-05-02T10:43:26.999Z</time></trkpt><trkpt lat="40.99494869880747" lon="9.220000794473354"><ele>220.0</ele><time>2026-05-02T10:43:27.999Z</time></trkpt><trkpt lat="40.99483916376849" lon="9.21982000070896"><ele>217.0</ele><time>2026-05-02T10:43:28.999Z</time></trkpt><trkpt lat="40.994737954303716" lon="9.219642351057018"><ele>217.0</ele><time>2026-05-02T10:43:29.999Z</time></trkpt><trkpt lat="40.99464874917005" lon="9.219457758664488"><ele>217.0</ele><time>2026-05-02T10:43:30.999Z</time></trkpt><trkpt lat="40.9945687881892" lon="9.219279188940856"><ele>217.0</ele><time>2026-05-02T10:43:31.999Z</time></trkpt><trkpt lat="40.99449576223851" lon="9.219104371822024"><ele>216.75</ele><time>2026-05-02T10:43:32.999Z</time></trkpt><trkpt lat="40.99442833212921" lon="9.218936298883094"><ele>216.5</ele><time>2026-05-02T10:43:33.999Z</time></trkpt><trkpt lat="40.99436263844449" lon="9.218763002643414"><ele>216.25</ele><time>2026-05-02T10:43:34.999Z</time></trkpt><trkpt lat="40.994304270169906" lon="9.21858130475344"><ele>216.0</ele><time>2026-05-02T10:43:35.999Z</time></trkpt><trkpt lat="40.994273414985145" lon="9.218382098548815"><ele>216.0</ele><time>2026-05-02T10:43:36.999Z</time></trkpt><trkpt lat="40.99426888716886" lon="9.218176360912285"><ele>216.0</ele><time>2026-05-02T10:43:37.999Z</time></trkpt><trkpt lat="40.994281861620365" lon="9.217963661364989"><ele>216.0</ele><time>2026-05-02T10:43:38.999Z</time></trkpt><trkpt lat="40.99429613217967" lon="9.21774603285101"><ele>212.33333333333331</ele><time>2026-05-02T10:43:39.999Z</time></trkpt><trkpt lat="40.99430719282854" lon="9.217537045484391"><ele>208.66666666666666</ele><time>2026-05-02T10:43:40.999Z</time></trkpt><trkpt lat="40.99431923480176" lon="9.2173224906827"><ele>205.0</ele><time>2026-05-02T10:43:41.999Z</time></trkpt><trkpt lat="40.994328314598356" lon="9.217112171510072"><ele>203.66666666666666</ele><time>2026-05-02T10:43:42.999Z</time></trkpt><trkpt lat="40.99432861437826" lon="9.216903554744011"><ele>202.33333333333331</ele><time>2026-05-02T10:43:43.999Z</time></trkpt><trkpt lat="40.99430804831618" lon="9.216693042596603"><ele>201.0</ele><time>2026-05-02T10:43:44.999Z</time></trkpt><trkpt lat="40.99425080980689" lon="9.216499537257835"><ele>202.0</ele><time>2026-05-02T10:43:45.999Z</time></trkpt><trkpt lat="40.99414739862327" lon="9.216339340252969"><ele>203.0</ele><time>2026-05-02T10:43:46.999Z</time></trkpt><trkpt lat="40.99401712343922" lon="9.216204860854715"><ele>204.0</ele><time>2026-05-02T10:43:47.999Z</time></trkpt><trkpt lat="40.99387898722455" lon="9.216093812802077"><ele>204.0</ele><time>2026-05-02T10:43:48.999Z</time></trkpt><trkpt lat="40.993742891889994" lon="9.215983106305753"><ele>204.0</ele><time>2026-05-02T10:43:49.999Z</time></trkpt><trkpt lat="40.993610227092255" lon="9.215856151888012"><ele>204.0</ele><time>2026-05-02T10:43:50.999Z</time></trkpt><trkpt lat="40.99348088980647" lon="9.215728534464553"><ele>203.0</ele><time>2026-05-02T10:43:51.999Z</time></trkpt><trkpt lat="40.993350244842496" lon="9.215603304571179"><ele>202.0</ele><time>2026-05-02T10:43:52.999Z</time></trkpt><trkpt lat="40.993217202257355" lon="9.215475845022107"><ele>201.0</ele><time>2026-05-02T10:43:53.999Z</time></trkpt><trkpt lat="40.99308094023112" lon="9.215348539416743"><ele>201.0</ele><time>2026-05-02T10:43:54.999Z</time></trkpt><trkpt lat="40.992946679672784" lon="9.215223357733203"><ele>201.0</ele><time>2026-05-02T10:43:55.999Z</time></trkpt><trkpt lat="40.99281035252543" lon="9.21509677285428"><ele>201.0</ele><time>2026-05-02T10:43:56.999Z</time></trkpt><trkpt lat="40.99268014830705" lon="9.214969819033874"><ele>201.0</ele><time>2026-05-02T10:43:57.999Z</time></trkpt><trkpt lat="40.992557752076216" lon="9.21484801395855"><ele>201.0</ele><time>2026-05-02T10:43:58.999Z</time></trkpt><trkpt lat="40.992436014088234" lon="9.214728607252475"><ele>201.0</ele><time>2026-05-02T10:43:59.999Z</time></trkpt><trkpt lat="40.99231260038365" lon="9.214609773336749"><ele>197.66666666666666</ele><time>2026-05-02T10:44:00.999Z</time></trkpt><trkpt lat="40.99219142399165" lon="9.214485831272146"><ele>194.33333333333331</ele><time>2026-05-02T10:44:01.999Z</time></trkpt><trkpt lat="40.99207916156357" lon="9.214344007972516"><ele>191.0</ele><time>2026-05-02T10:44:02.999Z</time></trkpt><trkpt lat="40.99197724615602" lon="9.21417591245048"><ele>190.0</ele><time>2026-05-02T10:44:03.999Z</time></trkpt><trkpt lat="40.991889955234534" lon="9.213979509174683"><ele>189.0</ele><time>2026-05-02T10:44:04.999Z</time></trkpt><trkpt lat="40.99179842653438" lon="9.213774181752582"><ele>188.0</ele><time>2026-05-02T10:44:05.999Z</time></trkpt><trkpt lat="40.99170581502613" lon="9.21356658670507"><ele>185.66666666666666</ele><time>2026-05-02T10:44:06.999Z</time></trkpt><trkpt lat="40.991605074283605" lon="9.213352086782738"><ele>183.33333333333334</ele><time>2026-05-02T10:44:07.999Z</time></trkpt><trkpt lat="40.99150703229838" lon="9.213141795995405"><ele>181.0</ele><time>2026-05-02T10:44:08.999Z</time></trkpt><trkpt lat="40.99141598576554" lon="9.212936223784883"><ele>181.0</ele><time>2026-05-02T10:44:09.999Z</time></trkpt><trkpt lat="40.99132767072787" lon="9.21272828263962"><ele>181.0</ele><time>2026-05-02T10:44:10.999Z</time></trkpt><trkpt lat="40.991236357128145" lon="9.212527281478016"><ele>181.0</ele><time>2026-05-02T10:44:11.999Z</time></trkpt><trkpt lat="40.99114458508953" lon="9.212325273135258"><ele>182.66666666666669</ele><time>2026-05-02T10:44:12.999Z</time></trkpt><trkpt lat="40.99105623173151" lon="9.21212548947329"><ele>184.33333333333334</ele><time>2026-05-02T10:44:13.999Z</time></trkpt><trkpt lat="40.99096600613793" lon="9.211924352369776"><ele>186.0</ele><time>2026-05-02T10:44:14.999Z</time></trkpt><trkpt lat="40.99087642346199" lon="9.211720470079129"><ele>186.33333333333334</ele><time>2026-05-02T10:44:15.999Z</time></trkpt><trkpt lat="40.99078650524473" lon="9.21151739283319"><ele>186.66666666666669</ele><time>2026-05-02T10:44:16.999Z</time></trkpt><trkpt lat="40.99069622511191" lon="9.211312864622139"><ele>187.0</ele><time>2026-05-02T10:44:17.999Z</time></trkpt><trkpt lat="40.99060660376629" lon="9.211107160666025"><ele>187.0</ele><time>2026-05-02T10:44:18.999Z</time></trkpt><trkpt lat="40.99051929959301" lon="9.210904061411567"><ele>187.0</ele><time>2026-05-02T10:44:19.999Z</time></trkpt><trkpt lat="40.99043109778735" lon="9.210693848988697"><ele>187.0</ele><time>2026-05-02T10:44:21Z</time></trkpt><trkpt lat="40.990346386239686" lon="9.210488808167804"><ele>188.0</ele><time>2026-05-02T10:44:22Z</time></trkpt><trkpt lat="40.990259276436845" lon="9.210282094405288"><ele>189.0</ele><time>2026-05-02T10:44:23Z</time></trkpt><trkpt lat="40.990178033181934" lon="9.210067987279523"><ele>190.0</ele><time>2026-05-02T10:44:24Z</time></trkpt><trkpt lat="40.99009610850121" lon="9.209856376693063"><ele>191.33333333333334</ele><time>2026-05-02T10:44:25Z</time></trkpt><trkpt lat="40.990013499500215" lon="9.209645141376662"><ele>192.66666666666669</ele><time>2026-05-02T10:44:26Z</time></trkpt><trkpt lat="40.98992623864978" lon="9.209437828856293"><ele>194.0</ele><time>2026-05-02T10:44:27Z</time></trkpt><trkpt lat="40.98984014969139" lon="9.209234773808852"><ele>190.66666666666669</ele><time>2026-05-02T10:44:28Z</time></trkpt><trkpt lat="40.98976253954769" lon="9.209042517755506"><ele>187.33333333333334</ele><time>2026-05-02T10:44:29Z</time></trkpt><trkpt lat="40.98968838869075" lon="9.208852073892169"><ele>184.0</ele><time>2026-05-02T10:44:30Z</time></trkpt><trkpt lat="40.98962091614901" lon="9.20866704378318"><ele>184.0</ele><time>2026-05-02T10:44:31Z</time></trkpt><trkpt lat="40.98954745945792" lon="9.208484206956216"><ele>184.0</ele><time>2026-05-02T10:44:32Z</time></trkpt><trkpt lat="40.989477962457016" lon="9.208299194591675"><ele>184.0</ele><time>2026-05-02T10:44:33Z</time></trkpt><trkpt lat="40.98940694151242" lon="9.208131295619587"><ele>184.0</ele><time>2026-05-02T10:44:34Z</time></trkpt><trkpt lat="40.9893368338061" lon="9.207949543014655"><ele>184.0</ele><time>2026-05-02T10:44:35Z</time></trkpt><trkpt lat="40.989266786398126" lon="9.207769341296963"><ele>184.0</ele><time>2026-05-02T10:44:36Z</time></trkpt><trkpt lat="40.9891943784916" lon="9.207578653074872"><ele>184.33333333333334</ele><time>2026-05-02T10:44:37Z</time></trkpt><trkpt lat="40.98912820097991" lon="9.207387626542515"><ele>184.66666666666666</ele><time>2026-05-02T10:44:38Z</time></trkpt><trkpt lat="40.989061601141806" lon="9.207193539002581"><ele>185.0</ele><time>2026-05-02T10:44:39Z</time></trkpt><trkpt lat="40.988989759622015" lon="9.206994132118801"><ele>185.66666666666666</ele><time>2026-05-02T10:44:40Z</time></trkpt><trkpt lat="40.98891303573557" lon="9.20679538961012"><ele>186.33333333333334</ele><time>2026-05-02T10:44:41Z</time></trkpt><trkpt lat="40.98881699986935" lon="9.206602279725177"><ele>187.0</ele><time>2026-05-02T10:44:42Z</time></trkpt><trkpt lat="40.98869677976557" lon="9.206429553489729"><ele>187.66666666666669</ele><time>2026-05-02T10:44:43Z</time></trkpt><trkpt lat="40.988560832579" lon="9.206268924640204"><ele>188.33333333333334</ele><time>2026-05-02T10:44:44Z</time></trkpt><trkpt lat="40.98841205156089" lon="9.206118564465013"><ele>189.0</ele><time>2026-05-02T10:44:45Z</time></trkpt><trkpt lat="40.988267124917236" lon="9.205964339677331"><ele>189.0</ele><time>2026-05-02T10:44:46Z</time></trkpt><trkpt lat="40.98812887296718" lon="9.205812699543285"><ele>189.0</ele><time>2026-05-02T10:44:47Z</time></trkpt><trkpt lat="40.988002024845706" lon="9.205673222158438"><ele>189.0</ele><time>2026-05-02T10:44:48Z</time></trkpt><trkpt lat="40.98788100281535" lon="9.205533753712256"><ele>189.25</ele><time>2026-05-02T10:44:49Z</time></trkpt><trkpt lat="40.987762746872356" lon="9.205396684449314"><ele>189.5</ele><time>2026-05-02T10:44:50Z</time></trkpt><trkpt lat="40.98765278310233" lon="9.205265288215745"><ele>189.75</ele><time>2026-05-02T10:44:51Z</time></trkpt><trkpt lat="40.98754528374769" lon="9.205141806976448"><ele>190.0</ele><time>2026-05-02T10:44:52Z</time></trkpt><trkpt lat="40.987442573556365" lon="9.205015676698274"><ele>190.5</ele><time>2026-05-02T10:44:53Z</time></trkpt><trkpt lat="40.987344439525195" lon="9.20489736782274"><ele>191.0</ele><time>2026-05-02T10:44:54Z</time></trkpt><trkpt lat="40.987240351629225" lon="9.204782418079006"><ele>191.5</ele><time>2026-05-02T10:44:55Z</time></trkpt><trkpt lat="40.98714066087646" lon="9.20467192229821"><ele>192.0</ele><time>2026-05-02T10:44:56Z</time></trkpt><trkpt lat="40.98704007372091" lon="9.204554620917708"><ele>192.0</ele><time>2026-05-02T10:44:57Z</time></trkpt><trkpt lat="40.98693944003243" lon="9.20442937034456"><ele>192.0</ele><time>2026-05-02T10:44:58Z</time></trkpt><trkpt lat="40.986842047331436" lon="9.204296916234103"><ele>192.0</ele><time>2026-05-02T10:44:59Z</time></trkpt><trkpt lat="40.98674694182073" lon="9.204156772608176"><ele>192.0</ele><time>2026-05-02T10:45:00Z</time></trkpt><trkpt lat="40.98665783640612" lon="9.204012117949416"><ele>193.5</ele><time>2026-05-02T10:45:01Z</time></trkpt><trkpt lat="40.986577775661914" lon="9.203867973026872"><ele>195.0</ele><time>2026-05-02T10:45:02Z</time></trkpt><trkpt lat="40.98649996391589" lon="9.203728303471692"><ele>196.5</ele><time>2026-05-02T10:45:03Z</time></trkpt><trkpt lat="40.986422975287596" lon="9.203581108943128"><ele>198.0</ele><time>2026-05-02T10:45:04Z</time></trkpt><trkpt lat="40.986348164866754" lon="9.203429684104375"><ele>198.0</ele><time>2026-05-02T10:45:05Z</time></trkpt><trkpt lat="40.98626578068287" lon="9.203293879946557"><ele>198.0</ele><time>2026-05-02T10:45:06Z</time></trkpt><trkpt lat="40.986159332619366" lon="9.203174984386877"><ele>198.0</ele><time>2026-05-02T10:45:07Z</time></trkpt><trkpt lat="40.986024763942645" lon="9.203084927005731"><ele>198.0</ele><time>2026-05-02T10:45:08Z</time></trkpt><trkpt lat="40.985873398587394" lon="9.203011996149373"><ele>199.0</ele><time>2026-05-02T10:45:09Z</time></trkpt><trkpt lat="40.985716515013536" lon="9.202936268806994"><ele>200.0</ele><time>2026-05-02T10:45:10Z</time></trkpt><trkpt lat="40.98556635540138" lon="9.202837842609974"><ele>201.0</ele><time>2026-05-02T10:45:11Z</time></trkpt><trkpt lat="40.98542945977879" lon="9.20271908298338"><ele>201.0</ele><time>2026-05-02T10:45:12Z</time></trkpt><trkpt lat="40.98530041906658" lon="9.202595116937772"><ele>201.0</ele><time>2026-05-02T10:45:13Z</time></trkpt><trkpt lat="40.985167910834285" lon="9.202480284360796"><ele>201.0</ele><time>2026-05-02T10:45:14Z</time></trkpt><trkpt lat="40.98502455675841" lon="9.202401585459093"><ele>202.0</ele><time>2026-05-02T10:45:15Z</time></trkpt><trkpt lat="40.98486689309481" lon="9.202344314283003"><ele>203.0</ele><time>2026-05-02T10:45:16Z</time></trkpt><trkpt lat="40.984703963639795" lon="9.202289543569137"><ele>204.0</ele><time>2026-05-02T10:45:17Z</time></trkpt><trkpt lat="40.984550894152946" lon="9.20223297381157"><ele>204.0</ele><time>2026-05-02T10:45:18Z</time></trkpt><trkpt lat="40.98440404424761" lon="9.202173460649748"><ele>204.0</ele><time>2026-05-02T10:45:19Z</time></trkpt><trkpt lat="40.984276178903535" lon="9.202100142484094"><ele>204.0</ele><time>2026-05-02T10:45:20Z</time></trkpt><trkpt lat="40.984163061718284" lon="9.202006982453273"><ele>204.0</ele><time>2026-05-02T10:45:21Z</time></trkpt><trkpt lat="40.98405981662947" lon="9.201913632418945"><ele>204.2</ele><time>2026-05-02T10:45:22Z</time></trkpt><trkpt lat="40.983969044310896" lon="9.201823824396039"><ele>204.39999999999998</ele><time>2026-05-02T10:45:23Z</time></trkpt><trkpt lat="40.98388875707774" lon="9.201740532229328"><ele>204.6</ele><time>2026-05-02T10:45:24Z</time></trkpt><trkpt lat="40.98380168731809" lon="9.201655609006925"><ele>204.8</ele><time>2026-05-02T10:45:25Z</time></trkpt><trkpt lat="40.9837053352914" lon="9.201558242081592"><ele>205.0</ele><time>2026-05-02T10:45:26Z</time></trkpt><trkpt lat="40.983600521511356" lon="9.201455215678957"><ele>205.0</ele><time>2026-05-02T10:45:27Z</time></trkpt><trkpt lat="40.98349169141388" lon="9.201354914706382"><ele>205.0</ele><time>2026-05-02T10:45:28Z</time></trkpt><trkpt lat="40.983390757145166" lon="9.201268963987694"><ele>205.0</ele><time>2026-05-02T10:45:29Z</time></trkpt><trkpt lat="40.98329967116117" lon="9.201182463073797"><ele>205.0</ele><time>2026-05-02T10:45:30Z</time></trkpt><trkpt lat="40.983207333827956" lon="9.201088141824917"><ele>206.0</ele><time>2026-05-02T10:45:31Z</time></trkpt><trkpt lat="40.983102513699485" lon="9.200988059779009"><ele>207.0</ele><time>2026-05-02T10:45:32Z</time></trkpt><trkpt lat="40.982983755242756" lon="9.200883510728545"><ele>208.0</ele><time>2026-05-02T10:45:33Z</time></trkpt><trkpt lat="40.982858308822465" lon="9.200774676456822"><ele>209.0</ele><time>2026-05-02T10:45:34Z</time></trkpt><trkpt lat="40.982731092249146" lon="9.200660148300216"><ele>209.0</ele><time>2026-05-02T10:45:35Z</time></trkpt><trkpt lat="40.98260242808167" lon="9.200538486940323"><ele>209.0</ele><time>2026-05-02T10:45:36Z</time></trkpt><trkpt lat="40.98247517471273" lon="9.200414946731629"><ele>209.0</ele><time>2026-05-02T10:45:37Z</time></trkpt><trkpt lat="40.98234762088539" lon="9.200293046162301"><ele>209.75</ele><time>2026-05-02T10:45:38Z</time></trkpt><trkpt lat="40.982220606758204" lon="9.200171451674667"><ele>210.5</ele><time>2026-05-02T10:45:39Z</time></trkpt><trkpt lat="40.9821082294376" lon="9.200048617964775"><ele>211.25</ele><time>2026-05-02T10:45:40Z</time></trkpt><trkpt lat="40.98201476694352" lon="9.199910267233752"><ele>212.0</ele><time>2026-05-02T10:45:41Z</time></trkpt><trkpt lat="40.981940289296965" lon="9.199757901582945"><ele>212.0</ele><time>2026-05-02T10:45:42Z</time></trkpt><trkpt lat="40.981881676132325" lon="9.199590047704707"><ele>212.0</ele><time>2026-05-02T10:45:43Z</time></trkpt><trkpt lat="40.98183486876616" lon="9.199422691723107"><ele>212.0</ele><time>2026-05-02T10:45:44Z</time></trkpt><trkpt lat="40.981793011915585" lon="9.19925534035236"><ele>212.0</ele><time>2026-05-02T10:45:45Z</time></trkpt><trkpt lat="40.981748628064466" lon="9.19909403449394"><ele>212.5</ele><time>2026-05-02T10:45:46Z</time></trkpt><trkpt lat="40.98169859724589" lon="9.198939877958294"><ele>213.0</ele><time>2026-05-02T10:45:47Z</time></trkpt><trkpt lat="40.98165097577889" lon="9.198803092273018"><ele>213.5</ele><time>2026-05-02T10:45:48Z</time></trkpt><trkpt lat="40.981605958128405" lon="9.198682438023312"><ele>214.0</ele><time>2026-05-02T10:45:49Z</time></trkpt><trkpt lat="40.98153704712472" lon="9.198558684915346"><ele>214.25</ele><time>2026-05-02T10:45:50Z</time></trkpt><trkpt lat="40.981444692043844" lon="9.198435211384501"><ele>214.5</ele><time>2026-05-02T10:45:51Z</time></trkpt><trkpt lat="40.98133283717663" lon="9.198320477011016"><ele>214.75</ele><time>2026-05-02T10:45:52Z</time></trkpt><trkpt lat="40.981225319477936" lon="9.198195130020157"><ele>215.0</ele><time>2026-05-02T10:45:53Z</time></trkpt><trkpt lat="40.98111942193361" lon="9.198056256265865"><ele>215.0</ele><time>2026-05-02T10:45:54Z</time></trkpt><trkpt lat="40.981010077406815" lon="9.197912646837796"><ele>215.0</ele><time>2026-05-02T10:45:55Z</time></trkpt><trkpt lat="40.98089526221106" lon="9.19775805811722"><ele>215.0</ele><time>2026-05-02T10:45:56Z</time></trkpt><trkpt lat="40.98077139276879" lon="9.19760179371668"><ele>217.66666666666669</ele><time>2026-05-02T10:45:57Z</time></trkpt><trkpt lat="40.980644139926355" lon="9.197442211867248"><ele>220.33333333333331</ele><time>2026-05-02T10:45:58Z</time></trkpt><trkpt lat="40.98051786299633" lon="9.197281995549343"><ele>223.0</ele><time>2026-05-02T10:45:59Z</time></trkpt><trkpt lat="40.98039259657311" lon="9.197122206216662"><ele>223.0</ele><time>2026-05-02T10:46:00Z</time></trkpt><trkpt lat="40.98026393479225" lon="9.196960058227054"><ele>223.0</ele><time>2026-05-02T10:46:01Z</time></trkpt><trkpt lat="40.98016093370055" lon="9.196835799188039"><ele>223.0</ele><time>2026-05-02T10:46:02Z</time></trkpt><trkpt lat="40.980074452764896" lon="9.196731254731251"><ele>223.0</ele><time>2026-05-02T10:46:03Z</time></trkpt><trkpt lat="40.9800006393713" lon="9.196631306995762"><ele>226.0</ele><time>2026-05-02T10:46:04Z</time></trkpt><trkpt lat="40.979919193466706" lon="9.19652799663924"><ele>229.0</ele><time>2026-05-02T10:46:05Z</time></trkpt><trkpt lat="40.97983409055426" lon="9.196416984271478"><ele>232.0</ele><time>2026-05-02T10:46:06Z</time></trkpt><trkpt lat="40.97974030857662" lon="9.196293187588784"><ele>235.0</ele><time>2026-05-02T10:46:07Z</time></trkpt><trkpt lat="40.979641483114" lon="9.1961602660858"><ele>235.0</ele><time>2026-05-02T10:46:08Z</time></trkpt><trkpt lat="40.97954128645321" lon="9.196017899365229"><ele>235.0</ele><time>2026-05-02T10:46:09Z</time></trkpt><trkpt lat="40.97943804878734" lon="9.195876409179007"><ele>235.0</ele><time>2026-05-02T10:46:10Z</time></trkpt><trkpt lat="40.97932999096589" lon="9.195732250598642"><ele>235.0</ele><time>2026-05-02T10:46:11Z</time></trkpt><trkpt lat="40.97922086884058" lon="9.195589326229642"><ele>236.0</ele><time>2026-05-02T10:46:12Z</time></trkpt><trkpt lat="40.97911267169105" lon="9.195444580458807"><ele>237.0</ele><time>2026-05-02T10:46:13Z</time></trkpt><trkpt lat="40.978998065556276" lon="9.195297309647705"><ele>238.0</ele><time>2026-05-02T10:46:14Z</time></trkpt><trkpt lat="40.97888770711981" lon="9.195156993278266"><ele>238.0</ele><time>2026-05-02T10:46:15Z</time></trkpt><trkpt lat="40.97878388206291" lon="9.19502910413346"><ele>238.0</ele><time>2026-05-02T10:46:16Z</time></trkpt><trkpt lat="40.97868350429154" lon="9.194909896046202"><ele>238.0</ele><time>2026-05-02T10:46:17Z</time></trkpt><trkpt lat="40.97857454421321" lon="9.194798389808128"><ele>238.0</ele><time>2026-05-02T10:46:18Z</time></trkpt><trkpt lat="40.978446468618685" lon="9.194707212457788"><ele>238.33333333333331</ele><time>2026-05-02T10:46:19Z</time></trkpt><trkpt lat="40.978302898605236" lon="9.194643482781133"><ele>238.66666666666669</ele><time>2026-05-02T10:46:20Z</time></trkpt><trkpt lat="40.97814835592542" lon="9.194610044586563"><ele>239.0</ele><time>2026-05-02T10:46:21Z</time></trkpt><trkpt lat="40.977992264648435" lon="9.194617826738753"><ele>239.0</ele><time>2026-05-02T10:46:22Z</time></trkpt><trkpt lat="40.9778451228088" lon="9.194657889248328"><ele>239.0</ele><time>2026-05-02T10:46:23Z</time></trkpt><trkpt lat="40.97770487744274" lon="9.194750554350401"><ele>239.0</ele><time>2026-05-02T10:46:24Z</time></trkpt><trkpt lat="40.977576902197114" lon="9.19487668841864"><ele>239.0</ele><time>2026-05-02T10:46:25Z</time></trkpt><trkpt lat="40.97746569261509" lon="9.195028459659673"><ele>239.0</ele><time>2026-05-02T10:46:26Z</time></trkpt><trkpt lat="40.97737178653262" lon="9.19519950792166"><ele>239.0</ele><time>2026-05-02T10:46:27Z</time></trkpt><trkpt lat="40.977282970277955" lon="9.195371649686628"><ele>239.0</ele><time>2026-05-02T10:46:28Z</time></trkpt><trkpt lat="40.97718775586237" lon="9.19553759266289"><ele>239.0</ele><time>2026-05-02T10:46:29Z</time></trkpt><trkpt lat="40.9770907281338" lon="9.195701918147916"><ele>239.0</ele><time>2026-05-02T10:46:30Z</time></trkpt><trkpt lat="40.97698764594008" lon="9.195876003439702"><ele>238.33333333333334</ele><time>2026-05-02T10:46:31Z</time></trkpt><trkpt lat="40.976881329060326" lon="9.196054509664704"><ele>237.66666666666669</ele><time>2026-05-02T10:46:32Z</time></trkpt><trkpt lat="40.9767732739885" lon="9.196238379004555"><ele>237.0</ele><time>2026-05-02T10:46:33Z</time></trkpt><trkpt lat="40.976666210597344" lon="9.196426294147008"><ele>238.0</ele><time>2026-05-02T10:46:34Z</time></trkpt><trkpt lat="40.97655778444993" lon="9.19661583026011"><ele>239.0</ele><time>2026-05-02T10:46:35Z</time></trkpt><trkpt lat="40.97645072151643" lon="9.196800322895207"><ele>240.0</ele><time>2026-05-02T10:46:36Z</time></trkpt><trkpt lat="40.97634787860096" lon="9.196981395511045"><ele>240.0</ele><time>2026-05-02T10:46:37Z</time></trkpt><trkpt lat="40.97624747689088" lon="9.197155325938699"><ele>240.0</ele><time>2026-05-02T10:46:38Z</time></trkpt><trkpt lat="40.97615247751784" lon="9.197321197119889"><ele>240.0</ele><time>2026-05-02T10:46:39Z</time></trkpt><trkpt lat="40.97605626053615" lon="9.197487948703264"><ele>239.0</ele><time>2026-05-02T10:46:40Z</time></trkpt><trkpt lat="40.975960490231294" lon="9.19765091561981"><ele>238.0</ele><time>2026-05-02T10:46:41Z</time></trkpt><trkpt lat="40.9758661229665" lon="9.197811424870054"><ele>237.0</ele><time>2026-05-02T10:46:42Z</time></trkpt><trkpt lat="40.97577251334345" lon="9.197972690283219"><ele>237.66666666666669</ele><time>2026-05-02T10:46:43Z</time></trkpt><trkpt lat="40.97568067790615" lon="9.198135192653197"><ele>238.33333333333334</ele><time>2026-05-02T10:46:44Z</time></trkpt><trkpt lat="40.97558817953057" lon="9.19829895412908"><ele>239.0</ele><time>2026-05-02T10:46:45Z</time></trkpt><trkpt lat="40.97549141165891" lon="9.198467217456384"><ele>239.0</ele><time>2026-05-02T10:46:46Z</time></trkpt><trkpt lat="40.97539251625318" lon="9.198631830155932"><ele>239.0</ele><time>2026-05-02T10:46:47Z</time></trkpt><trkpt lat="40.97528940826498" lon="9.198799370218492"><ele>239.0</ele><time>2026-05-02T10:46:48Z</time></trkpt><trkpt lat="40.97518666550309" lon="9.198966858617855"><ele>237.33333333333334</ele><time>2026-05-02T10:46:49Z</time></trkpt><trkpt lat="40.97508025317962" lon="9.199137706623864"><ele>235.66666666666669</ele><time>2026-05-02T10:46:50Z</time></trkpt><trkpt lat="40.97496600799867" lon="9.199295245611744"><ele>234.0</ele><time>2026-05-02T10:46:51Z</time></trkpt><trkpt lat="40.97483884797478" lon="9.199435999177425"><ele>234.0</ele><time>2026-05-02T10:46:52Z</time></trkpt><trkpt lat="40.974696600750185" lon="9.199537417801546"><ele>234.0</ele><time>2026-05-02T10:46:53Z</time></trkpt><trkpt lat="40.97453517763553" lon="9.199623736145643"><ele>234.0</ele><time>2026-05-02T10:46:54Z</time></trkpt><trkpt lat="40.974372062311105" lon="9.199710169310379"><ele>234.0</ele><time>2026-05-02T10:46:55Z</time></trkpt><trkpt lat="40.97422155203641" lon="9.199794210166822"><ele>234.0</ele><time>2026-05-02T10:46:56Z</time></trkpt><trkpt lat="40.97407581963463" lon="9.199873525247513"><ele>234.0</ele><time>2026-05-02T10:46:57Z</time></trkpt><trkpt lat="40.973928491337624" lon="9.19996049287875"><ele>233.0</ele><time>2026-05-02T10:46:58Z</time></trkpt><trkpt lat="40.97377569376217" lon="9.200058814770358"><ele>232.0</ele><time>2026-05-02T10:46:59Z</time></trkpt><trkpt lat="40.97362667763974" lon="9.200183236614443"><ele>231.0</ele><time>2026-05-02T10:47:00Z</time></trkpt><trkpt lat="40.97348123820261" lon="9.200328067207353"><ele>231.33333333333331</ele><time>2026-05-02T10:47:01Z</time></trkpt><trkpt lat="40.973347019596176" lon="9.200467365153994"><ele>231.66666666666666</ele><time>2026-05-02T10:47:02Z</time></trkpt><trkpt lat="40.97322069152095" lon="9.200593079203554"><ele>232.0</ele><time>2026-05-02T10:47:03Z</time></trkpt><trkpt lat="40.973095928550556" lon="9.200716690695623"><ele>232.0</ele><time>2026-05-02T10:47:04Z</time></trkpt><trkpt lat="40.972978795352084" lon="9.200840018523484"><ele>232.0</ele><time>2026-05-02T10:47:05Z</time></trkpt><trkpt lat="40.97286558693267" lon="9.200962814815814"><ele>232.0</ele><time>2026-05-02T10:47:06Z</time></trkpt><trkpt lat="40.972754734476" lon="9.20110699657188"><ele>232.0</ele><time>2026-05-02T10:47:07Z</time></trkpt><trkpt lat="40.97265975825764" lon="9.201280720994825"><ele>232.0</ele><time>2026-05-02T10:47:08Z</time></trkpt><trkpt lat="40.97258508542047" lon="9.201473332210734"><ele>232.0</ele><time>2026-05-02T10:47:09Z</time></trkpt><trkpt lat="40.97252064748395" lon="9.201680046035381"><ele>226.66666666666666</ele><time>2026-05-02T10:47:10Z</time></trkpt><trkpt lat="40.972448487511805" lon="9.201888948589103"><ele>221.33333333333331</ele><time>2026-05-02T10:47:11Z</time></trkpt><trkpt lat="40.97237236200343" lon="9.202098168152334"><ele>216.0</ele><time>2026-05-02T10:47:12Z</time></trkpt><trkpt lat="40.97229892412222" lon="9.202302676237641"><ele>218.33333333333331</ele><time>2026-05-02T10:47:13Z</time></trkpt><trkpt lat="40.97222545245038" lon="9.202511568482578"><ele>220.66666666666666</ele><time>2026-05-02T10:47:13.999Z</time></trkpt><trkpt lat="40.972150437458005" lon="9.20272055924045"><ele>223.0</ele><time>2026-05-02T10:47:14.999Z</time></trkpt><trkpt lat="40.97207673069413" lon="9.20292688463976"><ele>223.0</ele><time>2026-05-02T10:47:16Z</time></trkpt><trkpt lat="40.972014637042086" lon="9.2031141018129"><ele>223.0</ele><time>2026-05-02T10:47:17Z</time></trkpt><trkpt lat="40.97194206027666" lon="9.203306548778416"><ele>223.0</ele><time>2026-05-02T10:47:18Z</time></trkpt><trkpt lat="40.971876243501185" lon="9.203495937624881"><ele>223.66666666666666</ele><time>2026-05-02T10:47:19Z</time></trkpt><trkpt lat="40.97180578040007" lon="9.203686118121684"><ele>224.33333333333331</ele><time>2026-05-02T10:47:20Z</time></trkpt><trkpt lat="40.97173590809147" lon="9.203874244258367"><ele>225.0</ele><time>2026-05-02T10:47:21Z</time></trkpt><trkpt lat="40.97166522467754" lon="9.204065706823341"><ele>219.66666666666669</ele><time>2026-05-02T10:47:22Z</time></trkpt><trkpt lat="40.97159598122291" lon="9.204259650790505"><ele>214.33333333333334</ele><time>2026-05-02T10:47:23Z</time></trkpt><trkpt lat="40.971526189007285" lon="9.20444988567297"><ele>209.0</ele><time>2026-05-02T10:47:24Z</time></trkpt><trkpt lat="40.9714546248541" lon="9.204639475696027"><ele>208.66666666666669</ele><time>2026-05-02T10:47:25Z</time></trkpt><trkpt lat="40.97138312802311" lon="9.204829443437736"><ele>208.33333333333331</ele><time>2026-05-02T10:47:26Z</time></trkpt><trkpt lat="40.97131314342941" lon="9.205015961239148"><ele>208.0</ele><time>2026-05-02T10:47:27Z</time></trkpt><trkpt lat="40.971244308673754" lon="9.205199455428488"><ele>208.0</ele><time>2026-05-02T10:47:28Z</time></trkpt><trkpt lat="40.97117330238712" lon="9.205382704980087"><ele>208.0</ele><time>2026-05-02T10:47:29Z</time></trkpt><trkpt lat="40.97110652262387" lon="9.205560349048028"><ele>208.0</ele><time>2026-05-02T10:47:30Z</time></trkpt><trkpt lat="40.97103853312326" lon="9.205742906495084"><ele>206.0</ele><time>2026-05-02T10:47:31Z</time></trkpt><trkpt lat="40.970973509058" lon="9.205924560094042"><ele>204.0</ele><time>2026-05-02T10:47:32Z</time></trkpt><trkpt lat="40.97090871419203" lon="9.206108666578674"><ele>202.0</ele><time>2026-05-02T10:47:33Z</time></trkpt><trkpt lat="40.970839845377846" lon="9.2062909135587"><ele>201.0</ele><time>2026-05-02T10:47:34Z</time></trkpt><trkpt lat="40.97076271079214" lon="9.20646807522221"><ele>200.0</ele><time>2026-05-02T10:47:35Z</time></trkpt><trkpt lat="40.970674056949356" lon="9.20662019688603"><ele>199.0</ele><time>2026-05-02T10:47:36Z</time></trkpt><trkpt lat="40.97056248724089" lon="9.20675932183514"><ele>198.0</ele><time>2026-05-02T10:47:37Z</time></trkpt><trkpt lat="40.97043583424606" lon="9.20688283449058"><ele>197.0</ele><time>2026-05-02T10:47:38Z</time></trkpt><trkpt lat="40.97029013748732" lon="9.206979663893943"><ele>196.0</ele><time>2026-05-02T10:47:39Z</time></trkpt><trkpt lat="40.970134958771204" lon="9.207081306625298"><ele>195.0</ele><time>2026-05-02T10:47:40Z</time></trkpt><trkpt lat="40.969976610196966" lon="9.207189484017793"><ele>194.0</ele><time>2026-05-02T10:47:41Z</time></trkpt><trkpt lat="40.96982425483995" lon="9.20729324195806"><ele>193.0</ele><time>2026-05-02T10:47:42Z</time></trkpt><trkpt lat="40.96967486087063" lon="9.207373290119355"><ele>193.0</ele><time>2026-05-02T10:47:43Z</time></trkpt><trkpt lat="40.969522172101385" lon="9.207422597152151"><ele>193.0</ele><time>2026-05-02T10:47:44Z</time></trkpt><trkpt lat="40.96937152934416" lon="9.20743902238077"><ele>193.0</ele><time>2026-05-02T10:47:45Z</time></trkpt><trkpt lat="40.969222533121325" lon="9.207440598501206"><ele>192.0</ele><time>2026-05-02T10:47:46Z</time></trkpt><trkpt lat="40.96908177972495" lon="9.207443348726745"><ele>191.0</ele><time>2026-05-02T10:47:47Z</time></trkpt><trkpt lat="40.96894569633335" lon="9.207454224703293"><ele>190.0</ele><time>2026-05-02T10:47:48Z</time></trkpt><trkpt lat="40.96881022443586" lon="9.207469758995858"><ele>189.0</ele><time>2026-05-02T10:47:49Z</time></trkpt><trkpt lat="40.968677016931835" lon="9.207483429322629"><ele>189.0</ele><time>2026-05-02T10:47:50Z</time></trkpt><trkpt lat="40.96855257219483" lon="9.207497665373957"><ele>189.0</ele><time>2026-05-02T10:47:51Z</time></trkpt><trkpt lat="40.96829886876407" lon="9.207530156195535"><ele>189.0</ele><time>2026-05-02T10:47:53Z</time></trkpt><trkpt lat="40.96816263045705" lon="9.207547486908199"><ele>187.75</ele><time>2026-05-02T10:47:54Z</time></trkpt><trkpt lat="40.96802384248429" lon="9.207561840958336"><ele>186.5</ele><time>2026-05-02T10:47:55Z</time></trkpt><trkpt lat="40.96788235896605" lon="9.207576652412572"><ele>185.25</ele><time>2026-05-02T10:47:56Z</time></trkpt><trkpt lat="40.9677393924349" lon="9.207597087575706"><ele>184.0</ele><time>2026-05-02T10:47:57Z</time></trkpt><trkpt lat="40.96759472063021" lon="9.207621898465586"><ele>186.75</ele><time>2026-05-02T10:47:58Z</time></trkpt><trkpt lat="40.96746282966317" lon="9.207669981646228"><ele>189.5</ele><time>2026-05-02T10:47:59Z</time></trkpt><trkpt lat="40.967343815886636" lon="9.207758648120747"><ele>192.25</ele><time>2026-05-02T10:48:00Z</time></trkpt><trkpt lat="40.967240804587995" lon="9.207890140916355"><ele>195.0</ele><time>2026-05-02T10:48:01Z</time></trkpt><trkpt lat="40.96715113145705" lon="9.208046319452565"><ele>194.75</ele><time>2026-05-02T10:48:02Z</time></trkpt><trkpt lat="40.967049495374766" lon="9.208195723579369"><ele>194.5</ele><time>2026-05-02T10:48:03Z</time></trkpt><trkpt lat="40.96693966467832" lon="9.208313864568877"><ele>194.25</ele><time>2026-05-02T10:48:04Z</time></trkpt><trkpt lat="40.96680576865368" lon="9.208407453453813"><ele>194.0</ele><time>2026-05-02T10:48:05Z</time></trkpt><trkpt lat="40.96665363137382" lon="9.208508351767442"><ele>195.0</ele><time>2026-05-02T10:48:06Z</time></trkpt><trkpt lat="40.966501307815605" lon="9.208602130198193"><ele>196.0</ele><time>2026-05-02T10:48:07Z</time></trkpt><trkpt lat="40.96634728263899" lon="9.20869879126526"><ele>197.0</ele><time>2026-05-02T10:48:08Z</time></trkpt><trkpt lat="40.96619035087405" lon="9.208795580237288"><ele>197.0</ele><time>2026-05-02T10:48:09Z</time></trkpt><trkpt lat="40.96602690410991" lon="9.20889800781838"><ele>197.0</ele><time>2026-05-02T10:48:10Z</time></trkpt><trkpt lat="40.9658693619194" lon="9.20899942793376"><ele>197.0</ele><time>2026-05-02T10:48:11Z</time></trkpt><trkpt lat="40.96572257230375" lon="9.209097513927512"><ele>197.6</ele><time>2026-05-02T10:48:12Z</time></trkpt><trkpt lat="40.96559394097694" lon="9.209182311323417"><ele>198.2</ele><time>2026-05-02T10:48:13Z</time></trkpt><trkpt lat="40.96550491341595" lon="9.209238745957533"><ele>198.8</ele><time>2026-05-02T10:48:14Z</time></trkpt><trkpt lat="40.96541792060948" lon="9.209263900948024"><ele>199.4</ele><time>2026-05-02T10:48:16Z</time></trkpt><trkpt lat="40.965370967891246" lon="9.209159521768242"><ele>200.0</ele><time>2026-05-02T10:48:19Z</time></trkpt><trkpt lat="40.9653732933106" lon="9.209056703805388"><ele>200.0</ele><time>2026-05-02T10:48:21Z</time></trkpt><trkpt lat="40.96530120564614" lon="9.209011461724364"><ele>200.0</ele><time>2026-05-02T10:48:23Z</time></trkpt><trkpt lat="40.96519940562655" lon="9.209071331329815"><ele>200.0</ele><time>2026-05-02T10:48:25Z</time></trkpt><trkpt lat="40.96514428238293" lon="9.209154893367888"><ele>200.0</ele><time>2026-05-02T10:48:26Z</time></trkpt><trkpt lat="40.96507485842333" lon="9.209246094047662"><ele>200.0</ele><time>2026-05-02T10:48:27Z</time></trkpt><trkpt lat="40.96499869646604" lon="9.20930135759578"><ele>199.4</ele><time>2026-05-02T10:48:28Z</time></trkpt><trkpt lat="40.96491678395128" lon="9.209337090815831"><ele>198.8</ele><time>2026-05-02T10:48:29Z</time></trkpt><trkpt lat="40.9648189613743" lon="9.209351726360685"><ele>198.2</ele><time>2026-05-02T10:48:30Z</time></trkpt><trkpt lat="40.964705683785915" lon="9.209373861332406"><ele>197.6</ele><time>2026-05-02T10:48:31Z</time></trkpt><trkpt lat="40.96457135385283" lon="9.20939055899495"><ele>197.0</ele><time>2026-05-02T10:48:32Z</time></trkpt><trkpt lat="40.96442414743521" lon="9.209396989211585"><ele>197.0</ele><time>2026-05-02T10:48:33Z</time></trkpt><trkpt lat="40.964293608288074" lon="9.209379248208393"><ele>197.0</ele><time>2026-05-02T10:48:34Z</time></trkpt><trkpt lat="40.964170362058574" lon="9.2093184340013"><ele>197.0</ele><time>2026-05-02T10:48:35Z</time></trkpt><trkpt lat="40.96405901543316" lon="9.209230930161016"><ele>197.0</ele><time>2026-05-02T10:48:36Z</time></trkpt><trkpt lat="40.96396069615996" lon="9.209099157464594"><ele>199.75</ele><time>2026-05-02T10:48:37Z</time></trkpt><trkpt lat="40.96388322797339" lon="9.20895057759844"><ele>202.5</ele><time>2026-05-02T10:48:38Z</time></trkpt><trkpt lat="40.96380877137162" lon="9.2087923794804"><ele>205.25</ele><time>2026-05-02T10:48:39Z</time></trkpt><trkpt lat="40.963737010395036" lon="9.208634388338115"><ele>208.0</ele><time>2026-05-02T10:48:40Z</time></trkpt><trkpt lat="40.96366119793405" lon="9.20847164874208"><ele>208.0</ele><time>2026-05-02T10:48:41Z</time></trkpt><trkpt lat="40.9635800983843" lon="9.208310119185684"><ele>208.0</ele><time>2026-05-02T10:48:42Z</time></trkpt><trkpt lat="40.9634915403233" lon="9.208140534683452"><ele>208.0</ele><time>2026-05-02T10:48:43Z</time></trkpt><trkpt lat="40.96340892016534" lon="9.207960207428059"><ele>211.66666666666666</ele><time>2026-05-02T10:48:44Z</time></trkpt><trkpt lat="40.96331324209488" lon="9.207761260487963"><ele>215.33333333333331</ele><time>2026-05-02T10:48:45Z</time></trkpt><trkpt lat="40.96323842859252" lon="9.207591405055856"><ele>219.0</ele><time>2026-05-02T10:48:46Z</time></trkpt><trkpt lat="40.96315595750378" lon="9.207420854087443"><ele>222.0</ele><time>2026-05-02T10:48:47Z</time></trkpt><trkpt lat="40.96310172417133" lon="9.207273902386339"><ele>225.0</ele><time>2026-05-02T10:48:48Z</time></trkpt><trkpt lat="40.96306832780693" lon="9.207127553244675"><ele>228.0</ele><time>2026-05-02T10:48:49Z</time></trkpt><trkpt lat="40.96305288370545" lon="9.206971554809034"><ele>231.0</ele><time>2026-05-02T10:48:50Z</time></trkpt><trkpt lat="40.96306616191195" lon="9.206816803176558"><ele>231.0</ele><time>2026-05-02T10:48:51Z</time></trkpt><trkpt lat="40.96312380981648" lon="9.206673995190679"><ele>231.0</ele><time>2026-05-02T10:48:52Z</time></trkpt><trkpt lat="40.96320626002413" lon="9.206522900693972"><ele>231.0</ele><time>2026-05-02T10:48:53Z</time></trkpt><trkpt lat="40.963282654672724" lon="9.206370262980425"><ele>231.0</ele><time>2026-05-02T10:48:54Z</time></trkpt><trkpt lat="40.963312922047386" lon="9.206229031703437"><ele>231.0</ele><time>2026-05-02T10:48:55Z</time></trkpt><trkpt lat="40.96331017582199" lon="9.20607641240592"><ele>231.0</ele><time>2026-05-02T10:48:56Z</time></trkpt><trkpt lat="40.96329029906792" lon="9.205925686399928"><ele>231.0</ele><time>2026-05-02T10:48:57Z</time></trkpt><trkpt lat="40.96325547662367" lon="9.205782642253368"><ele>231.0</ele><time>2026-05-02T10:48:58Z</time></trkpt><trkpt lat="40.96320555959887" lon="9.205653603759586"><ele>232.25</ele><time>2026-05-02T10:48:59Z</time></trkpt><trkpt lat="40.963147736105526" lon="9.205510618438526"><ele>233.5</ele><time>2026-05-02T10:49:00Z</time></trkpt><trkpt lat="40.96307167557609" lon="9.20535288201687"><ele>234.75</ele><time>2026-05-02T10:49:01Z</time></trkpt><trkpt lat="40.96298525307411" lon="9.205200179515359"><ele>236.0</ele><time>2026-05-02T10:49:02Z</time></trkpt><trkpt lat="40.96292711935576" lon="9.205047741197246"><ele>236.0</ele><time>2026-05-02T10:49:03Z</time></trkpt><trkpt lat="40.96290612452866" lon="9.204893745311571"><ele>236.0</ele><time>2026-05-02T10:49:04Z</time></trkpt><trkpt lat="40.9628631922336" lon="9.204764198078468"><ele>236.0</ele><time>2026-05-02T10:49:05Z</time></trkpt><trkpt lat="40.962791521048" lon="9.204631555553547"><ele>236.0</ele><time>2026-05-02T10:49:06Z</time></trkpt><trkpt lat="40.962762625184084" lon="9.204495410941291"><ele>236.8</ele><time>2026-05-02T10:49:07Z</time></trkpt><trkpt lat="40.962748351377265" lon="9.204392201726227"><ele>237.60000000000002</ele><time>2026-05-02T10:49:08Z</time></trkpt><trkpt lat="40.96275726320073" lon="9.204288258068896"><ele>238.4</ele><time>2026-05-02T10:49:09Z</time></trkpt><trkpt lat="40.96276210546997" lon="9.204160307227497"><ele>239.2</ele><time>2026-05-02T10:49:10Z</time></trkpt><trkpt lat="40.96276839395341" lon="9.204022488536301"><ele>240.0</ele><time>2026-05-02T10:49:11Z</time></trkpt><trkpt lat="40.96276437397303" lon="9.20385865816447"><ele>243.25</ele><time>2026-05-02T10:49:12Z</time></trkpt><trkpt lat="40.962770672131654" lon="9.203692637711049"><ele>246.5</ele><time>2026-05-02T10:49:12.999Z</time></trkpt><trkpt lat="40.962765465467356" lon="9.20350935948406"><ele>249.75</ele><time>2026-05-02T10:49:13.999Z</time></trkpt><trkpt lat="40.96275580170454" lon="9.203313649116208"><ele>253.0</ele><time>2026-05-02T10:49:14.999Z</time></trkpt><trkpt lat="40.962718111405934" lon="9.203106494993467"><ele>255.33333333333331</ele><time>2026-05-02T10:49:15.999Z</time></trkpt><trkpt lat="40.96266519947918" lon="9.202896439260552"><ele>257.6666666666667</ele><time>2026-05-02T10:49:16.999Z</time></trkpt><trkpt lat="40.96260146464018" lon="9.202703422866339"><ele>260.0</ele><time>2026-05-02T10:49:17.999Z</time></trkpt><trkpt lat="40.96252080608948" lon="9.202526170678716"><ele>260.25</ele><time>2026-05-02T10:49:18.999Z</time></trkpt><trkpt lat="40.96241569893252" lon="9.202359459301192"><ele>260.5</ele><time>2026-05-02T10:49:19.999Z</time></trkpt><trkpt lat="40.96232753662339" lon="9.20219444437269"><ele>260.75</ele><time>2026-05-02T10:49:20.999Z</time></trkpt><trkpt lat="40.96225802785256" lon="9.202093861446103"><ele>261.0</ele><time>2026-05-02T10:49:22Z</time></trkpt><trkpt lat="40.96218823719388" lon="9.202022444808136"><ele>261.0</ele><time>2026-05-02T10:49:23Z</time></trkpt><trkpt lat="40.96208995637281" lon="9.201996960406737"><ele>261.0</ele><time>2026-05-02T10:49:24Z</time></trkpt><trkpt lat="40.96196615452787" lon="9.202077120947653"><ele>261.0</ele><time>2026-05-02T10:49:25Z</time></trkpt><trkpt lat="40.96186253459431" lon="9.202072582687997"><ele>261.0</ele><time>2026-05-02T10:49:26Z</time></trkpt><trkpt lat="40.961764573583" lon="9.202047863943813"><ele>261.0</ele><time>2026-05-02T10:49:27Z</time></trkpt><trkpt lat="40.96165537660937" lon="9.201990226161763"><ele>261.0</ele><time>2026-05-02T10:49:28Z</time></trkpt><trkpt lat="40.961540855113064" lon="9.20198882470458"><ele>261.0</ele><time>2026-05-02T10:49:29Z</time></trkpt><trkpt lat="40.96145693962361" lon="9.202028086452337"><ele>261.0</ele><time>2026-05-02T10:49:30Z</time></trkpt><trkpt lat="40.96140901412345" lon="9.202105076621796"><ele>261.0</ele><time>2026-05-02T10:49:31Z</time></trkpt><trkpt lat="40.961426775631566" lon="9.202211491212552"><ele>261.0</ele><time>2026-05-02T10:49:32Z</time></trkpt><trkpt lat="40.96137547984758" lon="9.202344684645569"><ele>261.0</ele><time>2026-05-02T10:49:34Z</time></trkpt><trkpt lat="40.961274244922" lon="9.202352687134168"><ele>261.0</ele><time>2026-05-02T10:49:36Z</time></trkpt><trkpt lat="40.961209512843794" lon="9.202303825394832"><ele>261.0</ele><time>2026-05-02T10:49:37Z</time></trkpt><trkpt lat="40.96113360713591" lon="9.202215779806583"><ele>261.0</ele><time>2026-05-02T10:49:38Z</time></trkpt><trkpt lat="40.96105368186316" lon="9.202113243993354"><ele>261.0</ele><time>2026-05-02T10:49:39Z</time></trkpt><trkpt lat="40.96094427178491" lon="9.202053340846573"><ele>264.0</ele><time>2026-05-02T10:49:40Z</time></trkpt><trkpt lat="40.96080569309834" lon="9.202059787261566"><ele>267.0</ele><time>2026-05-02T10:49:41Z</time></trkpt><trkpt lat="40.96066159733684" lon="9.202026218826369"><ele>270.0</ele><time>2026-05-02T10:49:42Z</time></trkpt><trkpt lat="40.960512131290145" lon="9.20203027060844"><ele>273.0</ele><time>2026-05-02T10:49:43Z</time></trkpt><trkpt lat="40.96036835526681" lon="9.202090050542491"><ele>273.0</ele><time>2026-05-02T10:49:44Z</time></trkpt><trkpt lat="40.96022319120982" lon="9.202149699695777"><ele>273.0</ele><time>2026-05-02T10:49:45Z</time></trkpt><trkpt lat="40.960066420738855" lon="9.202175395272358"><ele>273.0</ele><time>2026-05-02T10:49:46Z</time></trkpt><trkpt lat="40.95990102716581" lon="9.20223957988454"><ele>275.25</ele><time>2026-05-02T10:49:47Z</time></trkpt><trkpt lat="40.959737322214586" lon="9.202290386436985"><ele>277.5</ele><time>2026-05-02T10:49:48Z</time></trkpt><trkpt lat="40.959589106765996" lon="9.20232602619591"><ele>279.75</ele><time>2026-05-02T10:49:49Z</time></trkpt><trkpt lat="40.95946959937373" lon="9.202323632278521"><ele>282.0</ele><time>2026-05-02T10:49:50Z</time></trkpt><trkpt lat="40.95935265982829" lon="9.202290981324717"><ele>282.0</ele><time>2026-05-02T10:49:51Z</time></trkpt><trkpt lat="40.959233664588844" lon="9.202272118216912"><ele>282.0</ele><time>2026-05-02T10:49:52Z</time></trkpt><trkpt lat="40.9590868554837" lon="9.202275960823155"><ele>282.0</ele><time>2026-05-02T10:49:53Z</time></trkpt><trkpt lat="40.95894131012898" lon="9.20224772483383"><ele>282.0</ele><time>2026-05-02T10:49:54Z</time></trkpt><trkpt lat="40.958802648342676" lon="9.202268979051079"><ele>288.0</ele><time>2026-05-02T10:49:55Z</time></trkpt><trkpt lat="40.95867066965215" lon="9.20236328457282"><ele>294.0</ele><time>2026-05-02T10:49:56Z</time></trkpt><trkpt lat="40.95852459467926" lon="9.202421716553994"><ele>300.0</ele><time>2026-05-02T10:49:57Z</time></trkpt><trkpt lat="40.95840289870972" lon="9.202481688430348"><ele>306.0</ele><time>2026-05-02T10:49:58Z</time></trkpt><trkpt lat="40.958278339084096" lon="9.202518706912056"><ele>307.0</ele><time>2026-05-02T10:49:59Z</time></trkpt><trkpt lat="40.958152005960436" lon="9.202530837282563"><ele>308.0</ele><time>2026-05-02T10:50:00Z</time></trkpt><trkpt lat="40.95802767877951" lon="9.202520937352858"><ele>309.0</ele><time>2026-05-02T10:50:01Z</time></trkpt><trkpt lat="40.9579039022218" lon="9.202501969271307"><ele>310.0</ele><time>2026-05-02T10:50:02Z</time></trkpt><trkpt lat="40.95777685883754" lon="9.202472622052177"><ele>310.0</ele><time>2026-05-02T10:50:03Z</time></trkpt><trkpt lat="40.95765799032785" lon="9.202440214044376"><ele>310.0</ele><time>2026-05-02T10:50:04Z</time></trkpt><trkpt lat="40.9575288555412" lon="9.202425467778857"><ele>310.0</ele><time>2026-05-02T10:50:05Z</time></trkpt><trkpt lat="40.95741206393287" lon="9.202384301962898"><ele>310.0</ele><time>2026-05-02T10:50:06Z</time></trkpt><trkpt lat="40.95728892021" lon="9.202361931808028"><ele>311.6</ele><time>2026-05-02T10:50:07Z</time></trkpt><trkpt lat="40.95716871469727" lon="9.202321786139658"><ele>313.2</ele><time>2026-05-02T10:50:08Z</time></trkpt><trkpt lat="40.957064780051645" lon="9.202285637419248"><ele>314.8</ele><time>2026-05-02T10:50:09Z</time></trkpt><trkpt lat="40.95697844351894" lon="9.202249229866531"><ele>316.4</ele><time>2026-05-02T10:50:10Z</time></trkpt><trkpt lat="40.95689511856461" lon="9.202211126440757"><ele>318.0</ele><time>2026-05-02T10:50:11Z</time></trkpt><trkpt lat="40.956806477119976" lon="9.202145092185097"><ele>318.0</ele><time>2026-05-02T10:50:12Z</time></trkpt><trkpt lat="40.95671469533661" lon="9.202113056199323"><ele>318.0</ele><time>2026-05-02T10:50:13Z</time></trkpt><trkpt lat="40.956634007185215" lon="9.20202976457061"><ele>318.0</ele><time>2026-05-02T10:50:14Z</time></trkpt><trkpt lat="40.95655325379883" lon="9.201962027331207"><ele>318.0</ele><time>2026-05-02T10:50:15Z</time></trkpt><trkpt lat="40.956467804299216" lon="9.201891599409336"><ele>318.0</ele><time>2026-05-02T10:50:16Z</time></trkpt><trkpt lat="40.95637404618076" lon="9.201826048702175"><ele>320.6</ele><time>2026-05-02T10:50:17Z</time></trkpt><trkpt lat="40.956275047436954" lon="9.201767441465089"><ele>323.20000000000005</ele><time>2026-05-02T10:50:18Z</time></trkpt><trkpt lat="40.95616400819695" lon="9.201736821927762"><ele>325.8</ele><time>2026-05-02T10:50:19Z</time></trkpt><trkpt lat="40.95605806631571" lon="9.20169360148648"><ele>328.40000000000003</ele><time>2026-05-02T10:50:20Z</time></trkpt><trkpt lat="40.95595043374585" lon="9.201658430131811"><ele>331.0</ele><time>2026-05-02T10:50:21Z</time></trkpt><trkpt lat="40.955840640094735" lon="9.201625796440153"><ele>332.25</ele><time>2026-05-02T10:50:22Z</time></trkpt><trkpt lat="40.95573087968483" lon="9.20159374570254"><ele>333.5</ele><time>2026-05-02T10:50:23Z</time></trkpt><trkpt lat="40.955620096916206" lon="9.201555023773441"><ele>334.75</ele><time>2026-05-02T10:50:24Z</time></trkpt><trkpt lat="40.95551174330718" lon="9.201513534817543"><ele>336.0</ele><time>2026-05-02T10:50:25Z</time></trkpt><trkpt lat="40.95539860674391" lon="9.201466255597763"><ele>334.25</ele><time>2026-05-02T10:50:26Z</time></trkpt><trkpt lat="40.955289088604445" lon="9.201401108843744"><ele>332.5</ele><time>2026-05-02T10:50:27Z</time></trkpt><trkpt lat="40.955171213034056" lon="9.201351747886445"><ele>330.75</ele><time>2026-05-02T10:50:28Z</time></trkpt><trkpt lat="40.955039582675006" lon="9.20134064016613"><ele>329.0</ele><time>2026-05-02T10:50:29Z</time></trkpt><trkpt lat="40.954915826394334" lon="9.201278340370957"><ele>329.0</ele><time>2026-05-02T10:50:30Z</time></trkpt><trkpt lat="40.954796544072785" lon="9.201198353755617"><ele>329.0</ele><time>2026-05-02T10:50:31Z</time></trkpt><trkpt lat="40.95467929285914" lon="9.201160030849897"><ele>329.0</ele><time>2026-05-02T10:50:32Z</time></trkpt><trkpt lat="40.95458651830736" lon="9.200976626090592"><ele>329.0</ele><time>2026-05-02T10:50:33Z</time></trkpt><trkpt lat="40.954501841556656" lon="9.200844981268448"><ele>329.0</ele><time>2026-05-02T10:50:34Z</time></trkpt><trkpt lat="40.95441914269829" lon="9.200715341519036"><ele>329.0</ele><time>2026-05-02T10:50:35Z</time></trkpt><trkpt lat="40.95432905197706" lon="9.200611401375815"><ele>329.0</ele><time>2026-05-02T10:50:36Z</time></trkpt><trkpt lat="40.954222506399326" lon="9.200519032783687"><ele>329.0</ele><time>2026-05-02T10:50:37Z</time></trkpt><trkpt lat="40.95411217274442" lon="9.20041753364984"><ele>330.25</ele><time>2026-05-02T10:50:38Z</time></trkpt><trkpt lat="40.95400229880978" lon="9.200312617230143"><ele>331.5</ele><time>2026-05-02T10:50:39Z</time></trkpt><trkpt lat="40.95389808005906" lon="9.200197958614162"><ele>332.75</ele><time>2026-05-02T10:50:40Z</time></trkpt><trkpt lat="40.95379380606435" lon="9.200076661188971"><ele>334.0</ele><time>2026-05-02T10:50:41Z</time></trkpt><trkpt lat="40.95367895655855" lon="9.199966160763006"><ele>334.0</ele><time>2026-05-02T10:50:42Z</time></trkpt><trkpt lat="40.953549682918045" lon="9.199874222065793"><ele>334.0</ele><time>2026-05-02T10:50:43Z</time></trkpt><trkpt lat="40.95340913519358" lon="9.19978795191943"><ele>334.0</ele><time>2026-05-02T10:50:44Z</time></trkpt><trkpt lat="40.953274564007046" lon="9.19970915028155"><ele>334.0</ele><time>2026-05-02T10:50:45Z</time></trkpt><trkpt lat="40.95315409655075" lon="9.199632647395973"><ele>336.2</ele><time>2026-05-02T10:50:46Z</time></trkpt><trkpt lat="40.953042224348906" lon="9.199568854004616"><ele>338.4</ele><time>2026-05-02T10:50:47Z</time></trkpt><trkpt lat="40.95294534075138" lon="9.19954400105434"><ele>340.6</ele><time>2026-05-02T10:50:48Z</time></trkpt><trkpt lat="40.95286488150111" lon="9.199593654589584"><ele>342.8</ele><time>2026-05-02T10:50:49Z</time></trkpt><trkpt lat="40.95278709791889" lon="9.1996883168734"><ele>345.0</ele><time>2026-05-02T10:50:50Z</time></trkpt><trkpt lat="40.95269133797232" lon="9.19976267567816"><ele>345.0</ele><time>2026-05-02T10:50:51Z</time></trkpt><trkpt lat="40.95260618207036" lon="9.19974862538907"><ele>345.0</ele><time>2026-05-02T10:50:52Z</time></trkpt><trkpt lat="40.9525209044234" lon="9.199698252547659"><ele>345.0</ele><time>2026-05-02T10:50:53Z</time></trkpt><trkpt lat="40.95246206986652" lon="9.199605079516097"><ele>345.0</ele><time>2026-05-02T10:50:54Z</time></trkpt><trkpt lat="40.9524114721403" lon="9.199486308618502"><ele>345.0</ele><time>2026-05-02T10:50:55Z</time></trkpt><trkpt lat="40.952391057179995" lon="9.199336239242372"><ele>348.0</ele><time>2026-05-02T10:50:56Z</time></trkpt><trkpt lat="40.95237467422366" lon="9.19916742991057"><ele>351.0</ele><time>2026-05-02T10:50:57Z</time></trkpt><trkpt lat="40.95235375129619" lon="9.198995114256261"><ele>354.0</ele><time>2026-05-02T10:50:58Z</time></trkpt><trkpt lat="40.95231010516196" lon="9.198803214929002"><ele>357.0</ele><time>2026-05-02T10:50:59Z</time></trkpt><trkpt lat="40.95228246330754" lon="9.198587447301005"><ele>358.6666666666667</ele><time>2026-05-02T10:51:00Z</time></trkpt><trkpt lat="40.952266917632265" lon="9.198361700828107"><ele>360.33333333333337</ele><time>2026-05-02T10:51:01Z</time></trkpt><trkpt lat="40.95227025559643" lon="9.19814298691352"><ele>362.0</ele><time>2026-05-02T10:51:02Z</time></trkpt><trkpt lat="40.95227220901358" lon="9.19797681337351"><ele>362.75</ele><time>2026-05-02T10:51:03Z</time></trkpt><trkpt lat="40.95223138458929" lon="9.197852501790045"><ele>363.5</ele><time>2026-05-02T10:51:04Z</time></trkpt><trkpt lat="40.95217791306248" lon="9.197691032316996"><ele>364.25</ele><time>2026-05-02T10:51:05Z</time></trkpt><trkpt lat="40.952135483909615" lon="9.197487915002608"><ele>365.0</ele><time>2026-05-02T10:51:06Z</time></trkpt><trkpt lat="40.9521244182005" lon="9.197317207074065"><ele>366.0</ele><time>2026-05-02T10:51:07Z</time></trkpt><trkpt lat="40.95213023794572" lon="9.197171824128322"><ele>367.0</ele><time>2026-05-02T10:51:08Z</time></trkpt><trkpt lat="40.952114112665896" lon="9.197053877901407"><ele>368.0</ele><time>2026-05-02T10:51:09Z</time></trkpt><trkpt lat="40.95202378293801" lon="9.196976540682243"><ele>369.0</ele><time>2026-05-02T10:51:11Z</time></trkpt><trkpt lat="40.95194524170628" lon="9.19699373568344"><ele>370.0</ele><time>2026-05-02T10:51:12.999Z</time></trkpt><trkpt lat="40.95188044389398" lon="9.196993449932402"><ele>370.0</ele><time>2026-05-02T10:51:23.999Z</time></trkpt><trkpt lat="40.95177825003848" lon="9.196996680769056"><ele>370.0</ele><time>2026-05-02T10:51:25.999Z</time></trkpt><trkpt lat="40.951714422746015" lon="9.196980293051922"><ele>370.0</ele><time>2026-05-02T10:51:26.999Z</time></trkpt><trkpt lat="40.95163463995195" lon="9.196947271629858"><ele>370.0</ele><time>2026-05-02T10:51:28Z</time></trkpt><trkpt lat="40.951556140483696" lon="9.196882749135785"><ele>370.0</ele><time>2026-05-02T10:51:29Z</time></trkpt><trkpt lat="40.95149537917372" lon="9.196797154997707"><ele>370.0</ele><time>2026-05-02T10:51:30Z</time></trkpt><trkpt lat="40.95144939911129" lon="9.19669407380596"><ele>370.25</ele><time>2026-05-02T10:51:31Z</time></trkpt><trkpt lat="40.95140162751075" lon="9.196577864993154"><ele>370.5</ele><time>2026-05-02T10:51:32Z</time></trkpt><trkpt lat="40.951323985221634" lon="9.196478156275935"><ele>370.75</ele><time>2026-05-02T10:51:33Z</time></trkpt><trkpt lat="40.95120799425717" lon="9.196396895013407"><ele>371.0</ele><time>2026-05-02T10:51:34Z</time></trkpt><trkpt lat="40.95108614069655" lon="9.196329694145646"><ele>371.0</ele><time>2026-05-02T10:51:35Z</time></trkpt><trkpt lat="40.95097680869815" lon="9.19625508962037"><ele>371.0</ele><time>2026-05-02T10:51:36Z</time></trkpt><trkpt lat="40.95089861552074" lon="9.196159863091179"><ele>371.0</ele><time>2026-05-02T10:51:37Z</time></trkpt><trkpt lat="40.95085154958079" lon="9.196041305429018"><ele>371.0</ele><time>2026-05-02T10:51:38Z</time></trkpt><trkpt lat="40.95081973501636" lon="9.195886597663469"><ele>373.0</ele><time>2026-05-02T10:51:39Z</time></trkpt><trkpt lat="40.95078827580537" lon="9.19570602719633"><ele>375.0</ele><time>2026-05-02T10:51:40Z</time></trkpt><trkpt lat="40.950750072797426" lon="9.195527606788612"><ele>377.0</ele><time>2026-05-02T10:51:41Z</time></trkpt><trkpt lat="40.950748508924086" lon="9.195382240740322"><ele>379.0</ele><time>2026-05-02T10:51:42Z</time></trkpt><trkpt lat="40.95078372646321" lon="9.195304524566424"><ele>381.0</ele><time>2026-05-02T10:51:43Z</time></trkpt><trkpt lat="40.9508095054412" lon="9.195194435081216"><ele>383.0</ele><time>2026-05-02T10:51:44Z</time></trkpt><trkpt lat="40.95081421903409" lon="9.195073831979784"><ele>385.0</ele><time>2026-05-02T10:51:45Z</time></trkpt><trkpt lat="40.950784236097036" lon="9.19493296729795"><ele>387.0</ele><time>2026-05-02T10:51:46Z</time></trkpt><trkpt lat="40.95074614457939" lon="9.194796747091019"><ele>389.0</ele><time>2026-05-02T10:51:47Z</time></trkpt><trkpt lat="40.95070266048571" lon="9.194736188817767"><ele>389.0</ele><time>2026-05-02T10:51:48Z</time></trkpt><trkpt lat="40.950585999549034" lon="9.19476405089586"><ele>389.0</ele><time>2026-05-02T10:51:50Z</time></trkpt><trkpt lat="40.9505037031871" lon="9.194789962726766"><ele>389.0</ele><time>2026-05-02T10:51:51Z</time></trkpt><trkpt lat="40.9504087066231" lon="9.194782169512244"><ele>389.0</ele><time>2026-05-02T10:51:52Z</time></trkpt><trkpt lat="40.950324064884825" lon="9.19473479350714"><ele>389.0</ele><time>2026-05-02T10:51:53Z</time></trkpt><trkpt lat="40.950235961422905" lon="9.194635803575816"><ele>389.0</ele><time>2026-05-02T10:51:54Z</time></trkpt><trkpt lat="40.950147768183356" lon="9.194515789343678"><ele>389.0</ele><time>2026-05-02T10:51:55Z</time></trkpt><trkpt lat="40.95005276468844" lon="9.194388307968435"><ele>389.0</ele><time>2026-05-02T10:51:56Z</time></trkpt><trkpt lat="40.94994991616955" lon="9.19425841455335"><ele>389.0</ele><time>2026-05-02T10:51:57Z</time></trkpt><trkpt lat="40.949831991166086" lon="9.19410663482329"><ele>391.66666666666663</ele><time>2026-05-02T10:51:58Z</time></trkpt><trkpt lat="40.94970755832195" lon="9.19393145921016"><ele>394.33333333333337</ele><time>2026-05-02T10:51:59Z</time></trkpt><trkpt lat="40.94956450878868" lon="9.193774171416093"><ele>397.0</ele><time>2026-05-02T10:52:00Z</time></trkpt><trkpt lat="40.949451555529265" lon="9.1936410769326"><ele>397.0</ele><time>2026-05-02T10:52:01Z</time></trkpt><trkpt lat="40.94936468684762" lon="9.19349609725383"><ele>397.0</ele><time>2026-05-02T10:52:02Z</time></trkpt><trkpt lat="40.94928113469413" lon="9.193327656093768"><ele>397.0</ele><time>2026-05-02T10:52:03Z</time></trkpt><trkpt lat="40.94919067776057" lon="9.193154892158836"><ele>397.75</ele><time>2026-05-02T10:52:04Z</time></trkpt><trkpt lat="40.94908102189703" lon="9.192996388887206"><ele>398.5</ele><time>2026-05-02T10:52:05Z</time></trkpt><trkpt lat="40.94897876780609" lon="9.192852710450188"><ele>399.25</ele><time>2026-05-02T10:52:06Z</time></trkpt><trkpt lat="40.94892522168589" lon="9.192713131141142"><ele>400.0</ele><time>2026-05-02T10:52:07Z</time></trkpt><trkpt lat="40.94888400890387" lon="9.192598855479854"><ele>400.0</ele><time>2026-05-02T10:52:08Z</time></trkpt><trkpt lat="40.94882245740248" lon="9.192534134694332"><ele>400.0</ele><time>2026-05-02T10:52:09Z</time></trkpt><trkpt lat="40.94874385198591" lon="9.192511840945443"><ele>400.0</ele><time>2026-05-02T10:52:10Z</time></trkpt><trkpt lat="40.948632467394816" lon="9.192523297383008"><ele>400.0</ele><time>2026-05-02T10:52:11Z</time></trkpt><trkpt lat="40.9484986816855" lon="9.192523282860817"><ele>400.0</ele><time>2026-05-02T10:52:12Z</time></trkpt><trkpt lat="40.94837212420788" lon="9.19247195409497"><ele>400.33333333333337</ele><time>2026-05-02T10:52:13Z</time></trkpt><trkpt lat="40.948244661858816" lon="9.192379634145562"><ele>400.66666666666663</ele><time>2026-05-02T10:52:14Z</time></trkpt><trkpt lat="40.94810638161969" lon="9.192252884423338"><ele>401.0</ele><time>2026-05-02T10:52:15Z</time></trkpt><trkpt lat="40.94798328699592" lon="9.19211057302787"><ele>401.0</ele><time>2026-05-02T10:52:16Z</time></trkpt><trkpt lat="40.94788654130546" lon="9.191974727730273"><ele>401.0</ele><time>2026-05-02T10:52:17Z</time></trkpt><trkpt lat="40.947799809886284" lon="9.191822126076321"><ele>401.0</ele><time>2026-05-02T10:52:18Z</time></trkpt><trkpt lat="40.947717653809654" lon="9.191677806795102"><ele>401.0</ele><time>2026-05-02T10:52:19Z</time></trkpt><trkpt lat="40.94759969937238" lon="9.191539024553489"><ele>402.0</ele><time>2026-05-02T10:52:20Z</time></trkpt><trkpt lat="40.947428931054134" lon="9.191407951986868"><ele>403.0</ele><time>2026-05-02T10:52:21Z</time></trkpt><trkpt lat="40.94725472797033" lon="9.19129063226147"><ele>404.0</ele><time>2026-05-02T10:52:22Z</time></trkpt><trkpt lat="40.94710044615895" lon="9.191176128120244"><ele>404.0</ele><time>2026-05-02T10:52:23Z</time></trkpt><trkpt lat="40.946963863318736" lon="9.191055934327823"><ele>404.0</ele><time>2026-05-02T10:52:24Z</time></trkpt><trkpt lat="40.946847035262806" lon="9.190950609528864"><ele>404.0</ele><time>2026-05-02T10:52:25Z</time></trkpt><trkpt lat="40.94672430912433" lon="9.190890535932516"><ele>404.0</ele><time>2026-05-02T10:52:26Z</time></trkpt><trkpt lat="40.94660391869146" lon="9.190873273306746"><ele>404.25</ele><time>2026-05-02T10:52:27Z</time></trkpt><trkpt lat="40.94650315576166" lon="9.190815704553225"><ele>404.5</ele><time>2026-05-02T10:52:28Z</time></trkpt><trkpt lat="40.946428588730946" lon="9.190717049502775"><ele>404.75</ele><time>2026-05-02T10:52:29Z</time></trkpt><trkpt lat="40.94635619798183" lon="9.190586204175972"><ele>405.0</ele><time>2026-05-02T10:52:30Z</time></trkpt><trkpt lat="40.9462653294015" lon="9.190428522101831"><ele>405.0</ele><time>2026-05-02T10:52:31Z</time></trkpt><trkpt lat="40.94616613290902" lon="9.190292645761184"><ele>405.0</ele><time>2026-05-02T10:52:32Z</time></trkpt><trkpt lat="40.946106542927666" lon="9.190162849745038"><ele>405.0</ele><time>2026-05-02T10:52:33Z</time></trkpt><trkpt lat="40.946062017564124" lon="9.190019754535086"><ele>405.0</ele><time>2026-05-02T10:52:34Z</time></trkpt><trkpt lat="40.946000363113825" lon="9.189937109938365"><ele>405.0</ele><time>2026-05-02T10:52:35Z</time></trkpt><trkpt lat="40.94593026005816" lon="9.189921042350331"><ele>405.0</ele><time>2026-05-02T10:52:36Z</time></trkpt><trkpt lat="40.945829755526674" lon="9.189932971825028"><ele>405.0</ele><time>2026-05-02T10:52:37Z</time></trkpt><trkpt lat="40.945719617703254" lon="9.189968502325772"><ele>405.0</ele><time>2026-05-02T10:52:38Z</time></trkpt><trkpt lat="40.945584093219544" lon="9.189995921713347"><ele>405.0</ele><time>2026-05-02T10:52:39Z</time></trkpt><trkpt lat="40.945430084645004" lon="9.189990339902153"><ele>406.5</ele><time>2026-05-02T10:52:40Z</time></trkpt><trkpt lat="40.94528534124981" lon="9.189990354897274"><ele>408.0</ele><time>2026-05-02T10:52:41Z</time></trkpt><trkpt lat="40.945166078371145" lon="9.190013315532044"><ele>409.5</ele><time>2026-05-02T10:52:42Z</time></trkpt><trkpt lat="40.94506533802543" lon="9.18999316941821"><ele>411.0</ele><time>2026-05-02T10:52:43Z</time></trkpt><trkpt lat="40.94496299468232" lon="9.189907048394213"><ele>413.75</ele><time>2026-05-02T10:52:44Z</time></trkpt><trkpt lat="40.9449073426077" lon="9.189784152410214"><ele>416.5</ele><time>2026-05-02T10:52:45Z</time></trkpt><trkpt lat="40.944901171249555" lon="9.189657685530864"><ele>419.25</ele><time>2026-05-02T10:52:46Z</time></trkpt><trkpt lat="40.94492772421636" lon="9.189493459110633"><ele>422.0</ele><time>2026-05-02T10:52:47Z</time></trkpt><trkpt lat="40.94496075396242" lon="9.189289268818975"><ele>422.0</ele><time>2026-05-02T10:52:48Z</time></trkpt><trkpt lat="40.94497300128135" lon="9.189118722570063"><ele>422.0</ele><time>2026-05-02T10:52:49Z</time></trkpt><trkpt lat="40.944939114550344" lon="9.188985315692761"><ele>422.0</ele><time>2026-05-02T10:52:50Z</time></trkpt><trkpt lat="40.944861636494814" lon="9.18887151188563"><ele>422.0</ele><time>2026-05-02T10:52:51Z</time></trkpt><trkpt lat="40.94474611782994" lon="9.18878874138889"><ele>423.0</ele><time>2026-05-02T10:52:52Z</time></trkpt><trkpt lat="40.94458542905563" lon="9.188732655835587"><ele>424.0</ele><time>2026-05-02T10:52:53Z</time></trkpt><trkpt lat="40.94443133693447" lon="9.188660686579448"><ele>425.0</ele><time>2026-05-02T10:52:54Z</time></trkpt><trkpt lat="40.94429523424856" lon="9.18854657778997"><ele>426.3333333333333</ele><time>2026-05-02T10:52:55Z</time></trkpt><trkpt lat="40.94414802853647" lon="9.18839914993974"><ele>427.66666666666663</ele><time>2026-05-02T10:52:56Z</time></trkpt><trkpt lat="40.944002792775116" lon="9.188244177611407"><ele>429.0</ele><time>2026-05-02T10:52:57Z</time></trkpt><trkpt lat="40.9438796200958" lon="9.188114130420898"><ele>429.0</ele><time>2026-05-02T10:52:58Z</time></trkpt><trkpt lat="40.94377018483001" lon="9.187991390472073"><ele>429.0</ele><time>2026-05-02T10:52:59Z</time></trkpt><trkpt lat="40.94366876718764" lon="9.187887652656912"><ele>429.0</ele><time>2026-05-02T10:53:00Z</time></trkpt><trkpt lat="40.94356334557511" lon="9.187800430719511"><ele>429.0</ele><time>2026-05-02T10:53:01Z</time></trkpt><trkpt lat="40.94345195342152" lon="9.18775199311905"><ele>431.0</ele><time>2026-05-02T10:53:02Z</time></trkpt><trkpt lat="40.94332685863312" lon="9.187740794341135"><ele>433.0</ele><time>2026-05-02T10:53:03Z</time></trkpt><trkpt lat="40.94319568971064" lon="9.187738440605512"><ele>435.0</ele><time>2026-05-02T10:53:04Z</time></trkpt><trkpt lat="40.94307268832979" lon="9.18768131180844"><ele>437.0</ele><time>2026-05-02T10:53:05Z</time></trkpt><trkpt lat="40.942971400489334" lon="9.187596914180208"><ele>437.0</ele><time>2026-05-02T10:53:06Z</time></trkpt><trkpt lat="40.94283571206501" lon="9.187565435124156"><ele>437.0</ele><time>2026-05-02T10:53:07Z</time></trkpt><trkpt lat="40.94270438629848" lon="9.187599262178113"><ele>437.0</ele><time>2026-05-02T10:53:08Z</time></trkpt><trkpt lat="40.9425741435735" lon="9.187633391766424"><ele>437.0</ele><time>2026-05-02T10:53:09Z</time></trkpt><trkpt lat="40.942444598737374" lon="9.187641286457575"><ele>439.0</ele><time>2026-05-02T10:53:10Z</time></trkpt><trkpt lat="40.94231828917087" lon="9.187615188504001"><ele>441.00000000000006</ele><time>2026-05-02T10:53:11Z</time></trkpt><trkpt lat="40.94221787746888" lon="9.18755475196563"><ele>443.00000000000006</ele><time>2026-05-02T10:53:12Z</time></trkpt><trkpt lat="40.94213823064766" lon="9.187537942799711"><ele>445.0</ele><time>2026-05-02T10:53:13Z</time></trkpt><trkpt lat="40.94205851492754" lon="9.187580336987319"><ele>447.0</ele><time>2026-05-02T10:53:14Z</time></trkpt><trkpt lat="40.94198444447161" lon="9.187648958955057"><ele>447.0</ele><time>2026-05-02T10:53:14.999Z</time></trkpt><trkpt lat="40.94190862790612" lon="9.187684554446431"><ele>447.0</ele><time>2026-05-02T10:53:15.999Z</time></trkpt><trkpt lat="40.941841335857234" lon="9.187676515361765"><ele>447.0</ele><time>2026-05-02T10:53:16.999Z</time></trkpt><trkpt lat="40.941758229849924" lon="9.1876343008778"><ele>447.0</ele><time>2026-05-02T10:53:18.999Z</time></trkpt><trkpt lat="40.94169989809964" lon="9.187590419362644"><ele>447.0</ele><time>2026-05-02T10:53:30.999Z</time></trkpt><trkpt lat="40.9415914615211" lon="9.187500375896516"><ele>447.0</ele><time>2026-05-02T10:53:34Z</time></trkpt><trkpt lat="40.94152806380903" lon="9.187456370729628"><ele>447.20000000000005</ele><time>2026-05-02T10:53:35Z</time></trkpt><trkpt lat="40.94146262568648" lon="9.187437327251997"><ele>447.40000000000003</ele><time>2026-05-02T10:53:36Z</time></trkpt><trkpt lat="40.94139583165348" lon="9.187430305444021"><ele>447.59999999999997</ele><time>2026-05-02T10:53:37Z</time></trkpt><trkpt lat="40.94127828707967" lon="9.187407032440358"><ele>447.79999999999995</ele><time>2026-05-02T10:53:39Z</time></trkpt><trkpt lat="40.94117102569856" lon="9.187365460859441"><ele>448.0</ele><time>2026-05-02T10:53:41Z</time></trkpt><trkpt lat="40.94107294748593" lon="9.187279883784424"><ele>447.59999999999997</ele><time>2026-05-02T10:53:43Z</time></trkpt><trkpt lat="40.94097377345847" lon="9.187169778695766"><ele>447.19999999999993</ele><time>2026-05-02T10:53:45Z</time></trkpt><trkpt lat="40.94092189934526" lon="9.187096851511038"><ele>446.8</ele><time>2026-05-02T10:53:46Z</time></trkpt><trkpt lat="40.940860091818145" lon="9.18701036046213"><ele>446.4</ele><time>2026-05-02T10:53:47Z</time></trkpt><trkpt lat="40.9408025364436" lon="9.186922185335822"><ele>446.0</ele><time>2026-05-02T10:53:48Z</time></trkpt><trkpt lat="40.940730917543746" lon="9.186834990648752"><ele>446.0</ele><time>2026-05-02T10:53:49Z</time></trkpt><trkpt lat="40.94065234540365" lon="9.186766553557598"><ele>446.0</ele><time>2026-05-02T10:53:50Z</time></trkpt><trkpt lat="40.94056040566413" lon="9.18673236653921"><ele>446.0</ele><time>2026-05-02T10:53:51Z</time></trkpt><trkpt lat="40.94046360848564" lon="9.18672205221289"><ele>446.0</ele><time>2026-05-02T10:53:52Z</time></trkpt><trkpt lat="40.94035798666723" lon="9.18672383117021"><ele>446.0</ele><time>2026-05-02T10:53:53Z</time></trkpt><trkpt lat="40.940247484328324" lon="9.186722473449267"><ele>446.0</ele><time>2026-05-02T10:53:54Z</time></trkpt><trkpt lat="40.94013092139748" lon="9.186706017931746"><ele>446.0</ele><time>2026-05-02T10:53:55Z</time></trkpt><trkpt lat="40.94000195077716" lon="9.186674464811835"><ele>446.0</ele><time>2026-05-02T10:53:56Z</time></trkpt><trkpt lat="40.9398686125295" lon="9.18663389161486"><ele>446.0</ele><time>2026-05-02T10:53:57Z</time></trkpt><trkpt lat="40.939732483850406" lon="9.18659247040945"><ele>445.5</ele><time>2026-05-02T10:53:58Z</time></trkpt><trkpt lat="40.93960750988709" lon="9.186564413655661"><ele>445.0</ele><time>2026-05-02T10:53:59Z</time></trkpt><trkpt lat="40.939481556025335" lon="9.186557145788166"><ele>444.5</ele><time>2026-05-02T10:54:00Z</time></trkpt><trkpt lat="40.939347736827564" lon="9.186575939743568"><ele>444.0</ele><time>2026-05-02T10:54:01Z</time></trkpt><trkpt lat="40.93921618351379" lon="9.186599164202685"><ele>444.0</ele><time>2026-05-02T10:54:02Z</time></trkpt><trkpt lat="40.93909165067591" lon="9.186630734653326"><ele>444.0</ele><time>2026-05-02T10:54:03Z</time></trkpt><trkpt lat="40.9389568997497" lon="9.186674138206815"><ele>444.0</ele><time>2026-05-02T10:54:04Z</time></trkpt><trkpt lat="40.93882765537201" lon="9.186723965860246"><ele>444.0</ele><time>2026-05-02T10:54:05Z</time></trkpt><trkpt lat="40.93872773358364" lon="9.186783418195986"><ele>444.0</ele><time>2026-05-02T10:54:06Z</time></trkpt><trkpt lat="40.938651690852325" lon="9.186877426282734"><ele>444.0</ele><time>2026-05-02T10:54:07Z</time></trkpt><trkpt lat="40.938584744685585" lon="9.187003027757394"><ele>444.0</ele><time>2026-05-02T10:54:08Z</time></trkpt><trkpt lat="40.93850913245142" lon="9.187089894571885"><ele>444.0</ele><time>2026-05-02T10:54:09Z</time></trkpt><trkpt lat="40.93842389198727" lon="9.187106822283686"><ele>444.0</ele><time>2026-05-02T10:54:10Z</time></trkpt><trkpt lat="40.93832587641965" lon="9.187071526114194"><ele>443.5</ele><time>2026-05-02T10:54:11Z</time></trkpt><trkpt lat="40.93821468949527" lon="9.186990673856213"><ele>443.0</ele><time>2026-05-02T10:54:12Z</time></trkpt><trkpt lat="40.93810412540818" lon="9.18686839130077"><ele>442.5</ele><time>2026-05-02T10:54:13Z</time></trkpt><trkpt lat="40.93799840719153" lon="9.186723753287838"><ele>442.0</ele><time>2026-05-02T10:54:14Z</time></trkpt><trkpt lat="40.93788201043652" lon="9.186575545030246"><ele>441.6666666666667</ele><time>2026-05-02T10:54:15Z</time></trkpt><trkpt lat="40.93774268519918" lon="9.186450856956347"><ele>441.33333333333337</ele><time>2026-05-02T10:54:16Z</time></trkpt><trkpt lat="40.937612671337305" lon="9.186333575960228"><ele>441.0</ele><time>2026-05-02T10:54:17Z</time></trkpt><trkpt lat="40.937504347437226" lon="9.18624080899745"><ele>440.5</ele><time>2026-05-02T10:54:18Z</time></trkpt><trkpt lat="40.937401492911135" lon="9.186176735958357"><ele>440.0</ele><time>2026-05-02T10:54:19Z</time></trkpt><trkpt lat="40.93727198739774" lon="9.186129758037444"><ele>439.5</ele><time>2026-05-02T10:54:20Z</time></trkpt><trkpt lat="40.93713000109892" lon="9.186071226513533"><ele>439.0</ele><time>2026-05-02T10:54:21Z</time></trkpt><trkpt lat="40.93698050659591" lon="9.186015482920201"><ele>439.0</ele><time>2026-05-02T10:54:22Z</time></trkpt><trkpt lat="40.93684635606678" lon="9.18599383862804"><ele>439.0</ele><time>2026-05-02T10:54:23Z</time></trkpt><trkpt lat="40.93672984238237" lon="9.18598757360081"><ele>439.0</ele><time>2026-05-02T10:54:24Z</time></trkpt><trkpt lat="40.93663088959088" lon="9.185954191438103"><ele>439.0</ele><time>2026-05-02T10:54:25Z</time></trkpt><trkpt lat="40.936540801904485" lon="9.185854220402481"><ele>438.0</ele><time>2026-05-02T10:54:26Z</time></trkpt><trkpt lat="40.93646586552063" lon="9.185707142148772"><ele>437.0</ele><time>2026-05-02T10:54:27Z</time></trkpt><trkpt lat="40.93639799557434" lon="9.185542559401403"><ele>436.0</ele><time>2026-05-02T10:54:28Z</time></trkpt><trkpt lat="40.9363179963409" lon="9.185379071539721"><ele>435.0</ele><time>2026-05-02T10:54:29Z</time></trkpt><trkpt lat="40.93620800885461" lon="9.185226137537345"><ele>437.0</ele><time>2026-05-02T10:54:30Z</time></trkpt><trkpt lat="40.936085892052624" lon="9.18508586342013"><ele>439.0</ele><time>2026-05-02T10:54:31Z</time></trkpt><trkpt lat="40.935982033794794" lon="9.184965236030616"><ele>441.0</ele><time>2026-05-02T10:54:32Z</time></trkpt><trkpt lat="40.935889428933315" lon="9.184849127617825"><ele>443.0</ele><time>2026-05-02T10:54:33Z</time></trkpt><trkpt lat="40.93580473343316" lon="9.184722829618696"><ele>443.25</ele><time>2026-05-02T10:54:34Z</time></trkpt><trkpt lat="40.935732189238394" lon="9.184562017034809"><ele>443.5</ele><time>2026-05-02T10:54:35Z</time></trkpt><trkpt lat="40.935680480185155" lon="9.18438972750455"><ele>443.75</ele><time>2026-05-02T10:54:36Z</time></trkpt><trkpt lat="40.935632485814885" lon="9.184265324664885"><ele>444.0</ele><time>2026-05-02T10:54:37Z</time></trkpt><trkpt lat="40.93556986074479" lon="9.184197514902033"><ele>444.0</ele><time>2026-05-02T10:54:38Z</time></trkpt><trkpt lat="40.93546892857789" lon="9.184163506771835"><ele>444.0</ele><time>2026-05-02T10:54:39Z</time></trkpt><trkpt lat="40.93536037224911" lon="9.184109945396656"><ele>444.0</ele><time>2026-05-02T10:54:40Z</time></trkpt><trkpt lat="40.935284717698124" lon="9.183963462327643"><ele>444.0</ele><time>2026-05-02T10:54:41Z</time></trkpt><trkpt lat="40.935250768555214" lon="9.183786686962886"><ele>444.2</ele><time>2026-05-02T10:54:42Z</time></trkpt><trkpt lat="40.93526493783035" lon="9.183637271233824"><ele>444.4</ele><time>2026-05-02T10:54:43Z</time></trkpt><trkpt lat="40.93532432898675" lon="9.183498615048235"><ele>444.6</ele><time>2026-05-02T10:54:44Z</time></trkpt><trkpt lat="40.9353799463952" lon="9.183377979040934"><ele>444.8</ele><time>2026-05-02T10:54:45Z</time></trkpt><trkpt lat="40.935429999403176" lon="9.183281556374755"><ele>445.0</ele><time>2026-05-02T10:54:46Z</time></trkpt><trkpt lat="40.93548404251656" lon="9.183176076712575"><ele>446.25</ele><time>2026-05-02T10:54:47Z</time></trkpt><trkpt lat="40.935538352710346" lon="9.183039781952866"><ele>447.5</ele><time>2026-05-02T10:54:48Z</time></trkpt><trkpt lat="40.935586455739866" lon="9.182897636276065"><ele>448.75</ele><time>2026-05-02T10:54:49Z</time></trkpt><trkpt lat="40.935650838818965" lon="9.182755916136609"><ele>450.0</ele><time>2026-05-02T10:54:50Z</time></trkpt><trkpt lat="40.93575003638832" lon="9.182653767337039"><ele>450.0</ele><time>2026-05-02T10:54:51Z</time></trkpt><trkpt lat="40.93584396428994" lon="9.18258733995887"><ele>450.0</ele><time>2026-05-02T10:54:52Z</time></trkpt><trkpt lat="40.93590946444623" lon="9.182528894656775"><ele>450.0</ele><time>2026-05-02T10:54:53Z</time></trkpt><trkpt lat="40.935937570516614" lon="9.18237571473512"><ele>450.0</ele><time>2026-05-02T10:54:55Z</time></trkpt><trkpt lat="40.93591612022679" lon="9.182251942722168"><ele>450.0</ele><time>2026-05-02T10:54:56Z</time></trkpt><trkpt lat="40.93589873375664" lon="9.182106264879748"><ele>451.25</ele><time>2026-05-02T10:54:57Z</time></trkpt><trkpt lat="40.935889263932246" lon="9.1819468329993"><ele>452.5</ele><time>2026-05-02T10:54:58Z</time></trkpt><trkpt lat="40.93588068089769" lon="9.181784077810205"><ele>453.75</ele><time>2026-05-02T10:54:59Z</time></trkpt><trkpt lat="40.93586958311027" lon="9.18162160933678"><ele>455.0</ele><time>2026-05-02T10:55:00Z</time></trkpt><trkpt lat="40.93585800406997" lon="9.181464014359495"><ele>457.6</ele><time>2026-05-02T10:55:01Z</time></trkpt><trkpt lat="40.93585146283914" lon="9.18131592118992"><ele>460.2</ele><time>2026-05-02T10:55:02Z</time></trkpt><trkpt lat="40.93584402006747" lon="9.181169677922567"><ele>462.79999999999995</ele><time>2026-05-02T10:55:03Z</time></trkpt><trkpt lat="40.935847242148284" lon="9.181035751488642"><ele>465.4</ele><time>2026-05-02T10:55:04Z</time></trkpt><trkpt lat="40.93586040092036" lon="9.180901779284648"><ele>468.0</ele><time>2026-05-02T10:55:05Z</time></trkpt><trkpt lat="40.93588211338144" lon="9.180765981392897"><ele>469.59999999999997</ele><time>2026-05-02T10:55:06Z</time></trkpt><trkpt lat="40.935898563615545" lon="9.180631218148912"><ele>471.19999999999993</ele><time>2026-05-02T10:55:07Z</time></trkpt><trkpt lat="40.93589932700734" lon="9.180504746375155"><ele>472.8</ele><time>2026-05-02T10:55:08Z</time></trkpt><trkpt lat="40.93585957659583" lon="9.180385417269264"><ele>474.4</ele><time>2026-05-02T10:55:09Z</time></trkpt><trkpt lat="40.93579148565499" lon="9.180287551931363"><ele>476.0</ele><time>2026-05-02T10:55:10Z</time></trkpt><trkpt lat="40.935719691061934" lon="9.180190809130623"><ele>476.6</ele><time>2026-05-02T10:55:11Z</time></trkpt><trkpt lat="40.93568631072073" lon="9.180069684313066"><ele>477.20000000000005</ele><time>2026-05-02T10:55:12Z</time></trkpt><trkpt lat="40.93568239307706" lon="9.179931713275343"><ele>477.79999999999995</ele><time>2026-05-02T10:55:13Z</time></trkpt><trkpt lat="40.93567811271802" lon="9.179789812374258"><ele>478.4</ele><time>2026-05-02T10:55:14Z</time></trkpt><trkpt lat="40.93567516878326" lon="9.179651498015234"><ele>479.0</ele><time>2026-05-02T10:55:15Z</time></trkpt><trkpt lat="40.93567453901465" lon="9.17950342716227"><ele>480.79999999999995</ele><time>2026-05-02T10:55:16Z</time></trkpt><trkpt lat="40.93567618329952" lon="9.179369899953917"><ele>482.59999999999997</ele><time>2026-05-02T10:55:16.999Z</time></trkpt><trkpt lat="40.93569651265203" lon="9.179237188016133"><ele>484.4</ele><time>2026-05-02T10:55:17.999Z</time></trkpt><trkpt lat="40.93573736564186" lon="9.179108143527255"><ele>486.2</ele><time>2026-05-02T10:55:18.999Z</time></trkpt><trkpt lat="40.93579635254065" lon="9.178989537845004"><ele>488.0</ele><time>2026-05-02T10:55:19.999Z</time></trkpt><trkpt lat="40.93586158301819" lon="9.178871867110468"><ele>488.79999999999995</ele><time>2026-05-02T10:55:20.999Z</time></trkpt><trkpt lat="40.93592016802523" lon="9.178756907046898"><ele>489.59999999999997</ele><time>2026-05-02T10:55:21.999Z</time></trkpt><trkpt lat="40.93596858091045" lon="9.178637323314986"><ele>490.40000000000003</ele><time>2026-05-02T10:55:22.999Z</time></trkpt><trkpt lat="40.936007296220986" lon="9.178516165045956"><ele>491.20000000000005</ele><time>2026-05-02T10:55:23.999Z</time></trkpt><trkpt lat="40.9360412389481" lon="9.1784010042395"><ele>492.0</ele><time>2026-05-02T10:55:24.999Z</time></trkpt><trkpt lat="40.93606130443368" lon="9.17830135860922"><ele>493.6666666666667</ele><time>2026-05-02T10:55:25.999Z</time></trkpt><trkpt lat="40.936070480868715" lon="9.178169951008051"><ele>495.33333333333337</ele><time>2026-05-02T10:55:27.999Z</time></trkpt><trkpt lat="40.936086268440654" lon="9.178014984166632"><ele>497.0</ele><time>2026-05-02T10:55:29.999Z</time></trkpt><trkpt lat="40.936103810095915" lon="9.177927261671831"><ele>498.6666666666667</ele><time>2026-05-02T10:55:30.999Z</time></trkpt><trkpt lat="40.93612800000739" lon="9.177834809441041"><ele>500.33333333333337</ele><time>2026-05-02T10:55:31.999Z</time></trkpt><trkpt lat="40.936154498057" lon="9.177726798605722"><ele>502.0</ele><time>2026-05-02T10:55:32.999Z</time></trkpt><trkpt lat="40.93618378309174" lon="9.177617982041832"><ele>502.0</ele><time>2026-05-02T10:55:33.999Z</time></trkpt><trkpt lat="40.93620619001415" lon="9.177516726930556"><ele>502.00000000000006</ele><time>2026-05-02T10:55:34.999Z</time></trkpt><trkpt lat="40.9362416598246" lon="9.177374639837053"><ele>502.00000000000006</ele><time>2026-05-02T10:55:36.999Z</time></trkpt><trkpt lat="40.93627384269773" lon="9.17728098740772"><ele>502.0</ele><time>2026-05-02T10:55:38.999Z</time></trkpt><trkpt lat="40.93630529452867" lon="9.177176393266674"><ele>502.0</ele><time>2026-05-02T10:56:19Z</time></trkpt><trkpt lat="40.936251338414976" lon="9.17703417660788"><ele>503.1428571428571</ele><time>2026-05-02T10:56:21Z</time></trkpt><trkpt lat="40.93621728107046" lon="9.176953296515563"><ele>504.2857142857143</ele><time>2026-05-02T10:56:22Z</time></trkpt><trkpt lat="40.936200923854656" lon="9.1768646632341"><ele>505.42857142857144</ele><time>2026-05-02T10:56:23Z</time></trkpt><trkpt lat="40.93619041683367" lon="9.176778089283086"><ele>506.57142857142856</ele><time>2026-05-02T10:56:24Z</time></trkpt><trkpt lat="40.93619925598843" lon="9.176683963869111"><ele>507.7142857142858</ele><time>2026-05-02T10:56:25Z</time></trkpt><trkpt lat="40.93621025832404" lon="9.17659452292779"><ele>508.8571428571429</ele><time>2026-05-02T10:56:26Z</time></trkpt><trkpt lat="40.93622674808881" lon="9.176506555230374"><ele>510.0</ele><time>2026-05-02T10:56:27Z</time></trkpt><trkpt lat="40.93624263349357" lon="9.176421708630405"><ele>510.0</ele><time>2026-05-02T10:56:28Z</time></trkpt><trkpt lat="40.936266010137004" lon="9.176267353937574"><ele>510.0</ele><time>2026-05-02T10:56:30Z</time></trkpt><trkpt lat="40.9362625695703" lon="9.176119521712968"><ele>510.0</ele><time>2026-05-02T10:56:32Z</time></trkpt><trkpt lat="40.93626257237741" lon="9.175980149413954"><ele>510.0</ele><time>2026-05-02T10:56:34Z</time></trkpt><trkpt lat="40.936261816394776" lon="9.175839571241648"><ele>510.0</ele><time>2026-05-02T10:56:36Z</time></trkpt><trkpt lat="40.936265800950615" lon="9.175700071479811"><ele>510.0</ele><time>2026-05-02T10:56:38Z</time></trkpt><trkpt lat="40.93627453781248" lon="9.175566353790982"><ele>510.0</ele><time>2026-05-02T10:56:40Z</time></trkpt><trkpt lat="40.93626113114739" lon="9.175430217559796"><ele>510.0</ele><time>2026-05-02T10:56:42Z</time></trkpt><trkpt lat="40.93624043312651" lon="9.175315862777602"><ele>510.0</ele><time>2026-05-02T10:56:44Z</time></trkpt><trkpt lat="40.93621799868704" lon="9.175213794067094"><ele>510.0</ele><time>2026-05-02T10:56:48Z</time></trkpt><trkpt lat="40.93613462527727" lon="9.175204891089939"><ele>510.0</ele><time>2026-05-02T10:56:51Z</time></trkpt><trkpt lat="40.93604674586731" lon="9.175222212919143"><ele>510.0</ele><time>2026-05-02T10:56:53Z</time></trkpt><trkpt lat="40.93594735794616" lon="9.175220420226083"><ele>510.0</ele><time>2026-05-02T10:56:55Z</time></trkpt><trkpt lat="40.93586896880692" lon="9.175217344888145"><ele>510.0</ele><time>2026-05-02T10:56:57Z</time></trkpt><trkpt lat="40.93581775464886" lon="9.175301901959072"><ele>510.0</ele><time>2026-05-02T10:57:00Z</time></trkpt><trkpt lat="40.93586937958173" lon="9.175234527189478"><ele>510.0</ele><time>2026-05-02T11:00:39Z</time></trkpt><trkpt lat="40.93593694741517" lon="9.17522713405731"><ele>510.0</ele><time>2026-05-02T11:00:43Z</time></trkpt><trkpt lat="40.93601980111822" lon="9.175221307876598"><ele>510.0</ele><time>2026-05-02T11:00:46Z</time></trkpt><trkpt lat="40.936138890934174" lon="9.175249753462625"><ele>510.0</ele><time>2026-05-02T11:00:48Z</time></trkpt><trkpt lat="40.93621004181535" lon="9.17529465265197"><ele>510.0</ele><time>2026-05-02T11:00:49Z</time></trkpt><trkpt lat="40.93625276185094" lon="9.175393764357203"><ele>510.0</ele><time>2026-05-02T11:00:51Z</time></trkpt><trkpt lat="40.93626544989525" lon="9.175491531108507"><ele>510.0</ele><time>2026-05-02T11:00:52Z</time></trkpt><trkpt lat="40.93627013015794" lon="9.175605223254651"><ele>510.0</ele><time>2026-05-02T11:00:53Z</time></trkpt><trkpt lat="40.936280210605986" lon="9.175734058564856"><ele>510.0</ele><time>2026-05-02T11:00:54Z</time></trkpt><trkpt lat="40.936286462999995" lon="9.175843424626079"><ele>510.0</ele><time>2026-05-02T11:00:55Z</time></trkpt><trkpt lat="40.936281905129654" lon="9.17595427322036"><ele>510.0</ele><time>2026-05-02T11:00:56Z</time></trkpt><trkpt lat="40.93628606375791" lon="9.176039491146446"><ele>510.0</ele><time>2026-05-02T11:00:57Z</time></trkpt><trkpt lat="40.93627793232879" lon="9.17615405641557"><ele>510.0</ele><time>2026-05-02T11:00:59Z</time></trkpt><trkpt lat="40.93628698602947" lon="9.176264094401365"><ele>510.0</ele><time>2026-05-02T11:01:00.999Z</time></trkpt><trkpt lat="40.93627092623785" lon="9.176397995534114"><ele>510.0</ele><time>2026-05-02T11:01:02.999Z</time></trkpt><trkpt lat="40.936240197541444" lon="9.176560455295203"><ele>510.0</ele><time>2026-05-02T11:01:04.999Z</time></trkpt><trkpt lat="40.9362107286095" lon="9.176711309542398"><ele>510.0</ele><time>2026-05-02T11:01:06.999Z</time></trkpt><trkpt lat="40.936182587490784" lon="9.17681385434242"><ele>510.0</ele><time>2026-05-02T11:01:10.999Z</time></trkpt><trkpt lat="40.93622630545208" lon="9.176921786368299"><ele>510.0</ele><time>2026-05-02T11:01:14.999Z</time></trkpt><trkpt lat="40.93625991152494" lon="9.177030638509923"><ele>510.0</ele><time>2026-05-02T11:01:16.999Z</time></trkpt><trkpt lat="40.93631876292741" lon="9.177142134410078"><ele>510.0</ele><time>2026-05-02T11:01:18.999Z</time></trkpt><trkpt lat="40.936415185121696" lon="9.177241291297333"><ele>510.0</ele><time>2026-05-02T11:01:20.999Z</time></trkpt><trkpt lat="40.93649675858522" lon="9.177284862673142"><ele>510.0</ele><time>2026-05-02T11:01:21.999Z</time></trkpt><trkpt lat="40.93659877822508" lon="9.177311576412306"><ele>510.0</ele><time>2026-05-02T11:01:22.999Z</time></trkpt><trkpt lat="40.93670141551325" lon="9.17733468766409"><ele>510.0</ele><time>2026-05-02T11:01:23.999Z</time></trkpt><trkpt lat="40.93680132501195" lon="9.177363122300365"><ele>510.0</ele><time>2026-05-02T11:01:24.999Z</time></trkpt><trkpt lat="40.936903486239764" lon="9.177385989964867"><ele>510.0</ele><time>2026-05-02T11:01:25.999Z</time></trkpt><trkpt lat="40.93699860859017" lon="9.177405368851389"><ele>510.0</ele><time>2026-05-02T11:01:26.999Z</time></trkpt><trkpt lat="40.937097246102624" lon="9.177430161360512"><ele>509.4</ele><time>2026-05-02T11:01:27.999Z</time></trkpt><trkpt lat="40.93719108862688" lon="9.177440563518156"><ele>508.8</ele><time>2026-05-02T11:01:28.999Z</time></trkpt><trkpt lat="40.93726056259804" lon="9.177422376523792"><ele>508.20000000000005</ele><time>2026-05-02T11:01:29.999Z</time></trkpt><trkpt lat="40.93734722318748" lon="9.177343290059508"><ele>507.6</ele><time>2026-05-02T11:01:30.999Z</time></trkpt><trkpt lat="40.937407699874164" lon="9.177229165991662"><ele>507.0</ele><time>2026-05-02T11:01:31.999Z</time></trkpt><trkpt lat="40.93747852007634" lon="9.177128387268432"><ele>507.0</ele><time>2026-05-02T11:01:32.999Z</time></trkpt><trkpt lat="40.93754047918627" lon="9.177015769823013"><ele>507.00000000000006</ele><time>2026-05-02T11:01:33.999Z</time></trkpt><trkpt lat="40.93758372480505" lon="9.176898051391545"><ele>507.00000000000006</ele><time>2026-05-02T11:01:34.999Z</time></trkpt><trkpt lat="40.93763043497588" lon="9.176776531551372"><ele>507.0</ele><time>2026-05-02T11:01:35.999Z</time></trkpt><trkpt lat="40.937673507829025" lon="9.176660293483724"><ele>507.0</ele><time>2026-05-02T11:01:36.999Z</time></trkpt><trkpt lat="40.937718866671794" lon="9.176528357349055"><ele>505.0</ele><time>2026-05-02T11:01:37.999Z</time></trkpt><trkpt lat="40.93775307785459" lon="9.176402579894603"><ele>503.00000000000006</ele><time>2026-05-02T11:01:38.999Z</time></trkpt><trkpt lat="40.9377785405193" lon="9.176276600781483"><ele>501.00000000000006</ele><time>2026-05-02T11:01:39.999Z</time></trkpt><trkpt lat="40.93779625527302" lon="9.17615207802645"><ele>499.0</ele><time>2026-05-02T11:01:40.999Z</time></trkpt><trkpt lat="40.93781033421027" lon="9.176027290350907"><ele>497.0</ele><time>2026-05-02T11:01:41.999Z</time></trkpt><trkpt lat="40.93782511944338" lon="9.175903613008781"><ele>497.0</ele><time>2026-05-02T11:01:42.999Z</time></trkpt><trkpt lat="40.93784004146614" lon="9.175755988542061"><ele>497.00000000000006</ele><time>2026-05-02T11:01:43.999Z</time></trkpt><trkpt lat="40.93785458976881" lon="9.175632488522139"><ele>497.00000000000006</ele><time>2026-05-02T11:01:44.999Z</time></trkpt><trkpt lat="40.93786512933257" lon="9.175510727122644"><ele>497.0</ele><time>2026-05-02T11:01:45.999Z</time></trkpt><trkpt lat="40.93788246697275" lon="9.175383721159138"><ele>497.0</ele><time>2026-05-02T11:01:46.999Z</time></trkpt><trkpt lat="40.93790082795964" lon="9.175232564262938"><ele>497.6</ele><time>2026-05-02T11:01:47.999Z</time></trkpt><trkpt lat="40.937920642115806" lon="9.17507399580072"><ele>498.20000000000005</ele><time>2026-05-02T11:01:48.999Z</time></trkpt><trkpt lat="40.93793849609454" lon="9.174921696822764"><ele>498.8</ele><time>2026-05-02T11:01:49.999Z</time></trkpt><trkpt lat="40.937960219876" lon="9.174777946450098"><ele>499.4</ele><time>2026-05-02T11:01:50.999Z</time></trkpt><trkpt lat="40.93797693710694" lon="9.174649911484003"><ele>500.0</ele><time>2026-05-02T11:01:51.999Z</time></trkpt><trkpt lat="40.93799032132574" lon="9.174502408217691"><ele>501.0</ele><time>2026-05-02T11:01:52.999Z</time></trkpt><trkpt lat="40.93800907298928" lon="9.174362317228901"><ele>502.0</ele><time>2026-05-02T11:01:53.999Z</time></trkpt><trkpt lat="40.93803037806607" lon="9.174223072499885"><ele>503.0</ele><time>2026-05-02T11:01:54.999Z</time></trkpt><trkpt lat="40.938050845375635" lon="9.174080587770536"><ele>504.0</ele><time>2026-05-02T11:01:55.999Z</time></trkpt><trkpt lat="40.93806471592692" lon="9.173946148518107"><ele>505.0</ele><time>2026-05-02T11:01:57Z</time></trkpt><trkpt lat="40.938078374894914" lon="9.173830543741692"><ele>505.2</ele><time>2026-05-02T11:01:58Z</time></trkpt><trkpt lat="40.93809532585496" lon="9.173717451920693"><ele>505.4</ele><time>2026-05-02T11:01:59Z</time></trkpt><trkpt lat="40.93811415516458" lon="9.173596314172379"><ele>505.6</ele><time>2026-05-02T11:02:00Z</time></trkpt><trkpt lat="40.93813808322402" lon="9.173465884660095"><ele>505.8</ele><time>2026-05-02T11:02:01Z</time></trkpt><trkpt lat="40.93815378436834" lon="9.173332769670862"><ele>506.0</ele><time>2026-05-02T11:02:02Z</time></trkpt><trkpt lat="40.93817200847075" lon="9.173210538796118"><ele>506.4</ele><time>2026-05-02T11:02:03Z</time></trkpt><trkpt lat="40.93820313397126" lon="9.173094607709547"><ele>506.8</ele><time>2026-05-02T11:02:04Z</time></trkpt><trkpt lat="40.938261314035245" lon="9.172994230252375"><ele>507.19999999999993</ele><time>2026-05-02T11:02:05Z</time></trkpt><trkpt lat="40.93833298802428" lon="9.172898508851743"><ele>507.59999999999997</ele><time>2026-05-02T11:02:06Z</time></trkpt><trkpt lat="40.938408805869145" lon="9.172824314061014"><ele>508.0</ele><time>2026-05-02T11:02:07Z</time></trkpt><trkpt lat="40.93847565830725" lon="9.172764418380458"><ele>506.59999999999997</ele><time>2026-05-02T11:02:08Z</time></trkpt><trkpt lat="40.938552894295775" lon="9.17269246757625"><ele>505.19999999999993</ele><time>2026-05-02T11:02:10Z</time></trkpt><trkpt lat="40.938635095235156" lon="9.17265537824242"><ele>503.8</ele><time>2026-05-02T11:02:12Z</time></trkpt><trkpt lat="40.93871303887393" lon="9.172517660133161"><ele>502.4</ele><time>2026-05-02T11:02:14Z</time></trkpt><trkpt lat="40.93876611076911" lon="9.172428633749679"><ele>501.0</ele><time>2026-05-02T11:02:15Z</time></trkpt><trkpt lat="40.93884458067505" lon="9.172334041191819"><ele>501.0</ele><time>2026-05-02T11:02:16Z</time></trkpt><trkpt lat="40.938940226784794" lon="9.172246580430944"><ele>501.0</ele><time>2026-05-02T11:02:17Z</time></trkpt><trkpt lat="40.93904042604505" lon="9.172157117544355"><ele>501.0</ele><time>2026-05-02T11:02:18Z</time></trkpt><trkpt lat="40.9391332211623" lon="9.172072591484758"><ele>501.0</ele><time>2026-05-02T11:02:19Z</time></trkpt><trkpt lat="40.93923127698646" lon="9.17198188601354"><ele>501.0</ele><time>2026-05-02T11:02:20Z</time></trkpt><trkpt lat="40.939328954808154" lon="9.17187597155374"><ele>501.0</ele><time>2026-05-02T11:02:21Z</time></trkpt><trkpt lat="40.939422356494035" lon="9.171764456006436"><ele>501.0</ele><time>2026-05-02T11:02:22Z</time></trkpt><trkpt lat="40.93951335317469" lon="9.171644341520137"><ele>501.0</ele><time>2026-05-02T11:02:23Z</time></trkpt><trkpt lat="40.93961417799998" lon="9.17151804548703"><ele>501.0</ele><time>2026-05-02T11:02:24Z</time></trkpt><trkpt lat="40.939722193833326" lon="9.171388755966799"><ele>501.0</ele><time>2026-05-02T11:02:25Z</time></trkpt><trkpt lat="40.93983273473512" lon="9.171256262460734"><ele>501.0</ele><time>2026-05-02T11:02:26Z</time></trkpt><trkpt lat="40.93993524492836" lon="9.171135281639955"><ele>501.0</ele><time>2026-05-02T11:02:27Z</time></trkpt><trkpt lat="40.940025130948676" lon="9.171025409074602"><ele>501.20000000000005</ele><time>2026-05-02T11:02:28Z</time></trkpt><trkpt lat="40.940112706411185" lon="9.170919781384397"><ele>501.40000000000003</ele><time>2026-05-02T11:02:29Z</time></trkpt><trkpt lat="40.94019378401762" lon="9.17082413925698"><ele>501.6</ele><time>2026-05-02T11:02:30Z</time></trkpt><trkpt lat="40.94027409224662" lon="9.170723658928166"><ele>501.8</ele><time>2026-05-02T11:02:31Z</time></trkpt><trkpt lat="40.94033715032978" lon="9.1706026955848"><ele>502.0</ele><time>2026-05-02T11:02:32Z</time></trkpt><trkpt lat="40.9403624208029" lon="9.170467433329428"><ele>501.6666666666667</ele><time>2026-05-02T11:02:33Z</time></trkpt><trkpt lat="40.940371787582976" lon="9.170337752511049"><ele>501.33333333333337</ele><time>2026-05-02T11:02:34Z</time></trkpt><trkpt lat="40.940397986839834" lon="9.170228701890307"><ele>501.0</ele><time>2026-05-02T11:02:35Z</time></trkpt><trkpt lat="40.940459149606426" lon="9.170157825861184"><ele>500.66666666666663</ele><time>2026-05-02T11:02:36Z</time></trkpt><trkpt lat="40.94053791074246" lon="9.170145006267452"><ele>500.3333333333333</ele><time>2026-05-02T11:02:37Z</time></trkpt><trkpt lat="40.94062475370075" lon="9.17019103069273"><ele>500.0</ele><time>2026-05-02T11:02:38Z</time></trkpt><trkpt lat="40.94077739530726" lon="9.170187837120837"><ele>497.75</ele><time>2026-05-02T11:02:40Z</time></trkpt><trkpt lat="40.94089543417273" lon="9.17013538965319"><ele>495.5</ele><time>2026-05-02T11:02:41Z</time></trkpt><trkpt lat="40.94099087765433" lon="9.170025059541372"><ele>493.25</ele><time>2026-05-02T11:02:42Z</time></trkpt><trkpt lat="40.94107820861122" lon="9.169905520081969"><ele>491.0</ele><time>2026-05-02T11:02:43Z</time></trkpt><trkpt lat="40.94115197244802" lon="9.169768777941592"><ele>490.0</ele><time>2026-05-02T11:02:44Z</time></trkpt><trkpt lat="40.94119020384808" lon="9.169601282768005"><ele>489.0</ele><time>2026-05-02T11:02:46Z</time></trkpt><trkpt lat="40.941217367322686" lon="9.169479044758429"><ele>488.0</ele><time>2026-05-02T11:02:47Z</time></trkpt><trkpt lat="40.941243333019706" lon="9.169349933769254"><ele>487.0</ele><time>2026-05-02T11:02:48Z</time></trkpt><trkpt lat="40.94125778180606" lon="9.169191815530347"><ele>486.5</ele><time>2026-05-02T11:02:49Z</time></trkpt><trkpt lat="40.9412614693748" lon="9.169016837595388"><ele>486.0</ele><time>2026-05-02T11:02:50Z</time></trkpt><trkpt lat="40.941264786797774" lon="9.168842893439479"><ele>485.5</ele><time>2026-05-02T11:02:51Z</time></trkpt><trkpt lat="40.941278057193145" lon="9.16866258059094"><ele>485.0</ele><time>2026-05-02T11:02:52Z</time></trkpt><trkpt lat="40.94129222285999" lon="9.168484662667037"><ele>485.0</ele><time>2026-05-02T11:02:53Z</time></trkpt><trkpt lat="40.94128770148053" lon="9.168301616767517"><ele>485.0</ele><time>2026-05-02T11:02:54Z</time></trkpt><trkpt lat="40.94126875720389" lon="9.168127166402673"><ele>485.0</ele><time>2026-05-02T11:02:55Z</time></trkpt><trkpt lat="40.94122557333747" lon="9.167960281114267"><ele>485.0</ele><time>2026-05-02T11:02:56Z</time></trkpt><trkpt lat="40.941188407135314" lon="9.167792568903357"><ele>485.0</ele><time>2026-05-02T11:02:57Z</time></trkpt><trkpt lat="40.94115760386602" lon="9.167627458308619"><ele>485.0</ele><time>2026-05-02T11:02:58Z</time></trkpt><trkpt lat="40.9411514328793" lon="9.1674739662105"><ele>485.0</ele><time>2026-05-02T11:02:59Z</time></trkpt><trkpt lat="40.941143421214015" lon="9.167338168597439"><ele>485.0</ele><time>2026-05-02T11:03:00Z</time></trkpt><trkpt lat="40.9411407308293" lon="9.167223106433486"><ele>485.0</ele><time>2026-05-02T11:03:00.999Z</time></trkpt><trkpt lat="40.941134266147785" lon="9.167094885075702"><ele>484.8</ele><time>2026-05-02T11:03:01.999Z</time></trkpt><trkpt lat="40.941108388120405" lon="9.166991609736346"><ele>484.6</ele><time>2026-05-02T11:03:02.999Z</time></trkpt><trkpt lat="40.94103764752151" lon="9.166913729272506"><ele>484.4</ele><time>2026-05-02T11:03:03.999Z</time></trkpt><trkpt lat="40.94097473495622" lon="9.166818848112701"><ele>484.2</ele><time>2026-05-02T11:03:04.999Z</time></trkpt><trkpt lat="40.940936090204175" lon="9.166680678047115"><ele>484.0</ele><time>2026-05-02T11:03:05.999Z</time></trkpt><trkpt lat="40.940908559666454" lon="9.166535417119203"><ele>484.25</ele><time>2026-05-02T11:03:06.999Z</time></trkpt><trkpt lat="40.940888388318065" lon="9.166372747012316"><ele>484.5</ele><time>2026-05-02T11:03:07.999Z</time></trkpt><trkpt lat="40.940875646115366" lon="9.166199656575262"><ele>484.75</ele><time>2026-05-02T11:03:08.999Z</time></trkpt><trkpt lat="40.940861009909774" lon="9.166016535672563"><ele>485.0</ele><time>2026-05-02T11:03:09.999Z</time></trkpt><trkpt lat="40.940835693826216" lon="9.165830469436953"><ele>486.0</ele><time>2026-05-02T11:03:10.999Z</time></trkpt><trkpt lat="40.940819731975104" lon="9.165638772504302"><ele>487.0</ele><time>2026-05-02T11:03:11.999Z</time></trkpt><trkpt lat="40.940816791866226" lon="9.165466229172319"><ele>488.0</ele><time>2026-05-02T11:03:12.999Z</time></trkpt><trkpt lat="40.94082482985722" lon="9.165304008415355"><ele>489.0</ele><time>2026-05-02T11:03:13.999Z</time></trkpt><trkpt lat="40.94085154493367" lon="9.165154707053851"><ele>488.25</ele><time>2026-05-02T11:03:14.999Z</time></trkpt><trkpt lat="40.94091615216219" lon="9.165017043339008"><ele>487.5</ele><time>2026-05-02T11:03:15.999Z</time></trkpt><trkpt lat="40.94101064816447" lon="9.164880851374205"><ele>486.75</ele><time>2026-05-02T11:03:16.999Z</time></trkpt><trkpt lat="40.9411070410272" lon="9.164749216120144"><ele>486.0</ele><time>2026-05-02T11:03:17.999Z</time></trkpt><trkpt lat="40.941193405128054" lon="9.164636371729777"><ele>485.8</ele><time>2026-05-02T11:03:18.999Z</time></trkpt><trkpt lat="40.94126378849564" lon="9.16453142655916"><ele>485.6</ele><time>2026-05-02T11:03:19.999Z</time></trkpt><trkpt lat="40.941315105509034" lon="9.16441771539797"><ele>485.4</ele><time>2026-05-02T11:03:20.999Z</time></trkpt><trkpt lat="40.94133983903167" lon="9.1642890348113"><ele>485.2</ele><time>2026-05-02T11:03:21.999Z</time></trkpt><trkpt lat="40.94133776097054" lon="9.16417762300344"><ele>485.0</ele><time>2026-05-02T11:03:22.999Z</time></trkpt><trkpt lat="40.941338266603104" lon="9.164075819431318"><ele>484.5</ele><time>2026-05-02T11:03:23.999Z</time></trkpt><trkpt lat="40.9413742402778" lon="9.163969582234126"><ele>484.0</ele><time>2026-05-02T11:03:24.999Z</time></trkpt><trkpt lat="40.94144564345988" lon="9.163863437899485"><ele>483.5</ele><time>2026-05-02T11:03:25.999Z</time></trkpt><trkpt lat="40.941554501184775" lon="9.163768516125453"><ele>483.0</ele><time>2026-05-02T11:03:26.999Z</time></trkpt><trkpt lat="40.941663089835515" lon="9.163680876145612"><ele>485.0</ele><time>2026-05-02T11:03:27.999Z</time></trkpt><trkpt lat="40.94178456616874" lon="9.163598045545491"><ele>487.0</ele><time>2026-05-02T11:03:28.999Z</time></trkpt><trkpt lat="40.94190861350127" lon="9.163515714958416"><ele>489.0</ele><time>2026-05-02T11:03:29.999Z</time></trkpt><trkpt lat="40.942029385838254" lon="9.163426005298327"><ele>491.0</ele><time>2026-05-02T11:03:30.999Z</time></trkpt><trkpt lat="40.94215181085141" lon="9.163348595780462"><ele>491.0</ele><time>2026-05-02T11:03:31.999Z</time></trkpt><trkpt lat="40.94226438566129" lon="9.163324460911616"><ele>491.0</ele><time>2026-05-02T11:03:32.999Z</time></trkpt><trkpt lat="40.942372794354185" lon="9.163340598100316"><ele>491.0</ele><time>2026-05-02T11:03:33.999Z</time></trkpt><trkpt lat="40.94248496852225" lon="9.163363020221261"><ele>491.0</ele><time>2026-05-02T11:03:34.999Z</time></trkpt><trkpt lat="40.94259265327582" lon="9.163360648704074"><ele>491.0</ele><time>2026-05-02T11:03:35.999Z</time></trkpt><trkpt lat="40.94268687509972" lon="9.1633299045516"><ele>491.20000000000005</ele><time>2026-05-02T11:03:36.999Z</time></trkpt><trkpt lat="40.94276677372366" lon="9.163257344935113"><ele>491.40000000000003</ele><time>2026-05-02T11:03:37.999Z</time></trkpt><trkpt lat="40.94284140911497" lon="9.163140381552985"><ele>491.6</ele><time>2026-05-02T11:03:38.999Z</time></trkpt><trkpt lat="40.94291426916389" lon="9.163025625858213"><ele>491.8</ele><time>2026-05-02T11:03:39.999Z</time></trkpt><trkpt lat="40.94299032792216" lon="9.162904490056857"><ele>492.0</ele><time>2026-05-02T11:03:40.999Z</time></trkpt><trkpt lat="40.94305775143685" lon="9.162774599572037"><ele>492.0</ele><time>2026-05-02T11:03:41.999Z</time></trkpt><trkpt lat="40.94311784377572" lon="9.162631701970247"><ele>492.0</ele><time>2026-05-02T11:03:42.999Z</time></trkpt><trkpt lat="40.94317590772174" lon="9.162471858303165"><ele>492.0</ele><time>2026-05-02T11:03:43.999Z</time></trkpt><trkpt lat="40.94323280288027" lon="9.162303062223636"><ele>492.0</ele><time>2026-05-02T11:03:44.999Z</time></trkpt><trkpt lat="40.94328957967236" lon="9.162133259044502"><ele>492.25</ele><time>2026-05-02T11:03:45.999Z</time></trkpt><trkpt lat="40.94334300065776" lon="9.161975329751822"><ele>492.5</ele><time>2026-05-02T11:03:46.999Z</time></trkpt><trkpt lat="40.943391645720254" lon="9.161820765975637"><ele>492.75</ele><time>2026-05-02T11:03:47.999Z</time></trkpt><trkpt lat="40.943437907477474" lon="9.16166923599964"><ele>493.0</ele><time>2026-05-02T11:03:48.999Z</time></trkpt><trkpt lat="40.94347237738473" lon="9.161522172010216"><ele>490.79999999999995</ele><time>2026-05-02T11:03:49.999Z</time></trkpt><trkpt lat="40.943497906172134" lon="9.16138050145987"><ele>488.59999999999997</ele><time>2026-05-02T11:03:50.999Z</time></trkpt><trkpt lat="40.94350853487844" lon="9.1612422932673"><ele>486.40000000000003</ele><time>2026-05-02T11:03:51.999Z</time></trkpt><trkpt lat="40.94350217953068" lon="9.161099427404277"><ele>484.20000000000005</ele><time>2026-05-02T11:03:52.999Z</time></trkpt><trkpt lat="40.94348424056139" lon="9.160944963732556"><ele>482.0</ele><time>2026-05-02T11:03:53.999Z</time></trkpt><trkpt lat="40.94345659988129" lon="9.160784257073711"><ele>481.0</ele><time>2026-05-02T11:03:54.999Z</time></trkpt><trkpt lat="40.943435228498444" lon="9.160614266160673"><ele>480.0</ele><time>2026-05-02T11:03:55.999Z</time></trkpt><trkpt lat="40.94342673000726" lon="9.160435339849146"><ele>479.0</ele><time>2026-05-02T11:03:56.999Z</time></trkpt><trkpt lat="40.943429063740105" lon="9.160253540388338"><ele>478.0</ele><time>2026-05-02T11:03:57.999Z</time></trkpt><trkpt lat="40.9434345949895" lon="9.160071146940176"><ele>478.0</ele><time>2026-05-02T11:03:58.999Z</time></trkpt><trkpt lat="40.94344175198337" lon="9.159888903559798"><ele>478.0</ele><time>2026-05-02T11:03:59.999Z</time></trkpt><trkpt lat="40.94345156756693" lon="9.159710414926666"><ele>478.0</ele><time>2026-05-02T11:04:00.999Z</time></trkpt><trkpt lat="40.94346393489984" lon="9.159526425015276"><ele>478.0</ele><time>2026-05-02T11:04:01.999Z</time></trkpt><trkpt lat="40.94348577461457" lon="9.159345255740073"><ele>478.0</ele><time>2026-05-02T11:04:03Z</time></trkpt><trkpt lat="40.943526265058686" lon="9.159165235154415"><ele>478.0</ele><time>2026-05-02T11:04:04Z</time></trkpt><trkpt lat="40.9435677635459" lon="9.158987160821495"><ele>478.0</ele><time>2026-05-02T11:04:05Z</time></trkpt><trkpt lat="40.94360302806871" lon="9.15882238616932"><ele>478.0</ele><time>2026-05-02T11:04:06Z</time></trkpt><trkpt lat="40.94362918355476" lon="9.158671337303803"><ele>478.0</ele><time>2026-05-02T11:04:07Z</time></trkpt><trkpt lat="40.9436565258211" lon="9.158535971835951"><ele>477.99999999999994</ele><time>2026-05-02T11:04:08Z</time></trkpt><trkpt lat="40.94369608006887" lon="9.158415573942023"><ele>477.99999999999994</ele><time>2026-05-02T11:04:09Z</time></trkpt><trkpt lat="40.94374576821937" lon="9.158303706596511"><ele>478.0</ele><time>2026-05-02T11:04:10Z</time></trkpt><trkpt lat="40.94379013312475" lon="9.158206675245921"><ele>478.0</ele><time>2026-05-02T11:04:11Z</time></trkpt><trkpt lat="40.94381048740126" lon="9.158116682753406"><ele>477.4</ele><time>2026-05-02T11:04:12Z</time></trkpt><trkpt lat="40.9437969393936" lon="9.158012077741501"><ele>476.79999999999995</ele><time>2026-05-02T11:04:13Z</time></trkpt><trkpt lat="40.94376856007486" lon="9.157884967264064"><ele>476.2</ele><time>2026-05-02T11:04:14Z</time></trkpt><trkpt lat="40.94375541007057" lon="9.157737395617346"><ele>475.6</ele><time>2026-05-02T11:04:15Z</time></trkpt><trkpt lat="40.94374776698674" lon="9.157585819812606"><ele>475.0</ele><time>2026-05-02T11:04:16Z</time></trkpt><trkpt lat="40.943772164257375" lon="9.157396118916145"><ele>473.25</ele><time>2026-05-02T11:04:17Z</time></trkpt><trkpt lat="40.943783914570254" lon="9.157222133728837"><ele>471.5</ele><time>2026-05-02T11:04:18Z</time></trkpt><trkpt lat="40.94378919748459" lon="9.1570366182772"><ele>469.75</ele><time>2026-05-02T11:04:19Z</time></trkpt><trkpt lat="40.943789948676084" lon="9.156851764598605"><ele>468.0</ele><time>2026-05-02T11:04:20Z</time></trkpt><trkpt lat="40.94378532471248" lon="9.156670816972623"><ele>466.25</ele><time>2026-05-02T11:04:21Z</time></trkpt><trkpt lat="40.94378974471233" lon="9.15649196514057"><ele>464.5</ele><time>2026-05-02T11:04:22Z</time></trkpt><trkpt lat="40.94379265703594" lon="9.156316540143004"><ele>462.75</ele><time>2026-05-02T11:04:23Z</time></trkpt><trkpt lat="40.943800814763485" lon="9.156158465268614"><ele>461.0</ele><time>2026-05-02T11:04:24Z</time></trkpt><trkpt lat="40.94380265492647" lon="9.15600610269252"><ele>460.99999999999994</ele><time>2026-05-02T11:04:25Z</time></trkpt><trkpt lat="40.943790912014755" lon="9.155887041004107"><ele>461.0</ele><time>2026-05-02T11:04:26Z</time></trkpt><trkpt lat="40.943763195986335" lon="9.155790328676376"><ele>461.0</ele><time>2026-05-02T11:04:27Z</time></trkpt><trkpt lat="40.943701316985226" lon="9.155735713040931"><ele>461.0</ele><time>2026-05-02T11:04:28Z</time></trkpt><trkpt lat="40.9435944026883" lon="9.155721268875304"><ele>460.99999999999994</ele><time>2026-05-02T11:04:29Z</time></trkpt><trkpt lat="40.943513880660184" lon="9.155730627179041"><ele>461.0</ele><time>2026-05-02T11:04:30Z</time></trkpt><trkpt lat="40.94341217940353" lon="9.155680104673719"><ele>459.0</ele><time>2026-05-02T11:04:32Z</time></trkpt><trkpt lat="40.943365563128424" lon="9.155586189970965"><ele>457.0</ele><time>2026-05-02T11:04:33Z</time></trkpt><trkpt lat="40.94333122449178" lon="9.15542316443442"><ele>455.0</ele><time>2026-05-02T11:04:34Z</time></trkpt><trkpt lat="40.94330931225869" lon="9.155283847907151"><ele>453.0</ele><time>2026-05-02T11:04:35Z</time></trkpt><trkpt lat="40.94327976924017" lon="9.15515389374094"><ele>451.0</ele><time>2026-05-02T11:04:36Z</time></trkpt><trkpt lat="40.94323748743394" lon="9.155032481026772"><ele>451.0</ele><time>2026-05-02T11:04:37Z</time></trkpt><trkpt lat="40.943191589496365" lon="9.154911540335473"><ele>451.0</ele><time>2026-05-02T11:04:38Z</time></trkpt><trkpt lat="40.94315096951334" lon="9.154764847735223"><ele>451.0</ele><time>2026-05-02T11:04:39Z</time></trkpt><trkpt lat="40.94313328184512" lon="9.154603473766961"><ele>451.0</ele><time>2026-05-02T11:04:40Z</time></trkpt><trkpt lat="40.94312454683494" lon="9.154437941213192"><ele>448.5</ele><time>2026-05-02T11:04:41Z</time></trkpt><trkpt lat="40.943114798750855" lon="9.154250484385429"><ele>446.0</ele><time>2026-05-02T11:04:42Z</time></trkpt><trkpt lat="40.94308935080522" lon="9.154071383909447"><ele>443.5</ele><time>2026-05-02T11:04:43Z</time></trkpt><trkpt lat="40.94306036913606" lon="9.153908261462526"><ele>441.0</ele><time>2026-05-02T11:04:44Z</time></trkpt><trkpt lat="40.943030528589524" lon="9.15375378252184"><ele>439.20000000000005</ele><time>2026-05-02T11:04:45Z</time></trkpt><trkpt lat="40.942997154259345" lon="9.153609620576576"><ele>437.40000000000003</ele><time>2026-05-02T11:04:46Z</time></trkpt><trkpt lat="40.942962932911925" lon="9.153478536317946"><ele>435.6</ele><time>2026-05-02T11:04:47Z</time></trkpt><trkpt lat="40.942927011132426" lon="9.153342504066423"><ele>433.8</ele><time>2026-05-02T11:04:48Z</time></trkpt><trkpt lat="40.9429007183952" lon="9.153189622414946"><ele>432.0</ele><time>2026-05-02T11:04:49Z</time></trkpt><trkpt lat="40.94287408301586" lon="9.153017543901335"><ele>430.0</ele><time>2026-05-02T11:04:50Z</time></trkpt><trkpt lat="40.94286700013475" lon="9.152851231188484"><ele>428.0</ele><time>2026-05-02T11:04:51Z</time></trkpt><trkpt lat="40.94286069077255" lon="9.152680056070214"><ele>426.0</ele><time>2026-05-02T11:04:52Z</time></trkpt><trkpt lat="40.942850516848026" lon="9.152506082234991"><ele>424.0</ele><time>2026-05-02T11:04:53Z</time></trkpt><trkpt lat="40.94287853138194" lon="9.152330659720675"><ele>423.0</ele><time>2026-05-02T11:04:54Z</time></trkpt><trkpt lat="40.94290856358965" lon="9.152178726769952"><ele>422.0</ele><time>2026-05-02T11:04:55Z</time></trkpt><trkpt lat="40.94294445766269" lon="9.15202793579757"><ele>421.0</ele><time>2026-05-02T11:04:56Z</time></trkpt><trkpt lat="40.94296117638462" lon="9.151879739157287"><ele>420.0</ele><time>2026-05-02T11:04:56.999Z</time></trkpt><trkpt lat="40.94295353204955" lon="9.151751654869141"><ele>419.0</ele><time>2026-05-02T11:04:57.999Z</time></trkpt><trkpt lat="40.942916577596954" lon="9.151629268318322"><ele>417.5</ele><time>2026-05-02T11:04:58.999Z</time></trkpt><trkpt lat="40.94284668850994" lon="9.151512848406629"><ele>416.0</ele><time>2026-05-02T11:04:59.999Z</time></trkpt><trkpt lat="40.94276073025647" lon="9.151405705562572"><ele>414.5</ele><time>2026-05-02T11:05:00.999Z</time></trkpt><trkpt lat="40.9426763150239" lon="9.151295040070716"><ele>413.0</ele><time>2026-05-02T11:05:01.999Z</time></trkpt><trkpt lat="40.942600667511044" lon="9.151190772814966"><ele>413.5</ele><time>2026-05-02T11:05:02.999Z</time></trkpt><trkpt lat="40.942526054091786" lon="9.1510840331005"><ele>414.0</ele><time>2026-05-02T11:05:03.999Z</time></trkpt><trkpt lat="40.94245355441401" lon="9.150975887837848"><ele>414.5</ele><time>2026-05-02T11:05:04.999Z</time></trkpt><trkpt lat="40.94238703478357" lon="9.150854732638086"><ele>415.0</ele><time>2026-05-02T11:05:05.999Z</time></trkpt><trkpt lat="40.94232784520966" lon="9.150716940162193"><ele>414.6666666666667</ele><time>2026-05-02T11:05:06.999Z</time></trkpt><trkpt lat="40.942301635567006" lon="9.15057136651201"><ele>414.33333333333337</ele><time>2026-05-02T11:05:07.999Z</time></trkpt><trkpt lat="40.9423115296373" lon="9.150439063744587"><ele>414.0</ele><time>2026-05-02T11:05:08.999Z</time></trkpt><trkpt lat="40.942348077721356" lon="9.150334179329937"><ele>413.66666666666663</ele><time>2026-05-02T11:05:09.999Z</time></trkpt><trkpt lat="40.94236223567771" lon="9.15023823402151"><ele>413.3333333333333</ele><time>2026-05-02T11:05:10.999Z</time></trkpt><trkpt lat="40.94234334073749" lon="9.150153864759673"><ele>413.0</ele><time>2026-05-02T11:05:11.999Z</time></trkpt><trkpt lat="40.94228761226627" lon="9.15008473436384"><ele>413.0</ele><time>2026-05-02T11:05:12.999Z</time></trkpt><trkpt lat="40.94219163950052" lon="9.150038256925804"><ele>413.0</ele><time>2026-05-02T11:05:13.999Z</time></trkpt><trkpt lat="40.94208182738018" lon="9.150007398259326"><ele>413.0</ele><time>2026-05-02T11:05:14.999Z</time></trkpt><trkpt lat="40.94196933887816" lon="9.149951801840196"><ele>413.0</ele><time>2026-05-02T11:05:15.999Z</time></trkpt><trkpt lat="40.94185739028051" lon="9.149863796677451"><ele>415.0</ele><time>2026-05-02T11:05:16.999Z</time></trkpt><trkpt lat="40.94174451115824" lon="9.149754212828656"><ele>417.0</ele><time>2026-05-02T11:05:17.999Z</time></trkpt><trkpt lat="40.94164024997174" lon="9.149649174405607"><ele>419.0</ele><time>2026-05-02T11:05:18.999Z</time></trkpt><trkpt lat="40.94153468081245" lon="9.149550368879165"><ele>421.0</ele><time>2026-05-02T11:05:19.999Z</time></trkpt><trkpt lat="40.94141648255723" lon="9.149463800359003"><ele>421.0</ele><time>2026-05-02T11:05:20.999Z</time></trkpt><trkpt lat="40.94128530246926" lon="9.149395569488929"><ele>421.0</ele><time>2026-05-02T11:05:21.999Z</time></trkpt><trkpt lat="40.941175212816646" lon="9.149327122581857"><ele>421.0</ele><time>2026-05-02T11:05:22.999Z</time></trkpt><trkpt lat="40.94107626824242" lon="9.149248950981635"><ele>421.0</ele><time>2026-05-02T11:05:23.999Z</time></trkpt><trkpt lat="40.940954274946805" lon="9.149152743838725"><ele>420.5</ele><time>2026-05-02T11:05:24.999Z</time></trkpt><trkpt lat="40.94084203483388" lon="9.149052564428342"><ele>420.0</ele><time>2026-05-02T11:05:25.999Z</time></trkpt><trkpt lat="40.940728861855284" lon="9.148961905204041"><ele>419.5</ele><time>2026-05-02T11:05:26.999Z</time></trkpt><trkpt lat="40.94061762931147" lon="9.148888490896017"><ele>419.0</ele><time>2026-05-02T11:05:27.999Z</time></trkpt><trkpt lat="40.94050983507032" lon="9.148839809214433"><ele>420.4</ele><time>2026-05-02T11:05:28.999Z</time></trkpt><trkpt lat="40.94040468227779" lon="9.148801672246202"><ele>421.79999999999995</ele><time>2026-05-02T11:05:29.999Z</time></trkpt><trkpt lat="40.940302152798445" lon="9.148750721364825"><ele>423.20000000000005</ele><time>2026-05-02T11:05:30.999Z</time></trkpt><trkpt lat="40.940212570999755" lon="9.148668367072114"><ele>424.6</ele><time>2026-05-02T11:05:31.999Z</time></trkpt><trkpt lat="40.94012125940419" lon="9.148563333377687"><ele>426.0</ele><time>2026-05-02T11:05:32.999Z</time></trkpt><trkpt lat="40.9400247876652" lon="9.148464549385395"><ele>426.4</ele><time>2026-05-02T11:05:33.999Z</time></trkpt><trkpt lat="40.93992682223234" lon="9.148377925801801"><ele>426.8</ele><time>2026-05-02T11:05:34.999Z</time></trkpt><trkpt lat="40.939856156579076" lon="9.148301291384612"><ele>427.19999999999993</ele><time>2026-05-02T11:05:35.999Z</time></trkpt><trkpt lat="40.93981005057802" lon="9.148212161672843"><ele>427.59999999999997</ele><time>2026-05-02T11:05:36.999Z</time></trkpt><trkpt lat="40.93979273872746" lon="9.148106838473296"><ele>428.0</ele><time>2026-05-02T11:05:37.999Z</time></trkpt><trkpt lat="40.93978471603419" lon="9.14797013230226"><ele>429.5</ele><time>2026-05-02T11:05:38.999Z</time></trkpt><trkpt lat="40.93977132511211" lon="9.147820561724393"><ele>431.0</ele><time>2026-05-02T11:05:39.999Z</time></trkpt><trkpt lat="40.939749804717565" lon="9.147671154958978"><ele>432.5</ele><time>2026-05-02T11:05:40.999Z</time></trkpt><trkpt lat="40.93972332881931" lon="9.147511829945435"><ele>434.0</ele><time>2026-05-02T11:05:41.999Z</time></trkpt><trkpt lat="40.93970298874586" lon="9.147341249572344"><ele>435.0</ele><time>2026-05-02T11:05:42.999Z</time></trkpt><trkpt lat="40.93967408310414" lon="9.147184717999837"><ele>436.0</ele><time>2026-05-02T11:05:43.999Z</time></trkpt><trkpt lat="40.93964259282377" lon="9.14703902894812"><ele>437.0</ele><time>2026-05-02T11:05:44.999Z</time></trkpt><trkpt lat="40.93960793514815" lon="9.14692354458628"><ele>438.0</ele><time>2026-05-02T11:05:45.999Z</time></trkpt><trkpt lat="40.93957757124067" lon="9.146824701076815"><ele>439.0</ele><time>2026-05-02T11:05:46.999Z</time></trkpt><trkpt lat="40.939511622286304" lon="9.14671249973372"><ele>439.0</ele><time>2026-05-02T11:05:48.999Z</time></trkpt><trkpt lat="40.93942780547282" lon="9.146630543326886"><ele>439.0</ele><time>2026-05-02T11:05:49.999Z</time></trkpt><trkpt lat="40.93936592872403" lon="9.146565203180103"><ele>439.0</ele><time>2026-05-02T11:05:50.999Z</time></trkpt><trkpt lat="40.93927387414601" lon="9.146424346242151"><ele>439.0</ele><time>2026-05-02T11:05:51.999Z</time></trkpt><trkpt lat="40.9391798346576" lon="9.146257820842932"><ele>439.2</ele><time>2026-05-02T11:05:52.999Z</time></trkpt><trkpt lat="40.9391224545925" lon="9.14614393883229"><ele>439.4</ele><time>2026-05-02T11:05:53.999Z</time></trkpt><trkpt lat="40.93907984290845" lon="9.14603489760971"><ele>439.6</ele><time>2026-05-02T11:05:54.999Z</time></trkpt><trkpt lat="40.93904859020968" lon="9.145959161987584"><ele>439.8</ele><time>2026-05-02T11:05:55.999Z</time></trkpt><trkpt lat="40.938972506377645" lon="9.1459980179485"><ele>440.0</ele><time>2026-05-02T11:06:00.999Z</time></trkpt><trkpt lat="40.938881663542176" lon="9.146105557980864"><ele>440.0</ele><time>2026-05-02T11:06:02.999Z</time></trkpt><trkpt lat="40.93877854484945" lon="9.146192802589052"><ele>440.0</ele><time>2026-05-02T11:06:03.999Z</time></trkpt><trkpt lat="40.93868189315181" lon="9.14625865829603"><ele>440.0</ele><time>2026-05-02T11:06:04.999Z</time></trkpt><trkpt lat="40.938578879052606" lon="9.146330714104199"><ele>440.0</ele><time>2026-05-02T11:06:05.999Z</time></trkpt><trkpt lat="40.93847801158572" lon="9.14638337410559"><ele>440.0</ele><time>2026-05-02T11:06:06.999Z</time></trkpt><trkpt lat="40.9383857257521" lon="9.146403985070101"><ele>440.0</ele><time>2026-05-02T11:06:07.999Z</time></trkpt><trkpt lat="40.93835249679378" lon="9.146288924436357"><ele>440.0</ele><time>2026-05-02T11:06:10Z</time></trkpt><trkpt lat="40.938300638556704" lon="9.14622015635886"><ele>440.0</ele><time>2026-05-02T11:06:11Z</time></trkpt><trkpt lat="40.938264644302926" lon="9.146118071588933"><ele>440.0</ele><time>2026-05-02T11:06:12Z</time></trkpt><trkpt lat="40.93820889454655" lon="9.145981814439955"><ele>440.75</ele><time>2026-05-02T11:06:13Z</time></trkpt><trkpt lat="40.93811929280469" lon="9.14587418139211"><ele>441.5</ele><time>2026-05-02T11:06:14Z</time></trkpt><trkpt lat="40.93804803768722" lon="9.145767196061863"><ele>442.25</ele><time>2026-05-02T11:06:15Z</time></trkpt><trkpt lat="40.93795538426794" lon="9.145681930101786"><ele>443.0</ele><time>2026-05-02T11:06:16Z</time></trkpt><trkpt lat="40.937849778000526" lon="9.145618507087667"><ele>443.5</ele><time>2026-05-02T11:06:17Z</time></trkpt><trkpt lat="40.93775002967274" lon="9.145565862666926"><ele>444.0</ele><time>2026-05-02T11:06:18Z</time></trkpt><trkpt lat="40.93764330151409" lon="9.145527209172274"><ele>444.5</ele><time>2026-05-02T11:06:19Z</time></trkpt><trkpt lat="40.93752895903474" lon="9.145471479059475"><ele>445.0</ele><time>2026-05-02T11:06:20Z</time></trkpt><trkpt lat="40.93741944488472" lon="9.145387843680231"><ele>447.25</ele><time>2026-05-02T11:06:21Z</time></trkpt><trkpt lat="40.93731559676735" lon="9.145301103818296"><ele>449.5</ele><time>2026-05-02T11:06:22Z</time></trkpt><trkpt lat="40.93721360855071" lon="9.14521381373442"><ele>451.75</ele><time>2026-05-02T11:06:23Z</time></trkpt><trkpt lat="40.937105607894544" lon="9.145181976803471"><ele>454.0</ele><time>2026-05-02T11:06:24Z</time></trkpt><trkpt lat="40.93698972048775" lon="9.145181994633473"><ele>454.0</ele><time>2026-05-02T11:06:25Z</time></trkpt><trkpt lat="40.93686753728823" lon="9.145178748392516"><ele>454.0</ele><time>2026-05-02T11:06:26Z</time></trkpt><trkpt lat="40.93675248483202" lon="9.145160893897627"><ele>454.0</ele><time>2026-05-02T11:06:27Z</time></trkpt><trkpt lat="40.936647176086566" lon="9.145132818944504"><ele>454.0</ele><time>2026-05-02T11:06:28Z</time></trkpt><trkpt lat="40.936554977257714" lon="9.145099069991314"><ele>454.0</ele><time>2026-05-02T11:06:29Z</time></trkpt><trkpt lat="40.936466659673066" lon="9.145050260101243"><ele>456.4</ele><time>2026-05-02T11:06:30Z</time></trkpt><trkpt lat="40.93637377124564" lon="9.144954732293725"><ele>458.79999999999995</ele><time>2026-05-02T11:06:31Z</time></trkpt><trkpt lat="40.93629206924177" lon="9.14489851981796"><ele>461.20000000000005</ele><time>2026-05-02T11:06:32Z</time></trkpt><trkpt lat="40.936203252616174" lon="9.144842776875352"><ele>463.6</ele><time>2026-05-02T11:06:33Z</time></trkpt><trkpt lat="40.93616223027928" lon="9.144746195858248"><ele>466.0</ele><time>2026-05-02T11:06:34Z</time></trkpt><trkpt lat="40.93609991712506" lon="9.144636110038848"><ele>466.20000000000005</ele><time>2026-05-02T11:06:35Z</time></trkpt><trkpt lat="40.93601561653385" lon="9.144527413189373"><ele>466.40000000000003</ele><time>2026-05-02T11:06:36Z</time></trkpt><trkpt lat="40.93594160676838" lon="9.144454983345584"><ele>466.6</ele><time>2026-05-02T11:06:37Z</time></trkpt><trkpt lat="40.93585213417918" lon="9.144421717891127"><ele>466.8</ele><time>2026-05-02T11:06:38Z</time></trkpt><trkpt lat="40.935743395072855" lon="9.144387366349052"><ele>467.0</ele><time>2026-05-02T11:06:39Z</time></trkpt><trkpt lat="40.93564946451517" lon="9.144335849856379"><ele>468.8</ele><time>2026-05-02T11:06:40Z</time></trkpt><trkpt lat="40.93554474456021" lon="9.14428219195707"><ele>470.6</ele><time>2026-05-02T11:06:41Z</time></trkpt><trkpt lat="40.9354350415286" lon="9.144206081783194"><ele>472.40000000000003</ele><time>2026-05-02T11:06:42Z</time></trkpt><trkpt lat="40.9353383540513" lon="9.144142522660939"><ele>474.20000000000005</ele><time>2026-05-02T11:06:43Z</time></trkpt><trkpt lat="40.93527170418306" lon="9.144109491809544"><ele>476.0</ele><time>2026-05-02T11:06:44Z</time></trkpt><trkpt lat="40.93520448984191" lon="9.144093150707043"><ele>475.99999999999994</ele><time>2026-05-02T11:06:45Z</time></trkpt><trkpt lat="40.93513109313671" lon="9.144082497090949"><ele>476.0</ele><time>2026-05-02T11:06:46Z</time></trkpt><trkpt lat="40.93505136249502" lon="9.14406676491808"><ele>476.0</ele><time>2026-05-02T11:06:47Z</time></trkpt><trkpt lat="40.93496695785957" lon="9.144049659843684"><ele>476.0</ele><time>2026-05-02T11:06:48Z</time></trkpt><trkpt lat="40.93488747258741" lon="9.144037664143406"><ele>475.99999999999994</ele><time>2026-05-02T11:06:49Z</time></trkpt><trkpt lat="40.93480149972868" lon="9.14401007406056"><ele>476.0</ele><time>2026-05-02T11:06:50Z</time></trkpt><trkpt lat="40.93471084493325" lon="9.143963497627498"><ele>475.4</ele><time>2026-05-02T11:06:50.999Z</time></trkpt><trkpt lat="40.93462732269395" lon="9.1439234223157"><ele>474.8</ele><time>2026-05-02T11:06:51.999Z</time></trkpt><trkpt lat="40.93455670510485" lon="9.143838499565812"><ele>474.19999999999993</ele><time>2026-05-02T11:06:52.999Z</time></trkpt><trkpt lat="40.934465933477796" lon="9.143796333564127"><ele>473.59999999999997</ele><time>2026-05-02T11:06:53.999Z</time></trkpt><trkpt lat="40.934380991249235" lon="9.14376040937358"><ele>473.0</ele><time>2026-05-02T11:06:54.999Z</time></trkpt><trkpt lat="40.93429963077486" lon="9.14372219316763"><ele>473.79999999999995</ele><time>2026-05-02T11:06:55.999Z</time></trkpt><trkpt lat="40.934214498937955" lon="9.14369481548705"><ele>474.59999999999997</ele><time>2026-05-02T11:06:56.999Z</time></trkpt><trkpt lat="40.93412776885602" lon="9.143662558732618"><ele>475.40000000000003</ele><time>2026-05-02T11:06:57.999Z</time></trkpt><trkpt lat="40.93404169997278" lon="9.143605954325484"><ele>476.20000000000005</ele><time>2026-05-02T11:06:58.999Z</time></trkpt><trkpt lat="40.93396157262084" lon="9.143524962064985"><ele>477.0</ele><time>2026-05-02T11:06:59.999Z</time></trkpt><trkpt lat="40.933883851301594" lon="9.143453424829463"><ele>477.0</ele><time>2026-05-02T11:07:00.999Z</time></trkpt><trkpt lat="40.933816248062605" lon="9.143387668372707"><ele>477.0</ele><time>2026-05-02T11:07:01.999Z</time></trkpt><trkpt lat="40.93375441578618" lon="9.143331629251431"><ele>477.0</ele><time>2026-05-02T11:07:02.999Z</time></trkpt><trkpt lat="40.93367118814592" lon="9.143275209037347"><ele>477.0</ele><time>2026-05-02T11:07:03.999Z</time></trkpt><trkpt lat="40.933585457872375" lon="9.143230062900217"><ele>477.0</ele><time>2026-05-02T11:07:04.999Z</time></trkpt><trkpt lat="40.933495038212214" lon="9.143183148570328"><ele>477.0</ele><time>2026-05-02T11:07:05.999Z</time></trkpt><trkpt lat="40.933414524824286" lon="9.143114562166764"><ele>476.0</ele><time>2026-05-02T11:07:06.999Z</time></trkpt><trkpt lat="40.93331376418625" lon="9.143110365838439"><ele>475.00000000000006</ele><time>2026-05-02T11:07:07.999Z</time></trkpt><trkpt lat="40.93320992749541" lon="9.143125434551955"><ele>474.00000000000006</ele><time>2026-05-02T11:07:08.999Z</time></trkpt><trkpt lat="40.93311398319987" lon="9.143143028676677"><ele>473.0</ele><time>2026-05-02T11:07:09.999Z</time></trkpt><trkpt lat="40.933032894687976" lon="9.143152390981777"><ele>472.0</ele><time>2026-05-02T11:07:10.999Z</time></trkpt><trkpt lat="40.93295512237647" lon="9.143193580203038"><ele>473.0</ele><time>2026-05-02T11:07:11.999Z</time></trkpt><trkpt lat="40.93289884228483" lon="9.143234343531011"><ele>474.00000000000006</ele><time>2026-05-02T11:07:12.999Z</time></trkpt><trkpt lat="40.93278605499568" lon="9.143323038491598"><ele>475.00000000000006</ele><time>2026-05-02T11:07:14.999Z</time></trkpt><trkpt lat="40.93272438659123" lon="9.14338064530801"><ele>476.0</ele><time>2026-05-02T11:07:15.999Z</time></trkpt><trkpt lat="40.932655880894735" lon="9.143445256448762"><ele>477.0</ele><time>2026-05-02T11:07:16.999Z</time></trkpt><trkpt lat="40.93255636368897" lon="9.14352164263919"><ele>476.6666666666667</ele><time>2026-05-02T11:07:18.999Z</time></trkpt><trkpt lat="40.932486544019206" lon="9.143557670000675"><ele>476.33333333333337</ele><time>2026-05-02T11:07:20.999Z</time></trkpt><trkpt lat="40.93244088471331" lon="9.143497310778498"><ele>476.0</ele><time>2026-05-02T11:07:22.999Z</time></trkpt><trkpt lat="40.93247384963279" lon="9.143408104580732"><ele>475.6666666666667</ele><time>2026-05-02T11:07:35.999Z</time></trkpt><trkpt lat="40.932473634232245" lon="9.143254470278166"><ele>475.33333333333337</ele><time>2026-05-02T11:07:37.999Z</time></trkpt><trkpt lat="40.93244291957421" lon="9.143145725122787"><ele>475.0</ele><time>2026-05-02T11:07:38.999Z</time></trkpt><trkpt lat="40.93238642653342" lon="9.143025988799353"><ele>475.0</ele><time>2026-05-02T11:07:39.999Z</time></trkpt><trkpt lat="40.93231874659895" lon="9.142884486837238"><ele>475.0</ele><time>2026-05-02T11:07:40.999Z</time></trkpt><trkpt lat="40.93228155907286" lon="9.142748839361829"><ele>475.0</ele><time>2026-05-02T11:07:41.999Z</time></trkpt><trkpt lat="40.93230322230001" lon="9.142605086753075"><ele>475.0</ele><time>2026-05-02T11:07:42.999Z</time></trkpt><trkpt lat="40.93236532335963" lon="9.142451999348141"><ele>474.25</ele><time>2026-05-02T11:07:43.999Z</time></trkpt><trkpt lat="40.93244151434128" lon="9.142315453550355"><ele>473.5</ele><time>2026-05-02T11:07:44.999Z</time></trkpt><trkpt lat="40.93248419879721" lon="9.142173876072325"><ele>472.75</ele><time>2026-05-02T11:07:45.999Z</time></trkpt><trkpt lat="40.932492441963724" lon="9.141998629728329"><ele>472.0</ele><time>2026-05-02T11:07:46.999Z</time></trkpt><trkpt lat="40.93248347155997" lon="9.141821292074782"><ele>472.0</ele><time>2026-05-02T11:07:47.999Z</time></trkpt><trkpt lat="40.9324744992756" lon="9.141664852216158"><ele>472.00000000000006</ele><time>2026-05-02T11:07:48.999Z</time></trkpt><trkpt lat="40.932471010174964" lon="9.141515135581681"><ele>472.00000000000006</ele><time>2026-05-02T11:07:49.999Z</time></trkpt><trkpt lat="40.93246398274611" lon="9.14137415160929"><ele>472.0</ele><time>2026-05-02T11:07:50.999Z</time></trkpt><trkpt lat="40.93245860268788" lon="9.141231598565343"><ele>472.0</ele><time>2026-05-02T11:07:51.999Z</time></trkpt><trkpt lat="40.932455830001054" lon="9.141090048386904"><ele>470.6</ele><time>2026-05-02T11:07:52.999Z</time></trkpt><trkpt lat="40.932451037555886" lon="9.140958154523181"><ele>469.20000000000005</ele><time>2026-05-02T11:07:53.999Z</time></trkpt><trkpt lat="40.9324517488838" lon="9.140811301100403"><ele>467.8</ele><time>2026-05-02T11:07:54.999Z</time></trkpt><trkpt lat="40.93245440662087" lon="9.140683216403287"><ele>466.4</ele><time>2026-05-02T11:07:55.999Z</time></trkpt><trkpt lat="40.932457602856886" lon="9.140557040271815"><ele>465.0</ele><time>2026-05-02T11:07:56.999Z</time></trkpt><trkpt lat="40.932468724703455" lon="9.14044178370445"><ele>463.6666666666667</ele><time>2026-05-02T11:07:57.999Z</time></trkpt><trkpt lat="40.93249476875507" lon="9.140344153767975"><ele>462.33333333333337</ele><time>2026-05-02T11:07:58.999Z</time></trkpt><trkpt lat="40.93253540261937" lon="9.140277823116737"><ele>461.0</ele><time>2026-05-02T11:07:59.999Z</time></trkpt><trkpt lat="40.932605450466895" lon="9.140260087120977"><ele>459.6666666666667</ele><time>2026-05-02T11:08:00.999Z</time></trkpt><trkpt lat="40.93267546147116" lon="9.140234487651291"><ele>458.33333333333337</ele><time>2026-05-02T11:08:01.999Z</time></trkpt><trkpt lat="40.932781320514806" lon="9.140123918318698"><ele>457.0</ele><time>2026-05-02T11:08:03.999Z</time></trkpt><trkpt lat="40.93286042632608" lon="9.140013725665943"><ele>455.75</ele><time>2026-05-02T11:08:04.999Z</time></trkpt><trkpt lat="40.93293795972547" lon="9.139890694003817"><ele>454.5</ele><time>2026-05-02T11:08:05.999Z</time></trkpt><trkpt lat="40.93301353507697" lon="9.13975765411958"><ele>453.25</ele><time>2026-05-02T11:08:06.999Z</time></trkpt><trkpt lat="40.93308359419657" lon="9.139627185438627"><ele>452.0</ele><time>2026-05-02T11:08:07.999Z</time></trkpt><trkpt lat="40.93315453546106" lon="9.139493705246327"><ele>449.75</ele><time>2026-05-02T11:08:08.999Z</time></trkpt><trkpt lat="40.93322884962884" lon="9.139346498632621"><ele>447.5</ele><time>2026-05-02T11:08:09.999Z</time></trkpt><trkpt lat="40.9333029196282" lon="9.139186860010884"><ele>445.25</ele><time>2026-05-02T11:08:10.999Z</time></trkpt><trkpt lat="40.933370035201555" lon="9.139043831972113"><ele>443.0</ele><time>2026-05-02T11:08:11.999Z</time></trkpt><trkpt lat="40.93344074765195" lon="9.138895618778935"><ele>441.2</ele><time>2026-05-02T11:08:12.999Z</time></trkpt><trkpt lat="40.93349786394011" lon="9.138778411023283"><ele>439.4</ele><time>2026-05-02T11:08:13.999Z</time></trkpt><trkpt lat="40.93355880018879" lon="9.138675767636078"><ele>437.59999999999997</ele><time>2026-05-02T11:08:15Z</time></trkpt><trkpt lat="40.93362055202633" lon="9.138548929260278"><ele>435.79999999999995</ele><time>2026-05-02T11:08:16Z</time></trkpt><trkpt lat="40.93367255320379" lon="9.138400104102987"><ele>434.0</ele><time>2026-05-02T11:08:17Z</time></trkpt><trkpt lat="40.93372945545866" lon="9.138258617254527"><ele>432.5</ele><time>2026-05-02T11:08:18Z</time></trkpt><trkpt lat="40.9337913153673" lon="9.138102788180444"><ele>431.0</ele><time>2026-05-02T11:08:19Z</time></trkpt><trkpt lat="40.93384909328976" lon="9.137929295069648"><ele>429.5</ele><time>2026-05-02T11:08:20Z</time></trkpt><trkpt lat="40.933894927927994" lon="9.137753573057617"><ele>428.0</ele><time>2026-05-02T11:08:21Z</time></trkpt><trkpt lat="40.93393176836389" lon="9.13758106630536"><ele>428.0</ele><time>2026-05-02T11:08:22Z</time></trkpt><trkpt lat="40.933959284616556" lon="9.137398415548702"><ele>428.0</ele><time>2026-05-02T11:08:23Z</time></trkpt><trkpt lat="40.93401777993289" lon="9.137180295243693"><ele>428.0</ele><time>2026-05-02T11:08:24Z</time></trkpt><trkpt lat="40.934037548612054" lon="9.136980854130602"><ele>427.5</ele><time>2026-05-02T11:08:25Z</time></trkpt><trkpt lat="40.934070924451866" lon="9.136792501346864"><ele>427.0</ele><time>2026-05-02T11:08:26Z</time></trkpt><trkpt lat="40.93409883855729" lon="9.136620375566228"><ele>426.5</ele><time>2026-05-02T11:08:27Z</time></trkpt><trkpt lat="40.9341268382381" lon="9.136457291158354"><ele>426.0</ele><time>2026-05-02T11:08:28Z</time></trkpt><trkpt lat="40.934157486920036" lon="9.136299316471257"><ele>425.8</ele><time>2026-05-02T11:08:29Z</time></trkpt><trkpt lat="40.93419138064946" lon="9.136144053293608"><ele>425.6</ele><time>2026-05-02T11:08:30Z</time></trkpt><trkpt lat="40.9342338088804" lon="9.135994911575638"><ele>425.4</ele><time>2026-05-02T11:08:31Z</time></trkpt><trkpt lat="40.93427757223582" lon="9.135866573995386"><ele>425.2</ele><time>2026-05-02T11:08:32Z</time></trkpt><trkpt lat="40.934338265887256" lon="9.135764576374449"><ele>425.0</ele><time>2026-05-02T11:08:33Z</time></trkpt><trkpt lat="40.9344038872133" lon="9.135689303794775"><ele>425.0</ele><time>2026-05-02T11:08:34Z</time></trkpt><trkpt lat="40.934461815126696" lon="9.135614776423527"><ele>425.0</ele><time>2026-05-02T11:08:35Z</time></trkpt><trkpt lat="40.93448256030688" lon="9.13551766515232"><ele>425.0</ele><time>2026-05-02T11:08:36Z</time></trkpt><trkpt lat="40.934470188599754" lon="9.13542012249142"><ele>425.0</ele><time>2026-05-02T11:08:37Z</time></trkpt><trkpt lat="40.93443088938929" lon="9.135298978669796"><ele>425.0</ele><time>2026-05-02T11:08:38Z</time></trkpt><trkpt lat="40.93438593930212" lon="9.135145706479129"><ele>425.0</ele><time>2026-05-02T11:08:39Z</time></trkpt><trkpt lat="40.934373397264295" lon="9.135022168642289"><ele>425.0</ele><time>2026-05-02T11:08:40Z</time></trkpt><trkpt lat="40.934389918949364" lon="9.134903499545944"><ele>425.0</ele><time>2026-05-02T11:08:41Z</time></trkpt><trkpt lat="40.93444981520331" lon="9.134792495738933"><ele>425.0</ele><time>2026-05-02T11:08:42Z</time></trkpt><trkpt lat="40.93452240115392" lon="9.134674416449055"><ele>425.0</ele><time>2026-05-02T11:08:43Z</time></trkpt><trkpt lat="40.934595749348325" lon="9.134548725251987"><ele>426.0</ele><time>2026-05-02T11:08:44Z</time></trkpt><trkpt lat="40.93467174909331" lon="9.134422183127334"><ele>427.0</ele><time>2026-05-02T11:08:45Z</time></trkpt><trkpt lat="40.93474721435285" lon="9.134304975857834"><ele>428.0</ele><time>2026-05-02T11:08:46Z</time></trkpt><trkpt lat="40.93482013742253" lon="9.134193827777136"><ele>429.0</ele><time>2026-05-02T11:08:47Z</time></trkpt><trkpt lat="40.93489535558048" lon="9.134077228668865"><ele>433.2</ele><time>2026-05-02T11:08:48Z</time></trkpt><trkpt lat="40.93496014422471" lon="9.133952708312183"><ele>437.4</ele><time>2026-05-02T11:08:49Z</time></trkpt><trkpt lat="40.93502456396937" lon="9.133837566021633"><ele>441.6</ele><time>2026-05-02T11:08:50Z</time></trkpt><trkpt lat="40.935095902582994" lon="9.133725455821978"><ele>445.8</ele><time>2026-05-02T11:08:51Z</time></trkpt><trkpt lat="40.93516949909185" lon="9.133619583870775"><ele>450.0</ele><time>2026-05-02T11:08:52Z</time></trkpt><trkpt lat="40.93524294207242" lon="9.133515012719828"><ele>450.0</ele><time>2026-05-02T11:08:53Z</time></trkpt><trkpt lat="40.93531413368128" lon="9.133415320218655"><ele>450.0</ele><time>2026-05-02T11:08:54Z</time></trkpt><trkpt lat="40.935372780896415" lon="9.133322493133857"><ele>450.0</ele><time>2026-05-02T11:08:55Z</time></trkpt><trkpt lat="40.93544375192565" lon="9.13322794804149"><ele>450.0</ele><time>2026-05-02T11:08:56Z</time></trkpt><trkpt lat="40.93550746985821" lon="9.133123943904469"><ele>450.0</ele><time>2026-05-02T11:08:57Z</time></trkpt><trkpt lat="40.935556264660036" lon="9.132997806839162"><ele>452.0</ele><time>2026-05-02T11:08:57.999Z</time></trkpt><trkpt lat="40.9355806963138" lon="9.13284725411178"><ele>454.0</ele><time>2026-05-02T11:08:58.999Z</time></trkpt><trkpt lat="40.93557988849362" lon="9.132682138664903"><ele>456.0</ele><time>2026-05-02T11:08:59.999Z</time></trkpt><trkpt lat="40.93557983544563" lon="9.132516639423356"><ele>458.0</ele><time>2026-05-02T11:09:00.999Z</time></trkpt><trkpt lat="40.93558792130549" lon="9.132324937019906"><ele>458.0</ele><time>2026-05-02T11:09:01.999Z</time></trkpt><trkpt lat="40.93560493762941" lon="9.132124621412954"><ele>458.0</ele><time>2026-05-02T11:09:02.999Z</time></trkpt><trkpt lat="40.935624069735695" lon="9.131973711474801"><ele>458.0</ele><time>2026-05-02T11:09:03.999Z</time></trkpt><trkpt lat="40.935641836657446" lon="9.13182106638536"><ele>458.0</ele><time>2026-05-02T11:09:04.999Z</time></trkpt><trkpt lat="40.93566765860868" lon="9.131658275487808"><ele>456.5</ele><time>2026-05-02T11:09:05.999Z</time></trkpt><trkpt lat="40.93569829510665" lon="9.131494745201367"><ele>455.0</ele><time>2026-05-02T11:09:06.999Z</time></trkpt><trkpt lat="40.93571809331898" lon="9.13132464844361"><ele>453.5</ele><time>2026-05-02T11:09:07.999Z</time></trkpt><trkpt lat="40.93573250747299" lon="9.13114882938918"><ele>452.0</ele><time>2026-05-02T11:09:08.999Z</time></trkpt><trkpt lat="40.93574060618039" lon="9.130972232819298"><ele>452.0</ele><time>2026-05-02T11:09:09.999Z</time></trkpt><trkpt lat="40.93575843152491" lon="9.130783510178867"><ele>452.0</ele><time>2026-05-02T11:09:10.999Z</time></trkpt><trkpt lat="40.93575638250961" lon="9.130608330882032"><ele>452.0</ele><time>2026-05-02T11:09:11.999Z</time></trkpt><trkpt lat="40.935758674153405" lon="9.130433419109966"><ele>452.0</ele><time>2026-05-02T11:09:12.999Z</time></trkpt><trkpt lat="40.93579647311219" lon="9.130223866591134"><ele>451.5</ele><time>2026-05-02T11:09:13.999Z</time></trkpt><trkpt lat="40.935852851552234" lon="9.13005858644956"><ele>451.0</ele><time>2026-05-02T11:09:14.999Z</time></trkpt><trkpt lat="40.93589925035283" lon="9.129888063123786"><ele>450.5</ele><time>2026-05-02T11:09:15.999Z</time></trkpt><trkpt lat="40.93592649274289" lon="9.12971379701626"><ele>450.0</ele><time>2026-05-02T11:09:16.999Z</time></trkpt><trkpt lat="40.935939723270174" lon="9.129542138875005"><ele>447.25</ele><time>2026-05-02T11:09:17.999Z</time></trkpt><trkpt lat="40.93594286004156" lon="9.129372653802314"><ele>444.5</ele><time>2026-05-02T11:09:18.999Z</time></trkpt><trkpt lat="40.93592722405911" lon="9.12920747002272"><ele>441.75</ele><time>2026-05-02T11:09:19.999Z</time></trkpt><trkpt lat="40.93592827484033" lon="9.129050396462924"><ele>439.0</ele><time>2026-05-02T11:09:20.999Z</time></trkpt><trkpt lat="40.935941537441494" lon="9.128906377508493"><ele>439.2</ele><time>2026-05-02T11:09:21.999Z</time></trkpt><trkpt lat="40.9359540045267" lon="9.128758520273953"><ele>439.4</ele><time>2026-05-02T11:09:22.999Z</time></trkpt><trkpt lat="40.93596314474814" lon="9.128619945541272"><ele>439.6</ele><time>2026-05-02T11:09:23.999Z</time></trkpt><trkpt lat="40.93592860746898" lon="9.128524867455987"><ele>439.8</ele><time>2026-05-02T11:09:24.999Z</time></trkpt><trkpt lat="40.93590461012992" lon="9.128432675003024"><ele>440.0</ele><time>2026-05-02T11:09:25.999Z</time></trkpt><trkpt lat="40.93585842002339" lon="9.12831948323233"><ele>438.6</ele><time>2026-05-02T11:09:26.999Z</time></trkpt><trkpt lat="40.93581332326248" lon="9.128189435210187"><ele>437.2</ele><time>2026-05-02T11:09:27.999Z</time></trkpt><trkpt lat="40.935745984054186" lon="9.128071830922204"><ele>435.79999999999995</ele><time>2026-05-02T11:09:28.999Z</time></trkpt><trkpt lat="40.935678755948736" lon="9.127957257831541"><ele>434.4</ele><time>2026-05-02T11:09:29.999Z</time></trkpt><trkpt lat="40.93564031047691" lon="9.127862630329398"><ele>433.0</ele><time>2026-05-02T11:09:30.999Z</time></trkpt><trkpt lat="40.93568118290908" lon="9.127701431382219"><ele>433.0</ele><time>2026-05-02T11:09:32.999Z</time></trkpt><trkpt lat="40.93575126901733" lon="9.12762623590528"><ele>432.99999999999994</ele><time>2026-05-02T11:09:33.999Z</time></trkpt><trkpt lat="40.93585853306935" lon="9.127529359336927"><ele>432.99999999999994</ele><time>2026-05-02T11:09:34.999Z</time></trkpt><trkpt lat="40.93595430651444" lon="9.127440218774778"><ele>433.0</ele><time>2026-05-02T11:09:35.999Z</time></trkpt><trkpt lat="40.936043107098065" lon="9.127371699652908"><ele>433.0</ele><time>2026-05-02T11:09:36.999Z</time></trkpt><trkpt lat="40.93614724194125" lon="9.127320127334984"><ele>434.0</ele><time>2026-05-02T11:09:37.999Z</time></trkpt><trkpt lat="40.936270928317505" lon="9.127279796891855"><ele>434.99999999999994</ele><time>2026-05-02T11:09:38.999Z</time></trkpt><trkpt lat="40.936411208651215" lon="9.127277184494242"><ele>435.99999999999994</ele><time>2026-05-02T11:09:39.999Z</time></trkpt><trkpt lat="40.93651467456115" lon="9.127241884353134"><ele>437.0</ele><time>2026-05-02T11:09:40.999Z</time></trkpt><trkpt lat="40.936559633501666" lon="9.127162933235576"><ele>438.0</ele><time>2026-05-02T11:09:41.999Z</time></trkpt><trkpt lat="40.93657776156192" lon="9.127079852094637"><ele>438.0</ele><time>2026-05-02T11:09:42.999Z</time></trkpt><trkpt lat="40.936593810426" lon="9.126950388153249"><ele>437.99999999999994</ele><time>2026-05-02T11:09:43.999Z</time></trkpt><trkpt lat="40.936603357805055" lon="9.126825032981115"><ele>437.99999999999994</ele><time>2026-05-02T11:09:44.999Z</time></trkpt><trkpt lat="40.936624885689476" lon="9.12667409722614"><ele>438.0</ele><time>2026-05-02T11:09:45.999Z</time></trkpt><trkpt lat="40.93664543607496" lon="9.126530172259576"><ele>438.0</ele><time>2026-05-02T11:09:46.999Z</time></trkpt><trkpt lat="40.93665772904969" lon="9.126347887695355"><ele>440.0</ele><time>2026-05-02T11:09:47.999Z</time></trkpt><trkpt lat="40.936668177438925" lon="9.126183235489044"><ele>442.0</ele><time>2026-05-02T11:09:48.999Z</time></trkpt><trkpt lat="40.93669277947885" lon="9.1260279465897"><ele>444.0</ele><time>2026-05-02T11:09:49.999Z</time></trkpt><trkpt lat="40.93673497247554" lon="9.125893445947668"><ele>446.0</ele><time>2026-05-02T11:09:50.999Z</time></trkpt><trkpt lat="40.93679467678105" lon="9.12575119741443"><ele>450.0</ele><time>2026-05-02T11:09:51.999Z</time></trkpt><trkpt lat="40.93684581310109" lon="9.12560082721219"><ele>454.0</ele><time>2026-05-02T11:09:52.999Z</time></trkpt><trkpt lat="40.93689286524388" lon="9.125454787411678"><ele>458.0</ele><time>2026-05-02T11:09:53.999Z</time></trkpt><trkpt lat="40.93693114833348" lon="9.125299257014428"><ele>462.0</ele><time>2026-05-02T11:09:54.999Z</time></trkpt><trkpt lat="40.93696996058671" lon="9.125136157459922"><ele>462.0</ele><time>2026-05-02T11:09:55.999Z</time></trkpt><trkpt lat="40.93701527389844" lon="9.124976774054566"><ele>462.0</ele><time>2026-05-02T11:09:56.999Z</time></trkpt><trkpt lat="40.93705387095525" lon="9.124826638462869"><ele>462.0</ele><time>2026-05-02T11:09:57.999Z</time></trkpt><trkpt lat="40.93708566224642" lon="9.124668968404466"><ele>462.0</ele><time>2026-05-02T11:09:58.999Z</time></trkpt><trkpt lat="40.93710323539343" lon="9.124527305881598"><ele>463.6</ele><time>2026-05-02T11:09:59.999Z</time></trkpt><trkpt lat="40.937132674736155" lon="9.124373148957034"><ele>465.20000000000005</ele><time>2026-05-02T11:10:00.999Z</time></trkpt><trkpt lat="40.937155970885065" lon="9.124237331407125"><ele>466.8</ele><time>2026-05-02T11:10:01.999Z</time></trkpt><trkpt lat="40.93717056568719" lon="9.124107954419257"><ele>468.4</ele><time>2026-05-02T11:10:02.999Z</time></trkpt><trkpt lat="40.937203625419755" lon="9.123979467219778"><ele>470.0</ele><time>2026-05-02T11:10:03.999Z</time></trkpt><trkpt lat="40.937300213661935" lon="9.123914960422153"><ele>470.99999999999994</ele><time>2026-05-02T11:10:05.999Z</time></trkpt><trkpt lat="40.93736038038738" lon="9.123873212421193"><ele>472.0</ele><time>2026-05-02T11:10:06.999Z</time></trkpt><trkpt lat="40.93740435743711" lon="9.123786501386862"><ele>473.0</ele><time>2026-05-02T11:10:07.999Z</time></trkpt><trkpt lat="40.93738558139562" lon="9.123683355280264"><ele>474.0</ele><time>2026-05-02T11:10:08.999Z</time></trkpt><trkpt lat="40.9373451826018" lon="9.12357728893228"><ele>474.99999999999994</ele><time>2026-05-02T11:10:09.999Z</time></trkpt><trkpt lat="40.93730566823567" lon="9.123438648096355"><ele>476.0</ele><time>2026-05-02T11:10:10.999Z</time></trkpt><trkpt lat="40.93730494590011" lon="9.123291334548407"><ele>475.75</ele><time>2026-05-02T11:10:11.999Z</time></trkpt><trkpt lat="40.93731263964299" lon="9.123140564439261"><ele>475.5</ele><time>2026-05-02T11:10:12.999Z</time></trkpt><trkpt lat="40.93732365274868" lon="9.122982060282078"><ele>475.25</ele><time>2026-05-02T11:10:13.999Z</time></trkpt><trkpt lat="40.93733438621665" lon="9.122824291993021"><ele>475.0</ele><time>2026-05-02T11:10:14.999Z</time></trkpt><trkpt lat="40.937336325627776" lon="9.122673654516692"><ele>475.0</ele><time>2026-05-02T11:10:15.999Z</time></trkpt><trkpt lat="40.937326491878025" lon="9.1225451856123"><ele>475.0</ele><time>2026-05-02T11:10:16.999Z</time></trkpt><trkpt lat="40.9372600618526" lon="9.12242733648318"><ele>475.0</ele><time>2026-05-02T11:10:18.999Z</time></trkpt><trkpt lat="40.937195125415236" lon="9.122449893406188"><ele>475.0</ele><time>2026-05-02T11:10:19.999Z</time></trkpt><trkpt lat="40.937020360966" lon="9.122465426801659"><ele>475.00000000000006</ele><time>2026-05-02T11:10:22Z</time></trkpt><trkpt lat="40.93692523387858" lon="9.122458593471588"><ele>475.0</ele><time>2026-05-02T11:10:23Z</time></trkpt><trkpt lat="40.93684228346708" lon="9.122453995714178"><ele>475.0</ele><time>2026-05-02T11:10:24Z</time></trkpt><trkpt lat="40.93676238632646" lon="9.122451972025095"><ele>475.0</ele><time>2026-05-02T11:10:25Z</time></trkpt><trkpt lat="40.936699233441686" lon="9.122457401934629"><ele>475.00000000000006</ele><time>2026-05-02T11:10:26Z</time></trkpt><trkpt lat="40.93662491081479" lon="9.122451636319433"><ele>475.0</ele><time>2026-05-02T11:10:27Z</time></trkpt><trkpt lat="40.936552148001056" lon="9.1224801157633"><ele>474.6</ele><time>2026-05-02T11:10:28Z</time></trkpt><trkpt lat="40.93650187607542" lon="9.12256461255272"><ele>474.2</ele><time>2026-05-02T11:10:29Z</time></trkpt><trkpt lat="40.93646013071822" lon="9.122642129424086"><ele>473.79999999999995</ele><time>2026-05-02T11:10:30Z</time></trkpt><trkpt lat="40.936408129235986" lon="9.12279019267098"><ele>473.4</ele><time>2026-05-02T11:10:31Z</time></trkpt><trkpt lat="40.93632999756054" lon="9.122857106822451"><ele>473.0</ele><time>2026-05-02T11:10:32Z</time></trkpt><trkpt lat="40.936249047785466" lon="9.122889571037547"><ele>472.99999999999994</ele><time>2026-05-02T11:10:33Z</time></trkpt><trkpt lat="40.93617374737774" lon="9.122885826379838"><ele>473.0</ele><time>2026-05-02T11:10:34Z</time></trkpt><trkpt lat="40.936118086734616" lon="9.12283987897837"><ele>473.0</ele><time>2026-05-02T11:10:35Z</time></trkpt><trkpt lat="40.93607061280016" lon="9.122753427059065"><ele>473.0</ele><time>2026-05-02T11:10:36Z</time></trkpt><trkpt lat="40.93602065019592" lon="9.122636045910694"><ele>472.99999999999994</ele><time>2026-05-02T11:10:37Z</time></trkpt><trkpt lat="40.93595439041749" lon="9.122529187064087"><ele>473.0</ele><time>2026-05-02T11:10:38Z</time></trkpt><trkpt lat="40.93586032155" lon="9.122460805292285"><ele>472.59999999999997</ele><time>2026-05-02T11:10:39Z</time></trkpt><trkpt lat="40.93575921674004" lon="9.1224173343384"><ele>472.19999999999993</ele><time>2026-05-02T11:10:40Z</time></trkpt><trkpt lat="40.93566478932292" lon="9.122399644524872"><ele>471.8</ele><time>2026-05-02T11:10:41Z</time></trkpt><trkpt lat="40.9355680520061" lon="9.122380982959761"><ele>471.4</ele><time>2026-05-02T11:10:42Z</time></trkpt><trkpt lat="40.93547040206156" lon="9.122367097451741"><ele>471.0</ele><time>2026-05-02T11:10:43Z</time></trkpt><trkpt lat="40.93537581063028" lon="9.122338548041224"><ele>471.8333333333333</ele><time>2026-05-02T11:10:44Z</time></trkpt><trkpt lat="40.93528865806158" lon="9.122307828721773"><ele>472.66666666666663</ele><time>2026-05-02T11:10:45Z</time></trkpt><trkpt lat="40.935204313665984" lon="9.122292856451422"><ele>473.5</ele><time>2026-05-02T11:10:46Z</time></trkpt><trkpt lat="40.93513298363163" lon="9.122285809213267"><ele>474.3333333333333</ele><time>2026-05-02T11:10:47Z</time></trkpt><trkpt lat="40.93505538713921" lon="9.122294228143438"><ele>475.16666666666663</ele><time>2026-05-02T11:10:48Z</time></trkpt><trkpt lat="40.93498000373004" lon="9.122301093155592"><ele>476.0</ele><time>2026-05-02T11:10:49Z</time></trkpt><trkpt lat="40.934905655494276" lon="9.122326546781077"><ele>476.0</ele><time>2026-05-02T11:10:50Z</time></trkpt><trkpt lat="40.93482368544823" lon="9.122352261500893"><ele>476.0</ele><time>2026-05-02T11:10:51Z</time></trkpt><trkpt lat="40.93473345969267" lon="9.122372735975825"><ele>476.0</ele><time>2026-05-02T11:10:52Z</time></trkpt><trkpt lat="40.93463221183455" lon="9.122370345147216"><ele>476.0</ele><time>2026-05-02T11:10:53Z</time></trkpt><trkpt lat="40.93451357109335" lon="9.122339332391581"><ele>476.0</ele><time>2026-05-02T11:10:54Z</time></trkpt><trkpt lat="40.93439428163056" lon="9.122294527665954"><ele>476.0</ele><time>2026-05-02T11:10:55Z</time></trkpt><trkpt lat="40.93427085880796" lon="9.122254341295564"><ele>476.0</ele><time>2026-05-02T11:10:56Z</time></trkpt><trkpt lat="40.93414772200934" lon="9.122228758605319"><ele>476.0</ele><time>2026-05-02T11:10:57Z</time></trkpt><trkpt lat="40.93402312386263" lon="9.122199054016658"><ele>476.0</ele><time>2026-05-02T11:10:58Z</time></trkpt><trkpt lat="40.933883664190176" lon="9.122160881131611"><ele>474.75</ele><time>2026-05-02T11:10:59Z</time></trkpt><trkpt lat="40.93375444394839" lon="9.122126089460037"><ele>473.5</ele><time>2026-05-02T11:11:00Z</time></trkpt><trkpt lat="40.9336378584281" lon="9.122092198456865"><ele>472.25</ele><time>2026-05-02T11:11:01Z</time></trkpt><trkpt lat="40.93352616970093" lon="9.122054439884712"><ele>471.0</ele><time>2026-05-02T11:11:02Z</time></trkpt><trkpt lat="40.933410077994814" lon="9.122002823503452"><ele>470.8</ele><time>2026-05-02T11:11:03Z</time></trkpt><trkpt lat="40.93330239198406" lon="9.121941451794655"><ele>470.6</ele><time>2026-05-02T11:11:03.999Z</time></trkpt><trkpt lat="40.93321060570229" lon="9.121896579974477"><ele>470.4</ele><time>2026-05-02T11:11:04.999Z</time></trkpt><trkpt lat="40.933119554503406" lon="9.121877999400468"><ele>470.2</ele><time>2026-05-02T11:11:05.999Z</time></trkpt><trkpt lat="40.93302154131213" lon="9.12188214480353"><ele>470.0</ele><time>2026-05-02T11:11:06.999Z</time></trkpt><trkpt lat="40.932925100387614" lon="9.12190915037478"><ele>470.0</ele><time>2026-05-02T11:11:07.999Z</time></trkpt><trkpt lat="40.9328332173946" lon="9.121928242697981"><ele>470.0</ele><time>2026-05-02T11:11:08.999Z</time></trkpt><trkpt lat="40.93276926419257" lon="9.121884818317866"><ele>470.0</ele><time>2026-05-02T11:11:09.999Z</time></trkpt><trkpt lat="40.93267875085431" lon="9.12183695655641"><ele>470.0</ele><time>2026-05-02T11:11:10.999Z</time></trkpt><trkpt lat="40.93255940462357" lon="9.121774305298677"><ele>470.0</ele><time>2026-05-02T11:11:11.999Z</time></trkpt><trkpt lat="40.932433933971105" lon="9.121717014449844"><ele>471.6</ele><time>2026-05-02T11:11:12.999Z</time></trkpt><trkpt lat="40.93234276623208" lon="9.121666959896721"><ele>473.2</ele><time>2026-05-02T11:11:13.999Z</time></trkpt><trkpt lat="40.93224935013804" lon="9.121640567735703"><ele>474.79999999999995</ele><time>2026-05-02T11:11:14.999Z</time></trkpt><trkpt lat="40.93218036690518" lon="9.121688433197328"><ele>476.4</ele><time>2026-05-02T11:11:15.999Z</time></trkpt><trkpt lat="40.93209717787679" lon="9.121718455427052"><ele>478.0</ele><time>2026-05-02T11:11:16.999Z</time></trkpt><trkpt lat="40.931997857656924" lon="9.121728652375085"><ele>478.0</ele><time>2026-05-02T11:11:17.999Z</time></trkpt><trkpt lat="40.931907969984216" lon="9.121718333457775"><ele>478.0</ele><time>2026-05-02T11:11:18.999Z</time></trkpt><trkpt lat="40.93179549425497" lon="9.121665206050073"><ele>478.0</ele><time>2026-05-02T11:11:19.999Z</time></trkpt><trkpt lat="40.93168666870459" lon="9.121619951270759"><ele>478.0</ele><time>2026-05-02T11:11:20.999Z</time></trkpt><trkpt lat="40.931559447121444" lon="9.121562419496398"><ele>479.25</ele><time>2026-05-02T11:11:21.999Z</time></trkpt><trkpt lat="40.93145711651541" lon="9.121484491688687"><ele>480.5</ele><time>2026-05-02T11:11:22.999Z</time></trkpt><trkpt lat="40.9313562196076" lon="9.121413651599054"><ele>481.75</ele><time>2026-05-02T11:11:23.999Z</time></trkpt><trkpt lat="40.93125564261133" lon="9.12133332509253"><ele>483.0</ele><time>2026-05-02T11:11:24.999Z</time></trkpt><trkpt lat="40.93115525415324" lon="9.12123571391873"><ele>483.0</ele><time>2026-05-02T11:11:25.999Z</time></trkpt><trkpt lat="40.93105597876324" lon="9.12112832441676"><ele>483.0</ele><time>2026-05-02T11:11:26.999Z</time></trkpt><trkpt lat="40.930950268236124" lon="9.121019045935252"><ele>483.0</ele><time>2026-05-02T11:11:27.999Z</time></trkpt><trkpt lat="40.930854603615415" lon="9.120869883618633"><ele>483.0</ele><time>2026-05-02T11:11:28.999Z</time></trkpt><trkpt lat="40.93076526302812" lon="9.120767242583389"><ele>483.75</ele><time>2026-05-02T11:11:29.999Z</time></trkpt><trkpt lat="40.93067700897857" lon="9.120665364748232"><ele>484.5</ele><time>2026-05-02T11:11:30.999Z</time></trkpt><trkpt lat="40.9305832421469" lon="9.120591218120515"><ele>485.25</ele><time>2026-05-02T11:11:31.999Z</time></trkpt><trkpt lat="40.93047336264009" lon="9.120520868062325"><ele>486.0</ele><time>2026-05-02T11:11:32.999Z</time></trkpt><trkpt lat="40.9303644206494" lon="9.120472962740196"><ele>486.0</ele><time>2026-05-02T11:11:33.999Z</time></trkpt><trkpt lat="40.93026761142088" lon="9.120421224479907"><ele>486.0</ele><time>2026-05-02T11:11:34.999Z</time></trkpt><trkpt lat="40.930161785115715" lon="9.120395134521925"><ele>486.0</ele><time>2026-05-02T11:11:35.999Z</time></trkpt><trkpt lat="40.93004625797904" lon="9.12038474393793"><ele>486.0</ele><time>2026-05-02T11:11:36.999Z</time></trkpt><trkpt lat="40.92992535745304" lon="9.120375111387037"><ele>486.0</ele><time>2026-05-02T11:11:37.999Z</time></trkpt><trkpt lat="40.929804645701" lon="9.120353068494511"><ele>487.0</ele><time>2026-05-02T11:11:38.999Z</time></trkpt><trkpt lat="40.92965396496686" lon="9.12034089891672"><ele>488.0</ele><time>2026-05-02T11:11:39.999Z</time></trkpt><trkpt lat="40.929526839818664" lon="9.12028690849008"><ele>489.0</ele><time>2026-05-02T11:11:40.999Z</time></trkpt><trkpt lat="40.92939717123973" lon="9.120248337029782"><ele>490.0</ele><time>2026-05-02T11:11:41.999Z</time></trkpt><trkpt lat="40.92928161468613" lon="9.120205011366"><ele>491.8</ele><time>2026-05-02T11:11:42.999Z</time></trkpt><trkpt lat="40.92917886924703" lon="9.120183367726984"><ele>493.6</ele><time>2026-05-02T11:11:43.999Z</time></trkpt><trkpt lat="40.929088881772174" lon="9.120204588970202"><ele>495.4</ele><time>2026-05-02T11:11:44.999Z</time></trkpt><trkpt lat="40.92900004174652" lon="9.120229522410082"><ele>497.2</ele><time>2026-05-02T11:11:45.999Z</time></trkpt><trkpt lat="40.92891582494651" lon="9.120267494397831"><ele>499.0</ele><time>2026-05-02T11:11:46.999Z</time></trkpt><trkpt lat="40.928823594422845" lon="9.120298186751523"><ele>499.0</ele><time>2026-05-02T11:11:47.999Z</time></trkpt><trkpt lat="40.92870552682043" lon="9.120318443126212"><ele>499.0</ele><time>2026-05-02T11:11:48.999Z</time></trkpt><trkpt lat="40.92857678699437" lon="9.120321417616122"><ele>499.0</ele><time>2026-05-02T11:11:49.999Z</time></trkpt><trkpt lat="40.928453629083144" lon="9.120334384327366"><ele>499.0</ele><time>2026-05-02T11:11:50.999Z</time></trkpt><trkpt lat="40.9283355301906" lon="9.120338040499345"><ele>500.6</ele><time>2026-05-02T11:11:51.999Z</time></trkpt><trkpt lat="40.92820913817422" lon="9.120347630824444"><ele>502.2</ele><time>2026-05-02T11:11:52.999Z</time></trkpt><trkpt lat="40.928088879594554" lon="9.120347820412178"><ele>503.80000000000007</ele><time>2026-05-02T11:11:53.999Z</time></trkpt><trkpt lat="40.927985707155585" lon="9.120346636067582"><ele>505.40000000000003</ele><time>2026-05-02T11:11:54.999Z</time></trkpt><trkpt lat="40.9278931730172" lon="9.120343026313872"><ele>507.0</ele><time>2026-05-02T11:11:55.999Z</time></trkpt><trkpt lat="40.92779922541839" lon="9.120330602298132"><ele>507.0</ele><time>2026-05-02T11:11:56.999Z</time></trkpt><trkpt lat="40.927693742459844" lon="9.120331210513138"><ele>507.00000000000006</ele><time>2026-05-02T11:11:57.999Z</time></trkpt><trkpt lat="40.927579993716655" lon="9.120330205747317"><ele>507.00000000000006</ele><time>2026-05-02T11:11:58.999Z</time></trkpt><trkpt lat="40.92746937627424" lon="9.120332661806172"><ele>507.0</ele><time>2026-05-02T11:11:59.999Z</time></trkpt><trkpt lat="40.92737467084166" lon="9.120341006296888"><ele>507.0</ele><time>2026-05-02T11:12:00.999Z</time></trkpt><trkpt lat="40.92729153167935" lon="9.120350961678792"><ele>507.2857142857143</ele><time>2026-05-02T11:12:01.999Z</time></trkpt><trkpt lat="40.92720621732847" lon="9.120350257510502"><ele>507.57142857142856</ele><time>2026-05-02T11:12:02.999Z</time></trkpt><trkpt lat="40.92712420185745" lon="9.120331642986239"><ele>507.85714285714283</ele><time>2026-05-02T11:12:03.999Z</time></trkpt><trkpt lat="40.927056213511" lon="9.120296561460336"><ele>508.1428571428571</ele><time>2026-05-02T11:12:04.999Z</time></trkpt><trkpt lat="40.92700488996192" lon="9.12024014401503"><ele>508.42857142857144</ele><time>2026-05-02T11:12:06.999Z</time></trkpt><trkpt lat="40.926933073952476" lon="9.120271701021187"><ele>508.71428571428567</ele><time>2026-05-02T11:12:11.999Z</time></trkpt><trkpt lat="40.92690016921359" lon="9.12034578525963"><ele>508.99999999999994</ele><time>2026-05-02T11:12:13.999Z</time></trkpt><trkpt lat="40.92682483862736" lon="9.12036798533247"><ele>509.0</ele><time>2026-05-02T11:12:16.999Z</time></trkpt><trkpt lat="40.92675829220785" lon="9.120349502836982"><ele>509.0</ele><time>2026-05-02T11:12:17.999Z</time></trkpt><trkpt lat="40.926637145291714" lon="9.120404359939826"><ele>509.0</ele><time>2026-05-02T11:12:19.999Z</time></trkpt><trkpt lat="40.92655254658455" lon="9.120430629760115"><ele>509.0</ele><time>2026-05-02T11:12:20.999Z</time></trkpt><trkpt lat="40.92645881512006" lon="9.120456118803455"><ele>509.0</ele><time>2026-05-02T11:12:21.999Z</time></trkpt><trkpt lat="40.926377377343606" lon="9.120484416885123"><ele>507.99999999999994</ele><time>2026-05-02T11:12:22.999Z</time></trkpt><trkpt lat="40.92628323020928" lon="9.12051308549845"><ele>507.0</ele><time>2026-05-02T11:12:23.999Z</time></trkpt><trkpt lat="40.92620134757463" lon="9.120543240726105"><ele>506.0</ele><time>2026-05-02T11:12:24.999Z</time></trkpt><trkpt lat="40.92612406323946" lon="9.120581036890087"><ele>505.0</ele><time>2026-05-02T11:12:25.999Z</time></trkpt><trkpt lat="40.926037835850146" lon="9.120622171180546"><ele>503.99999999999994</ele><time>2026-05-02T11:12:27Z</time></trkpt><trkpt lat="40.925960884729875" lon="9.120642450017016"><ele>503.0</ele><time>2026-05-02T11:12:28Z</time></trkpt><trkpt lat="40.925873121747394" lon="9.120656325126113"><ele>502.79999999999995</ele><time>2026-05-02T11:12:29Z</time></trkpt><trkpt lat="40.925784828203355" lon="9.120682279348394"><ele>502.59999999999997</ele><time>2026-05-02T11:12:30Z</time></trkpt><trkpt lat="40.92570423644396" lon="9.120714588912778"><ele>502.40000000000003</ele><time>2026-05-02T11:12:31Z</time></trkpt><trkpt lat="40.92561174499648" lon="9.12075143182417"><ele>502.20000000000005</ele><time>2026-05-02T11:12:32Z</time></trkpt><trkpt lat="40.92552027621781" lon="9.120781523965071"><ele>502.0</ele><time>2026-05-02T11:12:33Z</time></trkpt><trkpt lat="40.925427199568986" lon="9.120811233005211"><ele>502.0</ele><time>2026-05-02T11:12:34Z</time></trkpt><trkpt lat="40.925325926285964" lon="9.120837903379144"><ele>502.00000000000006</ele><time>2026-05-02T11:12:35Z</time></trkpt><trkpt lat="40.92521677158992" lon="9.12085597717672"><ele>502.00000000000006</ele><time>2026-05-02T11:12:36Z</time></trkpt><trkpt lat="40.92510088354244" lon="9.120885411750486"><ele>502.0</ele><time>2026-05-02T11:12:37Z</time></trkpt><trkpt lat="40.92498434093703" lon="9.120910547546828"><ele>502.0</ele><time>2026-05-02T11:12:38Z</time></trkpt><trkpt lat="40.92486628738911" lon="9.120952591244272"><ele>500.6</ele><time>2026-05-02T11:12:39Z</time></trkpt><trkpt lat="40.924756671097654" lon="9.12099600419716"><ele>499.20000000000005</ele><time>2026-05-02T11:12:40Z</time></trkpt><trkpt lat="40.92465058384099" lon="9.121038397507858"><ele>497.8</ele><time>2026-05-02T11:12:41Z</time></trkpt><trkpt lat="40.92455733790479" lon="9.121102454616226"><ele>496.4</ele><time>2026-05-02T11:12:42Z</time></trkpt><trkpt lat="40.92450172836736" lon="9.121163615637975"><ele>495.0</ele><time>2026-05-02T11:12:43Z</time></trkpt><trkpt lat="40.92445255982664" lon="9.121240779662013"><ele>495.0</ele><time>2026-05-02T11:12:44Z</time></trkpt><trkpt lat="40.92438695889196" lon="9.121290085731987"><ele>495.0</ele><time>2026-05-02T11:12:46Z</time></trkpt><trkpt lat="40.92428179748906" lon="9.121180613693454"><ele>495.0</ele><time>2026-05-02T11:12:48Z</time></trkpt><trkpt lat="40.9241890894462" lon="9.121098344307725"><ele>495.0</ele><time>2026-05-02T11:12:49Z</time></trkpt><trkpt lat="40.92405332084985" lon="9.121026830845343"><ele>493.5</ele><time>2026-05-02T11:12:50Z</time></trkpt><trkpt lat="40.92392511636643" lon="9.120943524690103"><ele>492.0</ele><time>2026-05-02T11:12:51Z</time></trkpt><trkpt lat="40.92378967621264" lon="9.12086235333653"><ele>490.5</ele><time>2026-05-02T11:12:52Z</time></trkpt><trkpt lat="40.92365382702" lon="9.120788885674704"><ele>489.0</ele><time>2026-05-02T11:12:53Z</time></trkpt><trkpt lat="40.92354141697777" lon="9.12073148900614"><ele>487.79999999999995</ele><time>2026-05-02T11:12:54Z</time></trkpt><trkpt lat="40.923422066842534" lon="9.120680124619664"><ele>486.59999999999997</ele><time>2026-05-02T11:12:55Z</time></trkpt><trkpt lat="40.923327262129" lon="9.120645571430899"><ele>485.4</ele><time>2026-05-02T11:12:56Z</time></trkpt><trkpt lat="40.923236949281026" lon="9.120598932607791"><ele>484.2</ele><time>2026-05-02T11:12:57Z</time></trkpt><trkpt lat="40.92312944140954" lon="9.120566710304903"><ele>483.0</ele><time>2026-05-02T11:12:58Z</time></trkpt><trkpt lat="40.923044427606186" lon="9.120510798513987"><ele>485.0</ele><time>2026-05-02T11:12:59Z</time></trkpt><trkpt lat="40.92296849833132" lon="9.12050135938676"><ele>487.0</ele><time>2026-05-02T11:13:00Z</time></trkpt><trkpt lat="40.92293895663166" lon="9.120369901218094"><ele>489.0</ele><time>2026-05-02T11:13:02Z</time></trkpt><trkpt lat="40.9228994043968" lon="9.12028818829175"><ele>491.0</ele><time>2026-05-02T11:13:03Z</time></trkpt><trkpt lat="40.92284380901581" lon="9.120218294774212"><ele>493.0</ele><time>2026-05-02T11:13:04Z</time></trkpt><trkpt lat="40.92277779046657" lon="9.120196951577745"><ele>495.0</ele><time>2026-05-02T11:13:05Z</time></trkpt><trkpt lat="40.92261389870007" lon="9.12012100696834"><ele>495.2</ele><time>2026-05-02T11:13:06.999Z</time></trkpt><trkpt lat="40.92248329345192" lon="9.120079255774815"><ele>495.4</ele><time>2026-05-02T11:13:07.999Z</time></trkpt><trkpt lat="40.92238510947498" lon="9.120039090625559"><ele>495.6</ele><time>2026-05-02T11:13:08.999Z</time></trkpt><trkpt lat="40.92230154362872" lon="9.11998286176311"><ele>495.8</ele><time>2026-05-02T11:13:09.999Z</time></trkpt><trkpt lat="40.922227957150355" lon="9.11994233465903"><ele>496.0</ele><time>2026-05-02T11:13:10.999Z</time></trkpt><trkpt lat="40.92216963131936" lon="9.119870598380531"><ele>496.00000000000006</ele><time>2026-05-02T11:13:11.999Z</time></trkpt><trkpt lat="40.92212878440486" lon="9.119802883755135"><ele>496.0</ele><time>2026-05-02T11:13:12.999Z</time></trkpt><trkpt lat="40.92208353996979" lon="9.11973253857396"><ele>496.0</ele><time>2026-05-02T11:13:13.999Z</time></trkpt><trkpt lat="40.922021130460706" lon="9.119662038461001"><ele>496.0</ele><time>2026-05-02T11:13:14.999Z</time></trkpt><trkpt lat="40.92195404931494" lon="9.119605183532906"><ele>496.00000000000006</ele><time>2026-05-02T11:13:15.999Z</time></trkpt><trkpt lat="40.92187699810832" lon="9.11955992336766"><ele>496.0</ele><time>2026-05-02T11:13:16.999Z</time></trkpt><trkpt lat="40.92179232457009" lon="9.119544519241176"><ele>497.8</ele><time>2026-05-02T11:13:17.999Z</time></trkpt><trkpt lat="40.921712856006906" lon="9.11957072866874"><ele>499.6</ele><time>2026-05-02T11:13:18.999Z</time></trkpt><trkpt lat="40.92163166567192" lon="9.119599744950259"><ele>501.4</ele><time>2026-05-02T11:13:19.999Z</time></trkpt><trkpt lat="40.92155131221424" lon="9.119630333105631"><ele>503.2</ele><time>2026-05-02T11:13:20.999Z</time></trkpt><trkpt lat="40.921458222036684" lon="9.119687827365064"><ele>505.0</ele><time>2026-05-02T11:13:21.999Z</time></trkpt><trkpt lat="40.92135513150206" lon="9.119752635039932"><ele>505.0</ele><time>2026-05-02T11:13:22.999Z</time></trkpt><trkpt lat="40.92126034714841" lon="9.11982046706909"><ele>505.0</ele><time>2026-05-02T11:13:23.999Z</time></trkpt><trkpt lat="40.92116216373944" lon="9.119893709243437"><ele>505.0</ele><time>2026-05-02T11:13:24.999Z</time></trkpt><trkpt lat="40.92105886437873" lon="9.119978417393432"><ele>505.0</ele><time>2026-05-02T11:13:25.999Z</time></trkpt><trkpt lat="40.92096112890875" lon="9.120086509610799"><ele>506.2</ele><time>2026-05-02T11:13:26.999Z</time></trkpt><trkpt lat="40.92087088512376" lon="9.120176022763394"><ele>507.4</ele><time>2026-05-02T11:13:27.999Z</time></trkpt><trkpt lat="40.9208036735298" lon="9.120290166819677"><ele>508.6</ele><time>2026-05-02T11:13:28.999Z</time></trkpt><trkpt lat="40.920744553535094" lon="9.120368403428678"><ele>509.8</ele><time>2026-05-02T11:13:29.999Z</time></trkpt><trkpt lat="40.92070279454308" lon="9.120436907566909"><ele>511.0</ele><time>2026-05-02T11:13:30.999Z</time></trkpt><trkpt lat="40.92065323480698" lon="9.120532660308555"><ele>511.00000000000006</ele><time>2026-05-02T11:13:31.999Z</time></trkpt><trkpt lat="40.92059563272683" lon="9.120654736389131"><ele>511.0</ele><time>2026-05-02T11:13:32.999Z</time></trkpt><trkpt lat="40.92055810835732" lon="9.12077391731215"><ele>511.0</ele><time>2026-05-02T11:13:33.999Z</time></trkpt><trkpt lat="40.92052445194246" lon="9.120867052909453"><ele>511.0</ele><time>2026-05-02T11:13:34.999Z</time></trkpt><trkpt lat="40.920471658032625" lon="9.120965020142807"><ele>511.00000000000006</ele><time>2026-05-02T11:13:35.999Z</time></trkpt><trkpt lat="40.92042478403008" lon="9.121033209589772"><ele>511.0</ele><time>2026-05-02T11:13:36.999Z</time></trkpt><trkpt lat="40.9203558772566" lon="9.121068801899682"><ele>511.4</ele><time>2026-05-02T11:13:37.999Z</time></trkpt><trkpt lat="40.92028202934519" lon="9.121145429378425"><ele>511.8</ele><time>2026-05-02T11:13:38.999Z</time></trkpt><trkpt lat="40.9201938760373" lon="9.121090003732254"><ele>512.1999999999999</ele><time>2026-05-02T11:13:39.999Z</time></trkpt><trkpt lat="40.92010551659667" lon="9.121067395156109"><ele>512.6</ele><time>2026-05-02T11:13:40.999Z</time></trkpt><trkpt lat="40.91997648117574" lon="9.121051290741379"><ele>513.0</ele><time>2026-05-02T11:13:41.999Z</time></trkpt><trkpt lat="40.919819208335795" lon="9.121035547805418"><ele>512.0</ele><time>2026-05-02T11:13:42.999Z</time></trkpt><trkpt lat="40.91968536459928" lon="9.121047391164016"><ele>511.0</ele><time>2026-05-02T11:13:43.999Z</time></trkpt><trkpt lat="40.91957703832809" lon="9.12103949099739"><ele>510.0</ele><time>2026-05-02T11:13:44.999Z</time></trkpt><trkpt lat="40.91947124533498" lon="9.121032957855821"><ele>509.0</ele><time>2026-05-02T11:13:45.999Z</time></trkpt><trkpt lat="40.9193479559763" lon="9.121049235890846"><ele>508.79999999999995</ele><time>2026-05-02T11:13:46.999Z</time></trkpt><trkpt lat="40.91921291112934" lon="9.121082855552144"><ele>508.59999999999997</ele><time>2026-05-02T11:13:47.999Z</time></trkpt><trkpt lat="40.91910716829715" lon="9.12113283968401"><ele>508.4</ele><time>2026-05-02T11:13:48.999Z</time></trkpt><trkpt lat="40.9190140319038" lon="9.121160506547323"><ele>508.2</ele><time>2026-05-02T11:13:49.999Z</time></trkpt><trkpt lat="40.91892301122589" lon="9.121179979100557"><ele>508.0</ele><time>2026-05-02T11:13:50.999Z</time></trkpt><trkpt lat="40.918834788168866" lon="9.12118388272937"><ele>508.0</ele><time>2026-05-02T11:13:51.999Z</time></trkpt><trkpt lat="40.918755277111956" lon="9.121187404437316"><ele>507.99999999999994</ele><time>2026-05-02T11:13:52.999Z</time></trkpt><trkpt lat="40.91868753585664" lon="9.121232294363015"><ele>507.99999999999994</ele><time>2026-05-02T11:13:53.999Z</time></trkpt><trkpt lat="40.91862197429814" lon="9.121314463184008"><ele>508.0</ele><time>2026-05-02T11:13:54.999Z</time></trkpt><trkpt lat="40.91855099843928" lon="9.121381562583974"><ele>508.0</ele><time>2026-05-02T11:13:55.999Z</time></trkpt><trkpt lat="40.91850902071503" lon="9.1215282728996"><ele>507.79999999999995</ele><time>2026-05-02T11:13:57.999Z</time></trkpt><trkpt lat="40.91841746723969" lon="9.12163371383549"><ele>507.59999999999997</ele><time>2026-05-02T11:13:59.999Z</time></trkpt><trkpt lat="40.91831633338243" lon="9.121608005033952"><ele>507.40000000000003</ele><time>2026-05-02T11:14:00.999Z</time></trkpt><trkpt lat="40.91822447816415" lon="9.121656924463434"><ele>507.20000000000005</ele><time>2026-05-02T11:14:01.999Z</time></trkpt><trkpt lat="40.91813729217664" lon="9.121691044200485"><ele>507.0</ele><time>2026-05-02T11:14:02.999Z</time></trkpt><trkpt lat="40.91804654419823" lon="9.121742403289293"><ele>505.20000000000005</ele><time>2026-05-02T11:14:03.999Z</time></trkpt><trkpt lat="40.9179516253252" lon="9.121758562120416"><ele>503.40000000000003</ele><time>2026-05-02T11:14:04.999Z</time></trkpt><trkpt lat="40.917855023293406" lon="9.1217759512469"><ele>501.59999999999997</ele><time>2026-05-02T11:14:05.999Z</time></trkpt><trkpt lat="40.91775269878458" lon="9.12178145624741"><ele>499.79999999999995</ele><time>2026-05-02T11:14:06.999Z</time></trkpt><trkpt lat="40.917651361541935" lon="9.121785926921"><ele>498.0</ele><time>2026-05-02T11:14:07.999Z</time></trkpt><trkpt lat="40.91754101312016" lon="9.121794575038933"><ele>496.79999999999995</ele><time>2026-05-02T11:14:08.999Z</time></trkpt><trkpt lat="40.917433008507544" lon="9.12179438473608"><ele>495.59999999999997</ele><time>2026-05-02T11:14:09.999Z</time></trkpt><trkpt lat="40.9173326731403" lon="9.121794982135324"><ele>494.40000000000003</ele><time>2026-05-02T11:14:10.999Z</time></trkpt><trkpt lat="40.91723779205902" lon="9.121788573735119"><ele>493.20000000000005</ele><time>2026-05-02T11:14:11.999Z</time></trkpt><trkpt lat="40.91714322626759" lon="9.12178911530381"><ele>492.0</ele><time>2026-05-02T11:14:12.999Z</time></trkpt><trkpt lat="40.91703606485229" lon="9.121784985632564"><ele>492.0</ele><time>2026-05-02T11:14:13.999Z</time></trkpt><trkpt lat="40.91693037710219" lon="9.121775313882692"><ele>492.00000000000006</ele><time>2026-05-02T11:14:14.999Z</time></trkpt><trkpt lat="40.91682633151864" lon="9.12175738489196"><ele>492.00000000000006</ele><time>2026-05-02T11:14:15.999Z</time></trkpt><trkpt lat="40.91672770583087" lon="9.12173298844598"><ele>492.0</ele><time>2026-05-02T11:14:16.999Z</time></trkpt><trkpt lat="40.91662448357325" lon="9.121699311917025"><ele>492.0</ele><time>2026-05-02T11:14:17.999Z</time></trkpt><trkpt lat="40.91652032710412" lon="9.121662614648212"><ele>492.20000000000005</ele><time>2026-05-02T11:14:18.999Z</time></trkpt><trkpt lat="40.91642072843786" lon="9.121621738002121"><ele>492.40000000000003</ele><time>2026-05-02T11:14:19.999Z</time></trkpt><trkpt lat="40.91631922474866" lon="9.121594522191144"><ele>492.59999999999997</ele><time>2026-05-02T11:14:20.999Z</time></trkpt><trkpt lat="40.91622277984476" lon="9.121543487401915"><ele>492.79999999999995</ele><time>2026-05-02T11:14:21.999Z</time></trkpt><trkpt lat="40.91612504251163" lon="9.12150127521919"><ele>493.0</ele><time>2026-05-02T11:14:22.999Z</time></trkpt><trkpt lat="40.91602351198945" lon="9.121462152606775"><ele>493.0</ele><time>2026-05-02T11:14:23.999Z</time></trkpt><trkpt lat="40.91592403199415" lon="9.121427646219807"><ele>492.99999999999994</ele><time>2026-05-02T11:14:24.999Z</time></trkpt><trkpt lat="40.9158365415738" lon="9.121423363818035"><ele>492.99999999999994</ele><time>2026-05-02T11:14:25.999Z</time></trkpt><trkpt lat="40.91572972012643" lon="9.121389488301281"><ele>493.0</ele><time>2026-05-02T11:14:27.999Z</time></trkpt><trkpt lat="40.915687808282215" lon="9.121287410879905"><ele>493.0</ele><time>2026-05-02T11:14:28.999Z</time></trkpt><trkpt lat="40.915597588964374" lon="9.12124163653731"><ele>494.0</ele><time>2026-05-02T11:14:29.999Z</time></trkpt><trkpt lat="40.91551024364309" lon="9.121166708596219"><ele>494.99999999999994</ele><time>2026-05-02T11:14:30.999Z</time></trkpt><trkpt lat="40.91544513851887" lon="9.121081277411076"><ele>495.99999999999994</ele><time>2026-05-02T11:14:31.999Z</time></trkpt><trkpt lat="40.9153882253084" lon="9.120967360895492"><ele>497.0</ele><time>2026-05-02T11:14:33Z</time></trkpt><trkpt lat="40.91534734581474" lon="9.12087645122071"><ele>498.0</ele><time>2026-05-02T11:14:34Z</time></trkpt><trkpt lat="40.91531332304366" lon="9.120779892605347"><ele>497.59999999999997</ele><time>2026-05-02T11:14:35Z</time></trkpt><trkpt lat="40.91527621746588" lon="9.120679438677943"><ele>497.19999999999993</ele><time>2026-05-02T11:14:36Z</time></trkpt><trkpt lat="40.91523022966041" lon="9.120587753555993"><ele>496.8</ele><time>2026-05-02T11:14:37Z</time></trkpt><trkpt lat="40.91519095506539" lon="9.120499142682496"><ele>496.4</ele><time>2026-05-02T11:14:38Z</time></trkpt><trkpt lat="40.915126503667956" lon="9.120351845363802"><ele>496.0</ele><time>2026-05-02T11:14:40Z</time></trkpt><trkpt lat="40.91506252895891" lon="9.120282332608516"><ele>495.75</ele><time>2026-05-02T11:14:41Z</time></trkpt><trkpt lat="40.91500279208359" lon="9.12019495221344"><ele>495.5</ele><time>2026-05-02T11:14:42Z</time></trkpt><trkpt lat="40.91491313334214" lon="9.120076414979323"><ele>495.25</ele><time>2026-05-02T11:14:43Z</time></trkpt><trkpt lat="40.91481953776788" lon="9.119967976959499"><ele>495.0</ele><time>2026-05-02T11:14:44Z</time></trkpt><trkpt lat="40.914709783696" lon="9.119891583085913"><ele>493.25</ele><time>2026-05-02T11:14:45Z</time></trkpt><trkpt lat="40.91461407978987" lon="9.11982231796159"><ele>491.5</ele><time>2026-05-02T11:14:46Z</time></trkpt><trkpt lat="40.914544707349" lon="9.119691139200226"><ele>489.75</ele><time>2026-05-02T11:14:47Z</time></trkpt><trkpt lat="40.91446325894926" lon="9.119567768497172"><ele>488.0</ele><time>2026-05-02T11:14:48Z</time></trkpt><trkpt lat="40.914361714908054" lon="9.119447485693136"><ele>488.0</ele><time>2026-05-02T11:14:49Z</time></trkpt><trkpt lat="40.91428638176271" lon="9.119330206078214"><ele>487.99999999999994</ele><time>2026-05-02T11:14:50Z</time></trkpt><trkpt lat="40.914215986593504" lon="9.119224590594694"><ele>487.99999999999994</ele><time>2026-05-02T11:14:51Z</time></trkpt><trkpt lat="40.91414796947148" lon="9.11912552240477"><ele>488.0</ele><time>2026-05-02T11:14:52Z</time></trkpt><trkpt lat="40.91406526332666" lon="9.119044597550864"><ele>488.0</ele><time>2026-05-02T11:14:53Z</time></trkpt><trkpt lat="40.91396127403039" lon="9.118994008378353"><ele>484.99999999999994</ele><time>2026-05-02T11:14:54Z</time></trkpt><trkpt lat="40.91386094769097" lon="9.119008865851745"><ele>482.0</ele><time>2026-05-02T11:14:55Z</time></trkpt><trkpt lat="40.91376926493328" lon="9.118989160891356"><ele>479.0</ele><time>2026-05-02T11:14:56Z</time></trkpt><trkpt lat="40.91368034627696" lon="9.119012925275472"><ele>476.0</ele><time>2026-05-02T11:14:57Z</time></trkpt><trkpt lat="40.91360942865983" lon="9.118988111354525"><ele>472.99999999999994</ele><time>2026-05-02T11:14:58Z</time></trkpt><trkpt lat="40.91356260473768" lon="9.118902907205486"><ele>470.0</ele><time>2026-05-02T11:14:59Z</time></trkpt><trkpt lat="40.91350123086443" lon="9.118847534598158"><ele>469.0</ele><time>2026-05-02T11:15:00Z</time></trkpt><trkpt lat="40.913384800585874" lon="9.11870130644629"><ele>468.0</ele><time>2026-05-02T11:15:01Z</time></trkpt><trkpt lat="40.91329035969466" lon="9.118699737929548"><ele>467.0</ele><time>2026-05-02T11:15:02Z</time></trkpt><trkpt lat="40.91321001513536" lon="9.118670467239857"><ele>466.0</ele><time>2026-05-02T11:15:03Z</time></trkpt><trkpt lat="40.91309318568373" lon="9.11863643878114"><ele>466.0</ele><time>2026-05-02T11:15:04Z</time></trkpt><trkpt lat="40.91297616024227" lon="9.118632823690309"><ele>466.0</ele><time>2026-05-02T11:15:05Z</time></trkpt><trkpt lat="40.91285213121478" lon="9.118653801243376"><ele>466.0</ele><time>2026-05-02T11:15:06Z</time></trkpt><trkpt lat="40.91270761031061" lon="9.118704304422806"><ele>466.0</ele><time>2026-05-02T11:15:06.999Z</time></trkpt><trkpt lat="40.91255250220762" lon="9.118757721993866"><ele>465.4</ele><time>2026-05-02T11:15:07.999Z</time></trkpt><trkpt lat="40.91242072541924" lon="9.11878806002328"><ele>464.8</ele><time>2026-05-02T11:15:08.999Z</time></trkpt><trkpt lat="40.91230174657936" lon="9.118791309147866"><ele>464.19999999999993</ele><time>2026-05-02T11:15:09.999Z</time></trkpt><trkpt lat="40.912209573484205" lon="9.118779201252753"><ele>463.59999999999997</ele><time>2026-05-02T11:15:10.999Z</time></trkpt><trkpt lat="40.91212918677293" lon="9.118727951362596"><ele>463.0</ele><time>2026-05-02T11:15:11.999Z</time></trkpt><trkpt lat="40.91204470580378" lon="9.11867347599717"><ele>463.0</ele><time>2026-05-02T11:15:12.999Z</time></trkpt><trkpt lat="40.91195037153841" lon="9.11858102312312"><ele>463.0</ele><time>2026-05-02T11:15:13.999Z</time></trkpt><trkpt lat="40.91186190810244" lon="9.11843788665193"><ele>463.0</ele><time>2026-05-02T11:15:14.999Z</time></trkpt><trkpt lat="40.911801792098615" lon="9.118316110296632"><ele>463.0</ele><time>2026-05-02T11:15:15.999Z</time></trkpt><trkpt lat="40.9117463802564" lon="9.118201213668774"><ele>462.59999999999997</ele><time>2026-05-02T11:15:16.999Z</time></trkpt><trkpt lat="40.911730777346776" lon="9.118064492673229"><ele>462.19999999999993</ele><time>2026-05-02T11:15:17.999Z</time></trkpt><trkpt lat="40.911719494886235" lon="9.117932860493815"><ele>461.8</ele><time>2026-05-02T11:15:18.999Z</time></trkpt><trkpt lat="40.911714089048644" lon="9.117797567219636"><ele>461.4</ele><time>2026-05-02T11:15:19.999Z</time></trkpt><trkpt lat="40.911697701755564" lon="9.117666711710593"><ele>461.0</ele><time>2026-05-02T11:15:20.999Z</time></trkpt><trkpt lat="40.911625431641305" lon="9.117570722676545"><ele>461.0</ele><time>2026-05-02T11:15:21.999Z</time></trkpt><trkpt lat="40.9115301074929" lon="9.117499014478067"><ele>461.0</ele><time>2026-05-02T11:15:22.999Z</time></trkpt><trkpt lat="40.911433098696875" lon="9.117408451750475"><ele>461.0</ele><time>2026-05-02T11:15:23.999Z</time></trkpt><trkpt lat="40.911331797562525" lon="9.117307796255972"><ele>461.0</ele><time>2026-05-02T11:15:24.999Z</time></trkpt><trkpt lat="40.91124721706836" lon="9.117190007061804"><ele>461.0</ele><time>2026-05-02T11:15:25.999Z</time></trkpt><trkpt lat="40.91114667555004" lon="9.11708585052233"><ele>461.0</ele><time>2026-05-02T11:15:26.999Z</time></trkpt><trkpt lat="40.911044289850594" lon="9.116978862876602"><ele>461.0</ele><time>2026-05-02T11:15:27.999Z</time></trkpt><trkpt lat="40.91093559754383" lon="9.116855619643417"><ele>461.0</ele><time>2026-05-02T11:15:28.999Z</time></trkpt><trkpt lat="40.910843964073926" lon="9.116730266008707"><ele>463.20000000000005</ele><time>2026-05-02T11:15:29.999Z</time></trkpt><trkpt lat="40.9107908518643" lon="9.116596169380562"><ele>465.40000000000003</ele><time>2026-05-02T11:15:30.999Z</time></trkpt><trkpt lat="40.91075923139719" lon="9.116487819131473"><ele>467.6</ele><time>2026-05-02T11:15:31.999Z</time></trkpt><trkpt lat="40.910728923352046" lon="9.116364350924618"><ele>469.8</ele><time>2026-05-02T11:15:32.999Z</time></trkpt><trkpt lat="40.910707860248074" lon="9.116224411892881"><ele>472.0</ele><time>2026-05-02T11:15:33.999Z</time></trkpt><trkpt lat="40.91068925134536" lon="9.11606967176976"><ele>473.75</ele><time>2026-05-02T11:15:34.999Z</time></trkpt><trkpt lat="40.91071201581816" lon="9.115931753687148"><ele>475.5</ele><time>2026-05-02T11:15:35.999Z</time></trkpt><trkpt lat="40.91074093673207" lon="9.115783433591675"><ele>477.25</ele><time>2026-05-02T11:15:36.999Z</time></trkpt><trkpt lat="40.91076820668701" lon="9.115630376721779"><ele>479.0</ele><time>2026-05-02T11:15:37.999Z</time></trkpt><trkpt lat="40.910784360474096" lon="9.115463626925909"><ele>479.79999999999995</ele><time>2026-05-02T11:15:38.999Z</time></trkpt><trkpt lat="40.91079297913834" lon="9.115306313453413"><ele>480.59999999999997</ele><time>2026-05-02T11:15:39.999Z</time></trkpt><trkpt lat="40.91079359177023" lon="9.1151559939744"><ele>481.4</ele><time>2026-05-02T11:15:40.999Z</time></trkpt><trkpt lat="40.910779479099716" lon="9.115011565777504"><ele>482.2</ele><time>2026-05-02T11:15:41.999Z</time></trkpt><trkpt lat="40.91077503422414" lon="9.114888451162848"><ele>483.0</ele><time>2026-05-02T11:15:42.999Z</time></trkpt><trkpt lat="40.910761461796724" lon="9.114805045997526"><ele>481.4</ele><time>2026-05-02T11:15:43.999Z</time></trkpt><trkpt lat="40.9107160340293" lon="9.11472089337644"><ele>479.79999999999995</ele><time>2026-05-02T11:15:44.999Z</time></trkpt><trkpt lat="40.91066695750673" lon="9.114635684253614"><ele>478.2</ele><time>2026-05-02T11:15:45.999Z</time></trkpt><trkpt lat="40.91059693988979" lon="9.114547753517588"><ele>476.6</ele><time>2026-05-02T11:15:46.999Z</time></trkpt><trkpt lat="40.91051606363463" lon="9.11445518353722"><ele>475.0</ele><time>2026-05-02T11:15:47.999Z</time></trkpt><trkpt lat="40.91040566629302" lon="9.114411467621139"><ele>475.0</ele><time>2026-05-02T11:15:48.999Z</time></trkpt><trkpt lat="40.91029941247221" lon="9.114395383285284"><ele>475.0</ele><time>2026-05-02T11:15:49.999Z</time></trkpt><trkpt lat="40.91021328162759" lon="9.1143875472433"><ele>475.0</ele><time>2026-05-02T11:15:50.999Z</time></trkpt><trkpt lat="40.91012527107239" lon="9.11441822961475"><ele>475.0</ele><time>2026-05-02T11:15:51.999Z</time></trkpt><trkpt lat="40.91004772104773" lon="9.114442784700003"><ele>475.0</ele><time>2026-05-02T11:15:52.999Z</time></trkpt><trkpt lat="40.90990311506301" lon="9.114394675931079"><ele>478.0</ele><time>2026-05-02T11:15:54.999Z</time></trkpt><trkpt lat="40.90982466894383" lon="9.114324201055403"><ele>481.0</ele><time>2026-05-02T11:15:55.999Z</time></trkpt><trkpt lat="40.909735503674156" lon="9.114223365125568"><ele>484.0</ele><time>2026-05-02T11:15:56.999Z</time></trkpt><trkpt lat="40.90964865873344" lon="9.114127557216504"><ele>487.0</ele><time>2026-05-02T11:15:57.999Z</time></trkpt><trkpt lat="40.909559113368694" lon="9.114025914626964"><ele>490.0</ele><time>2026-05-02T11:15:58.999Z</time></trkpt><trkpt lat="40.90948216277075" lon="9.113925948985703"><ele>490.4</ele><time>2026-05-02T11:15:59.999Z</time></trkpt><trkpt lat="40.90940260591741" lon="9.113818182675649"><ele>490.8</ele><time>2026-05-02T11:16:00.999Z</time></trkpt><trkpt lat="40.909393860506206" lon="9.113677064269245"><ele>491.20000000000005</ele><time>2026-05-02T11:16:01.999Z</time></trkpt><trkpt lat="40.90938134686082" lon="9.11355803178224"><ele>491.6</ele><time>2026-05-02T11:16:02.999Z</time></trkpt><trkpt lat="40.90936617475383" lon="9.11343333326055"><ele>492.0</ele><time>2026-05-02T11:16:03.999Z</time></trkpt><trkpt lat="40.90935888269985" lon="9.11332026450024"><ele>493.0</ele><time>2026-05-02T11:16:04.999Z</time></trkpt><trkpt lat="40.90936273689415" lon="9.113228613618737"><ele>494.0</ele><time>2026-05-02T11:16:05.999Z</time></trkpt><trkpt lat="40.909383815290646" lon="9.113141539112666"><ele>495.0</ele><time>2026-05-02T11:16:06.999Z</time></trkpt><trkpt lat="40.90936437004223" lon="9.112950486177262"><ele>496.0</ele><time>2026-05-02T11:16:08.999Z</time></trkpt><trkpt lat="40.90938422356543" lon="9.112865442284923"><ele>497.0</ele><time>2026-05-02T11:16:09.999Z</time></trkpt><trkpt lat="40.90931478843004" lon="9.1127987554269"><ele>498.0</ele><time>2026-05-02T11:16:11.999Z</time></trkpt><trkpt lat="40.909280121359814" lon="9.11272012804627"><ele>500.0</ele><time>2026-05-02T11:16:12.999Z</time></trkpt><trkpt lat="40.909202483769185" lon="9.112620401201385"><ele>501.99999999999994</ele><time>2026-05-02T11:16:13.999Z</time></trkpt><trkpt lat="40.9091559892519" lon="9.112502288304015"><ele>503.99999999999994</ele><time>2026-05-02T11:16:14.999Z</time></trkpt><trkpt lat="40.90910820395832" lon="9.11239784915103"><ele>506.0</ele><time>2026-05-02T11:16:15.999Z</time></trkpt><trkpt lat="40.909058476126276" lon="9.112286370416914"><ele>508.0</ele><time>2026-05-02T11:16:16.999Z</time></trkpt><trkpt lat="40.90900890195688" lon="9.112175236174217"><ele>509.25</ele><time>2026-05-02T11:16:17.999Z</time></trkpt><trkpt lat="40.908937946410475" lon="9.112033093151043"><ele>510.5</ele><time>2026-05-02T11:16:18.999Z</time></trkpt><trkpt lat="40.90886346516649" lon="9.111893385946965"><ele>511.75</ele><time>2026-05-02T11:16:19.999Z</time></trkpt><trkpt lat="40.9087942469523" lon="9.111777675697391"><ele>513.0</ele><time>2026-05-02T11:16:20.999Z</time></trkpt><trkpt lat="40.9086991243362" lon="9.11169459853597"><ele>513.0</ele><time>2026-05-02T11:16:21.999Z</time></trkpt><trkpt lat="40.9086077041298" lon="9.111704877859975"><ele>513.0</ele><time>2026-05-02T11:16:22.999Z</time></trkpt><trkpt lat="40.908522195613465" lon="9.111668084136806"><ele>513.0</ele><time>2026-05-02T11:16:23.999Z</time></trkpt><trkpt lat="40.90842267420857" lon="9.111580323226935"><ele>513.0</ele><time>2026-05-02T11:16:24.999Z</time></trkpt><trkpt lat="40.908322952310236" lon="9.111505067349327"><ele>513.0</ele><time>2026-05-02T11:16:25.999Z</time></trkpt><trkpt lat="40.9082393661915" lon="9.111428503052608"><ele>516.8</ele><time>2026-05-02T11:16:26.999Z</time></trkpt><trkpt lat="40.9081519724658" lon="9.111369173237845"><ele>520.5999999999999</ele><time>2026-05-02T11:16:27.999Z</time></trkpt><trkpt lat="40.908048252685596" lon="9.111378122208958"><ele>524.4000000000001</ele><time>2026-05-02T11:16:28.999Z</time></trkpt><trkpt lat="40.907970960218734" lon="9.111341185505331"><ele>528.2</ele><time>2026-05-02T11:16:30.999Z</time></trkpt><trkpt lat="40.90783860996617" lon="9.111433825902271"><ele>532.0</ele><time>2026-05-02T11:16:33.999Z</time></trkpt><trkpt lat="40.90776389648894" lon="9.111467422254952"><ele>532.0</ele><time>2026-05-02T11:16:34.999Z</time></trkpt><trkpt lat="40.90770386502982" lon="9.111503694911887"><ele>532.0</ele><time>2026-05-02T11:16:35.999Z</time></trkpt><trkpt lat="40.90763526304236" lon="9.111550276053533"><ele>532.0</ele><time>2026-05-02T11:16:37.999Z</time></trkpt><trkpt lat="40.90764343076966" lon="9.111723124821273"><ele>532.0</ele><time>2026-05-02T11:16:49Z</time></trkpt><trkpt lat="40.90771548376392" lon="9.111846454548314"><ele>532.0</ele><time>2026-05-02T11:16:51Z</time></trkpt><trkpt lat="40.90773112690323" lon="9.111932873409009"><ele>531.0</ele><time>2026-05-02T11:16:52Z</time></trkpt><trkpt lat="40.90775003466192" lon="9.112014424700616"><ele>530.0</ele><time>2026-05-02T11:16:53Z</time></trkpt><trkpt lat="40.907748371488736" lon="9.11209965665322"><ele>529.0</ele><time>2026-05-02T11:16:54Z</time></trkpt><trkpt lat="40.907806775746586" lon="9.112220661549063"><ele>528.0</ele><time>2026-05-02T11:16:56Z</time></trkpt><trkpt lat="40.90779366085919" lon="9.11233455687566"><ele>527.0</ele><time>2026-05-02T11:16:58Z</time></trkpt><trkpt lat="40.907719241355714" lon="9.112441518202926"><ele>526.0</ele><time>2026-05-02T11:17:00Z</time></trkpt><trkpt lat="40.90766869548625" lon="9.11253292939221"><ele>526.0</ele><time>2026-05-02T11:17:01Z</time></trkpt><trkpt lat="40.90759760398246" lon="9.112585026993576"><ele>526.0</ele><time>2026-05-02T11:17:02Z</time></trkpt><trkpt lat="40.907515514490704" lon="9.112614478642344"><ele>526.0</ele><time>2026-05-02T11:17:04Z</time></trkpt><trkpt lat="40.907576247015406" lon="9.11259217542673"><ele>526.0</ele><time>2026-05-02T11:17:15.999Z</time></trkpt><trkpt lat="40.90770549089451" lon="9.112505012802096"><ele>526.0</ele><time>2026-05-02T11:17:16.999Z</time></trkpt><trkpt lat="40.90769392822629" lon="9.112396551273834"><ele>526.0</ele><time>2026-05-02T11:17:17.999Z</time></trkpt><trkpt lat="40.90775334307344" lon="9.112325854621153"><ele>526.0</ele><time>2026-05-02T11:17:18.999Z</time></trkpt><trkpt lat="40.907796383627606" lon="9.112219169891528"><ele>526.0</ele><time>2026-05-02T11:17:19.999Z</time></trkpt><trkpt lat="40.90777519962915" lon="9.112095132757501"><ele>526.0</ele><time>2026-05-02T11:17:20.999Z</time></trkpt><trkpt lat="40.90772282075308" lon="9.11194618536638"><ele>526.0</ele><time>2026-05-02T11:17:21.999Z</time></trkpt><trkpt lat="40.90768397202982" lon="9.111831572787032"><ele>526.0</ele><time>2026-05-02T11:17:22.999Z</time></trkpt><trkpt lat="40.907649970736294" lon="9.111702077786873"><ele>526.0</ele><time>2026-05-02T11:17:23.999Z</time></trkpt><trkpt lat="40.90764279791465" lon="9.111562512334409"><ele>526.0</ele><time>2026-05-02T11:17:25.999Z</time></trkpt><trkpt lat="40.90762753025089" lon="9.111470458283474"><ele>526.0</ele><time>2026-05-02T11:17:26.999Z</time></trkpt><trkpt lat="40.90770050399089" lon="9.111406540975063"><ele>526.0</ele><time>2026-05-02T11:17:27.999Z</time></trkpt><trkpt lat="40.90778731855976" lon="9.111367182344638"><ele>527.0</ele><time>2026-05-02T11:17:28.999Z</time></trkpt><trkpt lat="40.90788852003728" lon="9.111337068030359"><ele>528.0</ele><time>2026-05-02T11:17:29.999Z</time></trkpt><trkpt lat="40.90796329934244" lon="9.11131481932044"><ele>529.0</ele><time>2026-05-02T11:17:30.999Z</time></trkpt><trkpt lat="40.90796147543158" lon="9.111189448421639"><ele>530.0</ele><time>2026-05-02T11:17:33.999Z</time></trkpt><trkpt lat="40.90788791254354" lon="9.111117797734963"><ele>531.0</ele><time>2026-05-02T11:17:35.999Z</time></trkpt><trkpt lat="40.907828595722854" lon="9.111066369710482"><ele>532.0</ele><time>2026-05-02T11:17:36.999Z</time></trkpt><trkpt lat="40.907773130165616" lon="9.11101900371914"><ele>532.0</ele><time>2026-05-02T11:17:37.999Z</time></trkpt><trkpt lat="40.907711845151894" lon="9.110963016705842"><ele>532.0</ele><time>2026-05-02T11:17:38.999Z</time></trkpt><trkpt lat="40.90766771834676" lon="9.110889247302547"><ele>532.0</ele><time>2026-05-02T11:17:39.999Z</time></trkpt><trkpt lat="40.90761385529684" lon="9.110827999950368"><ele>532.0</ele><time>2026-05-02T11:17:42.999Z</time></trkpt><trkpt lat="40.907608085937966" lon="9.110733590001043"><ele>532.0</ele><time>2026-05-02T11:17:44.999Z</time></trkpt><trkpt lat="40.907575187631686" lon="9.11060563558792"><ele>532.0</ele><time>2026-05-02T11:17:46.999Z</time></trkpt><trkpt lat="40.907557651463456" lon="9.110441929627475"><ele>534.6</ele><time>2026-05-02T11:17:48.999Z</time></trkpt><trkpt lat="40.90753513722083" lon="9.110337998821835"><ele>537.2</ele><time>2026-05-02T11:17:49.999Z</time></trkpt><trkpt lat="40.90749959315249" lon="9.110185987439559"><ele>539.8</ele><time>2026-05-02T11:17:50.999Z</time></trkpt><trkpt lat="40.9074351177666" lon="9.110064697655803"><ele>542.4</ele><time>2026-05-02T11:17:51.999Z</time></trkpt><trkpt lat="40.90737440484373" lon="9.109949891105266"><ele>545.0</ele><time>2026-05-02T11:17:52.999Z</time></trkpt><trkpt lat="40.90732174214821" lon="9.109857486921205"><ele>545.8</ele><time>2026-05-02T11:17:53.999Z</time></trkpt><trkpt lat="40.90726739829929" lon="9.109761420564631"><ele>546.6</ele><time>2026-05-02T11:17:54.999Z</time></trkpt><trkpt lat="40.90719936605818" lon="9.109648483507705"><ele>547.4</ele><time>2026-05-02T11:17:55.999Z</time></trkpt><trkpt lat="40.90712751908876" lon="9.109526282688348"><ele>548.2</ele><time>2026-05-02T11:17:56.999Z</time></trkpt><trkpt lat="40.90705238728307" lon="9.109406085100636"><ele>549.0</ele><time>2026-05-02T11:17:57.999Z</time></trkpt><trkpt lat="40.9069724691653" lon="9.109282757622823"><ele>549.0</ele><time>2026-05-02T11:17:58.999Z</time></trkpt><trkpt lat="40.90689048176453" lon="9.109158383989522"><ele>549.0</ele><time>2026-05-02T11:17:59.999Z</time></trkpt><trkpt lat="40.906804297114384" lon="9.109027978720716"><ele>549.0</ele><time>2026-05-02T11:18:00.999Z</time></trkpt><trkpt lat="40.90671699832665" lon="9.108894990628873"><ele>549.0</ele><time>2026-05-02T11:18:01.999Z</time></trkpt><trkpt lat="40.906637555813525" lon="9.108753690533858"><ele>550.25</ele><time>2026-05-02T11:18:02.999Z</time></trkpt><trkpt lat="40.90655013896156" lon="9.1086080296504"><ele>551.5</ele><time>2026-05-02T11:18:03.999Z</time></trkpt><trkpt lat="40.90647608738997" lon="9.108459419718683"><ele>552.75</ele><time>2026-05-02T11:18:04.999Z</time></trkpt><trkpt lat="40.90640116884724" lon="9.108307095858562"><ele>554.0</ele><time>2026-05-02T11:18:05.999Z</time></trkpt><trkpt lat="40.906330712052004" lon="9.108163099320047"><ele>554.5</ele><time>2026-05-02T11:18:06.999Z</time></trkpt><trkpt lat="40.90626723287659" lon="9.108020263702501"><ele>555.0</ele><time>2026-05-02T11:18:07.999Z</time></trkpt><trkpt lat="40.90621622886627" lon="9.107878655558812"><ele>555.5</ele><time>2026-05-02T11:18:08.999Z</time></trkpt><trkpt lat="40.906159116675205" lon="9.107732679939746"><ele>556.0</ele><time>2026-05-02T11:18:09.999Z</time></trkpt><trkpt lat="40.90609849139618" lon="9.107583314353489"><ele>556.0</ele><time>2026-05-02T11:18:10.999Z</time></trkpt><trkpt lat="40.906045663819285" lon="9.107456849208901"><ele>556.0</ele><time>2026-05-02T11:18:11.999Z</time></trkpt><trkpt lat="40.90602013503336" lon="9.10733384948157"><ele>556.0</ele><time>2026-05-02T11:18:12.999Z</time></trkpt><trkpt lat="40.90600075545437" lon="9.10725035555478"><ele>556.0</ele><time>2026-05-02T11:18:13.999Z</time></trkpt><trkpt lat="40.90599047736704" lon="9.107156533155655"><ele>556.0</ele><time>2026-05-02T11:18:15.999Z</time></trkpt><trkpt lat="40.90594682257019" lon="9.10704131072469"><ele>556.0</ele><time>2026-05-02T11:18:17.999Z</time></trkpt><trkpt lat="40.90589891286313" lon="9.10695773468497"><ele>555.8</ele><time>2026-05-02T11:18:18.999Z</time></trkpt><trkpt lat="40.90583745747213" lon="9.106864506043257"><ele>555.6</ele><time>2026-05-02T11:18:19.999Z</time></trkpt><trkpt lat="40.905768632820454" lon="9.106766864591865"><ele>555.4</ele><time>2026-05-02T11:18:20.999Z</time></trkpt><trkpt lat="40.90570943689052" lon="9.106690112799983"><ele>555.2</ele><time>2026-05-02T11:18:21.999Z</time></trkpt><trkpt lat="40.905650251626405" lon="9.106608149457234"><ele>555.0</ele><time>2026-05-02T11:18:22.999Z</time></trkpt><trkpt lat="40.905592095154596" lon="9.10651830890817"><ele>555.0</ele><time>2026-05-02T11:18:23.999Z</time></trkpt><trkpt lat="40.905523325169874" lon="9.106418388285395"><ele>555.0</ele><time>2026-05-02T11:18:24.999Z</time></trkpt><trkpt lat="40.905448157853556" lon="9.106321758445926"><ele>555.0</ele><time>2026-05-02T11:18:25.999Z</time></trkpt><trkpt lat="40.90537493123392" lon="9.106220812830733"><ele>555.0</ele><time>2026-05-02T11:18:26.999Z</time></trkpt><trkpt lat="40.905305306256025" lon="9.106115891035754"><ele>555.0</ele><time>2026-05-02T11:18:27.999Z</time></trkpt><trkpt lat="40.90524735128544" lon="9.106023086580732"><ele>555.0000000000001</ele><time>2026-05-02T11:18:28.999Z</time></trkpt><trkpt lat="40.90519227956201" lon="9.105941169520069"><ele>555.0</ele><time>2026-05-02T11:18:29.999Z</time></trkpt><trkpt lat="40.905138293091234" lon="9.105866885122184"><ele>555.0</ele><time>2026-05-02T11:18:30.999Z</time></trkpt><trkpt lat="40.90508368073251" lon="9.10579761457239"><ele>555.0</ele><time>2026-05-02T11:18:31.999Z</time></trkpt><trkpt lat="40.905036780064655" lon="9.105722371502296"><ele>555.0</ele><time>2026-05-02T11:18:32.999Z</time></trkpt><trkpt lat="40.90499359302999" lon="9.105658046473271"><ele>555.0000000000001</ele><time>2026-05-02T11:18:33.999Z</time></trkpt><trkpt lat="40.904944571938195" lon="9.105593944314615"><ele>555.0</ele><time>2026-05-02T11:18:34.999Z</time></trkpt><trkpt lat="40.90490203973829" lon="9.105531755882167"><ele>555.4</ele><time>2026-05-02T11:18:35.999Z</time></trkpt><trkpt lat="40.90482796994491" lon="9.105433062612923"><ele>555.8</ele><time>2026-05-02T11:18:37.999Z</time></trkpt><trkpt lat="40.904786324161165" lon="9.105359010751414"><ele>556.2</ele><time>2026-05-02T11:18:40.999Z</time></trkpt><trkpt lat="40.904777787893906" lon="9.105567908917937"><ele>556.6</ele><time>2026-05-02T11:19:08Z</time></trkpt><trkpt lat="40.904785298855124" lon="9.105691484762504"><ele>557.0</ele><time>2026-05-02T11:19:09Z</time></trkpt><trkpt lat="40.904776553909855" lon="9.105781258734428"><ele>557.5</ele><time>2026-05-02T11:19:09.999Z</time></trkpt><trkpt lat="40.90478190934185" lon="9.105873142007889"><ele>558.0</ele><time>2026-05-02T11:19:10.999Z</time></trkpt><trkpt lat="40.904779230426904" lon="9.105960667843208"><ele>558.5</ele><time>2026-05-02T11:19:11.999Z</time></trkpt><trkpt lat="40.90476492929009" lon="9.106077343614041"><ele>559.0</ele><time>2026-05-02T11:19:13.999Z</time></trkpt><trkpt lat="40.90477221716907" lon="9.106177855866138"><ele>559.5</ele><time>2026-05-02T11:19:18.999Z</time></trkpt><trkpt lat="40.90476030275457" lon="9.106299218605075"><ele>560.0</ele><time>2026-05-02T11:19:20.999Z</time></trkpt><trkpt lat="40.904749601501905" lon="9.106441565234856"><ele>560.0</ele><time>2026-05-02T11:19:22.999Z</time></trkpt><trkpt lat="40.904747951196434" lon="9.10652718334875"><ele>560.0</ele><time>2026-05-02T11:19:23.999Z</time></trkpt><trkpt lat="40.90474158435128" lon="9.106611991817381"><ele>560.0</ele><time>2026-05-02T11:19:24.999Z</time></trkpt><trkpt lat="40.90472631133567" lon="9.106696095223716"><ele>560.0</ele><time>2026-05-02T11:19:25.999Z</time></trkpt><trkpt lat="40.90470517496172" lon="9.10677650154972"><ele>560.0</ele><time>2026-05-02T11:19:26.999Z</time></trkpt><trkpt lat="40.904684003353914" lon="9.106855390784135"><ele>560.0</ele><time>2026-05-02T11:19:27.999Z</time></trkpt><trkpt lat="40.90462450525238" lon="9.106990036405366"><ele>560.0</ele><time>2026-05-02T11:19:29.999Z</time></trkpt><trkpt lat="40.9045739076015" lon="9.107051457629582"><ele>560.0</ele><time>2026-05-02T11:19:30.999Z</time></trkpt><trkpt lat="40.90451586362691" lon="9.107116776350255"><ele>560.0</ele><time>2026-05-02T11:19:31.999Z</time></trkpt><trkpt lat="40.904458250459435" lon="9.107177373721703"><ele>560.0</ele><time>2026-05-02T11:19:32.999Z</time></trkpt><trkpt lat="40.90439821854308" lon="9.107215957243692"><ele>560.0</ele><time>2026-05-02T11:19:33.999Z</time></trkpt><trkpt lat="40.904329421262" lon="9.107238356438843"><ele>560.0</ele><time>2026-05-02T11:19:34.999Z</time></trkpt><trkpt lat="40.90426132582381" lon="9.10724787447756"><ele>560.0</ele><time>2026-05-02T11:19:35.999Z</time></trkpt><trkpt lat="40.90419345400229" lon="9.107232869419635"><ele>560.0</ele><time>2026-05-02T11:19:36.999Z</time></trkpt><trkpt lat="40.90413118219647" lon="9.107206854050862"><ele>560.1666666666666</ele><time>2026-05-02T11:19:37.999Z</time></trkpt><trkpt lat="40.90406995763325" lon="9.107169353485325"><ele>560.3333333333333</ele><time>2026-05-02T11:19:38.999Z</time></trkpt><trkpt lat="40.90401150425279" lon="9.107135908267423"><ele>560.5</ele><time>2026-05-02T11:19:39.999Z</time></trkpt><trkpt lat="40.903950110798625" lon="9.107105249325192"><ele>560.6666666666666</ele><time>2026-05-02T11:19:40.999Z</time></trkpt><trkpt lat="40.90383047538653" lon="9.107041306087368"><ele>560.8333333333334</ele><time>2026-05-02T11:19:42.999Z</time></trkpt><trkpt lat="40.90376840474925" lon="9.107012759941497"><ele>561.0</ele><time>2026-05-02T11:19:43.999Z</time></trkpt><trkpt lat="40.903653226440255" lon="9.106961628916784"><ele>561.0</ele><time>2026-05-02T11:19:46Z</time></trkpt><trkpt lat="40.90352854225116" lon="9.106928028415705"><ele>561.0</ele><time>2026-05-02T11:19:48Z</time></trkpt><trkpt lat="40.903461994594245" lon="9.106912844140666"><ele>561.0</ele><time>2026-05-02T11:19:49Z</time></trkpt><trkpt lat="40.90339760131464" lon="9.106884205452356"><ele>561.0</ele><time>2026-05-02T11:19:50Z</time></trkpt><trkpt lat="40.90332688197114" lon="9.106874294477965"><ele>561.0</ele><time>2026-05-02T11:19:51Z</time></trkpt><trkpt lat="40.90326274321325" lon="9.106866882471367"><ele>561.0</ele><time>2026-05-02T11:19:52Z</time></trkpt><trkpt lat="40.90319945990913" lon="9.106850861465006"><ele>560.4</ele><time>2026-05-02T11:19:53Z</time></trkpt><trkpt lat="40.90308258409878" lon="9.106802357669414"><ele>559.8</ele><time>2026-05-02T11:19:55Z</time></trkpt><trkpt lat="40.902971134511006" lon="9.106718663618702"><ele>559.1999999999999</ele><time>2026-05-02T11:19:57Z</time></trkpt><trkpt lat="40.90291106450642" lon="9.10665109317326"><ele>558.6</ele><time>2026-05-02T11:19:58Z</time></trkpt><trkpt lat="40.90285969561923" lon="9.106547975810294"><ele>558.0</ele><time>2026-05-02T11:19:59Z</time></trkpt><trkpt lat="40.90281635050247" lon="9.106420090463077"><ele>557.1999999999999</ele><time>2026-05-02T11:20:00Z</time></trkpt><trkpt lat="40.90278051736749" lon="9.10627950011839"><ele>556.4</ele><time>2026-05-02T11:20:01Z</time></trkpt><trkpt lat="40.90274123274262" lon="9.106133836631303"><ele>555.5999999999999</ele><time>2026-05-02T11:20:02Z</time></trkpt><trkpt lat="40.90268566002069" lon="9.106001814507017"><ele>554.8</ele><time>2026-05-02T11:20:03Z</time></trkpt><trkpt lat="40.90261723972084" lon="9.105908791101074"><ele>554.0</ele><time>2026-05-02T11:20:04Z</time></trkpt><trkpt lat="40.90254426801941" lon="9.105842087381026"><ele>554.0</ele><time>2026-05-02T11:20:05Z</time></trkpt><trkpt lat="40.90245609726847" lon="9.105825080128653"><ele>554.0</ele><time>2026-05-02T11:20:06Z</time></trkpt><trkpt lat="40.902366859598345" lon="9.105843669629573"><ele>554.0</ele><time>2026-05-02T11:20:07Z</time></trkpt><trkpt lat="40.90227438243776" lon="9.105836974152544"><ele>554.0</ele><time>2026-05-02T11:20:09Z</time></trkpt><trkpt lat="40.9022657640149" lon="9.105734041455621"><ele>554.0</ele><time>2026-05-02T11:20:11Z</time></trkpt><trkpt lat="40.90228038320272" lon="9.105629550124757"><ele>554.0</ele><time>2026-05-02T11:20:13Z</time></trkpt><trkpt lat="40.90225691360884" lon="9.105526538998483"><ele>555.0</ele><time>2026-05-02T11:20:15Z</time></trkpt><trkpt lat="40.90226072602646" lon="9.105425890353448"><ele>556.0</ele><time>2026-05-02T11:20:22Z</time></trkpt><trkpt lat="40.90226141206973" lon="9.105327439106999"><ele>557.0</ele><time>2026-05-02T11:20:23Z</time></trkpt><trkpt lat="40.90226575739967" lon="9.105219198751824"><ele>558.0</ele><time>2026-05-02T11:20:24Z</time></trkpt><trkpt lat="40.90221918479562" lon="9.105113974897494"><ele>559.0</ele><time>2026-05-02T11:20:25Z</time></trkpt><trkpt lat="40.9021719494693" lon="9.105031840846129"><ele>560.0</ele><time>2026-05-02T11:20:26Z</time></trkpt><trkpt lat="40.90214082205403" lon="9.104943365833982"><ele>561.2</ele><time>2026-05-02T11:20:27Z</time></trkpt><trkpt lat="40.90212744026534" lon="9.104861778143439"><ele>562.4</ele><time>2026-05-02T11:20:28Z</time></trkpt><trkpt lat="40.90215365991552" lon="9.104739518085793"><ele>563.6</ele><time>2026-05-02T11:20:30Z</time></trkpt><trkpt lat="40.902113324577144" lon="9.104597916821117"><ele>564.8</ele><time>2026-05-02T11:20:32Z</time></trkpt><trkpt lat="40.90205538126038" lon="9.104469594617294"><ele>566.0</ele><time>2026-05-02T11:20:34Z</time></trkpt><trkpt lat="40.90199967189018" lon="9.104384505381827"><ele>566.0</ele><time>2026-05-02T11:20:36Z</time></trkpt><trkpt lat="40.90203708126477" lon="9.104299561209878"><ele>566.0</ele><time>2026-05-02T11:20:40Z</time></trkpt><trkpt lat="40.902110970688305" lon="9.104226398164256"><ele>566.0</ele><time>2026-05-02T11:20:41.999Z</time></trkpt><trkpt lat="40.90216476960227" lon="9.104180935861233"><ele>566.0</ele><time>2026-05-02T11:20:42.999Z</time></trkpt><trkpt lat="40.90221926007314" lon="9.104122555803949"><ele>566.0</ele><time>2026-05-02T11:20:43.999Z</time></trkpt><trkpt lat="40.90228316860117" lon="9.104075328701102"><ele>566.0</ele><time>2026-05-02T11:20:45.999Z</time></trkpt><trkpt lat="40.90233398709765" lon="9.103981082977032"><ele>569.0</ele><time>2026-05-02T11:21:01.001Z</time></trkpt><trkpt lat="40.90226557763909" lon="9.10387341589767"><ele>569.0</ele><time>2026-05-02T11:24:19Z</time></trkpt><trkpt lat="40.90229025698128" lon="9.103966520529124"><ele>569.0</ele><time>2026-05-02T11:24:34Z</time></trkpt><trkpt lat="40.90230537982727" lon="9.104048435111546"><ele>569.0</ele><time>2026-05-02T11:24:41.999Z</time></trkpt><trkpt lat="40.90235412771519" lon="9.104105423047326"><ele>566.0</ele><time>2026-05-02T11:24:46.999Z</time></trkpt></trkseg><trkseg><trkpt lat="40.90232016313577" lon="9.103955613324992"><ele>569.0</ele><time>2026-05-02T12:37:01.999Z</time></trkpt><trkpt lat="40.902367972011305" lon="9.10389270628646"><ele>569.0</ele><time>2026-05-02T12:37:12.999Z</time></trkpt><trkpt lat="40.90228324623792" lon="9.103845598439257"><ele>569.0</ele><time>2026-05-02T12:37:16.999Z</time></trkpt><trkpt lat="40.90220232740406" lon="9.103783565319699"><ele>569.0</ele><time>2026-05-02T12:37:18.999Z</time></trkpt><trkpt lat="40.90209907711069" lon="9.103738480144056"><ele>569.0</ele><time>2026-05-02T12:37:20.999Z</time></trkpt><trkpt lat="40.9020010393194" lon="9.103709432420748"><ele>569.0</ele><time>2026-05-02T12:37:22.999Z</time></trkpt><trkpt lat="40.90190273472839" lon="9.103701549099972"><ele>569.0</ele><time>2026-05-02T12:37:24.999Z</time></trkpt><trkpt lat="40.90180488999322" lon="9.103687304495557"><ele>569.0</ele><time>2026-05-02T12:37:26.999Z</time></trkpt><trkpt lat="40.90174088150524" lon="9.103632548309372"><ele>569.0</ele><time>2026-05-02T12:37:28.999Z</time></trkpt><trkpt lat="40.90168651199232" lon="9.103550578528232"><ele>569.0</ele><time>2026-05-02T12:37:30.999Z</time></trkpt><trkpt lat="40.90164456207058" lon="9.103485948307283"><ele>569.0</ele><time>2026-05-02T12:37:32.999Z</time></trkpt><trkpt lat="40.90165797504848" lon="9.103382293315153"><ele>569.1428571428572</ele><time>2026-05-02T12:37:35.999Z</time></trkpt><trkpt lat="40.90169602641055" lon="9.103293682446962"><ele>569.2857142857143</ele><time>2026-05-02T12:37:37.999Z</time></trkpt><trkpt lat="40.9017310207104" lon="9.103207804030879"><ele>569.4285714285714</ele><time>2026-05-02T12:37:39.999Z</time></trkpt><trkpt lat="40.901780844943815" lon="9.103137725207539"><ele>569.5714285714287</ele><time>2026-05-02T12:37:41.999Z</time></trkpt><trkpt lat="40.90178628520729" lon="9.103034024510219"><ele>569.7142857142858</ele><time>2026-05-02T12:37:44.999Z</time></trkpt><trkpt lat="40.90171964942608" lon="9.102997376934699"><ele>569.8571428571429</ele><time>2026-05-02T12:37:46.999Z</time></trkpt><trkpt lat="40.90166065824348" lon="9.102935845182822"><ele>570.0</ele><time>2026-05-02T12:37:48.999Z</time></trkpt><trkpt lat="40.90161354912143" lon="9.102858280831054"><ele>570.4</ele><time>2026-05-02T12:37:50.999Z</time></trkpt><trkpt lat="40.901561093410315" lon="9.102757036705711"><ele>570.8</ele><time>2026-05-02T12:37:52.999Z</time></trkpt><trkpt lat="40.90151845678671" lon="9.102615244317267"><ele>571.2</ele><time>2026-05-02T12:37:54.999Z</time></trkpt><trkpt lat="40.901455562505525" lon="9.102487949277734"><ele>571.6</ele><time>2026-05-02T12:37:56.999Z</time></trkpt><trkpt lat="40.90137487446218" lon="9.102384340012604"><ele>572.0</ele><time>2026-05-02T12:37:58.999Z</time></trkpt><trkpt lat="40.90133354737468" lon="9.102314728964249"><ele>571.2</ele><time>2026-05-02T12:37:59.999Z</time></trkpt><trkpt lat="40.90128785209772" lon="9.10219307937581"><ele>570.4000000000001</ele><time>2026-05-02T12:38:01.999Z</time></trkpt><trkpt lat="40.901273828196956" lon="9.10209284205474"><ele>569.5999999999999</ele><time>2026-05-02T12:38:03.999Z</time></trkpt><trkpt lat="40.90133586572482" lon="9.10190670621954"><ele>568.8</ele><time>2026-05-02T12:38:05.999Z</time></trkpt><trkpt lat="40.90136751920482" lon="9.101815821975134"><ele>568.0</ele><time>2026-05-02T12:38:06.999Z</time></trkpt><trkpt lat="40.901412453796134" lon="9.101718891560841"><ele>568.0</ele><time>2026-05-02T12:38:07.999Z</time></trkpt><trkpt lat="40.90146881277317" lon="9.101627474862598"><ele>568.0</ele><time>2026-05-02T12:38:08.999Z</time></trkpt><trkpt lat="40.90151607453179" lon="9.101540511298193"><ele>568.0</ele><time>2026-05-02T12:38:09.999Z</time></trkpt><trkpt lat="40.90153846028375" lon="9.101453822778938"><ele>568.0</ele><time>2026-05-02T12:38:10.999Z</time></trkpt><trkpt lat="40.90161264726386" lon="9.101415254254848"><ele>568.0</ele><time>2026-05-02T12:38:11.999Z</time></trkpt><trkpt lat="40.90172582018914" lon="9.10152339717399"><ele>566.6</ele><time>2026-05-02T12:38:12.999Z</time></trkpt><trkpt lat="40.90182132459064" lon="9.101520382038842"><ele>565.1999999999999</ele><time>2026-05-02T12:38:13.999Z</time></trkpt><trkpt lat="40.90191693502699" lon="9.101518503030169"><ele>563.8</ele><time>2026-05-02T12:38:14.999Z</time></trkpt><trkpt lat="40.90202263231205" lon="9.101521342158506"><ele>562.4</ele><time>2026-05-02T12:38:15.999Z</time></trkpt><trkpt lat="40.90212714195879" lon="9.101549668067921"><ele>561.0</ele><time>2026-05-02T12:38:16.999Z</time></trkpt><trkpt lat="40.90224803842556" lon="9.101588322043769"><ele>561.0</ele><time>2026-05-02T12:38:17.999Z</time></trkpt><trkpt lat="40.90235478972612" lon="9.101623172542883"><ele>561.0</ele><time>2026-05-02T12:38:18.999Z</time></trkpt><trkpt lat="40.902458422761235" lon="9.10165827741653"><ele>561.0</ele><time>2026-05-02T12:38:19.999Z</time></trkpt><trkpt lat="40.90256071861759" lon="9.101694291690267"><ele>561.0</ele><time>2026-05-02T12:38:20.999Z</time></trkpt><trkpt lat="40.902662674170756" lon="9.101714502779526"><ele>561.0</ele><time>2026-05-02T12:38:21.999Z</time></trkpt><trkpt lat="40.90275336306231" lon="9.101745925139406"><ele>560.2</ele><time>2026-05-02T12:38:22.999Z</time></trkpt><trkpt lat="40.90284390428292" lon="9.101780805429224"><ele>559.4000000000001</ele><time>2026-05-02T12:38:23.999Z</time></trkpt><trkpt lat="40.90295025723067" lon="9.101807640319072"><ele>558.6</ele><time>2026-05-02T12:38:24.999Z</time></trkpt><trkpt lat="40.90305865730962" lon="9.101805964664596"><ele>557.8000000000001</ele><time>2026-05-02T12:38:25.999Z</time></trkpt><trkpt lat="40.90317126412443" lon="9.101803605471959"><ele>557.0</ele><time>2026-05-02T12:38:26.999Z</time></trkpt><trkpt lat="40.90327035754432" lon="9.101781504140448"><ele>557.0</ele><time>2026-05-02T12:38:27.999Z</time></trkpt><trkpt lat="40.903370589796054" lon="9.101736982527605"><ele>557.0</ele><time>2026-05-02T12:38:28.999Z</time></trkpt><trkpt lat="40.90345522260224" lon="9.101667656637204"><ele>557.0</ele><time>2026-05-02T12:38:29.999Z</time></trkpt><trkpt lat="40.90354390471685" lon="9.101578524214124"><ele>557.0</ele><time>2026-05-02T12:38:30.999Z</time></trkpt><trkpt lat="40.903638238347206" lon="9.101491206870055"><ele>557.0</ele><time>2026-05-02T12:38:31.999Z</time></trkpt><trkpt lat="40.90373269690124" lon="9.10141148950144"><ele>555.5</ele><time>2026-05-02T12:38:32.999Z</time></trkpt><trkpt lat="40.90382851816779" lon="9.101333489100071"><ele>554.0</ele><time>2026-05-02T12:38:33.999Z</time></trkpt><trkpt lat="40.90392163370145" lon="9.101254051012823"><ele>552.5</ele><time>2026-05-02T12:38:34.999Z</time></trkpt><trkpt lat="40.904017960522296" lon="9.101172748459792"><ele>551.0</ele><time>2026-05-02T12:38:35.999Z</time></trkpt><trkpt lat="40.904111329585575" lon="9.101086607695162"><ele>551.0</ele><time>2026-05-02T12:38:36.999Z</time></trkpt><trkpt lat="40.9042012581717" lon="9.10100522364611"><ele>551.0</ele><time>2026-05-02T12:38:37.999Z</time></trkpt><trkpt lat="40.904292867332394" lon="9.100934605095361"><ele>551.0</ele><time>2026-05-02T12:38:38.999Z</time></trkpt><trkpt lat="40.904387703888986" lon="9.100852967252269"><ele>551.0</ele><time>2026-05-02T12:38:39.999Z</time></trkpt><trkpt lat="40.90448145950029" lon="9.100782555191174"><ele>551.0</ele><time>2026-05-02T12:38:40.999Z</time></trkpt><trkpt lat="40.9045718516972" lon="9.100712215176147"><ele>549.0</ele><time>2026-05-02T12:38:41.999Z</time></trkpt><trkpt lat="40.90466597943298" lon="9.100629528939692"><ele>547.0</ele><time>2026-05-02T12:38:42.999Z</time></trkpt><trkpt lat="40.90476970977096" lon="9.100563376230806"><ele>545.0</ele><time>2026-05-02T12:38:43.999Z</time></trkpt><trkpt lat="40.904845523105536" lon="9.100501837005455"><ele>543.0</ele><time>2026-05-02T12:38:44.999Z</time></trkpt><trkpt lat="40.90496758925974" lon="9.10041935798499"><ele>543.0</ele><time>2026-05-02T12:38:46.999Z</time></trkpt><trkpt lat="40.90505644250473" lon="9.100339010706948"><ele>543.0</ele><time>2026-05-02T12:38:47.999Z</time></trkpt><trkpt lat="40.90515893053962" lon="9.10027929282878"><ele>543.0</ele><time>2026-05-02T12:38:48.999Z</time></trkpt><trkpt lat="40.90524990432566" lon="9.100227266897543"><ele>543.0</ele><time>2026-05-02T12:38:49.999Z</time></trkpt><trkpt lat="40.9053324578011" lon="9.10017995837715"><ele>543.0</ele><time>2026-05-02T12:38:50.999Z</time></trkpt><trkpt lat="40.905391839335564" lon="9.100138433607029"><ele>542.8</ele><time>2026-05-02T12:38:51.999Z</time></trkpt><trkpt lat="40.90543703721246" lon="9.100030777738114"><ele>542.5999999999999</ele><time>2026-05-02T12:38:53.999Z</time></trkpt><trkpt lat="40.90539147554731" lon="9.099938916774324"><ele>542.4000000000001</ele><time>2026-05-02T12:38:55.999Z</time></trkpt><trkpt lat="40.905290201107285" lon="9.099892300946117"><ele>542.2</ele><time>2026-05-02T12:38:57.999Z</time></trkpt><trkpt lat="40.90519334147881" lon="9.099784928207898"><ele>542.0</ele><time>2026-05-02T12:39:00Z</time></trkpt><trkpt lat="40.90514795693438" lon="9.099709709766888"><ele>542.0</ele><time>2026-05-02T12:39:01Z</time></trkpt><trkpt lat="40.9050991212205" lon="9.099631593488713"><ele>542.0</ele><time>2026-05-02T12:39:02Z</time></trkpt><trkpt lat="40.90504655239626" lon="9.099548845683591"><ele>542.0</ele><time>2026-05-02T12:39:03Z</time></trkpt><trkpt lat="40.90498806347977" lon="9.099469323984454"><ele>542.0</ele><time>2026-05-02T12:39:04Z</time></trkpt><trkpt lat="40.90494691889558" lon="9.099368315494765"><ele>542.0</ele><time>2026-05-02T12:39:05Z</time></trkpt><trkpt lat="40.904889591451195" lon="9.099274017330947"><ele>542.0</ele><time>2026-05-02T12:39:06Z</time></trkpt><trkpt lat="40.90481824732108" lon="9.099189104139521"><ele>541.2</ele><time>2026-05-02T12:39:07Z</time></trkpt><trkpt lat="40.90476021886215" lon="9.099094482234303"><ele>540.4000000000001</ele><time>2026-05-02T12:39:08Z</time></trkpt><trkpt lat="40.90469881742069" lon="9.098992335573506"><ele>539.5999999999999</ele><time>2026-05-02T12:39:09Z</time></trkpt><trkpt lat="40.904649430471075" lon="9.098879437866186"><ele>538.8</ele><time>2026-05-02T12:39:10Z</time></trkpt><trkpt lat="40.90457715864395" lon="9.098790852337189"><ele>538.0</ele><time>2026-05-02T12:39:11Z</time></trkpt><trkpt lat="40.90453046486304" lon="9.098683708731471"><ele>536.8</ele><time>2026-05-02T12:39:12Z</time></trkpt><trkpt lat="40.904508254265366" lon="9.098564398279503"><ele>535.5999999999999</ele><time>2026-05-02T12:39:13Z</time></trkpt><trkpt lat="40.90448626443426" lon="9.098449646047598"><ele>534.4000000000001</ele><time>2026-05-02T12:39:14Z</time></trkpt><trkpt lat="40.904502990540195" lon="9.09831810258965"><ele>533.2</ele><time>2026-05-02T12:39:15Z</time></trkpt><trkpt lat="40.90453581109505" lon="9.098183052917948"><ele>532.0</ele><time>2026-05-02T12:39:16Z</time></trkpt><trkpt lat="40.904567607564424" lon="9.098064006487366"><ele>529.8000000000001</ele><time>2026-05-02T12:39:17Z</time></trkpt><trkpt lat="40.90459065181943" lon="9.097983366503671"><ele>527.6</ele><time>2026-05-02T12:39:18Z</time></trkpt><trkpt lat="40.90462060690926" lon="9.097892351640615"><ele>525.4000000000001</ele><time>2026-05-02T12:39:22Z</time></trkpt><trkpt lat="40.90466697814567" lon="9.097816802923752"><ele>523.2</ele><time>2026-05-02T12:39:24Z</time></trkpt><trkpt lat="40.904778854050726" lon="9.097731978126548"><ele>521.0</ele><time>2026-05-02T12:39:26Z</time></trkpt><trkpt lat="40.90475875174538" lon="9.097463402812965"><ele>521.0</ele><time>2026-05-02T12:39:27Z</time></trkpt><trkpt lat="40.904814837441435" lon="9.097340986927984"><ele>521.0</ele><time>2026-05-02T12:39:28Z</time></trkpt><trkpt lat="40.90488676856861" lon="9.097220943997911"><ele>521.0</ele><time>2026-05-02T12:39:29Z</time></trkpt><trkpt lat="40.904966782862566" lon="9.097093800623771"><ele>521.0</ele><time>2026-05-02T12:39:30Z</time></trkpt><trkpt lat="40.905144885103226" lon="9.097058494811645"><ele>521.0</ele><time>2026-05-02T12:39:31Z</time></trkpt><trkpt lat="40.90522426198518" lon="9.096917472940515"><ele>521.0</ele><time>2026-05-02T12:39:32Z</time></trkpt><trkpt lat="40.90523367656351" lon="9.09671176996165"><ele>521.0</ele><time>2026-05-02T12:39:33Z</time></trkpt><trkpt lat="40.90532063002116" lon="9.096579343613932"><ele>521.0</ele><time>2026-05-02T12:39:34Z</time></trkpt><trkpt lat="40.90540631292541" lon="9.096450736643934"><ele>518.25</ele><time>2026-05-02T12:39:35Z</time></trkpt><trkpt lat="40.905496754383464" lon="9.096321664017886"><ele>515.5</ele><time>2026-05-02T12:39:36Z</time></trkpt><trkpt lat="40.90558974095258" lon="9.096196868512465"><ele>512.75</ele><time>2026-05-02T12:39:37Z</time></trkpt><trkpt lat="40.90568995978401" lon="9.096073137298493"><ele>510.0</ele><time>2026-05-02T12:39:38Z</time></trkpt><trkpt lat="40.905796774136086" lon="9.095961289923071"><ele>510.5</ele><time>2026-05-02T12:39:39Z</time></trkpt><trkpt lat="40.90591326847287" lon="9.095865442403795"><ele>511.0</ele><time>2026-05-02T12:39:40Z</time></trkpt><trkpt lat="40.90603806874968" lon="9.095783338453181"><ele>511.5</ele><time>2026-05-02T12:39:41Z</time></trkpt><trkpt lat="40.90617540725272" lon="9.095735103592013"><ele>512.0</ele><time>2026-05-02T12:39:42Z</time></trkpt><trkpt lat="40.90631864259224" lon="9.095724037018648"><ele>510.75</ele><time>2026-05-02T12:39:43Z</time></trkpt><trkpt lat="40.90646006714204" lon="9.095728732020982"><ele>509.5</ele><time>2026-05-02T12:39:44Z</time></trkpt><trkpt lat="40.906584297287644" lon="9.095715840162555"><ele>508.25</ele><time>2026-05-02T12:39:45Z</time></trkpt><trkpt lat="40.9066893172304" lon="9.095654209501763"><ele>507.0</ele><time>2026-05-02T12:39:46Z</time></trkpt><trkpt lat="40.90678272420629" lon="9.095519994701316"><ele>507.0</ele><time>2026-05-02T12:39:47Z</time></trkpt><trkpt lat="40.906863212066284" lon="9.095364278165727"><ele>507.0</ele><time>2026-05-02T12:39:48Z</time></trkpt><trkpt lat="40.906949096829294" lon="9.09521040695556"><ele>507.0</ele><time>2026-05-02T12:39:49Z</time></trkpt><trkpt lat="40.9070343624109" lon="9.095059555251444"><ele>507.0</ele><time>2026-05-02T12:39:50Z</time></trkpt><trkpt lat="40.9070874076136" lon="9.09488947435884"><ele>505.0</ele><time>2026-05-02T12:39:51Z</time></trkpt><trkpt lat="40.90712269658788" lon="9.094700737683445"><ele>503.0</ele><time>2026-05-02T12:39:52Z</time></trkpt><trkpt lat="40.907126116363386" lon="9.094523490422175"><ele>501.0</ele><time>2026-05-02T12:39:53Z</time></trkpt><trkpt lat="40.90711201271393" lon="9.094337385680804"><ele>499.0</ele><time>2026-05-02T12:39:54Z</time></trkpt><trkpt lat="40.907113743215156" lon="9.094139074729673"><ele>496.0</ele><time>2026-05-02T12:39:55Z</time></trkpt><trkpt lat="40.90710318214097" lon="9.093926235844885"><ele>493.0</ele><time>2026-05-02T12:39:56Z</time></trkpt><trkpt lat="40.907078387594076" lon="9.093716284463078"><ele>490.0</ele><time>2026-05-02T12:39:57Z</time></trkpt><trkpt lat="40.907072661233094" lon="9.09351031076884"><ele>490.0</ele><time>2026-05-02T12:39:58Z</time></trkpt><trkpt lat="40.90706361930547" lon="9.093302770337196"><ele>490.0</ele><time>2026-05-02T12:39:59Z</time></trkpt><trkpt lat="40.907062314029645" lon="9.093098744241992"><ele>490.0</ele><time>2026-05-02T12:40:00Z</time></trkpt><trkpt lat="40.90708100495509" lon="9.092895691956373"><ele>490.0</ele><time>2026-05-02T12:40:01Z</time></trkpt><trkpt lat="40.9071269899999" lon="9.092699080590053"><ele>490.0</ele><time>2026-05-02T12:40:02Z</time></trkpt><trkpt lat="40.907197483866334" lon="9.092512895877334"><ele>490.0</ele><time>2026-05-02T12:40:03Z</time></trkpt><trkpt lat="40.90728067540838" lon="9.092338407868375"><ele>490.33333333333337</ele><time>2026-05-02T12:40:04Z</time></trkpt><trkpt lat="40.907355149177526" lon="9.092158311369898"><ele>490.66666666666663</ele><time>2026-05-02T12:40:05Z</time></trkpt><trkpt lat="40.90741975852337" lon="9.091970541627399"><ele>491.0</ele><time>2026-05-02T12:40:06Z</time></trkpt><trkpt lat="40.907464798163026" lon="9.09177678883364"><ele>490.0</ele><time>2026-05-02T12:40:07Z</time></trkpt><trkpt lat="40.907469073605334" lon="9.091570115198568"><ele>489.0</ele><time>2026-05-02T12:40:08Z</time></trkpt><trkpt lat="40.90743296798001" lon="9.091363659403587"><ele>488.0</ele><time>2026-05-02T12:40:09Z</time></trkpt><trkpt lat="40.907379659699615" lon="9.091158264022438"><ele>488.0</ele><time>2026-05-02T12:40:10Z</time></trkpt><trkpt lat="40.907326346405526" lon="9.090962947762316"><ele>488.0</ele><time>2026-05-02T12:40:11Z</time></trkpt><trkpt lat="40.90729923758368" lon="9.090755179513891"><ele>488.0</ele><time>2026-05-02T12:40:12Z</time></trkpt><trkpt lat="40.907278508563316" lon="9.090546769254924"><ele>487.66666666666663</ele><time>2026-05-02T12:40:13Z</time></trkpt><trkpt lat="40.907276445568776" lon="9.09033559031241"><ele>487.33333333333337</ele><time>2026-05-02T12:40:14Z</time></trkpt><trkpt lat="40.907333652588704" lon="9.090127704183404"><ele>487.0</ele><time>2026-05-02T12:40:15Z</time></trkpt><trkpt lat="40.907404114781414" lon="9.089926624742553"><ele>488.6666666666667</ele><time>2026-05-02T12:40:16Z</time></trkpt><trkpt lat="40.907470794585514" lon="9.08973001210672"><ele>490.33333333333337</ele><time>2026-05-02T12:40:17Z</time></trkpt><trkpt lat="40.90752916077563" lon="9.089532211406782"><ele>492.0</ele><time>2026-05-02T12:40:18Z</time></trkpt><trkpt lat="40.907582552081124" lon="9.08933614200691"><ele>487.33333333333337</ele><time>2026-05-02T12:40:19Z</time></trkpt><trkpt lat="40.90763814848283" lon="9.08913545924542"><ele>482.6666666666667</ele><time>2026-05-02T12:40:20Z</time></trkpt><trkpt lat="40.90769272738125" lon="9.088934993426145"><ele>478.0</ele><time>2026-05-02T12:40:21Z</time></trkpt><trkpt lat="40.907749045649005" lon="9.088738848088243"><ele>478.0</ele><time>2026-05-02T12:40:22Z</time></trkpt><trkpt lat="40.90780429958553" lon="9.08853620210063"><ele>478.0</ele><time>2026-05-02T12:40:23Z</time></trkpt><trkpt lat="40.907853052520586" lon="9.088328508446821"><ele>478.0</ele><time>2026-05-02T12:40:24Z</time></trkpt><trkpt lat="40.907885087802356" lon="9.088112681699226"><ele>477.6666666666667</ele><time>2026-05-02T12:40:25Z</time></trkpt><trkpt lat="40.90790053042064" lon="9.087891299450302"><ele>477.33333333333337</ele><time>2026-05-02T12:40:26Z</time></trkpt><trkpt lat="40.90789681436619" lon="9.087687253452613"><ele>477.0</ele><time>2026-05-02T12:40:27Z</time></trkpt><trkpt lat="40.907886232450224" lon="9.087475767132782"><ele>477.66666666666663</ele><time>2026-05-02T12:40:28Z</time></trkpt><trkpt lat="40.90787924816442" lon="9.087264898814396"><ele>478.3333333333333</ele><time>2026-05-02T12:40:29Z</time></trkpt><trkpt lat="40.9078760480414" lon="9.087052020887471"><ele>479.0</ele><time>2026-05-02T12:40:30Z</time></trkpt><trkpt lat="40.90787375428548" lon="9.08683248247047"><ele>479.0</ele><time>2026-05-02T12:40:31Z</time></trkpt><trkpt lat="40.90787319859542" lon="9.086614757701316"><ele>479.0</ele><time>2026-05-02T12:40:32Z</time></trkpt><trkpt lat="40.90786940527006" lon="9.086404371812167"><ele>479.0</ele><time>2026-05-02T12:40:33Z</time></trkpt><trkpt lat="40.90786505715509" lon="9.086205796825348"><ele>478.25</ele><time>2026-05-02T12:40:34Z</time></trkpt><trkpt lat="40.907861054081756" lon="9.086007791417831"><ele>477.5</ele><time>2026-05-02T12:40:35Z</time></trkpt><trkpt lat="40.90786103976365" lon="9.0858118717163"><ele>476.75</ele><time>2026-05-02T12:40:36Z</time></trkpt><trkpt lat="40.90786238655701" lon="9.08561534721254"><ele>476.0</ele><time>2026-05-02T12:40:37Z</time></trkpt><trkpt lat="40.90786372170608" lon="9.085425314745757"><ele>475.75</ele><time>2026-05-02T12:40:38Z</time></trkpt><trkpt lat="40.907863304448064" lon="9.085234671986"><ele>475.5</ele><time>2026-05-02T12:40:39Z</time></trkpt><trkpt lat="40.90786199194561" lon="9.085042515504764"><ele>475.25</ele><time>2026-05-02T12:40:39.999Z</time></trkpt><trkpt lat="40.9078609679643" lon="9.084854818587173"><ele>475.0</ele><time>2026-05-02T12:40:40.999Z</time></trkpt><trkpt lat="40.90785689997091" lon="9.084669090397178"><ele>476.0</ele><time>2026-05-02T12:40:41.999Z</time></trkpt><trkpt lat="40.907853234010936" lon="9.084493579323903"><ele>477.0</ele><time>2026-05-02T12:40:42.999Z</time></trkpt><trkpt lat="40.90785488353584" lon="9.084325365307166"><ele>478.0</ele><time>2026-05-02T12:40:43.999Z</time></trkpt><trkpt lat="40.90786708230572" lon="9.084177034291319"><ele>479.0</ele><time>2026-05-02T12:40:44.999Z</time></trkpt><trkpt lat="40.907895077340505" lon="9.08405864374843"><ele>480.16666666666663</ele><time>2026-05-02T12:40:45.999Z</time></trkpt><trkpt lat="40.9079451702793" lon="9.083968277078384"><ele>481.3333333333333</ele><time>2026-05-02T12:40:46.999Z</time></trkpt><trkpt lat="40.908019625680424" lon="9.083909345675838"><ele>482.5</ele><time>2026-05-02T12:40:47.999Z</time></trkpt><trkpt lat="40.90809739835844" lon="9.083853617302646"><ele>483.66666666666663</ele><time>2026-05-02T12:40:48.999Z</time></trkpt><trkpt lat="40.90817466155946" lon="9.083791543785079"><ele>484.8333333333333</ele><time>2026-05-02T12:40:49.999Z</time></trkpt><trkpt lat="40.90825345730182" lon="9.083720048107631"><ele>486.0</ele><time>2026-05-02T12:40:50.999Z</time></trkpt><trkpt lat="40.908334760594805" lon="9.08365011324231"><ele>486.8</ele><time>2026-05-02T12:40:51.999Z</time></trkpt><trkpt lat="40.908418513391354" lon="9.083581398571836"><ele>487.6</ele><time>2026-05-02T12:40:52.999Z</time></trkpt><trkpt lat="40.908512342832495" lon="9.08353900068949"><ele>488.4</ele><time>2026-05-02T12:40:53.999Z</time></trkpt><trkpt lat="40.90862580124864" lon="9.083543506410427"><ele>489.2</ele><time>2026-05-02T12:40:54.999Z</time></trkpt><trkpt lat="40.908755992710326" lon="9.083553029353677"><ele>490.0</ele><time>2026-05-02T12:40:55.999Z</time></trkpt><trkpt lat="40.90889181335979" lon="9.083552160194381"><ele>490.0</ele><time>2026-05-02T12:40:56.999Z</time></trkpt><trkpt lat="40.90903998659451" lon="9.083551735183898"><ele>490.0</ele><time>2026-05-02T12:40:58Z</time></trkpt><trkpt lat="40.90919661900351" lon="9.083552313376986"><ele>490.0</ele><time>2026-05-02T12:40:59Z</time></trkpt><trkpt lat="40.909365090865776" lon="9.08354635006873"><ele>489.6666666666667</ele><time>2026-05-02T12:41:00Z</time></trkpt><trkpt lat="40.909534656519206" lon="9.083534901927814"><ele>489.33333333333337</ele><time>2026-05-02T12:41:01Z</time></trkpt><trkpt lat="40.90970704436504" lon="9.08351137233958"><ele>489.0</ele><time>2026-05-02T12:41:02Z</time></trkpt><trkpt lat="40.90987780852675" lon="9.08347253397747"><ele>489.0</ele><time>2026-05-02T12:41:03Z</time></trkpt><trkpt lat="40.910055022970006" lon="9.083419635369408"><ele>489.0</ele><time>2026-05-02T12:41:04Z</time></trkpt><trkpt lat="40.91023374295014" lon="9.08336629508196"><ele>489.0</ele><time>2026-05-02T12:41:05Z</time></trkpt><trkpt lat="40.91041497701346" lon="9.083316375718935"><ele>491.66666666666663</ele><time>2026-05-02T12:41:06Z</time></trkpt><trkpt lat="40.91059179463955" lon="9.083261342900107"><ele>494.3333333333333</ele><time>2026-05-02T12:41:07Z</time></trkpt><trkpt lat="40.91075496501618" lon="9.083180177431506"><ele>497.0</ele><time>2026-05-02T12:41:08Z</time></trkpt><trkpt lat="40.91089824203852" lon="9.083062407383586"><ele>490.66666666666663</ele><time>2026-05-02T12:41:09Z</time></trkpt><trkpt lat="40.9110291385188" lon="9.082911315951543"><ele>484.33333333333337</ele><time>2026-05-02T12:41:10Z</time></trkpt><trkpt lat="40.91114162234501" lon="9.082732580105775"><ele>478.0</ele><time>2026-05-02T12:41:11Z</time></trkpt><trkpt lat="40.91124239919493" lon="9.082541427042843"><ele>480.6666666666667</ele><time>2026-05-02T12:41:12Z</time></trkpt><trkpt lat="40.91134312089393" lon="9.082349156579335"><ele>483.33333333333337</ele><time>2026-05-02T12:41:13Z</time></trkpt><trkpt lat="40.91144492242795" lon="9.082161238451885"><ele>486.0</ele><time>2026-05-02T12:41:14Z</time></trkpt><trkpt lat="40.911539102409094" lon="9.081964864870299"><ele>486.0</ele><time>2026-05-02T12:41:15Z</time></trkpt><trkpt lat="40.91161560645445" lon="9.081753490076684"><ele>486.0</ele><time>2026-05-02T12:41:16Z</time></trkpt><trkpt lat="40.911684971787054" lon="9.081535688445497"><ele>486.0</ele><time>2026-05-02T12:41:17Z</time></trkpt><trkpt lat="40.911748599458676" lon="9.081322910578082"><ele>482.0</ele><time>2026-05-02T12:41:18Z</time></trkpt><trkpt lat="40.911810540976255" lon="9.081127803090387"><ele>478.0</ele><time>2026-05-02T12:41:19Z</time></trkpt><trkpt lat="40.9118681232787" lon="9.08094813029575"><ele>474.0</ele><time>2026-05-02T12:41:20Z</time></trkpt><trkpt lat="40.91191362117394" lon="9.080767006940894"><ele>475.66666666666663</ele><time>2026-05-02T12:41:21Z</time></trkpt><trkpt lat="40.911931924391666" lon="9.08057369756295"><ele>477.3333333333333</ele><time>2026-05-02T12:41:22Z</time></trkpt><trkpt lat="40.91192765229525" lon="9.08036333885061"><ele>479.0</ele><time>2026-05-02T12:41:23Z</time></trkpt><trkpt lat="40.91190467415021" lon="9.080154071189495"><ele>479.0</ele><time>2026-05-02T12:41:24Z</time></trkpt><trkpt lat="40.911882284020265" lon="9.079937211744769"><ele>479.0</ele><time>2026-05-02T12:41:25Z</time></trkpt><trkpt lat="40.91187918555987" lon="9.079724248307055"><ele>479.0</ele><time>2026-05-02T12:41:26Z</time></trkpt><trkpt lat="40.911854956438575" lon="9.079522067421207"><ele>482.0</ele><time>2026-05-02T12:41:27Z</time></trkpt><trkpt lat="40.911837253248386" lon="9.07931391227769"><ele>485.0</ele><time>2026-05-02T12:41:28Z</time></trkpt><trkpt lat="40.9118225599786" lon="9.079113882660568"><ele>488.0</ele><time>2026-05-02T12:41:29Z</time></trkpt><trkpt lat="40.91180926386711" lon="9.078910189223084"><ele>489.75</ele><time>2026-05-02T12:41:30Z</time></trkpt><trkpt lat="40.9117950666806" lon="9.078713438073269"><ele>491.5</ele><time>2026-05-02T12:41:31Z</time></trkpt><trkpt lat="40.91178343696272" lon="9.078514972938228"><ele>493.25</ele><time>2026-05-02T12:41:32Z</time></trkpt><trkpt lat="40.91177912082833" lon="9.078329627250822"><ele>495.0</ele><time>2026-05-02T12:41:33Z</time></trkpt><trkpt lat="40.91181478053358" lon="9.078157633884445"><ele>499.25</ele><time>2026-05-02T12:41:34Z</time></trkpt><trkpt lat="40.91184644934052" lon="9.077984925823742"><ele>503.5</ele><time>2026-05-02T12:41:35Z</time></trkpt><trkpt lat="40.91192704266273" lon="9.077879217998767"><ele>507.75</ele><time>2026-05-02T12:41:36Z</time></trkpt><trkpt lat="40.91202323245788" lon="9.077835834064095"><ele>512.0</ele><time>2026-05-02T12:41:37Z</time></trkpt><trkpt lat="40.91213058328135" lon="9.07790720338556"><ele>512.0</ele><time>2026-05-02T12:41:38Z</time></trkpt><trkpt lat="40.91222934462877" lon="9.077974217716543"><ele>512.0</ele><time>2026-05-02T12:41:39Z</time></trkpt><trkpt lat="40.91230716407222" lon="9.078052671208606"><ele>512.0</ele><time>2026-05-02T12:41:40Z</time></trkpt><trkpt lat="40.91246192625662" lon="9.078099866924"><ele>512.0</ele><time>2026-05-02T12:41:41Z</time></trkpt><trkpt lat="40.9126053197182" lon="9.078156312155414"><ele>512.3333333333333</ele><time>2026-05-02T12:41:42Z</time></trkpt><trkpt lat="40.91275972714725" lon="9.078207072859556"><ele>512.6666666666666</ele><time>2026-05-02T12:41:43Z</time></trkpt><trkpt lat="40.91290923597562" lon="9.078277574923174"><ele>513.0</ele><time>2026-05-02T12:41:44Z</time></trkpt><trkpt lat="40.913048386661565" lon="9.078370693691758"><ele>513.0</ele><time>2026-05-02T12:41:45Z</time></trkpt><trkpt lat="40.913171437425405" lon="9.078505057558914"><ele>513.0</ele><time>2026-05-02T12:41:46Z</time></trkpt><trkpt lat="40.913276012807785" lon="9.078674758586095"><ele>513.0</ele><time>2026-05-02T12:41:47Z</time></trkpt><trkpt lat="40.91337157510403" lon="9.07884227837166"><ele>512.75</ele><time>2026-05-02T12:41:48Z</time></trkpt><trkpt lat="40.913464194768245" lon="9.078992940901415"><ele>512.5</ele><time>2026-05-02T12:41:49Z</time></trkpt><trkpt lat="40.91356093483051" lon="9.079126091192737"><ele>512.25</ele><time>2026-05-02T12:41:50Z</time></trkpt><trkpt lat="40.913670904705846" lon="9.079232666914114"><ele>512.0</ele><time>2026-05-02T12:41:51Z</time></trkpt><trkpt lat="40.913806575387376" lon="9.079294485750285"><ele>512.0</ele><time>2026-05-02T12:41:52Z</time></trkpt><trkpt lat="40.91395859338911" lon="9.079299598307598"><ele>512.0</ele><time>2026-05-02T12:41:53Z</time></trkpt><trkpt lat="40.91411318929361" lon="9.079270018184276"><ele>512.0</ele><time>2026-05-02T12:41:54Z</time></trkpt><trkpt lat="40.91427037760641" lon="9.079248386430276"><ele>512.3333333333333</ele><time>2026-05-02T12:41:55Z</time></trkpt><trkpt lat="40.914425543729" lon="9.079252489263228"><ele>512.6666666666666</ele><time>2026-05-02T12:41:56Z</time></trkpt><trkpt lat="40.914578436009265" lon="9.079270321935315"><ele>513.0</ele><time>2026-05-02T12:41:57Z</time></trkpt><trkpt lat="40.91472811303147" lon="9.07931756291506"><ele>513.0</ele><time>2026-05-02T12:41:58Z</time></trkpt><trkpt lat="40.91486485445057" lon="9.079391978432174"><ele>513.0</ele><time>2026-05-02T12:41:59Z</time></trkpt><trkpt lat="40.914987232610585" lon="9.079467571544203"><ele>513.0</ele><time>2026-05-02T12:42:00Z</time></trkpt><trkpt lat="40.915088643504106" lon="9.079528824049119"><ele>513.0</ele><time>2026-05-02T12:42:01Z</time></trkpt><trkpt lat="40.91517831527145" lon="9.079578771082025"><ele>512.5</ele><time>2026-05-02T12:42:02Z</time></trkpt><trkpt lat="40.915261651133896" lon="9.07962790686314"><ele>512.0</ele><time>2026-05-02T12:42:03Z</time></trkpt><trkpt lat="40.915343424057625" lon="9.07966724176298"><ele>511.5</ele><time>2026-05-02T12:42:04Z</time></trkpt><trkpt lat="40.91542109280677" lon="9.079680766418152"><ele>511.0</ele><time>2026-05-02T12:42:05Z</time></trkpt><trkpt lat="40.91549398411285" lon="9.079670035064456"><ele>510.5</ele><time>2026-05-02T12:42:06Z</time></trkpt><trkpt lat="40.91557056465059" lon="9.079612783422446"><ele>510.0</ele><time>2026-05-02T12:42:07Z</time></trkpt><trkpt lat="40.91564435478087" lon="9.0795148173781"><ele>510.0</ele><time>2026-05-02T12:42:08Z</time></trkpt><trkpt lat="40.915698289699414" lon="9.079374077216535"><ele>510.0</ele><time>2026-05-02T12:42:09Z</time></trkpt><trkpt lat="40.91572397741998" lon="9.079197272193753"><ele>510.0</ele><time>2026-05-02T12:42:10Z</time></trkpt><trkpt lat="40.915742612246824" lon="9.079009915263056"><ele>510.0</ele><time>2026-05-02T12:42:11Z</time></trkpt><trkpt lat="40.91576197283126" lon="9.078828988899946"><ele>509.5</ele><time>2026-05-02T12:42:12Z</time></trkpt><trkpt lat="40.91579101865515" lon="9.078642894880566"><ele>509.0</ele><time>2026-05-02T12:42:13Z</time></trkpt><trkpt lat="40.915824841700044" lon="9.078447012731663"><ele>508.5</ele><time>2026-05-02T12:42:14Z</time></trkpt><trkpt lat="40.91584323892634" lon="9.078245951471796"><ele>508.0</ele><time>2026-05-02T12:42:15Z</time></trkpt><trkpt lat="40.91584478267107" lon="9.0780426094292"><ele>506.0</ele><time>2026-05-02T12:42:16Z</time></trkpt><trkpt lat="40.915824415752446" lon="9.077836310170413"><ele>504.0</ele><time>2026-05-02T12:42:17Z</time></trkpt><trkpt lat="40.91578603689543" lon="9.077634804037318"><ele>502.0</ele><time>2026-05-02T12:42:18Z</time></trkpt><trkpt lat="40.915742762110966" lon="9.077424556856094"><ele>499.0</ele><time>2026-05-02T12:42:19Z</time></trkpt><trkpt lat="40.91570440104779" lon="9.077208466590093"><ele>496.0</ele><time>2026-05-02T12:42:20Z</time></trkpt><trkpt lat="40.91567029429285" lon="9.076993672824033"><ele>493.0</ele><time>2026-05-02T12:42:21Z</time></trkpt><trkpt lat="40.91563401714681" lon="9.076774140176402"><ele>489.33333333333337</ele><time>2026-05-02T12:42:22Z</time></trkpt><trkpt lat="40.915584709056446" lon="9.076556464769773"><ele>485.66666666666663</ele><time>2026-05-02T12:42:23Z</time></trkpt><trkpt lat="40.91550215724619" lon="9.076352271662198"><ele>482.0</ele><time>2026-05-02T12:42:24Z</time></trkpt><trkpt lat="40.91538874967875" lon="9.076176745309303"><ele>482.0</ele><time>2026-05-02T12:42:25Z</time></trkpt><trkpt lat="40.9152555160727" lon="9.076017050629572"><ele>482.0</ele><time>2026-05-02T12:42:26Z</time></trkpt><trkpt lat="40.91514973623569" lon="9.075854335117072"><ele>482.0</ele><time>2026-05-02T12:42:27Z</time></trkpt><trkpt lat="40.91506799765158" lon="9.075718528905695"><ele>483.0</ele><time>2026-05-02T12:42:28Z</time></trkpt><trkpt lat="40.91501628554108" lon="9.07555660237595"><ele>484.0</ele><time>2026-05-02T12:42:29Z</time></trkpt><trkpt lat="40.91503214366704" lon="9.07537185638361"><ele>485.0</ele><time>2026-05-02T12:42:30Z</time></trkpt><trkpt lat="40.91501337158927" lon="9.075159113656635"><ele>486.0</ele><time>2026-05-02T12:42:31Z</time></trkpt><trkpt lat="40.91498747443804" lon="9.074942567774574"><ele>483.33333333333337</ele><time>2026-05-02T12:42:32Z</time></trkpt><trkpt lat="40.91493857838282" lon="9.074718323420026"><ele>480.6666666666667</ele><time>2026-05-02T12:42:33Z</time></trkpt><trkpt lat="40.91489089084769" lon="9.07449850209233"><ele>478.0</ele><time>2026-05-02T12:42:34Z</time></trkpt><trkpt lat="40.91486884226312" lon="9.074279474295508"><ele>477.33333333333337</ele><time>2026-05-02T12:42:35Z</time></trkpt><trkpt lat="40.914879653776396" lon="9.074061344347648"><ele>476.66666666666663</ele><time>2026-05-02T12:42:36Z</time></trkpt><trkpt lat="40.91491197228371" lon="9.073832950091097"><ele>476.0</ele><time>2026-05-02T12:42:37Z</time></trkpt><trkpt lat="40.91497177677897" lon="9.073608082849145"><ele>476.0</ele><time>2026-05-02T12:42:38Z</time></trkpt><trkpt lat="40.91500222477433" lon="9.073373359261973"><ele>476.0</ele><time>2026-05-02T12:42:39Z</time></trkpt><trkpt lat="40.91505034047924" lon="9.073147680184412"><ele>476.0</ele><time>2026-05-02T12:42:40Z</time></trkpt><trkpt lat="40.91509439522545" lon="9.072937175424967"><ele>476.25</ele><time>2026-05-02T12:42:41Z</time></trkpt><trkpt lat="40.91513201011576" lon="9.072749536418746"><ele>476.5</ele><time>2026-05-02T12:42:42Z</time></trkpt><trkpt lat="40.915176749607795" lon="9.072591353671891"><ele>476.75</ele><time>2026-05-02T12:42:43Z</time></trkpt><trkpt lat="40.9152411100417" lon="9.072469798556304"><ele>477.0</ele><time>2026-05-02T12:42:44Z</time></trkpt><trkpt lat="40.9153305627349" lon="9.072381763246117"><ele>478.40000000000003</ele><time>2026-05-02T12:42:45Z</time></trkpt><trkpt lat="40.915427864424394" lon="9.072320263645429"><ele>479.80000000000007</ele><time>2026-05-02T12:42:46Z</time></trkpt><trkpt lat="40.91551188647332" lon="9.072276594043245"><ele>481.2</ele><time>2026-05-02T12:42:47Z</time></trkpt><trkpt lat="40.91558828954929" lon="9.072236185308128"><ele>482.6</ele><time>2026-05-02T12:42:48Z</time></trkpt><trkpt lat="40.9156549018068" lon="9.072209495798688"><ele>484.0</ele><time>2026-05-02T12:42:49Z</time></trkpt><trkpt lat="40.915755619505774" lon="9.072195507015266"><ele>484.0</ele><time>2026-05-02T12:42:51Z</time></trkpt><trkpt lat="40.91574621981062" lon="9.072042614758836"><ele>484.0</ele><time>2026-05-02T12:42:54Z</time></trkpt><trkpt lat="40.915699774536705" lon="9.071914732203599"><ele>484.0</ele><time>2026-05-02T12:42:56Z</time></trkpt><trkpt lat="40.915649083717774" lon="9.071815643317539"><ele>484.0</ele><time>2026-05-02T12:42:57Z</time></trkpt><trkpt lat="40.91559328535521" lon="9.071706254800278"><ele>484.0</ele><time>2026-05-02T12:42:58Z</time></trkpt><trkpt lat="40.91554462095431" lon="9.071606898041106"><ele>485.5</ele><time>2026-05-02T12:42:59Z</time></trkpt><trkpt lat="40.915499050472434" lon="9.071514042168742"><ele>487.0</ele><time>2026-05-02T12:43:00Z</time></trkpt><trkpt lat="40.915440153458626" lon="9.07139403163771"><ele>488.5</ele><time>2026-05-02T12:43:01Z</time></trkpt><trkpt lat="40.91536926296101" lon="9.071251374523843"><ele>490.0</ele><time>2026-05-02T12:43:02Z</time></trkpt><trkpt lat="40.915289813887625" lon="9.07110515975316"><ele>490.0</ele><time>2026-05-02T12:43:03Z</time></trkpt><trkpt lat="40.91521438528945" lon="9.070954919933984"><ele>490.0</ele><time>2026-05-02T12:43:04Z</time></trkpt><trkpt lat="40.9151531768234" lon="9.07081867821224"><ele>490.0</ele><time>2026-05-02T12:43:05Z</time></trkpt><trkpt lat="40.915106330581104" lon="9.07067569197169"><ele>490.0</ele><time>2026-05-02T12:43:06Z</time></trkpt><trkpt lat="40.91506423089852" lon="9.070528631062404"><ele>488.4</ele><time>2026-05-02T12:43:07Z</time></trkpt><trkpt lat="40.91503084985129" lon="9.070357456665059"><ele>486.8</ele><time>2026-05-02T12:43:08Z</time></trkpt><trkpt lat="40.91500726812285" lon="9.070180257491584"><ele>485.20000000000005</ele><time>2026-05-02T12:43:09Z</time></trkpt><trkpt lat="40.914956047007955" lon="9.070059172610959"><ele>483.6</ele><time>2026-05-02T12:43:10Z</time></trkpt><trkpt lat="40.91492420829811" lon="9.069972665464185"><ele>482.0</ele><time>2026-05-02T12:43:11Z</time></trkpt><trkpt lat="40.914729380450225" lon="9.069962235128523"><ele>483.75</ele><time>2026-05-02T12:43:12Z</time></trkpt><trkpt lat="40.9146296641182" lon="9.06989424911199"><ele>485.5</ele><time>2026-05-02T12:43:13Z</time></trkpt><trkpt lat="40.91452305150947" lon="9.069813653350765"><ele>487.25</ele><time>2026-05-02T12:43:14Z</time></trkpt><trkpt lat="40.91441727740635" lon="9.06972187421246"><ele>489.0</ele><time>2026-05-02T12:43:15Z</time></trkpt><trkpt lat="40.91431583408183" lon="9.069619165677949"><ele>488.5</ele><time>2026-05-02T12:43:16Z</time></trkpt><trkpt lat="40.91421871484018" lon="9.069496794720092"><ele>488.0</ele><time>2026-05-02T12:43:17Z</time></trkpt><trkpt lat="40.9141290727185" lon="9.069354586608833"><ele>487.5</ele><time>2026-05-02T12:43:18Z</time></trkpt><trkpt lat="40.91404436003555" lon="9.069198188408613"><ele>487.0</ele><time>2026-05-02T12:43:19Z</time></trkpt><trkpt lat="40.91396508770696" lon="9.069051112808538"><ele>488.5</ele><time>2026-05-02T12:43:20Z</time></trkpt><trkpt lat="40.913894843421666" lon="9.068912613125645"><ele>490.0</ele><time>2026-05-02T12:43:21Z</time></trkpt><trkpt lat="40.9138245970915" lon="9.068780761934784"><ele>491.5</ele><time>2026-05-02T12:43:22Z</time></trkpt><trkpt lat="40.91374505595794" lon="9.068647309060319"><ele>493.0</ele><time>2026-05-02T12:43:23Z</time></trkpt><trkpt lat="40.913659046539074" lon="9.06849298703055"><ele>493.0</ele><time>2026-05-02T12:43:24Z</time></trkpt><trkpt lat="40.91355610493747" lon="9.068344251364604"><ele>493.0</ele><time>2026-05-02T12:43:25Z</time></trkpt><trkpt lat="40.913444925195755" lon="9.068206363102524"><ele>493.0</ele><time>2026-05-02T12:43:26Z</time></trkpt><trkpt lat="40.913342929370536" lon="9.068067682101839"><ele>492.5</ele><time>2026-05-02T12:43:27Z</time></trkpt><trkpt lat="40.913253012956545" lon="9.067941608988914"><ele>492.0</ele><time>2026-05-02T12:43:28Z</time></trkpt><trkpt lat="40.91316768199741" lon="9.06782196526286"><ele>491.5</ele><time>2026-05-02T12:43:29Z</time></trkpt><trkpt lat="40.91307283997749" lon="9.067686058219186"><ele>491.0</ele><time>2026-05-02T12:43:30Z</time></trkpt><trkpt lat="40.91297922186205" lon="9.067549073668944"><ele>492.5</ele><time>2026-05-02T12:43:31Z</time></trkpt><trkpt lat="40.9128852569496" lon="9.067404320444497"><ele>494.0</ele><time>2026-05-02T12:43:32Z</time></trkpt><trkpt lat="40.91278572105398" lon="9.067279064326296"><ele>495.5</ele><time>2026-05-02T12:43:33Z</time></trkpt><trkpt lat="40.91268718770673" lon="9.067135876850422"><ele>497.0</ele><time>2026-05-02T12:43:34Z</time></trkpt><trkpt lat="40.91256964236582" lon="9.067016571135206"><ele>497.5</ele><time>2026-05-02T12:43:35Z</time></trkpt><trkpt lat="40.9124509113413" lon="9.066908915970247"><ele>498.0</ele><time>2026-05-02T12:43:36Z</time></trkpt><trkpt lat="40.91232814396675" lon="9.066796910129511"><ele>498.5</ele><time>2026-05-02T12:43:37Z</time></trkpt><trkpt lat="40.91220677483056" lon="9.066685798139442"><ele>499.0</ele><time>2026-05-02T12:43:38Z</time></trkpt><trkpt lat="40.91208247361184" lon="9.066568002900805"><ele>501.75</ele><time>2026-05-02T12:43:39Z</time></trkpt><trkpt lat="40.91197075517921" lon="9.066460980322347"><ele>504.5</ele><time>2026-05-02T12:43:40Z</time></trkpt><trkpt lat="40.91186493435735" lon="9.066374337970373"><ele>507.25</ele><time>2026-05-02T12:43:41Z</time></trkpt><trkpt lat="40.91174371724961" lon="9.066305270322284"><ele>510.0</ele><time>2026-05-02T12:43:42Z</time></trkpt><trkpt lat="40.91159687053947" lon="9.066245098651336"><ele>510.0</ele><time>2026-05-02T12:43:43Z</time></trkpt><trkpt lat="40.91145478767659" lon="9.066191000642407"><ele>510.0</ele><time>2026-05-02T12:43:44Z</time></trkpt><trkpt lat="40.91133271090935" lon="9.066145666804571"><ele>510.0</ele><time>2026-05-02T12:43:45Z</time></trkpt><trkpt lat="40.91121250386339" lon="9.066101027303931"><ele>510.0</ele><time>2026-05-02T12:43:46Z</time></trkpt><trkpt lat="40.91107860175149" lon="9.066051302075659"><ele>510.0</ele><time>2026-05-02T12:43:47Z</time></trkpt><trkpt lat="40.91093486119737" lon="9.065995789525477"><ele>510.0</ele><time>2026-05-02T12:43:48Z</time></trkpt><trkpt lat="40.91078889645542" lon="9.065936082456394"><ele>510.0</ele><time>2026-05-02T12:43:49Z</time></trkpt><trkpt lat="40.9106463534547" lon="9.065865406666221"><ele>509.75</ele><time>2026-05-02T12:43:50Z</time></trkpt><trkpt lat="40.9105286435895" lon="9.06578283107632"><ele>509.5</ele><time>2026-05-02T12:43:51Z</time></trkpt><trkpt lat="40.910424902924795" lon="9.065701911472724"><ele>509.25</ele><time>2026-05-02T12:43:52Z</time></trkpt><trkpt lat="40.910321540792665" lon="9.065618388032764"><ele>509.0</ele><time>2026-05-02T12:43:53Z</time></trkpt><trkpt lat="40.910215349052976" lon="9.065532578350613"><ele>511.0</ele><time>2026-05-02T12:43:54Z</time></trkpt><trkpt lat="40.91012120951178" lon="9.065447786310633"><ele>513.0</ele><time>2026-05-02T12:43:55Z</time></trkpt><trkpt lat="40.91005030937225" lon="9.065365961646043"><ele>515.0</ele><time>2026-05-02T12:43:56Z</time></trkpt><trkpt lat="40.909996612256336" lon="9.065278881609949"><ele>517.0</ele><time>2026-05-02T12:43:57Z</time></trkpt><trkpt lat="40.9099389790521" lon="9.065168949746644"><ele>519.0</ele><time>2026-05-02T12:43:58Z</time></trkpt><trkpt lat="40.90987234246673" lon="9.065061086310692"><ele>521.0</ele><time>2026-05-02T12:43:59Z</time></trkpt><trkpt lat="40.90982371153847" lon="9.06492845235262"><ele>523.0</ele><time>2026-05-02T12:44:00Z</time></trkpt><trkpt lat="40.909771013845244" lon="9.064796340989226"><ele>525.0</ele><time>2026-05-02T12:44:01Z</time></trkpt><trkpt lat="40.909737386277776" lon="9.064670517166444"><ele>527.0</ele><time>2026-05-02T12:44:02Z</time></trkpt><trkpt lat="40.90973895948059" lon="9.06456411511828"><ele>529.0</ele><time>2026-05-02T12:44:03Z</time></trkpt><trkpt lat="40.909780347175115" lon="9.064458357715445"><ele>529.0</ele><time>2026-05-02T12:44:04Z</time></trkpt><trkpt lat="40.909829038241135" lon="9.064318581303164"><ele>529.0</ele><time>2026-05-02T12:44:05Z</time></trkpt><trkpt lat="40.909885073684755" lon="9.064164064035294"><ele>529.0</ele><time>2026-05-02T12:44:06Z</time></trkpt><trkpt lat="40.90993048270863" lon="9.064001184915965"><ele>529.0</ele><time>2026-05-02T12:44:07Z</time></trkpt><trkpt lat="40.90994523779783" lon="9.063865338823632"><ele>531.0</ele><time>2026-05-02T12:44:08Z</time></trkpt><trkpt lat="40.90994551887984" lon="9.063771646365714"><ele>533.0</ele><time>2026-05-02T12:44:09Z</time></trkpt><trkpt lat="40.90986880084758" lon="9.063702698796575"><ele>535.0</ele><time>2026-05-02T12:44:10Z</time></trkpt><trkpt lat="40.90980997049949" lon="9.063621324902668"><ele>537.0</ele><time>2026-05-02T12:44:11Z</time></trkpt><trkpt lat="40.909738719947505" lon="9.063517282847664"><ele>539.0</ele><time>2026-05-02T12:44:12Z</time></trkpt><trkpt lat="40.9096894997817" lon="9.0634240614527"><ele>541.0</ele><time>2026-05-02T12:44:13Z</time></trkpt><trkpt lat="40.90972915969012" lon="9.063271029081488"><ele>542.5</ele><time>2026-05-02T12:44:15Z</time></trkpt><trkpt lat="40.90981232054094" lon="9.06320134203714"><ele>544.0</ele><time>2026-05-02T12:44:16Z</time></trkpt><trkpt lat="40.909922528798006" lon="9.063121123910955"><ele>545.5</ele><time>2026-05-02T12:44:17Z</time></trkpt><trkpt lat="40.909988047468154" lon="9.06304129086464"><ele>547.0</ele><time>2026-05-02T12:44:18Z</time></trkpt><trkpt lat="40.91000548302766" lon="9.062844059612646"><ele>547.0</ele><time>2026-05-02T12:44:20Z</time></trkpt><trkpt lat="40.909995705192735" lon="9.06272901011171"><ele>547.0</ele><time>2026-05-02T12:44:21Z</time></trkpt><trkpt lat="40.909993405875404" lon="9.062601609042071"><ele>547.0</ele><time>2026-05-02T12:44:22Z</time></trkpt><trkpt lat="40.909974215065915" lon="9.06245332606396"><ele>547.0</ele><time>2026-05-02T12:44:23Z</time></trkpt><trkpt lat="40.90994880903638" lon="9.062311859558898"><ele>547.0</ele><time>2026-05-02T12:44:24Z</time></trkpt><trkpt lat="40.90990188622495" lon="9.062186735913361"><ele>550.0</ele><time>2026-05-02T12:44:25Z</time></trkpt><trkpt lat="40.90979856385007" lon="9.062081191083502"><ele>553.0</ele><time>2026-05-02T12:44:26Z</time></trkpt><trkpt lat="40.90968288417161" lon="9.061979692866124"><ele>556.0</ele><time>2026-05-02T12:44:27Z</time></trkpt><trkpt lat="40.90955286550446" lon="9.06187431214743"><ele>559.0</ele><time>2026-05-02T12:44:28Z</time></trkpt><trkpt lat="40.90942061010567" lon="9.061762558616923"><ele>559.0</ele><time>2026-05-02T12:44:29Z</time></trkpt><trkpt lat="40.909295345445884" lon="9.06164681363937"><ele>559.0</ele><time>2026-05-02T12:44:30Z</time></trkpt><trkpt lat="40.90917997923825" lon="9.061515770550065"><ele>559.0</ele><time>2026-05-02T12:44:31Z</time></trkpt><trkpt lat="40.9090827930304" lon="9.061392996358656"><ele>559.0</ele><time>2026-05-02T12:44:32Z</time></trkpt><trkpt lat="40.908983303633576" lon="9.061270155328872"><ele>561.25</ele><time>2026-05-02T12:44:33Z</time></trkpt><trkpt lat="40.90888362890739" lon="9.061141101838103"><ele>563.5</ele><time>2026-05-02T12:44:34Z</time></trkpt><trkpt lat="40.90878787417359" lon="9.06101167321914"><ele>565.75</ele><time>2026-05-02T12:44:35Z</time></trkpt><trkpt lat="40.908692165410045" lon="9.060882306719076"><ele>568.0</ele><time>2026-05-02T12:44:36Z</time></trkpt><trkpt lat="40.90859965365174" lon="9.060749562652575"><ele>565.5</ele><time>2026-05-02T12:44:37Z</time></trkpt><trkpt lat="40.90852883484055" lon="9.060603055662948"><ele>563.0</ele><time>2026-05-02T12:44:38Z</time></trkpt><trkpt lat="40.908452826640136" lon="9.060445431890482"><ele>560.5</ele><time>2026-05-02T12:44:39Z</time></trkpt><trkpt lat="40.90836626264718" lon="9.060313829823968"><ele>558.0</ele><time>2026-05-02T12:44:40Z</time></trkpt><trkpt lat="40.90827196897658" lon="9.06018577516134"><ele>558.0</ele><time>2026-05-02T12:44:41Z</time></trkpt><trkpt lat="40.908197326815745" lon="9.060066208322201"><ele>558.0</ele><time>2026-05-02T12:44:42Z</time></trkpt><trkpt lat="40.908149441896725" lon="9.059914642162372"><ele>558.0</ele><time>2026-05-02T12:44:43Z</time></trkpt><trkpt lat="40.90809856693759" lon="9.059745135043396"><ele>558.0</ele><time>2026-05-02T12:44:44Z</time></trkpt><trkpt lat="40.908034368351096" lon="9.059555182007989"><ele>560.75</ele><time>2026-05-02T12:44:45Z</time></trkpt><trkpt lat="40.90799562138787" lon="9.059351478807585"><ele>563.5</ele><time>2026-05-02T12:44:46Z</time></trkpt><trkpt lat="40.907965293693316" lon="9.059170091499722"><ele>566.25</ele><time>2026-05-02T12:44:47Z</time></trkpt><trkpt lat="40.90792831234246" lon="9.059028362720495"><ele>569.0</ele><time>2026-05-02T12:44:48Z</time></trkpt><trkpt lat="40.90786556460694" lon="9.058897964143178"><ele>567.5</ele><time>2026-05-02T12:44:49Z</time></trkpt><trkpt lat="40.90777028066068" lon="9.05876352375257"><ele>566.0</ele><time>2026-05-02T12:44:50Z</time></trkpt><trkpt lat="40.90768314320706" lon="9.058613668991004"><ele>564.5</ele><time>2026-05-02T12:44:51.001Z</time></trkpt><trkpt lat="40.90760828779923" lon="9.058457401875199"><ele>563.0</ele><time>2026-05-02T12:44:52.001Z</time></trkpt><trkpt lat="40.907537981199475" lon="9.058283147790698"><ele>563.0</ele><time>2026-05-02T12:44:53.001Z</time></trkpt><trkpt lat="40.90748159877154" lon="9.05812524491016"><ele>563.0</ele><time>2026-05-02T12:44:54.001Z</time></trkpt><trkpt lat="40.90742681992256" lon="9.057951535426609"><ele>563.0</ele><time>2026-05-02T12:44:55.001Z</time></trkpt><trkpt lat="40.90737741907534" lon="9.057771192765355"><ele>563.0</ele><time>2026-05-02T12:44:56.001Z</time></trkpt><trkpt lat="40.90733338649251" lon="9.057593412622628"><ele>564.1999999999999</ele><time>2026-05-02T12:44:57.001Z</time></trkpt><trkpt lat="40.90729412586997" lon="9.057436233844168"><ele>565.4</ele><time>2026-05-02T12:44:58.001Z</time></trkpt><trkpt lat="40.90729224022581" lon="9.057291215144089"><ele>566.5999999999999</ele><time>2026-05-02T12:44:59.001Z</time></trkpt><trkpt lat="40.90732217920033" lon="9.057193591016954"><ele>567.8</ele><time>2026-05-02T12:45:00.001Z</time></trkpt><trkpt lat="40.90738891752532" lon="9.057147275438957"><ele>569.0</ele><time>2026-05-02T12:45:01.001Z</time></trkpt><trkpt lat="40.9075259357301" lon="9.057053120572725"><ele>569.0</ele><time>2026-05-02T12:45:03.001Z</time></trkpt><trkpt lat="40.90760351653235" lon="9.056955159109368"><ele>569.0</ele><time>2026-05-02T12:45:04.001Z</time></trkpt><trkpt lat="40.907628143735984" lon="9.05687430297861"><ele>569.0</ele><time>2026-05-02T12:45:05.001Z</time></trkpt><trkpt lat="40.907602119646036" lon="9.056789501784463"><ele>569.0</ele><time>2026-05-02T12:45:06.001Z</time></trkpt><trkpt lat="40.90754686286782" lon="9.056703969861635"><ele>569.0</ele><time>2026-05-02T12:45:07.001Z</time></trkpt><trkpt lat="40.907440757314774" lon="9.056620936618708"><ele>570.75</ele><time>2026-05-02T12:45:08.001Z</time></trkpt><trkpt lat="40.9073395495847" lon="9.056529655524903"><ele>572.5</ele><time>2026-05-02T12:45:09.001Z</time></trkpt><trkpt lat="40.90721686436841" lon="9.056410162639036"><ele>574.25</ele><time>2026-05-02T12:45:10.001Z</time></trkpt><trkpt lat="40.90710823827049" lon="9.056296182487205"><ele>576.0</ele><time>2026-05-02T12:45:11.001Z</time></trkpt><trkpt lat="40.907047184470606" lon="9.05619566294428"><ele>576.0</ele><time>2026-05-02T12:45:12.001Z</time></trkpt><trkpt lat="40.90702115226549" lon="9.056091731884145"><ele>576.0</ele><time>2026-05-02T12:45:13.001Z</time></trkpt><trkpt lat="40.90701685951883" lon="9.055984630864414"><ele>576.0</ele><time>2026-05-02T12:45:14.001Z</time></trkpt><trkpt lat="40.9070851371318" lon="9.05586710351165"><ele>576.0</ele><time>2026-05-02T12:45:15.001Z</time></trkpt><trkpt lat="40.90714280763036" lon="9.05575688987873"><ele>576.0</ele><time>2026-05-02T12:45:16.001Z</time></trkpt><trkpt lat="40.907222242990535" lon="9.055666585081434"><ele>574.0</ele><time>2026-05-02T12:45:17.001Z</time></trkpt><trkpt lat="40.907305929393466" lon="9.055572394309962"><ele>572.0</ele><time>2026-05-02T12:45:18.001Z</time></trkpt><trkpt lat="40.90741919172503" lon="9.055468163853316"><ele>570.0</ele><time>2026-05-02T12:45:19.001Z</time></trkpt><trkpt lat="40.90754496056029" lon="9.055314811490023"><ele>568.0</ele><time>2026-05-02T12:45:20.001Z</time></trkpt><trkpt lat="40.907635474502754" lon="9.0551868204443"><ele>570.8</ele><time>2026-05-02T12:45:21.001Z</time></trkpt><trkpt lat="40.90770404294542" lon="9.055078725211303"><ele>573.5999999999999</ele><time>2026-05-02T12:45:22.001Z</time></trkpt><trkpt lat="40.907763157876" lon="9.054970908442971"><ele>576.4000000000001</ele><time>2026-05-02T12:45:23.001Z</time></trkpt><trkpt lat="40.907809232361735" lon="9.054854789289013"><ele>579.2</ele><time>2026-05-02T12:45:24.001Z</time></trkpt><trkpt lat="40.907836828412925" lon="9.054714691383724"><ele>582.0</ele><time>2026-05-02T12:45:25.001Z</time></trkpt><trkpt lat="40.90784432609494" lon="9.054552857860017"><ele>582.0</ele><time>2026-05-02T12:45:26.001Z</time></trkpt><trkpt lat="40.907857217573536" lon="9.05438323377327"><ele>582.0</ele><time>2026-05-02T12:45:27.001Z</time></trkpt><trkpt lat="40.907907481062985" lon="9.054211092571984"><ele>582.0</ele><time>2026-05-02T12:45:28.001Z</time></trkpt><trkpt lat="40.90794851962411" lon="9.054028437820076"><ele>582.0</ele><time>2026-05-02T12:45:29.001Z</time></trkpt><trkpt lat="40.907996438293075" lon="9.0538474763882"><ele>581.75</ele><time>2026-05-02T12:45:30.001Z</time></trkpt><trkpt lat="40.908032658360526" lon="9.053657832237032"><ele>581.5</ele><time>2026-05-02T12:45:31.001Z</time></trkpt><trkpt lat="40.90807407988012" lon="9.053488106691232"><ele>581.25</ele><time>2026-05-02T12:45:32.001Z</time></trkpt><trkpt lat="40.90810832047172" lon="9.05333205207536"><ele>581.0</ele><time>2026-05-02T12:45:33.001Z</time></trkpt><trkpt lat="40.90813233893549" lon="9.053164344763594"><ele>581.0</ele><time>2026-05-02T12:45:34.001Z</time></trkpt><trkpt lat="40.90814504808584" lon="9.052975557442384"><ele>581.0</ele><time>2026-05-02T12:45:35.001Z</time></trkpt><trkpt lat="40.90813954018958" lon="9.052791982069156"><ele>581.0</ele><time>2026-05-02T12:45:36.001Z</time></trkpt><trkpt lat="40.90815467554065" lon="9.052605668684935"><ele>581.0</ele><time>2026-05-02T12:45:37.001Z</time></trkpt><trkpt lat="40.90817279674412" lon="9.052434004222652"><ele>582.0</ele><time>2026-05-02T12:45:38.001Z</time></trkpt><trkpt lat="40.90820755207471" lon="9.052235463973572"><ele>583.0</ele><time>2026-05-02T12:45:39.001Z</time></trkpt><trkpt lat="40.90824712626558" lon="9.052068317589962"><ele>584.0</ele><time>2026-05-02T12:45:40Z</time></trkpt><trkpt lat="40.9082697453587" lon="9.05192695967386"><ele>585.0</ele><time>2026-05-02T12:45:41Z</time></trkpt><trkpt lat="40.90825398152055" lon="9.051792680369413"><ele>585.0</ele><time>2026-05-02T12:45:42Z</time></trkpt><trkpt lat="40.90822663269452" lon="9.051653266919999"><ele>585.0</ele><time>2026-05-02T12:45:43Z</time></trkpt><trkpt lat="40.90817688407384" lon="9.051510446908036"><ele>585.0</ele><time>2026-05-02T12:45:44Z</time></trkpt><trkpt lat="40.908149741517875" lon="9.051354103445616"><ele>585.0</ele><time>2026-05-02T12:45:45Z</time></trkpt><trkpt lat="40.9081289431454" lon="9.051182067547568"><ele>585.25</ele><time>2026-05-02T12:45:46Z</time></trkpt><trkpt lat="40.9081117527568" lon="9.050986687595595"><ele>585.5</ele><time>2026-05-02T12:45:47Z</time></trkpt><trkpt lat="40.90809963612742" lon="9.050785254210318"><ele>585.75</ele><time>2026-05-02T12:45:48Z</time></trkpt><trkpt lat="40.90810004398925" lon="9.050591244733171"><ele>586.0</ele><time>2026-05-02T12:45:49Z</time></trkpt><trkpt lat="40.90812514176025" lon="9.050402971594336"><ele>587.25</ele><time>2026-05-02T12:45:50Z</time></trkpt><trkpt lat="40.908127254240966" lon="9.050210668144782"><ele>588.5</ele><time>2026-05-02T12:45:51Z</time></trkpt><trkpt lat="40.908126830078295" lon="9.050046793542263"><ele>589.75</ele><time>2026-05-02T12:45:52Z</time></trkpt><trkpt lat="40.9080964140332" lon="9.049895381797104"><ele>591.0</ele><time>2026-05-02T12:45:53Z</time></trkpt><trkpt lat="40.90802949110928" lon="9.04974515859839"><ele>592.25</ele><time>2026-05-02T12:45:54Z</time></trkpt><trkpt lat="40.907995336341024" lon="9.04956515298664"><ele>593.5</ele><time>2026-05-02T12:45:55Z</time></trkpt><trkpt lat="40.90796423555787" lon="9.049395395661906"><ele>594.75</ele><time>2026-05-02T12:45:56Z</time></trkpt><trkpt lat="40.907947899885535" lon="9.049240242953337"><ele>596.0</ele><time>2026-05-02T12:45:57Z</time></trkpt><trkpt lat="40.90793991812594" lon="9.049094988537462"><ele>596.25</ele><time>2026-05-02T12:45:58Z</time></trkpt><trkpt lat="40.90795966863822" lon="9.048946695928706"><ele>596.5</ele><time>2026-05-02T12:45:59Z</time></trkpt><trkpt lat="40.90799960458178" lon="9.04877415648749"><ele>596.75</ele><time>2026-05-02T12:46:00Z</time></trkpt><trkpt lat="40.908027638250566" lon="9.048582252800944"><ele>597.0</ele><time>2026-05-02T12:46:01Z</time></trkpt><trkpt lat="40.90806281406382" lon="9.048382374723582"><ele>596.25</ele><time>2026-05-02T12:46:02Z</time></trkpt><trkpt lat="40.908076358500985" lon="9.048198553814165"><ele>595.5</ele><time>2026-05-02T12:46:03Z</time></trkpt><trkpt lat="40.908067230190085" lon="9.048035869785549"><ele>594.75</ele><time>2026-05-02T12:46:04Z</time></trkpt><trkpt lat="40.90806412136849" lon="9.0478619784078"><ele>594.0</ele><time>2026-05-02T12:46:05Z</time></trkpt><trkpt lat="40.908034401417844" lon="9.047681096758664"><ele>594.0</ele><time>2026-05-02T12:46:06Z</time></trkpt><trkpt lat="40.90798182320885" lon="9.047536025662826"><ele>594.0</ele><time>2026-05-02T12:46:07Z</time></trkpt><trkpt lat="40.907947912331075" lon="9.047431240365826"><ele>594.0</ele><time>2026-05-02T12:46:08Z</time></trkpt><trkpt lat="40.90794678485871" lon="9.047335386541643"><ele>594.0</ele><time>2026-05-02T12:46:09Z</time></trkpt><trkpt lat="40.90799086515088" lon="9.047270314101908"><ele>594.0</ele><time>2026-05-02T12:46:10Z</time></trkpt><trkpt lat="40.90806199104626" lon="9.04723588802051"><ele>594.0</ele><time>2026-05-02T12:46:11Z</time></trkpt><trkpt lat="40.90815070421224" lon="9.047281074896706"><ele>594.5</ele><time>2026-05-02T12:46:12Z</time></trkpt><trkpt lat="40.90827400918426" lon="9.047287541190586"><ele>595.0</ele><time>2026-05-02T12:46:13Z</time></trkpt><trkpt lat="40.90840334133718" lon="9.047313000857109"><ele>595.5</ele><time>2026-05-02T12:46:14Z</time></trkpt><trkpt lat="40.90856287006444" lon="9.047329141927639"><ele>596.0</ele><time>2026-05-02T12:46:15Z</time></trkpt><trkpt lat="40.90874013213912" lon="9.047351670979351"><ele>596.0</ele><time>2026-05-02T12:46:16Z</time></trkpt><trkpt lat="40.908899960880404" lon="9.047372264299055"><ele>596.0</ele><time>2026-05-02T12:46:17Z</time></trkpt><trkpt lat="40.909042444299395" lon="9.047371443739298"><ele>596.0</ele><time>2026-05-02T12:46:18Z</time></trkpt><trkpt lat="40.90915468683436" lon="9.047366110340171"><ele>596.0</ele><time>2026-05-02T12:46:19Z</time></trkpt><trkpt lat="40.909241685774745" lon="9.047342174152453"><ele>597.8</ele><time>2026-05-02T12:46:20Z</time></trkpt><trkpt lat="40.90929278883769" lon="9.047287100495957"><ele>599.6</ele><time>2026-05-02T12:46:21Z</time></trkpt><trkpt lat="40.909316211381515" lon="9.04710838950981"><ele>601.4</ele><time>2026-05-02T12:46:23Z</time></trkpt><trkpt lat="40.90932443183637" lon="9.046977525603236"><ele>603.2</ele><time>2026-05-02T12:46:24Z</time></trkpt><trkpt lat="40.90936110512839" lon="9.046805811777247"><ele>605.0</ele><time>2026-05-02T12:46:25Z</time></trkpt><trkpt lat="40.90940608112044" lon="9.046624694613019"><ele>605.0</ele><time>2026-05-02T12:46:26Z</time></trkpt><trkpt lat="40.90946572169534" lon="9.046434513300074"><ele>605.0</ele><time>2026-05-02T12:46:27Z</time></trkpt><trkpt lat="40.90950774272" lon="9.04627212789034"><ele>605.0</ele><time>2026-05-02T12:46:28Z</time></trkpt><trkpt lat="40.90955678313169" lon="9.046125144241733"><ele>605.0</ele><time>2026-05-02T12:46:29Z</time></trkpt><trkpt lat="40.9096032363258" lon="9.045981559058417"><ele>605.0</ele><time>2026-05-02T12:46:30Z</time></trkpt><trkpt lat="40.909637534801305" lon="9.045835611306055"><ele>605.0</ele><time>2026-05-02T12:46:31Z</time></trkpt><trkpt lat="40.90964476826103" lon="9.0456701648599"><ele>605.0</ele><time>2026-05-02T12:46:32Z</time></trkpt><trkpt lat="40.90963900221258" lon="9.0455103695981"><ele>605.0</ele><time>2026-05-02T12:46:33Z</time></trkpt><trkpt lat="40.90963168469983" lon="9.04535740654493"><ele>603.8333333333333</ele><time>2026-05-02T12:46:34Z</time></trkpt><trkpt lat="40.9096203387768" lon="9.045223021859341"><ele>602.6666666666666</ele><time>2026-05-02T12:46:35Z</time></trkpt><trkpt lat="40.90961403211619" lon="9.045104287792363"><ele>601.5</ele><time>2026-05-02T12:46:36Z</time></trkpt><trkpt lat="40.90961383785624" lon="9.044992181321685"><ele>600.3333333333334</ele><time>2026-05-02T12:46:37Z</time></trkpt><trkpt lat="40.90962550309442" lon="9.044885070034073"><ele>599.1666666666667</ele><time>2026-05-02T12:46:38Z</time></trkpt><trkpt lat="40.90963631732508" lon="9.044766867152982"><ele>598.0</ele><time>2026-05-02T12:46:40Z</time></trkpt><trkpt lat="40.90964479338467" lon="9.044667014982625"><ele>597.1666666666667</ele><time>2026-05-02T12:46:51Z</time></trkpt><trkpt lat="40.90968514946934" lon="9.04452417494659"><ele>596.3333333333334</ele><time>2026-05-02T12:46:53Z</time></trkpt><trkpt lat="40.90970306422603" lon="9.04443243969536"><ele>595.5</ele><time>2026-05-02T12:46:54Z</time></trkpt><trkpt lat="40.90972028340586" lon="9.044337157102104"><ele>594.6666666666666</ele><time>2026-05-02T12:46:55Z</time></trkpt><trkpt lat="40.90974001580738" lon="9.044238019468446"><ele>593.8333333333333</ele><time>2026-05-02T12:46:56.001Z</time></trkpt><trkpt lat="40.909760295500504" lon="9.044133539657492"><ele>593.0</ele><time>2026-05-02T12:46:57.001Z</time></trkpt><trkpt lat="40.909777867746335" lon="9.044012475494618"><ele>591.0</ele><time>2026-05-02T12:46:58.001Z</time></trkpt><trkpt lat="40.90977766896106" lon="9.043914141205795"><ele>589.0</ele><time>2026-05-02T12:46:59.001Z</time></trkpt><trkpt lat="40.90974547427283" lon="9.043778967967315"><ele>587.0</ele><time>2026-05-02T12:47:00.001Z</time></trkpt><trkpt lat="40.909694661367304" lon="9.043642198135945"><ele>585.0</ele><time>2026-05-02T12:47:01.001Z</time></trkpt><trkpt lat="40.90963996716524" lon="9.043508962931519"><ele>583.0</ele><time>2026-05-02T12:47:02.001Z</time></trkpt><trkpt lat="40.90958903529372" lon="9.043369553432003"><ele>580.8</ele><time>2026-05-02T12:47:03.001Z</time></trkpt><trkpt lat="40.909539766717444" lon="9.043233486107384"><ele>578.5999999999999</ele><time>2026-05-02T12:47:04.001Z</time></trkpt><trkpt lat="40.90948604806286" lon="9.043107441800325"><ele>576.4000000000001</ele><time>2026-05-02T12:47:05.001Z</time></trkpt><trkpt lat="40.90944335180458" lon="9.042987725360287"><ele>574.2</ele><time>2026-05-02T12:47:06.001Z</time></trkpt><trkpt lat="40.909397220177446" lon="9.042862898680333"><ele>572.0</ele><time>2026-05-02T12:47:07.001Z</time></trkpt><trkpt lat="40.9093417356452" lon="9.042743469903872"><ele>572.0</ele><time>2026-05-02T12:47:08.001Z</time></trkpt><trkpt lat="40.90930645008816" lon="9.04261642123045"><ele>572.0</ele><time>2026-05-02T12:47:09.001Z</time></trkpt><trkpt lat="40.90926749921999" lon="9.042520307582546"><ele>572.0</ele><time>2026-05-02T12:47:10.001Z</time></trkpt><trkpt lat="40.90923033965949" lon="9.042451633718114"><ele>572.0</ele><time>2026-05-02T12:47:11.001Z</time></trkpt><trkpt lat="40.909237333334154" lon="9.042367652548053"><ele>572.0</ele><time>2026-05-02T12:47:12.001Z</time></trkpt><trkpt lat="40.90928201263996" lon="9.042303611084977"><ele>572.0</ele><time>2026-05-02T12:47:13.001Z</time></trkpt><trkpt lat="40.909438111040316" lon="9.042296114522038"><ele>572.0</ele><time>2026-05-02T12:47:15.001Z</time></trkpt><trkpt lat="40.90953284110543" lon="9.042332169625633"><ele>572.0</ele><time>2026-05-02T12:47:16.001Z</time></trkpt><trkpt lat="40.909625914689215" lon="9.042377516607411"><ele>572.0</ele><time>2026-05-02T12:47:17.001Z</time></trkpt><trkpt lat="40.90973265887224" lon="9.042424622789342"><ele>572.0</ele><time>2026-05-02T12:47:18.001Z</time></trkpt><trkpt lat="40.90984830502184" lon="9.042466334842985"><ele>572.0</ele><time>2026-05-02T12:47:19.001Z</time></trkpt><trkpt lat="40.90996138573332" lon="9.042503990095264"><ele>571.75</ele><time>2026-05-02T12:47:20.001Z</time></trkpt><trkpt lat="40.91007552911098" lon="9.042541474732873"><ele>571.5</ele><time>2026-05-02T12:47:21.001Z</time></trkpt><trkpt lat="40.910188216540064" lon="9.042575414457367"><ele>571.25</ele><time>2026-05-02T12:47:22.001Z</time></trkpt><trkpt lat="40.91030322737869" lon="9.042597549195953"><ele>571.0</ele><time>2026-05-02T12:47:23.001Z</time></trkpt><trkpt lat="40.91041307020951" lon="9.0426123780471"><ele>571.0</ele><time>2026-05-02T12:47:24.001Z</time></trkpt><trkpt lat="40.91051015431394" lon="9.042620431141051"><ele>571.0</ele><time>2026-05-02T12:47:25.001Z</time></trkpt><trkpt lat="40.91059147414752" lon="9.042630709149291"><ele>571.0</ele><time>2026-05-02T12:47:26.001Z</time></trkpt><trkpt lat="40.910672392070005" lon="9.042641994569296"><ele>571.0</ele><time>2026-05-02T12:47:27.001Z</time></trkpt><trkpt lat="40.910749505772785" lon="9.042625597517977"><ele>571.0</ele><time>2026-05-02T12:47:28.001Z</time></trkpt><trkpt lat="40.910835876141164" lon="9.042560118264928"><ele>571.0</ele><time>2026-05-02T12:47:29.001Z</time></trkpt><trkpt lat="40.91090291904777" lon="9.042461290404116"><ele>572.2</ele><time>2026-05-02T12:47:30.001Z</time></trkpt><trkpt lat="40.91093692725462" lon="9.042344931845893"><ele>573.4000000000001</ele><time>2026-05-02T12:47:31.001Z</time></trkpt><trkpt lat="40.91093740035224" lon="9.042226255052412"><ele>574.6</ele><time>2026-05-02T12:47:32.001Z</time></trkpt><trkpt lat="40.91091172109275" lon="9.042093906682329"><ele>575.8000000000001</ele><time>2026-05-02T12:47:33.001Z</time></trkpt><trkpt lat="40.91083679197225" lon="9.041972900605758"><ele>577.0</ele><time>2026-05-02T12:47:34.001Z</time></trkpt><trkpt lat="40.91076150062133" lon="9.041846959080459"><ele>577.0</ele><time>2026-05-02T12:47:35.001Z</time></trkpt><trkpt lat="40.91068756707312" lon="9.041717796540624"><ele>577.0</ele><time>2026-05-02T12:47:36.001Z</time></trkpt><trkpt lat="40.91061247334789" lon="9.041577631043978"><ele>577.0</ele><time>2026-05-02T12:47:37.001Z</time></trkpt><trkpt lat="40.91054968707617" lon="9.04144147400307"><ele>577.0</ele><time>2026-05-02T12:47:38.001Z</time></trkpt><trkpt lat="40.91048722541044" lon="9.041300301631887"><ele>577.2</ele><time>2026-05-02T12:47:39.001Z</time></trkpt><trkpt lat="40.91042238189738" lon="9.041174644586905"><ele>577.4000000000001</ele><time>2026-05-02T12:47:40.001Z</time></trkpt><trkpt lat="40.91039549943439" lon="9.041052942061611"><ele>577.5999999999999</ele><time>2026-05-02T12:47:41.001Z</time></trkpt><trkpt lat="40.91039360295727" lon="9.04092331401377"><ele>577.8</ele><time>2026-05-02T12:47:42.001Z</time></trkpt><trkpt lat="40.91041779388438" lon="9.040785824922734"><ele>578.0</ele><time>2026-05-02T12:47:43.001Z</time></trkpt><trkpt lat="40.91045072851812" lon="9.04064951604275"><ele>578.0</ele><time>2026-05-02T12:47:44Z</time></trkpt><trkpt lat="40.91048405194745" lon="9.040509391893254"><ele>578.0</ele><time>2026-05-02T12:47:45Z</time></trkpt><trkpt lat="40.91052093383268" lon="9.040358730179411"><ele>578.0</ele><time>2026-05-02T12:47:46Z</time></trkpt><trkpt lat="40.910557691577175" lon="9.04020920791216"><ele>578.0</ele><time>2026-05-02T12:47:47Z</time></trkpt><trkpt lat="40.9105949301945" lon="9.040052998915128"><ele>576.25</ele><time>2026-05-02T12:47:48Z</time></trkpt><trkpt lat="40.910649388164764" lon="9.039912466558535"><ele>574.5</ele><time>2026-05-02T12:47:49Z</time></trkpt><trkpt lat="40.91067959962152" lon="9.0397622388669"><ele>572.75</ele><time>2026-05-02T12:47:50Z</time></trkpt><trkpt lat="40.91073793731016" lon="9.039627801542544"><ele>571.0</ele><time>2026-05-02T12:47:51Z</time></trkpt><trkpt lat="40.910794529037595" lon="9.039501090229725"><ele>571.0</ele><time>2026-05-02T12:47:52Z</time></trkpt><trkpt lat="40.91085898614258" lon="9.039392362219441"><ele>571.0</ele><time>2026-05-02T12:47:53Z</time></trkpt><trkpt lat="40.910933676900434" lon="9.039304634896178"><ele>571.0</ele><time>2026-05-02T12:47:54Z</time></trkpt><trkpt lat="40.91100614433354" lon="9.039247873934569"><ele>571.0</ele><time>2026-05-02T12:47:55Z</time></trkpt><trkpt lat="40.91108505224661" lon="9.039219546563668"><ele>571.0</ele><time>2026-05-02T12:47:56Z</time></trkpt><trkpt lat="40.91116948913652" lon="9.039211999364275"><ele>573.2</ele><time>2026-05-02T12:47:57Z</time></trkpt><trkpt lat="40.911254574882754" lon="9.039219205708067"><ele>575.4000000000001</ele><time>2026-05-02T12:47:58Z</time></trkpt><trkpt lat="40.91134851353863" lon="9.039289375064497"><ele>577.6</ele><time>2026-05-02T12:47:59Z</time></trkpt><trkpt lat="40.9114413842606" lon="9.03936028196347"><ele>579.8000000000001</ele><time>2026-05-02T12:48:00Z</time></trkpt><trkpt lat="40.91154630339254" lon="9.039410288843275"><ele>582.0</ele><time>2026-05-02T12:48:01Z</time></trkpt><trkpt lat="40.911623588927284" lon="9.039431980201211"><ele>582.0</ele><time>2026-05-02T12:48:02Z</time></trkpt><trkpt lat="40.9116914134171" lon="9.039308614873873"><ele>582.0</ele><time>2026-05-02T12:48:04Z</time></trkpt><trkpt lat="40.911693428307075" lon="9.039207043682875"><ele>582.0</ele><time>2026-05-02T12:48:05Z</time></trkpt><trkpt lat="40.91167684974427" lon="9.03909347291082"><ele>582.0</ele><time>2026-05-02T12:48:06Z</time></trkpt><trkpt lat="40.91165420709497" lon="9.03894235520721"><ele>582.0</ele><time>2026-05-02T12:48:07Z</time></trkpt><trkpt lat="40.91165043079499" lon="9.038752961885589"><ele>583.25</ele><time>2026-05-02T12:48:08Z</time></trkpt><trkpt lat="40.91167770991485" lon="9.038570953514926"><ele>584.5</ele><time>2026-05-02T12:48:09Z</time></trkpt><trkpt lat="40.911712541630486" lon="9.038392370880077"><ele>585.75</ele><time>2026-05-02T12:48:10Z</time></trkpt><trkpt lat="40.91175110570961" lon="9.038257617795919"><ele>587.0</ele><time>2026-05-02T12:48:11Z</time></trkpt><trkpt lat="40.91179957835041" lon="9.038139818788768"><ele>587.0</ele><time>2026-05-02T12:48:12Z</time></trkpt><trkpt lat="40.91185040444694" lon="9.037994645421795"><ele>587.0</ele><time>2026-05-02T12:48:13Z</time></trkpt><trkpt lat="40.91193373649015" lon="9.037849696091435"><ele>587.0</ele><time>2026-05-02T12:48:14Z</time></trkpt><trkpt lat="40.911992363311704" lon="9.037708339316739"><ele>587.0</ele><time>2026-05-02T12:48:15Z</time></trkpt><trkpt lat="40.91205731678863" lon="9.037597367549862"><ele>587.0</ele><time>2026-05-02T12:48:16Z</time></trkpt><trkpt lat="40.91210433334001" lon="9.037472991703554"><ele>587.0</ele><time>2026-05-02T12:48:17Z</time></trkpt><trkpt lat="40.912188896442295" lon="9.037384962160461"><ele>587.0</ele><time>2026-05-02T12:48:18Z</time></trkpt><trkpt lat="40.91226540214836" lon="9.037326825616871"><ele>587.0</ele><time>2026-05-02T12:48:19Z</time></trkpt><trkpt lat="40.91235276125755" lon="9.037295085095726"><ele>587.0</ele><time>2026-05-02T12:48:20Z</time></trkpt><trkpt lat="40.91246442684489" lon="9.037293551787704"><ele>585.25</ele><time>2026-05-02T12:48:21Z</time></trkpt><trkpt lat="40.912602702424515" lon="9.037289769572483"><ele>583.5</ele><time>2026-05-02T12:48:22Z</time></trkpt><trkpt lat="40.912757658898414" lon="9.037323923424811"><ele>581.75</ele><time>2026-05-02T12:48:23Z</time></trkpt><trkpt lat="40.91290775520043" lon="9.037349957943633"><ele>580.0</ele><time>2026-05-02T12:48:24Z</time></trkpt><trkpt lat="40.91303085063063" lon="9.037338522473103"><ele>580.0</ele><time>2026-05-02T12:48:25Z</time></trkpt><trkpt lat="40.913143739781724" lon="9.037285903611275"><ele>580.0</ele><time>2026-05-02T12:48:26Z</time></trkpt><trkpt lat="40.91329106346589" lon="9.037211506396888"><ele>580.0</ele><time>2026-05-02T12:48:27Z</time></trkpt><trkpt lat="40.91343014998473" lon="9.037125306757945"><ele>580.0</ele><time>2026-05-02T12:48:28Z</time></trkpt><trkpt lat="40.91353899425724" lon="9.037026118281025"><ele>582.2</ele><time>2026-05-02T12:48:29Z</time></trkpt><trkpt lat="40.9136252898881" lon="9.036959656112963"><ele>584.4</ele><time>2026-05-02T12:48:30Z</time></trkpt><trkpt lat="40.91371537108592" lon="9.036937966116596"><ele>586.6</ele><time>2026-05-02T12:48:31Z</time></trkpt><trkpt lat="40.91382804030419" lon="9.03697168013998"><ele>588.8</ele><time>2026-05-02T12:48:32Z</time></trkpt><trkpt lat="40.91395080718054" lon="9.036945540681213"><ele>591.0</ele><time>2026-05-02T12:48:33Z</time></trkpt><trkpt lat="40.91404362010935" lon="9.036913049124179"><ele>591.0</ele><time>2026-05-02T12:48:34Z</time></trkpt><trkpt lat="40.91413472029526" lon="9.036894794341174"><ele>591.0</ele><time>2026-05-02T12:48:35Z</time></trkpt><trkpt lat="40.9142226958794" lon="9.036968203764928"><ele>591.0</ele><time>2026-05-02T12:48:36Z</time></trkpt><trkpt lat="40.914322170284684" lon="9.036984522796436"><ele>591.0</ele><time>2026-05-02T12:48:37Z</time></trkpt><trkpt lat="40.91442117561198" lon="9.037020085621016"><ele>591.0</ele><time>2026-05-02T12:48:38Z</time></trkpt><trkpt lat="40.91449013775939" lon="9.036967117600184"><ele>590.75</ele><time>2026-05-02T12:48:39Z</time></trkpt><trkpt lat="40.91456179895624" lon="9.036859493334067"><ele>590.5</ele><time>2026-05-02T12:48:40Z</time></trkpt><trkpt lat="40.914656255208676" lon="9.036729317200729"><ele>590.25</ele><time>2026-05-02T12:48:41Z</time></trkpt><trkpt lat="40.91474686962456" lon="9.036649277608044"><ele>590.0</ele><time>2026-05-02T12:48:42Z</time></trkpt><trkpt lat="40.914849185274505" lon="9.036614541043441"><ele>592.25</ele><time>2026-05-02T12:48:43Z</time></trkpt><trkpt lat="40.91495745731515" lon="9.036647447613829"><ele>594.5</ele><time>2026-05-02T12:48:44Z</time></trkpt><trkpt lat="40.91509805559488" lon="9.036681318841369"><ele>596.75</ele><time>2026-05-02T12:48:45Z</time></trkpt><trkpt lat="40.91524918790383" lon="9.03673300348626"><ele>599.0</ele><time>2026-05-02T12:48:46Z</time></trkpt><trkpt lat="40.915366161339314" lon="9.036737558925616"><ele>599.5</ele><time>2026-05-02T12:48:47Z</time></trkpt><trkpt lat="40.91549192359032" lon="9.036726117891737"><ele>600.0</ele><time>2026-05-02T12:48:48Z</time></trkpt><trkpt lat="40.915641036970314" lon="9.036714419561525"><ele>600.5</ele><time>2026-05-02T12:48:49Z</time></trkpt><trkpt lat="40.915793586892285" lon="9.036714060434479"><ele>601.0</ele><time>2026-05-02T12:48:50Z</time></trkpt><trkpt lat="40.91594230524766" lon="9.036728828792597"><ele>601.6666666666667</ele><time>2026-05-02T12:48:51Z</time></trkpt><trkpt lat="40.91608655294626" lon="9.036772612381656"><ele>602.3333333333334</ele><time>2026-05-02T12:48:52Z</time></trkpt><trkpt lat="40.916237998673104" lon="9.036840022871575"><ele>603.0</ele><time>2026-05-02T12:48:53Z</time></trkpt><trkpt lat="40.91637811552565" lon="9.03691829489581"><ele>603.0</ele><time>2026-05-02T12:48:54Z</time></trkpt><trkpt lat="40.91651814052791" lon="9.03700520771081"><ele>603.0</ele><time>2026-05-02T12:48:55Z</time></trkpt><trkpt lat="40.916645875589325" lon="9.037103849505797"><ele>603.0</ele><time>2026-05-02T12:48:56Z</time></trkpt><trkpt lat="40.91675455633585" lon="9.037193875187192"><ele>603.0</ele><time>2026-05-02T12:48:57Z</time></trkpt><trkpt lat="40.916823650407814" lon="9.037311458750406"><ele>604.0</ele><time>2026-05-02T12:48:58Z</time></trkpt><trkpt lat="40.916914578761855" lon="9.03737947012506"><ele>605.0</ele><time>2026-05-02T12:48:59Z</time></trkpt><trkpt lat="40.91700148348062" lon="9.03742468675638"><ele>606.0</ele><time>2026-05-02T12:49:00Z</time></trkpt><trkpt lat="40.917087055884615" lon="9.037408907957364"><ele>607.0</ele><time>2026-05-02T12:49:01Z</time></trkpt><trkpt lat="40.91718294120067" lon="9.037368144314224"><ele>608.0</ele><time>2026-05-02T12:49:02.001Z</time></trkpt><trkpt lat="40.91729164355097" lon="9.037302568495894"><ele>608.0</ele><time>2026-05-02T12:49:03.001Z</time></trkpt><trkpt lat="40.91742227405158" lon="9.037230333210461"><ele>608.0</ele><time>2026-05-02T12:49:04.001Z</time></trkpt><trkpt lat="40.91757067004504" lon="9.037163108555973"><ele>608.0</ele><time>2026-05-02T12:49:05.001Z</time></trkpt><trkpt lat="40.917725972745444" lon="9.037113370878805"><ele>610.75</ele><time>2026-05-02T12:49:06.001Z</time></trkpt><trkpt lat="40.917863023075334" lon="9.037095435394875"><ele>613.5</ele><time>2026-05-02T12:49:07.001Z</time></trkpt><trkpt lat="40.917993710851185" lon="9.037088915127233"><ele>616.25</ele><time>2026-05-02T12:49:08.001Z</time></trkpt><trkpt lat="40.91809795228621" lon="9.037098885826406"><ele>619.0</ele><time>2026-05-02T12:49:09.001Z</time></trkpt><trkpt lat="40.91817969828178" lon="9.037153845092048"><ele>619.0</ele><time>2026-05-02T12:49:10.001Z</time></trkpt><trkpt lat="40.918259127156965" lon="9.037216475337413"><ele>619.0</ele><time>2026-05-02T12:49:11.001Z</time></trkpt><trkpt lat="40.918335765698" lon="9.037300592598655"><ele>619.0</ele><time>2026-05-02T12:49:12.001Z</time></trkpt><trkpt lat="40.91839744630697" lon="9.037392013368722"><ele>619.0</ele><time>2026-05-02T12:49:13.001Z</time></trkpt><trkpt lat="40.91846734571567" lon="9.037510555759727"><ele>619.0</ele><time>2026-05-02T12:49:14.001Z</time></trkpt><trkpt lat="40.91856693685688" lon="9.037624647004375"><ele>621.8</ele><time>2026-05-02T12:49:15.001Z</time></trkpt><trkpt lat="40.918650506040045" lon="9.037711095847625"><ele>624.5999999999999</ele><time>2026-05-02T12:49:16.001Z</time></trkpt><trkpt lat="40.91874698505339" lon="9.037742714660961"><ele>627.4</ele><time>2026-05-02T12:49:17.001Z</time></trkpt><trkpt lat="40.91884492010771" lon="9.03774323357857"><ele>630.1999999999999</ele><time>2026-05-02T12:49:18.001Z</time></trkpt><trkpt lat="40.91894651508035" lon="9.037735987426188"><ele>633.0</ele><time>2026-05-02T12:49:19.001Z</time></trkpt><trkpt lat="40.91905848851716" lon="9.037713647612525"><ele>633.0</ele><time>2026-05-02T12:49:20.001Z</time></trkpt><trkpt lat="40.919149086761976" lon="9.037668923379668"><ele>633.0</ele><time>2026-05-02T12:49:21.001Z</time></trkpt><trkpt lat="40.91917157451422" lon="9.037576974337666"><ele>633.0</ele><time>2026-05-02T12:49:22.001Z</time></trkpt><trkpt lat="40.91914503607679" lon="9.037402231977454"><ele>633.0</ele><time>2026-05-02T12:49:24.001Z</time></trkpt><trkpt lat="40.91908803099019" lon="9.037309917594344"><ele>633.0</ele><time>2026-05-02T12:49:25.001Z</time></trkpt><trkpt lat="40.91901429182021" lon="9.037247084081315"><ele>634.1999999999999</ele><time>2026-05-02T12:49:26.001Z</time></trkpt><trkpt lat="40.91895184486375" lon="9.037155442094775"><ele>635.4</ele><time>2026-05-02T12:49:27.001Z</time></trkpt><trkpt lat="40.918908180260544" lon="9.037082364498167"><ele>636.5999999999999</ele><time>2026-05-02T12:49:28.001Z</time></trkpt><trkpt lat="40.91891852690751" lon="9.036929961305363"><ele>637.8</ele><time>2026-05-02T12:49:29.001Z</time></trkpt><trkpt lat="40.918840892808426" lon="9.036757638979102"><ele>639.0</ele><time>2026-05-02T12:49:30.001Z</time></trkpt><trkpt lat="40.91878708871" lon="9.036597180064568"><ele>639.0</ele><time>2026-05-02T12:49:31.001Z</time></trkpt><trkpt lat="40.91878408179641" lon="9.036454483638549"><ele>639.0</ele><time>2026-05-02T12:49:32Z</time></trkpt><trkpt lat="40.918806243548666" lon="9.036344221468902"><ele>639.0</ele><time>2026-05-02T12:49:33Z</time></trkpt><trkpt lat="40.9188319703742" lon="9.03621509721082"><ele>639.0</ele><time>2026-05-02T12:49:34Z</time></trkpt><trkpt lat="40.9188518005112" lon="9.036041861927977"><ele>639.0</ele><time>2026-05-02T12:49:35Z</time></trkpt><trkpt lat="40.918885304808256" lon="9.035824310866523"><ele>639.3333333333334</ele><time>2026-05-02T12:49:36Z</time></trkpt><trkpt lat="40.91889171822322" lon="9.035592791777495"><ele>639.6666666666667</ele><time>2026-05-02T12:49:37Z</time></trkpt><trkpt lat="40.918887100271036" lon="9.035359265648799"><ele>640.0</ele><time>2026-05-02T12:49:38Z</time></trkpt><trkpt lat="40.91888654917183" lon="9.0351680710518"><ele>639.5</ele><time>2026-05-02T12:49:39Z</time></trkpt><trkpt lat="40.91890408119012" lon="9.034965086989978"><ele>639.0</ele><time>2026-05-02T12:49:40Z</time></trkpt><trkpt lat="40.9189295629362" lon="9.034786664660931"><ele>638.5</ele><time>2026-05-02T12:49:41Z</time></trkpt><trkpt lat="40.91899742763144" lon="9.034623899050167"><ele>638.0</ele><time>2026-05-02T12:49:42Z</time></trkpt><trkpt lat="40.91905819660003" lon="9.034456272106352"><ele>638.0</ele><time>2026-05-02T12:49:43Z</time></trkpt><trkpt lat="40.91913779208627" lon="9.034318091637491"><ele>638.0</ele><time>2026-05-02T12:49:44Z</time></trkpt><trkpt lat="40.91921495065245" lon="9.034239540677637"><ele>638.0</ele><time>2026-05-02T12:49:45Z</time></trkpt><trkpt lat="40.91931028059646" lon="9.034209714811583"><ele>638.0</ele><time>2026-05-02T12:49:46Z</time></trkpt><trkpt lat="40.91941335815954" lon="9.034159949589728"><ele>638.0</ele><time>2026-05-02T12:49:47Z</time></trkpt><trkpt lat="40.91948130950872" lon="9.034088750267431"><ele>644.5</ele><time>2026-05-02T12:49:48Z</time></trkpt><trkpt lat="40.91949819391117" lon="9.033983710939065"><ele>651.0</ele><time>2026-05-02T12:49:49Z</time></trkpt><trkpt lat="40.91948952717615" lon="9.033848059981647"><ele>657.5</ele><time>2026-05-02T12:49:50Z</time></trkpt><trkpt lat="40.91946635266529" lon="9.033680325654846"><ele>664.0</ele><time>2026-05-02T12:49:51Z</time></trkpt><trkpt lat="40.91945274103607" lon="9.033480871421377"><ele>665.6666666666667</ele><time>2026-05-02T12:49:52Z</time></trkpt><trkpt lat="40.91943688136494" lon="9.033248774360091"><ele>667.3333333333334</ele><time>2026-05-02T12:49:53Z</time></trkpt><trkpt lat="40.919435709048315" lon="9.0330337832514"><ele>669.0</ele><time>2026-05-02T12:49:54Z</time></trkpt><trkpt lat="40.91942882946621" lon="9.03285049850753"><ele>669.0</ele><time>2026-05-02T12:49:55Z</time></trkpt><trkpt lat="40.919423567316265" lon="9.032679001406622"><ele>669.0</ele><time>2026-05-02T12:49:56Z</time></trkpt><trkpt lat="40.919360265402496" lon="9.032511185062805"><ele>669.0</ele><time>2026-05-02T12:49:57Z</time></trkpt><trkpt lat="40.91929019332884" lon="9.032344928955467"><ele>669.0</ele><time>2026-05-02T12:49:58Z</time></trkpt><trkpt lat="40.91921127844572" lon="9.032138524889392"><ele>665.3333333333334</ele><time>2026-05-02T12:49:59Z</time></trkpt><trkpt lat="40.91910849280206" lon="9.03191524814653"><ele>661.6666666666667</ele><time>2026-05-02T12:50:00Z</time></trkpt><trkpt lat="40.91902148044363" lon="9.031718376097707"><ele>658.0</ele><time>2026-05-02T12:50:01Z</time></trkpt><trkpt lat="40.918944523273" lon="9.031539879324988"><ele>658.0</ele><time>2026-05-02T12:50:02Z</time></trkpt><trkpt lat="40.91888935409483" lon="9.031386400022999"><ele>658.0</ele><time>2026-05-02T12:50:03Z</time></trkpt><trkpt lat="40.918871868310355" lon="9.031262294104915"><ele>658.0</ele><time>2026-05-02T12:50:04Z</time></trkpt><trkpt lat="40.91887146861404" lon="9.031152124295364"><ele>658.0</ele><time>2026-05-02T12:50:05Z</time></trkpt><trkpt lat="40.91888592818951" lon="9.031063575301141"><ele>658.0</ele><time>2026-05-02T12:50:06Z</time></trkpt><trkpt lat="40.918958117209705" lon="9.030978631589496"><ele>658.0</ele><time>2026-05-02T12:50:07Z</time></trkpt><trkpt lat="40.91904621778417" lon="9.030945001195601"><ele>658.0</ele><time>2026-05-02T12:50:08Z</time></trkpt><trkpt lat="40.91911471419479" lon="9.030878605803743"><ele>658.0</ele><time>2026-05-02T12:50:09Z</time></trkpt><trkpt lat="40.91916068528018" lon="9.030801316421751"><ele>658.0</ele><time>2026-05-02T12:50:10Z</time></trkpt><trkpt lat="40.919174624938684" lon="9.030701960382741"><ele>658.0</ele><time>2026-05-02T12:50:11Z</time></trkpt><trkpt lat="40.919227571202306" lon="9.03061606378258"><ele>658.0</ele><time>2026-05-02T12:50:12Z</time></trkpt><trkpt lat="40.91928455375399" lon="9.03045939912505"><ele>659.5</ele><time>2026-05-02T12:50:14Z</time></trkpt><trkpt lat="40.91900440908126" lon="9.030116570068214"><ele>661.0</ele><time>2026-05-02T12:50:15Z</time></trkpt><trkpt lat="40.918967048071764" lon="9.029935836737566"><ele>663.25</ele><time>2026-05-02T12:50:16Z</time></trkpt><trkpt lat="40.918949982641436" lon="9.029753799103682"><ele>665.5</ele><time>2026-05-02T12:50:17Z</time></trkpt><trkpt lat="40.91891013763371" lon="9.029580854553142"><ele>667.75</ele><time>2026-05-02T12:50:18Z</time></trkpt><trkpt lat="40.91884979555224" lon="9.029438949759356"><ele>670.0</ele><time>2026-05-02T12:50:19Z</time></trkpt><trkpt lat="40.91877476776356" lon="9.029349206912942"><ele>670.0</ele><time>2026-05-02T12:50:20Z</time></trkpt><trkpt lat="40.918689627605346" lon="9.029282243996391"><ele>670.0</ele><time>2026-05-02T12:50:21Z</time></trkpt><trkpt lat="40.918567719499556" lon="9.02921185653701"><ele>670.0</ele><time>2026-05-02T12:50:22Z</time></trkpt><trkpt lat="40.91843795835051" lon="9.029141573236172"><ele>670.0</ele><time>2026-05-02T12:50:23Z</time></trkpt><trkpt lat="40.918353947316795" lon="9.0290809307416"><ele>669.4</ele><time>2026-05-02T12:50:24Z</time></trkpt><trkpt lat="40.91830661269831" lon="9.029001701835703"><ele>668.8</ele><time>2026-05-02T12:50:25Z</time></trkpt><trkpt lat="40.91827134369484" lon="9.028905811629135"><ele>668.2</ele><time>2026-05-02T12:50:26Z</time></trkpt><trkpt lat="40.91824918977216" lon="9.028790005344728"><ele>667.6</ele><time>2026-05-02T12:50:27Z</time></trkpt><trkpt lat="40.91823517583435" lon="9.028633058425978"><ele>667.0</ele><time>2026-05-02T12:50:28Z</time></trkpt><trkpt lat="40.91822887052642" lon="9.028445698988572"><ele>669.0</ele><time>2026-05-02T12:50:29Z</time></trkpt><trkpt lat="40.91822799234207" lon="9.028256921754124"><ele>671.0</ele><time>2026-05-02T12:50:30Z</time></trkpt><trkpt lat="40.918242991488434" lon="9.028081688614437"><ele>673.0</ele><time>2026-05-02T12:50:31Z</time></trkpt><trkpt lat="40.918272830995335" lon="9.027930225834435"><ele>675.0</ele><time>2026-05-02T12:50:32Z</time></trkpt><trkpt lat="40.91831428024608" lon="9.027823897197177"><ele>675.0</ele><time>2026-05-02T12:50:33Z</time></trkpt><trkpt lat="40.918335937679416" lon="9.027735558516923"><ele>675.0</ele><time>2026-05-02T12:50:34Z</time></trkpt><trkpt lat="40.918329460105056" lon="9.027631122523513"><ele>675.0</ele><time>2026-05-02T12:50:35Z</time></trkpt><trkpt lat="40.91829036919261" lon="9.027552807499971"><ele>675.0</ele><time>2026-05-02T12:50:36Z</time></trkpt><trkpt lat="40.91823697806943" lon="9.027492137999163"><ele>675.0</ele><time>2026-05-02T12:50:37Z</time></trkpt><trkpt lat="40.918176366698106" lon="9.027443257288375"><ele>675.0</ele><time>2026-05-02T12:50:38Z</time></trkpt><trkpt lat="40.91806459244752" lon="9.027326989603452"><ele>676.6666666666666</ele><time>2026-05-02T12:50:40Z</time></trkpt><trkpt lat="40.91801697139366" lon="9.02723571128427"><ele>678.3333333333334</ele><time>2026-05-02T12:50:41Z</time></trkpt><trkpt lat="40.917978594154704" lon="9.027137394329472"><ele>680.0</ele><time>2026-05-02T12:50:42Z</time></trkpt><trkpt lat="40.917956361302565" lon="9.027037252754289"><ele>681.6666666666667</ele><time>2026-05-02T12:50:43Z</time></trkpt><trkpt lat="40.91794284105166" lon="9.026931476065467"><ele>683.3333333333334</ele><time>2026-05-02T12:50:44Z</time></trkpt><trkpt lat="40.917934737348546" lon="9.026831951336504"><ele>685.0</ele><time>2026-05-02T12:50:45Z</time></trkpt><trkpt lat="40.91792774226682" lon="9.026736157891115"><ele>687.0</ele><time>2026-05-02T12:50:46Z</time></trkpt><trkpt lat="40.9179304535818" lon="9.026630044553155"><ele>689.0</ele><time>2026-05-02T12:50:47Z</time></trkpt><trkpt lat="40.917926550947065" lon="9.026495784940286"><ele>691.0</ele><time>2026-05-02T12:50:48Z</time></trkpt><trkpt lat="40.91791013799549" lon="9.026398312930134"><ele>693.0</ele><time>2026-05-02T12:50:49Z</time></trkpt><trkpt lat="40.917879535589975" lon="9.026284506378383"><ele>695.0</ele><time>2026-05-02T12:50:51Z</time></trkpt><trkpt lat="40.91784875815368" lon="9.026207130600682"><ele>697.0</ele><time>2026-05-02T12:50:52Z</time></trkpt><trkpt lat="40.91780772784701" lon="9.02613143900627"><ele>697.0</ele><time>2026-05-02T12:50:53Z</time></trkpt><trkpt lat="40.91776051188815" lon="9.026059225600711"><ele>697.0</ele><time>2026-05-02T12:50:54Z</time></trkpt><trkpt lat="40.91769820128236" lon="9.02598035195165"><ele>697.0</ele><time>2026-05-02T12:50:55Z</time></trkpt><trkpt lat="40.91764231694558" lon="9.025886662182794"><ele>697.0</ele><time>2026-05-02T12:50:56Z</time></trkpt><trkpt lat="40.91760153463718" lon="9.025758355396972"><ele>697.0</ele><time>2026-05-02T12:50:57Z</time></trkpt><trkpt lat="40.9175945157627" lon="9.025622160567684"><ele>697.5</ele><time>2026-05-02T12:50:58Z</time></trkpt><trkpt lat="40.91760034793986" lon="9.025494291292672"><ele>698.0</ele><time>2026-05-02T12:50:59Z</time></trkpt><trkpt lat="40.91762074622184" lon="9.025369513078754"><ele>698.5</ele><time>2026-05-02T12:51:00Z</time></trkpt><trkpt lat="40.91765144401047" lon="9.025246054902926"><ele>699.0</ele><time>2026-05-02T12:51:01Z</time></trkpt><trkpt lat="40.917665106985" lon="9.025142061070786"><ele>699.5</ele><time>2026-05-02T12:51:02Z</time></trkpt><trkpt lat="40.91764519566709" lon="9.025053133825315"><ele>700.0</ele><time>2026-05-02T12:51:03Z</time></trkpt><trkpt lat="40.91760114236904" lon="9.024969846092466"><ele>698.2</ele><time>2026-05-02T12:51:04Z</time></trkpt><trkpt lat="40.91754123768326" lon="9.02491261127822"><ele>696.4</ele><time>2026-05-02T12:51:05Z</time></trkpt><trkpt lat="40.917470282954724" lon="9.024872608688854"><ele>694.5999999999999</ele><time>2026-05-02T12:51:06Z</time></trkpt><trkpt lat="40.9173900836216" lon="9.024822954398992"><ele>692.8</ele><time>2026-05-02T12:51:07Z</time></trkpt><trkpt lat="40.91731241974277" lon="9.024722447706159"><ele>691.0</ele><time>2026-05-02T12:51:08.001Z</time></trkpt><trkpt lat="40.91726374765758" lon="9.0245877552273"><ele>691.0</ele><time>2026-05-02T12:51:09.001Z</time></trkpt><trkpt lat="40.91722746845497" lon="9.024409404187596"><ele>691.0</ele><time>2026-05-02T12:51:10.001Z</time></trkpt><trkpt lat="40.917207481675646" lon="9.02421636668075"><ele>691.0</ele><time>2026-05-02T12:51:11.001Z</time></trkpt><trkpt lat="40.91720224884913" lon="9.024051951812599"><ele>691.0</ele><time>2026-05-02T12:51:12.001Z</time></trkpt><trkpt lat="40.917232059637016" lon="9.023912565571578"><ele>690.75</ele><time>2026-05-02T12:51:13.001Z</time></trkpt><trkpt lat="40.917287428204425" lon="9.02377401515411"><ele>690.5</ele><time>2026-05-02T12:51:14.001Z</time></trkpt><trkpt lat="40.91737097461969" lon="9.023643966213687"><ele>690.25</ele><time>2026-05-02T12:51:15.001Z</time></trkpt><trkpt lat="40.917465260167205" lon="9.023558886771001"><ele>690.0</ele><time>2026-05-02T12:51:16.001Z</time></trkpt><trkpt lat="40.91756763314642" lon="9.023514561113469"><ele>691.5</ele><time>2026-05-02T12:51:17.001Z</time></trkpt><trkpt lat="40.917684301989674" lon="9.023514296622839"><ele>693.0</ele><time>2026-05-02T12:51:18.001Z</time></trkpt><trkpt lat="40.91782473611838" lon="9.023522758210177"><ele>694.5</ele><time>2026-05-02T12:51:19.001Z</time></trkpt><trkpt lat="40.917946353493974" lon="9.023515709450516"><ele>696.0</ele><time>2026-05-02T12:51:20.001Z</time></trkpt><trkpt lat="40.91805066429374" lon="9.023465303787818"><ele>696.0</ele><time>2026-05-02T12:51:21.001Z</time></trkpt><trkpt lat="40.91817113357803" lon="9.023368671295442"><ele>696.0</ele><time>2026-05-02T12:51:22.001Z</time></trkpt><trkpt lat="40.918299769111236" lon="9.023261720071805"><ele>696.0</ele><time>2026-05-02T12:51:23Z</time></trkpt><trkpt lat="40.91838412977488" lon="9.023188057395062"><ele>696.0</ele><time>2026-05-02T12:51:24Z</time></trkpt><trkpt lat="40.91843898887095" lon="9.023114993196659"><ele>697.5999999999999</ele><time>2026-05-02T12:51:26Z</time></trkpt><trkpt lat="40.918367317212706" lon="9.023095383248998"><ele>699.2</ele><time>2026-05-02T12:51:29Z</time></trkpt><trkpt lat="40.918271937470685" lon="9.02299352742615"><ele>700.8</ele><time>2026-05-02T12:52:00Z</time></trkpt><trkpt lat="40.918212884322266" lon="9.022935510236449"><ele>702.4000000000001</ele><time>2026-05-02T12:52:01Z</time></trkpt><trkpt lat="40.91812742927231" lon="9.022884957686891"><ele>704.0</ele><time>2026-05-02T12:52:02Z</time></trkpt><trkpt lat="40.91803577986331" lon="9.022837600822038"><ele>704.0</ele><time>2026-05-02T12:52:03Z</time></trkpt><trkpt lat="40.917954795673495" lon="9.022772723282678"><ele>704.0</ele><time>2026-05-02T12:52:04Z</time></trkpt><trkpt lat="40.9178971901456" lon="9.022669176610027"><ele>704.0</ele><time>2026-05-02T12:52:05Z</time></trkpt><trkpt lat="40.91784514303076" lon="9.022540114552305"><ele>704.0</ele><time>2026-05-02T12:52:06Z</time></trkpt><trkpt lat="40.91778509621801" lon="9.022397531721374"><ele>704.0</ele><time>2026-05-02T12:52:07Z</time></trkpt><trkpt lat="40.91771170692664" lon="9.02225149997553"><ele>705.75</ele><time>2026-05-02T12:52:08Z</time></trkpt><trkpt lat="40.91762955639383" lon="9.022107522424209"><ele>707.5</ele><time>2026-05-02T12:52:09Z</time></trkpt><trkpt lat="40.917541147008976" lon="9.02196890485826"><ele>709.25</ele><time>2026-05-02T12:52:10Z</time></trkpt><trkpt lat="40.917456498617646" lon="9.021833730083005"><ele>711.0</ele><time>2026-05-02T12:52:11Z</time></trkpt><trkpt lat="40.917377568053226" lon="9.021701354473926"><ele>714.1999999999999</ele><time>2026-05-02T12:52:12Z</time></trkpt><trkpt lat="40.917305263518884" lon="9.021589676429722"><ele>717.4</ele><time>2026-05-02T12:52:13Z</time></trkpt><trkpt lat="40.91721945278863" lon="9.021517505036284"><ele>720.6</ele><time>2026-05-02T12:52:14Z</time></trkpt><trkpt lat="40.91711000989878" lon="9.021483852973962"><ele>723.8</ele><time>2026-05-02T12:52:15Z</time></trkpt><trkpt lat="40.91698926449355" lon="9.021453951177405"><ele>727.0</ele><time>2026-05-02T12:52:16Z</time></trkpt><trkpt lat="40.91686583900655" lon="9.021410943732521"><ele>726.0</ele><time>2026-05-02T12:52:17Z</time></trkpt><trkpt lat="40.9167353976217" lon="9.021369223344529"><ele>725.0</ele><time>2026-05-02T12:52:18Z</time></trkpt><trkpt lat="40.9166012147415" lon="9.021333693715537"><ele>724.0</ele><time>2026-05-02T12:52:19Z</time></trkpt><trkpt lat="40.916479372854326" lon="9.021292247844878"><ele>723.0</ele><time>2026-05-02T12:52:20Z</time></trkpt><trkpt lat="40.91636352855115" lon="9.02121785377383"><ele>723.0</ele><time>2026-05-02T12:52:21Z</time></trkpt><trkpt lat="40.91627767823504" lon="9.02109383619208"><ele>723.0</ele><time>2026-05-02T12:52:22Z</time></trkpt><trkpt lat="40.91621895692699" lon="9.020957055976613"><ele>723.0</ele><time>2026-05-02T12:52:23Z</time></trkpt><trkpt lat="40.9161663018586" lon="9.02082091259449"><ele>723.0</ele><time>2026-05-02T12:52:24Z</time></trkpt><trkpt lat="40.91610851766755" lon="9.02068963061385"><ele>724.0</ele><time>2026-05-02T12:52:25Z</time></trkpt><trkpt lat="40.9160579773269" lon="9.020585240639516"><ele>725.0</ele><time>2026-05-02T12:52:26Z</time></trkpt><trkpt lat="40.91602022115456" lon="9.020501835345769"><ele>726.0</ele><time>2026-05-02T12:52:27Z</time></trkpt><trkpt lat="40.91599864561458" lon="9.020410641196792"><ele>727.0</ele><time>2026-05-02T12:52:29Z</time></trkpt><trkpt lat="40.916039635381544" lon="9.020340116262295"><ele>728.0</ele><time>2026-05-02T12:52:31Z</time></trkpt><trkpt lat="40.916160135695634" lon="9.020268624040362"><ele>729.0</ele><time>2026-05-02T12:52:33Z</time></trkpt><trkpt lat="40.9162413436105" lon="9.020223853191414"><ele>729.0</ele><time>2026-05-02T12:52:34Z</time></trkpt><trkpt lat="40.916328040235655" lon="9.020160783363584"><ele>729.0</ele><time>2026-05-02T12:52:35Z</time></trkpt><trkpt lat="40.91641380773652" lon="9.020078138690788"><ele>729.0</ele><time>2026-05-02T12:52:36Z</time></trkpt><trkpt lat="40.91648151538823" lon="9.019979080985765"><ele>729.0</ele><time>2026-05-02T12:52:37Z</time></trkpt><trkpt lat="40.916540055053574" lon="9.019861305250618"><ele>729.0</ele><time>2026-05-02T12:52:38Z</time></trkpt><trkpt lat="40.91659137216941" lon="9.019722678807554"><ele>729.5</ele><time>2026-05-02T12:52:39Z</time></trkpt><trkpt lat="40.91663026282509" lon="9.019555166250381"><ele>730.0</ele><time>2026-05-02T12:52:40Z</time></trkpt><trkpt lat="40.916657576529914" lon="9.019348651646546"><ele>730.5</ele><time>2026-05-02T12:52:41Z</time></trkpt><trkpt lat="40.91668877649461" lon="9.019153372169438"><ele>731.0</ele><time>2026-05-02T12:52:42Z</time></trkpt><trkpt lat="40.916709686086" lon="9.019000682091022"><ele>732.4</ele><time>2026-05-02T12:52:43Z</time></trkpt><trkpt lat="40.91672764414564" lon="9.018876583182216"><ele>733.8</ele><time>2026-05-02T12:52:44Z</time></trkpt><trkpt lat="40.91673896180936" lon="9.018746193792287"><ele>735.1999999999999</ele><time>2026-05-02T12:52:45Z</time></trkpt><trkpt lat="40.91674000731372" lon="9.018620678207743"><ele>736.5999999999999</ele><time>2026-05-02T12:52:46Z</time></trkpt><trkpt lat="40.91671242200025" lon="9.018499676745776"><ele>738.0</ele><time>2026-05-02T12:52:47Z</time></trkpt><trkpt lat="40.91665106990465" lon="9.018382342527216"><ele>741.0</ele><time>2026-05-02T12:52:48Z</time></trkpt><trkpt lat="40.91657224795124" lon="9.018275141814335"><ele>744.0</ele><time>2026-05-02T12:52:49Z</time></trkpt><trkpt lat="40.91648853810872" lon="9.018149813559106"><ele>747.0</ele><time>2026-05-02T12:52:50Z</time></trkpt><trkpt lat="40.91643335894326" lon="9.018016846959181"><ele>750.0</ele><time>2026-05-02T12:52:51Z</time></trkpt><trkpt lat="40.91640682794462" lon="9.017881003319554"><ele>750.0</ele><time>2026-05-02T12:52:52Z</time></trkpt><trkpt lat="40.91639109589912" lon="9.017754350676027"><ele>750.0</ele><time>2026-05-02T12:52:53Z</time></trkpt><trkpt lat="40.91637282836371" lon="9.017617617218555"><ele>750.0</ele><time>2026-05-02T12:52:54Z</time></trkpt><trkpt lat="40.91634575500791" lon="9.01748964710462"><ele>750.0</ele><time>2026-05-02T12:52:55Z</time></trkpt><trkpt lat="40.91631691176369" lon="9.017350127779434"><ele>750.0</ele><time>2026-05-02T12:52:56Z</time></trkpt><trkpt lat="40.91628253710251" lon="9.017214869366471"><ele>752.6</ele><time>2026-05-02T12:52:57Z</time></trkpt><trkpt lat="40.916238223797826" lon="9.01708106614672"><ele>755.2</ele><time>2026-05-02T12:52:58Z</time></trkpt><trkpt lat="40.916187390693295" lon="9.016955960087897"><ele>757.8</ele><time>2026-05-02T12:52:59Z</time></trkpt><trkpt lat="40.91614913633938" lon="9.01687025432881"><ele>760.4</ele><time>2026-05-02T12:53:00Z</time></trkpt><trkpt lat="40.91612027353129" lon="9.016727808925877"><ele>763.0</ele><time>2026-05-02T12:53:02Z</time></trkpt><trkpt lat="40.9160719010009" lon="9.016601149275514"><ele>764.3333333333334</ele><time>2026-05-02T12:53:04Z</time></trkpt><trkpt lat="40.916023000066154" lon="9.016457777751619"><ele>765.6666666666667</ele><time>2026-05-02T12:53:06Z</time></trkpt><trkpt lat="40.91599243229341" lon="9.01636894344308"><ele>767.0</ele><time>2026-05-02T12:53:07Z</time></trkpt><trkpt lat="40.91595900582815" lon="9.016271801394945"><ele>768.3333333333334</ele><time>2026-05-02T12:53:08Z</time></trkpt><trkpt lat="40.91592444423407" lon="9.016172500112292"><ele>769.6666666666666</ele><time>2026-05-02T12:53:09Z</time></trkpt><trkpt lat="40.91589397388511" lon="9.016088607705672"><ele>771.0</ele><time>2026-05-02T12:53:10Z</time></trkpt><trkpt lat="40.915851644507136" lon="9.0160195581276"><ele>771.0</ele><time>2026-05-02T12:53:11Z</time></trkpt><trkpt lat="40.91582613426688" lon="9.015939893180132"><ele>771.0</ele><time>2026-05-02T12:53:12Z</time></trkpt><trkpt lat="40.91578905734949" lon="9.015863743343454"><ele>771.0</ele><time>2026-05-02T12:53:13Z</time></trkpt><trkpt lat="40.915756674686236" lon="9.015778188973117"><ele>771.0</ele><time>2026-05-02T12:53:14Z</time></trkpt><trkpt lat="40.91572731218599" lon="9.015691583016256"><ele>771.0</ele><time>2026-05-02T12:53:15Z</time></trkpt><trkpt lat="40.9156826297427" lon="9.015594209891034"><ele>771.0</ele><time>2026-05-02T12:53:16Z</time></trkpt><trkpt lat="40.915630897221426" lon="9.015498265650077"><ele>774.0</ele><time>2026-05-02T12:53:17Z</time></trkpt><trkpt lat="40.915599988127454" lon="9.015379105554832"><ele>777.0</ele><time>2026-05-02T12:53:18Z</time></trkpt><trkpt lat="40.91555951144784" lon="9.015263971097342"><ele>780.0</ele><time>2026-05-02T12:53:19Z</time></trkpt><trkpt lat="40.91551651089476" lon="9.015138563533599"><ele>783.0</ele><time>2026-05-02T12:53:20Z</time></trkpt><trkpt lat="40.91546096772766" lon="9.015012459227957"><ele>786.0</ele><time>2026-05-02T12:53:21Z</time></trkpt><trkpt lat="40.915436844187006" lon="9.014866257367382"><ele>789.1999999999999</ele><time>2026-05-02T12:53:22Z</time></trkpt><trkpt lat="40.915396352618515" lon="9.01472014144623"><ele>792.4</ele><time>2026-05-02T12:53:23Z</time></trkpt><trkpt lat="40.915344626732534" lon="9.014594448649087"><ele>795.6</ele><time>2026-05-02T12:53:24Z</time></trkpt><trkpt lat="40.915344617982896" lon="9.014454510998187"><ele>798.8</ele><time>2026-05-02T12:53:25Z</time></trkpt><trkpt lat="40.915349590183354" lon="9.014322947754069"><ele>802.0</ele><time>2026-05-02T12:53:26Z</time></trkpt><trkpt lat="40.91534462033997" lon="9.014184052624751"><ele>806.25</ele><time>2026-05-02T12:53:27Z</time></trkpt><trkpt lat="40.91535760289772" lon="9.014034987124537"><ele>810.5</ele><time>2026-05-02T12:53:28Z</time></trkpt><trkpt lat="40.91534594585544" lon="9.013881173340653"><ele>814.75</ele><time>2026-05-02T12:53:29Z</time></trkpt><trkpt lat="40.915292525196" lon="9.013730631383305"><ele>819.0</ele><time>2026-05-02T12:53:30Z</time></trkpt><trkpt lat="40.915213896911794" lon="9.013576990475016"><ele>819.0</ele><time>2026-05-02T12:53:31Z</time></trkpt><trkpt lat="40.91511429845911" lon="9.013430440309099"><ele>819.0</ele><time>2026-05-02T12:53:32Z</time></trkpt><trkpt lat="40.91501563475253" lon="9.013339799290366"><ele>819.0</ele><time>2026-05-02T12:53:33Z</time></trkpt><trkpt lat="40.91491870356171" lon="9.013224888891688"><ele>819.0</ele><time>2026-05-02T12:53:34Z</time></trkpt><trkpt lat="40.91481564797098" lon="9.013120632019964"><ele>820.6</ele><time>2026-05-02T12:53:35Z</time></trkpt><trkpt lat="40.914702678125664" lon="9.013038681375397"><ele>822.2</ele><time>2026-05-02T12:53:36Z</time></trkpt><trkpt lat="40.914610932888955" lon="9.01295420259284"><ele>823.8000000000001</ele><time>2026-05-02T12:53:37Z</time></trkpt><trkpt lat="40.91452458964871" lon="9.012888889514388"><ele>825.4000000000001</ele><time>2026-05-02T12:53:38Z</time></trkpt><trkpt lat="40.91447308115831" lon="9.012788398269537"><ele>827.0</ele><time>2026-05-02T12:53:39Z</time></trkpt><trkpt lat="40.914444319019935" lon="9.012692198296941"><ele>827.0</ele><time>2026-05-02T12:53:40Z</time></trkpt><trkpt lat="40.91440919839986" lon="9.01257773583268"><ele>827.0</ele><time>2026-05-02T12:53:41Z</time></trkpt><trkpt lat="40.91438082347628" lon="9.012441539937969"><ele>827.0</ele><time>2026-05-02T12:53:42Z</time></trkpt><trkpt lat="40.9143329788413" lon="9.01229797563716"><ele>827.0</ele><time>2026-05-02T12:53:43Z</time></trkpt><trkpt lat="40.91429781826876" lon="9.012132352130527"><ele>827.0</ele><time>2026-05-02T12:53:44Z</time></trkpt><trkpt lat="40.91425859556723" lon="9.011974057890825"><ele>829.25</ele><time>2026-05-02T12:53:45Z</time></trkpt><trkpt lat="40.914240906428766" lon="9.011808961110196"><ele>831.5</ele><time>2026-05-02T12:53:46Z</time></trkpt><trkpt lat="40.91421324403639" lon="9.011638629503313"><ele>833.75</ele><time>2026-05-02T12:53:47Z</time></trkpt><trkpt lat="40.91416731490698" lon="9.01146200567589"><ele>836.0</ele><time>2026-05-02T12:53:48Z</time></trkpt><trkpt lat="40.914119138531554" lon="9.011282074717693"><ele>836.0</ele><time>2026-05-02T12:53:49Z</time></trkpt><trkpt lat="40.91405296427643" lon="9.01109391149258"><ele>836.0</ele><time>2026-05-02T12:53:50Z</time></trkpt><trkpt lat="40.91399167074034" lon="9.010904074524852"><ele>836.0</ele><time>2026-05-02T12:53:51Z</time></trkpt><trkpt lat="40.913930227362265" lon="9.010711729495455"><ele>838.75</ele><time>2026-05-02T12:53:52Z</time></trkpt><trkpt lat="40.913854366552854" lon="9.010536411957261"><ele>841.5</ele><time>2026-05-02T12:53:53Z</time></trkpt><trkpt lat="40.91381112402452" lon="9.010371105234618"><ele>844.25</ele><time>2026-05-02T12:53:54Z</time></trkpt><trkpt lat="40.91378254207291" lon="9.010241627531094"><ele>847.0</ele><time>2026-05-02T12:53:55Z</time></trkpt><trkpt lat="40.91374798642367" lon="9.01008192195387"><ele>848.0</ele><time>2026-05-02T12:53:56Z</time></trkpt><trkpt lat="40.91368779106107" lon="9.009904487089507"><ele>849.0</ele><time>2026-05-02T12:53:57Z</time></trkpt><trkpt lat="40.91364623474394" lon="9.009735780821805"><ele>850.0</ele><time>2026-05-02T12:53:58Z</time></trkpt><trkpt lat="40.91360701882952" lon="9.009595875623186"><ele>851.0</ele><time>2026-05-02T12:53:59Z</time></trkpt><trkpt lat="40.913582282658474" lon="9.00947855757833"><ele>851.0000000000001</ele><time>2026-05-02T12:54:00Z</time></trkpt><trkpt lat="40.91355651280677" lon="9.0093822563693"><ele>851.0</ele><time>2026-05-02T12:54:01Z</time></trkpt><trkpt lat="40.91353312665822" lon="9.00923705446484"><ele>851.0</ele><time>2026-05-02T12:54:03Z</time></trkpt><trkpt lat="40.91351281176594" lon="9.009084301431916"><ele>851.0</ele><time>2026-05-02T12:54:05Z</time></trkpt><trkpt lat="40.91349834283116" lon="9.00899920269638"><ele>851.0000000000001</ele><time>2026-05-02T12:54:06Z</time></trkpt><trkpt lat="40.9135192812861" lon="9.008902164629522"><ele>851.0</ele><time>2026-05-02T12:54:07Z</time></trkpt><trkpt lat="40.9135452831811" lon="9.00881328339322"><ele>851.0</ele><time>2026-05-02T12:54:08Z</time></trkpt><trkpt lat="40.91357061619967" lon="9.008701749623452"><ele>851.0</ele><time>2026-05-02T12:54:09Z</time></trkpt><trkpt lat="40.913590403746944" lon="9.00859931099418"><ele>851.0</ele><time>2026-05-02T12:54:10Z</time></trkpt><trkpt lat="40.91361838107503" lon="9.008494411438608"><ele>851.0</ele><time>2026-05-02T12:54:11Z</time></trkpt><trkpt lat="40.9136534085957" lon="9.008371996976484"><ele>851.0</ele><time>2026-05-02T12:54:12Z</time></trkpt><trkpt lat="40.913686959430734" lon="9.008248317862966"><ele>851.0</ele><time>2026-05-02T12:54:13Z</time></trkpt><trkpt lat="40.913713673246015" lon="9.008120085378188"><ele>851.0</ele><time>2026-05-02T12:54:14Z</time></trkpt><trkpt lat="40.913734020599165" lon="9.007998506593838"><ele>851.0</ele><time>2026-05-02T12:54:15Z</time></trkpt><trkpt lat="40.91375405604065" lon="9.007883435521371"><ele>851.0</ele><time>2026-05-02T12:54:16Z</time></trkpt><trkpt lat="40.913804508517885" lon="9.007769607272905"><ele>851.0</ele><time>2026-05-02T12:54:17Z</time></trkpt><trkpt lat="40.91383870273145" lon="9.007647300105944"><ele>851.0</ele><time>2026-05-02T12:54:18Z</time></trkpt><trkpt lat="40.91390204816744" lon="9.00752401049031"><ele>851.0</ele><time>2026-05-02T12:54:19Z</time></trkpt><trkpt lat="40.9139776892921" lon="9.00742105136005"><ele>851.0</ele><time>2026-05-02T12:54:20Z</time></trkpt><trkpt lat="40.91402936473165" lon="9.007303612369052"><ele>851.0</ele><time>2026-05-02T12:54:21Z</time></trkpt><trkpt lat="40.91409607193373" lon="9.007188147508225"><ele>851.0</ele><time>2026-05-02T12:54:22Z</time></trkpt><trkpt lat="40.91415640862093" lon="9.007081412909272"><ele>851.4</ele><time>2026-05-02T12:54:23Z</time></trkpt><trkpt lat="40.91421812357463" lon="9.006972308245205"><ele>851.8</ele><time>2026-05-02T12:54:24Z</time></trkpt><trkpt lat="40.914288956980535" lon="9.006858949040906"><ele>852.1999999999999</ele><time>2026-05-02T12:54:25Z</time></trkpt><trkpt lat="40.914362849622684" lon="9.006742262028277"><ele>852.5999999999999</ele><time>2026-05-02T12:54:26Z</time></trkpt><trkpt lat="40.914424751082166" lon="9.006619180161424"><ele>853.0</ele><time>2026-05-02T12:54:27Z</time></trkpt><trkpt lat="40.91447352390432" lon="9.006481749508769"><ele>851.5</ele><time>2026-05-02T12:54:28Z</time></trkpt><trkpt lat="40.91451104233407" lon="9.00633395830769"><ele>850.0</ele><time>2026-05-02T12:54:29Z</time></trkpt><trkpt lat="40.91454119316266" lon="9.006186616344314"><ele>848.5</ele><time>2026-05-02T12:54:30Z</time></trkpt><trkpt lat="40.9145752679252" lon="9.006044422076865"><ele>847.0</ele><time>2026-05-02T12:54:31Z</time></trkpt><trkpt lat="40.91461947117084" lon="9.005903537084572"><ele>845.5</ele><time>2026-05-02T12:54:32Z</time></trkpt><trkpt lat="40.91466552458181" lon="9.005757061492684"><ele>844.0</ele><time>2026-05-02T12:54:32.999Z</time></trkpt><trkpt lat="40.91469817818943" lon="9.005594822947227"><ele>842.5</ele><time>2026-05-02T12:54:33.999Z</time></trkpt><trkpt lat="40.91471181957004" lon="9.005417268626218"><ele>841.0</ele><time>2026-05-02T12:54:34.999Z</time></trkpt><trkpt lat="40.91474769851131" lon="9.00524879672546"><ele>841.0</ele><time>2026-05-02T12:54:35.999Z</time></trkpt><trkpt lat="40.914762687526206" lon="9.005085726053247"><ele>841.0</ele><time>2026-05-02T12:54:36.999Z</time></trkpt><trkpt lat="40.91479942913457" lon="9.004919730415116"><ele>841.0</ele><time>2026-05-02T12:54:37.999Z</time></trkpt><trkpt lat="40.91483610030117" lon="9.00475205818819"><ele>841.0</ele><time>2026-05-02T12:54:38.999Z</time></trkpt><trkpt lat="40.91487338495731" lon="9.004583299504011"><ele>841.0</ele><time>2026-05-02T12:54:39.999Z</time></trkpt><trkpt lat="40.91491283867201" lon="9.004417468885842"><ele>841.0</ele><time>2026-05-02T12:54:40.999Z</time></trkpt><trkpt lat="40.9149573087666" lon="9.004253896581313"><ele>841.0</ele><time>2026-05-02T12:54:41.999Z</time></trkpt><trkpt lat="40.91499955078045" lon="9.004092343294564"><ele>841.0</ele><time>2026-05-02T12:54:42.999Z</time></trkpt><trkpt lat="40.915036201743526" lon="9.003940336724774"><ele>841.25</ele><time>2026-05-02T12:54:43.999Z</time></trkpt><trkpt lat="40.915072839866625" lon="9.003788017646277"><ele>841.5</ele><time>2026-05-02T12:54:44.999Z</time></trkpt><trkpt lat="40.91510782271125" lon="9.00363565004061"><ele>841.75</ele><time>2026-05-02T12:54:45.999Z</time></trkpt><trkpt lat="40.9151452357936" lon="9.003484511088"><ele>842.0</ele><time>2026-05-02T12:54:46.999Z</time></trkpt><trkpt lat="40.91518665669629" lon="9.003338289750586"><ele>844.4000000000001</ele><time>2026-05-02T12:54:47.999Z</time></trkpt><trkpt lat="40.91523022024575" lon="9.003194991683927"><ele>846.8000000000001</ele><time>2026-05-02T12:54:48.999Z</time></trkpt><trkpt lat="40.91527487458726" lon="9.003079132969352"><ele>849.2</ele><time>2026-05-02T12:54:49.999Z</time></trkpt><trkpt lat="40.915343491907755" lon="9.003022309907475"><ele>851.6</ele><time>2026-05-02T12:54:50.999Z</time></trkpt><trkpt lat="40.915420510932144" lon="9.002906453552942"><ele>854.0</ele><time>2026-05-02T12:54:52.999Z</time></trkpt><trkpt lat="40.915466658756145" lon="9.002840974748672"><ele>854.0</ele><time>2026-05-02T12:54:53.999Z</time></trkpt><trkpt lat="40.91551508500954" lon="9.002751355524063"><ele>854.0000000000001</ele><time>2026-05-02T12:54:54.999Z</time></trkpt><trkpt lat="40.91558232767919" lon="9.002664174465353"><ele>854.0000000000001</ele><time>2026-05-02T12:54:55.999Z</time></trkpt><trkpt lat="40.91564502900768" lon="9.002579915848372"><ele>854.0</ele><time>2026-05-02T12:54:56.999Z</time></trkpt><trkpt lat="40.91572058465536" lon="9.00248717175656"><ele>854.0</ele><time>2026-05-02T12:54:57.999Z</time></trkpt><trkpt lat="40.91577587750744" lon="9.002395929685369"><ele>855.5</ele><time>2026-05-02T12:54:58.999Z</time></trkpt><trkpt lat="40.91583694407268" lon="9.002277500415392"><ele>857.0</ele><time>2026-05-02T12:54:59.999Z</time></trkpt><trkpt lat="40.91590934977823" lon="9.002163842310484"><ele>858.5</ele><time>2026-05-02T12:55:00.999Z</time></trkpt><trkpt lat="40.91598194158149" lon="9.002037671476423"><ele>860.0</ele><time>2026-05-02T12:55:01.999Z</time></trkpt><trkpt lat="40.91605243964258" lon="9.00191400002377"><ele>861.6</ele><time>2026-05-02T12:55:02.999Z</time></trkpt><trkpt lat="40.916097868601675" lon="9.001792397271249"><ele>863.2</ele><time>2026-05-02T12:55:03.999Z</time></trkpt><trkpt lat="40.91616799557038" lon="9.001664552531404"><ele>864.8</ele><time>2026-05-02T12:55:04.999Z</time></trkpt><trkpt lat="40.91623838134907" lon="9.001564623331637"><ele>866.4</ele><time>2026-05-02T12:55:05.999Z</time></trkpt><trkpt lat="40.91630922015559" lon="9.00146457928151"><ele>868.0</ele><time>2026-05-02T12:55:06.999Z</time></trkpt><trkpt lat="40.916379162568205" lon="9.001336618388507"><ele>868.5</ele><time>2026-05-02T12:55:07.999Z</time></trkpt><trkpt lat="40.91647612054384" lon="9.001217343201775"><ele>869.0</ele><time>2026-05-02T12:55:08.999Z</time></trkpt><trkpt lat="40.91657383206371" lon="9.001079606795859"><ele>869.5</ele><time>2026-05-02T12:55:09.999Z</time></trkpt><trkpt lat="40.91668110214018" lon="9.00094117585025"><ele>870.0</ele><time>2026-05-02T12:55:10.999Z</time></trkpt><trkpt lat="40.91677018748684" lon="9.00078219204869"><ele>870.0</ele><time>2026-05-02T12:55:11.999Z</time></trkpt><trkpt lat="40.91685674938081" lon="9.000602359003926"><ele>870.0</ele><time>2026-05-02T12:55:12.999Z</time></trkpt><trkpt lat="40.91693381478911" lon="9.000426803125224"><ele>870.0</ele><time>2026-05-02T12:55:13.999Z</time></trkpt><trkpt lat="40.916993654722475" lon="9.000275985599814"><ele>870.0</ele><time>2026-05-02T12:55:14.999Z</time></trkpt><trkpt lat="40.91703837181902" lon="9.00015207141455"><ele>870.0</ele><time>2026-05-02T12:55:15.999Z</time></trkpt><trkpt lat="40.91708467748261" lon="9.000015167791158"><ele>870.0</ele><time>2026-05-02T12:55:16.999Z</time></trkpt><trkpt lat="40.917120716469285" lon="8.999883223925757"><ele>870.0</ele><time>2026-05-02T12:55:17.999Z</time></trkpt><trkpt lat="40.91714416134273" lon="8.999731400828225"><ele>870.0</ele><time>2026-05-02T12:55:19Z</time></trkpt><trkpt lat="40.91714954115992" lon="8.999554788498205"><ele>870.0</ele><time>2026-05-02T12:55:20Z</time></trkpt><trkpt lat="40.917142300050436" lon="8.99934009257042"><ele>870.0</ele><time>2026-05-02T12:55:21Z</time></trkpt><trkpt lat="40.91713907127964" lon="8.99913558407385"><ele>870.0</ele><time>2026-05-02T12:55:22Z</time></trkpt><trkpt lat="40.917128735004546" lon="8.998955948406335"><ele>869.5</ele><time>2026-05-02T12:55:23Z</time></trkpt><trkpt lat="40.917127065575585" lon="8.998779607182334"><ele>869.0</ele><time>2026-05-02T12:55:24Z</time></trkpt><trkpt lat="40.91710796499457" lon="8.998604523625879"><ele>868.5</ele><time>2026-05-02T12:55:25Z</time></trkpt><trkpt lat="40.917083025335764" lon="8.998427511261786"><ele>868.0</ele><time>2026-05-02T12:55:26Z</time></trkpt><trkpt lat="40.91705457484504" lon="8.998255842704177"><ele>868.0</ele><time>2026-05-02T12:55:27Z</time></trkpt><trkpt lat="40.91704643826059" lon="8.998086263225032"><ele>868.0</ele><time>2026-05-02T12:55:28Z</time></trkpt><trkpt lat="40.917026492004126" lon="8.997926299647835"><ele>868.0</ele><time>2026-05-02T12:55:29Z</time></trkpt><trkpt lat="40.917007076750885" lon="8.997771457607575"><ele>868.0</ele><time>2026-05-02T12:55:30Z</time></trkpt><trkpt lat="40.91699228770736" lon="8.997639988794859"><ele>868.0</ele><time>2026-05-02T12:55:31Z</time></trkpt><trkpt lat="40.91699055651857" lon="8.997537175028663"><ele>868.0</ele><time>2026-05-02T12:55:32Z</time></trkpt><trkpt lat="40.9169999014745" lon="8.997443482379841"><ele>868.0</ele><time>2026-05-02T12:55:33Z</time></trkpt><trkpt lat="40.91703107676516" lon="8.99733071171201"><ele>868.0</ele><time>2026-05-02T12:55:34Z</time></trkpt><trkpt lat="40.917049730825596" lon="8.997185181676166"><ele>868.0</ele><time>2026-05-02T12:55:35Z</time></trkpt><trkpt lat="40.9170942921567" lon="8.997027095785592"><ele>866.75</ele><time>2026-05-02T12:55:36Z</time></trkpt><trkpt lat="40.91714299105191" lon="8.996841796614195"><ele>865.5</ele><time>2026-05-02T12:55:37Z</time></trkpt><trkpt lat="40.91717882916041" lon="8.996665839903054"><ele>864.25</ele><time>2026-05-02T12:55:38Z</time></trkpt><trkpt lat="40.91721472369659" lon="8.996487315644732"><ele>863.0</ele><time>2026-05-02T12:55:39Z</time></trkpt><trkpt lat="40.91725385816465" lon="8.996319871393736"><ele>862.0</ele><time>2026-05-02T12:55:40Z</time></trkpt><trkpt lat="40.917292720036585" lon="8.996175538562659"><ele>861.0</ele><time>2026-05-02T12:55:41Z</time></trkpt><trkpt lat="40.91732681863449" lon="8.996045406711952"><ele>860.0</ele><time>2026-05-02T12:55:42Z</time></trkpt><trkpt lat="40.917359854656866" lon="8.995919748188456"><ele>859.0</ele><time>2026-05-02T12:55:43Z</time></trkpt><trkpt lat="40.91739485922554" lon="8.995817119986949"><ele>858.0</ele><time>2026-05-02T12:55:44Z</time></trkpt><trkpt lat="40.91742283597298" lon="8.995740238717428"><ele>858.0</ele><time>2026-05-02T12:55:45Z</time></trkpt><trkpt lat="40.917414233557444" lon="8.995612764827955"><ele>858.0</ele><time>2026-05-02T12:55:47Z</time></trkpt><trkpt lat="40.91740119730371" lon="8.99552773947325"><ele>858.0</ele><time>2026-05-02T12:55:49Z</time></trkpt><trkpt lat="40.917366006107855" lon="8.995422736695353"><ele>858.0</ele><time>2026-05-02T12:55:52Z</time></trkpt><trkpt lat="40.917333535623776" lon="8.995333020566694"><ele>858.0</ele><time>2026-05-02T12:55:53Z</time></trkpt><trkpt lat="40.91729407527014" lon="8.995227627782237"><ele>858.0</ele><time>2026-05-02T12:55:54Z</time></trkpt><trkpt lat="40.91724765244764" lon="8.995103639310258"><ele>859.25</ele><time>2026-05-02T12:55:55Z</time></trkpt><trkpt lat="40.917205990107966" lon="8.994976641548048"><ele>860.5</ele><time>2026-05-02T12:55:56Z</time></trkpt><trkpt lat="40.91716001684294" lon="8.994819828758466"><ele>861.75</ele><time>2026-05-02T12:55:57Z</time></trkpt><trkpt lat="40.91711693040326" lon="8.994643461558745"><ele>863.0</ele><time>2026-05-02T12:55:58Z</time></trkpt><trkpt lat="40.917088775008345" lon="8.994481013935614"><ele>863.0</ele><time>2026-05-02T12:55:59Z</time></trkpt><trkpt lat="40.9170701961271" lon="8.994327104602375"><ele>863.0</ele><time>2026-05-02T12:56:00Z</time></trkpt><trkpt lat="40.91705992268905" lon="8.994163405109484"><ele>863.0</ele><time>2026-05-02T12:56:01Z</time></trkpt><trkpt lat="40.91706458962176" lon="8.993986534850752"><ele>863.0</ele><time>2026-05-02T12:56:02Z</time></trkpt><trkpt lat="40.917055974202476" lon="8.993801890242539"><ele>865.2</ele><time>2026-05-02T12:56:03Z</time></trkpt><trkpt lat="40.91706530073466" lon="8.993644939331373"><ele>867.4</ele><time>2026-05-02T12:56:04Z</time></trkpt><trkpt lat="40.91706113776036" lon="8.993500596207051"><ele>869.6000000000001</ele><time>2026-05-02T12:56:05Z</time></trkpt><trkpt lat="40.91703707108942" lon="8.993372730524811"><ele>871.8000000000001</ele><time>2026-05-02T12:56:06Z</time></trkpt><trkpt lat="40.916989005126815" lon="8.9932576964482"><ele>874.0</ele><time>2026-05-02T12:56:07Z</time></trkpt><trkpt lat="40.91691382806336" lon="8.993127967442884"><ele>875.6666666666666</ele><time>2026-05-02T12:56:08Z</time></trkpt><trkpt lat="40.91682493197845" lon="8.992959663071023"><ele>877.3333333333333</ele><time>2026-05-02T12:56:09Z</time></trkpt><trkpt lat="40.91671843655947" lon="8.992799346225612"><ele>879.0</ele><time>2026-05-02T12:56:10Z</time></trkpt><trkpt lat="40.91663197227567" lon="8.992628838199401"><ele>878.0</ele><time>2026-05-02T12:56:11Z</time></trkpt><trkpt lat="40.916555456394256" lon="8.992467478964068"><ele>877.0</ele><time>2026-05-02T12:56:12Z</time></trkpt><trkpt lat="40.91646931261317" lon="8.992361129064173"><ele>876.0</ele><time>2026-05-02T12:56:13Z</time></trkpt><trkpt lat="40.916392193754014" lon="8.992257549776285"><ele>875.0</ele><time>2026-05-02T12:56:14Z</time></trkpt><trkpt lat="40.91627932566519" lon="8.992158824877135"><ele>875.0</ele><time>2026-05-02T12:56:15Z</time></trkpt><trkpt lat="40.91614910615866" lon="8.992017953433436"><ele>875.0</ele><time>2026-05-02T12:56:16Z</time></trkpt><trkpt lat="40.91601661137259" lon="8.991887485974345"><ele>875.0</ele><time>2026-05-02T12:56:17Z</time></trkpt><trkpt lat="40.91588711783912" lon="8.991763160735768"><ele>874.75</ele><time>2026-05-02T12:56:18Z</time></trkpt><trkpt lat="40.91576635414083" lon="8.991669756222233"><ele>874.5</ele><time>2026-05-02T12:56:19Z</time></trkpt><trkpt lat="40.915645930029704" lon="8.991577667199813"><ele>874.25</ele><time>2026-05-02T12:56:20Z</time></trkpt><trkpt lat="40.91551079684226" lon="8.991460035859513"><ele>874.0</ele><time>2026-05-02T12:56:21Z</time></trkpt><trkpt lat="40.915414897756165" lon="8.991340965221593"><ele>873.9999999999999</ele><time>2026-05-02T12:56:21.999Z</time></trkpt><trkpt lat="40.91534598191632" lon="8.991243921991005"><ele>874.0</ele><time>2026-05-02T12:56:22.999Z</time></trkpt><trkpt lat="40.91529173548414" lon="8.991161496327633"><ele>874.0</ele><time>2026-05-02T12:56:23.999Z</time></trkpt><trkpt lat="40.915240062655485" lon="8.99108147649773"><ele>874.0</ele><time>2026-05-02T12:56:24.999Z</time></trkpt><trkpt lat="40.91519501085524" lon="8.991011365968467"><ele>873.9999999999999</ele><time>2026-05-02T12:56:25.999Z</time></trkpt><trkpt lat="40.91513675513464" lon="8.990920707260857"><ele>874.0</ele><time>2026-05-02T12:56:26.999Z</time></trkpt><trkpt lat="40.91507326199405" lon="8.99082189730025"><ele>873.4000000000001</ele><time>2026-05-02T12:56:27.999Z</time></trkpt><trkpt lat="40.91501150523148" lon="8.990734963284964"><ele>872.8000000000001</ele><time>2026-05-02T12:56:28.999Z</time></trkpt><trkpt lat="40.91495859744051" lon="8.990625047717229"><ele>872.1999999999999</ele><time>2026-05-02T12:56:29.999Z</time></trkpt><trkpt lat="40.91489547187409" lon="8.990515482409698"><ele>871.5999999999999</ele><time>2026-05-02T12:56:30.999Z</time></trkpt><trkpt lat="40.91482649205857" lon="8.990394153399814"><ele>871.0</ele><time>2026-05-02T12:56:31.999Z</time></trkpt><trkpt lat="40.914773365355266" lon="8.990289881579729"><ele>871.0</ele><time>2026-05-02T12:56:32.999Z</time></trkpt><trkpt lat="40.914738335654214" lon="8.990202648544287"><ele>870.9999999999999</ele><time>2026-05-02T12:56:33.999Z</time></trkpt><trkpt lat="40.91469644501569" lon="8.990009005728773"><ele>870.9999999999999</ele><time>2026-05-02T12:56:34.999Z</time></trkpt><trkpt lat="40.9146294535398" lon="8.989885660289268"><ele>871.0</ele><time>2026-05-02T12:56:35.999Z</time></trkpt><trkpt lat="40.91457389361388" lon="8.989777855867551"><ele>871.0</ele><time>2026-05-02T12:56:36.999Z</time></trkpt><trkpt lat="40.914503671697254" lon="8.989711452062751"><ele>869.0</ele><time>2026-05-02T12:56:37.999Z</time></trkpt><trkpt lat="40.914404879475306" lon="8.98958897190833"><ele>867.0</ele><time>2026-05-02T12:56:38.999Z</time></trkpt><trkpt lat="40.914301295899016" lon="8.989485156449431"><ele>865.0</ele><time>2026-05-02T12:56:39.999Z</time></trkpt><trkpt lat="40.91419572024295" lon="8.989392914434378"><ele>863.0</ele><time>2026-05-02T12:56:40.999Z</time></trkpt><trkpt lat="40.91410619288803" lon="8.989335205216339"><ele>863.0</ele><time>2026-05-02T12:56:41.999Z</time></trkpt><trkpt lat="40.9134528744627" lon="8.989688986613912"><ele>858.5</ele><time>2026-05-02T12:56:42.999Z</time></trkpt><trkpt lat="40.913354903996286" lon="8.989591569317822"><ele>854.0</ele><time>2026-05-02T12:56:43.999Z</time></trkpt><trkpt lat="40.91325640016966" lon="8.989485545592409"><ele>849.5</ele><time>2026-05-02T12:56:44.999Z</time></trkpt><trkpt lat="40.913156669000024" lon="8.989373399030795"><ele>845.0</ele><time>2026-05-02T12:56:45.999Z</time></trkpt><trkpt lat="40.913072394033684" lon="8.98925139297333"><ele>847.0</ele><time>2026-05-02T12:56:46.999Z</time></trkpt><trkpt lat="40.91300318514796" lon="8.989114600252515"><ele>849.0</ele><time>2026-05-02T12:56:47.999Z</time></trkpt><trkpt lat="40.91292374056472" lon="8.988984906760368"><ele>851.0</ele><time>2026-05-02T12:56:48.999Z</time></trkpt><trkpt lat="40.91284254222565" lon="8.988858190125482"><ele>853.0</ele><time>2026-05-02T12:56:49.999Z</time></trkpt><trkpt lat="40.912773605241924" lon="8.98872459876479"><ele>853.0</ele><time>2026-05-02T12:56:50.999Z</time></trkpt><trkpt lat="40.9127099913921" lon="8.988590584161027"><ele>853.0</ele><time>2026-05-02T12:56:51.999Z</time></trkpt><trkpt lat="40.912631177171924" lon="8.988473205080334"><ele>853.0</ele><time>2026-05-02T12:56:52.999Z</time></trkpt><trkpt lat="40.9125479330534" lon="8.988354028932207"><ele>853.0</ele><time>2026-05-02T12:56:53.999Z</time></trkpt><trkpt lat="40.9124585375541" lon="8.988230406233091"><ele>850.0</ele><time>2026-05-02T12:56:54.999Z</time></trkpt><trkpt lat="40.91236187674771" lon="8.988114492684037"><ele>847.0</ele><time>2026-05-02T12:56:55.999Z</time></trkpt><trkpt lat="40.91225910892945" lon="8.987999273208136"><ele>844.0</ele><time>2026-05-02T12:56:56.999Z</time></trkpt><trkpt lat="40.9121560599681" lon="8.987889443004168"><ele>841.0</ele><time>2026-05-02T12:56:57.999Z</time></trkpt><trkpt lat="40.91206019013172" lon="8.9877724773589"><ele>841.0</ele><time>2026-05-02T12:56:58.999Z</time></trkpt><trkpt lat="40.911975934884694" lon="8.987669788681954"><ele>841.0</ele><time>2026-05-02T12:56:59.999Z</time></trkpt><trkpt lat="40.91187905196652" lon="8.987576199427224"><ele>841.0</ele><time>2026-05-02T12:57:00.999Z</time></trkpt><trkpt lat="40.91176248915093" lon="8.987502503354294"><ele>841.0</ele><time>2026-05-02T12:57:01.999Z</time></trkpt><trkpt lat="40.91164322891681" lon="8.987440871626852"><ele>840.4</ele><time>2026-05-02T12:57:02.999Z</time></trkpt><trkpt lat="40.911539260847114" lon="8.987375627245903"><ele>839.8</ele><time>2026-05-02T12:57:03.999Z</time></trkpt><trkpt lat="40.91144022141137" lon="8.987328398060063"><ele>839.1999999999999</ele><time>2026-05-02T12:57:04.999Z</time></trkpt><trkpt lat="40.91133551733469" lon="8.987285081307679"><ele>838.5999999999999</ele><time>2026-05-02T12:57:05.999Z</time></trkpt><trkpt lat="40.911244576221584" lon="8.987244404577003"><ele>838.0</ele><time>2026-05-02T12:57:06.999Z</time></trkpt><trkpt lat="40.91115528147802" lon="8.987207336463285"><ele>838.0</ele><time>2026-05-02T12:57:07.999Z</time></trkpt><trkpt lat="40.91107261152882" lon="8.987168813650843"><ele>838.0</ele><time>2026-05-02T12:57:08.999Z</time></trkpt><trkpt lat="40.910995339284796" lon="8.987113654597218"><ele>838.0</ele><time>2026-05-02T12:57:09.999Z</time></trkpt><trkpt lat="40.91091529288614" lon="8.987051607912685"><ele>838.0</ele><time>2026-05-02T12:57:10.999Z</time></trkpt><trkpt lat="40.9108457299793" lon="8.98698437334365"><ele>838.0</ele><time>2026-05-02T12:57:11.999Z</time></trkpt><trkpt lat="40.91076575372483" lon="8.986887219371868"><ele>834.8</ele><time>2026-05-02T12:57:12.999Z</time></trkpt><trkpt lat="40.91070059709382" lon="8.98677255099499"><ele>831.5999999999999</ele><time>2026-05-02T12:57:13.999Z</time></trkpt><trkpt lat="40.91063580735771" lon="8.986675112633058"><ele>828.4000000000001</ele><time>2026-05-02T12:57:14.999Z</time></trkpt><trkpt lat="40.910578912904626" lon="8.98657204318428"><ele>825.2</ele><time>2026-05-02T12:57:15.999Z</time></trkpt><trkpt lat="40.910538182670685" lon="8.986458947935912"><ele>822.0</ele><time>2026-05-02T12:57:16.999Z</time></trkpt><trkpt lat="40.91050139300613" lon="8.986308817875237"><ele>822.0</ele><time>2026-05-02T12:57:17.999Z</time></trkpt><trkpt lat="40.910461742111906" lon="8.986146194582009"><ele>822.0</ele><time>2026-05-02T12:57:18.999Z</time></trkpt><trkpt lat="40.91041958663269" lon="8.98597436763086"><ele>822.0</ele><time>2026-05-02T12:57:19.999Z</time></trkpt><trkpt lat="40.91038710825317" lon="8.985800208685207"><ele>822.0</ele><time>2026-05-02T12:57:20.999Z</time></trkpt><trkpt lat="40.91036236473559" lon="8.985634133613194"><ele>822.0</ele><time>2026-05-02T12:57:21.999Z</time></trkpt><trkpt lat="40.9103290421684" lon="8.985483042280618"><ele>822.0</ele><time>2026-05-02T12:57:22.999Z</time></trkpt><trkpt lat="40.910286866982865" lon="8.985333642141685"><ele>822.0</ele><time>2026-05-02T12:57:23.999Z</time></trkpt><trkpt lat="40.91025703113012" lon="8.98518436206346"><ele>822.0</ele><time>2026-05-02T12:57:25Z</time></trkpt><trkpt lat="40.9102614960201" lon="8.985050942694672"><ele>821.0</ele><time>2026-05-02T12:57:26Z</time></trkpt><trkpt lat="40.91029353644504" lon="8.984924462998992"><ele>820.0</ele><time>2026-05-02T12:57:27Z</time></trkpt><trkpt lat="40.91034874032446" lon="8.984786669489408"><ele>819.0</ele><time>2026-05-02T12:57:28Z</time></trkpt><trkpt lat="40.910427155927046" lon="8.984623421360286"><ele>818.0</ele><time>2026-05-02T12:57:29Z</time></trkpt><trkpt lat="40.91049181456471" lon="8.984450343449302"><ele>818.0</ele><time>2026-05-02T12:57:30Z</time></trkpt><trkpt lat="40.910510081593436" lon="8.984307389508409"><ele>818.0</ele><time>2026-05-02T12:57:31Z</time></trkpt><trkpt lat="40.91049827450543" lon="8.98416947168812"><ele>818.0</ele><time>2026-05-02T12:57:32Z</time></trkpt><trkpt lat="40.910469075429695" lon="8.984014719518344"><ele>818.0</ele><time>2026-05-02T12:57:33Z</time></trkpt><trkpt lat="40.910449070829436" lon="8.983851082533702"><ele>817.75</ele><time>2026-05-02T12:57:34Z</time></trkpt><trkpt lat="40.91046421007015" lon="8.983687225895181"><ele>817.5</ele><time>2026-05-02T12:57:35Z</time></trkpt><trkpt lat="40.91047887442094" lon="8.983518092126431"><ele>817.25</ele><time>2026-05-02T12:57:36Z</time></trkpt><trkpt lat="40.91046675410097" lon="8.983361092062925"><ele>817.0</ele><time>2026-05-02T12:57:37Z</time></trkpt><trkpt lat="40.91043212005248" lon="8.983200366789628"><ele>818.25</ele><time>2026-05-02T12:57:38Z</time></trkpt><trkpt lat="40.91038849038008" lon="8.983049663604788"><ele>819.5</ele><time>2026-05-02T12:57:39Z</time></trkpt><trkpt lat="40.910327237851185" lon="8.982896260373078"><ele>820.75</ele><time>2026-05-02T12:57:40Z</time></trkpt><trkpt lat="40.91025318089057" lon="8.982732846467519"><ele>822.0</ele><time>2026-05-02T12:57:41Z</time></trkpt><trkpt lat="40.91017994605103" lon="8.98258869668196"><ele>823.75</ele><time>2026-05-02T12:57:42Z</time></trkpt><trkpt lat="40.9101057185399" lon="8.98245862111359"><ele>825.5</ele><time>2026-05-02T12:57:43Z</time></trkpt><trkpt lat="40.91000255455028" lon="8.982309654694493"><ele>827.25</ele><time>2026-05-02T12:57:44Z</time></trkpt><trkpt lat="40.9099065586694" lon="8.982156607450042"><ele>829.0</ele><time>2026-05-02T12:57:45Z</time></trkpt><trkpt lat="40.90983477811586" lon="8.981996840166609"><ele>822.75</ele><time>2026-05-02T12:57:46Z</time></trkpt><trkpt lat="40.90978679811859" lon="8.981848575761363"><ele>816.5</ele><time>2026-05-02T12:57:47Z</time></trkpt><trkpt lat="40.909748625864246" lon="8.981689403350018"><ele>810.25</ele><time>2026-05-02T12:57:48Z</time></trkpt><trkpt lat="40.909706484280974" lon="8.981511579860493"><ele>804.0</ele><time>2026-05-02T12:57:49Z</time></trkpt><trkpt lat="40.90966441163606" lon="8.98135541676984"><ele>804.0</ele><time>2026-05-02T12:57:50Z</time></trkpt><trkpt lat="40.909634334154866" lon="8.98120387679746"><ele>804.0</ele><time>2026-05-02T12:57:51Z</time></trkpt><trkpt lat="40.90962443430402" lon="8.981030058880823"><ele>804.0</ele><time>2026-05-02T12:57:52Z</time></trkpt><trkpt lat="40.909630584058135" lon="8.9808472755087"><ele>804.0</ele><time>2026-05-02T12:57:53Z</time></trkpt><trkpt lat="40.90964060324844" lon="8.980694029417187"><ele>803.0</ele><time>2026-05-02T12:57:54Z</time></trkpt><trkpt lat="40.90966779873073" lon="8.9805507149992"><ele>802.0</ele><time>2026-05-02T12:57:55Z</time></trkpt><trkpt lat="40.90971510431538" lon="8.980402624666688"><ele>801.0</ele><time>2026-05-02T12:57:56Z</time></trkpt><trkpt lat="40.90978399000154" lon="8.980216959581426"><ele>800.0</ele><time>2026-05-02T12:57:57Z</time></trkpt><trkpt lat="40.90985589162922" lon="8.980082905814587"><ele>798.6</ele><time>2026-05-02T12:57:58Z</time></trkpt><trkpt lat="40.909935222199785" lon="8.97996618858251"><ele>797.2</ele><time>2026-05-02T12:57:59Z</time></trkpt><trkpt lat="40.91002026303543" lon="8.979854786287412"><ele>795.8</ele><time>2026-05-02T12:58:00Z</time></trkpt><trkpt lat="40.910100567272806" lon="8.979762324158653"><ele>794.4</ele><time>2026-05-02T12:58:01Z</time></trkpt><trkpt lat="40.91017399605739" lon="8.979678389378558"><ele>793.0</ele><time>2026-05-02T12:58:02Z</time></trkpt><trkpt lat="40.910237778227064" lon="8.97961607904913"><ele>793.0</ele><time>2026-05-02T12:58:03Z</time></trkpt><trkpt lat="40.91030460425792" lon="8.979559472479705"><ele>793.0</ele><time>2026-05-02T12:58:04Z</time></trkpt><trkpt lat="40.910387613871904" lon="8.979502178912897"><ele>793.0</ele><time>2026-05-02T12:58:05Z</time></trkpt><trkpt lat="40.91048399672637" lon="8.979434639710055"><ele>793.0</ele><time>2026-05-02T12:58:06Z</time></trkpt><trkpt lat="40.91057046774307" lon="8.979378315590873"><ele>793.0</ele><time>2026-05-02T12:58:07Z</time></trkpt><trkpt lat="40.91066421988003" lon="8.979334359629496"><ele>793.0</ele><time>2026-05-02T12:58:08Z</time></trkpt><trkpt lat="40.91077685006305" lon="8.979270445737457"><ele>793.0</ele><time>2026-05-02T12:58:09Z</time></trkpt><trkpt lat="40.910892696921316" lon="8.979212855694763"><ele>793.0</ele><time>2026-05-02T12:58:10Z</time></trkpt><trkpt lat="40.91099748643778" lon="8.979168484960333"><ele>793.0</ele><time>2026-05-02T12:58:11Z</time></trkpt><trkpt lat="40.911095682302104" lon="8.979110204077637"><ele>791.8</ele><time>2026-05-02T12:58:12Z</time></trkpt><trkpt lat="40.911181295989884" lon="8.979023598110013"><ele>790.5999999999999</ele><time>2026-05-02T12:58:13Z</time></trkpt><trkpt lat="40.91127607965395" lon="8.978941220719618"><ele>789.4000000000001</ele><time>2026-05-02T12:58:14Z</time></trkpt><trkpt lat="40.91135754398404" lon="8.978855495837967"><ele>788.2</ele><time>2026-05-02T12:58:15Z</time></trkpt><trkpt lat="40.91142735395886" lon="8.978761555247509"><ele>787.0</ele><time>2026-05-02T12:58:15.999Z</time></trkpt><trkpt lat="40.91150729829143" lon="8.978659487491049"><ele>787.0</ele><time>2026-05-02T12:58:16.999Z</time></trkpt><trkpt lat="40.91157963112461" lon="8.97855923976423"><ele>787.0</ele><time>2026-05-02T12:58:17.999Z</time></trkpt><trkpt lat="40.91164804168874" lon="8.978449656812009"><ele>787.0</ele><time>2026-05-02T12:58:18.999Z</time></trkpt><trkpt lat="40.9117308137322" lon="8.9783351500205"><ele>787.0</ele><time>2026-05-02T12:58:19.999Z</time></trkpt><trkpt lat="40.91182148130809" lon="8.978232363515977"><ele>787.8</ele><time>2026-05-02T12:58:20.999Z</time></trkpt><trkpt lat="40.91190911675848" lon="8.978155035992204"><ele>788.6</ele><time>2026-05-02T12:58:21.999Z</time></trkpt><trkpt lat="40.911995808538784" lon="8.978100288459327"><ele>789.4</ele><time>2026-05-02T12:58:22.999Z</time></trkpt><trkpt lat="40.91206262498691" lon="8.978049153612472"><ele>790.1999999999999</ele><time>2026-05-02T12:58:23.999Z</time></trkpt><trkpt lat="40.91207003334142" lon="8.977916639879886"><ele>791.0</ele><time>2026-05-02T12:58:25.999Z</time></trkpt><trkpt lat="40.91202890318662" lon="8.977798952415984"><ele>791.0</ele><time>2026-05-02T12:58:26.999Z</time></trkpt><trkpt lat="40.91197690643878" lon="8.977642147067625"><ele>791.0</ele><time>2026-05-02T12:58:27.999Z</time></trkpt><trkpt lat="40.9119258574094" lon="8.977455544482536"><ele>791.0</ele><time>2026-05-02T12:58:28.999Z</time></trkpt><trkpt lat="40.9118517978007" lon="8.977257720168636"><ele>791.0</ele><time>2026-05-02T12:58:29.999Z</time></trkpt><trkpt lat="40.911768017896364" lon="8.977041880822465"><ele>790.5</ele><time>2026-05-02T12:58:30.999Z</time></trkpt><trkpt lat="40.911718346389705" lon="8.976880495531233"><ele>790.0</ele><time>2026-05-02T12:58:31.999Z</time></trkpt><trkpt lat="40.91168595288963" lon="8.976717758014582"><ele>789.5</ele><time>2026-05-02T12:58:32.999Z</time></trkpt><trkpt lat="40.911692274272525" lon="8.976564946182602"><ele>789.0</ele><time>2026-05-02T12:58:34.999Z</time></trkpt><trkpt lat="40.911752587553785" lon="8.976398612603873"><ele>789.0</ele><time>2026-05-02T12:58:35.999Z</time></trkpt><trkpt lat="40.911811673312314" lon="8.976211320810233"><ele>789.0</ele><time>2026-05-02T12:58:36.999Z</time></trkpt><trkpt lat="40.91187516559189" lon="8.976010195868833"><ele>789.0</ele><time>2026-05-02T12:58:37.999Z</time></trkpt><trkpt lat="40.91191602912701" lon="8.9758273351521"><ele>788.0</ele><time>2026-05-02T12:58:38.999Z</time></trkpt><trkpt lat="40.911960036434735" lon="8.97567077431855"><ele>787.0</ele><time>2026-05-02T12:58:39.999Z</time></trkpt><trkpt lat="40.91202499857919" lon="8.975522154613502"><ele>786.0</ele><time>2026-05-02T12:58:40.999Z</time></trkpt><trkpt lat="40.91208648203694" lon="8.975407889193352"><ele>785.0</ele><time>2026-05-02T12:58:41.999Z</time></trkpt><trkpt lat="40.91214302246791" lon="8.975294489786496"><ele>785.0</ele><time>2026-05-02T12:58:42.999Z</time></trkpt><trkpt lat="40.91220574831229" lon="8.975165675994406"><ele>785.0</ele><time>2026-05-02T12:58:43.999Z</time></trkpt><trkpt lat="40.912270435537" lon="8.975048297763681"><ele>785.0</ele><time>2026-05-02T12:58:44.999Z</time></trkpt><trkpt lat="40.9123384117431" lon="8.974948542411198"><ele>785.0</ele><time>2026-05-02T12:58:45.999Z</time></trkpt><trkpt lat="40.91239721180169" lon="8.974878345573527"><ele>785.0</ele><time>2026-05-02T12:58:46.999Z</time></trkpt><trkpt lat="40.91244621759396" lon="8.97481091604532"><ele>783.0</ele><time>2026-05-02T12:58:47.999Z</time></trkpt><trkpt lat="40.91250011727979" lon="8.97474721161326"><ele>781.0</ele><time>2026-05-02T12:58:49.999Z</time></trkpt><trkpt lat="40.91249511531906" lon="8.974651789369307"><ele>779.0</ele><time>2026-05-02T12:58:55.999Z</time></trkpt><trkpt lat="40.9124306682724" lon="8.974531038406493"><ele>777.0</ele><time>2026-05-02T12:58:58.999Z</time></trkpt><trkpt lat="40.91236663271762" lon="8.974394683687853"><ele>775.0</ele><time>2026-05-02T12:59:00.999Z</time></trkpt><trkpt lat="40.91230375187601" lon="8.97427216748841"><ele>772.2</ele><time>2026-05-02T12:59:02.999Z</time></trkpt><trkpt lat="40.91224654279084" lon="8.97411680352866"><ele>769.4</ele><time>2026-05-02T12:59:04.999Z</time></trkpt><trkpt lat="40.91220224204606" lon="8.974024519520313"><ele>766.5999999999999</ele><time>2026-05-02T12:59:05.999Z</time></trkpt><trkpt lat="40.91213785698396" lon="8.973923774462792"><ele>763.8</ele><time>2026-05-02T12:59:06.999Z</time></trkpt><trkpt lat="40.9120638070979" lon="8.973772292586974"><ele>761.0</ele><time>2026-05-02T12:59:07.999Z</time></trkpt><trkpt lat="40.91197395302761" lon="8.973618845564799"><ele>761.0</ele><time>2026-05-02T12:59:08.999Z</time></trkpt><trkpt lat="40.91187357428735" lon="8.9734685500395"><ele>761.0</ele><time>2026-05-02T12:59:09.999Z</time></trkpt><trkpt lat="40.91178428135012" lon="8.973351035348255"><ele>761.0</ele><time>2026-05-02T12:59:10.999Z</time></trkpt><trkpt lat="40.91169972830448" lon="8.973243080219484"><ele>761.0</ele><time>2026-05-02T12:59:11.999Z</time></trkpt><trkpt lat="40.91162384450612" lon="8.973130568746255"><ele>759.5</ele><time>2026-05-02T12:59:12.999Z</time></trkpt><trkpt lat="40.91156321166721" lon="8.973017563308161"><ele>758.0</ele><time>2026-05-02T12:59:13.999Z</time></trkpt><trkpt lat="40.911539618322344" lon="8.972880764837303"><ele>756.5</ele><time>2026-05-02T12:59:14.999Z</time></trkpt><trkpt lat="40.91151646210195" lon="8.972734262744504"><ele>755.0</ele><time>2026-05-02T12:59:15.999Z</time></trkpt><trkpt lat="40.91148100160876" lon="8.97255735843265"><ele>754.5</ele><time>2026-05-02T12:59:16.999Z</time></trkpt><trkpt lat="40.911451668502075" lon="8.97236473009873"><ele>754.0</ele><time>2026-05-02T12:59:17.999Z</time></trkpt><trkpt lat="40.91142411725088" lon="8.97220779465852"><ele>753.5</ele><time>2026-05-02T12:59:18.999Z</time></trkpt><trkpt lat="40.91144070448013" lon="8.972078956017903"><ele>753.0</ele><time>2026-05-02T12:59:19.999Z</time></trkpt><trkpt lat="40.91143096858698" lon="8.971969311414476"><ele>753.0</ele><time>2026-05-02T12:59:20.999Z</time></trkpt><trkpt lat="40.91143608403577" lon="8.97185767831343"><ele>753.0</ele><time>2026-05-02T12:59:21.999Z</time></trkpt><trkpt lat="40.911433508472584" lon="8.971728970335215"><ele>753.0</ele><time>2026-05-02T12:59:22.999Z</time></trkpt><trkpt lat="40.911410807867405" lon="8.971585658765047"><ele>753.0</ele><time>2026-05-02T12:59:23.999Z</time></trkpt><trkpt lat="40.91137720967945" lon="8.971445530731124"><ele>753.0</ele><time>2026-05-02T12:59:24.999Z</time></trkpt><trkpt lat="40.91136059327263" lon="8.971326775907487"><ele>753.1666666666666</ele><time>2026-05-02T12:59:25.999Z</time></trkpt><trkpt lat="40.911350025376485" lon="8.971226794339982"><ele>753.3333333333334</ele><time>2026-05-02T12:59:26.999Z</time></trkpt><trkpt lat="40.91134563722279" lon="8.97113108323018"><ele>753.5</ele><time>2026-05-02T12:59:27.999Z</time></trkpt><trkpt lat="40.911383821483554" lon="8.970990747572975"><ele>753.6666666666667</ele><time>2026-05-02T12:59:29.999Z</time></trkpt><trkpt lat="40.91142064349728" lon="8.970892750775198"><ele>753.8333333333334</ele><time>2026-05-02T12:59:32Z</time></trkpt><trkpt lat="40.911387168881554" lon="8.970964389714393"><ele>754.0</ele><time>2026-05-02T12:59:48.001Z</time></trkpt><trkpt lat="40.91141200484501" lon="8.970870762564495"><ele>754.0</ele><time>2026-05-02T13:00:24Z</time></trkpt><trkpt lat="40.9114462567761" lon="8.970786249241105"><ele>754.0</ele><time>2026-05-02T13:00:49Z</time></trkpt><trkpt lat="40.91139085852647" lon="8.970855354808581"><ele>754.0</ele><time>2026-05-02T13:01:10Z</time></trkpt><trkpt lat="40.91135414179032" lon="8.970986802671277"><ele>754.0</ele><time>2026-05-02T13:01:37Z</time></trkpt><trkpt lat="40.91132002493279" lon="8.97109001939101"><ele>754.0</ele><time>2026-05-02T13:01:39Z</time></trkpt><trkpt lat="40.91131764531393" lon="8.971214069388072"><ele>754.0</ele><time>2026-05-02T13:03:27.999Z</time></trkpt><trkpt lat="40.91132436311906" lon="8.971358676332766"><ele>754.0</ele><time>2026-05-02T13:03:28.999Z</time></trkpt><trkpt lat="40.911342587931735" lon="8.971473733878442"><ele>754.0</ele><time>2026-05-02T13:03:29.999Z</time></trkpt><trkpt lat="40.911362911235" lon="8.971582447226082"><ele>754.0</ele><time>2026-05-02T13:03:30.999Z</time></trkpt><trkpt lat="40.9113736849898" lon="8.971693034953725"><ele>754.0</ele><time>2026-05-02T13:03:31.999Z</time></trkpt><trkpt lat="40.91140318440255" lon="8.97177657956928"><ele>754.0</ele><time>2026-05-02T13:03:34.999Z</time></trkpt><trkpt lat="40.91138146187863" lon="8.971586101411939"><ele>754.0</ele><time>2026-05-02T13:03:52Z</time></trkpt><trkpt lat="40.91133138593054" lon="8.97145422626936"><ele>754.0</ele><time>2026-05-02T13:03:53Z</time></trkpt><trkpt lat="40.91131649620875" lon="8.971324163050264"><ele>754.0</ele><time>2026-05-02T13:03:54Z</time></trkpt><trkpt lat="40.91132032859005" lon="8.971146623094462"><ele>754.0</ele><time>2026-05-02T13:03:55Z</time></trkpt><trkpt lat="40.91138051456477" lon="8.971027292594531"><ele>754.0</ele><time>2026-05-02T13:03:56Z</time></trkpt><trkpt lat="40.91142414622857" lon="8.97086871148059"><ele>754.0</ele><time>2026-05-02T13:03:57Z</time></trkpt><trkpt lat="40.91146210546071" lon="8.970691897963837"><ele>754.0</ele><time>2026-05-02T13:03:58Z</time></trkpt><trkpt lat="40.9115009351472" lon="8.970457111266052"><ele>754.0</ele><time>2026-05-02T13:03:59Z</time></trkpt><trkpt lat="40.911521694243305" lon="8.970195194780727"><ele>753.0</ele><time>2026-05-02T13:04:00Z</time></trkpt><trkpt lat="40.91155406785719" lon="8.969931026701767"><ele>752.0</ele><time>2026-05-02T13:04:01Z</time></trkpt><trkpt lat="40.9115772734375" lon="8.969695535424334"><ele>751.0</ele><time>2026-05-02T13:04:02Z</time></trkpt><trkpt lat="40.911589112531004" lon="8.969544542967757"><ele>751.0</ele><time>2026-05-02T13:04:03Z</time></trkpt><trkpt lat="40.91160708151608" lon="8.969450808938818"><ele>751.0</ele><time>2026-05-02T13:04:04Z</time></trkpt><trkpt lat="40.91164446513773" lon="8.969350280889394"><ele>751.0</ele><time>2026-05-02T13:04:05Z</time></trkpt><trkpt lat="40.911707573382884" lon="8.969189055158912"><ele>751.0</ele><time>2026-05-02T13:04:06Z</time></trkpt><trkpt lat="40.91178630320258" lon="8.968993539876173"><ele>749.0</ele><time>2026-05-02T13:04:07Z</time></trkpt><trkpt lat="40.91186290649185" lon="8.968808213691524"><ele>747.0</ele><time>2026-05-02T13:04:08Z</time></trkpt><trkpt lat="40.91194595824658" lon="8.968561609819806"><ele>745.0</ele><time>2026-05-02T13:04:09Z</time></trkpt><trkpt lat="40.912022081408985" lon="8.968334659072447"><ele>748.6</ele><time>2026-05-02T13:04:10Z</time></trkpt><trkpt lat="40.912069870319485" lon="8.968194498418814"><ele>752.2</ele><time>2026-05-02T13:04:11Z</time></trkpt><trkpt lat="40.91212086950854" lon="8.968046199862245"><ele>755.8</ele><time>2026-05-02T13:04:12Z</time></trkpt><trkpt lat="40.91215379476776" lon="8.967952592031914"><ele>759.4</ele><time>2026-05-02T13:04:13Z</time></trkpt><trkpt lat="40.912189151965336" lon="8.967848571787313"><ele>763.0</ele><time>2026-05-02T13:04:14Z</time></trkpt><trkpt lat="40.91222195204831" lon="8.967749767055723"><ele>763.0</ele><time>2026-05-02T13:04:15Z</time></trkpt><trkpt lat="40.91226086529995" lon="8.967640485634488"><ele>763.0</ele><time>2026-05-02T13:04:16Z</time></trkpt><trkpt lat="40.91230526989707" lon="8.967537439398827"><ele>763.0</ele><time>2026-05-02T13:04:17Z</time></trkpt><trkpt lat="40.91237150346687" lon="8.96742758079704"><ele>763.0</ele><time>2026-05-02T13:04:19Z</time></trkpt><trkpt lat="40.912442073520225" lon="8.967340797657046"><ele>763.0</ele><time>2026-05-02T13:04:22Z</time></trkpt><trkpt lat="40.91249516941754" lon="8.967283487819783"><ele>763.8</ele><time>2026-05-02T13:04:25Z</time></trkpt><trkpt lat="40.912554567902504" lon="8.967222288765477"><ele>764.5999999999999</ele><time>2026-05-02T13:04:28Z</time></trkpt><trkpt lat="40.912635552404886" lon="8.967176137248039"><ele>765.4000000000001</ele><time>2026-05-02T13:04:31Z</time></trkpt><trkpt lat="40.91272261978525" lon="8.967148942600625"><ele>766.2</ele><time>2026-05-02T13:05:46.999Z</time></trkpt><trkpt lat="40.91286275602349" lon="8.967119441429425"><ele>767.0</ele><time>2026-05-02T13:05:49Z</time></trkpt><trkpt lat="40.912939802917485" lon="8.967123877641585"><ele>767.0</ele><time>2026-05-02T13:05:50Z</time></trkpt><trkpt lat="40.913009425319906" lon="8.967138934407325"><ele>767.0</ele><time>2026-05-02T13:05:51Z</time></trkpt><trkpt lat="40.913074922385455" lon="8.9671696226657"><ele>767.0</ele><time>2026-05-02T13:05:52Z</time></trkpt><trkpt lat="40.91313502993315" lon="8.96720222504478"><ele>767.0</ele><time>2026-05-02T13:05:53Z</time></trkpt><trkpt lat="40.91320220282283" lon="8.967225798229324"><ele>767.0</ele><time>2026-05-02T13:05:56Z</time></trkpt><trkpt lat="40.91330690714736" lon="8.967257902702642"><ele>767.0</ele><time>2026-05-02T13:07:16.999Z</time></trkpt><trkpt lat="40.913371052610565" lon="8.967282103112826"><ele>767.0</ele><time>2026-05-02T13:07:17.999Z</time></trkpt><trkpt lat="40.91346758465291" lon="8.967262000635051"><ele>766.0</ele><time>2026-05-02T13:07:19.999Z</time></trkpt><trkpt lat="40.91352304590799" lon="8.967217780784575"><ele>765.0</ele><time>2026-05-02T13:07:21.999Z</time></trkpt><trkpt lat="40.913569289470786" lon="8.967127745073103"><ele>764.0</ele><time>2026-05-02T13:07:23.999Z</time></trkpt><trkpt lat="40.913610730276844" lon="8.96694699987143"><ele>763.0</ele><time>2026-05-02T13:07:25.999Z</time></trkpt><trkpt lat="40.91363912119343" lon="8.966820155534382"><ele>762.0</ele><time>2026-05-02T13:07:26.999Z</time></trkpt><trkpt lat="40.91366561004803" lon="8.96671644140992"><ele>761.6</ele><time>2026-05-02T13:07:27.999Z</time></trkpt><trkpt lat="40.91369368545026" lon="8.966614840945454"><ele>761.2</ele><time>2026-05-02T13:07:28.999Z</time></trkpt><trkpt lat="40.91372568344563" lon="8.966498808336596"><ele>760.8</ele><time>2026-05-02T13:07:29.999Z</time></trkpt><trkpt lat="40.91376001418618" lon="8.966367144058395"><ele>760.4</ele><time>2026-05-02T13:07:30.999Z</time></trkpt><trkpt lat="40.91379725999553" lon="8.966210924255469"><ele>760.0</ele><time>2026-05-02T13:07:31.999Z</time></trkpt><trkpt lat="40.913831120403664" lon="8.966069281983042"><ele>760.0</ele><time>2026-05-02T13:07:32.999Z</time></trkpt><trkpt lat="40.91386989387412" lon="8.965934655583121"><ele>760.0</ele><time>2026-05-02T13:07:33.999Z</time></trkpt><trkpt lat="40.9139121598966" lon="8.965814514699561"><ele>760.0</ele><time>2026-05-02T13:07:34.999Z</time></trkpt><trkpt lat="40.913974360774546" lon="8.965766991794233"><ele>760.0</ele><time>2026-05-02T13:07:35.999Z</time></trkpt><trkpt lat="40.91404696984027" lon="8.965751863282584"><ele>760.0</ele><time>2026-05-02T13:07:36.999Z</time></trkpt><trkpt lat="40.914124237747906" lon="8.965694175125316"><ele>760.0</ele><time>2026-05-02T13:07:37.999Z</time></trkpt><trkpt lat="40.91419822162546" lon="8.965675893311017"><ele>758.8</ele><time>2026-05-02T13:07:38.999Z</time></trkpt><trkpt lat="40.914283464592096" lon="8.965528806903617"><ele>757.6</ele><time>2026-05-02T13:07:40.999Z</time></trkpt><trkpt lat="40.9142772568667" lon="8.9654200675455"><ele>756.4000000000001</ele><time>2026-05-02T13:07:41.999Z</time></trkpt><trkpt lat="40.91417388090509" lon="8.965324527842101"><ele>755.2</ele><time>2026-05-02T13:07:42.999Z</time></trkpt><trkpt lat="40.91415473272408" lon="8.965237221550419"><ele>754.0</ele><time>2026-05-02T13:07:43.999Z</time></trkpt><trkpt lat="40.91413320327486" lon="8.965132806441158"><ele>751.2</ele><time>2026-05-02T13:07:44.999Z</time></trkpt><trkpt lat="40.91409765909108" lon="8.96502054299407"><ele>748.4000000000001</ele><time>2026-05-02T13:07:45.999Z</time></trkpt><trkpt lat="40.91404576202347" lon="8.96491999716565"><ele>745.6</ele><time>2026-05-02T13:07:46.999Z</time></trkpt><trkpt lat="40.91402553517317" lon="8.964802799180765"><ele>742.8</ele><time>2026-05-02T13:07:47.999Z</time></trkpt><trkpt lat="40.91399005742614" lon="8.964690010463405"><ele>740.0</ele><time>2026-05-02T13:07:48.999Z</time></trkpt><trkpt lat="40.913954132681994" lon="8.964575800837794"><ele>740.0</ele><time>2026-05-02T13:07:49.999Z</time></trkpt><trkpt lat="40.913914684633724" lon="8.964453890234257"><ele>740.0</ele><time>2026-05-02T13:07:50.999Z</time></trkpt><trkpt lat="40.91386988721974" lon="8.964324222655522"><ele>740.0</ele><time>2026-05-02T13:07:51.999Z</time></trkpt><trkpt lat="40.91381973703466" lon="8.964196414083327"><ele>740.0</ele><time>2026-05-02T13:07:52.999Z</time></trkpt><trkpt lat="40.913758617702264" lon="8.96407002300491"><ele>740.0</ele><time>2026-05-02T13:07:54Z</time></trkpt><trkpt lat="40.9136846418992" lon="8.963944826091149"><ele>737.0</ele><time>2026-05-02T13:07:55Z</time></trkpt><trkpt lat="40.91361446282294" lon="8.96382587353478"><ele>734.0</ele><time>2026-05-02T13:07:56Z</time></trkpt><trkpt lat="40.91354724516568" lon="8.963704491481025"><ele>731.0</ele><time>2026-05-02T13:07:57Z</time></trkpt><trkpt lat="40.91348746601694" lon="8.96357792453798"><ele>728.0</ele><time>2026-05-02T13:07:58Z</time></trkpt><trkpt lat="40.91346748314605" lon="8.963468841865284"><ele>725.0</ele><time>2026-05-02T13:07:59Z</time></trkpt><trkpt lat="40.91350406083368" lon="8.963394474232777"><ele>725.0</ele><time>2026-05-02T13:08:01Z</time></trkpt><trkpt lat="40.91357286605446" lon="8.963382069015008"><ele>725.0</ele><time>2026-05-02T13:08:06Z</time></trkpt><trkpt lat="40.91364765363766" lon="8.963348413917691"><ele>725.0</ele><time>2026-05-02T13:08:52Z</time></trkpt><trkpt lat="40.91372122280965" lon="8.963315348131411"><ele>725.0</ele><time>2026-05-02T13:08:54Z</time></trkpt><trkpt lat="40.91380545530284" lon="8.963275889862553"><ele>725.0</ele><time>2026-05-02T13:08:56Z</time></trkpt><trkpt lat="40.913912595376424" lon="8.963203440020305"><ele>725.0</ele><time>2026-05-02T13:08:58Z</time></trkpt><trkpt lat="40.914014771799614" lon="8.96318245213574"><ele>723.5</ele><time>2026-05-02T13:08:59.999Z</time></trkpt><trkpt lat="40.91407430578593" lon="8.963086937647093"><ele>722.0</ele><time>2026-05-02T13:09:01.999Z</time></trkpt><trkpt lat="40.914121982757365" lon="8.963027005594485"><ele>720.5</ele><time>2026-05-02T13:09:03.999Z</time></trkpt><trkpt lat="40.91418159512986" lon="8.962974585316866"><ele>719.0</ele><time>2026-05-02T13:09:05.999Z</time></trkpt><trkpt lat="40.91425221504603" lon="8.96292303412008"><ele>717.5</ele><time>2026-05-02T13:09:08.999Z</time></trkpt><trkpt lat="40.914324736863726" lon="8.962833527498459"><ele>716.0</ele><time>2026-05-02T13:09:10.999Z</time></trkpt><trkpt lat="40.91437487935178" lon="8.962776125065767"><ele>716.0</ele><time>2026-05-02T13:09:11.999Z</time></trkpt><trkpt lat="40.91443040372444" lon="8.962708831825692"><ele>716.0</ele><time>2026-05-02T13:09:12.999Z</time></trkpt><trkpt lat="40.914520777859764" lon="8.962646297398985"><ele>716.0</ele><time>2026-05-02T13:09:13.999Z</time></trkpt><trkpt lat="40.91458789738941" lon="8.96255957227863"><ele>716.0</ele><time>2026-05-02T13:09:14.999Z</time></trkpt><trkpt lat="40.91465642875599" lon="8.96247102291091"><ele>716.0</ele><time>2026-05-02T13:09:15.999Z</time></trkpt><trkpt lat="40.91473168577119" lon="8.96237357120774"><ele>712.8</ele><time>2026-05-02T13:09:16.999Z</time></trkpt><trkpt lat="40.91480037181236" lon="8.962269378049605"><ele>709.5999999999999</ele><time>2026-05-02T13:09:17.999Z</time></trkpt><trkpt lat="40.9148492770604" lon="8.962170434230371"><ele>706.4</ele><time>2026-05-02T13:09:18.999Z</time></trkpt><trkpt lat="40.91488454742945" lon="8.962050525174087"><ele>703.2</ele><time>2026-05-02T13:09:19.999Z</time></trkpt><trkpt lat="40.914910859578676" lon="8.961917067714802"><ele>700.0</ele><time>2026-05-02T13:09:20.999Z</time></trkpt><trkpt lat="40.91494763505523" lon="8.961768068470287"><ele>695.5</ele><time>2026-05-02T13:09:21.999Z</time></trkpt><trkpt lat="40.91498399697336" lon="8.961605924325516"><ele>691.0</ele><time>2026-05-02T13:09:22.999Z</time></trkpt><trkpt lat="40.915011407150814" lon="8.96144991211283"><ele>686.5</ele><time>2026-05-02T13:09:23.999Z</time></trkpt><trkpt lat="40.91503305958066" lon="8.961298281780307"><ele>682.0</ele><time>2026-05-02T13:09:24.999Z</time></trkpt><trkpt lat="40.91505318845827" lon="8.961152086629898"><ele>682.0</ele><time>2026-05-02T13:09:25.999Z</time></trkpt><trkpt lat="40.91506924250645" lon="8.961011046241214"><ele>682.0</ele><time>2026-05-02T13:09:26.999Z</time></trkpt><trkpt lat="40.91507750114358" lon="8.960856205245243"><ele>682.0</ele><time>2026-05-02T13:09:27.999Z</time></trkpt><trkpt lat="40.915080052020095" lon="8.960699740903237"><ele>682.0</ele><time>2026-05-02T13:09:28.999Z</time></trkpt><trkpt lat="40.915082900261105" lon="8.960550778030205"><ele>682.4000000000001</ele><time>2026-05-02T13:09:29.999Z</time></trkpt><trkpt lat="40.915087015999624" lon="8.960402004286774"><ele>682.8000000000001</ele><time>2026-05-02T13:09:30.999Z</time></trkpt><trkpt lat="40.91509507116471" lon="8.96025202995759"><ele>683.2</ele><time>2026-05-02T13:09:31.999Z</time></trkpt><trkpt lat="40.91510184822683" lon="8.960107371375205"><ele>683.6</ele><time>2026-05-02T13:09:32.999Z</time></trkpt><trkpt lat="40.915097600434756" lon="8.959966650672959"><ele>684.0</ele><time>2026-05-02T13:09:33.999Z</time></trkpt><trkpt lat="40.9150861991414" lon="8.959827747431904"><ele>684.0</ele><time>2026-05-02T13:09:34.999Z</time></trkpt><trkpt lat="40.915078689939335" lon="8.959697980717833"><ele>684.0</ele><time>2026-05-02T13:09:35.999Z</time></trkpt><trkpt lat="40.91507126891507" lon="8.959569737781521"><ele>684.0</ele><time>2026-05-02T13:09:36.999Z</time></trkpt><trkpt lat="40.91506382834624" lon="8.959441157142676"><ele>684.0</ele><time>2026-05-02T13:09:37.999Z</time></trkpt><trkpt lat="40.91505360417179" lon="8.95931859965358"><ele>684.0</ele><time>2026-05-02T13:09:38.999Z</time></trkpt><trkpt lat="40.915024342972345" lon="8.959190195121082"><ele>678.0</ele><time>2026-05-02T13:09:39.999Z</time></trkpt><trkpt lat="40.914976873524225" lon="8.95908055640094"><ele>672.0</ele><time>2026-05-02T13:09:40.999Z</time></trkpt><trkpt lat="40.91493256819061" lon="8.958977912425041"><ele>666.0</ele><time>2026-05-02T13:09:41.999Z</time></trkpt><trkpt lat="40.91489365673249" lon="8.958879147259484"><ele>660.0</ele><time>2026-05-02T13:09:42.999Z</time></trkpt><trkpt lat="40.91485548134927" lon="8.958772067069475"><ele>654.0</ele><time>2026-05-02T13:09:43.999Z</time></trkpt><trkpt lat="40.91481567037257" lon="8.958658418465197"><ele>654.0</ele><time>2026-05-02T13:09:44.999Z</time></trkpt><trkpt lat="40.91477105736912" lon="8.958541644379462"><ele>654.0</ele><time>2026-05-02T13:09:45.999Z</time></trkpt><trkpt lat="40.91471286883605" lon="8.958411152487031"><ele>654.0</ele><time>2026-05-02T13:09:46.999Z</time></trkpt><trkpt lat="40.91465249391727" lon="8.958285123858293"><ele>654.0</ele><time>2026-05-02T13:09:47.999Z</time></trkpt><trkpt lat="40.91458683216159" lon="8.958141726886563"><ele>652.25</ele><time>2026-05-02T13:09:48.999Z</time></trkpt><trkpt lat="40.91452884171727" lon="8.958001240281018"><ele>650.5</ele><time>2026-05-02T13:09:49.999Z</time></trkpt><trkpt lat="40.91449034155187" lon="8.957858073149119"><ele>648.75</ele><time>2026-05-02T13:09:50.999Z</time></trkpt><trkpt lat="40.914468130137514" lon="8.957708245059052"><ele>647.0</ele><time>2026-05-02T13:09:51.999Z</time></trkpt><trkpt lat="40.91444888348766" lon="8.957567310528619"><ele>643.2</ele><time>2026-05-02T13:09:52.999Z</time></trkpt><trkpt lat="40.91443299421395" lon="8.957432430991078"><ele>639.4000000000001</ele><time>2026-05-02T13:09:53.999Z</time></trkpt><trkpt lat="40.91442026429452" lon="8.957291953518876"><ele>635.5999999999999</ele><time>2026-05-02T13:09:54.999Z</time></trkpt><trkpt lat="40.91441171742108" lon="8.957154611132024"><ele>631.8</ele><time>2026-05-02T13:09:55.999Z</time></trkpt><trkpt lat="40.91439761808882" lon="8.957009022275907"><ele>628.0</ele><time>2026-05-02T13:09:56.999Z</time></trkpt><trkpt lat="40.91438011385114" lon="8.956861659464993"><ele>628.0</ele><time>2026-05-02T13:09:57.999Z</time></trkpt><trkpt lat="40.9143649567858" lon="8.956709160910998"><ele>628.0</ele><time>2026-05-02T13:09:58.999Z</time></trkpt><trkpt lat="40.91435935716457" lon="8.956556345913931"><ele>628.0</ele><time>2026-05-02T13:09:59.999Z</time></trkpt><trkpt lat="40.91436857142777" lon="8.956417432039672"><ele>628.0</ele><time>2026-05-02T13:10:00.999Z</time></trkpt><trkpt lat="40.91438616620654" lon="8.956281151980042"><ele>628.0</ele><time>2026-05-02T13:10:01.999Z</time></trkpt><trkpt lat="40.914403488469624" lon="8.956176116492053"><ele>627.1666666666667</ele><time>2026-05-02T13:10:02.999Z</time></trkpt><trkpt lat="40.914398995081584" lon="8.956060928073482"><ele>626.3333333333334</ele><time>2026-05-02T13:10:03.999Z</time></trkpt><trkpt lat="40.914334326723" lon="8.95598159969511"><ele>625.5</ele><time>2026-05-02T13:10:04.999Z</time></trkpt><trkpt lat="40.914247510702516" lon="8.955979877356755"><ele>624.6666666666666</ele><time>2026-05-02T13:10:05.999Z</time></trkpt><trkpt lat="40.914170877147114" lon="8.956053312787642"><ele>623.8333333333333</ele><time>2026-05-02T13:10:06.999Z</time></trkpt><trkpt lat="40.91414253840218" lon="8.95615643314202"><ele>623.0</ele><time>2026-05-02T13:10:07.999Z</time></trkpt><trkpt lat="40.914090826793206" lon="8.956218070230761"><ele>623.0</ele><time>2026-05-02T13:10:08.999Z</time></trkpt><trkpt lat="40.9139825352923" lon="8.956231806347215"><ele>623.0</ele><time>2026-05-02T13:10:10.999Z</time></trkpt><trkpt lat="40.91395784276531" lon="8.956125600838432"><ele>623.0</ele><time>2026-05-02T13:10:11.999Z</time></trkpt><trkpt lat="40.914014524146815" lon="8.956034275859778"><ele>623.0</ele><time>2026-05-02T13:10:12.999Z</time></trkpt><trkpt lat="40.914025008023835" lon="8.95594297412843"><ele>623.0</ele><time>2026-05-02T13:10:13.999Z</time></trkpt><trkpt lat="40.91403966391351" lon="8.955831904799817"><ele>623.0</ele><time>2026-05-02T13:10:14.999Z</time></trkpt><trkpt lat="40.91405402794064" lon="8.95573111244743"><ele>621.1666666666666</ele><time>2026-05-02T13:10:15.999Z</time></trkpt><trkpt lat="40.91407331812081" lon="8.955630313996863"><ele>619.3333333333333</ele><time>2026-05-02T13:10:16.999Z</time></trkpt><trkpt lat="40.91410819520738" lon="8.955531577977156"><ele>617.5</ele><time>2026-05-02T13:10:17.999Z</time></trkpt><trkpt lat="40.91415462948703" lon="8.955420929713107"><ele>615.6666666666666</ele><time>2026-05-02T13:10:18.999Z</time></trkpt><trkpt lat="40.914199996741296" lon="8.955319061104818"><ele>613.8333333333334</ele><time>2026-05-02T13:10:19.999Z</time></trkpt><trkpt lat="40.914240086888206" lon="8.955227642964688"><ele>612.0</ele><time>2026-05-02T13:10:20.999Z</time></trkpt><trkpt lat="40.9142848159637" lon="8.955124059838157"><ele>608.0</ele><time>2026-05-02T13:10:22.999Z</time></trkpt><trkpt lat="40.91433079034235" lon="8.95502392179796"><ele>604.0</ele><time>2026-05-02T13:10:24.999Z</time></trkpt><trkpt lat="40.914365917788565" lon="8.954947669572782"><ele>600.0</ele><time>2026-05-02T13:10:28.999Z</time></trkpt><trkpt lat="40.91440362747161" lon="8.95487019415461"><ele>596.0</ele><time>2026-05-02T13:11:07.999Z</time></trkpt><trkpt lat="40.9144732937171" lon="8.954722868238708"><ele>592.0</ele><time>2026-05-02T13:11:09.999Z</time></trkpt><trkpt lat="40.91450402810551" lon="8.954649679106383"><ele>588.0</ele><time>2026-05-02T13:11:10.999Z</time></trkpt><trkpt lat="40.91450402654774" lon="8.95449572444851"><ele>588.0</ele><time>2026-05-02T13:11:12.999Z</time></trkpt><trkpt lat="40.91443582228121" lon="8.954456270610805"><ele>588.0</ele><time>2026-05-02T13:11:15.999Z</time></trkpt><trkpt lat="40.914338114455745" lon="8.954413244984028"><ele>588.0</ele><time>2026-05-02T13:11:18.999Z</time></trkpt><trkpt lat="40.91426954621015" lon="8.954393016279377"><ele>588.0</ele><time>2026-05-02T13:11:19.999Z</time></trkpt><trkpt lat="40.91415052583223" lon="8.9543602325314"><ele>588.0</ele><time>2026-05-02T13:11:21.999Z</time></trkpt><trkpt lat="40.91407167425027" lon="8.954337328430615"><ele>586.5</ele><time>2026-05-02T13:11:22.999Z</time></trkpt><trkpt lat="40.913990248797404" lon="8.954307614752633"><ele>585.0</ele><time>2026-05-02T13:11:23.999Z</time></trkpt><trkpt lat="40.91393094826934" lon="8.954266001615272"><ele>583.5</ele><time>2026-05-02T13:11:24.999Z</time></trkpt><trkpt lat="40.91389314742009" lon="8.954192663512492"><ele>582.0</ele><time>2026-05-02T13:11:25.999Z</time></trkpt><trkpt lat="40.91390266588842" lon="8.954087300394413"><ele>580.5</ele><time>2026-05-02T13:11:26.999Z</time></trkpt><trkpt lat="40.913888896783654" lon="8.953946371071941"><ele>579.0</ele><time>2026-05-02T13:11:27.999Z</time></trkpt><trkpt lat="40.9138616109203" lon="8.95378377288544"><ele>579.0</ele><time>2026-05-02T13:11:28.999Z</time></trkpt><trkpt lat="40.91382152203499" lon="8.953602281387267"><ele>579.0</ele><time>2026-05-02T13:11:29.999Z</time></trkpt><trkpt lat="40.91377130252188" lon="8.953425093598543"><ele>579.0</ele><time>2026-05-02T13:11:30.999Z</time></trkpt><trkpt lat="40.913725870278896" lon="8.953248483557948"><ele>579.0</ele><time>2026-05-02T13:11:31.999Z</time></trkpt><trkpt lat="40.913686129704026" lon="8.95306599268376"><ele>574.5</ele><time>2026-05-02T13:11:32.999Z</time></trkpt><trkpt lat="40.913652689327" lon="8.952893780682896"><ele>570.0</ele><time>2026-05-02T13:11:33.999Z</time></trkpt><trkpt lat="40.913624167954275" lon="8.952746754055045"><ele>565.5</ele><time>2026-05-02T13:11:34.999Z</time></trkpt><trkpt lat="40.91359046032645" lon="8.952579045387402"><ele>561.0</ele><time>2026-05-02T13:11:35.999Z</time></trkpt><trkpt lat="40.91354898842801" lon="8.952419267226654"><ele>559.5</ele><time>2026-05-02T13:11:36.999Z</time></trkpt><trkpt lat="40.913484717540065" lon="8.952267629178866"><ele>558.0</ele><time>2026-05-02T13:11:37.999Z</time></trkpt><trkpt lat="40.91340539004933" lon="8.952119530583403"><ele>556.5</ele><time>2026-05-02T13:11:38.999Z</time></trkpt><trkpt lat="40.9133182616056" lon="8.951985376224945"><ele>555.0</ele><time>2026-05-02T13:11:39.999Z</time></trkpt><trkpt lat="40.91323297998615" lon="8.951859833595798"><ele>555.0</ele><time>2026-05-02T13:11:40.999Z</time></trkpt><trkpt lat="40.91315454071254" lon="8.95174420198993"><ele>555.0</ele><time>2026-05-02T13:11:41.999Z</time></trkpt><trkpt lat="40.91306640382561" lon="8.951659681252599"><ele>555.0</ele><time>2026-05-02T13:11:42.999Z</time></trkpt><trkpt lat="40.91299860898312" lon="8.951587129126573"><ele>555.0</ele><time>2026-05-02T13:11:43.999Z</time></trkpt><trkpt lat="40.91293107402931" lon="8.951517202457396"><ele>555.0</ele><time>2026-05-02T13:11:45.999Z</time></trkpt><trkpt lat="40.9128444631534" lon="8.951435384551452"><ele>554.8</ele><time>2026-05-02T13:11:48.999Z</time></trkpt><trkpt lat="40.912758162705224" lon="8.951349045982552"><ele>554.6</ele><time>2026-05-02T13:11:50.999Z</time></trkpt><trkpt lat="40.91267241080753" lon="8.951260859538467"><ele>554.4</ele><time>2026-05-02T13:11:52.999Z</time></trkpt><trkpt lat="40.91258623885417" lon="8.951135309497204"><ele>554.2</ele><time>2026-05-02T13:11:54.999Z</time></trkpt><trkpt lat="40.912549348467216" lon="8.95105914586663"><ele>554.0</ele><time>2026-05-02T13:11:55.999Z</time></trkpt><trkpt lat="40.91251049645359" lon="8.95098017632863"><ele>554.0</ele><time>2026-05-02T13:11:56.999Z</time></trkpt><trkpt lat="40.912467167265774" lon="8.950889080997856"><ele>554.0</ele><time>2026-05-02T13:11:57.999Z</time></trkpt><trkpt lat="40.912422917757425" lon="8.950803483983991"><ele>554.0</ele><time>2026-05-02T13:11:58.999Z</time></trkpt><trkpt lat="40.912374529354835" lon="8.950728965438053"><ele>554.0</ele><time>2026-05-02T13:11:59.999Z</time></trkpt><trkpt lat="40.91232915933471" lon="8.950658909549619"><ele>554.0</ele><time>2026-05-02T13:12:00.999Z</time></trkpt><trkpt lat="40.912289519416774" lon="8.950590131952168"><ele>554.0</ele><time>2026-05-02T13:12:01.999Z</time></trkpt><trkpt lat="40.91224927404027" lon="8.950510653725212"><ele>554.0</ele><time>2026-05-02T13:12:02.999Z</time></trkpt><trkpt lat="40.91222741720438" lon="8.95042869334339"><ele>554.1666666666666</ele><time>2026-05-02T13:12:03.999Z</time></trkpt><trkpt lat="40.91220501031173" lon="8.95031854675686"><ele>554.3333333333333</ele><time>2026-05-02T13:12:04.999Z</time></trkpt><trkpt lat="40.91217735589274" lon="8.950210688610001"><ele>554.5</ele><time>2026-05-02T13:12:05.999Z</time></trkpt><trkpt lat="40.91213771131462" lon="8.95010900393924"><ele>554.6666666666666</ele><time>2026-05-02T13:12:06.999Z</time></trkpt><trkpt lat="40.91206700983719" lon="8.95001932521636"><ele>554.8333333333334</ele><time>2026-05-02T13:12:07.999Z</time></trkpt><trkpt lat="40.91201029676901" lon="8.949934847454875"><ele>555.0</ele><time>2026-05-02T13:12:08.999Z</time></trkpt><trkpt lat="40.91196153959989" lon="8.949854069504566"><ele>553.4</ele><time>2026-05-02T13:12:09.999Z</time></trkpt><trkpt lat="40.911918333048256" lon="8.94977081763408"><ele>551.8</ele><time>2026-05-02T13:12:10.999Z</time></trkpt><trkpt lat="40.911880166049265" lon="8.949688279599846"><ele>550.2</ele><time>2026-05-02T13:12:11.999Z</time></trkpt><trkpt lat="40.91184783049867" lon="8.949610760287028"><ele>548.6</ele><time>2026-05-02T13:12:13.999Z</time></trkpt><trkpt lat="40.911745033678045" lon="8.949748255288256"><ele>547.0</ele><time>2026-05-02T13:13:03.999Z</time></trkpt><trkpt lat="40.911826408291134" lon="8.949580747970542"><ele>547.0</ele><time>2026-05-02T13:13:04.999Z</time></trkpt><trkpt lat="40.91157384875436" lon="8.949639200550303"><ele>547.0</ele><time>2026-05-02T13:13:05.999Z</time></trkpt><trkpt lat="40.91148797422995" lon="8.949571834827246"><ele>547.0</ele><time>2026-05-02T13:13:06.999Z</time></trkpt><trkpt lat="40.91140149727098" lon="8.94950951062739"><ele>547.0</ele><time>2026-05-02T13:13:07.999Z</time></trkpt><trkpt lat="40.911291192093636" lon="8.949433010142512"><ele>547.0</ele><time>2026-05-02T13:13:08.999Z</time></trkpt><trkpt lat="40.91117538440618" lon="8.949361894821587"><ele>547.0</ele><time>2026-05-02T13:13:09.999Z</time></trkpt><trkpt lat="40.911071707233546" lon="8.949303598115074"><ele>547.0</ele><time>2026-05-02T13:13:10.999Z</time></trkpt><trkpt lat="40.91098122176201" lon="8.949264175866936"><ele>547.0</ele><time>2026-05-02T13:13:11.999Z</time></trkpt><trkpt lat="40.910925218703206" lon="8.949211860750951"><ele>547.0</ele><time>2026-05-02T13:13:12.999Z</time></trkpt><trkpt lat="40.91085298355922" lon="8.949124239023515"><ele>547.0</ele><time>2026-05-02T13:13:13.999Z</time></trkpt><trkpt lat="40.91075596888276" lon="8.949017001828746"><ele>547.0</ele><time>2026-05-02T13:13:14.999Z</time></trkpt><trkpt lat="40.910635748140656" lon="8.948929190008238"><ele>547.0</ele><time>2026-05-02T13:13:15.999Z</time></trkpt><trkpt lat="40.91049400495543" lon="8.94883916684964"><ele>551.3333333333334</ele><time>2026-05-02T13:13:16.999Z</time></trkpt><trkpt lat="40.91037614298319" lon="8.948734301214888"><ele>555.6666666666666</ele><time>2026-05-02T13:13:17.999Z</time></trkpt><trkpt lat="40.91024539957164" lon="8.948590504638295"><ele>560.0</ele><time>2026-05-02T13:13:18.999Z</time></trkpt><trkpt lat="40.91012006611206" lon="8.948444082421833"><ele>563.25</ele><time>2026-05-02T13:13:19.999Z</time></trkpt><trkpt lat="40.910037561832986" lon="8.948307142239862"><ele>566.5</ele><time>2026-05-02T13:13:20.999Z</time></trkpt><trkpt lat="40.90995080919503" lon="8.948176513115577"><ele>569.75</ele><time>2026-05-02T13:13:21.999Z</time></trkpt><trkpt lat="40.90985868929594" lon="8.948056607236158"><ele>573.0</ele><time>2026-05-02T13:13:22.999Z</time></trkpt><trkpt lat="40.90977259449678" lon="8.947932813009878"><ele>573.0</ele><time>2026-05-02T13:13:23.999Z</time></trkpt><trkpt lat="40.90968947223876" lon="8.947844282747132"><ele>573.0</ele><time>2026-05-02T13:13:24.999Z</time></trkpt><trkpt lat="40.90957885818866" lon="8.9477404867463"><ele>573.0</ele><time>2026-05-02T13:13:25.999Z</time></trkpt><trkpt lat="40.909431275605634" lon="8.947616060607775"><ele>573.0</ele><time>2026-05-02T13:13:26.999Z</time></trkpt><trkpt lat="40.90932153513592" lon="8.947514292510432"><ele>575.25</ele><time>2026-05-02T13:13:27.999Z</time></trkpt><trkpt lat="40.909216954528205" lon="8.947418728198475"><ele>577.5</ele><time>2026-05-02T13:13:28.999Z</time></trkpt><trkpt lat="40.90912709869357" lon="8.947370818713033"><ele>579.75</ele><time>2026-05-02T13:13:29.999Z</time></trkpt><trkpt lat="40.909016712812594" lon="8.947326654914878"><ele>582.0</ele><time>2026-05-02T13:13:30.999Z</time></trkpt><trkpt lat="40.90890045627326" lon="8.947328484594737"><ele>582.0</ele><time>2026-05-02T13:13:31.999Z</time></trkpt><trkpt lat="40.90879043760436" lon="8.947370134473255"><ele>582.0</ele><time>2026-05-02T13:13:32.999Z</time></trkpt><trkpt lat="40.90868170321953" lon="8.947411901396707"><ele>582.0</ele><time>2026-05-02T13:13:33.999Z</time></trkpt><trkpt lat="40.90857230559903" lon="8.947424469136067"><ele>582.0</ele><time>2026-05-02T13:13:34.999Z</time></trkpt><trkpt lat="40.90846308337399" lon="8.947433088783859"><ele>582.0</ele><time>2026-05-02T13:13:35.999Z</time></trkpt><trkpt lat="40.90835294878459" lon="8.947413812111902"><ele>582.2</ele><time>2026-05-02T13:13:36.999Z</time></trkpt><trkpt lat="40.90825017942956" lon="8.947377845303523"><ele>582.4000000000001</ele><time>2026-05-02T13:13:37.999Z</time></trkpt><trkpt lat="40.908155663248145" lon="8.947313010128648"><ele>582.5999999999999</ele><time>2026-05-02T13:13:38.999Z</time></trkpt><trkpt lat="40.90808498146646" lon="8.947240380436455"><ele>582.8</ele><time>2026-05-02T13:13:39.999Z</time></trkpt><trkpt lat="40.908023987943636" lon="8.94715044068559"><ele>583.0</ele><time>2026-05-02T13:13:40.999Z</time></trkpt><trkpt lat="40.90796842703047" lon="8.94703360770542"><ele>583.0</ele><time>2026-05-02T13:13:41.999Z</time></trkpt><trkpt lat="40.907904140931194" lon="8.946929509576483"><ele>583.0</ele><time>2026-05-02T13:13:42.999Z</time></trkpt><trkpt lat="40.9078209450812" lon="8.946849170631658"><ele>583.0</ele><time>2026-05-02T13:13:43.999Z</time></trkpt><trkpt lat="40.90772619919232" lon="8.946767448516757"><ele>583.0</ele><time>2026-05-02T13:13:44.999Z</time></trkpt><trkpt lat="40.90763288118513" lon="8.946694028567707"><ele>583.0</ele><time>2026-05-02T13:13:45.999Z</time></trkpt><trkpt lat="40.90753615185027" lon="8.94663265591573"><ele>581.6</ele><time>2026-05-02T13:13:46.999Z</time></trkpt><trkpt lat="40.907446558107104" lon="8.94656819044125"><ele>580.1999999999999</ele><time>2026-05-02T13:13:47.999Z</time></trkpt><trkpt lat="40.907358174641885" lon="8.946506178535202"><ele>578.8</ele><time>2026-05-02T13:13:48.999Z</time></trkpt><trkpt lat="40.90725987811087" lon="8.9464450541331"><ele>577.4</ele><time>2026-05-02T13:13:49.999Z</time></trkpt><trkpt lat="40.907167903975235" lon="8.946392519036232"><ele>576.0</ele><time>2026-05-02T13:13:50.999Z</time></trkpt><trkpt lat="40.907075094859636" lon="8.94634905386912"><ele>576.0</ele><time>2026-05-02T13:13:51.999Z</time></trkpt><trkpt lat="40.90699883650652" lon="8.946312354568983"><ele>576.0</ele><time>2026-05-02T13:13:52.999Z</time></trkpt><trkpt lat="40.906929480644806" lon="8.946251098457154"><ele>576.0</ele><time>2026-05-02T13:13:53.999Z</time></trkpt><trkpt lat="40.906893283271565" lon="8.946126960311192"><ele>576.0</ele><time>2026-05-02T13:13:55.999Z</time></trkpt><trkpt lat="40.90688598534449" lon="8.946031110483197"><ele>576.0</ele><time>2026-05-02T13:13:56.999Z</time></trkpt><trkpt lat="40.90686137508118" lon="8.945941197398172"><ele>576.0</ele><time>2026-05-02T13:13:57.999Z</time></trkpt><trkpt lat="40.906807928165385" lon="8.945850154103898"><ele>572.75</ele><time>2026-05-02T13:13:58.999Z</time></trkpt><trkpt lat="40.90673243923595" lon="8.94576587484042"><ele>569.5</ele><time>2026-05-02T13:13:59.999Z</time></trkpt><trkpt lat="40.9066250337698" lon="8.945636845766263"><ele>566.25</ele><time>2026-05-02T13:14:00.999Z</time></trkpt><trkpt lat="40.90654034310386" lon="8.945527292918928"><ele>563.0</ele><time>2026-05-02T13:14:01.999Z</time></trkpt><trkpt lat="40.90646247270564" lon="8.94543043815369"><ele>563.0</ele><time>2026-05-02T13:14:02.999Z</time></trkpt><trkpt lat="40.90638395999559" lon="8.94533605251357"><ele>563.0</ele><time>2026-05-02T13:14:03.999Z</time></trkpt><trkpt lat="40.90630721865327" lon="8.945246315153"><ele>563.0</ele><time>2026-05-02T13:14:04.999Z</time></trkpt><trkpt lat="40.90623796231668" lon="8.945164292738971"><ele>563.0</ele><time>2026-05-02T13:14:05.999Z</time></trkpt><trkpt lat="40.90617230865135" lon="8.945079668357904"><ele>563.0</ele><time>2026-05-02T13:14:06.999Z</time></trkpt><trkpt lat="40.90612644137282" lon="8.945016997276413"><ele>561.8</ele><time>2026-05-02T13:14:07.999Z</time></trkpt><trkpt lat="40.90606973338335" lon="8.944927525092162"><ele>560.5999999999999</ele><time>2026-05-02T13:14:09.999Z</time></trkpt><trkpt lat="40.90600987513414" lon="8.944886683649283"><ele>559.4000000000001</ele><time>2026-05-02T13:14:13.999Z</time></trkpt><trkpt lat="40.90594494208889" lon="8.944804016373103"><ele>558.2</ele><time>2026-05-02T13:14:15.999Z</time></trkpt><trkpt lat="40.905874745975744" lon="8.944704072791694"><ele>557.0</ele><time>2026-05-02T13:14:18Z</time></trkpt><trkpt lat="40.905799996624175" lon="8.944608979943487"><ele>557.0</ele><time>2026-05-02T13:14:20Z</time></trkpt><trkpt lat="40.905737847236296" lon="8.944509075546595"><ele>557.0</ele><time>2026-05-02T13:14:22Z</time></trkpt><trkpt lat="40.905696999990774" lon="8.944396388665623"><ele>557.0</ele><time>2026-05-02T13:14:24Z</time></trkpt><trkpt lat="40.905670270203366" lon="8.944319660542597"><ele>557.0</ele><time>2026-05-02T13:14:26Z</time></trkpt><trkpt lat="40.90564176661774" lon="8.944227559476435"><ele>557.0</ele><time>2026-05-02T13:14:48Z</time></trkpt><trkpt lat="40.90559561446662" lon="8.94412899701883"><ele>557.0</ele><time>2026-05-02T13:14:51Z</time></trkpt><trkpt lat="40.90550790354718" lon="8.944080916738743"><ele>556.8000000000001</ele><time>2026-05-02T13:15:05Z</time></trkpt><trkpt lat="40.905434437896254" lon="8.944056098689444"><ele>556.6</ele><time>2026-05-02T13:15:06Z</time></trkpt><trkpt lat="40.90534323603302" lon="8.943985984262541"><ele>556.4000000000001</ele><time>2026-05-02T13:15:08Z</time></trkpt><trkpt lat="40.905256674708596" lon="8.943903105989966"><ele>556.2</ele><time>2026-05-02T13:15:10Z</time></trkpt><trkpt lat="40.90519342571497" lon="8.943854611203806"><ele>556.0</ele><time>2026-05-02T13:15:12Z</time></trkpt><trkpt lat="40.905100504577156" lon="8.943752948452083"><ele>555.1666666666667</ele><time>2026-05-02T13:15:14Z</time></trkpt><trkpt lat="40.90503784838565" lon="8.943696203250571"><ele>554.3333333333334</ele><time>2026-05-02T13:15:15Z</time></trkpt><trkpt lat="40.90495681800881" lon="8.943597788437478"><ele>553.5</ele><time>2026-05-02T13:15:17Z</time></trkpt><trkpt lat="40.904901659915154" lon="8.943534695741224"><ele>552.6666666666666</ele><time>2026-05-02T13:15:19Z</time></trkpt><trkpt lat="40.90482209963133" lon="8.943451667744892"><ele>551.8333333333333</ele><time>2026-05-02T13:15:21Z</time></trkpt><trkpt lat="40.90475416274177" lon="8.94339194276704"><ele>551.0</ele><time>2026-05-02T13:15:23Z</time></trkpt><trkpt lat="40.9046675696795" lon="8.943334523108495"><ele>549.8</ele><time>2026-05-02T13:15:25Z</time></trkpt><trkpt lat="40.904553612448154" lon="8.943259967664686"><ele>548.6</ele><time>2026-05-02T13:15:27Z</time></trkpt><trkpt lat="40.904490262489794" lon="8.943220836685265"><ele>547.4</ele><time>2026-05-02T13:15:28Z</time></trkpt><trkpt lat="40.90443178002108" lon="8.943174294848458"><ele>546.2</ele><time>2026-05-02T13:15:29Z</time></trkpt><trkpt lat="40.904349327517444" lon="8.94306974797878"><ele>545.0</ele><time>2026-05-02T13:15:31Z</time></trkpt><trkpt lat="40.904261455521066" lon="8.942944817760946"><ele>544.0</ele><time>2026-05-02T13:15:34Z</time></trkpt><trkpt lat="40.90417638828562" lon="8.942836891826413"><ele>543.0</ele><time>2026-05-02T13:15:36Z</time></trkpt><trkpt lat="40.904127221539575" lon="8.942758954578292"><ele>542.0</ele><time>2026-05-02T13:15:37.999Z</time></trkpt><trkpt lat="40.90406808950536" lon="8.942653303649458"><ele>541.0</ele><time>2026-05-02T13:15:39.999Z</time></trkpt><trkpt lat="40.90400659481879" lon="8.942566573710462"><ele>540.0</ele><time>2026-05-02T13:15:41.999Z</time></trkpt><trkpt lat="40.90394007694017" lon="8.942475443621927"><ele>539.1666666666666</ele><time>2026-05-02T13:15:43.999Z</time></trkpt><trkpt lat="40.90387514091603" lon="8.942409142377997"><ele>538.3333333333334</ele><time>2026-05-02T13:15:45.999Z</time></trkpt><trkpt lat="40.90380103024449" lon="8.942331937991252"><ele>537.5</ele><time>2026-05-02T13:15:47.999Z</time></trkpt><trkpt lat="40.90371596131886" lon="8.942236602043087"><ele>536.6666666666667</ele><time>2026-05-02T13:15:49.999Z</time></trkpt><trkpt lat="40.90366972499197" lon="8.94215494999371"><ele>535.8333333333334</ele><time>2026-05-02T13:15:51.999Z</time></trkpt><trkpt lat="40.903636089364355" lon="8.942058563876401"><ele>535.0</ele><time>2026-05-02T13:15:53.999Z</time></trkpt><trkpt lat="40.903606382297994" lon="8.941926042054183"><ele>535.0</ele><time>2026-05-02T13:15:55.999Z</time></trkpt><trkpt lat="40.903573154155225" lon="8.941842942362088"><ele>535.0</ele><time>2026-05-02T13:15:56.999Z</time></trkpt><trkpt lat="40.90352826163833" lon="8.941700375790214"><ele>535.0</ele><time>2026-05-02T13:15:57.999Z</time></trkpt><trkpt lat="40.903506167550255" lon="8.941593567152623"><ele>535.0</ele><time>2026-05-02T13:15:58.999Z</time></trkpt><trkpt lat="40.90348072097354" lon="8.941494936292822"><ele>535.0</ele><time>2026-05-02T13:15:59.999Z</time></trkpt><trkpt lat="40.903453778233" lon="8.941403998920457"><ele>535.0</ele><time>2026-05-02T13:16:00.999Z</time></trkpt><trkpt lat="40.90343216968152" lon="8.941318263587542"><ele>533.1666666666667</ele><time>2026-05-02T13:16:01.999Z</time></trkpt><trkpt lat="40.90339700637373" lon="8.941214500660024"><ele>531.3333333333334</ele><time>2026-05-02T13:16:03.999Z</time></trkpt><trkpt lat="40.90331649131208" lon="8.941164624131089"><ele>529.5</ele><time>2026-05-02T13:16:05.999Z</time></trkpt><trkpt lat="40.90322583975974" lon="8.941099309234973"><ele>527.6666666666666</ele><time>2026-05-02T13:16:07.999Z</time></trkpt><trkpt lat="40.903168620618025" lon="8.941046122830645"><ele>525.8333333333333</ele><time>2026-05-02T13:16:08.999Z</time></trkpt><trkpt lat="40.90309008934631" lon="8.940967442757412"><ele>524.0</ele><time>2026-05-02T13:16:10.999Z</time></trkpt><trkpt lat="40.903035898189785" lon="8.940913154011694"><ele>524.6666666666666</ele><time>2026-05-02T13:16:12.999Z</time></trkpt><trkpt lat="40.902983468239" lon="8.940850731204739"><ele>525.3333333333333</ele><time>2026-05-02T13:16:14.999Z</time></trkpt><trkpt lat="40.90290985643783" lon="8.94073199684218"><ele>526.0</ele><time>2026-05-02T13:16:17Z</time></trkpt><trkpt lat="40.902870807772445" lon="8.940614755534504"><ele>526.6666666666666</ele><time>2026-05-02T13:16:19Z</time></trkpt><trkpt lat="40.90290964397029" lon="8.940517800972811"><ele>527.3333333333334</ele><time>2026-05-02T13:16:21Z</time></trkpt><trkpt lat="40.90293912328845" lon="8.940417580828923"><ele>528.0</ele><time>2026-05-02T13:16:22Z</time></trkpt><trkpt lat="40.90295380681161" lon="8.94033175448395"><ele>528.0</ele><time>2026-05-02T13:16:23Z</time></trkpt><trkpt lat="40.90292994497918" lon="8.940203993308932"><ele>528.0</ele><time>2026-05-02T13:16:25Z</time></trkpt><trkpt lat="40.90288960455999" lon="8.940128317616646"><ele>528.0</ele><time>2026-05-02T13:16:27Z</time></trkpt><trkpt lat="40.90285377167384" lon="8.940056491230397"><ele>528.0</ele><time>2026-05-02T13:16:29Z</time></trkpt><trkpt lat="40.90280398531276" lon="8.939946325711713"><ele>528.0</ele><time>2026-05-02T13:16:31Z</time></trkpt><trkpt lat="40.90276157505177" lon="8.939839214316176"><ele>528.0</ele><time>2026-05-02T13:16:33Z</time></trkpt><trkpt lat="40.90271067800796" lon="8.939764515024768"><ele>527.8333333333334</ele><time>2026-05-02T13:16:34Z</time></trkpt><trkpt lat="40.90264232426383" lon="8.939649180761563"><ele>527.6666666666666</ele><time>2026-05-02T13:16:36Z</time></trkpt><trkpt lat="40.902592116874914" lon="8.939575755422593"><ele>527.5</ele><time>2026-05-02T13:16:38Z</time></trkpt><trkpt lat="40.90253919841847" lon="8.939510267287968"><ele>527.3333333333333</ele><time>2026-05-02T13:16:40Z</time></trkpt><trkpt lat="40.90249802845223" lon="8.939431582012315"><ele>527.1666666666666</ele><time>2026-05-02T13:16:43Z</time></trkpt><trkpt lat="40.902469968262075" lon="8.939352112991184"><ele>527.0</ele><time>2026-05-02T13:16:46Z</time></trkpt><trkpt lat="40.90244070210147" lon="8.939259275086235"><ele>523.4</ele><time>2026-05-02T13:16:49Z</time></trkpt><trkpt lat="40.902411010878765" lon="8.939176839667097"><ele>519.8000000000001</ele><time>2026-05-02T13:16:51Z</time></trkpt><trkpt lat="40.9023762395031" lon="8.939060991282078"><ele>516.2</ele><time>2026-05-02T13:16:53Z</time></trkpt><trkpt lat="40.90234848337706" lon="8.9389814320658"><ele>512.6</ele><time>2026-05-02T13:16:54Z</time></trkpt><trkpt lat="40.90231083062575" lon="8.938839585577961"><ele>509.0</ele><time>2026-05-02T13:16:56Z</time></trkpt><trkpt lat="40.902270324686775" lon="8.938695409215526"><ele>509.0</ele><time>2026-05-02T13:16:58Z</time></trkpt><trkpt lat="40.90222875378029" lon="8.938571327403086"><ele>509.0</ele><time>2026-05-02T13:17:00Z</time></trkpt><trkpt lat="40.90218856680823" lon="8.938453852876798"><ele>509.0</ele><time>2026-05-02T13:17:02Z</time></trkpt><trkpt lat="40.90212532355814" lon="8.93833789100217"><ele>509.0</ele><time>2026-05-02T13:17:04Z</time></trkpt><trkpt lat="40.902078201520986" lon="8.938272921988286"><ele>509.0</ele><time>2026-05-02T13:17:05Z</time></trkpt><trkpt lat="40.902000504062094" lon="8.938157019796568"><ele>507.4</ele><time>2026-05-02T13:17:07Z</time></trkpt><trkpt lat="40.90193172681471" lon="8.938059873971444"><ele>505.79999999999995</ele><time>2026-05-02T13:17:09Z</time></trkpt><trkpt lat="40.90187343890198" lon="8.937953786857454"><ele>504.20000000000005</ele><time>2026-05-02T13:17:11Z</time></trkpt><trkpt lat="40.90181136137987" lon="8.937853509782634"><ele>502.6</ele><time>2026-05-02T13:17:13Z</time></trkpt><trkpt lat="40.90175939071743" lon="8.937791000791217"><ele>501.0</ele><time>2026-05-02T13:17:15Z</time></trkpt><trkpt lat="40.90171823730035" lon="8.93769277435189"><ele>497.5</ele><time>2026-05-02T13:17:18Z</time></trkpt><trkpt lat="40.901654291082444" lon="8.937610371020973"><ele>494.0</ele><time>2026-05-02T13:17:20Z</time></trkpt><trkpt lat="40.90159037287787" lon="8.937528104780133"><ele>490.5</ele><time>2026-05-02T13:17:22Z</time></trkpt><trkpt lat="40.90153177314946" lon="8.937456721357623"><ele>487.0</ele><time>2026-05-02T13:17:24Z</time></trkpt><trkpt lat="40.901464397150804" lon="8.937382748872276"><ele>483.5</ele><time>2026-05-02T13:17:26Z</time></trkpt><trkpt lat="40.9013984972536" lon="8.937291360596166"><ele>480.0</ele><time>2026-05-02T13:17:28Z</time></trkpt><trkpt lat="40.90131135631014" lon="8.937188474060108"><ele>479.5</ele><time>2026-05-02T13:17:30Z</time></trkpt><trkpt lat="40.901234629414276" lon="8.937132676232016"><ele>479.0</ele><time>2026-05-02T13:17:32Z</time></trkpt><trkpt lat="40.90116905090643" lon="8.937044092100809"><ele>478.5</ele><time>2026-05-02T13:17:34Z</time></trkpt><trkpt lat="40.901113503197095" lon="8.936979704523864"><ele>478.0</ele><time>2026-05-02T13:17:36Z</time></trkpt><trkpt lat="40.901055613811906" lon="8.93692236702304"><ele>477.5</ele><time>2026-05-02T13:17:39Z</time></trkpt><trkpt lat="40.90099650788488" lon="8.936867409027126"><ele>477.0</ele><time>2026-05-02T13:17:42Z</time></trkpt><trkpt lat="40.90093148844391" lon="8.936787519331139"><ele>473.3333333333333</ele><time>2026-05-02T13:17:45Z</time></trkpt><trkpt lat="40.9008880206255" lon="8.936720668492194"><ele>469.66666666666663</ele><time>2026-05-02T13:17:47Z</time></trkpt><trkpt lat="40.90080843563673" lon="8.936730664162901"><ele>466.0</ele><time>2026-05-02T13:17:50Z</time></trkpt><trkpt lat="40.90074743140691" lon="8.936786030770653"><ele>462.3333333333333</ele><time>2026-05-02T13:17:53Z</time></trkpt><trkpt lat="40.900702118231656" lon="8.936849664198109"><ele>458.66666666666663</ele><time>2026-05-02T13:17:55Z</time></trkpt><trkpt lat="40.900644931836894" lon="8.936936581409672"><ele>455.0</ele><time>2026-05-02T13:17:58Z</time></trkpt><trkpt lat="40.900573254432736" lon="8.937016550728025"><ele>455.0</ele><time>2026-05-02T13:18:00Z</time></trkpt><trkpt lat="40.90050574535655" lon="8.936943357212058"><ele>455.0</ele><time>2026-05-02T13:18:02Z</time></trkpt><trkpt lat="40.900470732001274" lon="8.936808416059414"><ele>455.0</ele><time>2026-05-02T13:18:04Z</time></trkpt><trkpt lat="40.90044200274199" lon="8.936694863992512"><ele>455.0</ele><time>2026-05-02T13:18:06Z</time></trkpt><trkpt lat="40.900421396200926" lon="8.936561845848551"><ele>455.0</ele><time>2026-05-02T13:18:08Z</time></trkpt><trkpt lat="40.90040320534926" lon="8.93643611391951"><ele>454.8333333333333</ele><time>2026-05-02T13:18:10Z</time></trkpt><trkpt lat="40.900387125715" lon="8.936322353810814"><ele>454.66666666666663</ele><time>2026-05-02T13:18:12Z</time></trkpt><trkpt lat="40.9003769099033" lon="8.93621259242786"><ele>454.5</ele><time>2026-05-02T13:18:13.999Z</time></trkpt><trkpt lat="40.90038405849045" lon="8.936097616700104"><ele>454.33333333333337</ele><time>2026-05-02T13:18:15.999Z</time></trkpt><trkpt lat="40.90039826599974" lon="8.936001774225968"><ele>454.1666666666667</ele><time>2026-05-02T13:18:17.999Z</time></trkpt><trkpt lat="40.90040080250065" lon="8.935898058966194"><ele>454.0</ele><time>2026-05-02T13:18:19.999Z</time></trkpt><trkpt lat="40.900405377929005" lon="8.935774768157312"><ele>449.4</ele><time>2026-05-02T13:18:23Z</time></trkpt><trkpt lat="40.900393903153955" lon="8.935650660471781"><ele>444.79999999999995</ele><time>2026-05-02T13:18:26Z</time></trkpt><trkpt lat="40.90037974850736" lon="8.935545990749704"><ele>440.20000000000005</ele><time>2026-05-02T13:18:28Z</time></trkpt><trkpt lat="40.90035706254188" lon="8.935394512062073"><ele>435.6</ele><time>2026-05-02T13:18:31Z</time></trkpt><trkpt lat="40.900340788249196" lon="8.935288027327529"><ele>431.0</ele><time>2026-05-02T13:18:33Z</time></trkpt><trkpt lat="40.90023552310877" lon="8.93530701182664"><ele>430.99999999999994</ele><time>2026-05-02T13:18:36Z</time></trkpt><trkpt lat="40.900134208054126" lon="8.93536026379316"><ele>431.0</ele><time>2026-05-02T13:18:38Z</time></trkpt><trkpt lat="40.90006156378903" lon="8.935381356317531"><ele>431.0</ele><time>2026-05-02T13:18:39Z</time></trkpt><trkpt lat="40.899979910697105" lon="8.93535644156303"><ele>431.0</ele><time>2026-05-02T13:18:41Z</time></trkpt><trkpt lat="40.89992878001383" lon="8.935299280810865"><ele>430.99999999999994</ele><time>2026-05-02T13:18:43Z</time></trkpt><trkpt lat="40.899883467590946" lon="8.935198303696954"><ele>431.0</ele><time>2026-05-02T13:18:45Z</time></trkpt><trkpt lat="40.89980563103394" lon="8.935102457094168"><ele>429.49999999999994</ele><time>2026-05-02T13:18:47Z</time></trkpt><trkpt lat="40.89974656909211" lon="8.93506662918396"><ele>428.0</ele><time>2026-05-02T13:18:48Z</time></trkpt><trkpt lat="40.899643185460846" lon="8.935023563217289"><ele>426.5</ele><time>2026-05-02T13:18:50Z</time></trkpt><trkpt lat="40.89958041143641" lon="8.934938754973198"><ele>425.0</ele><time>2026-05-02T13:18:52Z</time></trkpt><trkpt lat="40.89960586137181" lon="8.934821354430145"><ele>423.49999999999994</ele><time>2026-05-02T13:18:54Z</time></trkpt><trkpt lat="40.899611830860266" lon="8.934721928479366"><ele>422.0</ele><time>2026-05-02T13:18:55Z</time></trkpt><trkpt lat="40.89962337537916" lon="8.93462508176694"><ele>420.14285714285717</ele><time>2026-05-02T13:18:56Z</time></trkpt><trkpt lat="40.89964142056663" lon="8.93453594570338"><ele>418.28571428571433</ele><time>2026-05-02T13:18:57Z</time></trkpt><trkpt lat="40.89965912470877" lon="8.934445446189146"><ele>416.42857142857144</ele><time>2026-05-02T13:18:58Z</time></trkpt><trkpt lat="40.89967783635397" lon="8.934363255587842"><ele>414.57142857142856</ele><time>2026-05-02T13:18:59Z</time></trkpt><trkpt lat="40.899694843607584" lon="8.934282095062358"><ele>412.7142857142857</ele><time>2026-05-02T13:19:00Z</time></trkpt><trkpt lat="40.899675000397266" lon="8.934165939684581"><ele>410.85714285714283</ele><time>2026-05-02T13:19:02Z</time></trkpt><trkpt lat="40.89966798173601" lon="8.934058141020909"><ele>409.0</ele><time>2026-05-02T13:19:15Z</time></trkpt><trkpt lat="40.89965104656395" lon="8.933969138646978"><ele>406.0</ele><time>2026-05-02T13:19:16Z</time></trkpt><trkpt lat="40.89962127878796" lon="8.933801604431508"><ele>403.0</ele><time>2026-05-02T13:19:18Z</time></trkpt><trkpt lat="40.899601784912065" lon="8.933703437386635"><ele>400.0</ele><time>2026-05-02T13:19:19Z</time></trkpt><trkpt lat="40.89957657713475" lon="8.933605241814941"><ele>397.0</ele><time>2026-05-02T13:19:20Z</time></trkpt><trkpt lat="40.89955010608629" lon="8.933518772211535"><ele>394.0</ele><time>2026-05-02T13:19:21Z</time></trkpt><trkpt lat="40.89949612696204" lon="8.933388766892012"><ele>395.1666666666667</ele><time>2026-05-02T13:19:23Z</time></trkpt><trkpt lat="40.89944130083857" lon="8.93328906970278"><ele>396.33333333333337</ele><time>2026-05-02T13:19:25Z</time></trkpt><trkpt lat="40.899388089059926" lon="8.933193121655663"><ele>397.5</ele><time>2026-05-02T13:19:27Z</time></trkpt><trkpt lat="40.89933505223923" lon="8.933109688694818"><ele>398.66666666666663</ele><time>2026-05-02T13:19:29Z</time></trkpt><trkpt lat="40.89927896921457" lon="8.933018789428992"><ele>399.8333333333333</ele><time>2026-05-02T13:19:31Z</time></trkpt><trkpt lat="40.89923184989509" lon="8.932921237641693"><ele>401.0</ele><time>2026-05-02T13:19:33Z</time></trkpt><trkpt lat="40.89916475702998" lon="8.932843394196421"><ele>401.0</ele><time>2026-05-02T13:19:35Z</time></trkpt><trkpt lat="40.899093184214685" lon="8.932770456349083"><ele>401.0</ele><time>2026-05-02T13:19:37Z</time></trkpt><trkpt lat="40.899002884527256" lon="8.932699196239314"><ele>401.0</ele><time>2026-05-02T13:19:39Z</time></trkpt><trkpt lat="40.898908880942805" lon="8.932652344042394"><ele>401.0</ele><time>2026-05-02T13:19:41Z</time></trkpt><trkpt lat="40.898799872695264" lon="8.93258788253709"><ele>401.0</ele><time>2026-05-02T13:19:43Z</time></trkpt><trkpt lat="40.89870678744189" lon="8.932507147235347"><ele>395.20000000000005</ele><time>2026-05-02T13:19:45Z</time></trkpt><trkpt lat="40.89861921794492" lon="8.932414831047652"><ele>389.40000000000003</ele><time>2026-05-02T13:19:47Z</time></trkpt><trkpt lat="40.89851787608951" lon="8.93233771299481"><ele>383.6</ele><time>2026-05-02T13:19:49Z</time></trkpt><trkpt lat="40.89843916330816" lon="8.932235444266954"><ele>377.8</ele><time>2026-05-02T13:19:51Z</time></trkpt><trkpt lat="40.89841588843308" lon="8.93211331687286"><ele>372.0</ele><time>2026-05-02T13:19:53Z</time></trkpt><trkpt lat="40.89843616395345" lon="8.931985626306588"><ele>372.0</ele><time>2026-05-02T13:19:56Z</time></trkpt><trkpt lat="40.89843266760421" lon="8.931867165746219"><ele>372.0</ele><time>2026-05-02T13:19:58Z</time></trkpt><trkpt lat="40.89838158533875" lon="8.931769286993969"><ele>372.0</ele><time>2026-05-02T13:20:00Z</time></trkpt><trkpt lat="40.8983333298116" lon="8.931685584402631"><ele>372.0</ele><time>2026-05-02T13:20:02Z</time></trkpt><trkpt lat="40.898321852235476" lon="8.931565322938633"><ele>372.0</ele><time>2026-05-02T13:20:04Z</time></trkpt><trkpt lat="40.898316764971085" lon="8.93142716770458"><ele>368.8333333333333</ele><time>2026-05-02T13:20:06Z</time></trkpt><trkpt lat="40.89831228195505" lon="8.931268233468968"><ele>365.6666666666667</ele><time>2026-05-02T13:20:08Z</time></trkpt><trkpt lat="40.89831528491013" lon="8.931176584888384"><ele>362.5</ele><time>2026-05-02T13:20:09Z</time></trkpt><trkpt lat="40.898321894852145" lon="8.93108641559747"><ele>359.33333333333337</ele><time>2026-05-02T13:20:10Z</time></trkpt><trkpt lat="40.8983307097763" lon="8.930992388052168"><ele>356.1666666666667</ele><time>2026-05-02T13:20:11Z</time></trkpt><trkpt lat="40.89834088989375" lon="8.930908908431165"><ele>353.0</ele><time>2026-05-02T13:20:12Z</time></trkpt><trkpt lat="40.898349006136" lon="8.930783801345097"><ele>351.4</ele><time>2026-05-02T13:20:14Z</time></trkpt><trkpt lat="40.89836378753461" lon="8.930657573247336"><ele>349.79999999999995</ele><time>2026-05-02T13:20:16Z</time></trkpt><trkpt lat="40.898348243170446" lon="8.930531899876824"><ele>348.2</ele><time>2026-05-02T13:20:18Z</time></trkpt><trkpt lat="40.89831023898497" lon="8.930404953469807"><ele>346.6</ele><time>2026-05-02T13:20:20Z</time></trkpt><trkpt lat="40.89829283518153" lon="8.9302418333297"><ele>345.0</ele><time>2026-05-02T13:20:22Z</time></trkpt><trkpt lat="40.89826811963769" lon="8.930080985124548"><ele>343.3333333333333</ele><time>2026-05-02T13:20:24Z</time></trkpt><trkpt lat="40.89824860737335" lon="8.929996007239414"><ele>341.6666666666667</ele><time>2026-05-02T13:20:25Z</time></trkpt><trkpt lat="40.898232226475606" lon="8.92990456511268"><ele>340.0</ele><time>2026-05-02T13:20:26Z</time></trkpt><trkpt lat="40.89821233307736" lon="8.929817802701935"><ele>338.33333333333337</ele><time>2026-05-02T13:20:27Z</time></trkpt><trkpt lat="40.89817758959194" lon="8.929712465409438"><ele>336.6666666666667</ele><time>2026-05-02T13:20:28Z</time></trkpt><trkpt lat="40.898124942461465" lon="8.929589343410921"><ele>335.0</ele><time>2026-05-02T13:20:29Z</time></trkpt><trkpt lat="40.898087733352995" lon="8.929492318249478"><ele>335.0</ele><time>2026-05-02T13:20:30Z</time></trkpt><trkpt lat="40.89807246782917" lon="8.929397166201463"><ele>335.0</ele><time>2026-05-02T13:20:31Z</time></trkpt><trkpt lat="40.89807466174296" lon="8.929286063121173"><ele>335.0</ele><time>2026-05-02T13:20:32Z</time></trkpt><trkpt lat="40.89807143772319" lon="8.929178191178712"><ele>335.0</ele><time>2026-05-02T13:20:33Z</time></trkpt><trkpt lat="40.89805484832637" lon="8.929048296366293"><ele>335.0</ele><time>2026-05-02T13:20:34Z</time></trkpt><trkpt lat="40.89803514941961" lon="8.928925877483401"><ele>335.0</ele><time>2026-05-02T13:20:35Z</time></trkpt><trkpt lat="40.89802792395237" lon="8.928807543526274"><ele>333.4</ele><time>2026-05-02T13:20:36Z</time></trkpt><trkpt lat="40.898026573388854" lon="8.928687782992345"><ele>331.8</ele><time>2026-05-02T13:20:37Z</time></trkpt><trkpt lat="40.89802039130619" lon="8.92858648024152"><ele>330.20000000000005</ele><time>2026-05-02T13:20:38Z</time></trkpt><trkpt lat="40.89808044034894" lon="8.928377796637342"><ele>328.6</ele><time>2026-05-02T13:20:40Z</time></trkpt><trkpt lat="40.89811106057249" lon="8.928246524601603"><ele>327.0</ele><time>2026-05-02T13:20:41Z</time></trkpt><trkpt lat="40.89815472784068" lon="8.928083000771208"><ele>326.3333333333333</ele><time>2026-05-02T13:20:42Z</time></trkpt><trkpt lat="40.89820457861802" lon="8.92795336284213"><ele>325.6666666666667</ele><time>2026-05-02T13:20:43Z</time></trkpt><trkpt lat="40.89824897439984" lon="8.92785321838037"><ele>325.0</ele><time>2026-05-02T13:20:44Z</time></trkpt><trkpt lat="40.898293516603026" lon="8.927743478215511"><ele>324.33333333333337</ele><time>2026-05-02T13:20:45Z</time></trkpt><trkpt lat="40.898328183908795" lon="8.92764273127389"><ele>323.6666666666667</ele><time>2026-05-02T13:20:46Z</time></trkpt><trkpt lat="40.89834131868982" lon="8.927557935522858"><ele>323.0</ele><time>2026-05-02T13:20:47Z</time></trkpt><trkpt lat="40.898309132580664" lon="8.927399715694797"><ele>323.0</ele><time>2026-05-02T13:20:49Z</time></trkpt><trkpt lat="40.89830117551484" lon="8.927273634524157"><ele>323.0</ele><time>2026-05-02T13:20:50Z</time></trkpt><trkpt lat="40.898313209177836" lon="8.927173451019035"><ele>323.0</ele><time>2026-05-02T13:20:51Z</time></trkpt><trkpt lat="40.8983345949461" lon="8.927076168067202"><ele>323.0</ele><time>2026-05-02T13:20:52Z</time></trkpt><trkpt lat="40.89835035143274" lon="8.926968872521488"><ele>323.0</ele><time>2026-05-02T13:20:54Z</time></trkpt><trkpt lat="40.89832973965844" lon="8.926870462742382"><ele>323.0</ele><time>2026-05-02T13:20:56Z</time></trkpt><trkpt lat="40.89828276071404" lon="8.926774284538197"><ele>320.79999999999995</ele><time>2026-05-02T13:20:58Z</time></trkpt><trkpt lat="40.89825819498886" lon="8.926697513260432"><ele>318.59999999999997</ele><time>2026-05-02T13:20:59Z</time></trkpt><trkpt lat="40.89821915516293" lon="8.926557846512894"><ele>316.4</ele><time>2026-05-02T13:21:01Z</time></trkpt><trkpt lat="40.89813757495184" lon="8.926443791420372"><ele>314.2</ele><time>2026-05-02T13:21:03Z</time></trkpt><trkpt lat="40.8981338615715" lon="8.926335237453939"><ele>312.0</ele><time>2026-05-02T13:21:05Z</time></trkpt><trkpt lat="40.898190346542684" lon="8.926205134201393"><ele>312.0</ele><time>2026-05-02T13:21:07Z</time></trkpt><trkpt lat="40.8982002216379" lon="8.926041355063775"><ele>312.0</ele><time>2026-05-02T13:21:09Z</time></trkpt><trkpt lat="40.89819138570182" lon="8.925899632857403"><ele>312.0</ele><time>2026-05-02T13:21:11Z</time></trkpt><trkpt lat="40.89814786189913" lon="8.925829136087945"><ele>312.0</ele><time>2026-05-02T13:21:13Z</time></trkpt><trkpt lat="40.89807452944597" lon="8.925765170997565"><ele>312.0</ele><time>2026-05-02T13:21:15Z</time></trkpt><trkpt lat="40.89801650899775" lon="8.925645597550238"><ele>309.8</ele><time>2026-05-02T13:21:17Z</time></trkpt><trkpt lat="40.89795611215405" lon="8.925535388770578"><ele>307.6</ele><time>2026-05-02T13:21:19Z</time></trkpt><trkpt lat="40.897897039434106" lon="8.92543101323371"><ele>305.40000000000003</ele><time>2026-05-02T13:21:21Z</time></trkpt><trkpt lat="40.89785028661941" lon="8.925329354617489"><ele>303.2</ele><time>2026-05-02T13:21:23Z</time></trkpt><trkpt lat="40.8977794146354" lon="8.925198774539114"><ele>301.0</ele><time>2026-05-02T13:21:25Z</time></trkpt><trkpt lat="40.89767536177573" lon="8.92514299897329"><ele>301.0</ele><time>2026-05-02T13:21:27Z</time></trkpt><trkpt lat="40.89761371322159" lon="8.925120622838053"><ele>301.0</ele><time>2026-05-02T13:21:29Z</time></trkpt><trkpt lat="40.897535598184035" lon="8.9250789406643"><ele>301.0</ele><time>2026-05-02T13:23:21Z</time></trkpt><trkpt lat="40.89742058088224" lon="8.92498069597669"><ele>301.0</ele><time>2026-05-02T13:23:23Z</time></trkpt><trkpt lat="40.89738681781482" lon="8.924880531317772"><ele>301.0</ele><time>2026-05-02T13:23:24Z</time></trkpt><trkpt lat="40.89733563964606" lon="8.924810372141934"><ele>301.0</ele><time>2026-05-02T13:23:25Z</time></trkpt><trkpt lat="40.897293211511574" lon="8.924714730670946"><ele>299.7142857142857</ele><time>2026-05-02T13:23:26Z</time></trkpt><trkpt lat="40.89725029473203" lon="8.924632433817512"><ele>298.42857142857144</ele><time>2026-05-02T13:23:27Z</time></trkpt><trkpt lat="40.89718086601252" lon="8.924576963602368"><ele>297.1428571428571</ele><time>2026-05-02T13:23:28Z</time></trkpt><trkpt lat="40.89711290927726" lon="8.924536250923671"><ele>295.8571428571429</ele><time>2026-05-02T13:23:29Z</time></trkpt><trkpt lat="40.89705639473654" lon="8.924483892609262"><ele>294.57142857142856</ele><time>2026-05-02T13:23:30Z</time></trkpt><trkpt lat="40.896996806156935" lon="8.924431310705527"><ele>293.2857142857143</ele><time>2026-05-02T13:23:31Z</time></trkpt><trkpt lat="40.89693462829243" lon="8.924395116075274"><ele>292.0</ele><time>2026-05-02T13:23:32Z</time></trkpt><trkpt lat="40.89685962379133" lon="8.92435155546412"><ele>292.0</ele><time>2026-05-02T13:23:34Z</time></trkpt><trkpt lat="40.896821524347814" lon="8.924566490971886"><ele>292.0</ele><time>2026-05-02T13:23:39Z</time></trkpt><trkpt lat="40.896872421123156" lon="8.924729963522005"><ele>292.0</ele><time>2026-05-02T13:23:41Z</time></trkpt><trkpt lat="40.89690046536301" lon="8.924843381473611"><ele>292.0</ele><time>2026-05-02T13:23:42Z</time></trkpt><trkpt lat="40.89693219109259" lon="8.924986422073983"><ele>292.2</ele><time>2026-05-02T13:23:43Z</time></trkpt><trkpt lat="40.896965544420816" lon="8.925124004724198"><ele>292.4</ele><time>2026-05-02T13:23:44Z</time></trkpt><trkpt lat="40.89700126340193" lon="8.925257681286944"><ele>292.6</ele><time>2026-05-02T13:23:45Z</time></trkpt><trkpt lat="40.8970451355892" lon="8.925398892825164"><ele>292.8</ele><time>2026-05-02T13:23:46Z</time></trkpt><trkpt lat="40.89709256761512" lon="8.925541054362116"><ele>293.0</ele><time>2026-05-02T13:23:47Z</time></trkpt><trkpt lat="40.89713967754609" lon="8.925690246478208"><ele>293.0</ele><time>2026-05-02T13:23:48Z</time></trkpt><trkpt lat="40.89718631194682" lon="8.925840182000757"><ele>293.0</ele><time>2026-05-02T13:23:49Z</time></trkpt><trkpt lat="40.89721753876528" lon="8.925987093189946"><ele>293.0</ele><time>2026-05-02T13:23:50Z</time></trkpt><trkpt lat="40.897219321811015" lon="8.926138992801084"><ele>293.0</ele><time>2026-05-02T13:23:51Z</time></trkpt><trkpt lat="40.8971918479605" lon="8.926276088905363"><ele>294.0</ele><time>2026-05-02T13:23:52Z</time></trkpt><trkpt lat="40.897157414959096" lon="8.926413010268318"><ele>295.0</ele><time>2026-05-02T13:23:53Z</time></trkpt><trkpt lat="40.89711929570044" lon="8.926555238238853"><ele>296.0</ele><time>2026-05-02T13:23:54Z</time></trkpt><trkpt lat="40.897078371754816" lon="8.926694077761342"><ele>297.0</ele><time>2026-05-02T13:23:55Z</time></trkpt><trkpt lat="40.8970341733625" lon="8.92683339935396"><ele>298.5</ele><time>2026-05-02T13:23:56Z</time></trkpt><trkpt lat="40.896976698594585" lon="8.926972271138569"><ele>300.0</ele><time>2026-05-02T13:23:57Z</time></trkpt><trkpt lat="40.89690630979944" lon="8.927114720374126"><ele>301.5</ele><time>2026-05-02T13:23:58Z</time></trkpt><trkpt lat="40.89683251244824" lon="8.92725207759084"><ele>303.0</ele><time>2026-05-02T13:23:59Z</time></trkpt><trkpt lat="40.896752594207165" lon="8.927383457882247"><ele>297.25</ele><time>2026-05-02T13:24:00Z</time></trkpt><trkpt lat="40.89666421285694" lon="8.927514790452554"><ele>291.5</ele><time>2026-05-02T13:24:01Z</time></trkpt><trkpt lat="40.89658116899805" lon="8.927640195159926"><ele>285.75</ele><time>2026-05-02T13:24:02Z</time></trkpt><trkpt lat="40.896501095331544" lon="8.9277581006363"><ele>280.0</ele><time>2026-05-02T13:24:03Z</time></trkpt><trkpt lat="40.89642115309563" lon="8.927880214345663"><ele>280.0</ele><time>2026-05-02T13:24:04Z</time></trkpt><trkpt lat="40.89634292618268" lon="8.927993920462493"><ele>280.0</ele><time>2026-05-02T13:24:05Z</time></trkpt><trkpt lat="40.89626588776396" lon="8.92810885662308"><ele>280.0</ele><time>2026-05-02T13:24:06Z</time></trkpt><trkpt lat="40.896212409591676" lon="8.928245240980845"><ele>280.0</ele><time>2026-05-02T13:24:07Z</time></trkpt><trkpt lat="40.896188024032384" lon="8.92838909054982"><ele>280.0</ele><time>2026-05-02T13:24:08Z</time></trkpt><trkpt lat="40.896201411652115" lon="8.928543891037448"><ele>280.0</ele><time>2026-05-02T13:24:09Z</time></trkpt><trkpt lat="40.89624011433796" lon="8.928686272948665"><ele>280.0</ele><time>2026-05-02T13:24:10Z</time></trkpt><trkpt lat="40.89628132020851" lon="8.92882437763637"><ele>280.0</ele><time>2026-05-02T13:24:11Z</time></trkpt><trkpt lat="40.89632123995769" lon="8.928960167106888"><ele>280.0</ele><time>2026-05-02T13:24:12Z</time></trkpt><trkpt lat="40.89635788398769" lon="8.92909206399984"><ele>280.0</ele><time>2026-05-02T13:24:13Z</time></trkpt><trkpt lat="40.896387535059894" lon="8.929229792166304"><ele>280.0</ele><time>2026-05-02T13:24:14Z</time></trkpt><trkpt lat="40.89641211658548" lon="8.929360760110862"><ele>280.0</ele><time>2026-05-02T13:24:15Z</time></trkpt><trkpt lat="40.89643334435804" lon="8.929491489801281"><ele>280.0</ele><time>2026-05-02T13:24:16Z</time></trkpt><trkpt lat="40.896442392447945" lon="8.929623841594458"><ele>279.4</ele><time>2026-05-02T13:24:17Z</time></trkpt><trkpt lat="40.89643412436705" lon="8.929755973718338"><ele>278.8</ele><time>2026-05-02T13:24:18Z</time></trkpt><trkpt lat="40.896400577084925" lon="8.929884885172857"><ele>278.2</ele><time>2026-05-02T13:24:19Z</time></trkpt><trkpt lat="40.89633978527719" lon="8.929998442741937"><ele>277.6</ele><time>2026-05-02T13:24:20Z</time></trkpt><trkpt lat="40.89626349162957" lon="8.93009334052621"><ele>277.0</ele><time>2026-05-02T13:24:21Z</time></trkpt><trkpt lat="40.89613356740304" lon="8.930128050101292"><ele>279.0</ele><time>2026-05-02T13:24:22Z</time></trkpt><trkpt lat="40.89598554846397" lon="8.930193383495764"><ele>281.0</ele><time>2026-05-02T13:24:23Z</time></trkpt><trkpt lat="40.89584536523129" lon="8.930257115461774"><ele>283.0</ele><time>2026-05-02T13:24:24Z</time></trkpt><trkpt lat="40.895723426396046" lon="8.930356984127359"><ele>285.0</ele><time>2026-05-02T13:24:25Z</time></trkpt><trkpt lat="40.89560658742929" lon="8.930456495878643"><ele>282.0</ele><time>2026-05-02T13:24:26Z</time></trkpt><trkpt lat="40.89550708439285" lon="8.930577576788274"><ele>279.0</ele><time>2026-05-02T13:24:27Z</time></trkpt><trkpt lat="40.8954392851351" lon="8.930723463223936"><ele>276.0</ele><time>2026-05-02T13:24:28Z</time></trkpt><trkpt lat="40.89538811322872" lon="8.93088899822762"><ele>273.0</ele><time>2026-05-02T13:24:29Z</time></trkpt><trkpt lat="40.89533132358478" lon="8.931052123330424"><ele>273.0</ele><time>2026-05-02T13:24:30Z</time></trkpt><trkpt lat="40.89526820248054" lon="8.931221911935042"><ele>273.0</ele><time>2026-05-02T13:24:31Z</time></trkpt><trkpt lat="40.89520452423099" lon="8.931396001982408"><ele>273.0</ele><time>2026-05-02T13:24:32Z</time></trkpt><trkpt lat="40.8951417787398" lon="8.931574309190895"><ele>273.0</ele><time>2026-05-02T13:24:33Z</time></trkpt><trkpt lat="40.89508619846065" lon="8.931756005005365"><ele>262.6666666666667</ele><time>2026-05-02T13:24:34Z</time></trkpt><trkpt lat="40.8950481733917" lon="8.931945141346635"><ele>252.33333333333334</ele><time>2026-05-02T13:24:34.999Z</time></trkpt><trkpt lat="40.895027009655365" lon="8.932142757444886"><ele>242.0</ele><time>2026-05-02T13:24:35.999Z</time></trkpt><trkpt lat="40.895012477188004" lon="8.932343109922034"><ele>242.0</ele><time>2026-05-02T13:24:36.999Z</time></trkpt><trkpt lat="40.894987437603874" lon="8.932548316104919"><ele>242.0</ele><time>2026-05-02T13:24:37.999Z</time></trkpt><trkpt lat="40.89494452340435" lon="8.932749721243106"><ele>242.0</ele><time>2026-05-02T13:24:39Z</time></trkpt><trkpt lat="40.894890087409195" lon="8.932946152060017"><ele>242.66666666666669</ele><time>2026-05-02T13:24:40Z</time></trkpt><trkpt lat="40.894834017004605" lon="8.933147046658734"><ele>243.33333333333331</ele><time>2026-05-02T13:24:41Z</time></trkpt><trkpt lat="40.89478259370791" lon="8.933347033692021"><ele>244.0</ele><time>2026-05-02T13:24:42Z</time></trkpt><trkpt lat="40.89473450241863" lon="8.933542495416757"><ele>245.0</ele><time>2026-05-02T13:24:43Z</time></trkpt><trkpt lat="40.894683598523514" lon="8.933726074866364"><ele>246.0</ele><time>2026-05-02T13:24:44Z</time></trkpt><trkpt lat="40.894631483391834" lon="8.933903793550087"><ele>247.0</ele><time>2026-05-02T13:24:45Z</time></trkpt><trkpt lat="40.89458133861454" lon="8.934078597634414"><ele>248.0</ele><time>2026-05-02T13:24:46Z</time></trkpt><trkpt lat="40.894533627012756" lon="8.934250463017246"><ele>249.25</ele><time>2026-05-02T13:24:47Z</time></trkpt><trkpt lat="40.89448650217202" lon="8.93442639908004"><ele>250.5</ele><time>2026-05-02T13:24:48Z</time></trkpt><trkpt lat="40.89443707288849" lon="8.934595759886093"><ele>251.75</ele><time>2026-05-02T13:24:49Z</time></trkpt><trkpt lat="40.894368522674604" lon="8.934753213728108"><ele>253.0</ele><time>2026-05-02T13:24:50Z</time></trkpt><trkpt lat="40.89424991503145" lon="8.934846852433347"><ele>246.5</ele><time>2026-05-02T13:24:51Z</time></trkpt><trkpt lat="40.89413282194819" lon="8.934885312880441"><ele>240.0</ele><time>2026-05-02T13:24:52Z</time></trkpt><trkpt lat="40.893993802612954" lon="8.934916020102444"><ele>233.5</ele><time>2026-05-02T13:24:53Z</time></trkpt><trkpt lat="40.89385195212038" lon="8.934945439387214"><ele>227.0</ele><time>2026-05-02T13:24:54Z</time></trkpt><trkpt lat="40.89370079616124" lon="8.934976788619451"><ele>227.0</ele><time>2026-05-02T13:24:55Z</time></trkpt><trkpt lat="40.893559632947095" lon="8.935028596791163"><ele>227.0</ele><time>2026-05-02T13:24:56Z</time></trkpt><trkpt lat="40.89343736426221" lon="8.935078886518298"><ele>227.0</ele><time>2026-05-02T13:24:57Z</time></trkpt><trkpt lat="40.893325823415154" lon="8.935156311082093"><ele>227.0</ele><time>2026-05-02T13:24:58Z</time></trkpt><trkpt lat="40.89324357580676" lon="8.935254890999541"><ele>224.25</ele><time>2026-05-02T13:24:59Z</time></trkpt><trkpt lat="40.89317189587072" lon="8.935373357643773"><ele>221.5</ele><time>2026-05-02T13:25:00Z</time></trkpt><trkpt lat="40.89312055925026" lon="8.935509454474838"><ele>218.75</ele><time>2026-05-02T13:25:01Z</time></trkpt><trkpt lat="40.89308792689913" lon="8.935652877378356"><ele>216.0</ele><time>2026-05-02T13:25:02Z</time></trkpt><trkpt lat="40.89308299302418" lon="8.93581051988652"><ele>213.75</ele><time>2026-05-02T13:25:03Z</time></trkpt><trkpt lat="40.893097189714844" lon="8.935961188933005"><ele>211.5</ele><time>2026-05-02T13:25:04Z</time></trkpt><trkpt lat="40.89314583784117" lon="8.936102108051516"><ele>209.25</ele><time>2026-05-02T13:25:05Z</time></trkpt><trkpt lat="40.893222965830624" lon="8.936217201256374"><ele>207.0</ele><time>2026-05-02T13:25:06Z</time></trkpt><trkpt lat="40.8933107054327" lon="8.936308829317472"><ele>207.0</ele><time>2026-05-02T13:25:07Z</time></trkpt><trkpt lat="40.893402804542994" lon="8.936390112183048"><ele>207.0</ele><time>2026-05-02T13:25:08Z</time></trkpt><trkpt lat="40.89349125692837" lon="8.936473614006973"><ele>207.0</ele><time>2026-05-02T13:25:09Z</time></trkpt><trkpt lat="40.89358427948137" lon="8.93656687370874"><ele>207.0</ele><time>2026-05-02T13:25:10Z</time></trkpt><trkpt lat="40.893689110360974" lon="8.936681093893263"><ele>206.0</ele><time>2026-05-02T13:25:11Z</time></trkpt><trkpt lat="40.89379618341878" lon="8.936812711835254"><ele>205.0</ele><time>2026-05-02T13:25:12Z</time></trkpt><trkpt lat="40.89390196406347" lon="8.936934005572507"><ele>204.0</ele><time>2026-05-02T13:25:13Z</time></trkpt><trkpt lat="40.893998621140334" lon="8.937059723055134"><ele>203.0</ele><time>2026-05-02T13:25:14Z</time></trkpt><trkpt lat="40.89404863414909" lon="8.937231061975549"><ele>203.0</ele><time>2026-05-02T13:25:15Z</time></trkpt><trkpt lat="40.89406375271955" lon="8.937408866589648"><ele>203.0</ele><time>2026-05-02T13:25:16Z</time></trkpt><trkpt lat="40.89403929868268" lon="8.93757450389802"><ele>203.0</ele><time>2026-05-02T13:25:17Z</time></trkpt><trkpt lat="40.89398819498861" lon="8.93772417203619"><ele>203.0</ele><time>2026-05-02T13:25:18Z</time></trkpt><trkpt lat="40.89392149620219" lon="8.937883355072849"><ele>204.0</ele><time>2026-05-02T13:25:19Z</time></trkpt><trkpt lat="40.89386057119575" lon="8.93805928383543"><ele>205.0</ele><time>2026-05-02T13:25:20Z</time></trkpt><trkpt lat="40.89377223624599" lon="8.938229124415422"><ele>206.0</ele><time>2026-05-02T13:25:21Z</time></trkpt><trkpt lat="40.89368309363013" lon="8.938420055983714"><ele>208.33333333333334</ele><time>2026-05-02T13:25:22Z</time></trkpt><trkpt lat="40.89360008942562" lon="8.93860281401752"><ele>210.66666666666669</ele><time>2026-05-02T13:25:23Z</time></trkpt><trkpt lat="40.893520640079636" lon="8.938780330723452"><ele>213.0</ele><time>2026-05-02T13:25:24Z</time></trkpt><trkpt lat="40.89345601657285" lon="8.938964394983966"><ele>204.0</ele><time>2026-05-02T13:25:25Z</time></trkpt><trkpt lat="40.89340572604965" lon="8.939151886101374"><ele>195.0</ele><time>2026-05-02T13:25:26Z</time></trkpt><trkpt lat="40.89336401015413" lon="8.9393506986448"><ele>186.0</ele><time>2026-05-02T13:25:27Z</time></trkpt><trkpt lat="40.89333039998129" lon="8.939551806601662"><ele>186.0</ele><time>2026-05-02T13:25:28Z</time></trkpt><trkpt lat="40.893294378119556" lon="8.93975204210973"><ele>186.0</ele><time>2026-05-02T13:25:29Z</time></trkpt><trkpt lat="40.893252354934944" lon="8.939949341740915"><ele>186.0</ele><time>2026-05-02T13:25:30Z</time></trkpt><trkpt lat="40.89320964981114" lon="8.940142609085182"><ele>185.5</ele><time>2026-05-02T13:25:31Z</time></trkpt><trkpt lat="40.893169635843144" lon="8.94032579964171"><ele>185.0</ele><time>2026-05-02T13:25:32Z</time></trkpt><trkpt lat="40.893129385448965" lon="8.940513516347059"><ele>184.5</ele><time>2026-05-02T13:25:33Z</time></trkpt><trkpt lat="40.8930949798393" lon="8.940697607911405"><ele>184.0</ele><time>2026-05-02T13:25:34Z</time></trkpt><trkpt lat="40.89306708275555" lon="8.940880273687451"><ele>182.25</ele><time>2026-05-02T13:25:35Z</time></trkpt><trkpt lat="40.8930528005403" lon="8.941064216324845"><ele>180.5</ele><time>2026-05-02T13:25:36Z</time></trkpt><trkpt lat="40.89305050179881" lon="8.941241018972962"><ele>178.75</ele><time>2026-05-02T13:25:37Z</time></trkpt><trkpt lat="40.89306194634205" lon="8.9414272451235"><ele>177.0</ele><time>2026-05-02T13:25:38Z</time></trkpt><trkpt lat="40.89308096229413" lon="8.941610167389882"><ele>176.25</ele><time>2026-05-02T13:25:39Z</time></trkpt><trkpt lat="40.893094673005166" lon="8.941794121514643"><ele>175.5</ele><time>2026-05-02T13:25:40Z</time></trkpt><trkpt lat="40.893102462419115" lon="8.941978156523788"><ele>174.75</ele><time>2026-05-02T13:25:41Z</time></trkpt><trkpt lat="40.89309364421096" lon="8.94215877568805"><ele>174.0</ele><time>2026-05-02T13:25:42Z</time></trkpt><trkpt lat="40.893057015334826" lon="8.942347577608507"><ele>174.0</ele><time>2026-05-02T13:25:43Z</time></trkpt><trkpt lat="40.89298449912119" lon="8.942509622190665"><ele>174.0</ele><time>2026-05-02T13:25:44Z</time></trkpt><trkpt lat="40.892919618389" lon="8.94269608996866"><ele>174.0</ele><time>2026-05-02T13:25:45Z</time></trkpt><trkpt lat="40.89283659099374" lon="8.942863399500258"><ele>174.0</ele><time>2026-05-02T13:25:46Z</time></trkpt><trkpt lat="40.89276159976001" lon="8.94303038615209"><ele>174.0</ele><time>2026-05-02T13:25:47Z</time></trkpt><trkpt lat="40.892701084609804" lon="8.94320426939968"><ele>174.0</ele><time>2026-05-02T13:25:48Z</time></trkpt><trkpt lat="40.89266632671263" lon="8.943381510047587"><ele>174.0</ele><time>2026-05-02T13:25:49Z</time></trkpt><trkpt lat="40.89265805987621" lon="8.943568912693392"><ele>174.0</ele><time>2026-05-02T13:25:50Z</time></trkpt><trkpt lat="40.892678901621075" lon="8.943759453629436"><ele>174.33333333333334</ele><time>2026-05-02T13:25:51Z</time></trkpt><trkpt lat="40.89271636579085" lon="8.943954436848685"><ele>174.66666666666669</ele><time>2026-05-02T13:25:52Z</time></trkpt><trkpt lat="40.892752826089506" lon="8.944148137492247"><ele>175.0</ele><time>2026-05-02T13:25:53Z</time></trkpt><trkpt lat="40.89277968277304" lon="8.944343612027629"><ele>175.33333333333334</ele><time>2026-05-02T13:25:54Z</time></trkpt><trkpt lat="40.89279105821872" lon="8.944547838567042"><ele>175.66666666666666</ele><time>2026-05-02T13:25:55Z</time></trkpt><trkpt lat="40.892789845385295" lon="8.944753432381821"><ele>176.0</ele><time>2026-05-02T13:25:56Z</time></trkpt><trkpt lat="40.892773373309296" lon="8.94495894409729"><ele>176.0</ele><time>2026-05-02T13:25:57Z</time></trkpt><trkpt lat="40.89274114070012" lon="8.945159815231493"><ele>176.0</ele><time>2026-05-02T13:25:58Z</time></trkpt><trkpt lat="40.89268610618656" lon="8.945352932462896"><ele>176.0</ele><time>2026-05-02T13:25:59Z</time></trkpt><trkpt lat="40.89260991109062" lon="8.945526456641085"><ele>178.33333333333331</ele><time>2026-05-02T13:26:00Z</time></trkpt><trkpt lat="40.892554308096905" lon="8.945722241386253"><ele>180.66666666666666</ele><time>2026-05-02T13:26:01Z</time></trkpt><trkpt lat="40.8924790070033" lon="8.945907192361217"><ele>183.0</ele><time>2026-05-02T13:26:02Z</time></trkpt><trkpt lat="40.89240786340478" lon="8.946092932984135"><ele>183.0</ele><time>2026-05-02T13:26:03Z</time></trkpt><trkpt lat="40.892332327907965" lon="8.946275326090984"><ele>183.0</ele><time>2026-05-02T13:26:04Z</time></trkpt><trkpt lat="40.89224682000823" lon="8.946451023565661"><ele>183.0</ele><time>2026-05-02T13:26:05Z</time></trkpt><trkpt lat="40.89215487365737" lon="8.946622396502494"><ele>180.66666666666666</ele><time>2026-05-02T13:26:06Z</time></trkpt><trkpt lat="40.8920526132284" lon="8.946784622634997"><ele>178.33333333333331</ele><time>2026-05-02T13:26:07Z</time></trkpt><trkpt lat="40.89194098100017" lon="8.946938528145393"><ele>176.0</ele><time>2026-05-02T13:26:08Z</time></trkpt><trkpt lat="40.89181368037741" lon="8.947066900229922"><ele>182.33333333333331</ele><time>2026-05-02T13:26:09Z</time></trkpt><trkpt lat="40.891695104490914" lon="8.947208656680417"><ele>188.66666666666666</ele><time>2026-05-02T13:26:10Z</time></trkpt><trkpt lat="40.89157502026924" lon="8.947352216323102"><ele>195.0</ele><time>2026-05-02T13:26:11Z</time></trkpt><trkpt lat="40.891462251838064" lon="8.947510127797727"><ele>195.33333333333331</ele><time>2026-05-02T13:26:12Z</time></trkpt><trkpt lat="40.89133570025745" lon="8.947648149504925"><ele>195.66666666666666</ele><time>2026-05-02T13:26:13Z</time></trkpt><trkpt lat="40.891209104642044" lon="8.947789007281074"><ele>196.0</ele><time>2026-05-02T13:26:14Z</time></trkpt><trkpt lat="40.89108528406128" lon="8.947942323903153"><ele>196.0</ele><time>2026-05-02T13:26:15Z</time></trkpt><trkpt lat="40.890979652511355" lon="8.948122977830351"><ele>196.0</ele><time>2026-05-02T13:26:16Z</time></trkpt><trkpt lat="40.89091138547783" lon="8.948327631274095"><ele>196.0</ele><time>2026-05-02T13:26:17Z</time></trkpt><trkpt lat="40.890872060344044" lon="8.948545441321004"><ele>197.75</ele><time>2026-05-02T13:26:18Z</time></trkpt><trkpt lat="40.890895115946655" lon="8.948738241789624"><ele>199.5</ele><time>2026-05-02T13:26:19Z</time></trkpt><trkpt lat="40.890941170654294" lon="8.94888743795531"><ele>201.25</ele><time>2026-05-02T13:26:19.999Z</time></trkpt><trkpt lat="40.89102471887726" lon="8.949001461453598"><ele>203.0</ele><time>2026-05-02T13:26:20.999Z</time></trkpt><trkpt lat="40.8911222120366" lon="8.949078312684893"><ele>203.0</ele><time>2026-05-02T13:26:21.999Z</time></trkpt><trkpt lat="40.89125136839184" lon="8.94914692614419"><ele>203.0</ele><time>2026-05-02T13:26:22.999Z</time></trkpt><trkpt lat="40.89138052257522" lon="8.949226743464427"><ele>203.0</ele><time>2026-05-02T13:26:23.999Z</time></trkpt><trkpt lat="40.89152789724794" lon="8.9492834636526"><ele>203.0</ele><time>2026-05-02T13:26:24.999Z</time></trkpt><trkpt lat="40.89167372121059" lon="8.949352780224443"><ele>200.0</ele><time>2026-05-02T13:26:25.999Z</time></trkpt><trkpt lat="40.89181715576146" lon="8.949435691009983"><ele>197.0</ele><time>2026-05-02T13:26:26.999Z</time></trkpt><trkpt lat="40.891942005774816" lon="8.949539439457324"><ele>194.0</ele><time>2026-05-02T13:26:27.999Z</time></trkpt><trkpt lat="40.8920228306377" lon="8.949685452387453"><ele>191.0</ele><time>2026-05-02T13:26:28.999Z</time></trkpt><trkpt lat="40.89203993584033" lon="8.949842919421215"><ele>191.0</ele><time>2026-05-02T13:26:29.999Z</time></trkpt><trkpt lat="40.892036485934796" lon="8.950006208492072"><ele>191.0</ele><time>2026-05-02T13:26:30.999Z</time></trkpt><trkpt lat="40.89202539858497" lon="8.95015531762013"><ele>191.0</ele><time>2026-05-02T13:26:31.999Z</time></trkpt><trkpt lat="40.891992551491164" lon="8.950306618736361"><ele>191.0</ele><time>2026-05-02T13:26:32.999Z</time></trkpt><trkpt lat="40.891971764532705" lon="8.95045881772925"><ele>192.5</ele><time>2026-05-02T13:26:33.999Z</time></trkpt><trkpt lat="40.89196473831891" lon="8.950627200401069"><ele>194.0</ele><time>2026-05-02T13:26:34.999Z</time></trkpt><trkpt lat="40.89197209002861" lon="8.950818194402666"><ele>195.5</ele><time>2026-05-02T13:26:35.999Z</time></trkpt><trkpt lat="40.89200645022518" lon="8.951019584529806"><ele>197.0</ele><time>2026-05-02T13:26:36.999Z</time></trkpt><trkpt lat="40.89205302108277" lon="8.951207068915307"><ele>203.66666666666669</ele><time>2026-05-02T13:26:37.999Z</time></trkpt><trkpt lat="40.8921210643321" lon="8.951389496191137"><ele>210.33333333333331</ele><time>2026-05-02T13:26:38.999Z</time></trkpt><trkpt lat="40.89219137513047" lon="8.951575948219698"><ele>217.0</ele><time>2026-05-02T13:26:39.999Z</time></trkpt><trkpt lat="40.89226331582214" lon="8.951764590425174"><ele>225.33333333333331</ele><time>2026-05-02T13:26:40.999Z</time></trkpt><trkpt lat="40.89234505816001" lon="8.951935631838447"><ele>233.66666666666669</ele><time>2026-05-02T13:26:41.999Z</time></trkpt><trkpt lat="40.892456970847235" lon="8.952073207328128"><ele>242.0</ele><time>2026-05-02T13:26:42.999Z</time></trkpt><trkpt lat="40.89256902052153" lon="8.95221924743792"><ele>242.0</ele><time>2026-05-02T13:26:43.999Z</time></trkpt><trkpt lat="40.89270228275833" lon="8.952333857648584"><ele>242.0</ele><time>2026-05-02T13:26:45Z</time></trkpt><trkpt lat="40.892839549517625" lon="8.952446860447255"><ele>242.0</ele><time>2026-05-02T13:26:46Z</time></trkpt><trkpt lat="40.89297431012245" lon="8.952561510721095"><ele>242.0</ele><time>2026-05-02T13:26:47Z</time></trkpt><trkpt lat="40.89310436517965" lon="8.95268017151076"><ele>242.0</ele><time>2026-05-02T13:26:48Z</time></trkpt><trkpt lat="40.8932302165792" lon="8.952806571118135"><ele>242.0</ele><time>2026-05-02T13:26:49Z</time></trkpt><trkpt lat="40.893345329012746" lon="8.952945374357093"><ele>236.0</ele><time>2026-05-02T13:26:50Z</time></trkpt><trkpt lat="40.893444633958" lon="8.953099453884569"><ele>230.0</ele><time>2026-05-02T13:26:51Z</time></trkpt><trkpt lat="40.893504996142205" lon="8.953281655647343"><ele>224.0</ele><time>2026-05-02T13:26:52Z</time></trkpt><trkpt lat="40.893491538598894" lon="8.953461411402179"><ele>218.0</ele><time>2026-05-02T13:26:53Z</time></trkpt><trkpt lat="40.89345654988473" lon="8.95361229823262"><ele>222.0</ele><time>2026-05-02T13:26:54Z</time></trkpt><trkpt lat="40.89341384399955" lon="8.953785737320375"><ele>226.0</ele><time>2026-05-02T13:26:55Z</time></trkpt><trkpt lat="40.893342868980135" lon="8.953943425607335"><ele>230.0</ele><time>2026-05-02T13:26:56Z</time></trkpt><trkpt lat="40.893291616437054" lon="8.954115540770001"><ele>234.0</ele><time>2026-05-02T13:26:57Z</time></trkpt><trkpt lat="40.89322610437046" lon="8.954276131992641"><ele>234.0</ele><time>2026-05-02T13:26:58Z</time></trkpt><trkpt lat="40.89315236052625" lon="8.954429322891686"><ele>234.0</ele><time>2026-05-02T13:26:59Z</time></trkpt><trkpt lat="40.893045099101755" lon="8.954544355366455"><ele>234.0</ele><time>2026-05-02T13:27:00Z</time></trkpt><trkpt lat="40.892921937824035" lon="8.954608895634452"><ele>234.0</ele><time>2026-05-02T13:27:01Z</time></trkpt><trkpt lat="40.89279129631265" lon="8.954659833546188"><ele>234.0</ele><time>2026-05-02T13:27:02Z</time></trkpt><trkpt lat="40.892658680512795" lon="8.954697547663955"><ele>234.0</ele><time>2026-05-02T13:27:03Z</time></trkpt><trkpt lat="40.892524134612216" lon="8.954733788916181"><ele>234.0</ele><time>2026-05-02T13:27:04Z</time></trkpt><trkpt lat="40.89238825574615" lon="8.954791098995656"><ele>234.0</ele><time>2026-05-02T13:27:05Z</time></trkpt><trkpt lat="40.892242462577784" lon="8.95482909165377"><ele>237.0</ele><time>2026-05-02T13:27:06Z</time></trkpt><trkpt lat="40.89209830350968" lon="8.954839844271707"><ele>240.0</ele><time>2026-05-02T13:27:07Z</time></trkpt><trkpt lat="40.891957800588216" lon="8.954849587148994"><ele>243.0</ele><time>2026-05-02T13:27:08Z</time></trkpt><trkpt lat="40.891813040818114" lon="8.954846505109357"><ele>246.0</ele><time>2026-05-02T13:27:09Z</time></trkpt><trkpt lat="40.89166793050832" lon="8.954840084156253"><ele>248.5</ele><time>2026-05-02T13:27:10Z</time></trkpt><trkpt lat="40.89152013705625" lon="8.954825980744152"><ele>251.0</ele><time>2026-05-02T13:27:11Z</time></trkpt><trkpt lat="40.891372705315916" lon="8.954800017684299"><ele>253.5</ele><time>2026-05-02T13:27:12Z</time></trkpt><trkpt lat="40.89122932819484" lon="8.954757238042859"><ele>256.0</ele><time>2026-05-02T13:27:13Z</time></trkpt><trkpt lat="40.89108733161742" lon="8.954693433580765"><ele>256.0</ele><time>2026-05-02T13:27:14Z</time></trkpt><trkpt lat="40.89094748590523" lon="8.954613862851454"><ele>256.0</ele><time>2026-05-02T13:27:15Z</time></trkpt><trkpt lat="40.890805289192826" lon="8.95452584330312"><ele>256.0</ele><time>2026-05-02T13:27:16Z</time></trkpt><trkpt lat="40.89066260876116" lon="8.954438998618809"><ele>257.66666666666663</ele><time>2026-05-02T13:27:17Z</time></trkpt><trkpt lat="40.89051352598151" lon="8.95437072128568"><ele>259.3333333333333</ele><time>2026-05-02T13:27:18Z</time></trkpt><trkpt lat="40.89036823252707" lon="8.954283802279562"><ele>261.0</ele><time>2026-05-02T13:27:19Z</time></trkpt><trkpt lat="40.890223895559544" lon="8.954201186954881"><ele>264.6666666666667</ele><time>2026-05-02T13:27:20Z</time></trkpt><trkpt lat="40.89007940984305" lon="8.9541303275821"><ele>268.33333333333337</ele><time>2026-05-02T13:27:21Z</time></trkpt><trkpt lat="40.88992774394534" lon="8.95408417644713"><ele>272.0</ele><time>2026-05-02T13:27:22Z</time></trkpt><trkpt lat="40.8897739805306" lon="8.954070957652965"><ele>272.0</ele><time>2026-05-02T13:27:23Z</time></trkpt><trkpt lat="40.88962658823189" lon="8.954090945319605"><ele>272.0</ele><time>2026-05-02T13:27:24Z</time></trkpt><trkpt lat="40.88949266368428" lon="8.954147817344534"><ele>272.0</ele><time>2026-05-02T13:27:25Z</time></trkpt><trkpt lat="40.88938596450373" lon="8.954242151571963"><ele>272.0</ele><time>2026-05-02T13:27:26Z</time></trkpt><trkpt lat="40.88928172866772" lon="8.954383222726811"><ele>275.6666666666667</ele><time>2026-05-02T13:27:27Z</time></trkpt><trkpt lat="40.88917751345615" lon="8.954521358267407"><ele>279.3333333333333</ele><time>2026-05-02T13:27:28Z</time></trkpt><trkpt lat="40.88905824446189" lon="8.954663529415534"><ele>283.0</ele><time>2026-05-02T13:27:29Z</time></trkpt><trkpt lat="40.88894213349854" lon="8.95480454021355"><ele>283.0</ele><time>2026-05-02T13:27:30Z</time></trkpt><trkpt lat="40.88883389450106" lon="8.954951170295697"><ele>283.0</ele><time>2026-05-02T13:27:31Z</time></trkpt><trkpt lat="40.888761526315136" lon="8.955119335078141"><ele>283.0</ele><time>2026-05-02T13:27:32Z</time></trkpt><trkpt lat="40.88875465313885" lon="8.955288957172927"><ele>283.0</ele><time>2026-05-02T13:27:33Z</time></trkpt><trkpt lat="40.88875353683324" lon="8.955448770453843"><ele>284.0</ele><time>2026-05-02T13:27:34Z</time></trkpt><trkpt lat="40.8887644586116" lon="8.955619901550577"><ele>285.0</ele><time>2026-05-02T13:27:35Z</time></trkpt><trkpt lat="40.8887865770751" lon="8.95579383050175"><ele>286.0</ele><time>2026-05-02T13:27:36Z</time></trkpt><trkpt lat="40.88881333447898" lon="8.955974262926588"><ele>287.0</ele><time>2026-05-02T13:27:37Z</time></trkpt><trkpt lat="40.88882692311267" lon="8.956154199307054"><ele>289.25</ele><time>2026-05-02T13:27:38Z</time></trkpt><trkpt lat="40.888861287471606" lon="8.956344065720291"><ele>291.5</ele><time>2026-05-02T13:27:39Z</time></trkpt><trkpt lat="40.888884145203484" lon="8.95654037841121"><ele>293.75</ele><time>2026-05-02T13:27:40Z</time></trkpt><trkpt lat="40.88890424229962" lon="8.956727582002525"><ele>296.0</ele><time>2026-05-02T13:27:41Z</time></trkpt><trkpt lat="40.888958290624274" lon="8.956905792997741"><ele>300.33333333333337</ele><time>2026-05-02T13:27:42Z</time></trkpt><trkpt lat="40.88901262627467" lon="8.957090576728095"><ele>304.6666666666667</ele><time>2026-05-02T13:27:43Z</time></trkpt><trkpt lat="40.889096294313234" lon="8.957267204769037"><ele>309.0</ele><time>2026-05-02T13:27:44Z</time></trkpt><trkpt lat="40.88919985067763" lon="8.957446072237342"><ele>307.3333333333333</ele><time>2026-05-02T13:27:45Z</time></trkpt><trkpt lat="40.88929896410281" lon="8.9576207557066"><ele>305.66666666666663</ele><time>2026-05-02T13:27:46Z</time></trkpt><trkpt lat="40.8893980800074" lon="8.957801273287693"><ele>304.0</ele><time>2026-05-02T13:27:47Z</time></trkpt><trkpt lat="40.88949774968331" lon="8.957986071076412"><ele>304.0</ele><time>2026-05-02T13:27:48Z</time></trkpt><trkpt lat="40.88960552873598" lon="8.958181804014737"><ele>304.0</ele><time>2026-05-02T13:27:49Z</time></trkpt><trkpt lat="40.88971150558939" lon="8.958372185748805"><ele>304.0</ele><time>2026-05-02T13:27:50Z</time></trkpt><trkpt lat="40.889813651180546" lon="8.958555030004804"><ele>306.0</ele><time>2026-05-02T13:27:51Z</time></trkpt><trkpt lat="40.889918513461225" lon="8.958734086262208"><ele>308.0</ele><time>2026-05-02T13:27:52Z</time></trkpt><trkpt lat="40.89001757202286" lon="8.958907857264665"><ele>310.0</ele><time>2026-05-02T13:27:53Z</time></trkpt><trkpt lat="40.89011456015659" lon="8.959079766487877"><ele>314.3333333333333</ele><time>2026-05-02T13:27:54Z</time></trkpt><trkpt lat="40.89020772819928" lon="8.959251858231175"><ele>318.6666666666667</ele><time>2026-05-02T13:27:55Z</time></trkpt><trkpt lat="40.89029767560879" lon="8.9594153361626"><ele>323.0</ele><time>2026-05-02T13:27:56Z</time></trkpt><trkpt lat="40.89039019300691" lon="8.95958263991681"><ele>323.0</ele><time>2026-05-02T13:27:57Z</time></trkpt><trkpt lat="40.89048053055698" lon="8.959739722156547"><ele>323.0</ele><time>2026-05-02T13:27:57.999Z</time></trkpt><trkpt lat="40.89056714313419" lon="8.95988967161094"><ele>323.0</ele><time>2026-05-02T13:27:58.999Z</time></trkpt><trkpt lat="40.89065068110682" lon="8.960041364518773"><ele>323.0</ele><time>2026-05-02T13:27:59.999Z</time></trkpt><trkpt lat="40.890726434856084" lon="8.960206675056565"><ele>322.0</ele><time>2026-05-02T13:28:00.999Z</time></trkpt><trkpt lat="40.89078903927754" lon="8.96038616735958"><ele>321.0</ele><time>2026-05-02T13:28:01.999Z</time></trkpt><trkpt lat="40.890843054702906" lon="8.960555217657136"><ele>320.0</ele><time>2026-05-02T13:28:02.999Z</time></trkpt><trkpt lat="40.890891751951536" lon="8.960700752899847"><ele>319.0</ele><time>2026-05-02T13:28:03.999Z</time></trkpt><trkpt lat="40.890931127909816" lon="8.9608486636753"><ele>318.25</ele><time>2026-05-02T13:28:04.999Z</time></trkpt><trkpt lat="40.890962013476596" lon="8.96101968657773"><ele>317.5</ele><time>2026-05-02T13:28:05.999Z</time></trkpt><trkpt lat="40.89098520302687" lon="8.96119538993302"><ele>316.75</ele><time>2026-05-02T13:28:06.999Z</time></trkpt><trkpt lat="40.89098878030808" lon="8.961376228782207"><ele>316.0</ele><time>2026-05-02T13:28:07.999Z</time></trkpt><trkpt lat="40.89098864003618" lon="8.96156646537585"><ele>316.0</ele><time>2026-05-02T13:28:08.999Z</time></trkpt><trkpt lat="40.89099501714642" lon="8.961759322484372"><ele>316.0</ele><time>2026-05-02T13:28:09.999Z</time></trkpt><trkpt lat="40.891001989043716" lon="8.961951987270545"><ele>316.0</ele><time>2026-05-02T13:28:10.999Z</time></trkpt><trkpt lat="40.891007019881215" lon="8.962138751617934"><ele>316.0</ele><time>2026-05-02T13:28:11.999Z</time></trkpt><trkpt lat="40.89100754821944" lon="8.962307473223403"><ele>316.0</ele><time>2026-05-02T13:28:12.999Z</time></trkpt><trkpt lat="40.89100999929265" lon="8.96246923285216"><ele>316.0</ele><time>2026-05-02T13:28:13.999Z</time></trkpt><trkpt lat="40.8910124255902" lon="8.96263024279445"><ele>316.0</ele><time>2026-05-02T13:28:14.999Z</time></trkpt><trkpt lat="40.891016671037505" lon="8.962802667544928"><ele>316.0</ele><time>2026-05-02T13:28:15.999Z</time></trkpt><trkpt lat="40.89101769629525" lon="8.962974239969178"><ele>316.0</ele><time>2026-05-02T13:28:16.999Z</time></trkpt><trkpt lat="40.89102243861837" lon="8.963132853942636"><ele>316.0</ele><time>2026-05-02T13:28:17.999Z</time></trkpt><trkpt lat="40.89103345211145" lon="8.963269518135862"><ele>316.0</ele><time>2026-05-02T13:28:18.999Z</time></trkpt><trkpt lat="40.89103915987204" lon="8.963392214667653"><ele>316.0</ele><time>2026-05-02T13:28:19.999Z</time></trkpt><trkpt lat="40.89104240264725" lon="8.963488971610543"><ele>316.0</ele><time>2026-05-02T13:28:20.999Z</time></trkpt><trkpt lat="40.891048251288176" lon="8.963586757670667"><ele>316.40000000000003</ele><time>2026-05-02T13:28:21.999Z</time></trkpt><trkpt lat="40.89104876379909" lon="8.963711024507967"><ele>316.8</ele><time>2026-05-02T13:28:23.999Z</time></trkpt><trkpt lat="40.89104352115288" lon="8.963832640515026"><ele>317.20000000000005</ele><time>2026-05-02T13:28:25.999Z</time></trkpt><trkpt lat="40.891060143314164" lon="8.963706502848138"><ele>317.6</ele><time>2026-05-02T13:28:33.999Z</time></trkpt><trkpt lat="40.891030652541936" lon="8.963562401612968"><ele>318.0</ele><time>2026-05-02T13:28:35.999Z</time></trkpt><trkpt lat="40.89097682379519" lon="8.963418225611354"><ele>318.0</ele><time>2026-05-02T13:28:37.999Z</time></trkpt><trkpt lat="40.89095627466218" lon="8.963337322153325"><ele>318.0</ele><time>2026-05-02T13:28:38.999Z</time></trkpt><trkpt lat="40.89090638742183" lon="8.96319268574164"><ele>318.0</ele><time>2026-05-02T13:28:40.999Z</time></trkpt><trkpt lat="40.890862436034745" lon="8.963080993088345"><ele>318.0</ele><time>2026-05-02T13:28:42.999Z</time></trkpt><trkpt lat="40.89090012791325" lon="8.963172531121065"><ele>318.0</ele><time>2026-05-02T13:29:55.999Z</time></trkpt><trkpt lat="40.8909178434231" lon="8.963263655589182"><ele>318.0</ele><time>2026-05-02T13:29:58.999Z</time></trkpt><trkpt lat="40.89105630574937" lon="8.96349063549468"><ele>318.0</ele><time>2026-05-02T13:29:59.999Z</time></trkpt><trkpt lat="40.89103121620047" lon="8.963596217998823"><ele>318.0</ele><time>2026-05-02T13:30:02.999Z</time></trkpt><trkpt lat="40.89103264538988" lon="8.96368196526575"><ele>318.0</ele><time>2026-05-02T13:30:04.999Z</time></trkpt><trkpt lat="40.89103297019733" lon="8.963777251225897"><ele>318.0</ele><time>2026-05-02T13:30:06.999Z</time></trkpt><trkpt lat="40.8910305545602" lon="8.963873394984544"><ele>318.0</ele><time>2026-05-02T13:30:08.999Z</time></trkpt><trkpt lat="40.891024495175095" lon="8.963973859619804"><ele>318.0</ele><time>2026-05-02T13:30:10.999Z</time></trkpt><trkpt lat="40.89101179696196" lon="8.964096046707931"><ele>318.0</ele><time>2026-05-02T13:30:12.999Z</time></trkpt><trkpt lat="40.89099927632016" lon="8.96420345352999"><ele>318.0</ele><time>2026-05-02T13:30:14.999Z</time></trkpt><trkpt lat="40.8909807424422" lon="8.964313167732758"><ele>318.0</ele><time>2026-05-02T13:30:18.999Z</time></trkpt><trkpt lat="40.89099966355431" lon="8.964201161954765"><ele>318.0</ele><time>2026-05-02T13:30:54.999Z</time></trkpt><trkpt lat="40.89101176878579" lon="8.964096456659712"><ele>318.0</ele><time>2026-05-02T13:30:57Z</time></trkpt><trkpt lat="40.891024443797974" lon="8.963985232512787"><ele>318.0</ele><time>2026-05-02T13:30:59Z</time></trkpt><trkpt lat="40.89103100527705" lon="8.96386236539414"><ele>318.0</ele><time>2026-05-02T13:31:01Z</time></trkpt><trkpt lat="40.89103309154852" lon="8.963766443875457"><ele>318.0</ele><time>2026-05-02T13:31:03Z</time></trkpt><trkpt lat="40.89103451948854" lon="8.963639230373811"><ele>318.0</ele><time>2026-05-02T13:31:06Z</time></trkpt><trkpt lat="40.890987404221384" lon="8.963461095547261"><ele>318.0</ele><time>2026-05-02T13:31:07Z</time></trkpt><trkpt lat="40.89095922397872" lon="8.963348933582134"><ele>318.0</ele><time>2026-05-02T13:31:10Z</time></trkpt><trkpt lat="40.89088565799768" lon="8.963332748280925"><ele>321.8333333333333</ele><time>2026-05-02T13:31:12Z</time></trkpt><trkpt lat="40.89087071378225" lon="8.963240118112981"><ele>325.6666666666667</ele><time>2026-05-02T13:31:14Z</time></trkpt><trkpt lat="40.890880085100406" lon="8.963138853054993"><ele>329.5</ele><time>2026-05-02T13:31:16Z</time></trkpt><trkpt lat="40.890889604645636" lon="8.963037748301169"><ele>333.33333333333337</ele><time>2026-05-02T13:31:18Z</time></trkpt><trkpt lat="40.89088635059509" lon="8.962937315270315"><ele>337.1666666666667</ele><time>2026-05-02T13:31:20Z</time></trkpt><trkpt lat="40.89089961518654" lon="8.96278108285522"><ele>341.0</ele><time>2026-05-02T13:31:34Z</time></trkpt><trkpt lat="40.8908901091405" lon="8.96267888516259"><ele>341.0</ele><time>2026-05-02T13:31:35Z</time></trkpt><trkpt lat="40.890869285188046" lon="8.962586257537872"><ele>341.0</ele><time>2026-05-02T13:31:36Z</time></trkpt><trkpt lat="40.890821064774755" lon="8.96249275296156"><ele>341.0</ele><time>2026-05-02T13:31:37Z</time></trkpt><trkpt lat="40.89078498721383" lon="8.962385256207282"><ele>341.0</ele><time>2026-05-02T13:31:38Z</time></trkpt><trkpt lat="40.89073079641289" lon="8.96228069056604"><ele>341.0</ele><time>2026-05-02T13:31:38.999Z</time></trkpt><trkpt lat="40.890679647725754" lon="8.96216964527573"><ele>341.0</ele><time>2026-05-02T13:31:39.999Z</time></trkpt><trkpt lat="40.890634173997064" lon="8.962066885352677"><ele>340.1666666666667</ele><time>2026-05-02T13:31:40.999Z</time></trkpt><trkpt lat="40.890598789054444" lon="8.961971936822223"><ele>339.33333333333337</ele><time>2026-05-02T13:31:41.999Z</time></trkpt><trkpt lat="40.89056772637804" lon="8.96188246768396"><ele>338.5</ele><time>2026-05-02T13:31:43.999Z</time></trkpt><trkpt lat="40.89054127518218" lon="8.961806284130255"><ele>337.6666666666667</ele><time>2026-05-02T13:31:51.999Z</time></trkpt><trkpt lat="40.89058055672462" lon="8.961919422691745"><ele>336.8333333333333</ele><time>2026-05-02T13:31:59.999Z</time></trkpt><trkpt lat="40.89061316039395" lon="8.962013329204634"><ele>336.0</ele><time>2026-05-02T13:32:52.999Z</time></trkpt><trkpt lat="40.890643567815516" lon="8.962152352806644"><ele>336.0</ele><time>2026-05-02T13:32:53.999Z</time></trkpt><trkpt lat="40.89071613879919" lon="8.962251706640789"><ele>336.0</ele><time>2026-05-02T13:32:54.999Z</time></trkpt><trkpt lat="40.89076632832645" lon="8.96235782246696"><ele>336.0</ele><time>2026-05-02T13:32:55.999Z</time></trkpt><trkpt lat="40.89082387567833" lon="8.96245834975496"><ele>336.0</ele><time>2026-05-02T13:32:56.999Z</time></trkpt><trkpt lat="40.89087589645014" lon="8.96255613925928"><ele>336.0</ele><time>2026-05-02T13:32:57.999Z</time></trkpt><trkpt lat="40.890904250873305" lon="8.962668672499795"><ele>337.0</ele><time>2026-05-02T13:32:58.999Z</time></trkpt><trkpt lat="40.890914302188605" lon="8.962789491077915"><ele>338.0</ele><time>2026-05-02T13:32:59.999Z</time></trkpt><trkpt lat="40.890900763866696" lon="8.962907558311482"><ele>339.0</ele><time>2026-05-02T13:33:00.999Z</time></trkpt><trkpt lat="40.89090580827059" lon="8.963028591915695"><ele>340.0</ele><time>2026-05-02T13:33:01.999Z</time></trkpt><trkpt lat="40.890862450899036" lon="8.963132861361702"><ele>341.0</ele><time>2026-05-02T13:33:03Z</time></trkpt><trkpt lat="40.89090085938395" lon="8.963252818369975"><ele>336.40000000000003</ele><time>2026-05-02T13:33:05Z</time></trkpt><trkpt lat="40.89097375958249" lon="8.963375518340522"><ele>331.8</ele><time>2026-05-02T13:33:07Z</time></trkpt><trkpt lat="40.89098841984347" lon="8.963463872662462"><ele>327.20000000000005</ele><time>2026-05-02T13:33:08Z</time></trkpt><trkpt lat="40.891020819725384" lon="8.96361521391036"><ele>322.6</ele><time>2026-05-02T13:33:10Z</time></trkpt><trkpt lat="40.89110652639213" lon="8.963642751858147"><ele>318.0</ele><time>2026-05-02T13:33:13Z</time></trkpt><trkpt lat="40.8910564506636" lon="8.963758884312208"><ele>318.0</ele><time>2026-05-02T13:33:14Z</time></trkpt><trkpt lat="40.891045854037245" lon="8.96384171331811"><ele>318.0</ele><time>2026-05-02T13:33:16Z</time></trkpt><trkpt lat="40.89103578291923" lon="8.96396051303545"><ele>318.0</ele><time>2026-05-02T13:33:19Z</time></trkpt><trkpt lat="40.8910256412775" lon="8.964058905565187"><ele>318.0</ele><time>2026-05-02T13:33:22Z</time></trkpt><trkpt lat="40.89102509957689" lon="8.96414676897935"><ele>318.0</ele><time>2026-05-02T13:33:25Z</time></trkpt><trkpt lat="40.89101046801588" lon="8.964245208107663"><ele>318.0</ele><time>2026-05-02T13:33:30Z</time></trkpt><trkpt lat="40.89098649199319" lon="8.964450137416534"><ele>321.25</ele><time>2026-05-02T13:34:06Z</time></trkpt><trkpt lat="40.89096893780814" lon="8.964593050534829"><ele>324.5</ele><time>2026-05-02T13:34:07Z</time></trkpt><trkpt lat="40.89095723224794" lon="8.964749831953336"><ele>327.75</ele><time>2026-05-02T13:34:08Z</time></trkpt><trkpt lat="40.89098957738595" lon="8.964900857132411"><ele>331.0</ele><time>2026-05-02T13:34:09Z</time></trkpt><trkpt lat="40.89105319882821" lon="8.965017458032827"><ele>336.0</ele><time>2026-05-02T13:34:10Z</time></trkpt><trkpt lat="40.89111407724624" lon="8.96513059040484"><ele>341.0</ele><time>2026-05-02T13:34:11Z</time></trkpt><trkpt lat="40.891188017613764" lon="8.965212652866489"><ele>346.0</ele><time>2026-05-02T13:34:12Z</time></trkpt><trkpt lat="40.891294956655294" lon="8.965279010123918"><ele>351.0</ele><time>2026-05-02T13:34:13Z</time></trkpt><trkpt lat="40.8914125939361" lon="8.965278066999664"><ele>356.0</ele><time>2026-05-02T13:34:14Z</time></trkpt><trkpt lat="40.89150911720387" lon="8.96522031970406"><ele>356.0</ele><time>2026-05-02T13:34:15Z</time></trkpt><trkpt lat="40.8916073721516" lon="8.965163087741441"><ele>356.0</ele><time>2026-05-02T13:34:16Z</time></trkpt><trkpt lat="40.89171823451767" lon="8.965117872636931"><ele>356.0</ele><time>2026-05-02T13:34:17Z</time></trkpt><trkpt lat="40.89184853769319" lon="8.965092605534016"><ele>356.0</ele><time>2026-05-02T13:34:18Z</time></trkpt><trkpt lat="40.891979054152785" lon="8.965101617351609"><ele>354.25</ele><time>2026-05-02T13:34:19Z</time></trkpt><trkpt lat="40.89209974178073" lon="8.965160534611716"><ele>352.5</ele><time>2026-05-02T13:34:20Z</time></trkpt><trkpt lat="40.89221552043366" lon="8.965245573859324"><ele>350.75</ele><time>2026-05-02T13:34:21Z</time></trkpt><trkpt lat="40.89233503397327" lon="8.96534274442491"><ele>349.0</ele><time>2026-05-02T13:34:22Z</time></trkpt><trkpt lat="40.89245258958689" lon="8.965432505807529"><ele>349.0</ele><time>2026-05-02T13:34:23Z</time></trkpt><trkpt lat="40.89257076011723" lon="8.9655033028054"><ele>349.0</ele><time>2026-05-02T13:34:24Z</time></trkpt><trkpt lat="40.89267823008571" lon="8.965534428645057"><ele>349.0</ele><time>2026-05-02T13:34:25Z</time></trkpt><trkpt lat="40.89278205450113" lon="8.965570345316113"><ele>349.0</ele><time>2026-05-02T13:34:26Z</time></trkpt><trkpt lat="40.8928973951956" lon="8.965598093859445"><ele>349.5</ele><time>2026-05-02T13:34:27Z</time></trkpt><trkpt lat="40.893029647999505" lon="8.965612782939555"><ele>350.0</ele><time>2026-05-02T13:34:28Z</time></trkpt><trkpt lat="40.89316207517255" lon="8.965619010935942"><ele>350.5</ele><time>2026-05-02T13:34:29Z</time></trkpt><trkpt lat="40.893298873846135" lon="8.965625976422045"><ele>351.0</ele><time>2026-05-02T13:34:30Z</time></trkpt><trkpt lat="40.893426550240335" lon="8.965649581769362"><ele>347.25</ele><time>2026-05-02T13:34:31Z</time></trkpt><trkpt lat="40.893542668404955" lon="8.965712364554127"><ele>343.5</ele><time>2026-05-02T13:34:32Z</time></trkpt><trkpt lat="40.89363665040665" lon="8.96580976617908"><ele>339.75</ele><time>2026-05-02T13:34:33Z</time></trkpt><trkpt lat="40.893686587101605" lon="8.965975450050452"><ele>336.0</ele><time>2026-05-02T13:34:34Z</time></trkpt><trkpt lat="40.89375180818537" lon="8.966126800241614"><ele>336.0</ele><time>2026-05-02T13:34:35Z</time></trkpt><trkpt lat="40.89379095590483" lon="8.966307303214407"><ele>336.0</ele><time>2026-05-02T13:34:36Z</time></trkpt><trkpt lat="40.893802534477196" lon="8.966503043924005"><ele>336.0</ele><time>2026-05-02T13:34:37Z</time></trkpt><trkpt lat="40.89383612222774" lon="8.966696941747122"><ele>336.0</ele><time>2026-05-02T13:34:38Z</time></trkpt><trkpt lat="40.8938526887361" lon="8.966897656888165"><ele>337.5</ele><time>2026-05-02T13:34:39Z</time></trkpt><trkpt lat="40.89388014671931" lon="8.967083873582217"><ele>339.0</ele><time>2026-05-02T13:34:40Z</time></trkpt><trkpt lat="40.89392027983228" lon="8.967262196269326"><ele>340.5</ele><time>2026-05-02T13:34:41Z</time></trkpt><trkpt lat="40.8939588302335" lon="8.967434156156228"><ele>342.0</ele><time>2026-05-02T13:34:42Z</time></trkpt><trkpt lat="40.89399023716107" lon="8.967593677055183"><ele>344.0</ele><time>2026-05-02T13:34:43Z</time></trkpt><trkpt lat="40.89401665000368" lon="8.967759079916608"><ele>346.0</ele><time>2026-05-02T13:34:44Z</time></trkpt><trkpt lat="40.89403136290542" lon="8.967921415953832"><ele>348.0</ele><time>2026-05-02T13:34:45Z</time></trkpt><trkpt lat="40.894034863668324" lon="8.968093379943973"><ele>350.0</ele><time>2026-05-02T13:34:46Z</time></trkpt><trkpt lat="40.894026966789376" lon="8.968273935123712"><ele>350.5</ele><time>2026-05-02T13:34:47Z</time></trkpt><trkpt lat="40.89401270293645" lon="8.96846615493408"><ele>351.0</ele><time>2026-05-02T13:34:48Z</time></trkpt><trkpt lat="40.89399952576002" lon="8.96865599360321"><ele>351.5</ele><time>2026-05-02T13:34:49Z</time></trkpt><trkpt lat="40.89399202498236" lon="8.968845406544661"><ele>352.0</ele><time>2026-05-02T13:34:50Z</time></trkpt><trkpt lat="40.89398575923234" lon="8.969039756760406"><ele>349.5</ele><time>2026-05-02T13:34:51Z</time></trkpt><trkpt lat="40.89397747227754" lon="8.969228948954308"><ele>347.0</ele><time>2026-05-02T13:34:52Z</time></trkpt><trkpt lat="40.8939601379497" lon="8.969398540546676"><ele>344.5</ele><time>2026-05-02T13:34:53Z</time></trkpt><trkpt lat="40.893876441832894" lon="8.969542837159276"><ele>342.0</ele><time>2026-05-02T13:34:54Z</time></trkpt><trkpt lat="40.893784440097036" lon="8.96968015172158"><ele>342.0</ele><time>2026-05-02T13:34:55Z</time></trkpt><trkpt lat="40.89368718904641" lon="8.969806654295425"><ele>342.0</ele><time>2026-05-02T13:34:56Z</time></trkpt><trkpt lat="40.893574532518215" lon="8.9699515324532"><ele>342.0</ele><time>2026-05-02T13:34:57Z</time></trkpt><trkpt lat="40.89345189539119" lon="8.970107226220597"><ele>346.3333333333333</ele><time>2026-05-02T13:34:58Z</time></trkpt><trkpt lat="40.89333540523442" lon="8.970257035790896"><ele>350.66666666666663</ele><time>2026-05-02T13:34:59Z</time></trkpt><trkpt lat="40.89323138372236" lon="8.970412138990367"><ele>355.0</ele><time>2026-05-02T13:35:00Z</time></trkpt><trkpt lat="40.8931170701165" lon="8.97053031396233"><ele>355.0</ele><time>2026-05-02T13:35:01Z</time></trkpt><trkpt lat="40.892996719520156" lon="8.970574327300127"><ele>355.0</ele><time>2026-05-02T13:35:02Z</time></trkpt><trkpt lat="40.892877632173295" lon="8.97059986796318"><ele>355.0</ele><time>2026-05-02T13:35:03Z</time></trkpt><trkpt lat="40.89274481341636" lon="8.970583160769532"><ele>355.0</ele><time>2026-05-02T13:35:04Z</time></trkpt><trkpt lat="40.89260522526296" lon="8.970564708167938"><ele>357.2</ele><time>2026-05-02T13:35:05Z</time></trkpt><trkpt lat="40.89247302244367" lon="8.970561049542594"><ele>359.4</ele><time>2026-05-02T13:35:06Z</time></trkpt><trkpt lat="40.89235546398504" lon="8.970599820942525"><ele>361.6</ele><time>2026-05-02T13:35:07Z</time></trkpt><trkpt lat="40.8922750204384" lon="8.970637808267018"><ele>363.8</ele><time>2026-05-02T13:35:08Z</time></trkpt><trkpt lat="40.89218687700206" lon="8.970711312429403"><ele>366.0</ele><time>2026-05-02T13:35:09Z</time></trkpt><trkpt lat="40.89212422963467" lon="8.970804030205166"><ele>366.0</ele><time>2026-05-02T13:35:10Z</time></trkpt><trkpt lat="40.892086788349054" lon="8.970876426381878"><ele>366.0</ele><time>2026-05-02T13:35:11Z</time></trkpt><trkpt lat="40.89207339237031" lon="8.970976294139685"><ele>366.0</ele><time>2026-05-02T13:35:14Z</time></trkpt><trkpt lat="40.89201848257592" lon="8.97083417508306"><ele>366.0</ele><time>2026-05-02T13:35:23Z</time></trkpt><trkpt lat="40.891991913546654" lon="8.970734089286575"><ele>366.0</ele><time>2026-05-02T13:35:24Z</time></trkpt><trkpt lat="40.89195023901132" lon="8.970637864975895"><ele>366.0</ele><time>2026-05-02T13:35:25Z</time></trkpt><trkpt lat="40.89190068495319" lon="8.970486220597026"><ele>366.0</ele><time>2026-05-02T13:35:27Z</time></trkpt><trkpt lat="40.89185405475322" lon="8.97040558961057"><ele>366.0</ele><time>2026-05-02T13:35:28Z</time></trkpt><trkpt lat="40.891819515905866" lon="8.97031303182644"><ele>366.0</ele><time>2026-05-02T13:35:29Z</time></trkpt><trkpt lat="40.89177446334958" lon="8.970232801246564"><ele>366.0</ele><time>2026-05-02T13:35:30Z</time></trkpt><trkpt lat="40.891725836498296" lon="8.970147840788266"><ele>366.0</ele><time>2026-05-02T13:35:31Z</time></trkpt><trkpt lat="40.89166125885329" lon="8.970036342790635"><ele>366.0</ele><time>2026-05-02T13:35:32Z</time></trkpt><trkpt lat="40.89159026355629" lon="8.969921836289053"><ele>371.0</ele><time>2026-05-02T13:35:33Z</time></trkpt><trkpt lat="40.89151374137143" lon="8.969812510405573"><ele>376.0</ele><time>2026-05-02T13:35:34Z</time></trkpt><trkpt lat="40.89142453829509" lon="8.969716837845189"><ele>381.0</ele><time>2026-05-02T13:35:35Z</time></trkpt><trkpt lat="40.89134145376785" lon="8.969640067441103"><ele>386.0</ele><time>2026-05-02T13:35:36Z</time></trkpt><trkpt lat="40.89126313976857" lon="8.969569144888787"><ele>391.0</ele><time>2026-05-02T13:35:37Z</time></trkpt><trkpt lat="40.89118705407015" lon="8.969497391682657"><ele>391.0</ele><time>2026-05-02T13:35:38Z</time></trkpt><trkpt lat="40.891130879862516" lon="8.96942017024497"><ele>391.0</ele><time>2026-05-02T13:35:39Z</time></trkpt><trkpt lat="40.89112026321945" lon="8.96933767332286"><ele>391.0</ele><time>2026-05-02T13:35:40Z</time></trkpt><trkpt lat="40.89108461881749" lon="8.969151728252124"><ele>391.0</ele><time>2026-05-02T13:35:42Z</time></trkpt><trkpt lat="40.891030456205115" lon="8.969051718929459"><ele>391.0</ele><time>2026-05-02T13:35:43Z</time></trkpt><trkpt lat="40.89095044939525" lon="8.968981402064097"><ele>393.0</ele><time>2026-05-02T13:35:44Z</time></trkpt><trkpt lat="40.890887341862026" lon="8.96887240726511"><ele>395.0</ele><time>2026-05-02T13:35:45Z</time></trkpt><trkpt lat="40.890812571960275" lon="8.968781488886062"><ele>397.0</ele><time>2026-05-02T13:35:46Z</time></trkpt><trkpt lat="40.890723517360385" lon="8.968716401545011"><ele>399.0</ele><time>2026-05-02T13:35:47Z</time></trkpt><trkpt lat="40.89065778134797" lon="8.968622492130951"><ele>401.0</ele><time>2026-05-02T13:35:48Z</time></trkpt><trkpt lat="40.89059642149564" lon="8.968545466729818"><ele>400.99999999999994</ele><time>2026-05-02T13:35:49Z</time></trkpt><trkpt lat="40.890559346028994" lon="8.96846980220044"><ele>401.0</ele><time>2026-05-02T13:35:50Z</time></trkpt><trkpt lat="40.8905107870964" lon="8.968297791993502"><ele>401.0</ele><time>2026-05-02T13:35:52Z</time></trkpt><trkpt lat="40.89045544467538" lon="8.968211018310871"><ele>401.0</ele><time>2026-05-02T13:35:53Z</time></trkpt><trkpt lat="40.890415865702636" lon="8.968142610538417"><ele>400.99999999999994</ele><time>2026-05-02T13:35:54Z</time></trkpt><trkpt lat="40.890372725554" lon="8.96806772866494"><ele>401.0</ele><time>2026-05-02T13:35:58Z</time></trkpt><trkpt lat="40.89023856642543" lon="8.968146357299425"><ele>401.66666666666663</ele><time>2026-05-02T13:36:00Z</time></trkpt><trkpt lat="40.8901762398622" lon="8.968259560437366"><ele>402.3333333333333</ele><time>2026-05-02T13:36:02Z</time></trkpt><trkpt lat="40.890137096738776" lon="8.968327392872007"><ele>403.0</ele><time>2026-05-02T13:36:03Z</time></trkpt><trkpt lat="40.89008918400395" lon="8.968384568819427"><ele>403.66666666666663</ele><time>2026-05-02T13:36:04Z</time></trkpt><trkpt lat="40.890028921429774" lon="8.968450292153461"><ele>404.3333333333333</ele><time>2026-05-02T13:36:05Z</time></trkpt><trkpt lat="40.88996136278867" lon="8.968519914091416"><ele>405.0</ele><time>2026-05-02T13:36:06Z</time></trkpt><trkpt lat="40.88989652815839" lon="8.96859065118846"><ele>407.0</ele><time>2026-05-02T13:36:07Z</time></trkpt><trkpt lat="40.889838144102285" lon="8.968676157341012"><ele>409.0</ele><time>2026-05-02T13:36:08Z</time></trkpt><trkpt lat="40.889780092696" lon="8.968758110829851"><ele>411.0</ele><time>2026-05-02T13:36:09Z</time></trkpt><trkpt lat="40.88970338033186" lon="8.968848529786776"><ele>413.0</ele><time>2026-05-02T13:36:10Z</time></trkpt><trkpt lat="40.889635540250545" lon="8.968903574226813"><ele>415.0</ele><time>2026-05-02T13:36:11Z</time></trkpt><trkpt lat="40.88953937992167" lon="8.968880668000647"><ele>415.0</ele><time>2026-05-02T13:36:13Z</time></trkpt><trkpt lat="40.889499168980265" lon="8.968782637301729"><ele>415.0</ele><time>2026-05-02T13:36:15Z</time></trkpt><trkpt lat="40.88950323611192" lon="8.968680629554118"><ele>415.0</ele><time>2026-05-02T13:36:17Z</time></trkpt><trkpt lat="40.88945606667184" lon="8.96853580678358"><ele>415.0</ele><time>2026-05-02T13:36:19Z</time></trkpt><trkpt lat="40.889401888901354" lon="8.968438214991693"><ele>415.0</ele><time>2026-05-02T13:36:20Z</time></trkpt><trkpt lat="40.88933004816276" lon="8.968329479406417"><ele>418.4</ele><time>2026-05-02T13:36:21Z</time></trkpt><trkpt lat="40.88923109124687" lon="8.96827288622494"><ele>421.8</ele><time>2026-05-02T13:36:23Z</time></trkpt><trkpt lat="40.88921034866254" lon="8.968354400151835"><ele>425.20000000000005</ele><time>2026-05-02T13:36:25Z</time></trkpt><trkpt lat="40.88923253295234" lon="8.968488277379944"><ele>428.6</ele><time>2026-05-02T13:36:27Z</time></trkpt><trkpt lat="40.88925451508457" lon="8.968612377784837"><ele>432.0</ele><time>2026-05-02T13:36:29Z</time></trkpt><trkpt lat="40.88919216378105" lon="8.968745372732963"><ele>432.20000000000005</ele><time>2026-05-02T13:36:31Z</time></trkpt><trkpt lat="40.88914256145768" lon="8.968829894424987"><ele>432.40000000000003</ele><time>2026-05-02T13:36:32Z</time></trkpt><trkpt lat="40.88908077178126" lon="8.968911068294538"><ele>432.59999999999997</ele><time>2026-05-02T13:36:33Z</time></trkpt><trkpt lat="40.889003897826846" lon="8.968948298931515"><ele>432.79999999999995</ele><time>2026-05-02T13:36:34Z</time></trkpt><trkpt lat="40.888908921143276" lon="8.968958068598063"><ele>433.0</ele><time>2026-05-02T13:36:35Z</time></trkpt><trkpt lat="40.88879257682455" lon="8.96895872456946"><ele>433.0</ele><time>2026-05-02T13:36:36Z</time></trkpt><trkpt lat="40.88868356580009" lon="8.968913067995521"><ele>432.99999999999994</ele><time>2026-05-02T13:36:37Z</time></trkpt><trkpt lat="40.888587908401874" lon="8.968883284558936"><ele>432.99999999999994</ele><time>2026-05-02T13:36:38Z</time></trkpt><trkpt lat="40.88851119493609" lon="8.968877671653907"><ele>433.0</ele><time>2026-05-02T13:36:39Z</time></trkpt><trkpt lat="40.88844246797859" lon="8.968894867599083"><ele>433.0</ele><time>2026-05-02T13:36:40Z</time></trkpt><trkpt lat="40.8883527152789" lon="8.96892368989127"><ele>435.0</ele><time>2026-05-02T13:36:41Z</time></trkpt><trkpt lat="40.88823458226028" lon="8.968965227983322"><ele>436.99999999999994</ele><time>2026-05-02T13:36:42Z</time></trkpt><trkpt lat="40.88813469810786" lon="8.968998150170869"><ele>438.99999999999994</ele><time>2026-05-02T13:36:43Z</time></trkpt><trkpt lat="40.8880357602327" lon="8.969024207599647"><ele>441.0</ele><time>2026-05-02T13:36:44Z</time></trkpt><trkpt lat="40.88793867228455" lon="8.9690500573358"><ele>443.0</ele><time>2026-05-02T13:36:45Z</time></trkpt><trkpt lat="40.88784795555187" lon="8.969079004487876"><ele>442.99999999999994</ele><time>2026-05-02T13:36:46Z</time></trkpt><trkpt lat="40.88776913192736" lon="8.969099716159956"><ele>443.0</ele><time>2026-05-02T13:36:47Z</time></trkpt><trkpt lat="40.88768793527888" lon="8.969123238112557"><ele>443.0</ele><time>2026-05-02T13:36:48Z</time></trkpt><trkpt lat="40.88761889131835" lon="8.969159117822507"><ele>443.0</ele><time>2026-05-02T13:36:49Z</time></trkpt><trkpt lat="40.88754899839204" lon="8.96920347663449"><ele>442.99999999999994</ele><time>2026-05-02T13:36:50Z</time></trkpt><trkpt lat="40.887481220294866" lon="8.969257845520358"><ele>443.0</ele><time>2026-05-02T13:36:52Z</time></trkpt><trkpt lat="40.88736978751252" lon="8.96920714730791"><ele>444.49999999999994</ele><time>2026-05-02T13:37:07Z</time></trkpt><trkpt lat="40.88732585893121" lon="8.96913381226871"><ele>446.0</ele><time>2026-05-02T13:37:08Z</time></trkpt><trkpt lat="40.88730013230141" lon="8.969036407232528"><ele>447.5</ele><time>2026-05-02T13:37:09Z</time></trkpt><trkpt lat="40.88728336110416" lon="8.968925499074208"><ele>449.0</ele><time>2026-05-02T13:37:10Z</time></trkpt><trkpt lat="40.887264692590875" lon="8.968822465098029"><ele>450.49999999999994</ele><time>2026-05-02T13:37:11Z</time></trkpt><trkpt lat="40.88723188480384" lon="8.968705288113036"><ele>452.0</ele><time>2026-05-02T13:37:12Z</time></trkpt><trkpt lat="40.88718776611771" lon="8.968612406002634"><ele>452.0</ele><time>2026-05-02T13:37:13Z</time></trkpt><trkpt lat="40.8871435601635" lon="8.968510516959293"><ele>452.00000000000006</ele><time>2026-05-02T13:37:13.999Z</time></trkpt><trkpt lat="40.88708447315491" lon="8.968388105690966"><ele>452.00000000000006</ele><time>2026-05-02T13:37:15Z</time></trkpt><trkpt lat="40.88700735001928" lon="8.968296737842895"><ele>452.0</ele><time>2026-05-02T13:37:16Z</time></trkpt><trkpt lat="40.88692269983907" lon="8.968211912351245"><ele>452.0</ele><time>2026-05-02T13:37:17Z</time></trkpt><trkpt lat="40.88682260939812" lon="8.968144651412793"><ele>452.40000000000003</ele><time>2026-05-02T13:37:18Z</time></trkpt><trkpt lat="40.88673975699767" lon="8.96807591018248"><ele>452.80000000000007</ele><time>2026-05-02T13:37:19Z</time></trkpt><trkpt lat="40.88669065754663" lon="8.967987493084387"><ele>453.2</ele><time>2026-05-02T13:37:20Z</time></trkpt><trkpt lat="40.886626825991456" lon="8.967869120249384"><ele>453.6</ele><time>2026-05-02T13:37:21Z</time></trkpt><trkpt lat="40.88656099290614" lon="8.967791093524072"><ele>454.0</ele><time>2026-05-02T13:37:22Z</time></trkpt><trkpt lat="40.8864770494278" lon="8.967731730915384"><ele>454.0</ele><time>2026-05-02T13:37:23Z</time></trkpt><trkpt lat="40.886391547922386" lon="8.967654264473783"><ele>454.0</ele><time>2026-05-02T13:37:24Z</time></trkpt><trkpt lat="40.886319238953064" lon="8.96756805042121"><ele>454.0</ele><time>2026-05-02T13:37:25Z</time></trkpt><trkpt lat="40.886256285560094" lon="8.967499837060394"><ele>454.0</ele><time>2026-05-02T13:37:26Z</time></trkpt><trkpt lat="40.886182389638954" lon="8.967462475179083"><ele>454.0</ele><time>2026-05-02T13:37:27Z</time></trkpt><trkpt lat="40.88605985711784" lon="8.967495960372192"><ele>454.50000000000006</ele><time>2026-05-02T13:37:29Z</time></trkpt><trkpt lat="40.885983645063526" lon="8.967499965612642"><ele>455.0</ele><time>2026-05-02T13:37:30Z</time></trkpt><trkpt lat="40.88590683196739" lon="8.96745992739354"><ele>455.5</ele><time>2026-05-02T13:37:31Z</time></trkpt><trkpt lat="40.88583442156058" lon="8.967413982826358"><ele>456.0</ele><time>2026-05-02T13:37:32Z</time></trkpt><trkpt lat="40.885746509465704" lon="8.967371492177259"><ele>456.50000000000006</ele><time>2026-05-02T13:37:33Z</time></trkpt><trkpt lat="40.885637875648364" lon="8.967355595817372"><ele>457.0</ele><time>2026-05-02T13:37:34Z</time></trkpt><trkpt lat="40.885528811730204" lon="8.96733788208846"><ele>457.0</ele><time>2026-05-02T13:37:35Z</time></trkpt><trkpt lat="40.88542085422206" lon="8.967296378508774"><ele>457.00000000000006</ele><time>2026-05-02T13:37:36Z</time></trkpt><trkpt lat="40.88532424050018" lon="8.967250857564022"><ele>457.00000000000006</ele><time>2026-05-02T13:37:37Z</time></trkpt><trkpt lat="40.88523803390111" lon="8.967217198941468"><ele>457.0</ele><time>2026-05-02T13:37:38Z</time></trkpt><trkpt lat="40.88514631553162" lon="8.967195825844424"><ele>457.0</ele><time>2026-05-02T13:37:39Z</time></trkpt><trkpt lat="40.885052382927775" lon="8.967187729886037"><ele>456.00000000000006</ele><time>2026-05-02T13:37:40Z</time></trkpt><trkpt lat="40.88496111003189" lon="8.967185905438056"><ele>455.0</ele><time>2026-05-02T13:37:41Z</time></trkpt><trkpt lat="40.884885972870855" lon="8.967206427189153"><ele>454.0</ele><time>2026-05-02T13:37:42Z</time></trkpt><trkpt lat="40.88479972852112" lon="8.967310826365047"><ele>453.0</ele><time>2026-05-02T13:37:44Z</time></trkpt><trkpt lat="40.88475693842316" lon="8.967387522061095"><ele>452.00000000000006</ele><time>2026-05-02T13:37:45Z</time></trkpt><trkpt lat="40.88471264301426" lon="8.967481083186296"><ele>451.0</ele><time>2026-05-02T13:37:46Z</time></trkpt><trkpt lat="40.8846694644714" lon="8.967572855658505"><ele>449.4</ele><time>2026-05-02T13:37:47Z</time></trkpt><trkpt lat="40.88462775253832" lon="8.967669095446478"><ele>447.8</ele><time>2026-05-02T13:37:48Z</time></trkpt><trkpt lat="40.884584037670784" lon="8.967759985371323"><ele>446.19999999999993</ele><time>2026-05-02T13:37:49Z</time></trkpt><trkpt lat="40.884512762876795" lon="8.967851600467204"><ele>444.59999999999997</ele><time>2026-05-02T13:37:51Z</time></trkpt><trkpt lat="40.88446539875281" lon="8.967962456146678"><ele>443.0</ele><time>2026-05-02T13:37:53Z</time></trkpt><trkpt lat="40.884456741874864" lon="8.968109302005047"><ele>443.0</ele><time>2026-05-02T13:37:55Z</time></trkpt><trkpt lat="40.88445756884995" lon="8.968245148155507"><ele>442.99999999999994</ele><time>2026-05-02T13:37:57Z</time></trkpt><trkpt lat="40.8844329796405" lon="8.968339800821298"><ele>442.99999999999994</ele><time>2026-05-02T13:37:59Z</time></trkpt><trkpt lat="40.88436893277033" lon="8.968380919138127"><ele>443.0</ele><time>2026-05-02T13:38:01Z</time></trkpt><trkpt lat="40.884260257868085" lon="8.968356279135199"><ele>443.0</ele><time>2026-05-02T13:38:03Z</time></trkpt><trkpt lat="40.884152785797596" lon="8.96832612589179"><ele>441.0</ele><time>2026-05-02T13:38:05Z</time></trkpt><trkpt lat="40.884046801987445" lon="8.968344901168322"><ele>438.99999999999994</ele><time>2026-05-02T13:38:07Z</time></trkpt><trkpt lat="40.88395741962777" lon="8.968378582898193"><ele>436.99999999999994</ele><time>2026-05-02T13:38:09Z</time></trkpt><trkpt lat="40.88385919555311" lon="8.968391722292562"><ele>435.0</ele><time>2026-05-02T13:38:11Z</time></trkpt><trkpt lat="40.883762169281304" lon="8.968360438793054"><ele>433.0</ele><time>2026-05-02T13:38:13Z</time></trkpt><trkpt lat="40.88370332032536" lon="8.968272422509514"><ele>433.0</ele><time>2026-05-02T13:38:15Z</time></trkpt><trkpt lat="40.88361982106747" lon="8.968246375833903"><ele>432.99999999999994</ele><time>2026-05-02T13:38:17Z</time></trkpt><trkpt lat="40.883508450610755" lon="8.968289091644705"><ele>432.99999999999994</ele><time>2026-05-02T13:38:19Z</time></trkpt><trkpt lat="40.88338809697099" lon="8.968368279626869"><ele>433.0</ele><time>2026-05-02T13:38:21Z</time></trkpt><trkpt lat="40.883321798990934" lon="8.96839957569982"><ele>433.0</ele><time>2026-05-02T13:38:22Z</time></trkpt><trkpt lat="40.88324436930509" lon="8.968427477051469"><ele>427.0</ele><time>2026-05-02T13:38:23Z</time></trkpt><trkpt lat="40.883168696043974" lon="8.968450740590347"><ele>420.99999999999994</ele><time>2026-05-02T13:38:24Z</time></trkpt><trkpt lat="40.88309010818797" lon="8.968482085279513"><ele>415.0</ele><time>2026-05-02T13:38:25Z</time></trkpt><trkpt lat="40.88299929709826" lon="8.968510755035483"><ele>409.0</ele><time>2026-05-02T13:38:26Z</time></trkpt><trkpt lat="40.8828951695486" lon="8.968523982660383"><ele>403.0</ele><time>2026-05-02T13:38:27Z</time></trkpt><trkpt lat="40.88279603157936" lon="8.968529672847401"><ele>403.0</ele><time>2026-05-02T13:38:28Z</time></trkpt><trkpt lat="40.88270070339083" lon="8.968517055206894"><ele>403.0</ele><time>2026-05-02T13:38:29Z</time></trkpt><trkpt lat="40.88260093638781" lon="8.968480440694075"><ele>403.0</ele><time>2026-05-02T13:38:30Z</time></trkpt><trkpt lat="40.882486179804346" lon="8.968437165595107"><ele>403.0</ele><time>2026-05-02T13:38:31Z</time></trkpt><trkpt lat="40.882381499826565" lon="8.96839940045135"><ele>403.0</ele><time>2026-05-02T13:38:32Z</time></trkpt><trkpt lat="40.88227361361728" lon="8.968353196083669"><ele>402.5</ele><time>2026-05-02T13:38:33Z</time></trkpt><trkpt lat="40.882170073134525" lon="8.968277379651841"><ele>402.0</ele><time>2026-05-02T13:38:34Z</time></trkpt><trkpt lat="40.882075487081174" lon="8.968195972950273"><ele>401.5</ele><time>2026-05-02T13:38:35Z</time></trkpt><trkpt lat="40.88197504493134" lon="8.968106537282424"><ele>401.0</ele><time>2026-05-02T13:38:36Z</time></trkpt><trkpt lat="40.88187322135583" lon="8.96800656571399"><ele>401.0</ele><time>2026-05-02T13:38:37Z</time></trkpt><trkpt lat="40.88178768979927" lon="8.967937742867093"><ele>401.0</ele><time>2026-05-02T13:38:38Z</time></trkpt><trkpt lat="40.88169786236432" lon="8.96788899063066"><ele>401.0</ele><time>2026-05-02T13:38:39Z</time></trkpt><trkpt lat="40.881632120218704" lon="8.967882055202962"><ele>401.0</ele><time>2026-05-02T13:38:40Z</time></trkpt><trkpt lat="40.88150101803586" lon="8.967946306561402"><ele>401.0</ele><time>2026-05-02T13:38:42Z</time></trkpt><trkpt lat="40.88142505657852" lon="8.968000413307907"><ele>399.57142857142856</ele><time>2026-05-02T13:38:43Z</time></trkpt><trkpt lat="40.88135937808397" lon="8.968056300332599"><ele>398.14285714285717</ele><time>2026-05-02T13:38:44Z</time></trkpt><trkpt lat="40.8812996749655" lon="8.968115445969513"><ele>396.71428571428567</ele><time>2026-05-02T13:38:45Z</time></trkpt><trkpt lat="40.88124252936182" lon="8.968180865379077"><ele>395.2857142857143</ele><time>2026-05-02T13:38:46Z</time></trkpt><trkpt lat="40.88118934513611" lon="8.968246848667642"><ele>393.85714285714283</ele><time>2026-05-02T13:38:47Z</time></trkpt><trkpt lat="40.8811453680314" lon="8.968311058465089"><ele>392.4285714285714</ele><time>2026-05-02T13:38:48Z</time></trkpt><trkpt lat="40.881096354437084" lon="8.96837797701698"><ele>391.0</ele><time>2026-05-02T13:38:49Z</time></trkpt><trkpt lat="40.88105128074992" lon="8.96844879419243"><ele>389.57142857142856</ele><time>2026-05-02T13:38:50Z</time></trkpt><trkpt lat="40.881015992930315" lon="8.96852906207608"><ele>388.1428571428571</ele><time>2026-05-02T13:38:51Z</time></trkpt><trkpt lat="40.88098718016947" lon="8.96861999678433"><ele>386.71428571428567</ele><time>2026-05-02T13:38:52Z</time></trkpt><trkpt lat="40.88096386106137" lon="8.968708076256558"><ele>385.2857142857143</ele><time>2026-05-02T13:38:53Z</time></trkpt><trkpt lat="40.88093506994484" lon="8.968798233720015"><ele>383.8571428571429</ele><time>2026-05-02T13:38:54Z</time></trkpt><trkpt lat="40.88090606757779" lon="8.968889171849257"><ele>382.4285714285714</ele><time>2026-05-02T13:38:55Z</time></trkpt><trkpt lat="40.88087183384658" lon="8.968989792501947"><ele>381.0</ele><time>2026-05-02T13:38:56Z</time></trkpt><trkpt lat="40.88084068936831" lon="8.969083534702602"><ele>380.3333333333333</ele><time>2026-05-02T13:38:57Z</time></trkpt><trkpt lat="40.88081351480134" lon="8.969179664687427"><ele>379.6666666666667</ele><time>2026-05-02T13:38:58Z</time></trkpt><trkpt lat="40.88078723526612" lon="8.969282521790138"><ele>379.0</ele><time>2026-05-02T13:38:59Z</time></trkpt><trkpt lat="40.880760067593364" lon="8.969380004631914"><ele>378.33333333333337</ele><time>2026-05-02T13:39:00Z</time></trkpt><trkpt lat="40.88072043221665" lon="8.96946165792342"><ele>377.6666666666667</ele><time>2026-05-02T13:39:01Z</time></trkpt><trkpt lat="40.880615460696895" lon="8.969546101825093"><ele>377.0</ele><time>2026-05-02T13:39:03Z</time></trkpt><trkpt lat="40.8805332006897" lon="8.96958238207307"><ele>374.6</ele><time>2026-05-02T13:39:04Z</time></trkpt><trkpt lat="40.88045257013697" lon="8.969619865504617"><ele>372.20000000000005</ele><time>2026-05-02T13:39:05Z</time></trkpt><trkpt lat="40.88036375752294" lon="8.969665899447559"><ele>369.8</ele><time>2026-05-02T13:39:06Z</time></trkpt><trkpt lat="40.880287312787104" lon="8.969702891531968"><ele>367.4</ele><time>2026-05-02T13:39:07Z</time></trkpt><trkpt lat="40.88016103079861" lon="8.969754843184418"><ele>365.0</ele><time>2026-05-02T13:39:09Z</time></trkpt><trkpt lat="40.880094644333035" lon="8.969778927264423"><ele>364.8</ele><time>2026-05-02T13:39:10Z</time></trkpt><trkpt lat="40.88002878616078" lon="8.969792460879457"><ele>364.6</ele><time>2026-05-02T13:39:11Z</time></trkpt><trkpt lat="40.8799572870414" lon="8.969813481839793"><ele>364.4</ele><time>2026-05-02T13:39:12Z</time></trkpt><trkpt lat="40.87985914977898" lon="8.969860540517109"><ele>364.2</ele><time>2026-05-02T13:39:13Z</time></trkpt><trkpt lat="40.87976115229011" lon="8.969913142369458"><ele>364.0</ele><time>2026-05-02T13:39:14Z</time></trkpt><trkpt lat="40.87967274635811" lon="8.969983596713664"><ele>361.6</ele><time>2026-05-02T13:39:15Z</time></trkpt><trkpt lat="40.8795626113865" lon="8.970076245095067"><ele>359.2</ele><time>2026-05-02T13:39:16Z</time></trkpt><trkpt lat="40.87946547526691" lon="8.970151273077473"><ele>356.8</ele><time>2026-05-02T13:39:17Z</time></trkpt><trkpt lat="40.87937754255787" lon="8.970212439793073"><ele>354.40000000000003</ele><time>2026-05-02T13:39:18Z</time></trkpt><trkpt lat="40.87928662886127" lon="8.97026730439835"><ele>352.0</ele><time>2026-05-02T13:39:19Z</time></trkpt><trkpt lat="40.87920735851697" lon="8.970324116230566"><ele>352.0</ele><time>2026-05-02T13:39:20Z</time></trkpt><trkpt lat="40.87914502174202" lon="8.970371398794141"><ele>352.0</ele><time>2026-05-02T13:39:21Z</time></trkpt><trkpt lat="40.87908829305526" lon="8.970410046975534"><ele>352.0</ele><time>2026-05-02T13:39:22Z</time></trkpt><trkpt lat="40.87902942610368" lon="8.970463829570495"><ele>352.0</ele><time>2026-05-02T13:39:23Z</time></trkpt><trkpt lat="40.87897565906006" lon="8.970526543797348"><ele>352.0</ele><time>2026-05-02T13:39:24Z</time></trkpt><trkpt lat="40.8789158700611" lon="8.970577894005466"><ele>352.0</ele><time>2026-05-02T13:39:25Z</time></trkpt><trkpt lat="40.87885441502769" lon="8.970617701789863"><ele>352.0</ele><time>2026-05-02T13:39:26Z</time></trkpt><trkpt lat="40.87878287502484" lon="8.970653757484898"><ele>352.0</ele><time>2026-05-02T13:39:27Z</time></trkpt><trkpt lat="40.878711228330936" lon="8.97067140594571"><ele>352.0</ele><time>2026-05-02T13:39:28Z</time></trkpt><trkpt lat="40.87863679575928" lon="8.9706921585137"><ele>352.0</ele><time>2026-05-02T13:39:29Z</time></trkpt><trkpt lat="40.87856544476838" lon="8.970699754792681"><ele>352.0</ele><time>2026-05-02T13:39:30Z</time></trkpt><trkpt lat="40.87844320288347" lon="8.970691492478947"><ele>352.0</ele><time>2026-05-02T13:39:32Z</time></trkpt><trkpt lat="40.878328799332444" lon="8.970684648857631"><ele>350.20000000000005</ele><time>2026-05-02T13:39:34Z</time></trkpt><trkpt lat="40.878262030494014" lon="8.970682184571205"><ele>348.4</ele><time>2026-05-02T13:39:35Z</time></trkpt><trkpt lat="40.878156412041086" lon="8.970616531094139"><ele>346.6</ele><time>2026-05-02T13:39:37Z</time></trkpt><trkpt lat="40.87803502230507" lon="8.970527423308774"><ele>344.79999999999995</ele><time>2026-05-02T13:39:39Z</time></trkpt><trkpt lat="40.877954843300735" lon="8.970478476270186"><ele>343.0</ele><time>2026-05-02T13:39:40Z</time></trkpt><trkpt lat="40.87788193683368" lon="8.970443053075744"><ele>343.0</ele><time>2026-05-02T13:39:41Z</time></trkpt><trkpt lat="40.87780943264147" lon="8.970412750175242"><ele>343.0</ele><time>2026-05-02T13:39:42Z</time></trkpt><trkpt lat="40.87774287034295" lon="8.970395025045583"><ele>343.0</ele><time>2026-05-02T13:39:43Z</time></trkpt><trkpt lat="40.87763323420826" lon="8.970378647790504"><ele>343.0</ele><time>2026-05-02T13:39:45Z</time></trkpt><trkpt lat="40.877516505983344" lon="8.970444378931392"><ele>343.0</ele><time>2026-05-02T13:39:47Z</time></trkpt><trkpt lat="40.87746519994185" lon="8.970510029176783"><ele>340.2</ele><time>2026-05-02T13:39:48Z</time></trkpt><trkpt lat="40.877417213469876" lon="8.97056542448096"><ele>337.4</ele><time>2026-05-02T13:39:49Z</time></trkpt><trkpt lat="40.87732881598635" lon="8.97064564607311"><ele>334.59999999999997</ele><time>2026-05-02T13:39:51Z</time></trkpt><trkpt lat="40.87720127356023" lon="8.970618290919125"><ele>331.79999999999995</ele><time>2026-05-02T13:39:53Z</time></trkpt><trkpt lat="40.87712509557308" lon="8.970583934732929"><ele>329.0</ele><time>2026-05-02T13:39:54Z</time></trkpt><trkpt lat="40.87704868283559" lon="8.970519368716397"><ele>329.0</ele><time>2026-05-02T13:39:56Z</time></trkpt><trkpt lat="40.87697938193137" lon="8.97040861975342"><ele>329.0</ele><time>2026-05-02T13:39:58Z</time></trkpt><trkpt lat="40.87689254615601" lon="8.970291506967499"><ele>329.0</ele><time>2026-05-02T13:40:00Z</time></trkpt><trkpt lat="40.87681578591738" lon="8.970232002464497"><ele>329.0</ele><time>2026-05-02T13:40:01Z</time></trkpt><trkpt lat="40.87674619885995" lon="8.97019615068385"><ele>329.0</ele><time>2026-05-02T13:40:02Z</time></trkpt><trkpt lat="40.876682051155846" lon="8.970171267018545"><ele>326.33333333333337</ele><time>2026-05-02T13:40:03Z</time></trkpt><trkpt lat="40.87658122056393" lon="8.9701726851147"><ele>323.6666666666667</ele><time>2026-05-02T13:40:05Z</time></trkpt><trkpt lat="40.8764671542616" lon="8.970197397303384"><ele>321.0</ele><time>2026-05-02T13:40:07Z</time></trkpt><trkpt lat="40.8764019914162" lon="8.970224631456338"><ele>318.3333333333333</ele><time>2026-05-02T13:40:08Z</time></trkpt><trkpt lat="40.87633588108325" lon="8.970256427130577"><ele>315.66666666666663</ele><time>2026-05-02T13:40:09Z</time></trkpt><trkpt lat="40.87627346126597" lon="8.97028964786373"><ele>313.0</ele><time>2026-05-02T13:40:10Z</time></trkpt><trkpt lat="40.87620725639399" lon="8.97030961137259"><ele>313.0</ele><time>2026-05-02T13:40:11Z</time></trkpt><trkpt lat="40.87613272245063" lon="8.970306193658464"><ele>313.0</ele><time>2026-05-02T13:40:12Z</time></trkpt><trkpt lat="40.876063438674606" lon="8.970295837124755"><ele>313.0</ele><time>2026-05-02T13:40:13Z</time></trkpt><trkpt lat="40.87597379931577" lon="8.970284290280633"><ele>313.0</ele><time>2026-05-02T13:40:14Z</time></trkpt><trkpt lat="40.87587971237752" lon="8.970280499726565"><ele>313.0</ele><time>2026-05-02T13:40:15Z</time></trkpt><trkpt lat="40.87575836041214" lon="8.970317141970456"><ele>309.2</ele><time>2026-05-02T13:40:17Z</time></trkpt><trkpt lat="40.87568146469312" lon="8.970414182760969"><ele>305.4</ele><time>2026-05-02T13:40:19Z</time></trkpt><trkpt lat="40.875640878189486" lon="8.970528926482272"><ele>301.59999999999997</ele><time>2026-05-02T13:40:22Z</time></trkpt><trkpt lat="40.875572222201065" lon="8.970626161248056"><ele>297.8</ele><time>2026-05-02T13:40:24Z</time></trkpt><trkpt lat="40.875496266543706" lon="8.970672693795521"><ele>294.0</ele><time>2026-05-02T13:40:25Z</time></trkpt><trkpt lat="40.875395078457714" lon="8.970707923463387"><ele>294.0</ele><time>2026-05-02T13:40:26Z</time></trkpt><trkpt lat="40.87530009865305" lon="8.970745544819637"><ele>294.0</ele><time>2026-05-02T13:40:27Z</time></trkpt><trkpt lat="40.87521364734081" lon="8.970785691245899"><ele>294.0</ele><time>2026-05-02T13:40:28Z</time></trkpt><trkpt lat="40.87512279670349" lon="8.97080833526916"><ele>294.0</ele><time>2026-05-02T13:40:29Z</time></trkpt><trkpt lat="40.87503356443338" lon="8.970822371212565"><ele>294.0</ele><time>2026-05-02T13:40:30Z</time></trkpt><trkpt lat="40.874945987426074" lon="8.97083211797326"><ele>291.5</ele><time>2026-05-02T13:40:31Z</time></trkpt><trkpt lat="40.87485538194173" lon="8.970836302964216"><ele>289.0</ele><time>2026-05-02T13:40:32Z</time></trkpt><trkpt lat="40.87476119884195" lon="8.97083525919741"><ele>286.5</ele><time>2026-05-02T13:40:33Z</time></trkpt><trkpt lat="40.874659787358134" lon="8.970832896274583"><ele>284.0</ele><time>2026-05-02T13:40:34Z</time></trkpt><trkpt lat="40.874571391074" lon="8.970847448098889"><ele>281.5</ele><time>2026-05-02T13:40:35Z</time></trkpt><trkpt lat="40.87450228520133" lon="8.97085782936459"><ele>279.0</ele><time>2026-05-02T13:40:36Z</time></trkpt><trkpt lat="40.87442429012877" lon="8.97086964712491"><ele>275.1666666666667</ele><time>2026-05-02T13:40:37Z</time></trkpt><trkpt lat="40.874358500199655" lon="8.970887915210245"><ele>271.3333333333333</ele><time>2026-05-02T13:40:38Z</time></trkpt><trkpt lat="40.8742899528669" lon="8.970913068191782"><ele>267.5</ele><time>2026-05-02T13:40:39Z</time></trkpt><trkpt lat="40.87421981326818" lon="8.970943403195731"><ele>263.66666666666663</ele><time>2026-05-02T13:40:40Z</time></trkpt><trkpt lat="40.874149997399826" lon="8.970984175284553"><ele>259.8333333333333</ele><time>2026-05-02T13:40:41Z</time></trkpt><trkpt lat="40.874068368314546" lon="8.97104741084082"><ele>256.0</ele><time>2026-05-02T13:40:42Z</time></trkpt><trkpt lat="40.8739873513775" lon="8.971112580264723"><ele>254.0</ele><time>2026-05-02T13:40:43Z</time></trkpt><trkpt lat="40.873905472083244" lon="8.971159755721974"><ele>252.00000000000003</ele><time>2026-05-02T13:40:44Z</time></trkpt><trkpt lat="40.873826613989586" lon="8.971203093671706"><ele>250.00000000000003</ele><time>2026-05-02T13:40:45Z</time></trkpt><trkpt lat="40.873737275322156" lon="8.971248846744793"><ele>248.0</ele><time>2026-05-02T13:40:46Z</time></trkpt><trkpt lat="40.87363255188273" lon="8.971308620480785"><ele>246.0</ele><time>2026-05-02T13:40:47Z</time></trkpt><trkpt lat="40.87353624605302" lon="8.971385508057992"><ele>246.8</ele><time>2026-05-02T13:40:48Z</time></trkpt><trkpt lat="40.87343627855742" lon="8.971462842717493"><ele>247.60000000000002</ele><time>2026-05-02T13:40:49Z</time></trkpt><trkpt lat="40.87334604098197" lon="8.971524044404324"><ele>248.4</ele><time>2026-05-02T13:40:50Z</time></trkpt><trkpt lat="40.87328231680723" lon="8.971562411266525"><ele>249.2</ele><time>2026-05-02T13:40:51Z</time></trkpt><trkpt lat="40.87321820363084" lon="8.971615878011415"><ele>250.0</ele><time>2026-05-02T13:40:52Z</time></trkpt><trkpt lat="40.87313377762231" lon="8.971726025238912"><ele>249.99999999999997</ele><time>2026-05-02T13:40:54Z</time></trkpt><trkpt lat="40.87305720544293" lon="8.971726257575934"><ele>250.0</ele><time>2026-05-02T13:40:56Z</time></trkpt><trkpt lat="40.87297853668533" lon="8.971659926795283"><ele>250.0</ele><time>2026-05-02T13:40:58Z</time></trkpt><trkpt lat="40.872919931532245" lon="8.971600829798168"><ele>250.0</ele><time>2026-05-02T13:40:59Z</time></trkpt><trkpt lat="40.872865358799714" lon="8.971531284768428"><ele>249.99999999999997</ele><time>2026-05-02T13:41:00Z</time></trkpt><trkpt lat="40.87278226855083" lon="8.971526145975153"><ele>250.0</ele><time>2026-05-02T13:41:02Z</time></trkpt><trkpt lat="40.872717257440385" lon="8.971611705491316"><ele>247.33333333333331</ele><time>2026-05-02T13:41:04Z</time></trkpt><trkpt lat="40.872665088994424" lon="8.971702418468928"><ele>244.66666666666666</ele><time>2026-05-02T13:41:05Z</time></trkpt><trkpt lat="40.872594307722885" lon="8.97180702440741"><ele>242.0</ele><time>2026-05-02T13:41:06Z</time></trkpt><trkpt lat="40.872539645349576" lon="8.971882653319563"><ele>239.33333333333331</ele><time>2026-05-02T13:41:07Z</time></trkpt><trkpt lat="40.87248238508187" lon="8.971926207482987"><ele>236.66666666666666</ele><time>2026-05-02T13:41:08Z</time></trkpt><trkpt lat="40.872417376058024" lon="8.97196648023323"><ele>234.0</ele><time>2026-05-02T13:41:09Z</time></trkpt><trkpt lat="40.87234891203305" lon="8.97200725428333"><ele>234.0</ele><time>2026-05-02T13:41:10Z</time></trkpt><trkpt lat="40.87228288181029" lon="8.972066106133282"><ele>233.99999999999997</ele><time>2026-05-02T13:41:11Z</time></trkpt><trkpt lat="40.8722290631807" lon="8.972139705413634"><ele>233.99999999999997</ele><time>2026-05-02T13:41:12Z</time></trkpt><trkpt lat="40.87217673625035" lon="8.97219726002406"><ele>234.0</ele><time>2026-05-02T13:41:13Z</time></trkpt><trkpt lat="40.87207894185996" lon="8.972219748853693"><ele>234.0</ele><time>2026-05-02T13:41:15Z</time></trkpt><trkpt lat="40.87197441389299" lon="8.972124697734674"><ele>234.0</ele><time>2026-05-02T13:41:17Z</time></trkpt><trkpt lat="40.87191474205002" lon="8.972075598510527"><ele>233.99999999999997</ele><time>2026-05-02T13:41:18Z</time></trkpt><trkpt lat="40.87185301441535" lon="8.97205797025323"><ele>233.99999999999997</ele><time>2026-05-02T13:41:19Z</time></trkpt><trkpt lat="40.87178101657751" lon="8.972135295544938"><ele>234.0</ele><time>2026-05-02T13:41:21Z</time></trkpt><trkpt lat="40.871733377963416" lon="8.972286002657722"><ele>234.0</ele><time>2026-05-02T13:41:23Z</time></trkpt><trkpt lat="40.87168282821316" lon="8.972406640426602"><ele>235.33333333333334</ele><time>2026-05-02T13:41:24Z</time></trkpt><trkpt lat="40.8716327384428" lon="8.972496057741653"><ele>236.66666666666669</ele><time>2026-05-02T13:41:25Z</time></trkpt><trkpt lat="40.871563181377276" lon="8.97255930548705"><ele>238.0</ele><time>2026-05-02T13:41:26Z</time></trkpt><trkpt lat="40.87148260123067" lon="8.972626301904421"><ele>239.33333333333334</ele><time>2026-05-02T13:41:27.001Z</time></trkpt><trkpt lat="40.871412389715886" lon="8.972694306632269"><ele>240.66666666666669</ele><time>2026-05-02T13:41:28.001Z</time></trkpt><trkpt lat="40.8713346612898" lon="8.972758211264273"><ele>242.0</ele><time>2026-05-02T13:41:29.001Z</time></trkpt><trkpt lat="40.8712560011426" lon="8.972835314898107"><ele>242.66666666666669</ele><time>2026-05-02T13:41:30.001Z</time></trkpt><trkpt lat="40.87119068215577" lon="8.972904917117196"><ele>243.33333333333334</ele><time>2026-05-02T13:41:31.001Z</time></trkpt><trkpt lat="40.87113277246553" lon="8.972942274773077"><ele>244.0</ele><time>2026-05-02T13:41:32.001Z</time></trkpt><trkpt lat="40.871066454457875" lon="8.972970467813376"><ele>244.66666666666669</ele><time>2026-05-02T13:41:33.001Z</time></trkpt><trkpt lat="40.871005624225326" lon="8.973024317092781"><ele>245.33333333333334</ele><time>2026-05-02T13:41:34.001Z</time></trkpt><trkpt lat="40.87095556747562" lon="8.973114419947171"><ele>246.0</ele><time>2026-05-02T13:41:36.001Z</time></trkpt><trkpt lat="40.87090825916368" lon="8.973224921395417"><ele>246.0</ele><time>2026-05-02T13:41:40.001Z</time></trkpt><trkpt lat="40.87082997760569" lon="8.973345758278917"><ele>246.0</ele><time>2026-05-02T13:41:42.001Z</time></trkpt><trkpt lat="40.87077691199927" lon="8.973428543838333"><ele>246.0</ele><time>2026-05-02T13:41:43Z</time></trkpt><trkpt lat="40.87072991095056" lon="8.97349774353681"><ele>246.0</ele><time>2026-05-02T13:41:44Z</time></trkpt><trkpt lat="40.87067662657186" lon="8.973615259537233"><ele>246.0</ele><time>2026-05-02T13:41:46Z</time></trkpt><trkpt lat="40.870648077653094" lon="8.973698626061283"><ele>246.0</ele><time>2026-05-02T13:41:47Z</time></trkpt><trkpt lat="40.87059515962714" lon="8.973773318018052"><ele>242.60000000000002</ele><time>2026-05-02T13:41:48Z</time></trkpt><trkpt lat="40.87054275211921" lon="8.973830318879756"><ele>239.20000000000002</ele><time>2026-05-02T13:41:49Z</time></trkpt><trkpt lat="40.87043599338872" lon="8.973893832263503"><ele>235.79999999999998</ele><time>2026-05-02T13:41:50Z</time></trkpt><trkpt lat="40.87034484897649" lon="8.973955406202728"><ele>232.39999999999998</ele><time>2026-05-02T13:41:51Z</time></trkpt><trkpt lat="40.8702646412107" lon="8.974029355913189"><ele>229.0</ele><time>2026-05-02T13:41:52Z</time></trkpt><trkpt lat="40.8701955446341" lon="8.97411041061476"><ele>228.99999999999997</ele><time>2026-05-02T13:41:53Z</time></trkpt><trkpt lat="40.870132673423946" lon="8.97414949877487"><ele>229.0</ele><time>2026-05-02T13:41:54Z</time></trkpt><trkpt lat="40.870007981491696" lon="8.974199341981222"><ele>229.0</ele><time>2026-05-02T13:41:56Z</time></trkpt><trkpt lat="40.86993203488778" lon="8.974216574884013"><ele>229.0</ele><time>2026-05-02T13:41:57Z</time></trkpt><trkpt lat="40.86985880977053" lon="8.974234191874611"><ele>228.99999999999997</ele><time>2026-05-02T13:41:58Z</time></trkpt><trkpt lat="40.869797624589346" lon="8.97427556075358"><ele>229.0</ele><time>2026-05-02T13:41:59Z</time></trkpt><trkpt lat="40.869741994610024" lon="8.974405804698007"><ele>228.39999999999998</ele><time>2026-05-02T13:42:01Z</time></trkpt><trkpt lat="40.8697314021685" lon="8.974489228954193"><ele>227.79999999999998</ele><time>2026-05-02T13:42:02Z</time></trkpt><trkpt lat="40.86969164954982" lon="8.974614377348363"><ele>227.20000000000002</ele><time>2026-05-02T13:42:04Z</time></trkpt><trkpt lat="40.869602242621056" lon="8.97464694471296"><ele>226.60000000000002</ele><time>2026-05-02T13:42:06Z</time></trkpt><trkpt lat="40.869466730767655" lon="8.974664721018419"><ele>226.0</ele><time>2026-05-02T13:42:08Z</time></trkpt><trkpt lat="40.869393575418876" lon="8.974657205716403"><ele>223.8</ele><time>2026-05-02T13:42:09Z</time></trkpt><trkpt lat="40.8692725638658" lon="8.974627512698854"><ele>221.60000000000002</ele><time>2026-05-02T13:42:11Z</time></trkpt><trkpt lat="40.8691627924691" lon="8.974579873592653"><ele>219.4</ele><time>2026-05-02T13:42:13Z</time></trkpt><trkpt lat="40.86906471853024" lon="8.974558716047495"><ele>217.2</ele><time>2026-05-02T13:42:15Z</time></trkpt><trkpt lat="40.86896260384727" lon="8.974508205373652"><ele>215.0</ele><time>2026-05-02T13:42:17Z</time></trkpt><trkpt lat="40.86886063631182" lon="8.974429950238648"><ele>215.0</ele><time>2026-05-02T13:42:19Z</time></trkpt><trkpt lat="40.86876567965948" lon="8.974364272807737"><ele>215.0</ele><time>2026-05-02T13:42:21Z</time></trkpt><trkpt lat="40.868676080755655" lon="8.974303351342867"><ele>215.0</ele><time>2026-05-02T13:42:23Z</time></trkpt><trkpt lat="40.868581941829184" lon="8.974234322837717"><ele>215.0</ele><time>2026-05-02T13:42:25Z</time></trkpt><trkpt lat="40.86849587061574" lon="8.974121829509182"><ele>215.0</ele><time>2026-05-02T13:42:27Z</time></trkpt><trkpt lat="40.86846335661674" lon="8.974040800516782"><ele>211.7142857142857</ele><time>2026-05-02T13:42:28Z</time></trkpt><trkpt lat="40.86842360668142" lon="8.973965513485519"><ele>208.42857142857144</ele><time>2026-05-02T13:42:29Z</time></trkpt><trkpt lat="40.868381829786216" lon="8.97388639169979"><ele>205.14285714285714</ele><time>2026-05-02T13:42:30Z</time></trkpt><trkpt lat="40.868348386227986" lon="8.97380500362186"><ele>201.85714285714283</ele><time>2026-05-02T13:42:31Z</time></trkpt><trkpt lat="40.868324040074235" lon="8.973713714863798"><ele>198.57142857142856</ele><time>2026-05-02T13:42:32Z</time></trkpt><trkpt lat="40.86830316582131" lon="8.973613305913673"><ele>195.28571428571428</ele><time>2026-05-02T13:42:33Z</time></trkpt><trkpt lat="40.86829274796917" lon="8.973514353179192"><ele>192.0</ele><time>2026-05-02T13:42:34Z</time></trkpt><trkpt lat="40.868275533531836" lon="8.973366746047944"><ele>192.0</ele><time>2026-05-02T13:42:36Z</time></trkpt><trkpt lat="40.86827908780501" lon="8.973259773895629"><ele>192.0</ele><time>2026-05-02T13:42:38Z</time></trkpt><trkpt lat="40.86823008640147" lon="8.973165342603481"><ele>192.0</ele><time>2026-05-02T13:42:41Z</time></trkpt><trkpt lat="40.86815314019878" lon="8.973131746990825"><ele>192.0</ele><time>2026-05-02T13:42:43Z</time></trkpt><trkpt lat="40.86806334587618" lon="8.97310201727866"><ele>192.0</ele><time>2026-05-02T13:42:45Z</time></trkpt><trkpt lat="40.86798642454457" lon="8.973078302189162"><ele>192.0</ele><time>2026-05-02T13:42:47Z</time></trkpt><trkpt lat="40.86790519916768" lon="8.973042813494654"><ele>192.0</ele><time>2026-05-02T13:42:49Z</time></trkpt><trkpt lat="40.86784055485077" lon="8.973012456945057"><ele>192.0</ele><time>2026-05-02T13:42:50Z</time></trkpt><trkpt lat="40.867776161747685" lon="8.972986612535458"><ele>192.0</ele><time>2026-05-02T13:42:51Z</time></trkpt><trkpt lat="40.8676651715157" lon="8.972965552645034"><ele>192.0</ele><time>2026-05-02T13:42:53Z</time></trkpt><trkpt lat="40.867557454805024" lon="8.972963191871422"><ele>192.0</ele><time>2026-05-02T13:42:55Z</time></trkpt><trkpt lat="40.867451831652446" lon="8.972963306283031"><ele>186.66666666666666</ele><time>2026-05-02T13:42:57Z</time></trkpt><trkpt lat="40.86735550348503" lon="8.97289504620436"><ele>181.33333333333334</ele><time>2026-05-02T13:42:59Z</time></trkpt><trkpt lat="40.86726222358357" lon="8.972798718800897"><ele>176.0</ele><time>2026-05-02T13:43:01Z</time></trkpt><trkpt lat="40.867213810080536" lon="8.972744825819706"><ele>170.66666666666669</ele><time>2026-05-02T13:43:02Z</time></trkpt><trkpt lat="40.867156658811794" lon="8.972703025678566"><ele>165.33333333333334</ele><time>2026-05-02T13:43:03Z</time></trkpt><trkpt lat="40.867096040282554" lon="8.972670809698583"><ele>160.0</ele><time>2026-05-02T13:43:04Z</time></trkpt><trkpt lat="40.86702427188816" lon="8.97264901335014"><ele>160.0</ele><time>2026-05-02T13:43:05Z</time></trkpt><trkpt lat="40.86692537458988" lon="8.972642046132627"><ele>160.0</ele><time>2026-05-02T13:43:07Z</time></trkpt><trkpt lat="40.866839656007976" lon="8.972689108875588"><ele>160.0</ele><time>2026-05-02T13:43:09Z</time></trkpt><trkpt lat="40.86672295156394" lon="8.972740487422708"><ele>160.0</ele><time>2026-05-02T13:43:11Z</time></trkpt><trkpt lat="40.86662268191594" lon="8.972777100829525"><ele>160.0</ele><time>2026-05-02T13:43:13Z</time></trkpt><trkpt lat="40.866517452319776" lon="8.972834612060973"><ele>155.5</ele><time>2026-05-02T13:43:15Z</time></trkpt><trkpt lat="40.86644891042636" lon="8.972865504282185"><ele>151.0</ele><time>2026-05-02T13:43:16Z</time></trkpt><trkpt lat="40.8663499029476" lon="8.972910906151698"><ele>146.5</ele><time>2026-05-02T13:43:18Z</time></trkpt><trkpt lat="40.866282778367626" lon="8.972935366090825"><ele>142.0</ele><time>2026-05-02T13:43:20Z</time></trkpt><trkpt lat="40.86621660183862" lon="8.972984267242207"><ele>137.5</ele><time>2026-05-02T13:43:22Z</time></trkpt><trkpt lat="40.866147326361265" lon="8.973040806683764"><ele>133.0</ele><time>2026-05-02T13:43:24Z</time></trkpt><trkpt lat="40.86607802592283" lon="8.973106784597428"><ele>133.0</ele><time>2026-05-02T13:43:26Z</time></trkpt><trkpt lat="40.86601908299111" lon="8.973177341260433"><ele>133.0</ele><time>2026-05-02T13:43:28Z</time></trkpt><trkpt lat="40.86596031866218" lon="8.973262659115935"><ele>133.0</ele><time>2026-05-02T13:43:30Z</time></trkpt><trkpt lat="40.86589178869951" lon="8.973350307573494"><ele>133.0</ele><time>2026-05-02T13:43:32Z</time></trkpt><trkpt lat="40.86582704273313" lon="8.973377498070443"><ele>133.0</ele><time>2026-05-02T13:43:34.001Z</time></trkpt><trkpt lat="40.86575000466993" lon="8.973378627884493"><ele>133.0</ele><time>2026-05-02T13:43:36.001Z</time></trkpt><trkpt lat="40.86569014981553" lon="8.973416093822838"><ele>132.16666666666669</ele><time>2026-05-02T13:43:38.001Z</time></trkpt><trkpt lat="40.86570975226112" lon="8.973539830270225"><ele>131.33333333333334</ele><time>2026-05-02T13:43:41Z</time></trkpt><trkpt lat="40.86576746340728" lon="8.973588599647227"><ele>130.5</ele><time>2026-05-02T13:43:43Z</time></trkpt><trkpt lat="40.86584334377001" lon="8.973610172820116"><ele>129.66666666666666</ele><time>2026-05-02T13:43:45Z</time></trkpt><trkpt lat="40.8659283752214" lon="8.973638056357274"><ele>128.83333333333331</ele><time>2026-05-02T13:43:47Z</time></trkpt><trkpt lat="40.86600207452939" lon="8.973724213204392"><ele>128.0</ele><time>2026-05-02T13:43:49Z</time></trkpt><trkpt lat="40.86595963386105" lon="8.97380070478624"><ele>122.4</ele><time>2026-05-02T13:43:51Z</time></trkpt><trkpt lat="40.8658868302538" lon="8.973851382487432"><ele>116.80000000000001</ele><time>2026-05-02T13:43:53Z</time></trkpt><trkpt lat="40.86578875192895" lon="8.973905677628291"><ele>111.2</ele><time>2026-05-02T13:43:55Z</time></trkpt><trkpt lat="40.86568557046789" lon="8.97396954305904"><ele>105.6</ele><time>2026-05-02T13:43:57Z</time></trkpt><trkpt lat="40.86558779428073" lon="8.974041691031953"><ele>100.0</ele><time>2026-05-02T13:43:59Z</time></trkpt><trkpt lat="40.865498589576845" lon="8.97410698284391"><ele>100.0</ele><time>2026-05-02T13:44:01Z</time></trkpt><trkpt lat="40.86541994602229" lon="8.97404310244055"><ele>100.0</ele><time>2026-05-02T13:44:04Z</time></trkpt><trkpt lat="40.86534537242534" lon="8.974033221315024"><ele>100.0</ele><time>2026-05-02T13:44:06Z</time></trkpt><trkpt lat="40.865260730533414" lon="8.974046818121046"><ele>100.0</ele><time>2026-05-02T13:44:08Z</time></trkpt><trkpt lat="40.86514792136397" lon="8.974051709155692"><ele>100.0</ele><time>2026-05-02T13:44:10Z</time></trkpt><trkpt lat="40.86502164433952" lon="8.9740503469896"><ele>97.0</ele><time>2026-05-02T13:44:12Z</time></trkpt><trkpt lat="40.86495640696548" lon="8.974071040123441"><ele>94.0</ele><time>2026-05-02T13:44:13Z</time></trkpt><trkpt lat="40.86487340831273" lon="8.974226807862772"><ele>91.0</ele><time>2026-05-02T13:44:15Z</time></trkpt><trkpt lat="40.86484881459847" lon="8.974323031036398"><ele>88.0</ele><time>2026-05-02T13:44:16Z</time></trkpt><trkpt lat="40.86482420764744" lon="8.974408500470776"><ele>85.0</ele><time>2026-05-02T13:44:17Z</time></trkpt><trkpt lat="40.8648084162271" lon="8.974530280588521"><ele>83.0</ele><time>2026-05-02T13:44:19Z</time></trkpt><trkpt lat="40.8647970630112" lon="8.974671310428088"><ele>81.0</ele><time>2026-05-02T13:44:21Z</time></trkpt><trkpt lat="40.86478593428743" lon="8.97475782145133"><ele>79.0</ele><time>2026-05-02T13:44:22Z</time></trkpt><trkpt lat="40.86473839010397" lon="8.97490071442299"><ele>77.0</ele><time>2026-05-02T13:44:24Z</time></trkpt><trkpt lat="40.86464303882825" lon="8.974976240232682"><ele>75.0</ele><time>2026-05-02T13:44:26Z</time></trkpt><trkpt lat="40.86456803099011" lon="8.975003444126022"><ele>74.5</ele><time>2026-05-02T13:44:27Z</time></trkpt><trkpt lat="40.86447740125681" lon="8.975027004276974"><ele>74.0</ele><time>2026-05-02T13:44:28Z</time></trkpt><trkpt lat="40.864394480365064" lon="8.975042970977594"><ele>73.5</ele><time>2026-05-02T13:44:29Z</time></trkpt><trkpt lat="40.86431452998471" lon="8.97506145653795"><ele>73.0</ele><time>2026-05-02T13:44:30Z</time></trkpt><trkpt lat="40.86423962784263" lon="8.975072275156553"><ele>72.5</ele><time>2026-05-02T13:44:31Z</time></trkpt><trkpt lat="40.864166811983964" lon="8.97508619692039"><ele>72.0</ele><time>2026-05-02T13:44:32Z</time></trkpt><trkpt lat="40.86409849527113" lon="8.975100364167044"><ele>70.83333333333333</ele><time>2026-05-02T13:44:33Z</time></trkpt><trkpt lat="40.864034161503625" lon="8.975105981042516"><ele>69.66666666666667</ele><time>2026-05-02T13:44:34Z</time></trkpt><trkpt lat="40.86396395589022" lon="8.975100651073397"><ele>68.5</ele><time>2026-05-02T13:44:35Z</time></trkpt><trkpt lat="40.86387775193259" lon="8.975212648212205"><ele>67.33333333333334</ele><time>2026-05-02T13:44:36Z</time></trkpt><trkpt lat="40.863809498195614" lon="8.975193547360083"><ele>66.16666666666667</ele><time>2026-05-02T13:44:37Z</time></trkpt><trkpt lat="40.86369825777912" lon="8.975162416661146"><ele>65.0</ele><time>2026-05-02T13:44:39Z</time></trkpt><trkpt lat="40.86360295704564" lon="8.97509932569011"><ele>65.0</ele><time>2026-05-02T13:44:41Z</time></trkpt><trkpt lat="40.86351271262059" lon="8.975147678715395"><ele>65.0</ele><time>2026-05-02T13:44:43Z</time></trkpt><trkpt lat="40.863446566620276" lon="8.975118314820165"><ele>65.0</ele><time>2026-05-02T13:45:13Z</time></trkpt><trkpt lat="40.86339258792338" lon="8.975073911567852"><ele>65.0</ele><time>2026-05-02T13:45:14Z</time></trkpt><trkpt lat="40.86336998026026" lon="8.974957023232912"><ele>65.0</ele><time>2026-05-02T13:45:15Z</time></trkpt><trkpt lat="40.86331500679195" lon="8.974882147675173"><ele>65.0</ele><time>2026-05-02T13:45:16Z</time></trkpt><trkpt lat="40.86324193062546" lon="8.974782615191302"><ele>64.2</ele><time>2026-05-02T13:45:17Z</time></trkpt><trkpt lat="40.86317315868069" lon="8.974671276345395"><ele>63.4</ele><time>2026-05-02T13:45:18Z</time></trkpt><trkpt lat="40.863106718246" lon="8.97455842066751"><ele>62.599999999999994</ele><time>2026-05-02T13:45:19Z</time></trkpt><trkpt lat="40.863054043887736" lon="8.974454116113293"><ele>61.8</ele><time>2026-05-02T13:45:20Z</time></trkpt><trkpt lat="40.863013699475175" lon="8.974364187463083"><ele>61.0</ele><time>2026-05-02T13:45:21Z</time></trkpt><trkpt lat="40.86298043070294" lon="8.97426414085784"><ele>60.99999999999999</ele><time>2026-05-02T13:45:22Z</time></trkpt><trkpt lat="40.862953094281394" lon="8.974154751827237"><ele>61.0</ele><time>2026-05-02T13:45:23Z</time></trkpt><trkpt lat="40.862938921948256" lon="8.974045828823686"><ele>61.0</ele><time>2026-05-02T13:45:24Z</time></trkpt><trkpt lat="40.86291098659706" lon="8.97395998552816"><ele>61.0</ele><time>2026-05-02T13:45:25Z</time></trkpt><trkpt lat="40.862868025615526" lon="8.97389649738378"><ele>60.99999999999999</ele><time>2026-05-02T13:45:27Z</time></trkpt><trkpt lat="40.86293835302905" lon="8.973847969807158"><ele>61.0</ele><time>2026-05-02T13:45:29Z</time></trkpt><trkpt lat="40.86298466734778" lon="8.973776809399634"><ele>60.99999999999999</ele><time>2026-05-02T13:45:30Z</time></trkpt><trkpt lat="40.863026016601474" lon="8.973708747392283"><ele>61.0</ele><time>2026-05-02T13:45:31Z</time></trkpt><trkpt lat="40.863073173663764" lon="8.973610137388393"><ele>61.0</ele><time>2026-05-02T13:45:32Z</time></trkpt><trkpt lat="40.86311951723182" lon="8.973509375221884"><ele>61.0</ele><time>2026-05-02T13:45:33Z</time></trkpt><trkpt lat="40.863168896843014" lon="8.973393666428633"><ele>60.99999999999999</ele><time>2026-05-02T13:45:34Z</time></trkpt><trkpt lat="40.86321520143846" lon="8.973283273796085"><ele>61.0</ele><time>2026-05-02T13:45:35Z</time></trkpt><trkpt lat="40.86326102768099" lon="8.973174021571412"><ele>60.0</ele><time>2026-05-02T13:45:35.999Z</time></trkpt><trkpt lat="40.86330887838874" lon="8.973056391409067"><ele>59.0</ele><time>2026-05-02T13:45:36.999Z</time></trkpt><trkpt lat="40.863355396745085" lon="8.97293457763046"><ele>58.0</ele><time>2026-05-02T13:45:37.999Z</time></trkpt><trkpt lat="40.863406417775614" lon="8.972770578477293"><ele>57.0</ele><time>2026-05-02T13:45:39Z</time></trkpt><trkpt lat="40.863448712895" lon="8.972600996686342"><ele>59.25</ele><time>2026-05-02T13:45:40Z</time></trkpt><trkpt lat="40.86348449415193" lon="8.972435881198688"><ele>61.5</ele><time>2026-05-02T13:45:41Z</time></trkpt><trkpt lat="40.863512570501236" lon="8.972273421107015"><ele>63.75</ele><time>2026-05-02T13:45:42Z</time></trkpt><trkpt lat="40.86353901738301" lon="8.9721179525831"><ele>66.0</ele><time>2026-05-02T13:45:43Z</time></trkpt><trkpt lat="40.86356676183172" lon="8.9719622055035"><ele>66.0</ele><time>2026-05-02T13:45:44Z</time></trkpt><trkpt lat="40.86359410000341" lon="8.971810222124404"><ele>66.0</ele><time>2026-05-02T13:45:45Z</time></trkpt><trkpt lat="40.86362219840116" lon="8.971654012466978"><ele>66.0</ele><time>2026-05-02T13:45:46Z</time></trkpt><trkpt lat="40.86364941976168" lon="8.971494751766151"><ele>66.0</ele><time>2026-05-02T13:45:47Z</time></trkpt><trkpt lat="40.8636800014082" lon="8.971334734313775"><ele>65.0</ele><time>2026-05-02T13:45:48Z</time></trkpt><trkpt lat="40.86371641407536" lon="8.97117818871066"><ele>64.0</ele><time>2026-05-02T13:45:49Z</time></trkpt><trkpt lat="40.863756354765556" lon="8.971019869146442"><ele>63.0</ele><time>2026-05-02T13:45:50Z</time></trkpt><trkpt lat="40.86379695534397" lon="8.970863831153649"><ele>62.0</ele><time>2026-05-02T13:45:51Z</time></trkpt><trkpt lat="40.8638397294107" lon="8.970704463675075"><ele>61.0</ele><time>2026-05-02T13:45:52Z</time></trkpt><trkpt lat="40.86388247238396" lon="8.970546189554867"><ele>60.0</ele><time>2026-05-02T13:45:53Z</time></trkpt><trkpt lat="40.86392504639405" lon="8.970388541163848"><ele>59.0</ele><time>2026-05-02T13:45:54Z</time></trkpt><trkpt lat="40.863967876953915" lon="8.970230567652418"><ele>58.0</ele><time>2026-05-02T13:45:55Z</time></trkpt><trkpt lat="40.86401180536684" lon="8.970071938455057"><ele>57.25</ele><time>2026-05-02T13:45:56Z</time></trkpt><trkpt lat="40.864055067776015" lon="8.969915714205918"><ele>56.5</ele><time>2026-05-02T13:45:57Z</time></trkpt><trkpt lat="40.86409908217418" lon="8.969756774649948"><ele>55.75</ele><time>2026-05-02T13:45:58Z</time></trkpt><trkpt lat="40.86414328393584" lon="8.969597158317521"><ele>55.0</ele><time>2026-05-02T13:45:59Z</time></trkpt><trkpt lat="40.86417349391837" lon="8.969432156088258"><ele>55.0</ele><time>2026-05-02T13:46:00Z</time></trkpt><trkpt lat="40.864230504598375" lon="8.969280023075967"><ele>55.0</ele><time>2026-05-02T13:46:01Z</time></trkpt><trkpt lat="40.86427237081243" lon="8.969127452042654"><ele>55.0</ele><time>2026-05-02T13:46:02Z</time></trkpt><trkpt lat="40.864314909777924" lon="8.968972429286024"><ele>55.0</ele><time>2026-05-02T13:46:03Z</time></trkpt><trkpt lat="40.864341363245316" lon="8.968815499079238"><ele>58.5</ele><time>2026-05-02T13:46:04Z</time></trkpt><trkpt lat="40.86439650380473" lon="8.968671449713382"><ele>62.0</ele><time>2026-05-02T13:46:05Z</time></trkpt><trkpt lat="40.86442891819144" lon="8.968516910105487"><ele>65.5</ele><time>2026-05-02T13:46:06Z</time></trkpt><trkpt lat="40.8644440808826" lon="8.968356953460523"><ele>69.0</ele><time>2026-05-02T13:46:07Z</time></trkpt><trkpt lat="40.8644074961731" lon="8.96818412311045"><ele>69.0</ele><time>2026-05-02T13:46:08Z</time></trkpt><trkpt lat="40.864356042246804" lon="8.96802610224653"><ele>69.0</ele><time>2026-05-02T13:46:09Z</time></trkpt><trkpt lat="40.864307919029436" lon="8.967867393510973"><ele>69.0</ele><time>2026-05-02T13:46:10Z</time></trkpt><trkpt lat="40.864260681290844" lon="8.967713149547848"><ele>69.0</ele><time>2026-05-02T13:46:11Z</time></trkpt><trkpt lat="40.864211137384565" lon="8.96755494895302"><ele>66.5</ele><time>2026-05-02T13:46:12Z</time></trkpt><trkpt lat="40.86415884875891" lon="8.967395581941878"><ele>64.0</ele><time>2026-05-02T13:46:13Z</time></trkpt><trkpt lat="40.86408650265527" lon="8.96724600452343"><ele>61.5</ele><time>2026-05-02T13:46:14Z</time></trkpt><trkpt lat="40.864022133086074" lon="8.967089813306476"><ele>59.0</ele><time>2026-05-02T13:46:15Z</time></trkpt><trkpt lat="40.86393583346706" lon="8.966939040159538"><ele>59.0</ele><time>2026-05-02T13:46:16Z</time></trkpt><trkpt lat="40.86383438690835" lon="8.966801919251548"><ele>59.0</ele><time>2026-05-02T13:46:17Z</time></trkpt><trkpt lat="40.86373424901173" lon="8.966666078777664"><ele>59.0</ele><time>2026-05-02T13:46:18Z</time></trkpt><trkpt lat="40.86363157301884" lon="8.966533626931374"><ele>59.0</ele><time>2026-05-02T13:46:19Z</time></trkpt><trkpt lat="40.86352923213846" lon="8.966395501122955"><ele>56.75</ele><time>2026-05-02T13:46:20Z</time></trkpt><trkpt lat="40.86342129579448" lon="8.966264528169626"><ele>54.5</ele><time>2026-05-02T13:46:21Z</time></trkpt><trkpt lat="40.86330267229991" lon="8.966148459369835"><ele>52.25</ele><time>2026-05-02T13:46:22Z</time></trkpt><trkpt lat="40.86317078193558" lon="8.966055943754887"><ele>50.0</ele><time>2026-05-02T13:46:23Z</time></trkpt><trkpt lat="40.86302509135259" lon="8.96598858957718"><ele>50.0</ele><time>2026-05-02T13:46:24Z</time></trkpt><trkpt lat="40.862863813966975" lon="8.965932235586772"><ele>50.0</ele><time>2026-05-02T13:46:25Z</time></trkpt><trkpt lat="40.86269551493679" lon="8.96588525960998"><ele>50.0</ele><time>2026-05-02T13:46:26Z</time></trkpt><trkpt lat="40.86251718066623" lon="8.965833675017807"><ele>53.0</ele><time>2026-05-02T13:46:27Z</time></trkpt><trkpt lat="40.86234020374622" lon="8.96578280854064"><ele>56.0</ele><time>2026-05-02T13:46:28Z</time></trkpt><trkpt lat="40.862164330401065" lon="8.965730857628166"><ele>59.0</ele><time>2026-05-02T13:46:29Z</time></trkpt><trkpt lat="40.86199144095646" lon="8.965683735694505"><ele>59.0</ele><time>2026-05-02T13:46:30Z</time></trkpt><trkpt lat="40.861838245673255" lon="8.965602747952474"><ele>59.0</ele><time>2026-05-02T13:46:31Z</time></trkpt><trkpt lat="40.86169742145675" lon="8.965532066574582"><ele>59.0</ele><time>2026-05-02T13:46:32Z</time></trkpt><trkpt lat="40.86155638558415" lon="8.965436026952098"><ele>56.0</ele><time>2026-05-02T13:46:33Z</time></trkpt><trkpt lat="40.86141834676228" lon="8.965339265524818"><ele>53.0</ele><time>2026-05-02T13:46:34Z</time></trkpt><trkpt lat="40.86128669216014" lon="8.965239282944708"><ele>50.0</ele><time>2026-05-02T13:46:35Z</time></trkpt><trkpt lat="40.86116524000855" lon="8.96512522520628"><ele>50.25</ele><time>2026-05-02T13:46:36Z</time></trkpt><trkpt lat="40.86106716141791" lon="8.965005112981766"><ele>50.5</ele><time>2026-05-02T13:46:37Z</time></trkpt><trkpt lat="40.86098246792825" lon="8.964860619022119"><ele>50.75</ele><time>2026-05-02T13:46:38Z</time></trkpt><trkpt lat="40.86090419860625" lon="8.964710789950951"><ele>51.0</ele><time>2026-05-02T13:46:39Z</time></trkpt><trkpt lat="40.86082517326505" lon="8.964551810241453"><ele>51.0</ele><time>2026-05-02T13:46:40Z</time></trkpt><trkpt lat="40.86074750681439" lon="8.964386006655877"><ele>51.0</ele><time>2026-05-02T13:46:41Z</time></trkpt><trkpt lat="40.86068371246749" lon="8.964217012032105"><ele>51.0</ele><time>2026-05-02T13:46:42Z</time></trkpt><trkpt lat="40.86064380686935" lon="8.96404800218109"><ele>51.0</ele><time>2026-05-02T13:46:43Z</time></trkpt><trkpt lat="40.860630153430485" lon="8.963882510156914"><ele>53.5</ele><time>2026-05-02T13:46:44Z</time></trkpt><trkpt lat="40.86063602402437" lon="8.96371778318721"><ele>56.0</ele><time>2026-05-02T13:46:45Z</time></trkpt><trkpt lat="40.8606553148603" lon="8.963547979043618"><ele>58.5</ele><time>2026-05-02T13:46:46Z</time></trkpt><trkpt lat="40.86068112392284" lon="8.963379377490229"><ele>61.0</ele><time>2026-05-02T13:46:47Z</time></trkpt><trkpt lat="40.86072315692187" lon="8.963211392307148"><ele>61.0</ele><time>2026-05-02T13:46:48Z</time></trkpt><trkpt lat="40.86078257097644" lon="8.963051252182453"><ele>61.0</ele><time>2026-05-02T13:46:49Z</time></trkpt><trkpt lat="40.860854902016996" lon="8.962895257215223"><ele>61.0</ele><time>2026-05-02T13:46:50Z</time></trkpt><trkpt lat="40.86093719932634" lon="8.962744528741956"><ele>61.0</ele><time>2026-05-02T13:46:51Z</time></trkpt><trkpt lat="40.86102472478853" lon="8.962601623461847"><ele>63.0</ele><time>2026-05-02T13:46:52Z</time></trkpt><trkpt lat="40.861120129780716" lon="8.962463402043248"><ele>65.0</ele><time>2026-05-02T13:46:53Z</time></trkpt><trkpt lat="40.861220555267245" lon="8.96232742330846"><ele>67.0</ele><time>2026-05-02T13:46:54Z</time></trkpt><trkpt lat="40.86132655986569" lon="8.962187916413281"><ele>69.0</ele><time>2026-05-02T13:46:55Z</time></trkpt><trkpt lat="40.861434314915925" lon="8.96204820053414"><ele>69.0</ele><time>2026-05-02T13:46:56Z</time></trkpt><trkpt lat="40.861541269654694" lon="8.961909522720791"><ele>69.0</ele><time>2026-05-02T13:46:57Z</time></trkpt><trkpt lat="40.861648019880306" lon="8.96177111069402"><ele>69.0</ele><time>2026-05-02T13:46:58Z</time></trkpt><trkpt lat="40.861756662800225" lon="8.961638100128116"><ele>69.0</ele><time>2026-05-02T13:46:59Z</time></trkpt><trkpt lat="40.86186867198313" lon="8.961514614033968"><ele>68.0</ele><time>2026-05-02T13:47:00Z</time></trkpt><trkpt lat="40.86199033526264" lon="8.961402275351512"><ele>67.0</ele><time>2026-05-02T13:47:01Z</time></trkpt><trkpt lat="40.862119751225045" lon="8.961301693315795"><ele>66.0</ele><time>2026-05-02T13:47:02Z</time></trkpt><trkpt lat="40.86225514454601" lon="8.961211564109423"><ele>66.0</ele><time>2026-05-02T13:47:03Z</time></trkpt><trkpt lat="40.86239590327342" lon="8.961138411505923"><ele>66.0</ele><time>2026-05-02T13:47:04Z</time></trkpt><trkpt lat="40.86254573589671" lon="8.961069644248935"><ele>66.0</ele><time>2026-05-02T13:47:05Z</time></trkpt><trkpt lat="40.862699778610406" lon="8.96100160254604"><ele>68.0</ele><time>2026-05-02T13:47:06Z</time></trkpt><trkpt lat="40.86284079902811" lon="8.960939312986755"><ele>70.0</ele><time>2026-05-02T13:47:07Z</time></trkpt><trkpt lat="40.86297967771109" lon="8.960875832742127"><ele>72.0</ele><time>2026-05-02T13:47:08Z</time></trkpt><trkpt lat="40.86307823085033" lon="8.960787107693113"><ele>74.0</ele><time>2026-05-02T13:47:09Z</time></trkpt><trkpt lat="40.863144997021855" lon="8.960691629663385"><ele>68.8</ele><time>2026-05-02T13:47:10Z</time></trkpt><trkpt lat="40.86314889922405" lon="8.960586522626528"><ele>63.60000000000001</ele><time>2026-05-02T13:47:11Z</time></trkpt><trkpt lat="40.863122903559" lon="8.960449784873301"><ele>58.4</ele><time>2026-05-02T13:47:12Z</time></trkpt><trkpt lat="40.86312078842278" lon="8.96031909641355"><ele>53.2</ele><time>2026-05-02T13:47:13Z</time></trkpt><trkpt lat="40.86311013736023" lon="8.960200939692506"><ele>48.0</ele><time>2026-05-02T13:47:14Z</time></trkpt><trkpt lat="40.863099311218186" lon="8.96008503051318"><ele>46.5</ele><time>2026-05-02T13:47:15Z</time></trkpt><trkpt lat="40.86308739987133" lon="8.95997360414836"><ele>45.0</ele><time>2026-05-02T13:47:16Z</time></trkpt><trkpt lat="40.86307752401013" lon="8.95986660071955"><ele>43.5</ele><time>2026-05-02T13:47:17Z</time></trkpt><trkpt lat="40.863073625443114" lon="8.959761679572454"><ele>42.0</ele><time>2026-05-02T13:47:18Z</time></trkpt><trkpt lat="40.86308066649635" lon="8.95967432388081"><ele>40.5</ele><time>2026-05-02T13:47:19Z</time></trkpt><trkpt lat="40.86308837820088" lon="8.959555185427268"><ele>39.0</ele><time>2026-05-02T13:47:21Z</time></trkpt><trkpt lat="40.862930892174035" lon="8.959511949819344"><ele>39.0</ele><time>2026-05-02T13:47:22Z</time></trkpt><trkpt lat="40.86284740142155" lon="8.959500414905815"><ele>39.0</ele><time>2026-05-02T13:47:23Z</time></trkpt><trkpt lat="40.86277392122356" lon="8.959521751161502"><ele>39.0</ele><time>2026-05-02T13:47:24Z</time></trkpt><trkpt lat="40.862707924660555" lon="8.959549378573362"><ele>39.0</ele><time>2026-05-02T13:47:25Z</time></trkpt><trkpt lat="40.86264774402106" lon="8.959580480227476"><ele>39.0</ele><time>2026-05-02T13:47:26Z</time></trkpt><trkpt lat="40.86258508578442" lon="8.959593019891843"><ele>39.0</ele><time>2026-05-02T13:47:27Z</time></trkpt><trkpt lat="40.862507696930194" lon="8.959627662120786"><ele>39.0</ele><time>2026-05-02T13:47:28Z</time></trkpt><trkpt lat="40.862430360669286" lon="8.959662280837087"><ele>39.666666666666664</ele><time>2026-05-02T13:47:28.999Z</time></trkpt><trkpt lat="40.86233787752013" lon="8.959702606749428"><ele>40.333333333333336</ele><time>2026-05-02T13:47:29.999Z</time></trkpt><trkpt lat="40.86224334315626" lon="8.959743683447021"><ele>41.0</ele><time>2026-05-02T13:47:30.999Z</time></trkpt><trkpt lat="40.8621624328404" lon="8.959778840090452"><ele>41.66666666666667</ele><time>2026-05-02T13:47:31.999Z</time></trkpt><trkpt lat="40.862082950836" lon="8.959813375961641"><ele>42.333333333333336</ele><time>2026-05-02T13:47:32.999Z</time></trkpt><trkpt lat="40.86200556908249" lon="8.959846999429509"><ele>43.0</ele><time>2026-05-02T13:47:33.999Z</time></trkpt><trkpt lat="40.86192283607749" lon="8.95988294790989"><ele>43.0</ele><time>2026-05-02T13:47:34.999Z</time></trkpt><trkpt lat="40.86183027946877" lon="8.959925511491143"><ele>43.0</ele><time>2026-05-02T13:47:35.999Z</time></trkpt><trkpt lat="40.86172993714444" lon="8.959971752278301"><ele>43.0</ele><time>2026-05-02T13:47:36.999Z</time></trkpt><trkpt lat="40.861632807285694" lon="8.960016512730215"><ele>43.0</ele><time>2026-05-02T13:47:37.999Z</time></trkpt><trkpt lat="40.86153530384678" lon="8.960061445257278"><ele>43.0</ele><time>2026-05-02T13:47:38.999Z</time></trkpt><trkpt lat="40.86143092372057" lon="8.960109555230924"><ele>42.599999999999994</ele><time>2026-05-02T13:47:39.999Z</time></trkpt><trkpt lat="40.861324066829496" lon="8.960156637257361"><ele>42.199999999999996</ele><time>2026-05-02T13:47:40.999Z</time></trkpt><trkpt lat="40.861219493337096" lon="8.960201565833726"><ele>41.8</ele><time>2026-05-02T13:47:41.999Z</time></trkpt><trkpt lat="40.86111643843844" lon="8.960245694474521"><ele>41.4</ele><time>2026-05-02T13:47:42.999Z</time></trkpt><trkpt lat="40.86101725657604" lon="8.960288164654521"><ele>41.0</ele><time>2026-05-02T13:47:44Z</time></trkpt><trkpt lat="40.860932639149475" lon="8.960325127237558"><ele>41.0</ele><time>2026-05-02T13:47:45Z</time></trkpt><trkpt lat="40.86085677505278" lon="8.960359568149869"><ele>41.0</ele><time>2026-05-02T13:47:46Z</time></trkpt><trkpt lat="40.86077295941973" lon="8.960397619135724"><ele>41.0</ele><time>2026-05-02T13:47:47Z</time></trkpt><trkpt lat="40.86068785166661" lon="8.960436256728325"><ele>41.0</ele><time>2026-05-02T13:47:48Z</time></trkpt><trkpt lat="40.860600961860335" lon="8.960475703337936"><ele>41.0</ele><time>2026-05-02T13:47:49Z</time></trkpt><trkpt lat="40.86050729449939" lon="8.960518226844398"><ele>41.0</ele><time>2026-05-02T13:47:50Z</time></trkpt><trkpt lat="40.86040645087303" lon="8.960563666436943"><ele>41.0</ele><time>2026-05-02T13:47:51Z</time></trkpt><trkpt lat="40.86029881683517" lon="8.96061067368743"><ele>41.0</ele><time>2026-05-02T13:47:52Z</time></trkpt><trkpt lat="40.86019160311862" lon="8.960657497364718"><ele>41.0</ele><time>2026-05-02T13:47:53Z</time></trkpt><trkpt lat="40.86006934938088" lon="8.96071202887312"><ele>40.25</ele><time>2026-05-02T13:47:54Z</time></trkpt><trkpt lat="40.8599479581768" lon="8.960769475539594"><ele>39.5</ele><time>2026-05-02T13:47:55Z</time></trkpt><trkpt lat="40.859834909998796" lon="8.960826587652665"><ele>38.75</ele><time>2026-05-02T13:47:56Z</time></trkpt><trkpt lat="40.85973017467405" lon="8.960890182550806"><ele>38.0</ele><time>2026-05-02T13:47:57Z</time></trkpt><trkpt lat="40.859623771933855" lon="8.960970245033744"><ele>38.0</ele><time>2026-05-02T13:47:58Z</time></trkpt><trkpt lat="40.85950848062826" lon="8.9610583989775"><ele>38.0</ele><time>2026-05-02T13:47:59Z</time></trkpt><trkpt lat="40.859395601074326" lon="8.961136432089257"><ele>38.0</ele><time>2026-05-02T13:48:00Z</time></trkpt><trkpt lat="40.85928009388851" lon="8.961200751296289"><ele>38.0</ele><time>2026-05-02T13:48:01Z</time></trkpt><trkpt lat="40.859153133314784" lon="8.961264432070598"><ele>39.25</ele><time>2026-05-02T13:48:02Z</time></trkpt><trkpt lat="40.85901625810457" lon="8.961330987004317"><ele>40.5</ele><time>2026-05-02T13:48:03Z</time></trkpt><trkpt lat="40.85888589770808" lon="8.961391825049285"><ele>41.75</ele><time>2026-05-02T13:48:04Z</time></trkpt><trkpt lat="40.85875916421964" lon="8.96145269410742"><ele>43.0</ele><time>2026-05-02T13:48:05Z</time></trkpt><trkpt lat="40.858636572019535" lon="8.961514618574713"><ele>43.0</ele><time>2026-05-02T13:48:06Z</time></trkpt><trkpt lat="40.858530502307495" lon="8.961581780725455"><ele>43.0</ele><time>2026-05-02T13:48:07Z</time></trkpt><trkpt lat="40.858417094743054" lon="8.961667487154717"><ele>43.0</ele><time>2026-05-02T13:48:08Z</time></trkpt><trkpt lat="40.85830082227549" lon="8.961761273293034"><ele>43.0</ele><time>2026-05-02T13:48:09Z</time></trkpt><trkpt lat="40.85818586388881" lon="8.961854206315767"><ele>42.75</ele><time>2026-05-02T13:48:10Z</time></trkpt><trkpt lat="40.85806279824512" lon="8.961954092649854"><ele>42.5</ele><time>2026-05-02T13:48:11Z</time></trkpt><trkpt lat="40.85793833028026" lon="8.96205699238321"><ele>42.25</ele><time>2026-05-02T13:48:12Z</time></trkpt><trkpt lat="40.8578228511303" lon="8.962153734089323"><ele>42.0</ele><time>2026-05-02T13:48:13Z</time></trkpt><trkpt lat="40.85770995273899" lon="8.962250189943623"><ele>42.75</ele><time>2026-05-02T13:48:14Z</time></trkpt><trkpt lat="40.857604362890015" lon="8.962341016140583"><ele>43.5</ele><time>2026-05-02T13:48:15Z</time></trkpt><trkpt lat="40.85750115653327" lon="8.962429792402537"><ele>44.25</ele><time>2026-05-02T13:48:16Z</time></trkpt><trkpt lat="40.85740100164799" lon="8.962515227389233"><ele>45.0</ele><time>2026-05-02T13:48:17Z</time></trkpt><trkpt lat="40.857323104469195" lon="8.962577908077858"><ele>45.0</ele><time>2026-05-02T13:48:18Z</time></trkpt><trkpt lat="40.85723129448489" lon="8.962649823838623"><ele>45.0</ele><time>2026-05-02T13:48:19Z</time></trkpt><trkpt lat="40.85714048927661" lon="8.962744528131092"><ele>45.0</ele><time>2026-05-02T13:48:20Z</time></trkpt><trkpt lat="40.857032747977435" lon="8.962833569374398"><ele>45.0</ele><time>2026-05-02T13:48:21Z</time></trkpt><trkpt lat="40.856935023305766" lon="8.962931180794508"><ele>45.0</ele><time>2026-05-02T13:48:22Z</time></trkpt><trkpt lat="40.8568666300664" lon="8.963028964571203"><ele>45.0</ele><time>2026-05-02T13:48:23Z</time></trkpt><trkpt lat="40.85681287173489" lon="8.963142109124258"><ele>45.0</ele><time>2026-05-02T13:48:24Z</time></trkpt><trkpt lat="40.856789568531944" lon="8.963252832313827"><ele>45.0</ele><time>2026-05-02T13:48:25Z</time></trkpt><trkpt lat="40.8567831940344" lon="8.963387117914325"><ele>45.0</ele><time>2026-05-02T13:48:26Z</time></trkpt><trkpt lat="40.85678088227626" lon="8.963536990725101"><ele>44.75</ele><time>2026-05-02T13:48:27Z</time></trkpt><trkpt lat="40.8567790871169" lon="8.963762563594045"><ele>44.5</ele><time>2026-05-02T13:48:28Z</time></trkpt><trkpt lat="40.85678336808207" lon="8.963952080121814"><ele>44.25</ele><time>2026-05-02T13:48:29Z</time></trkpt><trkpt lat="40.85679472519476" lon="8.964129106402947"><ele>44.0</ele><time>2026-05-02T13:48:30Z</time></trkpt><trkpt lat="40.85680651320529" lon="8.964288096430687"><ele>44.5</ele><time>2026-05-02T13:48:31Z</time></trkpt><trkpt lat="40.85680450062688" lon="8.964387617816561"><ele>45.0</ele><time>2026-05-02T13:48:32Z</time></trkpt><trkpt lat="40.85679923822393" lon="8.964491910402755"><ele>45.5</ele><time>2026-05-02T13:48:33Z</time></trkpt><trkpt lat="40.85679824236602" lon="8.96462230699002"><ele>46.0</ele><time>2026-05-02T13:48:34Z</time></trkpt><trkpt lat="40.85680356508857" lon="8.96475332970205"><ele>46.5</ele><time>2026-05-02T13:48:35Z</time></trkpt><trkpt lat="40.85680600742811" lon="8.964881892542719"><ele>47.0</ele><time>2026-05-02T13:48:35.999Z</time></trkpt><trkpt lat="40.856813807955795" lon="8.965001016054911"><ele>47.400000000000006</ele><time>2026-05-02T13:48:36.999Z</time></trkpt><trkpt lat="40.85679990727072" lon="8.965126747009037"><ele>47.800000000000004</ele><time>2026-05-02T13:48:37.999Z</time></trkpt><trkpt lat="40.85681093854366" lon="8.96527822753898"><ele>48.2</ele><time>2026-05-02T13:48:38.999Z</time></trkpt><trkpt lat="40.856807553315775" lon="8.965423243423828"><ele>48.6</ele><time>2026-05-02T13:48:39.999Z</time></trkpt><trkpt lat="40.85680607437886" lon="8.965573591255993"><ele>49.0</ele><time>2026-05-02T13:48:40.999Z</time></trkpt><trkpt lat="40.85680604704757" lon="8.965739714534209"><ele>49.75</ele><time>2026-05-02T13:48:41.999Z</time></trkpt><trkpt lat="40.856805858407924" lon="8.96592253613779"><ele>50.5</ele><time>2026-05-02T13:48:42.999Z</time></trkpt><trkpt lat="40.85680765806477" lon="8.966093765664452"><ele>51.25</ele><time>2026-05-02T13:48:43.999Z</time></trkpt><trkpt lat="40.85680859989958" lon="8.966252948795761"><ele>52.0</ele><time>2026-05-02T13:48:44.999Z</time></trkpt><trkpt lat="40.85680759538259" lon="8.9663827360561"><ele>52.0</ele><time>2026-05-02T13:48:45.999Z</time></trkpt><trkpt lat="40.85680043310805" lon="8.966486284456991"><ele>52.0</ele><time>2026-05-02T13:48:46.999Z</time></trkpt><trkpt lat="40.85679273793421" lon="8.966618012995356"><ele>52.0</ele><time>2026-05-02T13:48:48.999Z</time></trkpt><trkpt lat="40.85681687635714" lon="8.966494533952233"><ele>52.0</ele><time>2026-05-02T13:49:03.999Z</time></trkpt><trkpt lat="40.85679308134629" lon="8.966400135365738"><ele>52.0</ele><time>2026-05-02T13:49:05.999Z</time></trkpt><trkpt lat="40.85682545805727" lon="8.9661152678646"><ele>52.0</ele><time>2026-05-02T13:49:06.999Z</time></trkpt><trkpt lat="40.85680977083802" lon="8.966241653608227"><ele>52.0</ele><time>2026-05-02T13:49:07.999Z</time></trkpt><trkpt lat="40.85679071094236" lon="8.966094735435522"><ele>52.0</ele><time>2026-05-02T13:49:09.999Z</time></trkpt><trkpt lat="40.856728114616" lon="8.966072718022751"><ele>52.0</ele><time>2026-05-02T13:49:11.999Z</time></trkpt><trkpt lat="40.85663432667145" lon="8.965993575891526"><ele>52.0</ele><time>2026-05-02T13:49:13.999Z</time></trkpt><trkpt lat="40.85653591750152" lon="8.965974360240729"><ele>51.83333333333333</ele><time>2026-05-02T13:49:15.999Z</time></trkpt><trkpt lat="40.856473017849304" lon="8.965954349270266"><ele>51.666666666666664</ele><time>2026-05-02T13:49:16.999Z</time></trkpt><trkpt lat="40.856398680398506" lon="8.965907301675328"><ele>51.5</ele><time>2026-05-02T13:49:17.999Z</time></trkpt><trkpt lat="40.85632580188557" lon="8.965877471529746"><ele>51.33333333333333</ele><time>2026-05-02T13:49:18.999Z</time></trkpt><trkpt lat="40.85625432822599" lon="8.965848267181048"><ele>51.166666666666664</ele><time>2026-05-02T13:49:19.999Z</time></trkpt><trkpt lat="40.85617394703361" lon="8.965820006807306"><ele>51.0</ele><time>2026-05-02T13:49:20.999Z</time></trkpt><trkpt lat="40.85608283873537" lon="8.965790825093086"><ele>51.0</ele><time>2026-05-02T13:49:21.999Z</time></trkpt><trkpt lat="40.855980929159465" lon="8.965762819046088"><ele>51.0</ele><time>2026-05-02T13:49:22.999Z</time></trkpt><trkpt lat="40.85587783346757" lon="8.965749784916259"><ele>51.0</ele><time>2026-05-02T13:49:23.999Z</time></trkpt><trkpt lat="40.85577680792276" lon="8.965739024129158"><ele>51.0</ele><time>2026-05-02T13:49:24.999Z</time></trkpt><trkpt lat="40.8556740434066" lon="8.965718136593114"><ele>51.0</ele><time>2026-05-02T13:49:25.999Z</time></trkpt><trkpt lat="40.855580229411345" lon="8.965664404661554"><ele>51.0</ele><time>2026-05-02T13:49:26.999Z</time></trkpt><trkpt lat="40.855493451628845" lon="8.965654599390167"><ele>51.0</ele><time>2026-05-02T13:49:27.999Z</time></trkpt><trkpt lat="40.85541223084816" lon="8.96563065993055"><ele>51.0</ele><time>2026-05-02T13:49:28.999Z</time></trkpt><trkpt lat="40.85534942251432" lon="8.965668144519816"><ele>51.0</ele><time>2026-05-02T13:49:29.999Z</time></trkpt><trkpt lat="40.855261594252354" lon="8.965675954344686"><ele>51.0</ele><time>2026-05-02T13:49:30.999Z</time></trkpt><trkpt lat="40.85513330905903" lon="8.96569055989102"><ele>52.0</ele><time>2026-05-02T13:49:31.999Z</time></trkpt><trkpt lat="40.85498121144351" lon="8.965698930012852"><ele>53.0</ele><time>2026-05-02T13:49:32.999Z</time></trkpt><trkpt lat="40.85483803828004" lon="8.965685933435035"><ele>54.0</ele><time>2026-05-02T13:49:33.999Z</time></trkpt><trkpt lat="40.85468160378411" lon="8.965672146605415"><ele>54.0</ele><time>2026-05-02T13:49:34.999Z</time></trkpt><trkpt lat="40.85453457942298" lon="8.965690959341368"><ele>54.0</ele><time>2026-05-02T13:49:35.999Z</time></trkpt><trkpt lat="40.85441581261391" lon="8.965679663115024"><ele>54.0</ele><time>2026-05-02T13:49:36.999Z</time></trkpt><trkpt lat="40.85426801423359" lon="8.965628149388381"><ele>54.0</ele><time>2026-05-02T13:49:38.999Z</time></trkpt><trkpt lat="40.85417354928208" lon="8.96559437313432"><ele>54.5</ele><time>2026-05-02T13:49:39.999Z</time></trkpt><trkpt lat="40.854058165303655" lon="8.965555845933117"><ele>55.0</ele><time>2026-05-02T13:49:40.999Z</time></trkpt><trkpt lat="40.85391185339803" lon="8.965507917722217"><ele>55.5</ele><time>2026-05-02T13:49:41.999Z</time></trkpt><trkpt lat="40.85381084133622" lon="8.965474828538387"><ele>56.0</ele><time>2026-05-02T13:49:42.999Z</time></trkpt><trkpt lat="40.85372289742618" lon="8.96544155163012"><ele>56.0</ele><time>2026-05-02T13:49:43.999Z</time></trkpt><trkpt lat="40.853660951742974" lon="8.965418204525099"><ele>55.99999999999999</ele><time>2026-05-02T13:49:44.999Z</time></trkpt><trkpt lat="40.85356117075344" lon="8.965380597145602"><ele>55.99999999999999</ele><time>2026-05-02T13:49:46.999Z</time></trkpt><trkpt lat="40.853437910346926" lon="8.965579775651463"><ele>56.0</ele><time>2026-05-02T13:49:48.999Z</time></trkpt><trkpt lat="40.8533942238886" lon="8.965671915375566"><ele>56.0</ele><time>2026-05-02T13:49:50Z</time></trkpt><trkpt lat="40.8533431662731" lon="8.965785288584849"><ele>57.199999999999996</ele><time>2026-05-02T13:49:51Z</time></trkpt><trkpt lat="40.85327104755941" lon="8.965889695080667"><ele>58.39999999999999</ele><time>2026-05-02T13:49:52Z</time></trkpt><trkpt lat="40.85322168514108" lon="8.966010307662312"><ele>59.6</ele><time>2026-05-02T13:49:53Z</time></trkpt><trkpt lat="40.85315467579785" lon="8.966115816184752"><ele>60.8</ele><time>2026-05-02T13:49:54Z</time></trkpt><trkpt lat="40.85307792984223" lon="8.966251529558805"><ele>62.0</ele><time>2026-05-02T13:49:55Z</time></trkpt><trkpt lat="40.852991100124875" lon="8.966401916515165"><ele>62.0</ele><time>2026-05-02T13:49:56Z</time></trkpt><trkpt lat="40.85291137389221" lon="8.96654941523236"><ele>62.0</ele><time>2026-05-02T13:49:57Z</time></trkpt><trkpt lat="40.85284160043397" lon="8.96670698390247"><ele>62.0</ele><time>2026-05-02T13:49:58Z</time></trkpt><trkpt lat="40.852785016605516" lon="8.966882735801144"><ele>62.0</ele><time>2026-05-02T13:49:59Z</time></trkpt><trkpt lat="40.85272278112552" lon="8.967067953567488"><ele>62.25</ele><time>2026-05-02T13:50:00Z</time></trkpt><trkpt lat="40.852652729860026" lon="8.9672452694407"><ele>62.5</ele><time>2026-05-02T13:50:01Z</time></trkpt><trkpt lat="40.85258572526239" lon="8.967414634132345"><ele>62.75</ele><time>2026-05-02T13:50:02Z</time></trkpt><trkpt lat="40.85252901685973" lon="8.96757185877296"><ele>63.0</ele><time>2026-05-02T13:50:03Z</time></trkpt><trkpt lat="40.85247954733071" lon="8.967727444025929"><ele>64.75</ele><time>2026-05-02T13:50:04Z</time></trkpt><trkpt lat="40.852433143981514" lon="8.967901133350482"><ele>66.5</ele><time>2026-05-02T13:50:05Z</time></trkpt><trkpt lat="40.852395781076225" lon="8.968080130382384"><ele>68.25</ele><time>2026-05-02T13:50:06Z</time></trkpt><trkpt lat="40.85236566127506" lon="8.968265890250386"><ele>70.0</ele><time>2026-05-02T13:50:07Z</time></trkpt><trkpt lat="40.852351951288455" lon="8.968434417514164"><ele>70.0</ele><time>2026-05-02T13:50:08Z</time></trkpt><trkpt lat="40.85237826129133" lon="8.968616644603832"><ele>70.0</ele><time>2026-05-02T13:50:09Z</time></trkpt><trkpt lat="40.85241864988032" lon="8.968797467039703"><ele>70.0</ele><time>2026-05-02T13:50:10Z</time></trkpt><trkpt lat="40.85245845015548" lon="8.968979261026123"><ele>70.0</ele><time>2026-05-02T13:50:11Z</time></trkpt><trkpt lat="40.85248813877518" lon="8.96913861741619"><ele>70.25</ele><time>2026-05-02T13:50:12Z</time></trkpt><trkpt lat="40.852522108472016" lon="8.969305707733595"><ele>70.5</ele><time>2026-05-02T13:50:13Z</time></trkpt><trkpt lat="40.852551952280805" lon="8.969475979856739"><ele>70.75</ele><time>2026-05-02T13:50:14Z</time></trkpt><trkpt lat="40.852555839777594" lon="8.969660674058236"><ele>71.0</ele><time>2026-05-02T13:50:15Z</time></trkpt><trkpt lat="40.852533644480864" lon="8.969861056867359"><ele>72.0</ele><time>2026-05-02T13:50:16Z</time></trkpt><trkpt lat="40.85249884048194" lon="8.970044300329413"><ele>73.0</ele><time>2026-05-02T13:50:17Z</time></trkpt><trkpt lat="40.85244994929454" lon="8.970228158917926"><ele>74.0</ele><time>2026-05-02T13:50:18Z</time></trkpt><trkpt lat="40.852406865626655" lon="8.970411519734729"><ele>75.0</ele><time>2026-05-02T13:50:19Z</time></trkpt><trkpt lat="40.85237960181287" lon="8.97059718962645"><ele>75.0</ele><time>2026-05-02T13:50:20Z</time></trkpt><trkpt lat="40.85237942955755" lon="8.97077616930826"><ele>75.0</ele><time>2026-05-02T13:50:21Z</time></trkpt><trkpt lat="40.85240410057638" lon="8.970927305156671"><ele>75.0</ele><time>2026-05-02T13:50:22Z</time></trkpt><trkpt lat="40.852445147781076" lon="8.971083037744547"><ele>75.0</ele><time>2026-05-02T13:50:23Z</time></trkpt><trkpt lat="40.852493073602226" lon="8.971219515261131"><ele>74.6</ele><time>2026-05-02T13:50:24Z</time></trkpt><trkpt lat="40.85256029394135" lon="8.971345939459937"><ele>74.2</ele><time>2026-05-02T13:50:25Z</time></trkpt><trkpt lat="40.85263983467604" lon="8.971461111495236"><ele>73.8</ele><time>2026-05-02T13:50:26Z</time></trkpt><trkpt lat="40.852698240163384" lon="8.971563883252202"><ele>73.4</ele><time>2026-05-02T13:50:27Z</time></trkpt><trkpt lat="40.8527427047358" lon="8.971672425402078"><ele>73.0</ele><time>2026-05-02T13:50:28Z</time></trkpt><trkpt lat="40.852778018415975" lon="8.971742766485123"><ele>73.0</ele><time>2026-05-02T13:50:29Z</time></trkpt><trkpt lat="40.852627805362914" lon="8.971977244680692"><ele>73.0</ele><time>2026-05-02T13:50:31Z</time></trkpt><trkpt lat="40.85254619341048" lon="8.972029945061312"><ele>73.0</ele><time>2026-05-02T13:50:32Z</time></trkpt><trkpt lat="40.852449867012524" lon="8.972071737352238"><ele>73.0</ele><time>2026-05-02T13:50:33Z</time></trkpt><trkpt lat="40.8523542143824" lon="8.972105921739503"><ele>74.2</ele><time>2026-05-02T13:50:34Z</time></trkpt><trkpt lat="40.85224614670463" lon="8.97215589290802"><ele>75.4</ele><time>2026-05-02T13:50:35Z</time></trkpt><trkpt lat="40.85214211176894" lon="8.972183415488242"><ele>76.60000000000001</ele><time>2026-05-02T13:50:36Z</time></trkpt><trkpt lat="40.85205735089553" lon="8.972213071217897"><ele>77.8</ele><time>2026-05-02T13:50:37Z</time></trkpt><trkpt lat="40.85198313364985" lon="8.972271267388082"><ele>79.0</ele><time>2026-05-02T13:50:38Z</time></trkpt><trkpt lat="40.85193856528007" lon="8.972340916801121"><ele>79.0</ele><time>2026-05-02T13:50:39Z</time></trkpt><trkpt lat="40.8519039982962" lon="8.97244147547401"><ele>79.0</ele><time>2026-05-02T13:50:40Z</time></trkpt><trkpt lat="40.85187110790758" lon="8.972565154978705"><ele>79.0</ele><time>2026-05-02T13:50:41Z</time></trkpt><trkpt lat="40.85184525192509" lon="8.972737537321889"><ele>79.0</ele><time>2026-05-02T13:50:42Z</time></trkpt><trkpt lat="40.85183600550567" lon="8.972864100632776"><ele>79.0</ele><time>2026-05-02T13:50:43Z</time></trkpt><trkpt lat="40.85183024793881" lon="8.972949630885541"><ele>79.2</ele><time>2026-05-02T13:50:44Z</time></trkpt><trkpt lat="40.85180714404686" lon="8.97311441354958"><ele>79.4</ele><time>2026-05-02T13:50:46Z</time></trkpt><trkpt lat="40.8517772950584" lon="8.97323399593987"><ele>79.6</ele><time>2026-05-02T13:50:47Z</time></trkpt><trkpt lat="40.85175278693755" lon="8.973353289362986"><ele>79.8</ele><time>2026-05-02T13:50:48Z</time></trkpt><trkpt lat="40.851727892928956" lon="8.973471152826349"><ele>80.0</ele><time>2026-05-02T13:50:49Z</time></trkpt><trkpt lat="40.85169843991726" lon="8.973597081879156"><ele>82.0</ele><time>2026-05-02T13:50:50Z</time></trkpt><trkpt lat="40.85167476443644" lon="8.973725317756228"><ele>84.0</ele><time>2026-05-02T13:50:51Z</time></trkpt><trkpt lat="40.85165490584402" lon="8.973860319849774"><ele>86.0</ele><time>2026-05-02T13:50:52Z</time></trkpt><trkpt lat="40.85164122182112" lon="8.973996385612404"><ele>88.0</ele><time>2026-05-02T13:50:52.999Z</time></trkpt><trkpt lat="40.85162856017082" lon="8.974133265364879"><ele>90.0</ele><time>2026-05-02T13:50:53.999Z</time></trkpt><trkpt lat="40.851615337790086" lon="8.974276711013959"><ele>90.0</ele><time>2026-05-02T13:50:54.999Z</time></trkpt><trkpt lat="40.851600692573896" lon="8.974423200366273"><ele>90.0</ele><time>2026-05-02T13:50:55.999Z</time></trkpt><trkpt lat="40.851584218094445" lon="8.97456161078052"><ele>90.0</ele><time>2026-05-02T13:50:56.999Z</time></trkpt><trkpt lat="40.85157123799981" lon="8.974692069317479"><ele>90.0</ele><time>2026-05-02T13:50:57.999Z</time></trkpt><trkpt lat="40.85155688286474" lon="8.97481581008009"><ele>90.0</ele><time>2026-05-02T13:50:58.999Z</time></trkpt><trkpt lat="40.851536312969166" lon="8.974942281873494"><ele>90.0</ele><time>2026-05-02T13:50:59.999Z</time></trkpt><trkpt lat="40.85151649797362" lon="8.975068573373624"><ele>90.0</ele><time>2026-05-02T13:51:00.999Z</time></trkpt><trkpt lat="40.85149675746503" lon="8.975194440910316"><ele>90.0</ele><time>2026-05-02T13:51:01.999Z</time></trkpt><trkpt lat="40.8514738737584" lon="8.975322450413682"><ele>90.0</ele><time>2026-05-02T13:51:02.999Z</time></trkpt><trkpt lat="40.85145277887283" lon="8.975454702513758"><ele>90.0</ele><time>2026-05-02T13:51:03.999Z</time></trkpt><trkpt lat="40.851432455196175" lon="8.975583044568683"><ele>90.0</ele><time>2026-05-02T13:51:04.999Z</time></trkpt><trkpt lat="40.85140715756056" lon="8.975711146549436"><ele>90.0</ele><time>2026-05-02T13:51:05.999Z</time></trkpt><trkpt lat="40.851385283691755" lon="8.975830896409688"><ele>90.0</ele><time>2026-05-02T13:51:06.999Z</time></trkpt><trkpt lat="40.8513676562442" lon="8.975956109890568"><ele>90.0</ele><time>2026-05-02T13:51:07.999Z</time></trkpt><trkpt lat="40.85136828289255" lon="8.97609188644516"><ele>90.0</ele><time>2026-05-02T13:51:08.999Z</time></trkpt><trkpt lat="40.851337941089795" lon="8.97622440472024"><ele>89.8</ele><time>2026-05-02T13:51:09.999Z</time></trkpt><trkpt lat="40.85132272936169" lon="8.976360962657576"><ele>89.6</ele><time>2026-05-02T13:51:10.999Z</time></trkpt><trkpt lat="40.8512889851659" lon="8.976482578193501"><ele>89.4</ele><time>2026-05-02T13:51:11.999Z</time></trkpt><trkpt lat="40.85125084032417" lon="8.9766071769142"><ele>89.2</ele><time>2026-05-02T13:51:12.999Z</time></trkpt><trkpt lat="40.85121144356514" lon="8.976732924685766"><ele>89.0</ele><time>2026-05-02T13:51:13.999Z</time></trkpt><trkpt lat="40.851170778428994" lon="8.97686272038116"><ele>89.0</ele><time>2026-05-02T13:51:14.999Z</time></trkpt><trkpt lat="40.851130988681774" lon="8.976972462873166"><ele>89.0</ele><time>2026-05-02T13:51:15.999Z</time></trkpt><trkpt lat="40.8510231275956" lon="8.977045291713875"><ele>89.0</ele><time>2026-05-02T13:51:17.999Z</time></trkpt><trkpt lat="40.850919774277465" lon="8.97701907142996"><ele>89.0</ele><time>2026-05-02T13:51:19.999Z</time></trkpt><trkpt lat="40.85085572945428" lon="8.977004399079608"><ele>89.0</ele><time>2026-05-02T13:51:21.999Z</time></trkpt><trkpt lat="40.85074200780533" lon="8.977128825709034"><ele>89.6</ele><time>2026-05-02T13:51:26.999Z</time></trkpt><trkpt lat="40.85064090112413" lon="8.977208857050911"><ele>90.2</ele><time>2026-05-02T13:51:28.999Z</time></trkpt><trkpt lat="40.85056934988144" lon="8.977255610033492"><ele>90.8</ele><time>2026-05-02T13:51:29.999Z</time></trkpt><trkpt lat="40.85047984735484" lon="8.977312374469552"><ele>91.39999999999999</ele><time>2026-05-02T13:51:30.999Z</time></trkpt><trkpt lat="40.850407074281684" lon="8.977382395407972"><ele>92.0</ele><time>2026-05-02T13:51:31.999Z</time></trkpt><trkpt lat="40.85033106212404" lon="8.977432466851129"><ele>92.0</ele><time>2026-05-02T13:51:32.999Z</time></trkpt><trkpt lat="40.85025409887718" lon="8.977459758605702"><ele>92.0</ele><time>2026-05-02T13:51:33.999Z</time></trkpt><trkpt lat="40.85018410895047" lon="8.977495764548372"><ele>92.0</ele><time>2026-05-02T13:51:34.999Z</time></trkpt><trkpt lat="40.8501117548961" lon="8.977527070424522"><ele>92.0</ele><time>2026-05-02T13:51:35.999Z</time></trkpt><trkpt lat="40.85003526444216" lon="8.977559892114574"><ele>92.0</ele><time>2026-05-02T13:51:36.999Z</time></trkpt><trkpt lat="40.849956062543505" lon="8.977635670948038"><ele>92.0</ele><time>2026-05-02T13:51:37.999Z</time></trkpt><trkpt lat="40.84989245789118" lon="8.977713962175295"><ele>90.5</ele><time>2026-05-02T13:51:38.999Z</time></trkpt><trkpt lat="40.849840616104224" lon="8.977803292253723"><ele>89.0</ele><time>2026-05-02T13:51:39.999Z</time></trkpt><trkpt lat="40.8497703856379" lon="8.97787557276944"><ele>87.5</ele><time>2026-05-02T13:51:40.999Z</time></trkpt><trkpt lat="40.84971144873995" lon="8.977964898040083"><ele>86.0</ele><time>2026-05-02T13:51:41.999Z</time></trkpt><trkpt lat="40.8496762590349" lon="8.978066392694004"><ele>84.5</ele><time>2026-05-02T13:51:42.999Z</time></trkpt><trkpt lat="40.84966185386143" lon="8.978157763214176"><ele>83.0</ele><time>2026-05-02T13:51:43.999Z</time></trkpt><trkpt lat="40.84963287942073" lon="8.978319848794067"><ele>80.25</ele><time>2026-05-02T13:51:45.999Z</time></trkpt><trkpt lat="40.849618918079045" lon="8.978485210644402"><ele>77.5</ele><time>2026-05-02T13:51:47.999Z</time></trkpt><trkpt lat="40.84960053100748" lon="8.978648972776968"><ele>74.75</ele><time>2026-05-02T13:51:49.999Z</time></trkpt><trkpt lat="40.849561403254945" lon="8.978763036094513"><ele>72.0</ele><time>2026-05-02T13:51:51.999Z</time></trkpt><trkpt lat="40.84947314000838" lon="8.978687011422931"><ele>72.0</ele><time>2026-05-02T13:51:53.999Z</time></trkpt><trkpt lat="40.84933646984515" lon="8.978615992384793"><ele>72.0</ele><time>2026-05-02T13:51:56Z</time></trkpt><trkpt lat="40.84926509721204" lon="8.978643776860952"><ele>72.0</ele><time>2026-05-02T13:51:57Z</time></trkpt><trkpt lat="40.84920980083924" lon="8.978744654469983"><ele>72.0</ele><time>2026-05-02T13:51:58Z</time></trkpt><trkpt lat="40.84916348788679" lon="8.97881641685659"><ele>72.0</ele><time>2026-05-02T13:51:59Z</time></trkpt><trkpt lat="40.84908852098679" lon="8.97893966249204"><ele>72.16666666666667</ele><time>2026-05-02T13:52:00Z</time></trkpt><trkpt lat="40.84904132451071" lon="8.979018712250497"><ele>72.33333333333333</ele><time>2026-05-02T13:52:01Z</time></trkpt><trkpt lat="40.84894595965886" lon="8.979003932029475"><ele>72.5</ele><time>2026-05-02T13:52:02Z</time></trkpt><trkpt lat="40.84888943222066" lon="8.979044991259057"><ele>72.66666666666666</ele><time>2026-05-02T13:52:03Z</time></trkpt><trkpt lat="40.84882728701863" lon="8.979073531116573"><ele>72.83333333333333</ele><time>2026-05-02T13:52:04Z</time></trkpt><trkpt lat="40.84880497136243" lon="8.979165027444614"><ele>73.0</ele><time>2026-05-02T13:52:05Z</time></trkpt><trkpt lat="40.848723266688175" lon="8.979275518255008"><ele>73.0</ele><time>2026-05-02T13:52:07Z</time></trkpt><trkpt lat="40.84861177296826" lon="8.979238073716738"><ele>73.0</ele><time>2026-05-02T13:52:09Z</time></trkpt><trkpt lat="40.8485143255546" lon="8.97923406264173"><ele>73.0</ele><time>2026-05-02T13:52:11Z</time></trkpt><trkpt lat="40.84846428566461" lon="8.979302965866898"><ele>73.0</ele><time>2026-05-02T13:52:12Z</time></trkpt><trkpt lat="40.84844831801232" lon="8.979442353347078"><ele>73.0</ele><time>2026-05-02T13:52:14Z</time></trkpt><trkpt lat="40.84847332142948" lon="8.97952924331181"><ele>73.0</ele><time>2026-05-02T13:52:15Z</time></trkpt><trkpt lat="40.84850361531468" lon="8.97960794582095"><ele>73.0</ele><time>2026-05-02T13:52:16Z</time></trkpt><trkpt lat="40.84853406709588" lon="8.979696778197443"><ele>73.0</ele><time>2026-05-02T13:52:17Z</time></trkpt><trkpt lat="40.84857702417331" lon="8.979800127574663"><ele>73.0</ele><time>2026-05-02T13:52:18Z</time></trkpt><trkpt lat="40.84863079782893" lon="8.979866528006623"><ele>73.0</ele><time>2026-05-02T13:52:19Z</time></trkpt><trkpt lat="40.84868917687268" lon="8.979923382440049"><ele>73.0</ele><time>2026-05-02T13:52:20Z</time></trkpt><trkpt lat="40.84870516404996" lon="8.980005281227069"><ele>73.0</ele><time>2026-05-02T13:52:21Z</time></trkpt><trkpt lat="40.84862215304918" lon="8.980068967789983"><ele>71.8</ele><time>2026-05-02T13:52:23Z</time></trkpt><trkpt lat="40.84855530563965" lon="8.980111258567215"><ele>70.6</ele><time>2026-05-02T13:52:24Z</time></trkpt><trkpt lat="40.8485218266941" lon="8.98019703511007"><ele>69.4</ele><time>2026-05-02T13:52:25Z</time></trkpt><trkpt lat="40.8485012188477" lon="8.980373272755712"><ele>68.2</ele><time>2026-05-02T13:52:27Z</time></trkpt><trkpt lat="40.84849511832388" lon="8.98050810295669"><ele>67.0</ele><time>2026-05-02T13:52:28Z</time></trkpt><trkpt lat="40.84850012118966" lon="8.980661783046775"><ele>67.0</ele><time>2026-05-02T13:52:29Z</time></trkpt><trkpt lat="40.84850431202399" lon="8.980796309890566"><ele>67.0</ele><time>2026-05-02T13:52:30Z</time></trkpt><trkpt lat="40.84851192508893" lon="8.980921239181248"><ele>67.0</ele><time>2026-05-02T13:52:31Z</time></trkpt><trkpt lat="40.84853356222371" lon="8.981056658331282"><ele>67.0</ele><time>2026-05-02T13:52:32Z</time></trkpt><trkpt lat="40.84853835753901" lon="8.981223903617545"><ele>67.0</ele><time>2026-05-02T13:52:33Z</time></trkpt><trkpt lat="40.84856520077376" lon="8.98140620553921"><ele>64.8</ele><time>2026-05-02T13:52:34Z</time></trkpt><trkpt lat="40.84857968860146" lon="8.981564916985258"><ele>62.6</ele><time>2026-05-02T13:52:35Z</time></trkpt><trkpt lat="40.848603401438794" lon="8.981717196750099"><ele>60.39999999999999</ele><time>2026-05-02T13:52:36Z</time></trkpt><trkpt lat="40.848633100246836" lon="8.981855402971245"><ele>58.199999999999996</ele><time>2026-05-02T13:52:37Z</time></trkpt><trkpt lat="40.84866348389701" lon="8.981971137633206"><ele>56.0</ele><time>2026-05-02T13:52:38Z</time></trkpt><trkpt lat="40.84872777267771" lon="8.982130121424952"><ele>54.599999999999994</ele><time>2026-05-02T13:52:40Z</time></trkpt><trkpt lat="40.848747667323856" lon="8.98221202848722"><ele>53.199999999999996</ele><time>2026-05-02T13:52:41Z</time></trkpt><trkpt lat="40.848693061784196" lon="8.982359771878466"><ele>51.8</ele><time>2026-05-02T13:52:43Z</time></trkpt><trkpt lat="40.84866876165979" lon="8.982464692341555"><ele>50.400000000000006</ele><time>2026-05-02T13:52:44Z</time></trkpt><trkpt lat="40.84864447070618" lon="8.9825773490073"><ele>49.0</ele><time>2026-05-02T13:52:45Z</time></trkpt><trkpt lat="40.848634358206986" lon="8.982698704588003"><ele>49.0</ele><time>2026-05-02T13:52:46Z</time></trkpt><trkpt lat="40.848603394494305" lon="8.98284263239355"><ele>49.0</ele><time>2026-05-02T13:52:47Z</time></trkpt><trkpt lat="40.84857523589426" lon="8.98298782721277"><ele>49.0</ele><time>2026-05-02T13:52:48Z</time></trkpt><trkpt lat="40.84855280509283" lon="8.983118064254942"><ele>49.0</ele><time>2026-05-02T13:52:49Z</time></trkpt><trkpt lat="40.84853016190912" lon="8.983249018699413"><ele>49.0</ele><time>2026-05-02T13:52:50Z</time></trkpt><trkpt lat="40.84851386082404" lon="8.983380254689472"><ele>49.0</ele><time>2026-05-02T13:52:51Z</time></trkpt><trkpt lat="40.848498754665165" lon="8.983511975676784"><ele>49.0</ele><time>2026-05-02T13:52:52Z</time></trkpt><trkpt lat="40.84846739815497" lon="8.983642566109989"><ele>49.0</ele><time>2026-05-02T13:52:53Z</time></trkpt><trkpt lat="40.84844645353958" lon="8.983793973526026"><ele>49.0</ele><time>2026-05-02T13:52:54Z</time></trkpt><trkpt lat="40.84843953315479" lon="8.9839416671345"><ele>49.0</ele><time>2026-05-02T13:52:55Z</time></trkpt><trkpt lat="40.84841747766395" lon="8.984083460134213"><ele>51.75</ele><time>2026-05-02T13:52:56Z</time></trkpt><trkpt lat="40.84839642555304" lon="8.984229488573659"><ele>54.5</ele><time>2026-05-02T13:52:57Z</time></trkpt><trkpt lat="40.84836951938186" lon="8.984376816430498"><ele>57.25</ele><time>2026-05-02T13:52:58Z</time></trkpt><trkpt lat="40.84834522044863" lon="8.984533405464223"><ele>60.0</ele><time>2026-05-02T13:52:59Z</time></trkpt><trkpt lat="40.84832590378815" lon="8.984694472579308"><ele>60.0</ele><time>2026-05-02T13:53:00Z</time></trkpt><trkpt lat="40.84830807051038" lon="8.984856713303675"><ele>60.0</ele><time>2026-05-02T13:53:01Z</time></trkpt><trkpt lat="40.84828178011073" lon="8.985027262222097"><ele>60.0</ele><time>2026-05-02T13:53:02Z</time></trkpt><trkpt lat="40.84825699620958" lon="8.98519890440337"><ele>60.0</ele><time>2026-05-02T13:53:03Z</time></trkpt><trkpt lat="40.84823131286535" lon="8.985375800222961"><ele>58.75</ele><time>2026-05-02T13:53:04Z</time></trkpt><trkpt lat="40.84819985070025" lon="8.98554904836186"><ele>57.5</ele><time>2026-05-02T13:53:05Z</time></trkpt><trkpt lat="40.84816117750115" lon="8.98571320081285"><ele>56.25</ele><time>2026-05-02T13:53:06Z</time></trkpt><trkpt lat="40.84810993748185" lon="8.985867385740663"><ele>55.0</ele><time>2026-05-02T13:53:06.999Z</time></trkpt><trkpt lat="40.84806535700287" lon="8.986028342817669"><ele>54.5</ele><time>2026-05-02T13:53:07.999Z</time></trkpt><trkpt lat="40.84802387339685" lon="8.986195390063823"><ele>54.0</ele><time>2026-05-02T13:53:08.999Z</time></trkpt><trkpt lat="40.84796044688147" lon="8.986358023779474"><ele>53.5</ele><time>2026-05-02T13:53:09.999Z</time></trkpt><trkpt lat="40.8479103334552" lon="8.986528278528962"><ele>53.0</ele><time>2026-05-02T13:53:10.999Z</time></trkpt><trkpt lat="40.847872416429276" lon="8.986717550732775"><ele>54.25</ele><time>2026-05-02T13:53:11.999Z</time></trkpt><trkpt lat="40.847815454028094" lon="8.986899015304532"><ele>55.5</ele><time>2026-05-02T13:53:12.999Z</time></trkpt><trkpt lat="40.84776344718977" lon="8.987082686863987"><ele>56.75</ele><time>2026-05-02T13:53:13.999Z</time></trkpt><trkpt lat="40.84768796916617" lon="8.987251756283756"><ele>58.0</ele><time>2026-05-02T13:53:14.999Z</time></trkpt><trkpt lat="40.847607492924844" lon="8.987414599701138"><ele>56.0</ele><time>2026-05-02T13:53:15.999Z</time></trkpt><trkpt lat="40.84751729653296" lon="8.987572215687255"><ele>54.0</ele><time>2026-05-02T13:53:16.999Z</time></trkpt><trkpt lat="40.84741691162394" lon="8.987723494485975"><ele>52.0</ele><time>2026-05-02T13:53:17.999Z</time></trkpt><trkpt lat="40.84730930031048" lon="8.987874387323295"><ele>52.0</ele><time>2026-05-02T13:53:18.999Z</time></trkpt><trkpt lat="40.84719646655091" lon="8.988032387848316"><ele>52.0</ele><time>2026-05-02T13:53:19.999Z</time></trkpt><trkpt lat="40.84708654775043" lon="8.988188377873046"><ele>52.0</ele><time>2026-05-02T13:53:20.999Z</time></trkpt><trkpt lat="40.84698082201215" lon="8.988375939075945"><ele>52.0</ele><time>2026-05-02T13:53:21.999Z</time></trkpt><trkpt lat="40.846861345115656" lon="8.9885481157425"><ele>52.0</ele><time>2026-05-02T13:53:22.999Z</time></trkpt><trkpt lat="40.84672878044685" lon="8.98870930290869"><ele>52.0</ele><time>2026-05-02T13:53:23.999Z</time></trkpt><trkpt lat="40.84661247729613" lon="8.988877234809229"><ele>52.0</ele><time>2026-05-02T13:53:24.999Z</time></trkpt><trkpt lat="40.846504557436695" lon="8.989033269622256"><ele>52.0</ele><time>2026-05-02T13:53:25.999Z</time></trkpt><trkpt lat="40.846413148202544" lon="8.989199636732668"><ele>52.0</ele><time>2026-05-02T13:53:26.999Z</time></trkpt><trkpt lat="40.84629931735848" lon="8.98933359190476"><ele>52.0</ele><time>2026-05-02T13:53:27.999Z</time></trkpt><trkpt lat="40.84620171006375" lon="8.989473178193471"><ele>52.0</ele><time>2026-05-02T13:53:28.999Z</time></trkpt><trkpt lat="40.84609322909697" lon="8.989603073237665"><ele>52.0</ele><time>2026-05-02T13:53:29.999Z</time></trkpt><trkpt lat="40.84597277543361" lon="8.98970062379236"><ele>52.0</ele><time>2026-05-02T13:53:30.999Z</time></trkpt><trkpt lat="40.845843449698734" lon="8.989805496924326"><ele>51.0</ele><time>2026-05-02T13:53:31.999Z</time></trkpt><trkpt lat="40.8457155994232" lon="8.989936877486642"><ele>50.0</ele><time>2026-05-02T13:53:32.999Z</time></trkpt><trkpt lat="40.845576999116844" lon="8.99006402246604"><ele>49.0</ele><time>2026-05-02T13:53:33.999Z</time></trkpt><trkpt lat="40.845430685899096" lon="8.990170803700302"><ele>49.0</ele><time>2026-05-02T13:53:34.999Z</time></trkpt><trkpt lat="40.84529286323949" lon="8.990295917361582"><ele>49.0</ele><time>2026-05-02T13:53:35.999Z</time></trkpt><trkpt lat="40.845151619215414" lon="8.990427184583128"><ele>49.0</ele><time>2026-05-02T13:53:36.999Z</time></trkpt><trkpt lat="40.845008682302826" lon="8.990559771031402"><ele>48.33333333333333</ele><time>2026-05-02T13:53:37.999Z</time></trkpt><trkpt lat="40.844866628859684" lon="8.990688478372496"><ele>47.666666666666664</ele><time>2026-05-02T13:53:38.999Z</time></trkpt><trkpt lat="40.84473139668448" lon="8.99081100550539"><ele>47.0</ele><time>2026-05-02T13:53:39.999Z</time></trkpt><trkpt lat="40.844611448606535" lon="8.990917263327164"><ele>47.0</ele><time>2026-05-02T13:53:40.999Z</time></trkpt><trkpt lat="40.84449743966493" lon="8.991017220543652"><ele>47.0</ele><time>2026-05-02T13:53:41.999Z</time></trkpt><trkpt lat="40.84438270350752" lon="8.991117815092721"><ele>47.0</ele><time>2026-05-02T13:53:42.999Z</time></trkpt><trkpt lat="40.84426220438879" lon="8.99121376704338"><ele>47.0</ele><time>2026-05-02T13:53:43.999Z</time></trkpt><trkpt lat="40.844136359049614" lon="8.991314322064554"><ele>47.25</ele><time>2026-05-02T13:53:44.999Z</time></trkpt><trkpt lat="40.84401188744672" lon="8.991420038345604"><ele>47.5</ele><time>2026-05-02T13:53:45.999Z</time></trkpt><trkpt lat="40.843901122601544" lon="8.991553359268313"><ele>47.75</ele><time>2026-05-02T13:53:46.999Z</time></trkpt><trkpt lat="40.843783372961724" lon="8.991673492187914"><ele>48.0</ele><time>2026-05-02T13:53:47.999Z</time></trkpt><trkpt lat="40.84366117613755" lon="8.991784949562636"><ele>48.0</ele><time>2026-05-02T13:53:48.999Z</time></trkpt><trkpt lat="40.843546963669276" lon="8.99191233627784"><ele>48.0</ele><time>2026-05-02T13:53:49.999Z</time></trkpt><trkpt lat="40.84343719911837" lon="8.992036057604809"><ele>48.0</ele><time>2026-05-02T13:53:50.999Z</time></trkpt><trkpt lat="40.84333965869263" lon="8.992142781973147"><ele>48.0</ele><time>2026-05-02T13:53:51.999Z</time></trkpt><trkpt lat="40.843245453506405" lon="8.992224116164506"><ele>49.0</ele><time>2026-05-02T13:53:52.999Z</time></trkpt><trkpt lat="40.8431378316773" lon="8.992295898486384"><ele>50.0</ele><time>2026-05-02T13:53:53.999Z</time></trkpt><trkpt lat="40.84302044574357" lon="8.99236657423765"><ele>51.0</ele><time>2026-05-02T13:53:54.999Z</time></trkpt><trkpt lat="40.84290297200257" lon="8.99243489958889"><ele>52.0</ele><time>2026-05-02T13:53:55.999Z</time></trkpt><trkpt lat="40.84277973880907" lon="8.992505015923594"><ele>51.5</ele><time>2026-05-02T13:53:56.999Z</time></trkpt><trkpt lat="40.842651281422306" lon="8.992578104691754"><ele>51.0</ele><time>2026-05-02T13:53:57.999Z</time></trkpt><trkpt lat="40.84251408611961" lon="8.992656165161293"><ele>50.5</ele><time>2026-05-02T13:53:58.999Z</time></trkpt><trkpt lat="40.842385457275554" lon="8.992759579797898"><ele>50.0</ele><time>2026-05-02T13:53:59.999Z</time></trkpt><trkpt lat="40.84224643400289" lon="8.9928316294265"><ele>50.0</ele><time>2026-05-02T13:54:00.999Z</time></trkpt><trkpt lat="40.842121476376974" lon="8.992934176599748"><ele>50.0</ele><time>2026-05-02T13:54:02Z</time></trkpt><trkpt lat="40.842039329459205" lon="8.993059608220838"><ele>50.0</ele><time>2026-05-02T13:54:03Z</time></trkpt><trkpt lat="40.84193931177823" lon="8.993183417407916"><ele>50.0</ele><time>2026-05-02T13:54:04Z</time></trkpt><trkpt lat="40.84183030862809" lon="8.99329624594901"><ele>51.0</ele><time>2026-05-02T13:54:05Z</time></trkpt><trkpt lat="40.84173594052686" lon="8.993431096620032"><ele>52.0</ele><time>2026-05-02T13:54:06Z</time></trkpt><trkpt lat="40.841678470327224" lon="8.993565651271043"><ele>53.0</ele><time>2026-05-02T13:54:07Z</time></trkpt><trkpt lat="40.841603987727" lon="8.993692947913711"><ele>54.0</ele><time>2026-05-02T13:54:08Z</time></trkpt><trkpt lat="40.84153005722147" lon="8.993818460682368"><ele>54.0</ele><time>2026-05-02T13:54:09Z</time></trkpt><trkpt lat="40.841447888139044" lon="8.99394883838892"><ele>54.0</ele><time>2026-05-02T13:54:10Z</time></trkpt><trkpt lat="40.84133733473427" lon="8.994039617318725"><ele>54.0</ele><time>2026-05-02T13:54:11Z</time></trkpt><trkpt lat="40.841248015334195" lon="8.994125783565607"><ele>54.0</ele><time>2026-05-02T13:54:12Z</time></trkpt><trkpt lat="40.841158587209506" lon="8.994212957752113"><ele>54.0</ele><time>2026-05-02T13:54:13Z</time></trkpt><trkpt lat="40.84109066678994" lon="8.994288473071244"><ele>54.00000000000001</ele><time>2026-05-02T13:54:14Z</time></trkpt><trkpt lat="40.841051470501526" lon="8.994364511086134"><ele>54.00000000000001</ele><time>2026-05-02T13:54:15Z</time></trkpt><trkpt lat="40.84103988063606" lon="8.994512292300335"><ele>54.0</ele><time>2026-05-02T13:54:17Z</time></trkpt><trkpt lat="40.841105337554254" lon="8.99464558950325"><ele>54.0</ele><time>2026-05-02T13:54:19Z</time></trkpt><trkpt lat="40.841154689241854" lon="8.994716313365288"><ele>54.0</ele><time>2026-05-02T13:54:20Z</time></trkpt><trkpt lat="40.8412278337022" lon="8.994801230134865"><ele>54.00000000000001</ele><time>2026-05-02T13:54:21Z</time></trkpt><trkpt lat="40.84129975831735" lon="8.994908135629105"><ele>54.00000000000001</ele><time>2026-05-02T13:54:22Z</time></trkpt><trkpt lat="40.84133087420165" lon="8.995026021977209"><ele>54.0</ele><time>2026-05-02T13:54:23Z</time></trkpt><trkpt lat="40.84135426315067" lon="8.995161018077662"><ele>54.0</ele><time>2026-05-02T13:54:24Z</time></trkpt><trkpt lat="40.84136293673169" lon="8.995327181650362"><ele>55.66666666666667</ele><time>2026-05-02T13:54:25Z</time></trkpt><trkpt lat="40.84140663468026" lon="8.995543633813773"><ele>57.333333333333336</ele><time>2026-05-02T13:54:26Z</time></trkpt><trkpt lat="40.841431867167756" lon="8.995734768261615"><ele>59.0</ele><time>2026-05-02T13:54:27Z</time></trkpt><trkpt lat="40.841471003614004" lon="8.995920703495038"><ele>60.75</ele><time>2026-05-02T13:54:28Z</time></trkpt><trkpt lat="40.841514105966056" lon="8.996113013845273"><ele>62.5</ele><time>2026-05-02T13:54:29Z</time></trkpt><trkpt lat="40.84154893456579" lon="8.99629350007875"><ele>64.25</ele><time>2026-05-02T13:54:30Z</time></trkpt><trkpt lat="40.84157666105931" lon="8.99644618862233"><ele>66.0</ele><time>2026-05-02T13:54:31Z</time></trkpt><trkpt lat="40.84160807203792" lon="8.996614953665448"><ele>66.0</ele><time>2026-05-02T13:54:32Z</time></trkpt><trkpt lat="40.841643343619154" lon="8.996783117617696"><ele>66.0</ele><time>2026-05-02T13:54:33Z</time></trkpt><trkpt lat="40.84167574300859" lon="8.996952805315727"><ele>66.0</ele><time>2026-05-02T13:54:34Z</time></trkpt><trkpt lat="40.8416939461305" lon="8.997121002489067"><ele>66.0</ele><time>2026-05-02T13:54:35Z</time></trkpt><trkpt lat="40.84168383219656" lon="8.997223259791411"><ele>66.0</ele><time>2026-05-02T13:54:36Z</time></trkpt><trkpt lat="40.84163335038386" lon="8.997324131000545"><ele>66.0</ele><time>2026-05-02T13:54:37Z</time></trkpt><trkpt lat="40.841593290003104" lon="8.997413526610874"><ele>66.0</ele><time>2026-05-02T13:54:38Z</time></trkpt><trkpt lat="40.84153935396465" lon="8.997526188429378"><ele>66.0</ele><time>2026-05-02T13:54:39Z</time></trkpt><trkpt lat="40.84148565961057" lon="8.997678087333073"><ele>66.0</ele><time>2026-05-02T13:54:40Z</time></trkpt><trkpt lat="40.841403799014756" lon="8.99783979192461"><ele>67.0</ele><time>2026-05-02T13:54:41Z</time></trkpt><trkpt lat="40.84132931114595" lon="8.997985542286175"><ele>68.0</ele><time>2026-05-02T13:54:42Z</time></trkpt><trkpt lat="40.841254028495555" lon="8.998120675636493"><ele>69.0</ele><time>2026-05-02T13:54:43Z</time></trkpt><trkpt lat="40.84116032966962" lon="8.998214922044928"><ele>70.0</ele><time>2026-05-02T13:54:44Z</time></trkpt><trkpt lat="40.84107839077087" lon="8.998286791709512"><ele>70.83333333333333</ele><time>2026-05-02T13:54:45Z</time></trkpt><trkpt lat="40.84101096276531" lon="8.998341822642944"><ele>71.66666666666666</ele><time>2026-05-02T13:54:46Z</time></trkpt><trkpt lat="40.840914997509195" lon="8.998294517515378"><ele>72.5</ele><time>2026-05-02T13:54:47Z</time></trkpt><trkpt lat="40.84082801096457" lon="8.998253378961056"><ele>73.33333333333333</ele><time>2026-05-02T13:54:48Z</time></trkpt><trkpt lat="40.84074688456478" lon="8.998203576443826"><ele>74.16666666666667</ele><time>2026-05-02T13:54:49Z</time></trkpt><trkpt lat="40.840673829640565" lon="8.998154812267225"><ele>75.0</ele><time>2026-05-02T13:54:50Z</time></trkpt><trkpt lat="40.84061613513903" lon="8.998116274499413"><ele>75.0</ele><time>2026-05-02T13:54:51Z</time></trkpt><trkpt lat="40.840553731269054" lon="8.998074591056213"><ele>75.0</ele><time>2026-05-02T13:54:52Z</time></trkpt><trkpt lat="40.840481802168114" lon="8.998026545237934"><ele>75.0</ele><time>2026-05-02T13:54:55Z</time></trkpt><trkpt lat="40.840563459692525" lon="8.998081089091473"><ele>75.0</ele><time>2026-05-02T13:55:19Z</time></trkpt><trkpt lat="40.840620725767614" lon="8.998120291069931"><ele>75.0</ele><time>2026-05-02T13:55:20Z</time></trkpt><trkpt lat="40.84068545816268" lon="8.99819610981589"><ele>75.0</ele><time>2026-05-02T13:55:21Z</time></trkpt><trkpt lat="40.84074617343244" lon="8.998240822101442"><ele>75.0</ele><time>2026-05-02T13:55:21.999Z</time></trkpt><trkpt lat="40.84070069651842" lon="8.998303065166144"><ele>75.0</ele><time>2026-05-02T13:55:25.999Z</time></trkpt><trkpt lat="40.840632915729635" lon="8.998287955265027"><ele>75.0</ele><time>2026-05-02T13:55:28.999Z</time></trkpt><trkpt lat="40.84053922778455" lon="8.998269937002043"><ele>75.0</ele><time>2026-05-02T13:55:30.999Z</time></trkpt><trkpt lat="40.8405212926106" lon="8.998052923319785"><ele>75.0</ele><time>2026-05-02T13:55:32.999Z</time></trkpt><trkpt lat="40.840418742316466" lon="8.997984423644848"><ele>75.0</ele><time>2026-05-02T13:55:34.999Z</time></trkpt><trkpt lat="40.84035485549836" lon="8.997941912961258"><ele>75.0</ele><time>2026-05-02T13:55:35.999Z</time></trkpt><trkpt lat="40.84024161691359" lon="8.997866630895567"><ele>75.0</ele><time>2026-05-02T13:55:37.999Z</time></trkpt><trkpt lat="40.84018015355144" lon="8.997823661866365"><ele>75.0</ele><time>2026-05-02T13:55:38.999Z</time></trkpt><trkpt lat="40.840067678124434" lon="8.997726690584908"><ele>75.0</ele><time>2026-05-02T13:55:40.999Z</time></trkpt><trkpt lat="40.84001058122533" lon="8.997668912408324"><ele>74.6</ele><time>2026-05-02T13:55:41.999Z</time></trkpt><trkpt lat="40.839956423231314" lon="8.99761013444527"><ele>74.2</ele><time>2026-05-02T13:55:42.999Z</time></trkpt><trkpt lat="40.83990429895859" lon="8.997548767435209"><ele>73.8</ele><time>2026-05-02T13:55:43.999Z</time></trkpt><trkpt lat="40.83982683722386" lon="8.997444936381445"><ele>73.4</ele><time>2026-05-02T13:55:45.999Z</time></trkpt><trkpt lat="40.83975097596957" lon="8.997327358366267"><ele>73.0</ele><time>2026-05-02T13:55:47.999Z</time></trkpt><trkpt lat="40.83970292829195" lon="8.997225210425567"><ele>73.0</ele><time>2026-05-02T13:55:49.999Z</time></trkpt><trkpt lat="40.83951766164378" lon="8.997260629057685"><ele>73.0</ele><time>2026-05-02T13:55:54.999Z</time></trkpt><trkpt lat="40.839443483709616" lon="8.997323419884918"><ele>73.0</ele><time>2026-05-02T14:07:01Z</time></trkpt><trkpt lat="40.839344207823935" lon="8.997396611779745"><ele>73.0</ele><time>2026-05-02T14:07:51Z</time></trkpt><trkpt lat="40.83929168876426" lon="8.99744443097906"><ele>71.0</ele><time>2026-05-02T14:07:53Z</time></trkpt><trkpt lat="40.839207972175316" lon="8.99754182164972"><ele>69.0</ele><time>2026-05-02T14:07:56Z</time></trkpt><trkpt lat="40.83914293634665" lon="8.997592849536318"><ele>67.0</ele><time>2026-05-02T14:16:07Z</time></trkpt><trkpt lat="40.83905004144884" lon="8.997509407848224"><ele>65.0</ele><time>2026-05-02T14:16:09Z</time></trkpt><trkpt lat="40.83893419299751" lon="8.997493073174956"><ele>63.0</ele><time>2026-05-02T14:16:11Z</time></trkpt><trkpt lat="40.83881187145792" lon="8.997484471207247"><ele>63.0</ele><time>2026-05-02T14:16:13Z</time></trkpt><trkpt lat="40.83873935356992" lon="8.997482912124392"><ele>63.0</ele><time>2026-05-02T14:16:14Z</time></trkpt><trkpt lat="40.83866477315206" lon="8.997454133769141"><ele>63.0</ele><time>2026-05-02T14:16:15Z</time></trkpt><trkpt lat="40.838566289596216" lon="8.997450864260683"><ele>63.0</ele><time>2026-05-02T14:16:17Z</time></trkpt><trkpt lat="40.838501653423286" lon="8.99746770590317"><ele>63.0</ele><time>2026-05-02T14:16:20Z</time></trkpt><trkpt lat="40.83850264118756" lon="8.997618468497059"><ele>63.0</ele><time>2026-05-02T14:16:21Z</time></trkpt><trkpt lat="40.83852111298846" lon="8.997710365138971"><ele>63.0</ele><time>2026-05-02T14:16:23Z</time></trkpt><trkpt lat="40.838569736402036" lon="8.997809828314697"><ele>63.0</ele><time>2026-05-02T14:16:25Z</time></trkpt><trkpt lat="40.83863192672081" lon="8.997923913523685"><ele>63.0</ele><time>2026-05-02T14:16:27Z</time></trkpt><trkpt lat="40.83864801660941" lon="8.998045767930074"><ele>63.0</ele><time>2026-05-02T14:16:29Z</time></trkpt><trkpt lat="40.838690013601834" lon="8.998202809752929"><ele>63.0</ele><time>2026-05-02T14:16:31Z</time></trkpt><trkpt lat="40.83871434561006" lon="8.99831595756982"><ele>63.5</ele><time>2026-05-02T14:16:33Z</time></trkpt><trkpt lat="40.83866493141643" lon="8.99837194826726"><ele>64.0</ele><time>2026-05-02T14:16:35Z</time></trkpt><trkpt lat="40.838584841475395" lon="8.998408592753085"><ele>64.5</ele><time>2026-05-02T14:16:37Z</time></trkpt><trkpt lat="40.83851147007318" lon="8.998449788605509"><ele>65.0</ele><time>2026-05-02T14:16:38Z</time></trkpt><trkpt lat="40.83844895113218" lon="8.998485356295568"><ele>65.5</ele><time>2026-05-02T14:16:39Z</time></trkpt><trkpt lat="40.83838380065125" lon="8.998530321486815"><ele>66.0</ele><time>2026-05-02T14:16:40Z</time></trkpt><trkpt lat="40.838312628508774" lon="8.998581660341145"><ele>68.33333333333333</ele><time>2026-05-02T14:16:41Z</time></trkpt><trkpt lat="40.83822763966083" lon="8.998622290650584"><ele>70.66666666666667</ele><time>2026-05-02T14:16:42Z</time></trkpt><trkpt lat="40.83815879882462" lon="8.998685716711146"><ele>73.0</ele><time>2026-05-02T14:16:43Z</time></trkpt><trkpt lat="40.83811967346934" lon="8.998773744061937"><ele>75.33333333333334</ele><time>2026-05-02T14:16:44Z</time></trkpt><trkpt lat="40.83805979767518" lon="8.998826803750163"><ele>77.66666666666667</ele><time>2026-05-02T14:16:45Z</time></trkpt><trkpt lat="40.83798204394932" lon="8.998856232828262"><ele>80.0</ele><time>2026-05-02T14:16:46Z</time></trkpt><trkpt lat="40.83789621577481" lon="8.998908666494723"><ele>80.0</ele><time>2026-05-02T14:16:47Z</time></trkpt><trkpt lat="40.83782721903072" lon="8.998945500277072"><ele>80.0</ele><time>2026-05-02T14:16:48Z</time></trkpt><trkpt lat="40.83774766130107" lon="8.998972336591493"><ele>80.0</ele><time>2026-05-02T14:16:49Z</time></trkpt><trkpt lat="40.83766890432969" lon="8.998979914734925"><ele>80.0</ele><time>2026-05-02T14:16:50Z</time></trkpt><trkpt lat="40.837580590749866" lon="8.998987800249882"><ele>80.0</ele><time>2026-05-02T14:16:51Z</time></trkpt><trkpt lat="40.83748811319391" lon="8.999008489421637"><ele>80.0</ele><time>2026-05-02T14:16:52Z</time></trkpt><trkpt lat="40.83738799162397" lon="8.999027673513154"><ele>82.25</ele><time>2026-05-02T14:16:53Z</time></trkpt><trkpt lat="40.83722034723369" lon="8.99905483844546"><ele>84.5</ele><time>2026-05-02T14:16:54Z</time></trkpt><trkpt lat="40.83708832560272" lon="8.999076243939687"><ele>86.75</ele><time>2026-05-02T14:16:55Z</time></trkpt><trkpt lat="40.83697193181495" lon="8.999080735785588"><ele>89.0</ele><time>2026-05-02T14:16:56Z</time></trkpt><trkpt lat="40.8368561134629" lon="8.999084754489159"><ele>89.80000000000001</ele><time>2026-05-02T14:16:57Z</time></trkpt><trkpt lat="40.83674792092538" lon="8.999094981850035"><ele>90.60000000000001</ele><time>2026-05-02T14:16:58Z</time></trkpt><trkpt lat="40.83663662948309" lon="8.999113129881158"><ele>91.4</ele><time>2026-05-02T14:16:59Z</time></trkpt><trkpt lat="40.836537922934255" lon="8.99917572031276"><ele>92.2</ele><time>2026-05-02T14:17:00Z</time></trkpt><trkpt lat="40.83644260652379" lon="8.999227818737353"><ele>93.0</ele><time>2026-05-02T14:17:01Z</time></trkpt><trkpt lat="40.83632654739259" lon="8.999307874715816"><ele>93.25</ele><time>2026-05-02T14:17:02Z</time></trkpt><trkpt lat="40.83621108460903" lon="8.999400280687764"><ele>93.5</ele><time>2026-05-02T14:17:03Z</time></trkpt><trkpt lat="40.83610463307156" lon="8.999498338971637"><ele>93.75</ele><time>2026-05-02T14:17:04Z</time></trkpt><trkpt lat="40.835985391151695" lon="8.999582960895236"><ele>94.0</ele><time>2026-05-02T14:17:05Z</time></trkpt><trkpt lat="40.835860413939905" lon="8.999691685359544"><ele>94.6</ele><time>2026-05-02T14:17:06Z</time></trkpt><trkpt lat="40.83575567894496" lon="8.999773734340314"><ele>95.2</ele><time>2026-05-02T14:17:06.999Z</time></trkpt><trkpt lat="40.835660651681444" lon="8.99984462124383"><ele>95.8</ele><time>2026-05-02T14:17:07.999Z</time></trkpt><trkpt lat="40.83556755408173" lon="8.999916904912647"><ele>96.39999999999999</ele><time>2026-05-02T14:17:08.999Z</time></trkpt><trkpt lat="40.83549893479221" lon="8.999978510055973"><ele>97.0</ele><time>2026-05-02T14:17:09.999Z</time></trkpt><trkpt lat="40.83541628328267" lon="9.000134291797991"><ele>97.00000000000001</ele><time>2026-05-02T14:17:11.999Z</time></trkpt><trkpt lat="40.83538312256294" lon="9.00021966941261"><ele>97.0</ele><time>2026-05-02T14:17:12.999Z</time></trkpt><trkpt lat="40.83535567536118" lon="9.000320904034577"><ele>97.0</ele><time>2026-05-02T14:17:13.999Z</time></trkpt><trkpt lat="40.83532355662536" lon="9.000437949601146"><ele>97.0</ele><time>2026-05-02T14:17:14.999Z</time></trkpt><trkpt lat="40.835303983610174" lon="9.000541113561571"><ele>97.00000000000001</ele><time>2026-05-02T14:17:15.999Z</time></trkpt><trkpt lat="40.8352928784116" lon="9.000633481793715"><ele>97.0</ele><time>2026-05-02T14:17:16.999Z</time></trkpt><trkpt lat="40.83528695057662" lon="9.000755952897201"><ele>96.0</ele><time>2026-05-02T14:17:20Z</time></trkpt><trkpt lat="40.83529280770603" lon="9.000852066213497"><ele>95.0</ele><time>2026-05-02T14:17:32Z</time></trkpt><trkpt lat="40.835411526931985" lon="9.0009903031099"><ele>94.0</ele><time>2026-05-02T14:17:34Z</time></trkpt><trkpt lat="40.835504366979734" lon="9.001082519371272"><ele>93.0</ele><time>2026-05-02T14:17:35Z</time></trkpt><trkpt lat="40.83558728964364" lon="9.00110892980682"><ele>92.0</ele><time>2026-05-02T14:17:36Z</time></trkpt><trkpt lat="40.83565918284506" lon="9.00112878335448"><ele>92.0</ele><time>2026-05-02T14:17:37Z</time></trkpt><trkpt lat="40.83570693719363" lon="9.001193461339412"><ele>92.0</ele><time>2026-05-02T14:17:38Z</time></trkpt><trkpt lat="40.83582310733652" lon="9.001314572781363"><ele>92.0</ele><time>2026-05-02T14:17:40Z</time></trkpt><trkpt lat="40.83589028431713" lon="9.00138655084893"><ele>92.0</ele><time>2026-05-02T14:17:41Z</time></trkpt><trkpt lat="40.83595601372293" lon="9.001474239008996"><ele>92.0</ele><time>2026-05-02T14:17:42Z</time></trkpt><trkpt lat="40.836006728267" lon="9.001586711713149"><ele>90.19999999999999</ele><time>2026-05-02T14:17:43Z</time></trkpt><trkpt lat="40.83606108329913" lon="9.001691748277521"><ele>88.4</ele><time>2026-05-02T14:17:44Z</time></trkpt><trkpt lat="40.836112075334114" lon="9.001800843471553"><ele>86.6</ele><time>2026-05-02T14:17:45Z</time></trkpt><trkpt lat="40.836159479449655" lon="9.001910094475553"><ele>84.80000000000001</ele><time>2026-05-02T14:17:46Z</time></trkpt><trkpt lat="40.83619992769749" lon="9.00201019264472"><ele>83.0</ele><time>2026-05-02T14:17:47Z</time></trkpt><trkpt lat="40.83623678654165" lon="9.00212086715218"><ele>83.0</ele><time>2026-05-02T14:17:48Z</time></trkpt><trkpt lat="40.83627560102985" lon="9.002229237716838"><ele>83.0</ele><time>2026-05-02T14:17:49Z</time></trkpt><trkpt lat="40.83634838942115" lon="9.002304742347604"><ele>83.0</ele><time>2026-05-02T14:17:50Z</time></trkpt><trkpt lat="40.836415743858105" lon="9.002336908254192"><ele>83.0</ele><time>2026-05-02T14:17:51Z</time></trkpt><trkpt lat="40.8364984116943" lon="9.002396662952858"><ele>83.0</ele><time>2026-05-02T14:17:52Z</time></trkpt><trkpt lat="40.83656143474126" lon="9.002473153199382"><ele>83.0</ele><time>2026-05-02T14:17:53Z</time></trkpt><trkpt lat="40.83662435919852" lon="9.002548026301719"><ele>83.66666666666667</ele><time>2026-05-02T14:17:54Z</time></trkpt><trkpt lat="40.83669477837882" lon="9.002606563854748"><ele>84.33333333333334</ele><time>2026-05-02T14:17:55Z</time></trkpt><trkpt lat="40.836787495511985" lon="9.002643625525517"><ele>85.0</ele><time>2026-05-02T14:17:56Z</time></trkpt><trkpt lat="40.836866165313765" lon="9.002660810775362"><ele>85.66666666666667</ele><time>2026-05-02T14:17:57Z</time></trkpt><trkpt lat="40.836956296254456" lon="9.002657735350088"><ele>86.33333333333333</ele><time>2026-05-02T14:17:58Z</time></trkpt><trkpt lat="40.837051265448764" lon="9.002669013020972"><ele>87.0</ele><time>2026-05-02T14:17:59Z</time></trkpt><trkpt lat="40.83714197631086" lon="9.002694262530254"><ele>87.0</ele><time>2026-05-02T14:18:00Z</time></trkpt><trkpt lat="40.83722512018462" lon="9.002740401766578"><ele>87.0</ele><time>2026-05-02T14:18:01Z</time></trkpt><trkpt lat="40.83730780571719" lon="9.002795515637143"><ele>87.0</ele><time>2026-05-02T14:18:02Z</time></trkpt><trkpt lat="40.837395464509136" lon="9.002896733760473"><ele>87.0</ele><time>2026-05-02T14:18:03Z</time></trkpt><trkpt lat="40.837496611976704" lon="9.002970655176247"><ele>87.0</ele><time>2026-05-02T14:18:04Z</time></trkpt><trkpt lat="40.83757222960887" lon="9.003077542630264"><ele>86.75</ele><time>2026-05-02T14:18:05Z</time></trkpt><trkpt lat="40.83766475172164" lon="9.003155047218762"><ele>86.5</ele><time>2026-05-02T14:18:06Z</time></trkpt><trkpt lat="40.83775069744097" lon="9.00324516398502"><ele>86.25</ele><time>2026-05-02T14:18:07Z</time></trkpt><trkpt lat="40.83784008885409" lon="9.0033523578556"><ele>86.0</ele><time>2026-05-02T14:18:08Z</time></trkpt><trkpt lat="40.837922853513994" lon="9.003450560790435"><ele>86.0</ele><time>2026-05-02T14:18:09Z</time></trkpt><trkpt lat="40.83798832854578" lon="9.00356416684153"><ele>86.0</ele><time>2026-05-02T14:18:10Z</time></trkpt><trkpt lat="40.83804265881666" lon="9.00363698681306"><ele>86.0</ele><time>2026-05-02T14:18:11Z</time></trkpt><trkpt lat="40.838115745609365" lon="9.003703172307576"><ele>86.0</ele><time>2026-05-02T14:18:12Z</time></trkpt><trkpt lat="40.83816651177369" lon="9.00377231274882"><ele>86.0</ele><time>2026-05-02T14:18:13Z</time></trkpt><trkpt lat="40.83820909938811" lon="9.003864703556916"><ele>86.0</ele><time>2026-05-02T14:18:14Z</time></trkpt><trkpt lat="40.83823358383084" lon="9.003988081363202"><ele>86.0</ele><time>2026-05-02T14:18:15Z</time></trkpt><trkpt lat="40.83828631111751" lon="9.004104174996339"><ele>86.0</ele><time>2026-05-02T14:18:16Z</time></trkpt><trkpt lat="40.83833467433986" lon="9.004218712465859"><ele>86.0</ele><time>2026-05-02T14:18:17Z</time></trkpt><trkpt lat="40.83837727360805" lon="9.004329576122341"><ele>86.0</ele><time>2026-05-02T14:18:18Z</time></trkpt><trkpt lat="40.83841616880377" lon="9.004405423010635"><ele>86.0</ele><time>2026-05-02T14:18:19Z</time></trkpt><trkpt lat="40.83846957868142" lon="9.00447861663638"><ele>86.0</ele><time>2026-05-02T14:18:20Z</time></trkpt><trkpt lat="40.83850091175854" lon="9.00455954615462"><ele>84.6</ele><time>2026-05-02T14:18:21Z</time></trkpt><trkpt lat="40.838543442504005" lon="9.004656241902524"><ele>83.19999999999999</ele><time>2026-05-02T14:18:22Z</time></trkpt><trkpt lat="40.83860519899948" lon="9.00477661875185"><ele>81.80000000000001</ele><time>2026-05-02T14:18:23Z</time></trkpt><trkpt lat="40.83866147803348" lon="9.004881300679736"><ele>80.4</ele><time>2026-05-02T14:18:24Z</time></trkpt><trkpt lat="40.838736144018576" lon="9.004979054750157"><ele>79.0</ele><time>2026-05-02T14:18:25Z</time></trkpt><trkpt lat="40.838813368191076" lon="9.005068049484949"><ele>78.83333333333333</ele><time>2026-05-02T14:18:26Z</time></trkpt><trkpt lat="40.83887715341841" lon="9.00513010511359"><ele>78.66666666666666</ele><time>2026-05-02T14:18:27Z</time></trkpt><trkpt lat="40.8389366644408" lon="9.00520324996757"><ele>78.5</ele><time>2026-05-02T14:18:28Z</time></trkpt><trkpt lat="40.8389314707312" lon="9.005303931543542"><ele>78.33333333333333</ele><time>2026-05-02T14:18:29Z</time></trkpt><trkpt lat="40.83895626124588" lon="9.005404393606895"><ele>78.16666666666667</ele><time>2026-05-02T14:18:30Z</time></trkpt><trkpt lat="40.83899088863444" lon="9.005529062205294"><ele>78.0</ele><time>2026-05-02T14:18:31Z</time></trkpt><trkpt lat="40.839020151072596" lon="9.005659377889838"><ele>78.0</ele><time>2026-05-02T14:18:32Z</time></trkpt><trkpt lat="40.83904593209382" lon="9.005773534420157"><ele>78.0</ele><time>2026-05-02T14:18:33Z</time></trkpt><trkpt lat="40.83904978139122" lon="9.005889560807486"><ele>78.0</ele><time>2026-05-02T14:18:34Z</time></trkpt><trkpt lat="40.839018790731146" lon="9.006050897279763"><ele>78.0</ele><time>2026-05-02T14:18:36Z</time></trkpt><trkpt lat="40.83898971689806" lon="9.006135804080706"><ele>78.0</ele><time>2026-05-02T14:18:37Z</time></trkpt><trkpt lat="40.83896787899744" lon="9.006238895205486"><ele>77.6</ele><time>2026-05-02T14:18:38Z</time></trkpt><trkpt lat="40.838995180593315" lon="9.006405423543043"><ele>77.19999999999999</ele><time>2026-05-02T14:18:40Z</time></trkpt><trkpt lat="40.83908644798081" lon="9.006507241701666"><ele>76.8</ele><time>2026-05-02T14:18:42Z</time></trkpt><trkpt lat="40.83916826102616" lon="9.0065822978329"><ele>76.39999999999999</ele><time>2026-05-02T14:18:43Z</time></trkpt><trkpt lat="40.83923609151162" lon="9.006632096010957"><ele>76.0</ele><time>2026-05-02T14:18:44Z</time></trkpt><trkpt lat="40.83930594261585" lon="9.006633628785183"><ele>75.0</ele><time>2026-05-02T14:18:45Z</time></trkpt><trkpt lat="40.83938197180329" lon="9.006654038954549"><ele>74.0</ele><time>2026-05-02T14:18:46Z</time></trkpt><trkpt lat="40.839449788552606" lon="9.006717965157325"><ele>73.0</ele><time>2026-05-02T14:18:47Z</time></trkpt><trkpt lat="40.83949604415103" lon="9.006810536578628"><ele>72.0</ele><time>2026-05-02T14:18:48Z</time></trkpt><trkpt lat="40.83951384302128" lon="9.006919883348692"><ele>71.0</ele><time>2026-05-02T14:18:49Z</time></trkpt><trkpt lat="40.83953712302486" lon="9.00704812335951"><ele>70.0</ele><time>2026-05-02T14:18:50Z</time></trkpt><trkpt lat="40.83958480914728" lon="9.007213277240153"><ele>70.0</ele><time>2026-05-02T14:18:51Z</time></trkpt><trkpt lat="40.8396340890421" lon="9.007353403683773"><ele>70.0</ele><time>2026-05-02T14:18:52Z</time></trkpt><trkpt lat="40.839692659856496" lon="9.007482731450256"><ele>70.0</ele><time>2026-05-02T14:18:53Z</time></trkpt><trkpt lat="40.83975013213505" lon="9.00760090530623"><ele>70.0</ele><time>2026-05-02T14:18:54Z</time></trkpt><trkpt lat="40.83979763962997" lon="9.007719219523377"><ele>70.0</ele><time>2026-05-02T14:18:55Z</time></trkpt><trkpt lat="40.83983249418077" lon="9.007844846602772"><ele>71.0</ele><time>2026-05-02T14:18:56Z</time></trkpt><trkpt lat="40.839878761140234" lon="9.007946757577683"><ele>72.0</ele><time>2026-05-02T14:18:57Z</time></trkpt><trkpt lat="40.8399376132301" lon="9.008012935789536"><ele>73.0</ele><time>2026-05-02T14:18:58Z</time></trkpt><trkpt lat="40.84001841255723" lon="9.008095273983587"><ele>74.0</ele><time>2026-05-02T14:18:59Z</time></trkpt><trkpt lat="40.84011314650656" lon="9.008183779337735"><ele>75.0</ele><time>2026-05-02T14:19:00Z</time></trkpt><trkpt lat="40.84021157169885" lon="9.008262213689259"><ele>72.8</ele><time>2026-05-02T14:19:01Z</time></trkpt><trkpt lat="40.84030823709233" lon="9.008352791698746"><ele>70.6</ele><time>2026-05-02T14:19:02Z</time></trkpt><trkpt lat="40.84037369983122" lon="9.008447343612309"><ele>68.4</ele><time>2026-05-02T14:19:03Z</time></trkpt><trkpt lat="40.840435922775185" lon="9.008560287462203"><ele>66.2</ele><time>2026-05-02T14:19:04Z</time></trkpt><trkpt lat="40.84048767851435" lon="9.008668587853158"><ele>64.0</ele><time>2026-05-02T14:19:05Z</time></trkpt><trkpt lat="40.84054173744114" lon="9.008759686463463"><ele>63.99999999999999</ele><time>2026-05-02T14:19:06Z</time></trkpt><trkpt lat="40.84060128250127" lon="9.008838651217593"><ele>64.0</ele><time>2026-05-02T14:19:07Z</time></trkpt><trkpt lat="40.840675109189654" lon="9.00891000488658"><ele>64.0</ele><time>2026-05-02T14:19:08Z</time></trkpt><trkpt lat="40.840751591932786" lon="9.008961521281423"><ele>64.0</ele><time>2026-05-02T14:19:09Z</time></trkpt><trkpt lat="40.840827849059266" lon="9.008983177228139"><ele>63.99999999999999</ele><time>2026-05-02T14:19:10Z</time></trkpt><trkpt lat="40.84089718404926" lon="9.008995635369917"><ele>64.0</ele><time>2026-05-02T14:19:11Z</time></trkpt><trkpt lat="40.84097336746741" lon="9.009002885139182"><ele>62.666666666666664</ele><time>2026-05-02T14:19:12Z</time></trkpt><trkpt lat="40.84104576297674" lon="9.009016070429436"><ele>61.33333333333333</ele><time>2026-05-02T14:19:13Z</time></trkpt><trkpt lat="40.84111847564659" lon="9.00903711053236"><ele>60.0</ele><time>2026-05-02T14:19:14Z</time></trkpt><trkpt lat="40.841189342448686" lon="9.009070211652322"><ele>58.66666666666667</ele><time>2026-05-02T14:19:15Z</time></trkpt><trkpt lat="40.841273214276804" lon="9.009116371806401"><ele>57.333333333333336</ele><time>2026-05-02T14:19:16Z</time></trkpt><trkpt lat="40.84135162139431" lon="9.009177092002759"><ele>56.0</ele><time>2026-05-02T14:19:17Z</time></trkpt><trkpt lat="40.84142322079806" lon="9.009247417187947"><ele>56.0</ele><time>2026-05-02T14:19:18Z</time></trkpt><trkpt lat="40.841497696846" lon="9.00930327742858"><ele>55.99999999999999</ele><time>2026-05-02T14:19:19Z</time></trkpt><trkpt lat="40.841573488706345" lon="9.0093177436544"><ele>55.99999999999999</ele><time>2026-05-02T14:19:20Z</time></trkpt><trkpt lat="40.841674263714765" lon="9.009337798179144"><ele>56.0</ele><time>2026-05-02T14:19:21Z</time></trkpt><trkpt lat="40.84177493929213" lon="9.00935315040891"><ele>56.0</ele><time>2026-05-02T14:19:22Z</time></trkpt><trkpt lat="40.84188249633008" lon="9.00938319698357"><ele>55.8</ele><time>2026-05-02T14:19:23Z</time></trkpt><trkpt lat="40.84198878261343" lon="9.009421111935895"><ele>55.599999999999994</ele><time>2026-05-02T14:19:24Z</time></trkpt><trkpt lat="40.84208760395648" lon="9.009450383019235"><ele>55.4</ele><time>2026-05-02T14:19:25Z</time></trkpt><trkpt lat="40.842183806082495" lon="9.009473493346631"><ele>55.2</ele><time>2026-05-02T14:19:26Z</time></trkpt><trkpt lat="40.84228132253647" lon="9.009508766345958"><ele>55.0</ele><time>2026-05-02T14:19:27Z</time></trkpt><trkpt lat="40.84237989064353" lon="9.009553680282025"><ele>55.0</ele><time>2026-05-02T14:19:28Z</time></trkpt><trkpt lat="40.84247326539027" lon="9.009601160777946"><ele>55.0</ele><time>2026-05-02T14:19:29Z</time></trkpt><trkpt lat="40.84256384670172" lon="9.009647649652878"><ele>55.0</ele><time>2026-05-02T14:19:30Z</time></trkpt><trkpt lat="40.84265311025633" lon="9.00969592541748"><ele>55.0</ele><time>2026-05-02T14:19:31Z</time></trkpt><trkpt lat="40.84273920328708" lon="9.00973711033669"><ele>55.0</ele><time>2026-05-02T14:19:32Z</time></trkpt><trkpt lat="40.84283237089482" lon="9.009762178686174"><ele>55.5</ele><time>2026-05-02T14:19:33Z</time></trkpt><trkpt lat="40.84292785138263" lon="9.00978595054383"><ele>56.0</ele><time>2026-05-02T14:19:34Z</time></trkpt><trkpt lat="40.84305801788145" lon="9.0098259226742"><ele>56.5</ele><time>2026-05-02T14:19:35Z</time></trkpt><trkpt lat="40.843211881146594" lon="9.009875825867935"><ele>57.0</ele><time>2026-05-02T14:19:36Z</time></trkpt><trkpt lat="40.8433557199503" lon="9.009911206745743"><ele>57.0</ele><time>2026-05-02T14:19:37Z</time></trkpt><trkpt lat="40.84348150148642" lon="9.009926996942392"><ele>57.0</ele><time>2026-05-02T14:19:38Z</time></trkpt><trkpt lat="40.84360156501715" lon="9.009944893352547"><ele>57.0</ele><time>2026-05-02T14:19:39Z</time></trkpt><trkpt lat="40.84369673622426" lon="9.009972815290105"><ele>57.0</ele><time>2026-05-02T14:19:40Z</time></trkpt><trkpt lat="40.84380320344779" lon="9.01003146141747"><ele>57.0</ele><time>2026-05-02T14:19:41Z</time></trkpt><trkpt lat="40.84390444131072" lon="9.010084066361586"><ele>57.0</ele><time>2026-05-02T14:19:42Z</time></trkpt><trkpt lat="40.84398334302929" lon="9.010127909024193"><ele>57.0</ele><time>2026-05-02T14:19:43Z</time></trkpt><trkpt lat="40.84407254589409" lon="9.010166863873334"><ele>57.0</ele><time>2026-05-02T14:19:44Z</time></trkpt><trkpt lat="40.84416839030234" lon="9.01022742647955"><ele>57.0</ele><time>2026-05-02T14:19:45Z</time></trkpt><trkpt lat="40.84426821482071" lon="9.010269422159702"><ele>57.6</ele><time>2026-05-02T14:19:46Z</time></trkpt><trkpt lat="40.84435860090352" lon="9.010307903581486"><ele>58.2</ele><time>2026-05-02T14:19:47Z</time></trkpt><trkpt lat="40.84443844442835" lon="9.010326165930618"><ele>58.8</ele><time>2026-05-02T14:19:48Z</time></trkpt><trkpt lat="40.84456089804538" lon="9.010333621759466"><ele>59.4</ele><time>2026-05-02T14:19:49Z</time></trkpt><trkpt lat="40.84468391310785" lon="9.010332976802578"><ele>60.0</ele><time>2026-05-02T14:19:50Z</time></trkpt><trkpt lat="40.84482751710031" lon="9.010332496954113"><ele>60.0</ele><time>2026-05-02T14:19:51Z</time></trkpt><trkpt lat="40.84492388118634" lon="9.010328191513494"><ele>60.0</ele><time>2026-05-02T14:19:52Z</time></trkpt><trkpt lat="40.84502736064101" lon="9.010334026695649"><ele>60.0</ele><time>2026-05-02T14:19:53Z</time></trkpt><trkpt lat="40.84513049943133" lon="9.01033141376791"><ele>60.0</ele><time>2026-05-02T14:19:54Z</time></trkpt><trkpt lat="40.84523308645103" lon="9.01029837536549"><ele>60.0</ele><time>2026-05-02T14:19:55Z</time></trkpt><trkpt lat="40.84532238286222" lon="9.010256199593284"><ele>60.333333333333336</ele><time>2026-05-02T14:19:56Z</time></trkpt><trkpt lat="40.845396801836465" lon="9.010212461602093"><ele>60.66666666666667</ele><time>2026-05-02T14:19:57Z</time></trkpt><trkpt lat="40.84545212154021" lon="9.010166222891803"><ele>61.0</ele><time>2026-05-02T14:19:58Z</time></trkpt><trkpt lat="40.84552892690504" lon="9.010116712192033"><ele>61.333333333333336</ele><time>2026-05-02T14:19:59Z</time></trkpt><trkpt lat="40.845614604842" lon="9.010056267289908"><ele>61.66666666666667</ele><time>2026-05-02T14:20:00Z</time></trkpt><trkpt lat="40.84568469537841" lon="9.009983400713324"><ele>62.0</ele><time>2026-05-02T14:20:01Z</time></trkpt><trkpt lat="40.84573249822502" lon="9.009928637056637"><ele>62.0</ele><time>2026-05-02T14:20:02Z</time></trkpt><trkpt lat="40.84579366145423" lon="9.00985753676608"><ele>62.0</ele><time>2026-05-02T14:20:03Z</time></trkpt><trkpt lat="40.845881911657" lon="9.009765002728438"><ele>62.0</ele><time>2026-05-02T14:20:04Z</time></trkpt><trkpt lat="40.84594719499146" lon="9.0096686513831"><ele>62.0</ele><time>2026-05-02T14:20:05Z</time></trkpt><trkpt lat="40.84601384823895" lon="9.009594388571667"><ele>62.0</ele><time>2026-05-02T14:20:06Z</time></trkpt><trkpt lat="40.84608524165875" lon="9.00952409578393"><ele>65.83333333333334</ele><time>2026-05-02T14:20:07Z</time></trkpt><trkpt lat="40.84615184054227" lon="9.009454645984944"><ele>69.66666666666667</ele><time>2026-05-02T14:20:08Z</time></trkpt><trkpt lat="40.846222373306915" lon="9.009388033271334"><ele>73.5</ele><time>2026-05-02T14:20:09Z</time></trkpt><trkpt lat="40.84628095517465" lon="9.009317376083139"><ele>77.33333333333333</ele><time>2026-05-02T14:20:10Z</time></trkpt><trkpt lat="40.84634535505934" lon="9.009264865347541"><ele>81.16666666666666</ele><time>2026-05-02T14:20:11Z</time></trkpt><trkpt lat="40.84640971913607" lon="9.009220068649645"><ele>85.0</ele><time>2026-05-02T14:20:12Z</time></trkpt><trkpt lat="40.84648798078576" lon="9.009197212470685"><ele>85.0</ele><time>2026-05-02T14:20:13Z</time></trkpt><trkpt lat="40.84656552996946" lon="9.009175669156233"><ele>85.0</ele><time>2026-05-02T14:20:14Z</time></trkpt><trkpt lat="40.84663018270042" lon="9.009121132190204"><ele>85.0</ele><time>2026-05-02T14:20:15Z</time></trkpt><trkpt lat="40.846691992335735" lon="9.009049695343077"><ele>85.0</ele><time>2026-05-02T14:20:16Z</time></trkpt><trkpt lat="40.84674907641805" lon="9.008958810133496"><ele>85.0</ele><time>2026-05-02T14:20:17Z</time></trkpt><trkpt lat="40.846801502261194" lon="9.008859812940052"><ele>85.0</ele><time>2026-05-02T14:20:18Z</time></trkpt><trkpt lat="40.84685853082808" lon="9.008710616958801"><ele>86.0</ele><time>2026-05-02T14:20:19Z</time></trkpt><trkpt lat="40.84690855141296" lon="9.00858718568023"><ele>87.0</ele><time>2026-05-02T14:20:20Z</time></trkpt><trkpt lat="40.8469577902311" lon="9.008480470020416"><ele>88.0</ele><time>2026-05-02T14:20:21Z</time></trkpt><trkpt lat="40.84705067910213" lon="9.008460713778998"><ele>89.0</ele><time>2026-05-02T14:20:23Z</time></trkpt><trkpt lat="40.847216657727586" lon="9.008503298819397"><ele>89.0</ele><time>2026-05-02T14:20:25Z</time></trkpt><trkpt lat="40.84733721212581" lon="9.008541395180359"><ele>89.0</ele><time>2026-05-02T14:20:26Z</time></trkpt><trkpt lat="40.84749868104513" lon="9.008568114013672"><ele>89.0</ele><time>2026-05-02T14:20:27Z</time></trkpt><trkpt lat="40.847589540078864" lon="9.008562685273699"><ele>89.0</ele><time>2026-05-02T14:20:28Z</time></trkpt><trkpt lat="40.847669361230025" lon="9.00855260702173"><ele>89.0</ele><time>2026-05-02T14:20:29Z</time></trkpt><trkpt lat="40.847737458723806" lon="9.008540224345362"><ele>89.0</ele><time>2026-05-02T14:21:36Z</time></trkpt><trkpt lat="40.84780689561726" lon="9.008507022135388"><ele>89.0</ele><time>2026-05-02T14:21:37Z</time></trkpt><trkpt lat="40.84787393336357" lon="9.008476210113098"><ele>89.0</ele><time>2026-05-02T14:21:38Z</time></trkpt><trkpt lat="40.8479827402165" lon="9.008461859083086"><ele>89.0</ele><time>2026-05-02T14:21:39Z</time></trkpt><trkpt lat="40.848094537862735" lon="9.008450824551511"><ele>89.0</ele><time>2026-05-02T14:21:40Z</time></trkpt><trkpt lat="40.848256933516616" lon="9.008460963480262"><ele>89.0</ele><time>2026-05-02T14:21:41Z</time></trkpt><trkpt lat="40.84842285855366" lon="9.008480288597388"><ele>89.0</ele><time>2026-05-02T14:21:42Z</time></trkpt><trkpt lat="40.84858432837057" lon="9.00849909483567"><ele>89.0</ele><time>2026-05-02T14:21:43Z</time></trkpt><trkpt lat="40.848759354074254" lon="9.00851513929838"><ele>88.66666666666667</ele><time>2026-05-02T14:21:44Z</time></trkpt><trkpt lat="40.8489308356853" lon="9.008521644216357"><ele>88.33333333333333</ele><time>2026-05-02T14:21:45Z</time></trkpt><trkpt lat="40.849077955386235" lon="9.00852601450418"><ele>88.0</ele><time>2026-05-02T14:21:46Z</time></trkpt><trkpt lat="40.84921908601772" lon="9.008513536020127"><ele>88.25</ele><time>2026-05-02T14:21:47Z</time></trkpt><trkpt lat="40.84933858907377" lon="9.00853589813935"><ele>88.5</ele><time>2026-05-02T14:21:48Z</time></trkpt><trkpt lat="40.84945524317134" lon="9.008552609767927"><ele>88.75</ele><time>2026-05-02T14:21:49Z</time></trkpt><trkpt lat="40.84957767789482" lon="9.008548907905634"><ele>89.0</ele><time>2026-05-02T14:21:50Z</time></trkpt><trkpt lat="40.84969530882045" lon="9.008539736337255"><ele>89.0</ele><time>2026-05-02T14:21:51Z</time></trkpt><trkpt lat="40.849812124320344" lon="9.008505023418993"><ele>89.0</ele><time>2026-05-02T14:21:52Z</time></trkpt><trkpt lat="40.84992250062505" lon="9.00848960379885"><ele>89.0</ele><time>2026-05-02T14:21:53Z</time></trkpt><trkpt lat="40.85002521383283" lon="9.008486735339474"><ele>89.0</ele><time>2026-05-02T14:21:54Z</time></trkpt><trkpt lat="40.85012950239687" lon="9.008476762662024"><ele>89.0</ele><time>2026-05-02T14:21:55Z</time></trkpt><trkpt lat="40.85028157802889" lon="9.008463458488288"><ele>89.25</ele><time>2026-05-02T14:21:56Z</time></trkpt><trkpt lat="40.85041135276581" lon="9.008466923037325"><ele>89.5</ele><time>2026-05-02T14:21:57Z</time></trkpt><trkpt lat="40.850533562193945" lon="9.008457796293738"><ele>89.75</ele><time>2026-05-02T14:21:58Z</time></trkpt><trkpt lat="40.85063653577368" lon="9.008438257751889"><ele>90.0</ele><time>2026-05-02T14:21:59Z</time></trkpt><trkpt lat="40.85075287089644" lon="9.008403756935145"><ele>90.0</ele><time>2026-05-02T14:22:00Z</time></trkpt><trkpt lat="40.85085616165345" lon="9.008398772538671"><ele>90.0</ele><time>2026-05-02T14:22:01Z</time></trkpt><trkpt lat="40.850942242329864" lon="9.008394823945055"><ele>90.0</ele><time>2026-05-02T14:22:02Z</time></trkpt><trkpt lat="40.851036441786356" lon="9.008375597954496"><ele>90.0</ele><time>2026-05-02T14:22:03Z</time></trkpt><trkpt lat="40.85113437065793" lon="9.008369132656172"><ele>90.0</ele><time>2026-05-02T14:22:04Z</time></trkpt><trkpt lat="40.85122078658915" lon="9.00838041707181"><ele>90.5</ele><time>2026-05-02T14:22:05Z</time></trkpt><trkpt lat="40.851279530514944" lon="9.008430255924617"><ele>91.0</ele><time>2026-05-02T14:22:06Z</time></trkpt><trkpt lat="40.85134888341535" lon="9.008495927601512"><ele>91.5</ele><time>2026-05-02T14:22:07Z</time></trkpt><trkpt lat="40.851435046609595" lon="9.008585698685433"><ele>92.0</ele><time>2026-05-02T14:22:08Z</time></trkpt><trkpt lat="40.85149732887428" lon="9.008676218847123"><ele>92.5</ele><time>2026-05-02T14:22:09Z</time></trkpt><trkpt lat="40.85155384633455" lon="9.008754608252241"><ele>93.0</ele><time>2026-05-02T14:22:10Z</time></trkpt><trkpt lat="40.851654780742045" lon="9.008842013596649"><ele>93.0</ele><time>2026-05-02T14:22:12Z</time></trkpt><trkpt lat="40.85173438708147" lon="9.00888646898497"><ele>93.0</ele><time>2026-05-02T14:22:14Z</time></trkpt><trkpt lat="40.85179056132344" lon="9.008927988480233"><ele>93.0</ele><time>2026-05-02T14:22:16Z</time></trkpt><trkpt lat="40.85186860306554" lon="9.00900017704657"><ele>93.0</ele><time>2026-05-02T14:22:18Z</time></trkpt><trkpt lat="40.851918755453234" lon="9.009051732227416"><ele>93.0</ele><time>2026-05-02T14:22:19Z</time></trkpt><trkpt lat="40.85196816181158" lon="9.009109937720437"><ele>93.0</ele><time>2026-05-02T14:22:20Z</time></trkpt><trkpt lat="40.85207302118817" lon="9.009221550087496"><ele>95.16666666666667</ele><time>2026-05-02T14:22:22Z</time></trkpt><trkpt lat="40.852148306381984" lon="9.009264965886493"><ele>97.33333333333334</ele><time>2026-05-02T14:22:23Z</time></trkpt><trkpt lat="40.852227736003094" lon="9.00926762910771"><ele>99.5</ele><time>2026-05-02T14:22:24Z</time></trkpt><trkpt lat="40.85230329991699" lon="9.009255553662673"><ele>101.66666666666667</ele><time>2026-05-02T14:22:25Z</time></trkpt><trkpt lat="40.85237471915383" lon="9.009275889964455"><ele>103.83333333333334</ele><time>2026-05-02T14:22:26Z</time></trkpt><trkpt lat="40.852450203210395" lon="9.009342223810997"><ele>106.0</ele><time>2026-05-02T14:22:27Z</time></trkpt><trkpt lat="40.852549000007016" lon="9.009435995908214"><ele>106.75</ele><time>2026-05-02T14:22:28Z</time></trkpt><trkpt lat="40.85264992869216" lon="9.009504714163356"><ele>107.5</ele><time>2026-05-02T14:22:29Z</time></trkpt><trkpt lat="40.85273899529376" lon="9.009573422845028"><ele>108.25</ele><time>2026-05-02T14:22:30Z</time></trkpt><trkpt lat="40.85284504818228" lon="9.009644895608096"><ele>109.0</ele><time>2026-05-02T14:22:32Z</time></trkpt><trkpt lat="40.8529897426112" lon="9.009670509573635"><ele>109.0</ele><time>2026-05-02T14:22:34Z</time></trkpt><trkpt lat="40.853096476262486" lon="9.009676826543526"><ele>109.0</ele><time>2026-05-02T14:22:35Z</time></trkpt><trkpt lat="40.853189951561355" lon="9.00968469070676"><ele>109.0</ele><time>2026-05-02T14:22:36Z</time></trkpt><trkpt lat="40.85328442414021" lon="9.00969222563165"><ele>109.0</ele><time>2026-05-02T14:22:37Z</time></trkpt><trkpt lat="40.853381972393805" lon="9.009706898848618"><ele>109.0</ele><time>2026-05-02T14:22:38Z</time></trkpt><trkpt lat="40.85348155735911" lon="9.009705349138919"><ele>106.6</ele><time>2026-05-02T14:22:39Z</time></trkpt><trkpt lat="40.853597256883646" lon="9.009717091277881"><ele>104.2</ele><time>2026-05-02T14:22:40Z</time></trkpt><trkpt lat="40.853709252899755" lon="9.009730220138216"><ele>101.8</ele><time>2026-05-02T14:22:41Z</time></trkpt><trkpt lat="40.853820796693185" lon="9.009756131917916"><ele>99.39999999999999</ele><time>2026-05-02T14:22:42Z</time></trkpt><trkpt lat="40.853890617828895" lon="9.009801260350564"><ele>97.0</ele><time>2026-05-02T14:22:43Z</time></trkpt><trkpt lat="40.85397745050746" lon="9.009875727094387"><ele>97.0</ele><time>2026-05-02T14:22:44Z</time></trkpt><trkpt lat="40.85406437942791" lon="9.009929760485697"><ele>97.0</ele><time>2026-05-02T14:22:45Z</time></trkpt><trkpt lat="40.85415042301813" lon="9.009974229212682"><ele>97.0</ele><time>2026-05-02T14:22:46Z</time></trkpt><trkpt lat="40.85427639282253" lon="9.010007078167499"><ele>97.0</ele><time>2026-05-02T14:22:47Z</time></trkpt><trkpt lat="40.85438190904004" lon="9.010042997583584"><ele>97.0</ele><time>2026-05-02T14:22:48Z</time></trkpt><trkpt lat="40.85447425081805" lon="9.01003569167788"><ele>98.39999999999999</ele><time>2026-05-02T14:22:49Z</time></trkpt><trkpt lat="40.85457104951049" lon="9.010001961997531"><ele>99.8</ele><time>2026-05-02T14:22:50Z</time></trkpt><trkpt lat="40.85468187018702" lon="9.010016268553475"><ele>101.2</ele><time>2026-05-02T14:22:51Z</time></trkpt><trkpt lat="40.85477462745923" lon="9.010052221601804"><ele>102.6</ele><time>2026-05-02T14:22:52Z</time></trkpt><trkpt lat="40.85484461316954" lon="9.010088878419891"><ele>104.0</ele><time>2026-05-02T14:22:53Z</time></trkpt><trkpt lat="40.854907628849254" lon="9.010187979475864"><ele>104.0</ele><time>2026-05-02T14:22:54Z</time></trkpt><trkpt lat="40.85498185955987" lon="9.01030383113691"><ele>104.0</ele><time>2026-05-02T14:22:55Z</time></trkpt><trkpt lat="40.855057747737845" lon="9.010399962427488"><ele>104.0</ele><time>2026-05-02T14:22:56Z</time></trkpt><trkpt lat="40.85514401925644" lon="9.010473153227867"><ele>104.0</ele><time>2026-05-02T14:22:57Z</time></trkpt><trkpt lat="40.85524627839289" lon="9.010526748769893"><ele>104.0</ele><time>2026-05-02T14:22:58Z</time></trkpt><trkpt lat="40.85537777326141" lon="9.010562665682759"><ele>102.75</ele><time>2026-05-02T14:22:59Z</time></trkpt><trkpt lat="40.85551292036802" lon="9.010610523243692"><ele>101.5</ele><time>2026-05-02T14:23:00Z</time></trkpt><trkpt lat="40.85564064473695" lon="9.010665450187867"><ele>100.25</ele><time>2026-05-02T14:23:01.001Z</time></trkpt><trkpt lat="40.85577510718263" lon="9.010708283933159"><ele>99.0</ele><time>2026-05-02T14:23:02.001Z</time></trkpt><trkpt lat="40.85589506121532" lon="9.010725781313317"><ele>99.4</ele><time>2026-05-02T14:23:03.001Z</time></trkpt><trkpt lat="40.85601677179942" lon="9.010760597464802"><ele>99.80000000000001</ele><time>2026-05-02T14:23:04.001Z</time></trkpt><trkpt lat="40.85611973720031" lon="9.010802912222356"><ele>100.19999999999999</ele><time>2026-05-02T14:23:05.001Z</time></trkpt><trkpt lat="40.85621428089252" lon="9.010853557008033"><ele>100.6</ele><time>2026-05-02T14:23:06.001Z</time></trkpt><trkpt lat="40.856310293785675" lon="9.010916966959737"><ele>101.0</ele><time>2026-05-02T14:23:07.001Z</time></trkpt><trkpt lat="40.85640322998123" lon="9.010995515022884"><ele>101.0</ele><time>2026-05-02T14:23:08.001Z</time></trkpt><trkpt lat="40.856488586956694" lon="9.011074280946143"><ele>101.0</ele><time>2026-05-02T14:23:09.001Z</time></trkpt><trkpt lat="40.856568889344935" lon="9.011146120336006"><ele>101.0</ele><time>2026-05-02T14:23:10.001Z</time></trkpt><trkpt lat="40.856648093225544" lon="9.011235681915542"><ele>101.0</ele><time>2026-05-02T14:23:11.001Z</time></trkpt><trkpt lat="40.856725006972496" lon="9.011331069266326"><ele>101.0</ele><time>2026-05-02T14:23:12.001Z</time></trkpt><trkpt lat="40.85679704405014" lon="9.011438326757773"><ele>100.4</ele><time>2026-05-02T14:23:13.001Z</time></trkpt><trkpt lat="40.85686899905137" lon="9.011548947321328"><ele>99.8</ele><time>2026-05-02T14:23:14.001Z</time></trkpt><trkpt lat="40.856935598847784" lon="9.011664874612736"><ele>99.2</ele><time>2026-05-02T14:23:15.001Z</time></trkpt><trkpt lat="40.856998675020016" lon="9.0117729072673"><ele>98.60000000000001</ele><time>2026-05-02T14:23:16.001Z</time></trkpt><trkpt lat="40.85706075113868" lon="9.01185505549559"><ele>98.0</ele><time>2026-05-02T14:23:17.001Z</time></trkpt><trkpt lat="40.857158419510306" lon="9.011920131111703"><ele>98.0</ele><time>2026-05-02T14:23:18.001Z</time></trkpt><trkpt lat="40.85726207051884" lon="9.01201316465864"><ele>98.0</ele><time>2026-05-02T14:23:19.001Z</time></trkpt><trkpt lat="40.8573461119678" lon="9.012126707503953"><ele>98.0</ele><time>2026-05-02T14:23:20.001Z</time></trkpt><trkpt lat="40.8574063383878" lon="9.012269724071933"><ele>98.0</ele><time>2026-05-02T14:23:21.001Z</time></trkpt><trkpt lat="40.85745082444943" lon="9.012435224623365"><ele>97.0</ele><time>2026-05-02T14:23:22.001Z</time></trkpt><trkpt lat="40.85747948436439" lon="9.012596377294516"><ele>96.0</ele><time>2026-05-02T14:23:23.001Z</time></trkpt><trkpt lat="40.85753811440877" lon="9.012736672221171"><ele>95.0</ele><time>2026-05-02T14:23:24.001Z</time></trkpt><trkpt lat="40.85758518919295" lon="9.01283982901703"><ele>94.0</ele><time>2026-05-02T14:23:25Z</time></trkpt><trkpt lat="40.85771636901345" lon="9.012917378905318"><ele>94.0</ele><time>2026-05-02T14:23:27Z</time></trkpt><trkpt lat="40.857819091810136" lon="9.012956293009132"><ele>94.0</ele><time>2026-05-02T14:23:28Z</time></trkpt><trkpt lat="40.85794078837474" lon="9.01300754471413"><ele>94.0</ele><time>2026-05-02T14:23:29Z</time></trkpt><trkpt lat="40.85805212679496" lon="9.013061026282436"><ele>94.0</ele><time>2026-05-02T14:23:30Z</time></trkpt><trkpt lat="40.858160369712856" lon="9.013107905124679"><ele>94.0</ele><time>2026-05-02T14:23:31Z</time></trkpt><trkpt lat="40.85826775744859" lon="9.013153524045675"><ele>94.0</ele><time>2026-05-02T14:23:32Z</time></trkpt><trkpt lat="40.858376888351785" lon="9.013208477598104"><ele>94.0</ele><time>2026-05-02T14:23:33Z</time></trkpt><trkpt lat="40.85848069776774" lon="9.013298202464796"><ele>94.0</ele><time>2026-05-02T14:23:34Z</time></trkpt><trkpt lat="40.858582749553136" lon="9.013396592077267"><ele>95.0</ele><time>2026-05-02T14:23:35Z</time></trkpt><trkpt lat="40.858689543619306" lon="9.013498372537374"><ele>96.0</ele><time>2026-05-02T14:23:36Z</time></trkpt><trkpt lat="40.858791311275056" lon="9.013609950291686"><ele>97.0</ele><time>2026-05-02T14:23:37Z</time></trkpt><trkpt lat="40.85887494886518" lon="9.013712301567988"><ele>98.0</ele><time>2026-05-02T14:23:38Z</time></trkpt><trkpt lat="40.858953231255384" lon="9.013812052359413"><ele>97.99999999999999</ele><time>2026-05-02T14:23:39Z</time></trkpt><trkpt lat="40.85902495923137" lon="9.013890461045627"><ele>98.0</ele><time>2026-05-02T14:23:40Z</time></trkpt><trkpt lat="40.859086169103854" lon="9.01393952166352"><ele>98.0</ele><time>2026-05-02T14:23:41Z</time></trkpt><trkpt lat="40.8591494055261" lon="9.014006228234047"><ele>98.0</ele><time>2026-05-02T14:23:47Z</time></trkpt><trkpt lat="40.85920381864148" lon="9.01416725522513"><ele>97.99999999999999</ele><time>2026-05-02T14:23:49Z</time></trkpt><trkpt lat="40.859184861933954" lon="9.014250145975513"><ele>98.0</ele><time>2026-05-02T14:23:50Z</time></trkpt><trkpt lat="40.85914793538928" lon="9.014331357793491"><ele>98.2</ele><time>2026-05-02T14:23:51Z</time></trkpt><trkpt lat="40.85912490805591" lon="9.014443299017088"><ele>98.4</ele><time>2026-05-02T14:23:52Z</time></trkpt><trkpt lat="40.85909896286896" lon="9.014560698736126"><ele>98.60000000000001</ele><time>2026-05-02T14:23:53Z</time></trkpt><trkpt lat="40.859113689572084" lon="9.014656510688724"><ele>98.80000000000001</ele><time>2026-05-02T14:23:54Z</time></trkpt><trkpt lat="40.85917032479934" lon="9.014721293171872"><ele>99.0</ele><time>2026-05-02T14:23:55Z</time></trkpt><trkpt lat="40.85929180369514" lon="9.01473188902604"><ele>98.2</ele><time>2026-05-02T14:23:57Z</time></trkpt><trkpt lat="40.85937096709198" lon="9.014726524784756"><ele>97.4</ele><time>2026-05-02T14:23:58Z</time></trkpt><trkpt lat="40.8594538395426" lon="9.014697459695464"><ele>96.6</ele><time>2026-05-02T14:23:59Z</time></trkpt><trkpt lat="40.85953133221717" lon="9.014653637044548"><ele>95.8</ele><time>2026-05-02T14:24:00Z</time></trkpt><trkpt lat="40.85961285324336" lon="9.014582244350635"><ele>95.0</ele><time>2026-05-02T14:24:01Z</time></trkpt><trkpt lat="40.85970966824507" lon="9.014486602756882"><ele>95.0</ele><time>2026-05-02T14:24:02Z</time></trkpt><trkpt lat="40.85977097177104" lon="9.014398362261884"><ele>95.0</ele><time>2026-05-02T14:24:03Z</time></trkpt><trkpt lat="40.85982927056332" lon="9.014321839416967"><ele>95.0</ele><time>2026-05-02T14:24:04Z</time></trkpt><trkpt lat="40.85991320952567" lon="9.014253171847285"><ele>95.0</ele><time>2026-05-02T14:24:06Z</time></trkpt><trkpt lat="40.859977257103544" lon="9.014243970762932"><ele>95.0</ele><time>2026-05-02T14:24:08Z</time></trkpt><trkpt lat="40.86007537401206" lon="9.014316819133166"><ele>95.0</ele><time>2026-05-02T14:24:10Z</time></trkpt><trkpt lat="40.86017105581127" lon="9.014421719450823"><ele>96.25</ele><time>2026-05-02T14:24:11Z</time></trkpt><trkpt lat="40.860266836497594" lon="9.014526307400349"><ele>97.5</ele><time>2026-05-02T14:24:12Z</time></trkpt><trkpt lat="40.86036040587202" lon="9.014618095442742"><ele>98.75</ele><time>2026-05-02T14:24:13Z</time></trkpt><trkpt lat="40.86045988342645" lon="9.014725664327349"><ele>100.0</ele><time>2026-05-02T14:24:14Z</time></trkpt><trkpt lat="40.860541438009484" lon="9.014820226623797"><ele>100.0</ele><time>2026-05-02T14:24:15Z</time></trkpt><trkpt lat="40.860625490392124" lon="9.014902461616872"><ele>100.0</ele><time>2026-05-02T14:24:16Z</time></trkpt><trkpt lat="40.86068606963102" lon="9.015001660831324"><ele>100.0</ele><time>2026-05-02T14:24:17Z</time></trkpt><trkpt lat="40.86075762088895" lon="9.015092655655291"><ele>100.0</ele><time>2026-05-02T14:24:18Z</time></trkpt><trkpt lat="40.860769722804925" lon="9.015205101298859"><ele>100.0</ele><time>2026-05-02T14:24:19Z</time></trkpt><trkpt lat="40.860812642732924" lon="9.015309942174412"><ele>100.8</ele><time>2026-05-02T14:24:20Z</time></trkpt><trkpt lat="40.86083915813355" lon="9.015424491298392"><ele>101.6</ele><time>2026-05-02T14:24:21Z</time></trkpt><trkpt lat="40.8608747024837" lon="9.01555116099148"><ele>102.4</ele><time>2026-05-02T14:24:22Z</time></trkpt><trkpt lat="40.860935598924094" lon="9.015677948703317"><ele>103.2</ele><time>2026-05-02T14:24:23Z</time></trkpt><trkpt lat="40.861014595721436" lon="9.015829957848542"><ele>104.0</ele><time>2026-05-02T14:24:24Z</time></trkpt><trkpt lat="40.861095577751165" lon="9.015981245012295"><ele>108.33333333333333</ele><time>2026-05-02T14:24:25Z</time></trkpt><trkpt lat="40.86119508387181" lon="9.016178500866916"><ele>112.66666666666666</ele><time>2026-05-02T14:24:26Z</time></trkpt><trkpt lat="40.86129903014782" lon="9.016374441905123"><ele>117.0</ele><time>2026-05-02T14:24:27Z</time></trkpt><trkpt lat="40.861388052624335" lon="9.016545891020852"><ele>115.66666666666666</ele><time>2026-05-02T14:24:28Z</time></trkpt><trkpt lat="40.861474400040564" lon="9.016716201278067"><ele>114.33333333333333</ele><time>2026-05-02T14:24:29Z</time></trkpt><trkpt lat="40.86157020054451" lon="9.016885156745113"><ele>113.0</ele><time>2026-05-02T14:24:30Z</time></trkpt><trkpt lat="40.861672239352025" lon="9.017064615831213"><ele>113.0</ele><time>2026-05-02T14:24:31Z</time></trkpt><trkpt lat="40.86176210993912" lon="9.017227892328611"><ele>113.0</ele><time>2026-05-02T14:24:32Z</time></trkpt><trkpt lat="40.86183292955698" lon="9.017371877251906"><ele>113.0</ele><time>2026-05-02T14:24:33Z</time></trkpt><trkpt lat="40.86189208400235" lon="9.017503061900163"><ele>113.0</ele><time>2026-05-02T14:24:34Z</time></trkpt><trkpt lat="40.8619389160886" lon="9.017599238929892"><ele>113.60000000000001</ele><time>2026-05-02T14:24:35Z</time></trkpt><trkpt lat="40.86199427354858" lon="9.017711961157723"><ele>114.20000000000002</ele><time>2026-05-02T14:24:36Z</time></trkpt><trkpt lat="40.86204242288855" lon="9.017807371600162"><ele>114.8</ele><time>2026-05-02T14:24:37Z</time></trkpt><trkpt lat="40.86209795927801" lon="9.0179153447373"><ele>115.4</ele><time>2026-05-02T14:24:38Z</time></trkpt><trkpt lat="40.862152917884806" lon="9.018014985873823"><ele>116.0</ele><time>2026-05-02T14:24:39Z</time></trkpt><trkpt lat="40.86221480357587" lon="9.018103413389548"><ele>115.99999999999999</ele><time>2026-05-02T14:24:40Z</time></trkpt><trkpt lat="40.86227030730844" lon="9.018185295816144"><ele>116.0</ele><time>2026-05-02T14:24:41Z</time></trkpt><trkpt lat="40.86231871619536" lon="9.018258542862968"><ele>116.0</ele><time>2026-05-02T14:24:42Z</time></trkpt><trkpt lat="40.86237684683468" lon="9.01835035517377"><ele>116.0</ele><time>2026-05-02T14:24:44Z</time></trkpt><trkpt lat="40.86236809784515" lon="9.018439812141725"><ele>115.99999999999999</ele><time>2026-05-02T14:24:48Z</time></trkpt><trkpt lat="40.86230457489258" lon="9.018466156971321"><ele>116.0</ele><time>2026-05-02T14:24:50Z</time></trkpt><trkpt lat="40.862205304944695" lon="9.018580767804343"><ele>114.8</ele><time>2026-05-02T14:24:52Z</time></trkpt><trkpt lat="40.862176470661325" lon="9.018663429183151"><ele>113.6</ele><time>2026-05-02T14:24:53Z</time></trkpt><trkpt lat="40.862246051769795" lon="9.018795001802147"><ele>112.4</ele><time>2026-05-02T14:24:55Z</time></trkpt><trkpt lat="40.862293084748245" lon="9.01886993124081"><ele>111.2</ele><time>2026-05-02T14:24:56Z</time></trkpt><trkpt lat="40.86235899733239" lon="9.018936062049672"><ele>110.0</ele><time>2026-05-02T14:24:57.001Z</time></trkpt><trkpt lat="40.862450693959" lon="9.019045128645152"><ele>109.0</ele><time>2026-05-02T14:24:58.001Z</time></trkpt><trkpt lat="40.862562366168504" lon="9.019202548801847"><ele>108.0</ele><time>2026-05-02T14:24:59.001Z</time></trkpt><trkpt lat="40.86267752773817" lon="9.019363844929334"><ele>107.0</ele><time>2026-05-02T14:25:00.001Z</time></trkpt><trkpt lat="40.8627693696065" lon="9.019510291460938"><ele>110.33333333333333</ele><time>2026-05-02T14:25:01.001Z</time></trkpt><trkpt lat="40.862868250527775" lon="9.01963481943766"><ele>113.66666666666666</ele><time>2026-05-02T14:25:02.001Z</time></trkpt><trkpt lat="40.862986826344184" lon="9.019764886516942"><ele>117.0</ele><time>2026-05-02T14:25:03.001Z</time></trkpt><trkpt lat="40.863137618511615" lon="9.019900091049557"><ele>116.66666666666666</ele><time>2026-05-02T14:25:04.001Z</time></trkpt><trkpt lat="40.86327854730159" lon="9.020041063972954"><ele>116.33333333333333</ele><time>2026-05-02T14:25:05.001Z</time></trkpt><trkpt lat="40.86341561847369" lon="9.020173340964424"><ele>116.0</ele><time>2026-05-02T14:25:06.001Z</time></trkpt><trkpt lat="40.86353334242037" lon="9.020281005130183"><ele>118.5</ele><time>2026-05-02T14:25:07.001Z</time></trkpt><trkpt lat="40.863665127359845" lon="9.020401452320472"><ele>121.0</ele><time>2026-05-02T14:25:08.001Z</time></trkpt><trkpt lat="40.86379504785945" lon="9.020515383101293"><ele>123.5</ele><time>2026-05-02T14:25:09.001Z</time></trkpt><trkpt lat="40.863902698354146" lon="9.020609900532369"><ele>126.0</ele><time>2026-05-02T14:25:10.001Z</time></trkpt><trkpt lat="40.86399068676144" lon="9.020687817976258"><ele>126.0</ele><time>2026-05-02T14:25:11.001Z</time></trkpt><trkpt lat="40.86406708289897" lon="9.02079908611835"><ele>126.0</ele><time>2026-05-02T14:25:12.001Z</time></trkpt><trkpt lat="40.86413545395955" lon="9.020888662651947"><ele>126.0</ele><time>2026-05-02T14:25:13.001Z</time></trkpt><trkpt lat="40.86420359253707" lon="9.020947991818737"><ele>126.0</ele><time>2026-05-02T14:25:14.001Z</time></trkpt><trkpt lat="40.86427373520072" lon="9.021033519475967"><ele>126.0</ele><time>2026-05-02T14:25:16.001Z</time></trkpt><trkpt lat="40.86435677762979" lon="9.02109621057123"><ele>127.0</ele><time>2026-05-02T14:25:30.001Z</time></trkpt><trkpt lat="40.86446315540175" lon="9.02119200885664"><ele>128.0</ele><time>2026-05-02T14:25:31.001Z</time></trkpt><trkpt lat="40.86454561333873" lon="9.021267012836539"><ele>129.0</ele><time>2026-05-02T14:25:32.001Z</time></trkpt><trkpt lat="40.86463430574473" lon="9.021342206437444"><ele>130.0</ele><time>2026-05-02T14:25:33.001Z</time></trkpt><trkpt lat="40.864764413413084" lon="9.021440892558843"><ele>130.0</ele><time>2026-05-02T14:25:34.001Z</time></trkpt><trkpt lat="40.86489344655493" lon="9.021538847243383"><ele>130.0</ele><time>2026-05-02T14:25:35.001Z</time></trkpt><trkpt lat="40.86502136777005" lon="9.021608628230785"><ele>130.0</ele><time>2026-05-02T14:25:36.001Z</time></trkpt><trkpt lat="40.865152792178854" lon="9.021664015840983"><ele>130.0</ele><time>2026-05-02T14:25:37.001Z</time></trkpt><trkpt lat="40.865292272830146" lon="9.021724853886855"><ele>127.33333333333334</ele><time>2026-05-02T14:25:38.001Z</time></trkpt><trkpt lat="40.86542117240759" lon="9.021797616037459"><ele>124.66666666666666</ele><time>2026-05-02T14:25:39.001Z</time></trkpt><trkpt lat="40.865546584970936" lon="9.021908585613659"><ele>122.0</ele><time>2026-05-02T14:25:40.001Z</time></trkpt><trkpt lat="40.865693751065095" lon="9.02205537556717"><ele>122.0</ele><time>2026-05-02T14:25:41.001Z</time></trkpt><trkpt lat="40.86580390602933" lon="9.022164902395609"><ele>121.99999999999999</ele><time>2026-05-02T14:25:42.001Z</time></trkpt><trkpt lat="40.86590124446584" lon="9.022263929690675"><ele>121.99999999999999</ele><time>2026-05-02T14:25:43.001Z</time></trkpt><trkpt lat="40.86595018150406" lon="9.022329233532798"><ele>122.0</ele><time>2026-05-02T14:25:44.001Z</time></trkpt><trkpt lat="40.86601894122112" lon="9.02242712971855"><ele>122.0</ele><time>2026-05-02T14:25:46.001Z</time></trkpt><trkpt lat="40.866089216476986" lon="9.022512141693374"><ele>122.8</ele><time>2026-05-02T14:27:28.001Z</time></trkpt><trkpt lat="40.86614231524721" lon="9.022571229092279"><ele>123.6</ele><time>2026-05-02T14:27:29.001Z</time></trkpt><trkpt lat="40.866224322189275" lon="9.022665304545294"><ele>124.39999999999999</ele><time>2026-05-02T14:27:30.001Z</time></trkpt><trkpt lat="40.86630198279263" lon="9.02275187886669"><ele>125.19999999999999</ele><time>2026-05-02T14:27:31.001Z</time></trkpt><trkpt lat="40.866371195698314" lon="9.02284848112912"><ele>126.0</ele><time>2026-05-02T14:27:32.001Z</time></trkpt><trkpt lat="40.866435248945926" lon="9.022955779920514"><ele>126.0</ele><time>2026-05-02T14:27:33.001Z</time></trkpt><trkpt lat="40.866507769083526" lon="9.023085752396728"><ele>126.0</ele><time>2026-05-02T14:27:34.001Z</time></trkpt><trkpt lat="40.86657432824992" lon="9.023205585424664"><ele>126.0</ele><time>2026-05-02T14:27:35.001Z</time></trkpt><trkpt lat="40.86662669244927" lon="9.023313676323845"><ele>126.0</ele><time>2026-05-02T14:27:36.001Z</time></trkpt><trkpt lat="40.86664487499299" lon="9.023407136352535"><ele>126.0</ele><time>2026-05-02T14:27:37Z</time></trkpt><trkpt lat="40.86663534253515" lon="9.023493453739995"><ele>125.5</ele><time>2026-05-02T14:27:38Z</time></trkpt><trkpt lat="40.8665829565075" lon="9.023546828150813"><ele>125.0</ele><time>2026-05-02T14:27:39Z</time></trkpt><trkpt lat="40.86655404180045" lon="9.023636778469672"><ele>124.5</ele><time>2026-05-02T14:27:40Z</time></trkpt><trkpt lat="40.86654012912759" lon="9.023755486251867"><ele>124.0</ele><time>2026-05-02T14:27:41Z</time></trkpt><trkpt lat="40.866523753412935" lon="9.023870665538006"><ele>123.5</ele><time>2026-05-02T14:27:42Z</time></trkpt><trkpt lat="40.86653099698598" lon="9.024018620060204"><ele>123.0</ele><time>2026-05-02T14:27:43Z</time></trkpt><trkpt lat="40.866550572022625" lon="9.024159867601405"><ele>123.0</ele><time>2026-05-02T14:27:44Z</time></trkpt><trkpt lat="40.866600021587644" lon="9.024282536323904"><ele>123.00000000000001</ele><time>2026-05-02T14:27:45Z</time></trkpt><trkpt lat="40.86667934080193" lon="9.024399948039752"><ele>123.00000000000001</ele><time>2026-05-02T14:27:46Z</time></trkpt><trkpt lat="40.86675351308321" lon="9.024511218301603"><ele>123.0</ele><time>2026-05-02T14:27:47Z</time></trkpt><trkpt lat="40.866843258313786" lon="9.024571653157214"><ele>123.0</ele><time>2026-05-02T14:27:48Z</time></trkpt><trkpt lat="40.86691942014049" lon="9.024601069200415"><ele>124.25</ele><time>2026-05-02T14:27:49Z</time></trkpt><trkpt lat="40.867015935941616" lon="9.024628891865238"><ele>125.5</ele><time>2026-05-02T14:27:50Z</time></trkpt><trkpt lat="40.86715222981145" lon="9.024610040936329"><ele>126.75</ele><time>2026-05-02T14:27:51Z</time></trkpt><trkpt lat="40.86727232510284" lon="9.024582741570295"><ele>128.0</ele><time>2026-05-02T14:27:52Z</time></trkpt><trkpt lat="40.86737096342305" lon="9.0245610912151"><ele>128.0</ele><time>2026-05-02T14:27:53Z</time></trkpt><trkpt lat="40.86744332627537" lon="9.02455528629021"><ele>128.0</ele><time>2026-05-02T14:27:54Z</time></trkpt><trkpt lat="40.867524909474284" lon="9.024573859943898"><ele>128.0</ele><time>2026-05-02T14:27:55Z</time></trkpt><trkpt lat="40.86760375435995" lon="9.024639861395453"><ele>128.0</ele><time>2026-05-02T14:27:56Z</time></trkpt><trkpt lat="40.86769249506664" lon="9.024692525479141"><ele>128.0</ele><time>2026-05-02T14:27:57Z</time></trkpt><trkpt lat="40.86779889992503" lon="9.024757358407639"><ele>128.16666666666666</ele><time>2026-05-02T14:27:58Z</time></trkpt><trkpt lat="40.86788340354868" lon="9.024810765794882"><ele>128.33333333333331</ele><time>2026-05-02T14:27:59Z</time></trkpt><trkpt lat="40.86794248592596" lon="9.024848685131456"><ele>128.5</ele><time>2026-05-02T14:28:00Z</time></trkpt><trkpt lat="40.86802223203159" lon="9.0249034328678"><ele>128.66666666666666</ele><time>2026-05-02T14:28:01Z</time></trkpt><trkpt lat="40.868103965567364" lon="9.024959209230511"><ele>128.83333333333334</ele><time>2026-05-02T14:28:02Z</time></trkpt><trkpt lat="40.868199713211744" lon="9.024998126798938"><ele>129.0</ele><time>2026-05-02T14:28:03Z</time></trkpt><trkpt lat="40.868295054562836" lon="9.02505454658975"><ele>129.0</ele><time>2026-05-02T14:28:04Z</time></trkpt><trkpt lat="40.86838069395748" lon="9.025096720509683"><ele>129.0</ele><time>2026-05-02T14:28:05Z</time></trkpt><trkpt lat="40.86847443290931" lon="9.025112176554293"><ele>129.0</ele><time>2026-05-02T14:28:06Z</time></trkpt><trkpt lat="40.86856730767282" lon="9.025120526815371"><ele>129.0</ele><time>2026-05-02T14:28:07Z</time></trkpt><trkpt lat="40.86866087815313" lon="9.025131082141314"><ele>129.0</ele><time>2026-05-02T14:28:08Z</time></trkpt><trkpt lat="40.86874906705974" lon="9.025163842019737"><ele>130.0</ele><time>2026-05-02T14:28:09Z</time></trkpt><trkpt lat="40.868829300734994" lon="9.025213330976927"><ele>131.0</ele><time>2026-05-02T14:28:10Z</time></trkpt><trkpt lat="40.86890994424273" lon="9.025276540685082"><ele>132.0</ele><time>2026-05-02T14:28:11Z</time></trkpt><trkpt lat="40.868983665433575" lon="9.025354288268238"><ele>133.0</ele><time>2026-05-02T14:28:12Z</time></trkpt><trkpt lat="40.869061011973365" lon="9.025423531824842"><ele>134.0</ele><time>2026-05-02T14:28:13Z</time></trkpt><trkpt lat="40.869134320892314" lon="9.025468823948323"><ele>134.0</ele><time>2026-05-02T14:28:14Z</time></trkpt><trkpt lat="40.86913215283163" lon="9.02568370534278"><ele>134.0</ele><time>2026-05-02T14:28:15Z</time></trkpt><trkpt lat="40.86917402821086" lon="9.025831010767682"><ele>134.0</ele><time>2026-05-02T14:28:16Z</time></trkpt><trkpt lat="40.8692039171776" lon="9.025981022145059"><ele>134.0</ele><time>2026-05-02T14:28:17Z</time></trkpt><trkpt lat="40.86921989985393" lon="9.02619563240087"><ele>135.0</ele><time>2026-05-02T14:28:18Z</time></trkpt><trkpt lat="40.86923475098469" lon="9.02640927134848"><ele>136.0</ele><time>2026-05-02T14:28:19Z</time></trkpt><trkpt lat="40.86925334514074" lon="9.026633487902805"><ele>137.0</ele><time>2026-05-02T14:28:20Z</time></trkpt><trkpt lat="40.86927573994167" lon="9.026872313006772"><ele>137.0</ele><time>2026-05-02T14:28:21Z</time></trkpt><trkpt lat="40.8692956354578" lon="9.02711201448328"><ele>137.0</ele><time>2026-05-02T14:28:22Z</time></trkpt><trkpt lat="40.86931881554198" lon="9.02738333378456"><ele>137.0</ele><time>2026-05-02T14:28:23Z</time></trkpt><trkpt lat="40.869344941524275" lon="9.02767086898154"><ele>139.33333333333331</ele><time>2026-05-02T14:28:24Z</time></trkpt><trkpt lat="40.86936954216147" lon="9.02794104512956"><ele>141.66666666666666</ele><time>2026-05-02T14:28:25Z</time></trkpt><trkpt lat="40.86939366249816" lon="9.02818042567039"><ele>144.0</ele><time>2026-05-02T14:28:26Z</time></trkpt><trkpt lat="40.869414932600606" lon="9.028372160239025"><ele>144.4</ele><time>2026-05-02T14:28:27Z</time></trkpt><trkpt lat="40.86944342362394" lon="9.028524898055439"><ele>144.8</ele><time>2026-05-02T14:28:28Z</time></trkpt><trkpt lat="40.869488058410695" lon="9.028652922167781"><ele>145.2</ele><time>2026-05-02T14:28:29Z</time></trkpt><trkpt lat="40.86954477557768" lon="9.028737933176311"><ele>145.6</ele><time>2026-05-02T14:28:30Z</time></trkpt><trkpt lat="40.86961599373732" lon="9.028835400470802"><ele>146.0</ele><time>2026-05-02T14:28:31Z</time></trkpt><trkpt lat="40.869680369935615" lon="9.02891320579612"><ele>146.0</ele><time>2026-05-02T14:28:32Z</time></trkpt><trkpt lat="40.86975986560189" lon="9.028993103212674"><ele>146.0</ele><time>2026-05-02T14:28:33Z</time></trkpt><trkpt lat="40.8698497084382" lon="9.029075108737844"><ele>146.0</ele><time>2026-05-02T14:28:34Z</time></trkpt><trkpt lat="40.86996426741403" lon="9.029167292104276"><ele>146.0</ele><time>2026-05-02T14:28:35Z</time></trkpt><trkpt lat="40.87008248918335" lon="9.029263769029644"><ele>145.33333333333331</ele><time>2026-05-02T14:28:36Z</time></trkpt><trkpt lat="40.870196930530874" lon="9.02936096858743"><ele>144.66666666666666</ele><time>2026-05-02T14:28:37Z</time></trkpt><trkpt lat="40.870325309925676" lon="9.029473626413639"><ele>144.0</ele><time>2026-05-02T14:28:38Z</time></trkpt><trkpt lat="40.870462038455685" lon="9.029586449863661"><ele>144.0</ele><time>2026-05-02T14:28:39Z</time></trkpt><trkpt lat="40.870605585969194" lon="9.02970816106556"><ele>144.0</ele><time>2026-05-02T14:28:40Z</time></trkpt><trkpt lat="40.87074916710822" lon="9.029827008076701"><ele>144.0</ele><time>2026-05-02T14:28:41Z</time></trkpt><trkpt lat="40.87088946006043" lon="9.02994272675477"><ele>144.0</ele><time>2026-05-02T14:28:42Z</time></trkpt><trkpt lat="40.87102599490727" lon="9.030056492667496"><ele>144.0</ele><time>2026-05-02T14:28:43Z</time></trkpt><trkpt lat="40.87115310186659" lon="9.030152536326058"><ele>144.0</ele><time>2026-05-02T14:28:44Z</time></trkpt><trkpt lat="40.871275657599604" lon="9.030259579628064"><ele>144.0</ele><time>2026-05-02T14:28:45Z</time></trkpt><trkpt lat="40.87137466767555" lon="9.030383046878223"><ele>144.0</ele><time>2026-05-02T14:28:46Z</time></trkpt><trkpt lat="40.87146756390092" lon="9.030532814650456"><ele>144.0</ele><time>2026-05-02T14:28:47Z</time></trkpt><trkpt lat="40.87154432756584" lon="9.030720714767671"><ele>144.0</ele><time>2026-05-02T14:28:48Z</time></trkpt><trkpt lat="40.87160580215819" lon="9.030918101540388"><ele>143.33333333333334</ele><time>2026-05-02T14:28:49Z</time></trkpt><trkpt lat="40.87165699076947" lon="9.031123456944437"><ele>142.66666666666669</ele><time>2026-05-02T14:28:50Z</time></trkpt><trkpt lat="40.87171199859017" lon="9.031339940028847"><ele>142.0</ele><time>2026-05-02T14:28:51Z</time></trkpt><trkpt lat="40.87177295664768" lon="9.031564654739121"><ele>146.66666666666669</ele><time>2026-05-02T14:28:52Z</time></trkpt><trkpt lat="40.87183440999143" lon="9.031782675276935"><ele>151.33333333333334</ele><time>2026-05-02T14:28:53Z</time></trkpt><trkpt lat="40.8718949690454" lon="9.03200027159272"><ele>156.0</ele><time>2026-05-02T14:28:54Z</time></trkpt><trkpt lat="40.87195772233923" lon="9.032220439482227"><ele>156.0</ele><time>2026-05-02T14:28:55Z</time></trkpt><trkpt lat="40.87203133563881" lon="9.032446998685414"><ele>156.0</ele><time>2026-05-02T14:28:56Z</time></trkpt><trkpt lat="40.872098165527674" lon="9.032668954120286"><ele>156.0</ele><time>2026-05-02T14:28:57Z</time></trkpt><trkpt lat="40.87216095641133" lon="9.032893427446059"><ele>155.66666666666666</ele><time>2026-05-02T14:28:58Z</time></trkpt><trkpt lat="40.87222490397525" lon="9.033115900478228"><ele>155.33333333333331</ele><time>2026-05-02T14:28:59Z</time></trkpt><trkpt lat="40.8722846215268" lon="9.033345214703978"><ele>155.0</ele><time>2026-05-02T14:29:00Z</time></trkpt><trkpt lat="40.87234756774326" lon="9.033572763447241"><ele>154.0</ele><time>2026-05-02T14:29:01Z</time></trkpt><trkpt lat="40.872413313075825" lon="9.033790898390007"><ele>153.0</ele><time>2026-05-02T14:29:02Z</time></trkpt><trkpt lat="40.872479475612266" lon="9.03401790006913"><ele>152.0</ele><time>2026-05-02T14:29:03Z</time></trkpt><trkpt lat="40.87252917881909" lon="9.034218647533127"><ele>150.0</ele><time>2026-05-02T14:29:04Z</time></trkpt><trkpt lat="40.87260300446246" lon="9.034427202659241"><ele>148.0</ele><time>2026-05-02T14:29:05Z</time></trkpt><trkpt lat="40.87269440749687" lon="9.034616013056725"><ele>146.0</ele><time>2026-05-02T14:29:06Z</time></trkpt><trkpt lat="40.872816448650205" lon="9.034777300226555"><ele>148.0</ele><time>2026-05-02T14:29:07Z</time></trkpt><trkpt lat="40.87294464592056" lon="9.034929936892016"><ele>150.0</ele><time>2026-05-02T14:29:08Z</time></trkpt><trkpt lat="40.87306708210978" lon="9.035083092810524"><ele>152.0</ele><time>2026-05-02T14:29:09Z</time></trkpt><trkpt lat="40.87319434994912" lon="9.035238284618943"><ele>152.0</ele><time>2026-05-02T14:29:10Z</time></trkpt><trkpt lat="40.87331600437565" lon="9.035395758893458"><ele>152.0</ele><time>2026-05-02T14:29:11Z</time></trkpt><trkpt lat="40.873435996761074" lon="9.035560355026133"><ele>152.0</ele><time>2026-05-02T14:29:12Z</time></trkpt><trkpt lat="40.8735542680626" lon="9.035729224710169"><ele>154.33333333333331</ele><time>2026-05-02T14:29:13Z</time></trkpt><trkpt lat="40.873664731301346" lon="9.03590323505036"><ele>156.66666666666666</ele><time>2026-05-02T14:29:14Z</time></trkpt><trkpt lat="40.87376058618045" lon="9.036100513709039"><ele>159.0</ele><time>2026-05-02T14:29:15Z</time></trkpt><trkpt lat="40.873829282291275" lon="9.036313962196331"><ele>159.0</ele><time>2026-05-02T14:29:16Z</time></trkpt><trkpt lat="40.87389262629405" lon="9.036532502057005"><ele>159.0</ele><time>2026-05-02T14:29:17Z</time></trkpt><trkpt lat="40.87395549890957" lon="9.036746776964133"><ele>159.0</ele><time>2026-05-02T14:29:18Z</time></trkpt><trkpt lat="40.87402169343248" lon="9.036961465863099"><ele>156.66666666666666</ele><time>2026-05-02T14:29:19Z</time></trkpt><trkpt lat="40.874087137915524" lon="9.03717442595615"><ele>154.33333333333331</ele><time>2026-05-02T14:29:20Z</time></trkpt><trkpt lat="40.8741548114997" lon="9.03739056183507"><ele>152.0</ele><time>2026-05-02T14:29:21Z</time></trkpt><trkpt lat="40.87422099197732" lon="9.037610526751529"><ele>157.33333333333331</ele><time>2026-05-02T14:29:22Z</time></trkpt><trkpt lat="40.87428939098805" lon="9.03782897347139"><ele>162.66666666666666</ele><time>2026-05-02T14:29:23Z</time></trkpt><trkpt lat="40.874348463563365" lon="9.038032067166244"><ele>168.0</ele><time>2026-05-02T14:29:24Z</time></trkpt><trkpt lat="40.87440823227041" lon="9.03823277235208"><ele>166.5</ele><time>2026-05-02T14:29:25Z</time></trkpt><trkpt lat="40.874465405828154" lon="9.038398916914778"><ele>165.0</ele><time>2026-05-02T14:29:26Z</time></trkpt><trkpt lat="40.874514014962465" lon="9.038554809083196"><ele>163.5</ele><time>2026-05-02T14:29:27Z</time></trkpt><trkpt lat="40.87455950529199" lon="9.038689262647871"><ele>162.0</ele><time>2026-05-02T14:29:28Z</time></trkpt><trkpt lat="40.87461690254621" lon="9.03883792570946"><ele>162.0</ele><time>2026-05-02T14:29:29Z</time></trkpt><trkpt lat="40.874676419978655" lon="9.038955217533609"><ele>162.0</ele><time>2026-05-02T14:29:30Z</time></trkpt><trkpt lat="40.87472205332951" lon="9.03904727165159"><ele>162.0</ele><time>2026-05-02T14:29:31Z</time></trkpt><trkpt lat="40.874790988948895" lon="9.03917364568354"><ele>162.0</ele><time>2026-05-02T14:29:33Z</time></trkpt><trkpt lat="40.87482788398193" lon="9.03926921205507"><ele>162.0</ele><time>2026-05-02T14:29:36Z</time></trkpt><trkpt lat="40.87475725042158" lon="9.039291948153787"><ele>162.0</ele><time>2026-05-02T14:29:41Z</time></trkpt><trkpt lat="40.87469473409075" lon="9.039228685838504"><ele>162.0</ele><time>2026-05-02T14:29:43Z</time></trkpt><trkpt lat="40.87465161630531" lon="9.039153655196467"><ele>162.0</ele><time>2026-05-02T14:29:44Z</time></trkpt><trkpt lat="40.874598434032286" lon="9.039051393567112"><ele>162.0</ele><time>2026-05-02T14:29:45Z</time></trkpt><trkpt lat="40.87456520417186" lon="9.038948733567752"><ele>162.0</ele><time>2026-05-02T14:29:46Z</time></trkpt><trkpt lat="40.874516475841794" lon="9.038873751821612"><ele>162.0</ele><time>2026-05-02T14:29:47Z</time></trkpt><trkpt lat="40.87445306853462" lon="9.038833711261205"><ele>162.0</ele><time>2026-05-02T14:29:48Z</time></trkpt><trkpt lat="40.87437961729874" lon="9.038800539372117"><ele>162.0</ele><time>2026-05-02T14:29:50Z</time></trkpt><trkpt lat="40.87427604905586" lon="9.038796459976355"><ele>162.0</ele><time>2026-05-02T14:29:52Z</time></trkpt><trkpt lat="40.874197627909936" lon="9.038816969537052"><ele>162.0</ele><time>2026-05-02T14:29:56Z</time></trkpt><trkpt lat="40.87413237685261" lon="9.038856767859903"><ele>162.0</ele><time>2026-05-02T14:30:00Z</time></trkpt><trkpt lat="40.87406538613275" lon="9.038928835560666"><ele>162.0</ele><time>2026-05-02T14:30:02Z</time></trkpt><trkpt lat="40.87401066435299" lon="9.038974906656241"><ele>162.0</ele><time>2026-05-02T14:30:04Z</time></trkpt><trkpt lat="40.874092047470214" lon="9.03889116072939"><ele>162.0</ele><time>2026-05-02T14:30:22Z</time></trkpt><trkpt lat="40.874186357123364" lon="9.038844026830189"><ele>162.0</ele><time>2026-05-02T14:30:24Z</time></trkpt><trkpt lat="40.87426752603089" lon="9.038822039795"><ele>162.0</ele><time>2026-05-02T14:30:26Z</time></trkpt><trkpt lat="40.8743447190768" lon="9.038834972983631"><ele>162.0</ele><time>2026-05-02T14:30:28Z</time></trkpt><trkpt lat="40.87442504665941" lon="9.0388376017953"><ele>162.0</ele><time>2026-05-02T14:30:32Z</time></trkpt><trkpt lat="40.87451343781829" lon="9.038908549246058"><ele>162.0</ele><time>2026-05-02T14:30:34Z</time></trkpt><trkpt lat="40.874559193587146" lon="9.038980518869984"><ele>162.0</ele><time>2026-05-02T14:30:35Z</time></trkpt><trkpt lat="40.87460730813382" lon="9.03905662394618"><ele>162.0</ele><time>2026-05-02T14:30:36Z</time></trkpt><trkpt lat="40.874647093986376" lon="9.039134848276234"><ele>162.0</ele><time>2026-05-02T14:30:37Z</time></trkpt><trkpt lat="40.87469228315162" lon="9.039218179760095"><ele>162.0</ele><time>2026-05-02T14:30:38Z</time></trkpt><trkpt lat="40.87473196658302" lon="9.0392937720883"><ele>162.0</ele><time>2026-05-02T14:30:39Z</time></trkpt><trkpt lat="40.874782228268835" lon="9.039354215366615"><ele>162.0</ele><time>2026-05-02T14:30:40Z</time></trkpt><trkpt lat="40.874836407797154" lon="9.039425658878006"><ele>160.66666666666666</ele><time>2026-05-02T14:30:42Z</time></trkpt><trkpt lat="40.874837421325836" lon="9.039529038047016"><ele>159.33333333333334</ele><time>2026-05-02T14:30:44Z</time></trkpt><trkpt lat="40.874834532883455" lon="9.039683602654954"><ele>158.0</ele><time>2026-05-02T14:30:46Z</time></trkpt><trkpt lat="40.874825805667534" lon="9.039787909864598"><ele>156.66666666666669</ele><time>2026-05-02T14:30:48Z</time></trkpt><trkpt lat="40.874812029187495" lon="9.039884916986178"><ele>155.33333333333334</ele><time>2026-05-02T14:30:52Z</time></trkpt><trkpt lat="40.874877144146524" lon="9.039836867809509"><ele>154.0</ele><time>2026-05-02T14:30:57Z</time></trkpt><trkpt lat="40.874841425420065" lon="9.039710774145936"><ele>154.0</ele><time>2026-05-02T14:30:59Z</time></trkpt><trkpt lat="40.874794818333484" lon="9.03980208626313"><ele>154.0</ele><time>2026-05-02T14:31:36Z</time></trkpt><trkpt lat="40.87484160533932" lon="9.039898407268472"><ele>154.0</ele><time>2026-05-02T14:31:37Z</time></trkpt><trkpt lat="40.874667388594084" lon="9.039832775466902"><ele>154.0</ele><time>2026-05-02T14:32:28Z</time></trkpt><trkpt lat="40.87477748801949" lon="9.039803699031724"><ele>154.0</ele><time>2026-05-02T14:32:31Z</time></trkpt><trkpt lat="40.87483500847193" lon="9.039741678693225"><ele>154.0</ele><time>2026-05-02T14:32:33Z</time></trkpt><trkpt lat="40.87484615521666" lon="9.039638683918096"><ele>154.0</ele><time>2026-05-02T14:32:35Z</time></trkpt><trkpt lat="40.87483944532782" lon="9.039546459299437"><ele>154.0</ele><time>2026-05-02T14:32:36Z</time></trkpt><trkpt lat="40.874833574733536" lon="9.039387578663405"><ele>154.0</ele><time>2026-05-02T14:32:38Z</time></trkpt><trkpt lat="40.874906339105365" lon="9.039385460451653"><ele>154.0</ele><time>2026-05-02T14:32:43Z</time></trkpt><trkpt lat="40.87494848961538" lon="9.039505834148436"><ele>154.0</ele><time>2026-05-02T14:32:45Z</time></trkpt><trkpt lat="40.87500678554089" lon="9.039616110567287"><ele>154.0</ele><time>2026-05-02T14:32:47Z</time></trkpt><trkpt lat="40.87506167694978" lon="9.039735311685966"><ele>154.0</ele><time>2026-05-02T14:32:49Z</time></trkpt><trkpt lat="40.875130028044595" lon="9.039843961535718"><ele>154.0</ele><time>2026-05-02T14:32:51Z</time></trkpt><trkpt lat="40.875190143049394" lon="9.03997599024424"><ele>154.0</ele><time>2026-05-02T14:32:53Z</time></trkpt><trkpt lat="40.87525175393674" lon="9.040095029368452"><ele>155.4</ele><time>2026-05-02T14:32:55Z</time></trkpt><trkpt lat="40.87530378547442" lon="9.040224244496747"><ele>156.8</ele><time>2026-05-02T14:32:57Z</time></trkpt><trkpt lat="40.87537903311767" lon="9.040370939107808"><ele>158.20000000000002</ele><time>2026-05-02T14:32:59Z</time></trkpt><trkpt lat="40.875414254418416" lon="9.040445863769762"><ele>159.60000000000002</ele><time>2026-05-02T14:33:00Z</time></trkpt><trkpt lat="40.875489141022264" lon="9.040581968979845"><ele>161.0</ele><time>2026-05-02T14:33:02Z</time></trkpt><trkpt lat="40.87552255592396" lon="9.04065987434278"><ele>161.0</ele><time>2026-05-02T14:33:03Z</time></trkpt><trkpt lat="40.87556455776049" lon="9.04074328886289"><ele>161.0</ele><time>2026-05-02T14:33:04Z</time></trkpt><trkpt lat="40.87561124545003" lon="9.040836581284395"><ele>161.0</ele><time>2026-05-02T14:33:05Z</time></trkpt><trkpt lat="40.87565434210051" lon="9.040931149653048"><ele>161.0</ele><time>2026-05-02T14:33:06Z</time></trkpt><trkpt lat="40.87570136645487" lon="9.041031266671455"><ele>161.0</ele><time>2026-05-02T14:33:07Z</time></trkpt><trkpt lat="40.875751580225426" lon="9.041127704870444"><ele>161.0</ele><time>2026-05-02T14:33:08Z</time></trkpt><trkpt lat="40.87580543102159" lon="9.041223044351026"><ele>161.33333333333331</ele><time>2026-05-02T14:33:09Z</time></trkpt><trkpt lat="40.87584981326401" lon="9.041321453645606"><ele>161.66666666666666</ele><time>2026-05-02T14:33:10Z</time></trkpt><trkpt lat="40.87589813811811" lon="9.041411829041623"><ele>162.0</ele><time>2026-05-02T14:33:11Z</time></trkpt><trkpt lat="40.87594801071476" lon="9.041487783381227"><ele>162.33333333333334</ele><time>2026-05-02T14:33:12Z</time></trkpt><trkpt lat="40.876013632050125" lon="9.041546624232076"><ele>162.66666666666669</ele><time>2026-05-02T14:33:13Z</time></trkpt><trkpt lat="40.87607739106115" lon="9.04160419002282"><ele>163.0</ele><time>2026-05-02T14:33:14Z</time></trkpt><trkpt lat="40.87613888703864" lon="9.041667092945872"><ele>163.0</ele><time>2026-05-02T14:33:15Z</time></trkpt><trkpt lat="40.876197227032414" lon="9.041733550093646"><ele>163.0</ele><time>2026-05-02T14:33:16Z</time></trkpt><trkpt lat="40.876260365582375" lon="9.04179784020201"><ele>163.0</ele><time>2026-05-02T14:33:17Z</time></trkpt><trkpt lat="40.876321861170524" lon="9.041860459708253"><ele>163.0</ele><time>2026-05-02T14:33:18Z</time></trkpt><trkpt lat="40.876381703772665" lon="9.041928935023408"><ele>163.0</ele><time>2026-05-02T14:33:19Z</time></trkpt><trkpt lat="40.876443724962655" lon="9.041998394322414"><ele>163.0</ele><time>2026-05-02T14:33:20Z</time></trkpt><trkpt lat="40.876504678170065" lon="9.042065399893177"><ele>163.0</ele><time>2026-05-02T14:33:21Z</time></trkpt><trkpt lat="40.87656529066451" lon="9.042127902660031"><ele>163.0</ele><time>2026-05-02T14:33:22Z</time></trkpt><trkpt lat="40.87662364777685" lon="9.042196863059855"><ele>163.0</ele><time>2026-05-02T14:33:23Z</time></trkpt><trkpt lat="40.876685502349865" lon="9.04226868685316"><ele>163.0</ele><time>2026-05-02T14:33:24Z</time></trkpt><trkpt lat="40.87674281054272" lon="9.042341380049816"><ele>163.0</ele><time>2026-05-02T14:33:25Z</time></trkpt><trkpt lat="40.87679900082545" lon="9.042419872399389"><ele>163.0</ele><time>2026-05-02T14:33:26Z</time></trkpt><trkpt lat="40.87685325650329" lon="9.042502505891353"><ele>164.66666666666669</ele><time>2026-05-02T14:33:27Z</time></trkpt><trkpt lat="40.876907745301715" lon="9.04259592659151"><ele>166.33333333333334</ele><time>2026-05-02T14:33:28Z</time></trkpt><trkpt lat="40.8769582522819" lon="9.042685152496865"><ele>168.0</ele><time>2026-05-02T14:33:29Z</time></trkpt><trkpt lat="40.87700694399065" lon="9.042774261884476"><ele>169.66666666666666</ele><time>2026-05-02T14:33:30Z</time></trkpt><trkpt lat="40.8770534552193" lon="9.042873415354352"><ele>171.33333333333331</ele><time>2026-05-02T14:33:31Z</time></trkpt><trkpt lat="40.877097601263095" lon="9.042973252835708"><ele>173.0</ele><time>2026-05-02T14:33:32Z</time></trkpt><trkpt lat="40.87713782041915" lon="9.043076024519287"><ele>173.0</ele><time>2026-05-02T14:33:33Z</time></trkpt><trkpt lat="40.877175862485366" lon="9.043175601294909"><ele>173.0</ele><time>2026-05-02T14:33:34Z</time></trkpt><trkpt lat="40.87721316004199" lon="9.043279321106239"><ele>173.0</ele><time>2026-05-02T14:33:35Z</time></trkpt><trkpt lat="40.877253642647204" lon="9.043378058420213"><ele>173.0</ele><time>2026-05-02T14:33:36Z</time></trkpt><trkpt lat="40.87728886081098" lon="9.043480251411609"><ele>173.0</ele><time>2026-05-02T14:33:37Z</time></trkpt><trkpt lat="40.877321873876355" lon="9.043581499858597"><ele>173.0</ele><time>2026-05-02T14:33:38Z</time></trkpt><trkpt lat="40.87735832007514" lon="9.043684853669063"><ele>172.66666666666666</ele><time>2026-05-02T14:33:39Z</time></trkpt><trkpt lat="40.87739067742454" lon="9.043785431063203"><ele>172.33333333333331</ele><time>2026-05-02T14:33:40Z</time></trkpt><trkpt lat="40.87741150217649" lon="9.043897385288536"><ele>172.0</ele><time>2026-05-02T14:33:41Z</time></trkpt><trkpt lat="40.877412949932946" lon="9.044010441134878"><ele>171.66666666666666</ele><time>2026-05-02T14:33:42Z</time></trkpt><trkpt lat="40.87742562329861" lon="9.04412388534315"><ele>171.33333333333334</ele><time>2026-05-02T14:33:43Z</time></trkpt><trkpt lat="40.877434263283035" lon="9.044236087399018"><ele>171.0</ele><time>2026-05-02T14:33:44Z</time></trkpt><trkpt lat="40.87744299214066" lon="9.044353165707898"><ele>170.0</ele><time>2026-05-02T14:33:45Z</time></trkpt><trkpt lat="40.87745903399925" lon="9.044467491856574"><ele>169.0</ele><time>2026-05-02T14:33:46Z</time></trkpt><trkpt lat="40.87746717372773" lon="9.044588049150637"><ele>168.0</ele><time>2026-05-02T14:33:47Z</time></trkpt><trkpt lat="40.8774769580795" lon="9.044683087968346"><ele>167.0</ele><time>2026-05-02T14:33:48Z</time></trkpt><trkpt lat="40.87749498756916" lon="9.044770352818391"><ele>166.0</ele><time>2026-05-02T14:33:49Z</time></trkpt><trkpt lat="40.877529764298345" lon="9.044912628991893"><ele>165.0</ele><time>2026-05-02T14:33:51Z</time></trkpt><trkpt lat="40.87757747579336" lon="9.04508395448622"><ele>168.75</ele><time>2026-05-02T14:34:54Z</time></trkpt><trkpt lat="40.87761098520413" lon="9.045243479841588"><ele>172.5</ele><time>2026-05-02T14:34:56Z</time></trkpt><trkpt lat="40.87763750643812" lon="9.04537140527862"><ele>176.25</ele><time>2026-05-02T14:34:57Z</time></trkpt><trkpt lat="40.87766797739709" lon="9.045526544488482"><ele>180.0</ele><time>2026-05-02T14:34:58Z</time></trkpt><trkpt lat="40.87768819927011" lon="9.045665672871682"><ele>180.0</ele><time>2026-05-02T14:34:59Z</time></trkpt><trkpt lat="40.87770495556" lon="9.045793411967555"><ele>180.0</ele><time>2026-05-02T14:35:00Z</time></trkpt><trkpt lat="40.877721317158304" lon="9.045904886828847"><ele>180.0</ele><time>2026-05-02T14:35:01Z</time></trkpt><trkpt lat="40.87777153863397" lon="9.046035869933752"><ele>180.0</ele><time>2026-05-02T14:35:03Z</time></trkpt><trkpt lat="40.87779416255307" lon="9.046119054975364"><ele>180.0</ele><time>2026-05-02T14:35:05Z</time></trkpt><trkpt lat="40.87790907533729" lon="9.04598572172712"><ele>180.0</ele><time>2026-05-02T14:35:10Z</time></trkpt><trkpt lat="40.87788523376375" lon="9.045837974635656"><ele>180.0</ele><time>2026-05-02T14:35:12Z</time></trkpt><trkpt lat="40.877866875744246" lon="9.045716424987319"><ele>180.0</ele><time>2026-05-02T14:35:13Z</time></trkpt><trkpt lat="40.87785297874646" lon="9.045580229918748"><ele>180.0</ele><time>2026-05-02T14:35:14Z</time></trkpt><trkpt lat="40.8778420374181" lon="9.045466577379841"><ele>180.0</ele><time>2026-05-02T14:35:15Z</time></trkpt><trkpt lat="40.87783076278967" lon="9.045344415003862"><ele>180.0</ele><time>2026-05-02T14:35:16Z</time></trkpt><trkpt lat="40.87782396921897" lon="9.045211571951246"><ele>180.0</ele><time>2026-05-02T14:35:17Z</time></trkpt><trkpt lat="40.877809710203884" lon="9.04497796522397"><ele>180.0</ele><time>2026-05-02T14:35:18Z</time></trkpt><trkpt lat="40.87777895781563" lon="9.044819404776256"><ele>180.0</ele><time>2026-05-02T14:35:19Z</time></trkpt><trkpt lat="40.87774581330161" lon="9.044669327559394"><ele>181.75</ele><time>2026-05-02T14:35:20Z</time></trkpt><trkpt lat="40.87770874609352" lon="9.044509539859124"><ele>183.5</ele><time>2026-05-02T14:35:21Z</time></trkpt><trkpt lat="40.87766689204203" lon="9.044338232302248"><ele>185.25</ele><time>2026-05-02T14:35:22Z</time></trkpt><trkpt lat="40.877627664361" lon="9.044177674412248"><ele>187.0</ele><time>2026-05-02T14:35:23Z</time></trkpt><trkpt lat="40.87758753142658" lon="9.044013411397412"><ele>183.5</ele><time>2026-05-02T14:35:24Z</time></trkpt><trkpt lat="40.87754168680489" lon="9.04383510166275"><ele>180.0</ele><time>2026-05-02T14:35:25Z</time></trkpt><trkpt lat="40.87749071446851" lon="9.043645307384786"><ele>176.5</ele><time>2026-05-02T14:35:26Z</time></trkpt><trkpt lat="40.87743593628662" lon="9.04345713559575"><ele>173.0</ele><time>2026-05-02T14:35:27Z</time></trkpt><trkpt lat="40.87737570457182" lon="9.04326955986026"><ele>173.0</ele><time>2026-05-02T14:35:28Z</time></trkpt><trkpt lat="40.87731142882014" lon="9.043082837330164"><ele>173.0</ele><time>2026-05-02T14:35:29Z</time></trkpt><trkpt lat="40.87724429026459" lon="9.042896787917346"><ele>173.0</ele><time>2026-05-02T14:35:30Z</time></trkpt><trkpt lat="40.877174561935355" lon="9.04271453669827"><ele>173.0</ele><time>2026-05-02T14:35:31Z</time></trkpt><trkpt lat="40.87709936289439" lon="9.042530416594255"><ele>173.0</ele><time>2026-05-02T14:35:32Z</time></trkpt><trkpt lat="40.87701967332574" lon="9.042358675198457"><ele>173.0</ele><time>2026-05-02T14:35:33Z</time></trkpt><trkpt lat="40.87693751438165" lon="9.042190476135826"><ele>174.33333333333331</ele><time>2026-05-02T14:35:34Z</time></trkpt><trkpt lat="40.87684819362238" lon="9.042019630900336"><ele>175.66666666666666</ele><time>2026-05-02T14:35:35Z</time></trkpt><trkpt lat="40.87675973639416" lon="9.041857659675111"><ele>177.0</ele><time>2026-05-02T14:35:36Z</time></trkpt><trkpt lat="40.87667251914119" lon="9.041701166748444"><ele>173.33333333333334</ele><time>2026-05-02T14:35:37Z</time></trkpt><trkpt lat="40.87658247400819" lon="9.041543346616486"><ele>169.66666666666669</ele><time>2026-05-02T14:35:38Z</time></trkpt><trkpt lat="40.87648938318636" lon="9.041381166459844"><ele>166.0</ele><time>2026-05-02T14:35:39Z</time></trkpt><trkpt lat="40.8763985967491" lon="9.04122562983202"><ele>166.0</ele><time>2026-05-02T14:35:40Z</time></trkpt><trkpt lat="40.87631430509642" lon="9.041081220377425"><ele>166.0</ele><time>2026-05-02T14:35:41Z</time></trkpt><trkpt lat="40.87623535551331" lon="9.0409459626261"><ele>166.0</ele><time>2026-05-02T14:35:42Z</time></trkpt><trkpt lat="40.876151609794846" lon="9.040802488268463"><ele>166.0</ele><time>2026-05-02T14:35:43Z</time></trkpt><trkpt lat="40.87607305516197" lon="9.040667907366561"><ele>164.33333333333334</ele><time>2026-05-02T14:35:44Z</time></trkpt><trkpt lat="40.875984627532766" lon="9.0405177422928"><ele>162.66666666666666</ele><time>2026-05-02T14:35:45Z</time></trkpt><trkpt lat="40.87587395476887" lon="9.040330069548332"><ele>161.0</ele><time>2026-05-02T14:35:46Z</time></trkpt><trkpt lat="40.87577005074325" lon="9.040151849286985"><ele>161.0</ele><time>2026-05-02T14:35:47Z</time></trkpt><trkpt lat="40.87566666026245" lon="9.039972607798118"><ele>161.0</ele><time>2026-05-02T14:35:48Z</time></trkpt><trkpt lat="40.875548422533136" lon="9.039769939647135"><ele>161.0</ele><time>2026-05-02T14:35:49Z</time></trkpt><trkpt lat="40.87541813356433" lon="9.039553026032365"><ele>161.33333333333331</ele><time>2026-05-02T14:35:50Z</time></trkpt><trkpt lat="40.87529625807066" lon="9.039347240103549"><ele>161.66666666666666</ele><time>2026-05-02T14:35:51Z</time></trkpt><trkpt lat="40.87518686589924" lon="9.039157561925174"><ele>162.0</ele><time>2026-05-02T14:35:52Z</time></trkpt><trkpt lat="40.87508974122278" lon="9.03898580248507"><ele>162.0</ele><time>2026-05-02T14:35:53Z</time></trkpt><trkpt lat="40.875003018920744" lon="9.038824396409115"><ele>162.0</ele><time>2026-05-02T14:35:54Z</time></trkpt><trkpt lat="40.874914207760106" lon="9.038652844127439"><ele>162.0</ele><time>2026-05-02T14:35:55Z</time></trkpt><trkpt lat="40.874824806830404" lon="9.038475394022408"><ele>162.0</ele><time>2026-05-02T14:35:56Z</time></trkpt><trkpt lat="40.87475540683799" lon="9.03831391409439"><ele>162.0</ele><time>2026-05-02T14:35:57Z</time></trkpt><trkpt lat="40.8746809273624" lon="9.038130803177987"><ele>162.0</ele><time>2026-05-02T14:35:58Z</time></trkpt><trkpt lat="40.87461645593315" lon="9.037960295778129"><ele>162.0</ele><time>2026-05-02T14:35:58.999Z</time></trkpt><trkpt lat="40.87455165113016" lon="9.037769625454105"><ele>164.0</ele><time>2026-05-02T14:35:59.999Z</time></trkpt><trkpt lat="40.8744881509238" lon="9.037571105781987"><ele>166.0</ele><time>2026-05-02T14:36:00.999Z</time></trkpt><trkpt lat="40.874428797240085" lon="9.037378641322094"><ele>168.0</ele><time>2026-05-02T14:36:01.999Z</time></trkpt><trkpt lat="40.874370653418836" lon="9.037180707955015"><ele>165.0</ele><time>2026-05-02T14:36:02.999Z</time></trkpt><trkpt lat="40.874312779253046" lon="9.036982905754906"><ele>162.0</ele><time>2026-05-02T14:36:03.999Z</time></trkpt><trkpt lat="40.874252852628615" lon="9.036778588991819"><ele>159.0</ele><time>2026-05-02T14:36:04.999Z</time></trkpt><trkpt lat="40.87419213559073" lon="9.036576088703292"><ele>159.0</ele><time>2026-05-02T14:36:05.999Z</time></trkpt><trkpt lat="40.87412827138607" lon="9.03637044338167"><ele>159.0</ele><time>2026-05-02T14:36:06.999Z</time></trkpt><trkpt lat="40.87405081631528" lon="9.036154478648223"><ele>159.0</ele><time>2026-05-02T14:36:07.999Z</time></trkpt><trkpt lat="40.873970848805186" lon="9.035950921653203"><ele>162.33333333333334</ele><time>2026-05-02T14:36:08.999Z</time></trkpt><trkpt lat="40.87388139639004" lon="9.035746580804243"><ele>165.66666666666669</ele><time>2026-05-02T14:36:09.999Z</time></trkpt><trkpt lat="40.87378408116009" lon="9.03554881358804"><ele>169.0</ele><time>2026-05-02T14:36:10.999Z</time></trkpt><trkpt lat="40.87368785296063" lon="9.035368977980543"><ele>169.0</ele><time>2026-05-02T14:36:11.999Z</time></trkpt><trkpt lat="40.87358961361408" lon="9.035194171329364"><ele>169.0</ele><time>2026-05-02T14:36:12.999Z</time></trkpt><trkpt lat="40.87348747517912" lon="9.035017116780791"><ele>169.0</ele><time>2026-05-02T14:36:13.999Z</time></trkpt><trkpt lat="40.873387146336995" lon="9.034848542767417"><ele>168.33333333333334</ele><time>2026-05-02T14:36:14.999Z</time></trkpt><trkpt lat="40.87328589476445" lon="9.03467841918125"><ele>167.66666666666666</ele><time>2026-05-02T14:36:15.999Z</time></trkpt><trkpt lat="40.8731932089557" lon="9.034519558482208"><ele>167.0</ele><time>2026-05-02T14:36:16.999Z</time></trkpt><trkpt lat="40.87310452967178" lon="9.034364668525711"><ele>167.0</ele><time>2026-05-02T14:36:17.999Z</time></trkpt><trkpt lat="40.87301920681042" lon="9.034210845622939"><ele>167.0</ele><time>2026-05-02T14:36:18.999Z</time></trkpt><trkpt lat="40.87293936285851" lon="9.034056242791715"><ele>167.0</ele><time>2026-05-02T14:36:19.999Z</time></trkpt><trkpt lat="40.872873926133934" lon="9.033908597800272"><ele>167.0</ele><time>2026-05-02T14:36:20.999Z</time></trkpt><trkpt lat="40.87279960366173" lon="9.033737164816516"><ele>163.0</ele><time>2026-05-02T14:36:21.999Z</time></trkpt><trkpt lat="40.872723783052294" lon="9.033551514679944"><ele>159.0</ele><time>2026-05-02T14:36:22.999Z</time></trkpt><trkpt lat="40.872655959453816" lon="9.033373037404495"><ele>155.0</ele><time>2026-05-02T14:36:23.999Z</time></trkpt><trkpt lat="40.87259006462696" lon="9.033185072160366"><ele>155.0</ele><time>2026-05-02T14:36:24.999Z</time></trkpt><trkpt lat="40.87252540557319" lon="9.03299213219867"><ele>155.0</ele><time>2026-05-02T14:36:25.999Z</time></trkpt><trkpt lat="40.872459604603314" lon="9.032788185356864"><ele>155.0</ele><time>2026-05-02T14:36:26.999Z</time></trkpt><trkpt lat="40.87239367942112" lon="9.032583853500332"><ele>155.33333333333331</ele><time>2026-05-02T14:36:27.999Z</time></trkpt><trkpt lat="40.872327183115374" lon="9.032377751622127"><ele>155.66666666666666</ele><time>2026-05-02T14:36:28.999Z</time></trkpt><trkpt lat="40.8722602204387" lon="9.032171569960543"><ele>156.0</ele><time>2026-05-02T14:36:29.999Z</time></trkpt><trkpt lat="40.872194802374906" lon="9.031971044174716"><ele>156.0</ele><time>2026-05-02T14:36:30.999Z</time></trkpt><trkpt lat="40.87213058318467" lon="9.031774193220945"><ele>156.0</ele><time>2026-05-02T14:36:31.999Z</time></trkpt><trkpt lat="40.87206891874063" lon="9.031585173392783"><ele>156.0</ele><time>2026-05-02T14:36:32.999Z</time></trkpt><trkpt lat="40.872008250298656" lon="9.031399206549699"><ele>157.0</ele><time>2026-05-02T14:36:33.999Z</time></trkpt><trkpt lat="40.87195193140591" lon="9.031224440341726"><ele>158.0</ele><time>2026-05-02T14:36:34.999Z</time></trkpt><trkpt lat="40.871893290622864" lon="9.031042246342448"><ele>159.0</ele><time>2026-05-02T14:36:35.999Z</time></trkpt><trkpt lat="40.87183769895785" lon="9.030869525822528"><ele>160.0</ele><time>2026-05-02T14:36:36.999Z</time></trkpt><trkpt lat="40.8717820582361" lon="9.030696040503672"><ele>156.8</ele><time>2026-05-02T14:36:37.999Z</time></trkpt><trkpt lat="40.8717357977253" lon="9.030550753998405"><ele>153.6</ele><time>2026-05-02T14:36:38.999Z</time></trkpt><trkpt lat="40.87169132605991" lon="9.030411085778033"><ele>150.4</ele><time>2026-05-02T14:36:39.999Z</time></trkpt><trkpt lat="40.871663462889956" lon="9.030323577958027"><ele>147.2</ele><time>2026-05-02T14:36:40.999Z</time></trkpt><trkpt lat="40.87161560683782" lon="9.030173612432536"><ele>144.0</ele><time>2026-05-02T14:36:42.999Z</time></trkpt><trkpt lat="40.87158671229753" lon="9.030084429295611"><ele>144.0</ele><time>2026-05-02T14:36:43.999Z</time></trkpt><trkpt lat="40.871557498240506" lon="9.029994260058702"><ele>144.0</ele><time>2026-05-02T14:36:44.999Z</time></trkpt><trkpt lat="40.871510178790615" lon="9.029884667404387"><ele>144.0</ele><time>2026-05-02T14:36:45.999Z</time></trkpt><trkpt lat="40.87145326304048" lon="9.029758573775803"><ele>144.0</ele><time>2026-05-02T14:36:46.999Z</time></trkpt><trkpt lat="40.871395758045246" lon="9.029642843648226"><ele>144.0</ele><time>2026-05-02T14:36:47.999Z</time></trkpt><trkpt lat="40.87133614565755" lon="9.029533539340616"><ele>144.0</ele><time>2026-05-02T14:36:48.999Z</time></trkpt><trkpt lat="40.87066613032513" lon="9.029746455544972"><ele>144.0</ele><time>2026-05-02T14:36:49.999Z</time></trkpt><trkpt lat="40.87054686452635" lon="9.029635086370297"><ele>144.0</ele><time>2026-05-02T14:36:50.999Z</time></trkpt><trkpt lat="40.87042599597486" lon="9.02953048783488"><ele>144.0</ele><time>2026-05-02T14:36:51.999Z</time></trkpt><trkpt lat="40.87030032601727" lon="9.029424445749818"><ele>144.0</ele><time>2026-05-02T14:36:52.999Z</time></trkpt><trkpt lat="40.870168540816735" lon="9.029303798846371"><ele>143.66666666666666</ele><time>2026-05-02T14:36:53.999Z</time></trkpt><trkpt lat="40.87002642196498" lon="9.029188166498793"><ele>143.33333333333331</ele><time>2026-05-02T14:36:54.999Z</time></trkpt><trkpt lat="40.869892227775" lon="9.029084997822954"><ele>143.0</ele><time>2026-05-02T14:36:55.999Z</time></trkpt><trkpt lat="40.86975160500525" lon="9.02896275593269"><ele>144.0</ele><time>2026-05-02T14:36:56.999Z</time></trkpt><trkpt lat="40.869615765627465" lon="9.028825480818465"><ele>145.0</ele><time>2026-05-02T14:36:57.999Z</time></trkpt><trkpt lat="40.869520440891044" lon="9.028663615853171"><ele>146.0</ele><time>2026-05-02T14:36:58.999Z</time></trkpt><trkpt lat="40.86944605285555" lon="9.028481025844366"><ele>145.33333333333331</ele><time>2026-05-02T14:36:59.999Z</time></trkpt><trkpt lat="40.86940405541011" lon="9.028289148430385"><ele>144.66666666666666</ele><time>2026-05-02T14:37:00.999Z</time></trkpt><trkpt lat="40.869382523425465" lon="9.028079010339537"><ele>144.0</ele><time>2026-05-02T14:37:01.999Z</time></trkpt><trkpt lat="40.86936739482578" lon="9.02784679486354"><ele>144.0</ele><time>2026-05-02T14:37:02.999Z</time></trkpt><trkpt lat="40.86935039956627" lon="9.027612524455247"><ele>144.0</ele><time>2026-05-02T14:37:03.999Z</time></trkpt><trkpt lat="40.86933235842273" lon="9.027378310056593"><ele>144.0</ele><time>2026-05-02T14:37:04.999Z</time></trkpt><trkpt lat="40.86930968756874" lon="9.027117483293866"><ele>142.25</ele><time>2026-05-02T14:37:05.999Z</time></trkpt><trkpt lat="40.86929228280982" lon="9.026886390665934"><ele>140.5</ele><time>2026-05-02T14:37:06.999Z</time></trkpt><trkpt lat="40.86927073564077" lon="9.026680085021919"><ele>138.75</ele><time>2026-05-02T14:37:07.999Z</time></trkpt><trkpt lat="40.86925121588958" lon="9.026533243486442"><ele>137.0</ele><time>2026-05-02T14:37:08.999Z</time></trkpt><trkpt lat="40.869234031986565" lon="9.026368713740533"><ele>136.25</ele><time>2026-05-02T14:37:09.999Z</time></trkpt><trkpt lat="40.86921720662071" lon="9.026195737622093"><ele>135.5</ele><time>2026-05-02T14:37:10.999Z</time></trkpt><trkpt lat="40.86919902661493" lon="9.026026088550827"><ele>134.75</ele><time>2026-05-02T14:37:11.999Z</time></trkpt><trkpt lat="40.86918535135321" lon="9.02587429216415"><ele>134.0</ele><time>2026-05-02T14:37:12.999Z</time></trkpt><trkpt lat="40.869166228933956" lon="9.025733045202243"><ele>134.0</ele><time>2026-05-02T14:37:13.999Z</time></trkpt><trkpt lat="40.86914928094757" lon="9.025601809040413"><ele>134.0</ele><time>2026-05-02T14:37:14.999Z</time></trkpt><trkpt lat="40.869121701119596" lon="9.025464440106878"><ele>134.0</ele><time>2026-05-02T14:37:15.999Z</time></trkpt><trkpt lat="40.86910499180864" lon="9.02534454518776"><ele>134.0</ele><time>2026-05-02T14:37:16.999Z</time></trkpt><trkpt lat="40.869114463930984" lon="9.025223747885098"><ele>134.0</ele><time>2026-05-02T14:37:17.999Z</time></trkpt><trkpt lat="40.869139688852364" lon="9.025078634177918"><ele>134.8</ele><time>2026-05-02T14:37:18.999Z</time></trkpt><trkpt lat="40.8691717257817" lon="9.024943892652095"><ele>135.60000000000002</ele><time>2026-05-02T14:37:19.999Z</time></trkpt><trkpt lat="40.86919102907791" lon="9.024828759875671"><ele>136.4</ele><time>2026-05-02T14:37:20.999Z</time></trkpt><trkpt lat="40.869201729200405" lon="9.024696509054234"><ele>137.20000000000002</ele><time>2026-05-02T14:37:21.999Z</time></trkpt><trkpt lat="40.86919269850522" lon="9.02454809612003"><ele>138.0</ele><time>2026-05-02T14:37:22.999Z</time></trkpt><trkpt lat="40.86917180981669" lon="9.024399631186116"><ele>138.0</ele><time>2026-05-02T14:37:23.999Z</time></trkpt><trkpt lat="40.86916567866471" lon="9.024246610184194"><ele>138.0</ele><time>2026-05-02T14:37:24.999Z</time></trkpt><trkpt lat="40.86914057746725" lon="9.02406336178799"><ele>138.0</ele><time>2026-05-02T14:37:25.999Z</time></trkpt><trkpt lat="40.869110318067335" lon="9.023871996974401"><ele>138.0</ele><time>2026-05-02T14:37:26.999Z</time></trkpt><trkpt lat="40.869067207847834" lon="9.02370277959642"><ele>139.5</ele><time>2026-05-02T14:37:27.999Z</time></trkpt><trkpt lat="40.86903261075688" lon="9.023540953838108"><ele>141.0</ele><time>2026-05-02T14:37:28.999Z</time></trkpt><trkpt lat="40.86900421919259" lon="9.023372922186216"><ele>142.5</ele><time>2026-05-02T14:37:29.999Z</time></trkpt><trkpt lat="40.86894362177142" lon="9.023201703873593"><ele>144.0</ele><time>2026-05-02T14:37:30.999Z</time></trkpt><trkpt lat="40.868881226971986" lon="9.023041104217135"><ele>144.4</ele><time>2026-05-02T14:37:31.999Z</time></trkpt><trkpt lat="40.86882309133947" lon="9.022894295314407"><ele>144.8</ele><time>2026-05-02T14:37:32.999Z</time></trkpt><trkpt lat="40.86877241518767" lon="9.022769310582948"><ele>145.2</ele><time>2026-05-02T14:37:33.999Z</time></trkpt><trkpt lat="40.868732986215576" lon="9.02267185972866"><ele>145.6</ele><time>2026-05-02T14:37:34.999Z</time></trkpt><trkpt lat="40.86869193660385" lon="9.022572248650613"><ele>146.0</ele><time>2026-05-02T14:37:35.999Z</time></trkpt><trkpt lat="40.86854275577348" lon="9.02261511558901"><ele>146.0</ele><time>2026-05-02T14:37:36.999Z</time></trkpt><trkpt lat="40.8684806164966" lon="9.02264005140252"><ele>146.0</ele><time>2026-05-02T14:37:37.999Z</time></trkpt><trkpt lat="40.868399032211386" lon="9.022700217876451"><ele>146.0</ele><time>2026-05-02T14:37:38.999Z</time></trkpt><trkpt lat="40.8683206656147" lon="9.022792127250387"><ele>146.0</ele><time>2026-05-02T14:37:39.999Z</time></trkpt><trkpt lat="40.8682654337665" lon="9.022902350868193"><ele>146.0</ele><time>2026-05-02T14:37:40.999Z</time></trkpt><trkpt lat="40.86820259721" lon="9.02301824220531"><ele>145.0</ele><time>2026-05-02T14:37:41.999Z</time></trkpt><trkpt lat="40.86811823862818" lon="9.02314887662837"><ele>144.0</ele><time>2026-05-02T14:37:42.999Z</time></trkpt><trkpt lat="40.86802568880141" lon="9.023277126126315"><ele>143.0</ele><time>2026-05-02T14:37:43.999Z</time></trkpt><trkpt lat="40.8679266663597" lon="9.02340609965183"><ele>142.0</ele><time>2026-05-02T14:37:44.999Z</time></trkpt><trkpt lat="40.867816862490066" lon="9.023550959707654"><ele>140.66666666666669</ele><time>2026-05-02T14:37:45.999Z</time></trkpt><trkpt lat="40.86769826722447" lon="9.02370929330669"><ele>139.33333333333334</ele><time>2026-05-02T14:37:46.999Z</time></trkpt><trkpt lat="40.86758848257457" lon="9.023857322790375"><ele>138.0</ele><time>2026-05-02T14:37:47.999Z</time></trkpt><trkpt lat="40.86748064193948" lon="9.024008355248226"><ele>135.5</ele><time>2026-05-02T14:37:48.999Z</time></trkpt><trkpt lat="40.867382234054176" lon="9.02416280419791"><ele>133.0</ele><time>2026-05-02T14:37:49.999Z</time></trkpt><trkpt lat="40.86730228776206" lon="9.024263493125412"><ele>130.5</ele><time>2026-05-02T14:37:50.999Z</time></trkpt><trkpt lat="40.86718611736447" lon="9.024344098652378"><ele>128.0</ele><time>2026-05-02T14:37:51.999Z</time></trkpt><trkpt lat="40.867061750128435" lon="9.024361626877646"><ele>128.0</ele><time>2026-05-02T14:37:52.999Z</time></trkpt><trkpt lat="40.86693639979485" lon="9.024304850944045"><ele>128.0</ele><time>2026-05-02T14:37:53.999Z</time></trkpt><trkpt lat="40.86684963682794" lon="9.024211871165406"><ele>128.0</ele><time>2026-05-02T14:37:54.999Z</time></trkpt><trkpt lat="40.866771927974995" lon="9.024093211397208"><ele>128.0</ele><time>2026-05-02T14:37:55.999Z</time></trkpt><trkpt lat="40.866746781620705" lon="9.023962052259511"><ele>128.6</ele><time>2026-05-02T14:37:56.999Z</time></trkpt><trkpt lat="40.866740974274016" lon="9.023833275817047"><ele>129.20000000000002</ele><time>2026-05-02T14:37:57.999Z</time></trkpt><trkpt lat="40.86675812197505" lon="9.023701171684216"><ele>129.8</ele><time>2026-05-02T14:37:58.999Z</time></trkpt><trkpt lat="40.86681492405457" lon="9.023593845954727"><ele>130.4</ele><time>2026-05-02T14:38:00Z</time></trkpt><trkpt lat="40.86685456085575" lon="9.023483216664834"><ele>131.0</ele><time>2026-05-02T14:38:01Z</time></trkpt><trkpt lat="40.86693644376023" lon="9.023424060157978"><ele>131.0</ele><time>2026-05-02T14:38:02Z</time></trkpt><trkpt lat="40.86702366137575" lon="9.023406033150112"><ele>131.0</ele><time>2026-05-02T14:38:03Z</time></trkpt><trkpt lat="40.86712391222185" lon="9.023392976629765"><ele>131.0</ele><time>2026-05-02T14:38:04Z</time></trkpt><trkpt lat="40.867221505622666" lon="9.02342909646317"><ele>131.0</ele><time>2026-05-02T14:38:04.999Z</time></trkpt><trkpt lat="40.86731233952711" lon="9.02348834632095"><ele>131.0</ele><time>2026-05-02T14:38:05.999Z</time></trkpt><trkpt lat="40.86740054108982" lon="9.023565365879604"><ele>131.0</ele><time>2026-05-02T14:38:06.999Z</time></trkpt><trkpt lat="40.86750159612808" lon="9.02361843305726"><ele>131.0</ele><time>2026-05-02T14:38:07.999Z</time></trkpt><trkpt lat="40.86759802137624" lon="9.023685796800326"><ele>131.0</ele><time>2026-05-02T14:38:08.999Z</time></trkpt><trkpt lat="40.86766273592354" lon="9.023824656206292"><ele>131.0</ele><time>2026-05-02T14:38:09.999Z</time></trkpt><trkpt lat="40.867757223450276" lon="9.023914905961295"><ele>131.75</ele><time>2026-05-02T14:38:10.999Z</time></trkpt><trkpt lat="40.867855924141836" lon="9.024016019976758"><ele>132.5</ele><time>2026-05-02T14:38:11.999Z</time></trkpt><trkpt lat="40.8679550203795" lon="9.024105181703117"><ele>133.25</ele><time>2026-05-02T14:38:12.999Z</time></trkpt><trkpt lat="40.86805604971315" lon="9.024197476667435"><ele>134.0</ele><time>2026-05-02T14:38:13.999Z</time></trkpt><trkpt lat="40.868163944525655" lon="9.024299810485825"><ele>134.0</ele><time>2026-05-02T14:38:14.999Z</time></trkpt><trkpt lat="40.868280490339686" lon="9.024405684219587"><ele>134.0</ele><time>2026-05-02T14:38:15.999Z</time></trkpt><trkpt lat="40.86839240187162" lon="9.024511098047306"><ele>134.0</ele><time>2026-05-02T14:38:16.999Z</time></trkpt><trkpt lat="40.86861788052563" lon="9.024740798475674"><ele>134.0</ele><time>2026-05-02T14:38:18.999Z</time></trkpt><trkpt lat="40.868733211157824" lon="9.024860620840778"><ele>134.0</ele><time>2026-05-02T14:38:19.999Z</time></trkpt><trkpt lat="40.868856308174294" lon="9.0249799738074"><ele>134.0</ele><time>2026-05-02T14:38:20.999Z</time></trkpt><trkpt lat="40.868978884201475" lon="9.025097722332152"><ele>134.0</ele><time>2026-05-02T14:38:21.999Z</time></trkpt><trkpt lat="40.869101600854265" lon="9.0252207631069"><ele>134.0</ele><time>2026-05-02T14:38:22.999Z</time></trkpt><trkpt lat="40.86922628555792" lon="9.025347509155418"><ele>134.0</ele><time>2026-05-02T14:38:23.999Z</time></trkpt><trkpt lat="40.86934803211041" lon="9.025479552184429"><ele>134.66666666666666</ele><time>2026-05-02T14:38:24.999Z</time></trkpt><trkpt lat="40.869477217827885" lon="9.025603854601876"><ele>135.33333333333334</ele><time>2026-05-02T14:38:25.999Z</time></trkpt><trkpt lat="40.869604165219926" lon="9.025736691464344"><ele>136.0</ele><time>2026-05-02T14:38:26.999Z</time></trkpt><trkpt lat="40.86972910715791" lon="9.025867057252903"><ele>136.0</ele><time>2026-05-02T14:38:27.999Z</time></trkpt><trkpt lat="40.86985075161355" lon="9.026005140132126"><ele>136.0</ele><time>2026-05-02T14:38:28.999Z</time></trkpt><trkpt lat="40.86996106040372" lon="9.026144370956716"><ele>136.0</ele><time>2026-05-02T14:38:29.999Z</time></trkpt><trkpt lat="40.87007075371431" lon="9.02630059894464"><ele>138.0</ele><time>2026-05-02T14:38:30.999Z</time></trkpt><trkpt lat="40.87018611801006" lon="9.026480321933043"><ele>140.0</ele><time>2026-05-02T14:38:31.999Z</time></trkpt><trkpt lat="40.87028689196245" lon="9.026666441892056"><ele>142.0</ele><time>2026-05-02T14:38:32.999Z</time></trkpt><trkpt lat="40.87039224208372" lon="9.026856528257152"><ele>142.0</ele><time>2026-05-02T14:38:33.999Z</time></trkpt><trkpt lat="40.870489922609444" lon="9.027057234563756"><ele>142.0</ele><time>2026-05-02T14:38:34.999Z</time></trkpt><trkpt lat="40.87059297049375" lon="9.027264499404954"><ele>142.0</ele><time>2026-05-02T14:38:35.999Z</time></trkpt><trkpt lat="40.8706760170731" lon="9.027483200249224"><ele>143.0</ele><time>2026-05-02T14:38:36.999Z</time></trkpt><trkpt lat="40.870752301819174" lon="9.027706723644913"><ele>144.0</ele><time>2026-05-02T14:38:37.999Z</time></trkpt><trkpt lat="40.870824662384805" lon="9.027935471951652"><ele>145.0</ele><time>2026-05-02T14:38:38.999Z</time></trkpt><trkpt lat="40.87089650243924" lon="9.0281627720902"><ele>146.0</ele><time>2026-05-02T14:38:39.999Z</time></trkpt><trkpt lat="40.87098056345395" lon="9.02838217023774"><ele>147.0</ele><time>2026-05-02T14:38:40.999Z</time></trkpt><trkpt lat="40.871060212635754" lon="9.028603407119663"><ele>148.0</ele><time>2026-05-02T14:38:41.999Z</time></trkpt><trkpt lat="40.87113435181578" lon="9.028832003415047"><ele>148.0</ele><time>2026-05-02T14:38:43Z</time></trkpt><trkpt lat="40.87121592890312" lon="9.029066899470086"><ele>148.0</ele><time>2026-05-02T14:38:44Z</time></trkpt><trkpt lat="40.87129550207098" lon="9.02928372440667"><ele>148.0</ele><time>2026-05-02T14:38:45Z</time></trkpt><trkpt lat="40.87136422829738" lon="9.02950767601773"><ele>147.33333333333334</ele><time>2026-05-02T14:38:46Z</time></trkpt><trkpt lat="40.87143358835385" lon="9.029739930180794"><ele>146.66666666666666</ele><time>2026-05-02T14:38:47Z</time></trkpt><trkpt lat="40.8715061431193" lon="9.029972913846292"><ele>146.0</ele><time>2026-05-02T14:38:48Z</time></trkpt><trkpt lat="40.871582743555614" lon="9.030204929946466"><ele>145.33333333333331</ele><time>2026-05-02T14:38:49Z</time></trkpt><trkpt lat="40.87165865370213" lon="9.030436103233848"><ele>144.66666666666666</ele><time>2026-05-02T14:38:50Z</time></trkpt><trkpt lat="40.87173175962652" lon="9.03066934611523"><ele>144.0</ele><time>2026-05-02T14:38:51Z</time></trkpt><trkpt lat="40.871806091694175" lon="9.030905419704265"><ele>149.33333333333334</ele><time>2026-05-02T14:38:52Z</time></trkpt><trkpt lat="40.871881799381995" lon="9.0311434900217"><ele>154.66666666666669</ele><time>2026-05-02T14:38:53Z</time></trkpt><trkpt lat="40.87196413250758" lon="9.031366615588691"><ele>160.0</ele><time>2026-05-02T14:38:54Z</time></trkpt><trkpt lat="40.87203854513725" lon="9.031587385089095"><ele>158.66666666666669</ele><time>2026-05-02T14:38:55Z</time></trkpt><trkpt lat="40.8721042399029" lon="9.031780805086141"><ele>157.33333333333334</ele><time>2026-05-02T14:38:56Z</time></trkpt><trkpt lat="40.8721669976006" lon="9.031990423316993"><ele>156.0</ele><time>2026-05-02T14:38:57Z</time></trkpt><trkpt lat="40.87223108305553" lon="9.032198718849255"><ele>156.0</ele><time>2026-05-02T14:38:58Z</time></trkpt><trkpt lat="40.87229783850575" lon="9.032404457347791"><ele>156.0</ele><time>2026-05-02T14:38:59Z</time></trkpt><trkpt lat="40.872359985256786" lon="9.032618563250184"><ele>156.0</ele><time>2026-05-02T14:39:00Z</time></trkpt><trkpt lat="40.87242574145564" lon="9.032824428928109"><ele>155.66666666666666</ele><time>2026-05-02T14:39:01Z</time></trkpt><trkpt lat="40.8724937593163" lon="9.033029616371213"><ele>155.33333333333331</ele><time>2026-05-02T14:39:02Z</time></trkpt><trkpt lat="40.87256247941773" lon="9.03323245031279"><ele>155.0</ele><time>2026-05-02T14:39:03Z</time></trkpt><trkpt lat="40.87262189945129" lon="9.033432508312691"><ele>163.33333333333331</ele><time>2026-05-02T14:39:04Z</time></trkpt><trkpt lat="40.872696683061164" lon="9.033625780837156"><ele>171.66666666666666</ele><time>2026-05-02T14:39:05Z</time></trkpt><trkpt lat="40.87277625128243" lon="9.033798071466538"><ele>180.0</ele><time>2026-05-02T14:39:06Z</time></trkpt><trkpt lat="40.87285893495119" lon="9.033964243699273"><ele>180.0</ele><time>2026-05-02T14:39:07Z</time></trkpt><trkpt lat="40.87293712493885" lon="9.034135151708504"><ele>180.0</ele><time>2026-05-02T14:39:08Z</time></trkpt><trkpt lat="40.87302561387204" lon="9.034297448967362"><ele>180.0</ele><time>2026-05-02T14:39:09Z</time></trkpt><trkpt lat="40.87311482037472" lon="9.034456794586944"><ele>175.66666666666666</ele><time>2026-05-02T14:39:10Z</time></trkpt><trkpt lat="40.87320732601937" lon="9.03461979006505"><ele>171.33333333333331</ele><time>2026-05-02T14:39:11Z</time></trkpt><trkpt lat="40.87330971521282" lon="9.034792913249833"><ele>167.0</ele><time>2026-05-02T14:39:12Z</time></trkpt><trkpt lat="40.87340977750405" lon="9.034964003685854"><ele>167.66666666666666</ele><time>2026-05-02T14:39:13Z</time></trkpt><trkpt lat="40.873514259062894" lon="9.035131080915573"><ele>168.33333333333334</ele><time>2026-05-02T14:39:14Z</time></trkpt><trkpt lat="40.87362126600307" lon="9.035317969449105"><ele>169.0</ele><time>2026-05-02T14:39:15Z</time></trkpt><trkpt lat="40.87372626799457" lon="9.035518615235691"><ele>169.0</ele><time>2026-05-02T14:39:16Z</time></trkpt><trkpt lat="40.87382157663624" lon="9.035718166065793"><ele>169.0</ele><time>2026-05-02T14:39:17Z</time></trkpt><trkpt lat="40.87391736898437" lon="9.035904548834656"><ele>169.0</ele><time>2026-05-02T14:39:18Z</time></trkpt><trkpt lat="40.87400284550579" lon="9.036109951944983"><ele>165.66666666666669</ele><time>2026-05-02T14:39:19Z</time></trkpt><trkpt lat="40.87407396145396" lon="9.036315651352151"><ele>162.33333333333334</ele><time>2026-05-02T14:39:20Z</time></trkpt><trkpt lat="40.87414216790634" lon="9.036525391328894"><ele>159.0</ele><time>2026-05-02T14:39:21Z</time></trkpt><trkpt lat="40.87420868788565" lon="9.036739443018057"><ele>156.66666666666666</ele><time>2026-05-02T14:39:22.001Z</time></trkpt><trkpt lat="40.87426868193352" lon="9.03696137808237"><ele>154.33333333333331</ele><time>2026-05-02T14:39:23.001Z</time></trkpt><trkpt lat="40.874332663421875" lon="9.037189868279052"><ele>152.0</ele><time>2026-05-02T14:39:24.001Z</time></trkpt><trkpt lat="40.87439675073131" lon="9.037416748337602"><ele>157.33333333333331</ele><time>2026-05-02T14:39:25.001Z</time></trkpt><trkpt lat="40.874458375631164" lon="9.037644136658093"><ele>162.66666666666666</ele><time>2026-05-02T14:39:26.001Z</time></trkpt><trkpt lat="40.87453033636658" lon="9.03787073846869"><ele>168.0</ele><time>2026-05-02T14:39:27.001Z</time></trkpt><trkpt lat="40.87460822850355" lon="9.038097396026101"><ele>166.0</ele><time>2026-05-02T14:39:28.001Z</time></trkpt><trkpt lat="40.8747049746786" lon="9.038313164224732"><ele>164.0</ele><time>2026-05-02T14:39:29.001Z</time></trkpt><trkpt lat="40.874803160363136" lon="9.038527672032481"><ele>162.0</ele><time>2026-05-02T14:39:30.001Z</time></trkpt><trkpt lat="40.874902807585045" lon="9.038746109845546"><ele>162.0</ele><time>2026-05-02T14:39:31.001Z</time></trkpt><trkpt lat="40.875013719487306" lon="9.038956610716703"><ele>162.0</ele><time>2026-05-02T14:39:32.001Z</time></trkpt><trkpt lat="40.87513015027933" lon="9.039162038856034"><ele>162.0</ele><time>2026-05-02T14:39:33.001Z</time></trkpt><trkpt lat="40.87525085322518" lon="9.039362322910337"><ele>161.66666666666666</ele><time>2026-05-02T14:39:34.001Z</time></trkpt><trkpt lat="40.87536748866265" lon="9.039571854511134"><ele>161.33333333333331</ele><time>2026-05-02T14:39:35.001Z</time></trkpt><trkpt lat="40.87548047161661" lon="9.039775807511916"><ele>161.0</ele><time>2026-05-02T14:39:36.001Z</time></trkpt><trkpt lat="40.875599487163505" lon="9.039975749545412"><ele>161.0</ele><time>2026-05-02T14:39:37.001Z</time></trkpt><trkpt lat="40.8757172528526" lon="9.040176063531439"><ele>161.0</ele><time>2026-05-02T14:39:38.001Z</time></trkpt><trkpt lat="40.87583173601252" lon="9.040374267289229"><ele>161.0</ele><time>2026-05-02T14:39:39.001Z</time></trkpt><trkpt lat="40.87594507102957" lon="9.040573467680261"><ele>162.66666666666666</ele><time>2026-05-02T14:39:40.001Z</time></trkpt><trkpt lat="40.876063269623614" lon="9.040769839815145"><ele>164.33333333333334</ele><time>2026-05-02T14:39:41.001Z</time></trkpt><trkpt lat="40.87617895033364" lon="9.040968465188723"><ele>166.0</ele><time>2026-05-02T14:39:42.001Z</time></trkpt><trkpt lat="40.87629346737632" lon="9.041165367296019"><ele>166.0</ele><time>2026-05-02T14:39:43.001Z</time></trkpt><trkpt lat="40.8764056992462" lon="9.04136505126385"><ele>166.0</ele><time>2026-05-02T14:39:44.001Z</time></trkpt><trkpt lat="40.87652521757916" lon="9.041560833214563"><ele>166.0</ele><time>2026-05-02T14:39:45.001Z</time></trkpt><trkpt lat="40.87664386204028" lon="9.041757568144732"><ele>165.0</ele><time>2026-05-02T14:39:46.001Z</time></trkpt><trkpt lat="40.87675987822931" lon="9.04195952139291"><ele>164.0</ele><time>2026-05-02T14:39:47.001Z</time></trkpt><trkpt lat="40.8768678997658" lon="9.042166830261689"><ele>163.0</ele><time>2026-05-02T14:39:48.001Z</time></trkpt><trkpt lat="40.87697256949133" lon="9.042378894957793"><ele>166.33333333333334</ele><time>2026-05-02T14:39:49.001Z</time></trkpt><trkpt lat="40.87707082292472" lon="9.042595471446477"><ele>169.66666666666666</ele><time>2026-05-02T14:39:50.001Z</time></trkpt><trkpt lat="40.87715880620237" lon="9.042821281923798"><ele>173.0</ele><time>2026-05-02T14:39:51.001Z</time></trkpt><trkpt lat="40.87724257894851" lon="9.04305252726698"><ele>173.0</ele><time>2026-05-02T14:39:52.001Z</time></trkpt><trkpt lat="40.877323374669636" lon="9.043284975138825"><ele>173.0</ele><time>2026-05-02T14:39:53.001Z</time></trkpt><trkpt lat="40.87739731648895" lon="9.043521274296195"><ele>173.0</ele><time>2026-05-02T14:39:54.001Z</time></trkpt><trkpt lat="40.87746599681003" lon="9.043759549728058"><ele>172.33333333333331</ele><time>2026-05-02T14:39:55.001Z</time></trkpt><trkpt lat="40.877527611645924" lon="9.044005358420245"><ele>171.66666666666666</ele><time>2026-05-02T14:39:56.001Z</time></trkpt><trkpt lat="40.87758808266058" lon="9.04425251321157"><ele>171.0</ele><time>2026-05-02T14:39:57.001Z</time></trkpt><trkpt lat="40.877649203312195" lon="9.044496200060532"><ele>174.0</ele><time>2026-05-02T14:39:58.001Z</time></trkpt><trkpt lat="40.87770985381203" lon="9.044740832491096"><ele>177.0</ele><time>2026-05-02T14:39:59.001Z</time></trkpt><trkpt lat="40.87776275452423" lon="9.044981054653977"><ele>180.0</ele><time>2026-05-02T14:40:00.001Z</time></trkpt><trkpt lat="40.8777983450932" lon="9.045227891471265"><ele>180.0</ele><time>2026-05-02T14:40:01.001Z</time></trkpt><trkpt lat="40.87780137160943" lon="9.045477399561928"><ele>180.0</ele><time>2026-05-02T14:40:02.001Z</time></trkpt><trkpt lat="40.877822510985055" lon="9.045718032438225"><ele>180.0</ele><time>2026-05-02T14:40:03.001Z</time></trkpt><trkpt lat="40.877855220409714" lon="9.045966280008885"><ele>179.0</ele><time>2026-05-02T14:40:04.001Z</time></trkpt><trkpt lat="40.87791064597075" lon="9.046221617358379"><ele>178.0</ele><time>2026-05-02T14:40:05.001Z</time></trkpt><trkpt lat="40.87797025500157" lon="9.046470228227088"><ele>177.0</ele><time>2026-05-02T14:40:06.001Z</time></trkpt><trkpt lat="40.8780367261732" lon="9.04672288276718"><ele>175.66666666666666</ele><time>2026-05-02T14:40:07.001Z</time></trkpt><trkpt lat="40.878096395838405" lon="9.046963620469539"><ele>174.33333333333331</ele><time>2026-05-02T14:40:08.001Z</time></trkpt><trkpt lat="40.8781552350039" lon="9.047204729869382"><ele>173.0</ele><time>2026-05-02T14:40:09.001Z</time></trkpt><trkpt lat="40.87821283632959" lon="9.047446383478855"><ele>172.0</ele><time>2026-05-02T14:40:10.001Z</time></trkpt><trkpt lat="40.878268797979445" lon="9.047684557104608"><ele>171.0</ele><time>2026-05-02T14:40:11Z</time></trkpt><trkpt lat="40.878330077931146" lon="9.047917435921937"><ele>170.0</ele><time>2026-05-02T14:40:12Z</time></trkpt><trkpt lat="40.87840322224022" lon="9.048092751055496"><ele>173.0</ele><time>2026-05-02T14:40:13Z</time></trkpt><trkpt lat="40.87850867339184" lon="9.048243847744677"><ele>176.0</ele><time>2026-05-02T14:40:14Z</time></trkpt><trkpt lat="40.87863110890917" lon="9.048324436388608"><ele>179.0</ele><time>2026-05-02T14:40:15Z</time></trkpt><trkpt lat="40.87879789363712" lon="9.0483493432519"><ele>179.0</ele><time>2026-05-02T14:40:16Z</time></trkpt><trkpt lat="40.878962051168024" lon="9.048390085265977"><ele>179.0</ele><time>2026-05-02T14:40:17Z</time></trkpt><trkpt lat="40.87910842112629" lon="9.048454577370102"><ele>179.0</ele><time>2026-05-02T14:40:18Z</time></trkpt><trkpt lat="40.879230296088075" lon="9.048562001662091"><ele>180.66666666666666</ele><time>2026-05-02T14:40:19Z</time></trkpt><trkpt lat="40.87932090794409" lon="9.048734792769597"><ele>182.33333333333334</ele><time>2026-05-02T14:40:20Z</time></trkpt><trkpt lat="40.879335910184764" lon="9.048956673093816"><ele>184.0</ele><time>2026-05-02T14:40:21Z</time></trkpt><trkpt lat="40.8793446207464" lon="9.049189840872474"><ele>184.0</ele><time>2026-05-02T14:40:22Z</time></trkpt><trkpt lat="40.8793347787179" lon="9.049414166533376"><ele>184.0</ele><time>2026-05-02T14:40:23Z</time></trkpt><trkpt lat="40.87934221576413" lon="9.049652437826381"><ele>184.0</ele><time>2026-05-02T14:40:24Z</time></trkpt><trkpt lat="40.879351665126315" lon="9.049874142655618"><ele>183.75</ele><time>2026-05-02T14:40:25Z</time></trkpt><trkpt lat="40.879364015047365" lon="9.050084293134947"><ele>183.5</ele><time>2026-05-02T14:40:26Z</time></trkpt><trkpt lat="40.87939892547774" lon="9.050259640197833"><ele>183.25</ele><time>2026-05-02T14:40:27Z</time></trkpt><trkpt lat="40.879470191058005" lon="9.050420133909098"><ele>183.0</ele><time>2026-05-02T14:40:28Z</time></trkpt><trkpt lat="40.87957097215986" lon="9.050557322358811"><ele>183.0</ele><time>2026-05-02T14:40:29Z</time></trkpt><trkpt lat="40.879667317130966" lon="9.050688729169394"><ele>183.0</ele><time>2026-05-02T14:40:30Z</time></trkpt><trkpt lat="40.8797651157686" lon="9.05081624523615"><ele>183.0</ele><time>2026-05-02T14:40:31Z</time></trkpt><trkpt lat="40.87987685617062" lon="9.050924369703894"><ele>183.0</ele><time>2026-05-02T14:40:32Z</time></trkpt><trkpt lat="40.88001156524426" lon="9.05097471426606"><ele>185.66666666666666</ele><time>2026-05-02T14:40:33Z</time></trkpt><trkpt lat="40.88013549881621" lon="9.051082972192797"><ele>188.33333333333331</ele><time>2026-05-02T14:40:34Z</time></trkpt><trkpt lat="40.8802947655355" lon="9.05096965499596"><ele>191.0</ele><time>2026-05-02T14:40:35Z</time></trkpt><trkpt lat="40.88042789111832" lon="9.050982977353325"><ele>191.0</ele><time>2026-05-02T14:40:36Z</time></trkpt><trkpt lat="40.88056040439334" lon="9.051023312931918"><ele>191.0</ele><time>2026-05-02T14:40:37Z</time></trkpt><trkpt lat="40.88068126269954" lon="9.051111246535553"><ele>191.0</ele><time>2026-05-02T14:40:38Z</time></trkpt><trkpt lat="40.88077932674265" lon="9.051239962401642"><ele>191.0</ele><time>2026-05-02T14:40:39Z</time></trkpt><trkpt lat="40.88087143346133" lon="9.051366500394325"><ele>192.0</ele><time>2026-05-02T14:40:40Z</time></trkpt><trkpt lat="40.880964879109605" lon="9.051489950080914"><ele>193.0</ele><time>2026-05-02T14:40:41Z</time></trkpt><trkpt lat="40.88105889599133" lon="9.051616699651296"><ele>194.0</ele><time>2026-05-02T14:40:42Z</time></trkpt><trkpt lat="40.88115094825034" lon="9.051743652452405"><ele>195.0</ele><time>2026-05-02T14:40:43Z</time></trkpt><trkpt lat="40.881249500546026" lon="9.051859433061603"><ele>195.0</ele><time>2026-05-02T14:40:44Z</time></trkpt><trkpt lat="40.881353827079025" lon="9.051963411724957"><ele>195.0</ele><time>2026-05-02T14:40:45Z</time></trkpt><trkpt lat="40.881470345135845" lon="9.05204133818249"><ele>195.0</ele><time>2026-05-02T14:40:46Z</time></trkpt><trkpt lat="40.88158855618057" lon="9.052119205414362"><ele>195.0</ele><time>2026-05-02T14:40:47Z</time></trkpt><trkpt lat="40.88169285808618" lon="9.052222766018692"><ele>197.5</ele><time>2026-05-02T14:40:48Z</time></trkpt><trkpt lat="40.88176639566614" lon="9.052362637176415"><ele>200.0</ele><time>2026-05-02T14:40:49Z</time></trkpt><trkpt lat="40.881804559297024" lon="9.052500747489693"><ele>202.5</ele><time>2026-05-02T14:40:50Z</time></trkpt><trkpt lat="40.88183425294878" lon="9.05265327360028"><ele>205.0</ele><time>2026-05-02T14:40:51Z</time></trkpt><trkpt lat="40.88187295663968" lon="9.052801110857997"><ele>205.0</ele><time>2026-05-02T14:40:52Z</time></trkpt><trkpt lat="40.88190639652226" lon="9.052938780226592"><ele>205.0</ele><time>2026-05-02T14:40:53Z</time></trkpt><trkpt lat="40.881941274042575" lon="9.053081391233391"><ele>205.0</ele><time>2026-05-02T14:40:54Z</time></trkpt><trkpt lat="40.881985321132916" lon="9.053225309997304"><ele>205.0</ele><time>2026-05-02T14:40:55Z</time></trkpt><trkpt lat="40.88203554137507" lon="9.053365221761432"><ele>203.5</ele><time>2026-05-02T14:40:56Z</time></trkpt><trkpt lat="40.88208989863998" lon="9.053498370552576"><ele>202.0</ele><time>2026-05-02T14:40:57Z</time></trkpt><trkpt lat="40.88215070324892" lon="9.053627240755327"><ele>200.5</ele><time>2026-05-02T14:40:58Z</time></trkpt><trkpt lat="40.88222685799542" lon="9.05374995070056"><ele>199.0</ele><time>2026-05-02T14:40:59Z</time></trkpt><trkpt lat="40.88229088960176" lon="9.053879353791025"><ele>199.0</ele><time>2026-05-02T14:41:00Z</time></trkpt><trkpt lat="40.88235065639116" lon="9.05401591972739"><ele>199.0</ele><time>2026-05-02T14:41:01Z</time></trkpt><trkpt lat="40.88240892557888" lon="9.054158715245677"><ele>199.0</ele><time>2026-05-02T14:41:02Z</time></trkpt><trkpt lat="40.88246979549816" lon="9.054295761721251"><ele>199.0</ele><time>2026-05-02T14:41:03Z</time></trkpt><trkpt lat="40.882530541553805" lon="9.054428720624879"><ele>198.75</ele><time>2026-05-02T14:41:04Z</time></trkpt><trkpt lat="40.88259172978359" lon="9.05455853983708"><ele>198.5</ele><time>2026-05-02T14:41:05Z</time></trkpt><trkpt lat="40.88265804527953" lon="9.054686140150052"><ele>198.25</ele><time>2026-05-02T14:41:06Z</time></trkpt><trkpt lat="40.88274340487754" lon="9.054792162447523"><ele>198.0</ele><time>2026-05-02T14:41:07.001Z</time></trkpt><trkpt lat="40.882847412958505" lon="9.054868498868268"><ele>199.60000000000002</ele><time>2026-05-02T14:41:08.001Z</time></trkpt><trkpt lat="40.882950746916386" lon="9.054927835547703"><ele>201.20000000000002</ele><time>2026-05-02T14:41:09.001Z</time></trkpt><trkpt lat="40.88305654915303" lon="9.054985409856819"><ele>202.8</ele><time>2026-05-02T14:41:10.001Z</time></trkpt><trkpt lat="40.883153020216476" lon="9.055066090542837"><ele>204.4</ele><time>2026-05-02T14:41:11.001Z</time></trkpt><trkpt lat="40.883230267318424" lon="9.055164561049839"><ele>206.0</ele><time>2026-05-02T14:41:12.001Z</time></trkpt><trkpt lat="40.88328165455913" lon="9.055284914723591"><ele>206.00000000000003</ele><time>2026-05-02T14:41:13.001Z</time></trkpt><trkpt lat="40.883302052587915" lon="9.055389697128115"><ele>206.0</ele><time>2026-05-02T14:41:14.001Z</time></trkpt><trkpt lat="40.88331764146457" lon="9.055497567267617"><ele>206.0</ele><time>2026-05-02T14:41:15.001Z</time></trkpt><trkpt lat="40.88334397163044" lon="9.055645215845699"><ele>206.0</ele><time>2026-05-02T14:41:17.001Z</time></trkpt><trkpt lat="40.88337695222765" lon="9.05572822168943"><ele>206.00000000000003</ele><time>2026-05-02T14:41:19.001Z</time></trkpt><trkpt lat="40.88338548472022" lon="9.055609802753875"><ele>206.0</ele><time>2026-05-02T14:41:42.001Z</time></trkpt><trkpt lat="40.883329835808425" lon="9.0554843359994"><ele>206.00000000000003</ele><time>2026-05-02T14:41:44.001Z</time></trkpt><trkpt lat="40.88330028079089" lon="9.05539031091384"><ele>206.0</ele><time>2026-05-02T14:41:45.001Z</time></trkpt><trkpt lat="40.883264748196915" lon="9.055270407558808"><ele>206.0</ele><time>2026-05-02T14:41:46.001Z</time></trkpt><trkpt lat="40.8832423804149" lon="9.055174617490595"><ele>206.0</ele><time>2026-05-02T14:41:47.001Z</time></trkpt><trkpt lat="40.88319338101562" lon="9.055088564288788"><ele>206.00000000000003</ele><time>2026-05-02T14:41:48.001Z</time></trkpt><trkpt lat="40.883110948225585" lon="9.054995022574602"><ele>206.0</ele><time>2026-05-02T14:41:49.001Z</time></trkpt><trkpt lat="40.88300763009835" lon="9.054913717608109"><ele>207.0</ele><time>2026-05-02T14:41:50.001Z</time></trkpt><trkpt lat="40.882902816220856" lon="9.054850325955897"><ele>208.0</ele><time>2026-05-02T14:41:51.001Z</time></trkpt><trkpt lat="40.88279771877351" lon="9.054789704509295"><ele>209.0</ele><time>2026-05-02T14:41:52.001Z</time></trkpt><trkpt lat="40.88269577443334" lon="9.054686774129944"><ele>210.0</ele><time>2026-05-02T14:41:53.001Z</time></trkpt><trkpt lat="40.88260689448735" lon="9.054565627574766"><ele>207.25</ele><time>2026-05-02T14:41:54.001Z</time></trkpt><trkpt lat="40.88255209907466" lon="9.054408836952357"><ele>204.5</ele><time>2026-05-02T14:41:55.001Z</time></trkpt><trkpt lat="40.8824989224216" lon="9.054259871332459"><ele>201.75</ele><time>2026-05-02T14:41:56.001Z</time></trkpt><trkpt lat="40.882440721165345" lon="9.054121498191135"><ele>199.0</ele><time>2026-05-02T14:41:57.001Z</time></trkpt><trkpt lat="40.882376791183255" lon="9.054011954886514"><ele>199.0</ele><time>2026-05-02T14:41:58.001Z</time></trkpt><trkpt lat="40.88231352429476" lon="9.05389391755721"><ele>199.0</ele><time>2026-05-02T14:41:59.001Z</time></trkpt><trkpt lat="40.88226301008627" lon="9.053798441636284"><ele>199.0</ele><time>2026-05-02T14:42:00.001Z</time></trkpt><trkpt lat="40.88218963701583" lon="9.053777544471377"><ele>199.0</ele><time>2026-05-02T14:42:03.001Z</time></trkpt><trkpt lat="40.88214638854588" lon="9.053853238913206"><ele>199.0</ele><time>2026-05-02T14:42:05.001Z</time></trkpt><trkpt lat="40.88204569567706" lon="9.053931348301667"><ele>199.0</ele><time>2026-05-02T14:42:07.001Z</time></trkpt><trkpt lat="40.881983271938644" lon="9.053948867315034"><ele>199.0</ele><time>2026-05-02T14:42:08.001Z</time></trkpt><trkpt lat="40.88187304919941" lon="9.054006162267079"><ele>199.0</ele><time>2026-05-02T14:42:10.001Z</time></trkpt><trkpt lat="40.88177287441849" lon="9.054058431119925"><ele>199.0</ele><time>2026-05-02T14:42:12.001Z</time></trkpt><trkpt lat="40.88163774071165" lon="9.054065337743204"><ele>199.0</ele><time>2026-05-02T14:42:14.001Z</time></trkpt><trkpt lat="40.88156975860399" lon="9.054052950183307"><ele>196.83333333333331</ele><time>2026-05-02T14:42:15.001Z</time></trkpt><trkpt lat="40.88149376134242" lon="9.054048471118172"><ele>194.66666666666666</ele><time>2026-05-02T14:42:16.001Z</time></trkpt><trkpt lat="40.88141199768294" lon="9.05403106683723"><ele>192.5</ele><time>2026-05-02T14:42:17.001Z</time></trkpt><trkpt lat="40.88134120467007" lon="9.053995282627017"><ele>190.33333333333331</ele><time>2026-05-02T14:42:18.001Z</time></trkpt><trkpt lat="40.881253738309965" lon="9.053909573645612"><ele>188.16666666666666</ele><time>2026-05-02T14:42:20.001Z</time></trkpt><trkpt lat="40.88121324165725" lon="9.05383820739728"><ele>186.0</ele><time>2026-05-02T14:42:21.001Z</time></trkpt><trkpt lat="40.88118215287656" lon="9.053754037040544"><ele>186.0</ele><time>2026-05-02T14:42:22.001Z</time></trkpt><trkpt lat="40.88113311296397" lon="9.05366901232925"><ele>186.0</ele><time>2026-05-02T14:42:23.001Z</time></trkpt><trkpt lat="40.881067740300374" lon="9.053614066297378"><ele>186.0</ele><time>2026-05-02T14:42:24.001Z</time></trkpt><trkpt lat="40.88100221696362" lon="9.053563309457475"><ele>186.0</ele><time>2026-05-02T14:42:25.001Z</time></trkpt><trkpt lat="40.880933681319206" lon="9.053502477954478"><ele>186.0</ele><time>2026-05-02T14:42:26.001Z</time></trkpt><trkpt lat="40.8808694704113" lon="9.053444158622154"><ele>186.0</ele><time>2026-05-02T14:42:27.001Z</time></trkpt><trkpt lat="40.88079825688738" lon="9.053394725594739"><ele>184.85714285714286</ele><time>2026-05-02T14:42:28.001Z</time></trkpt><trkpt lat="40.880730365159714" lon="9.053379974715995"><ele>183.71428571428572</ele><time>2026-05-02T14:42:29.001Z</time></trkpt><trkpt lat="40.880648339756085" lon="9.05337640105144"><ele>182.57142857142856</ele><time>2026-05-02T14:42:30.001Z</time></trkpt><trkpt lat="40.88057860859496" lon="9.053398202751671"><ele>181.42857142857144</ele><time>2026-05-02T14:42:31.001Z</time></trkpt><trkpt lat="40.88050275930571" lon="9.053423576172271"><ele>180.28571428571428</ele><time>2026-05-02T14:42:32.001Z</time></trkpt><trkpt lat="40.880429747137306" lon="9.05343235556518"><ele>179.14285714285714</ele><time>2026-05-02T14:42:33.001Z</time></trkpt><trkpt lat="40.88035755262824" lon="9.05343906466731"><ele>178.0</ele><time>2026-05-02T14:42:34.001Z</time></trkpt><trkpt lat="40.880286849010254" lon="9.053449151388696"><ele>178.0</ele><time>2026-05-02T14:42:35.001Z</time></trkpt><trkpt lat="40.880207795556" lon="9.053455862600057"><ele>178.0</ele><time>2026-05-02T14:42:36.001Z</time></trkpt><trkpt lat="40.88012796402994" lon="9.053449276614911"><ele>178.0</ele><time>2026-05-02T14:42:37.001Z</time></trkpt><trkpt lat="40.88004898324839" lon="9.053449916631953"><ele>178.0</ele><time>2026-05-02T14:42:38.001Z</time></trkpt><trkpt lat="40.87992395415686" lon="9.053444334716747"><ele>178.0</ele><time>2026-05-02T14:42:39.001Z</time></trkpt><trkpt lat="40.87980889859321" lon="9.053442974483833"><ele>177.8</ele><time>2026-05-02T14:42:40.001Z</time></trkpt><trkpt lat="40.87970000069706" lon="9.053450812627435"><ele>177.60000000000002</ele><time>2026-05-02T14:42:41.001Z</time></trkpt><trkpt lat="40.879583685949356" lon="9.05341734572588"><ele>177.39999999999998</ele><time>2026-05-02T14:42:42.001Z</time></trkpt><trkpt lat="40.87949590929058" lon="9.053341709690338"><ele>177.2</ele><time>2026-05-02T14:42:44.001Z</time></trkpt><trkpt lat="40.879493693463814" lon="9.053244929911777"><ele>177.0</ele><time>2026-05-02T14:42:46.001Z</time></trkpt><trkpt lat="40.87944416815953" lon="9.053140162097609"><ele>177.33333333333334</ele><time>2026-05-02T14:42:47.001Z</time></trkpt><trkpt lat="40.87938340850665" lon="9.05309377681035"><ele>177.66666666666666</ele><time>2026-05-02T14:42:48.001Z</time></trkpt><trkpt lat="40.87931395179567" lon="9.053092687426595"><ele>178.0</ele><time>2026-05-02T14:42:49.001Z</time></trkpt><trkpt lat="40.8792330359608" lon="9.053065652530712"><ele>178.33333333333331</ele><time>2026-05-02T14:42:50.001Z</time></trkpt><trkpt lat="40.879120891508265" lon="9.053030227258732"><ele>178.66666666666666</ele><time>2026-05-02T14:42:51.001Z</time></trkpt><trkpt lat="40.87903391432202" lon="9.053015458733816"><ele>179.0</ele><time>2026-05-02T14:42:52.001Z</time></trkpt><trkpt lat="40.87895260430808" lon="9.053017650593192"><ele>179.0</ele><time>2026-05-02T14:42:53.001Z</time></trkpt><trkpt lat="40.878900801819746" lon="9.052968493409328"><ele>179.0</ele><time>2026-05-02T14:42:55.001Z</time></trkpt><trkpt lat="40.87882320078766" lon="9.05306405605971"><ele>179.0</ele><time>2026-05-02T14:43:03.001Z</time></trkpt><trkpt lat="40.87877216513009" lon="9.053122636046735"><ele>179.0</ele><time>2026-05-02T14:43:04.001Z</time></trkpt><trkpt lat="40.8787117104211" lon="9.053179190558366"><ele>179.0</ele><time>2026-05-02T14:43:05.001Z</time></trkpt><trkpt lat="40.87861297026082" lon="9.053200215886747"><ele>179.0</ele><time>2026-05-02T14:43:06.001Z</time></trkpt><trkpt lat="40.87854307638872" lon="9.053170387064885"><ele>179.0</ele><time>2026-05-02T14:43:07.001Z</time></trkpt><trkpt lat="40.87845128053504" lon="9.05317371542438"><ele>179.0</ele><time>2026-05-02T14:43:08.001Z</time></trkpt><trkpt lat="40.87836460087095" lon="9.053146152054003"><ele>179.0</ele><time>2026-05-02T14:43:09.001Z</time></trkpt><trkpt lat="40.8782858104422" lon="9.053134310550975"><ele>179.0</ele><time>2026-05-02T14:43:10.001Z</time></trkpt><trkpt lat="40.87821174170328" lon="9.053121927371057"><ele>179.0</ele><time>2026-05-02T14:43:11.001Z</time></trkpt><trkpt lat="40.8781300826335" lon="9.053103834421051"><ele>179.0</ele><time>2026-05-02T14:43:12.001Z</time></trkpt><trkpt lat="40.87800719065862" lon="9.05302320486917"><ele>180.79999999999998</ele><time>2026-05-02T14:43:14.001Z</time></trkpt><trkpt lat="40.87790353003057" lon="9.052937369656023"><ele>182.6</ele><time>2026-05-02T14:43:15.001Z</time></trkpt><trkpt lat="40.87783178896218" lon="9.052873513828022"><ele>184.4</ele><time>2026-05-02T14:43:16.001Z</time></trkpt><trkpt lat="40.8777598621185" lon="9.053014511387863"><ele>186.2</ele><time>2026-05-02T14:43:18.001Z</time></trkpt><trkpt lat="40.87766120494019" lon="9.053032940532406"><ele>188.0</ele><time>2026-05-02T14:43:19.001Z</time></trkpt><trkpt lat="40.877542678421804" lon="9.053044184874059"><ele>190.60000000000002</ele><time>2026-05-02T14:43:20.001Z</time></trkpt><trkpt lat="40.87745442641096" lon="9.053041400774829"><ele>193.20000000000002</ele><time>2026-05-02T14:43:21.001Z</time></trkpt><trkpt lat="40.87736140037499" lon="9.05303532868888"><ele>195.8</ele><time>2026-05-02T14:43:22.001Z</time></trkpt><trkpt lat="40.87723551867597" lon="9.053024273797833"><ele>198.4</ele><time>2026-05-02T14:43:23.001Z</time></trkpt><trkpt lat="40.87713190399805" lon="9.053065772217169"><ele>201.0</ele><time>2026-05-02T14:43:24.001Z</time></trkpt><trkpt lat="40.877083660621466" lon="9.053149385846368"><ele>201.0</ele><time>2026-05-02T14:43:26.001Z</time></trkpt><trkpt lat="40.87704486060869" lon="9.053243574324396"><ele>201.0</ele><time>2026-05-02T14:43:27.001Z</time></trkpt><trkpt lat="40.87699322188893" lon="9.05335600142456"><ele>201.0</ele><time>2026-05-02T14:43:28.001Z</time></trkpt><trkpt lat="40.87691203292925" lon="9.053420153277052"><ele>201.0</ele><time>2026-05-02T14:43:29.001Z</time></trkpt><trkpt lat="40.876825981259636" lon="9.053501971417534"><ele>201.0</ele><time>2026-05-02T14:43:30.001Z</time></trkpt><trkpt lat="40.87673123300703" lon="9.053576648118925"><ele>203.75</ele><time>2026-05-02T14:43:31.001Z</time></trkpt><trkpt lat="40.87669730401158" lon="9.053692899546721"><ele>206.5</ele><time>2026-05-02T14:43:32.001Z</time></trkpt><trkpt lat="40.87665426966683" lon="9.053840578360651"><ele>209.25</ele><time>2026-05-02T14:43:34.001Z</time></trkpt><trkpt lat="40.87660513950865" lon="9.053990430890638"><ele>212.0</ele><time>2026-05-02T14:43:35.001Z</time></trkpt><trkpt lat="40.87652882887012" lon="9.054161705142478"><ele>214.75</ele><time>2026-05-02T14:43:36.001Z</time></trkpt><trkpt lat="40.87648336875839" lon="9.054338799825677"><ele>217.5</ele><time>2026-05-02T14:43:37.001Z</time></trkpt><trkpt lat="40.8764538280083" lon="9.054505059387871"><ele>220.25</ele><time>2026-05-02T14:43:38.001Z</time></trkpt><trkpt lat="40.87644594779333" lon="9.054629329699951"><ele>223.0</ele><time>2026-05-02T14:43:39.001Z</time></trkpt><trkpt lat="40.876454764020416" lon="9.054759996741474"><ele>223.0</ele><time>2026-05-02T14:43:40.001Z</time></trkpt><trkpt lat="40.87646062692978" lon="9.054864924799944"><ele>223.0</ele><time>2026-05-02T14:43:41.001Z</time></trkpt><trkpt lat="40.876391246597954" lon="9.054904630411128"><ele>223.0</ele><time>2026-05-02T14:43:42.001Z</time></trkpt><trkpt lat="40.87637924250073" lon="9.055099613512029"><ele>223.0</ele><time>2026-05-02T14:43:44.001Z</time></trkpt><trkpt lat="40.876357525142694" lon="9.055216538039415"><ele>223.0</ele><time>2026-05-02T14:43:45.001Z</time></trkpt><trkpt lat="40.87631069432192" lon="9.05535401722901"><ele>225.60000000000002</ele><time>2026-05-02T14:43:46.001Z</time></trkpt><trkpt lat="40.87628869368749" lon="9.05551674097728"><ele>228.20000000000002</ele><time>2026-05-02T14:43:47.001Z</time></trkpt><trkpt lat="40.876271840413665" lon="9.055648321022968"><ele>230.8</ele><time>2026-05-02T14:43:48.001Z</time></trkpt><trkpt lat="40.876194836456335" lon="9.055650141814356"><ele>233.4</ele><time>2026-05-02T14:43:50.001Z</time></trkpt><trkpt lat="40.87611394843628" lon="9.05563027063585"><ele>236.0</ele><time>2026-05-02T14:43:52.001Z</time></trkpt><trkpt lat="40.87602796994467" lon="9.055663385227595"><ele>235.8</ele><time>2026-05-02T14:43:54.001Z</time></trkpt><trkpt lat="40.87587999845528" lon="9.05567433548213"><ele>235.60000000000002</ele><time>2026-05-02T14:43:56.001Z</time></trkpt><trkpt lat="40.875798320978234" lon="9.055687328166128"><ele>235.4</ele><time>2026-05-02T14:43:57.001Z</time></trkpt><trkpt lat="40.87571154782715" lon="9.055674158119327"><ele>235.2</ele><time>2026-05-02T14:43:58.001Z</time></trkpt><trkpt lat="40.875692220094415" lon="9.055537916379986"><ele>235.0</ele><time>2026-05-02T14:44:00.001Z</time></trkpt><trkpt lat="40.875694956934794" lon="9.055448533290622"><ele>235.0</ele><time>2026-05-02T14:44:01.001Z</time></trkpt><trkpt lat="40.875665008648554" lon="9.055363882826843"><ele>235.0</ele><time>2026-05-02T14:44:02.001Z</time></trkpt><trkpt lat="40.875525645684434" lon="9.055368995721095"><ele>235.0</ele><time>2026-05-02T14:44:04.001Z</time></trkpt><trkpt lat="40.87545196879997" lon="9.055375383411688"><ele>235.0</ele><time>2026-05-02T14:44:05.001Z</time></trkpt><trkpt lat="40.87536671681459" lon="9.055355900773192"><ele>235.0</ele><time>2026-05-02T14:44:06.001Z</time></trkpt><trkpt lat="40.87524886791157" lon="9.055370088754998"><ele>235.0</ele><time>2026-05-02T14:44:07.001Z</time></trkpt><trkpt lat="40.87513944763902" lon="9.055432682399445"><ele>235.0</ele><time>2026-05-02T14:44:08.001Z</time></trkpt><trkpt lat="40.87506752836506" lon="9.055488169360421"><ele>235.0</ele><time>2026-05-02T14:44:09.001Z</time></trkpt><trkpt lat="40.875037467949134" lon="9.055586897830747"><ele>235.0</ele><time>2026-05-02T14:44:11.001Z</time></trkpt><trkpt lat="40.87508301078765" lon="9.055691662729389"><ele>235.0</ele><time>2026-05-02T14:44:13.001Z</time></trkpt><trkpt lat="40.8751654201153" lon="9.05574659461342"><ele>237.33333333333331</ele><time>2026-05-02T14:44:15.001Z</time></trkpt><trkpt lat="40.87520076532903" lon="9.055831758222006"><ele>239.66666666666666</ele><time>2026-05-02T14:44:17.001Z</time></trkpt><trkpt lat="40.87521790526329" lon="9.05598807514133"><ele>242.0</ele><time>2026-05-02T14:44:19.001Z</time></trkpt><trkpt lat="40.87522472270024" lon="9.056074293369063"><ele>244.33333333333331</ele><time>2026-05-02T14:44:20.001Z</time></trkpt><trkpt lat="40.875219819487434" lon="9.056158446070995"><ele>246.66666666666666</ele><time>2026-05-02T14:44:21.001Z</time></trkpt><trkpt lat="40.875219030908966" lon="9.056307204369778"><ele>249.0</ele><time>2026-05-02T14:44:23.001Z</time></trkpt><trkpt lat="40.87518574729537" lon="9.056464450800194"><ele>249.0</ele><time>2026-05-02T14:44:25.001Z</time></trkpt><trkpt lat="40.875155580523355" lon="9.056544585346582"><ele>249.0</ele><time>2026-05-02T14:44:26.001Z</time></trkpt><trkpt lat="40.875130827398735" lon="9.056627969038113"><ele>249.0</ele><time>2026-05-02T14:44:27.001Z</time></trkpt><trkpt lat="40.875085198288716" lon="9.056724838711645"><ele>249.0</ele><time>2026-05-02T14:44:29.001Z</time></trkpt><trkpt lat="40.87506163281298" lon="9.056831472291979"><ele>249.0</ele><time>2026-05-02T14:44:59.001Z</time></trkpt><trkpt lat="40.875106519089655" lon="9.056969902687898"><ele>249.0</ele><time>2026-05-02T14:45:01.001Z</time></trkpt><trkpt lat="40.87517322881441" lon="9.057086876103243"><ele>252.0</ele><time>2026-05-02T14:45:03.001Z</time></trkpt><trkpt lat="40.875255140701306" lon="9.057226976073512"><ele>254.99999999999997</ele><time>2026-05-02T14:45:05.001Z</time></trkpt><trkpt lat="40.87531140313201" lon="9.057322890364153"><ele>258.0</ele><time>2026-05-02T14:45:06.001Z</time></trkpt><trkpt lat="40.87536178365284" lon="9.05741637230069"><ele>261.0</ele><time>2026-05-02T14:45:07.001Z</time></trkpt><trkpt lat="40.87540386032161" lon="9.0575108381743"><ele>264.0</ele><time>2026-05-02T14:45:08.001Z</time></trkpt><trkpt lat="40.87543849058304" lon="9.057601523148847"><ele>266.3333333333333</ele><time>2026-05-02T14:45:09.001Z</time></trkpt><trkpt lat="40.875479826421184" lon="9.057693286229133"><ele>268.6666666666667</ele><time>2026-05-02T14:45:11.001Z</time></trkpt><trkpt lat="40.87543533757213" lon="9.057798860893762"><ele>271.0</ele><time>2026-05-02T14:45:14.001Z</time></trkpt><trkpt lat="40.875451505451394" lon="9.057919740184827"><ele>273.33333333333337</ele><time>2026-05-02T14:45:25.001Z</time></trkpt><trkpt lat="40.87549715920316" lon="9.058050678544156"><ele>275.6666666666667</ele><time>2026-05-02T14:45:26.001Z</time></trkpt><trkpt lat="40.8755242996635" lon="9.05813485233535"><ele>278.0</ele><time>2026-05-02T14:45:27.001Z</time></trkpt><trkpt lat="40.87557463468753" lon="9.058243979488918"><ele>279.83333333333337</ele><time>2026-05-02T14:45:29.001Z</time></trkpt><trkpt lat="40.87558322868537" lon="9.058351791728903"><ele>281.6666666666667</ele><time>2026-05-02T14:45:31.001Z</time></trkpt><trkpt lat="40.87557269964628" lon="9.058468072535286"><ele>283.5</ele><time>2026-05-02T14:45:33.001Z</time></trkpt><trkpt lat="40.875565655380505" lon="9.058570037560884"><ele>285.3333333333333</ele><time>2026-05-02T14:45:36.001Z</time></trkpt><trkpt lat="40.87554485261797" lon="9.058654393148252"><ele>287.16666666666663</ele><time>2026-05-02T14:45:38.001Z</time></trkpt><trkpt lat="40.875513873789465" lon="9.058741812473968"><ele>289.0</ele><time>2026-05-02T14:45:40.001Z</time></trkpt><trkpt lat="40.87546899353689" lon="9.058839745316039"><ele>289.0</ele><time>2026-05-02T14:45:42.001Z</time></trkpt><trkpt lat="40.875417521106385" lon="9.058958051601508"><ele>289.0</ele><time>2026-05-02T14:45:44.001Z</time></trkpt><trkpt lat="40.87541535715466" lon="9.059091156522806"><ele>289.0</ele><time>2026-05-02T14:45:46.001Z</time></trkpt><trkpt lat="40.875421784325404" lon="9.059209767215128"><ele>289.0</ele><time>2026-05-02T14:45:48.001Z</time></trkpt><trkpt lat="40.87537693605477" lon="9.059317342642172"><ele>289.0</ele><time>2026-05-02T14:45:51.001Z</time></trkpt><trkpt lat="40.875363320680556" lon="9.059402999295356"><ele>288.3333333333333</ele><time>2026-05-02T14:45:53.001Z</time></trkpt><trkpt lat="40.875386345829746" lon="9.059486355615464"><ele>287.66666666666663</ele><time>2026-05-02T14:45:55.001Z</time></trkpt><trkpt lat="40.87543914841821" lon="9.059545393200391"><ele>287.0</ele><time>2026-05-02T14:45:57.001Z</time></trkpt><trkpt lat="40.87551358296075" lon="9.059528579294172"><ele>286.3333333333333</ele><time>2026-05-02T14:46:00.001Z</time></trkpt><trkpt lat="40.87555677656865" lon="9.05941681194191"><ele>285.6666666666667</ele><time>2026-05-02T14:46:03.001Z</time></trkpt><trkpt lat="40.87560294397751" lon="9.059321825720163"><ele>285.0</ele><time>2026-05-02T14:46:05.001Z</time></trkpt><trkpt lat="40.87568433197323" lon="9.059244455369564"><ele>285.0</ele><time>2026-05-02T14:46:07.001Z</time></trkpt><trkpt lat="40.875738063037204" lon="9.05930224856858"><ele>285.0</ele><time>2026-05-02T14:46:09.001Z</time></trkpt><trkpt lat="40.87572478021685" lon="9.059424952016565"><ele>285.0</ele><time>2026-05-02T14:46:12.001Z</time></trkpt><trkpt lat="40.87569769378352" lon="9.059565846191939"><ele>285.0</ele><time>2026-05-02T14:46:14.001Z</time></trkpt><trkpt lat="40.875692719183085" lon="9.059675803039788"><ele>285.0</ele><time>2026-05-02T14:46:16.001Z</time></trkpt><trkpt lat="40.875716681362285" lon="9.059791289635994"><ele>285.0</ele><time>2026-05-02T14:46:18.001Z</time></trkpt><trkpt lat="40.87573396232891" lon="9.059935650676957"><ele>281.4</ele><time>2026-05-02T14:46:20.001Z</time></trkpt><trkpt lat="40.87570525966999" lon="9.060027254129302"><ele>277.8</ele><time>2026-05-02T14:46:22.001Z</time></trkpt><trkpt lat="40.87561690009329" lon="9.060064554843828"><ele>274.2</ele><time>2026-05-02T14:46:24.001Z</time></trkpt><trkpt lat="40.875485425634004" lon="9.060103656399754"><ele>270.6</ele><time>2026-05-02T14:46:26.001Z</time></trkpt><trkpt lat="40.875368235281734" lon="9.060130295656714"><ele>267.0</ele><time>2026-05-02T14:46:28.001Z</time></trkpt><trkpt lat="40.87530057761994" lon="9.060140000746289"><ele>267.0</ele><time>2026-05-02T14:46:35.001Z</time></trkpt><trkpt lat="40.87537394287263" lon="9.060110256495676"><ele>267.0</ele><time>2026-05-02T15:00:51Z</time></trkpt><trkpt lat="40.8754724548503" lon="9.060087467786149"><ele>267.0</ele><time>2026-05-02T15:00:53Z</time></trkpt><trkpt lat="40.87553947124739" lon="9.060074903847928"><ele>267.0</ele><time>2026-05-02T15:00:54Z</time></trkpt><trkpt lat="40.87562272369357" lon="9.06004284438439"><ele>267.0</ele><time>2026-05-02T15:00:55Z</time></trkpt><trkpt lat="40.875688936877445" lon="9.060014249074209"><ele>267.0</ele><time>2026-05-02T15:00:56Z</time></trkpt><trkpt lat="40.87572289209405" lon="9.059939807723257"><ele>270.0</ele><time>2026-05-02T15:00:58Z</time></trkpt><trkpt lat="40.875736464778385" lon="9.059822021685896"><ele>273.0</ele><time>2026-05-02T15:01:00Z</time></trkpt><trkpt lat="40.87572487987487" lon="9.0597211255953"><ele>276.0</ele><time>2026-05-02T15:01:01Z</time></trkpt><trkpt lat="40.875692322744705" lon="9.059597042090216"><ele>279.0</ele><time>2026-05-02T15:01:03Z</time></trkpt><trkpt lat="40.87569919110954" lon="9.05948719646155"><ele>282.0</ele><time>2026-05-02T15:01:05Z</time></trkpt><trkpt lat="40.8757282014337" lon="9.059361815858555"><ele>285.0</ele><time>2026-05-02T15:01:07Z</time></trkpt><trkpt lat="40.87572239857526" lon="9.059244871979443"><ele>285.0</ele><time>2026-05-02T15:01:09Z</time></trkpt><trkpt lat="40.87565697458965" lon="9.059254898612322"><ele>285.0</ele><time>2026-05-02T15:01:12Z</time></trkpt><trkpt lat="40.87560643482199" lon="9.059365256426165"><ele>285.0</ele><time>2026-05-02T15:01:14Z</time></trkpt><trkpt lat="40.87554742213696" lon="9.059467426625224"><ele>285.0</ele><time>2026-05-02T15:01:16Z</time></trkpt><trkpt lat="40.87547797800887" lon="9.059563725757583"><ele>285.0</ele><time>2026-05-02T15:01:18Z</time></trkpt><trkpt lat="40.87539800800893" lon="9.059517328852113"><ele>285.0</ele><time>2026-05-02T15:01:20Z</time></trkpt><trkpt lat="40.87535246035145" lon="9.059405946619473"><ele>285.0</ele><time>2026-05-02T15:01:22Z</time></trkpt><trkpt lat="40.87537158187408" lon="9.059269542022141"><ele>285.0</ele><time>2026-05-02T15:01:24Z</time></trkpt><trkpt lat="40.875419586979284" lon="9.059132366776602"><ele>285.0</ele><time>2026-05-02T15:01:26Z</time></trkpt><trkpt lat="40.87541547272323" lon="9.059045063236292"><ele>285.0</ele><time>2026-05-02T15:01:27Z</time></trkpt><trkpt lat="40.875417763456134" lon="9.058949180391535"><ele>285.0</ele><time>2026-05-02T15:01:28Z</time></trkpt><trkpt lat="40.87543316937725" lon="9.05886317890318"><ele>285.0</ele><time>2026-05-02T15:01:29Z</time></trkpt><trkpt lat="40.87545945948993" lon="9.058779936132206"><ele>285.8</ele><time>2026-05-02T15:01:30Z</time></trkpt><trkpt lat="40.8755057841953" lon="9.058698749355864"><ele>286.6</ele><time>2026-05-02T15:01:31Z</time></trkpt><trkpt lat="40.87553961467177" lon="9.058627299144371"><ele>287.4</ele><time>2026-05-02T15:01:32Z</time></trkpt><trkpt lat="40.87556126484256" lon="9.058487138514872"><ele>288.2</ele><time>2026-05-02T15:01:34Z</time></trkpt><trkpt lat="40.87557072061133" lon="9.05834131415079"><ele>289.0</ele><time>2026-05-02T15:01:36Z</time></trkpt><trkpt lat="40.87555527714458" lon="9.058189829011699"><ele>286.8</ele><time>2026-05-02T15:01:38Z</time></trkpt><trkpt lat="40.87551270611426" lon="9.058061554373147"><ele>284.59999999999997</ele><time>2026-05-02T15:01:40Z</time></trkpt><trkpt lat="40.875479644651755" lon="9.057987689754532"><ele>282.4</ele><time>2026-05-02T15:01:41Z</time></trkpt><trkpt lat="40.87543551725829" lon="9.057854439102593"><ele>280.2</ele><time>2026-05-02T15:01:43Z</time></trkpt><trkpt lat="40.875440775691445" lon="9.057740576472328"><ele>278.0</ele><time>2026-05-02T15:02:29Z</time></trkpt><trkpt lat="40.875466187650765" lon="9.057633901532787"><ele>278.0</ele><time>2026-05-02T15:02:31Z</time></trkpt><trkpt lat="40.87541903445966" lon="9.057528707403586"><ele>278.0</ele><time>2026-05-02T15:02:33Z</time></trkpt><trkpt lat="40.87535236656319" lon="9.057415309196275"><ele>278.0</ele><time>2026-05-02T15:02:35Z</time></trkpt><trkpt lat="40.875287894756724" lon="9.057285981308674"><ele>278.0</ele><time>2026-05-02T15:02:37Z</time></trkpt><trkpt lat="40.87524840177272" lon="9.057212408983212"><ele>278.0</ele><time>2026-05-02T15:02:38Z</time></trkpt><trkpt lat="40.87520702047543" lon="9.057147048323085"><ele>275.75</ele><time>2026-05-02T15:02:39Z</time></trkpt><trkpt lat="40.87513666111224" lon="9.057020121901479"><ele>273.5</ele><time>2026-05-02T15:02:41Z</time></trkpt><trkpt lat="40.87509075188508" lon="9.056880310035215"><ele>271.25</ele><time>2026-05-02T15:02:43Z</time></trkpt><trkpt lat="40.8750891741237" lon="9.056729821046728"><ele>269.0</ele><time>2026-05-02T15:02:45Z</time></trkpt><trkpt lat="40.87516298049019" lon="9.056604954255016"><ele>265.0</ele><time>2026-05-02T15:02:47Z</time></trkpt><trkpt lat="40.87519869992978" lon="9.056481767213455"><ele>261.0</ele><time>2026-05-02T15:02:48.999Z</time></trkpt><trkpt lat="40.875242781089995" lon="9.05634860866298"><ele>257.0</ele><time>2026-05-02T15:02:50.999Z</time></trkpt><trkpt lat="40.87525481883061" lon="9.056188433130009"><ele>253.0</ele><time>2026-05-02T15:02:52.999Z</time></trkpt><trkpt lat="40.87525251910555" lon="9.056104535854418"><ele>249.0</ele><time>2026-05-02T15:02:53.999Z</time></trkpt><trkpt lat="40.87524821206226" lon="9.05594994169451"><ele>249.0</ele><time>2026-05-02T15:02:55.999Z</time></trkpt><trkpt lat="40.875237954282774" lon="9.055832138313281"><ele>249.0</ele><time>2026-05-02T15:02:57.999Z</time></trkpt><trkpt lat="40.8751997686936" lon="9.055732904754423"><ele>249.0</ele><time>2026-05-02T15:02:59.999Z</time></trkpt><trkpt lat="40.87512336047262" lon="9.055655750463767"><ele>249.0</ele><time>2026-05-02T15:03:01.999Z</time></trkpt><trkpt lat="40.87505025371206" lon="9.055554134348096"><ele>249.0</ele><time>2026-05-02T15:03:03.999Z</time></trkpt><trkpt lat="40.87510623587902" lon="9.055493971668252"><ele>249.0</ele><time>2026-05-02T15:03:06.999Z</time></trkpt><trkpt lat="40.87519626263996" lon="9.05543811680752"><ele>246.66666666666666</ele><time>2026-05-02T15:03:08.999Z</time></trkpt><trkpt lat="40.87525907007423" lon="9.055414794333393"><ele>244.33333333333331</ele><time>2026-05-02T15:03:09.999Z</time></trkpt><trkpt lat="40.87532970401653" lon="9.055402002332624"><ele>242.0</ele><time>2026-05-02T15:03:10.999Z</time></trkpt><trkpt lat="40.87542267793929" lon="9.055380101630707"><ele>239.66666666666666</ele><time>2026-05-02T15:03:11.999Z</time></trkpt><trkpt lat="40.87551805164189" lon="9.055390076030953"><ele>237.33333333333331</ele><time>2026-05-02T15:03:12.999Z</time></trkpt><trkpt lat="40.87560160534318" lon="9.05540034198654"><ele>235.0</ele><time>2026-05-02T15:03:13.999Z</time></trkpt><trkpt lat="40.875673592071486" lon="9.055421002169531"><ele>235.0</ele><time>2026-05-02T15:03:14.999Z</time></trkpt><trkpt lat="40.87569717508177" lon="9.055499828676812"><ele>235.0</ele><time>2026-05-02T15:03:17Z</time></trkpt><trkpt lat="40.87569032343252" lon="9.055663953111624"><ele>235.0</ele><time>2026-05-02T15:03:19Z</time></trkpt><trkpt lat="40.87580590865449" lon="9.05575630337631"><ele>235.0</ele><time>2026-05-02T15:03:21Z</time></trkpt><trkpt lat="40.87588471605758" lon="9.055713420949218"><ele>235.0</ele><time>2026-05-02T15:03:22Z</time></trkpt><trkpt lat="40.87597708259114" lon="9.055690636886867"><ele>235.16666666666666</ele><time>2026-05-02T15:03:23Z</time></trkpt><trkpt lat="40.876053588690056" lon="9.055671683346514"><ele>235.33333333333331</ele><time>2026-05-02T15:03:24Z</time></trkpt><trkpt lat="40.87612799065028" lon="9.055650843264917"><ele>235.5</ele><time>2026-05-02T15:03:25Z</time></trkpt><trkpt lat="40.87619351247696" lon="9.055633301644605"><ele>235.66666666666669</ele><time>2026-05-02T15:03:26Z</time></trkpt><trkpt lat="40.876288435887496" lon="9.055629818259273"><ele>235.83333333333334</ele><time>2026-05-02T15:03:28Z</time></trkpt><trkpt lat="40.87633808734429" lon="9.055563872446873"><ele>236.0</ele><time>2026-05-02T15:03:30Z</time></trkpt><trkpt lat="40.87632891902207" lon="9.055451563951765"><ele>236.00000000000003</ele><time>2026-05-02T15:03:31Z</time></trkpt><trkpt lat="40.87633743156988" lon="9.05536164499119"><ele>236.0</ele><time>2026-05-02T15:03:32Z</time></trkpt><trkpt lat="40.8763613238457" lon="9.055234121934758"><ele>236.0</ele><time>2026-05-02T15:03:33Z</time></trkpt><trkpt lat="40.876409074143204" lon="9.055131064486659"><ele>236.0</ele><time>2026-05-02T15:03:34Z</time></trkpt><trkpt lat="40.87639605178074" lon="9.055012318463232"><ele>236.00000000000003</ele><time>2026-05-02T15:03:35Z</time></trkpt><trkpt lat="40.876410959896006" lon="9.054910263704151"><ele>236.0</ele><time>2026-05-02T15:03:36Z</time></trkpt><trkpt lat="40.87646553947808" lon="9.05485913382471"><ele>233.4</ele><time>2026-05-02T15:03:37Z</time></trkpt><trkpt lat="40.8765032088945" lon="9.054705265239376"><ele>230.8</ele><time>2026-05-02T15:03:39Z</time></trkpt><trkpt lat="40.87646997093177" lon="9.054601333748714"><ele>228.20000000000002</ele><time>2026-05-02T15:03:40Z</time></trkpt><trkpt lat="40.87648980090802" lon="9.05451733589073"><ele>225.60000000000002</ele><time>2026-05-02T15:03:41Z</time></trkpt><trkpt lat="40.876504392694315" lon="9.054350712361051"><ele>223.0</ele><time>2026-05-02T15:03:43Z</time></trkpt><trkpt lat="40.876524746190924" lon="9.054263089337558"><ele>222.99999999999997</ele><time>2026-05-02T15:03:44Z</time></trkpt><trkpt lat="40.876572372882684" lon="9.05414545510888"><ele>223.0</ele><time>2026-05-02T15:03:45Z</time></trkpt><trkpt lat="40.87662045294823" lon="9.054041745431164"><ele>223.0</ele><time>2026-05-02T15:03:46Z</time></trkpt><trkpt lat="40.87666302311805" lon="9.053942200078327"><ele>223.0</ele><time>2026-05-02T15:03:47Z</time></trkpt><trkpt lat="40.87669658626014" lon="9.053837266785889"><ele>222.99999999999997</ele><time>2026-05-02T15:03:48Z</time></trkpt><trkpt lat="40.876721428190486" lon="9.053739996684405"><ele>223.0</ele><time>2026-05-02T15:03:49Z</time></trkpt><trkpt lat="40.87677842370793" lon="9.053602384984817"><ele>220.49999999999997</ele><time>2026-05-02T15:03:51Z</time></trkpt><trkpt lat="40.87686459944384" lon="9.053520350559552"><ele>218.0</ele><time>2026-05-02T15:03:53Z</time></trkpt><trkpt lat="40.876908231650916" lon="9.053459485145837"><ele>215.5</ele><time>2026-05-02T15:03:54Z</time></trkpt><trkpt lat="40.87696696403232" lon="9.053395531991368"><ele>213.0</ele><time>2026-05-02T15:03:55Z</time></trkpt><trkpt lat="40.87703703491631" lon="9.053339980449495"><ele>210.49999999999997</ele><time>2026-05-02T15:03:56Z</time></trkpt><trkpt lat="40.87707761849312" lon="9.053252032581636"><ele>208.0</ele><time>2026-05-02T15:03:57Z</time></trkpt><trkpt lat="40.87712003515718" lon="9.053173546185697"><ele>206.83333333333331</ele><time>2026-05-02T15:03:58Z</time></trkpt><trkpt lat="40.87716415521893" lon="9.053109205149276"><ele>205.66666666666666</ele><time>2026-05-02T15:03:59Z</time></trkpt><trkpt lat="40.87726523343044" lon="9.05306330265557"><ele>204.5</ele><time>2026-05-02T15:04:01Z</time></trkpt><trkpt lat="40.87732866336727" lon="9.05307426686362"><ele>203.33333333333331</ele><time>2026-05-02T15:04:02Z</time></trkpt><trkpt lat="40.87741302303774" lon="9.053083054176264"><ele>202.16666666666666</ele><time>2026-05-02T15:04:03Z</time></trkpt><trkpt lat="40.87750552954382" lon="9.05307756885296"><ele>201.0</ele><time>2026-05-02T15:04:04Z</time></trkpt><trkpt lat="40.877581713471116" lon="9.053089125234045"><ele>199.14285714285714</ele><time>2026-05-02T15:04:05Z</time></trkpt><trkpt lat="40.87765648267896" lon="9.05307688574644"><ele>197.2857142857143</ele><time>2026-05-02T15:04:06Z</time></trkpt><trkpt lat="40.87772405597846" lon="9.053058286957372"><ele>195.42857142857144</ele><time>2026-05-02T15:04:07Z</time></trkpt><trkpt lat="40.8777963124131" lon="9.053026072462638"><ele>193.57142857142856</ele><time>2026-05-02T15:04:08Z</time></trkpt><trkpt lat="40.87785152357539" lon="9.05297298457784"><ele>191.71428571428572</ele><time>2026-05-02T15:04:09Z</time></trkpt><trkpt lat="40.877924493615474" lon="9.052950403268941"><ele>189.85714285714286</ele><time>2026-05-02T15:04:11Z</time></trkpt><trkpt lat="40.87794954240251" lon="9.053031180619536"><ele>188.0</ele><time>2026-05-02T15:04:12Z</time></trkpt><trkpt lat="40.87807323426446" lon="9.053104471943453"><ele>188.0</ele><time>2026-05-02T15:04:14Z</time></trkpt><trkpt lat="40.878143666999186" lon="9.053149370643826"><ele>188.0</ele><time>2026-05-02T15:04:15Z</time></trkpt><trkpt lat="40.878207830342284" lon="9.05316807193297"><ele>188.0</ele><time>2026-05-02T15:04:16Z</time></trkpt><trkpt lat="40.878333587811504" lon="9.053186067877604"><ele>188.0</ele><time>2026-05-02T15:04:18Z</time></trkpt><trkpt lat="40.87840620260139" lon="9.053195928170995"><ele>188.0</ele><time>2026-05-02T15:04:19Z</time></trkpt><trkpt lat="40.87847991626949" lon="9.053205937681113"><ele>188.0</ele><time>2026-05-02T15:04:20Z</time></trkpt><trkpt lat="40.87854953532333" lon="9.053215391181432"><ele>186.5</ele><time>2026-05-02T15:04:21Z</time></trkpt><trkpt lat="40.87862279992261" lon="9.053212787841481"><ele>185.0</ele><time>2026-05-02T15:04:22Z</time></trkpt><trkpt lat="40.87868904049539" lon="9.053217142777608"><ele>183.5</ele><time>2026-05-02T15:04:23Z</time></trkpt><trkpt lat="40.87875937353139" lon="9.053185777291814"><ele>182.0</ele><time>2026-05-02T15:04:24Z</time></trkpt><trkpt lat="40.87882283295811" lon="9.053128728555672"><ele>180.5</ele><time>2026-05-02T15:04:25Z</time></trkpt><trkpt lat="40.87887781544036" lon="9.053064573792668"><ele>179.0</ele><time>2026-05-02T15:04:26Z</time></trkpt><trkpt lat="40.878966691659514" lon="9.052997761395167"><ele>179.0</ele><time>2026-05-02T15:04:28Z</time></trkpt><trkpt lat="40.87907091952433" lon="9.053072270996212"><ele>179.0</ele><time>2026-05-02T15:04:29.999Z</time></trkpt><trkpt lat="40.87914920756497" lon="9.05304718204519"><ele>179.0</ele><time>2026-05-02T15:04:30.999Z</time></trkpt><trkpt lat="40.87921399690192" lon="9.053064108494855"><ele>179.0</ele><time>2026-05-02T15:04:31.999Z</time></trkpt><trkpt lat="40.87928210135565" lon="9.053092493633626"><ele>179.0</ele><time>2026-05-02T15:04:32.999Z</time></trkpt><trkpt lat="40.879351295487005" lon="9.053117455138047"><ele>179.0</ele><time>2026-05-02T15:04:33.999Z</time></trkpt><trkpt lat="40.879410580161036" lon="9.053159357684393"><ele>178.66666666666666</ele><time>2026-05-02T15:04:34.999Z</time></trkpt><trkpt lat="40.87946291786288" lon="9.053210221542031"><ele>178.33333333333331</ele><time>2026-05-02T15:04:35.999Z</time></trkpt><trkpt lat="40.87951976658691" lon="9.053360906647844"><ele>178.0</ele><time>2026-05-02T15:04:37.999Z</time></trkpt><trkpt lat="40.87957250122494" lon="9.053453981039413"><ele>177.66666666666666</ele><time>2026-05-02T15:04:39.999Z</time></trkpt><trkpt lat="40.87966170002193" lon="9.053458849075799"><ele>177.33333333333334</ele><time>2026-05-02T15:04:41.999Z</time></trkpt><trkpt lat="40.87973574219495" lon="9.053438442756558"><ele>177.0</ele><time>2026-05-02T15:04:42.999Z</time></trkpt><trkpt lat="40.87984632915169" lon="9.053427326842124"><ele>177.0</ele><time>2026-05-02T15:04:43.999Z</time></trkpt><trkpt lat="40.87995718956237" lon="9.053448860426187"><ele>177.0</ele><time>2026-05-02T15:04:44.999Z</time></trkpt><trkpt lat="40.88005853157156" lon="9.05345802383549"><ele>177.0</ele><time>2026-05-02T15:04:45.999Z</time></trkpt><trkpt lat="40.88014211928509" lon="9.053461084819846"><ele>177.0</ele><time>2026-05-02T15:04:46.999Z</time></trkpt><trkpt lat="40.88022731017155" lon="9.053439859377187"><ele>177.0</ele><time>2026-05-02T15:04:47.999Z</time></trkpt><trkpt lat="40.88030595226313" lon="9.053443810921218"><ele>177.16666666666666</ele><time>2026-05-02T15:04:48.999Z</time></trkpt><trkpt lat="40.880385580103" lon="9.053437344113425"><ele>177.33333333333334</ele><time>2026-05-02T15:04:49.999Z</time></trkpt><trkpt lat="40.88047124127299" lon="9.053422091692049"><ele>177.5</ele><time>2026-05-02T15:04:50.999Z</time></trkpt><trkpt lat="40.88055336836614" lon="9.05341067150409"><ele>177.66666666666669</ele><time>2026-05-02T15:04:51.999Z</time></trkpt><trkpt lat="40.88063290997904" lon="9.053388904947877"><ele>177.83333333333334</ele><time>2026-05-02T15:04:52.999Z</time></trkpt><trkpt lat="40.88070686937845" lon="9.053405447356969"><ele>178.0</ele><time>2026-05-02T15:04:53.999Z</time></trkpt><trkpt lat="40.88077470641585" lon="9.053418756598914"><ele>178.0</ele><time>2026-05-02T15:04:54.999Z</time></trkpt><trkpt lat="40.88083317840161" lon="9.05345626395099"><ele>178.0</ele><time>2026-05-02T15:04:55.999Z</time></trkpt><trkpt lat="40.880896491148604" lon="9.053496879271872"><ele>178.0</ele><time>2026-05-02T15:04:56.999Z</time></trkpt><trkpt lat="40.880970608807345" lon="9.053541980045875"><ele>178.0</ele><time>2026-05-02T15:04:57.999Z</time></trkpt><trkpt lat="40.881039621388815" lon="9.053594302958091"><ele>178.0</ele><time>2026-05-02T15:04:58.999Z</time></trkpt><trkpt lat="40.88110883578955" lon="9.053662872211685"><ele>178.0</ele><time>2026-05-02T15:04:59.999Z</time></trkpt><trkpt lat="40.881164391613034" lon="9.053744680444318"><ele>179.33333333333334</ele><time>2026-05-02T15:05:00.999Z</time></trkpt><trkpt lat="40.88121647221585" lon="9.053834357696283"><ele>180.66666666666669</ele><time>2026-05-02T15:05:01.999Z</time></trkpt><trkpt lat="40.88126897663103" lon="9.053922086735675"><ele>182.0</ele><time>2026-05-02T15:05:02.999Z</time></trkpt><trkpt lat="40.88132431693452" lon="9.053998753509061"><ele>183.33333333333334</ele><time>2026-05-02T15:05:03.999Z</time></trkpt><trkpt lat="40.88139993588366" lon="9.054035271071168"><ele>184.66666666666666</ele><time>2026-05-02T15:05:04.999Z</time></trkpt><trkpt lat="40.881478510034846" lon="9.054049359803624"><ele>186.0</ele><time>2026-05-02T15:05:05.999Z</time></trkpt><trkpt lat="40.881560926324376" lon="9.05405977772119"><ele>186.0</ele><time>2026-05-02T15:05:06.999Z</time></trkpt><trkpt lat="40.881665097479264" lon="9.05406317733807"><ele>186.0</ele><time>2026-05-02T15:05:07.999Z</time></trkpt><trkpt lat="40.881777663700476" lon="9.0540543064295"><ele>186.0</ele><time>2026-05-02T15:05:08.999Z</time></trkpt><trkpt lat="40.881866246441916" lon="9.054037015830232"><ele>186.0</ele><time>2026-05-02T15:05:09.999Z</time></trkpt><trkpt lat="40.88194852801717" lon="9.053987160584914"><ele>186.0</ele><time>2026-05-02T15:05:10.999Z</time></trkpt><trkpt lat="40.882023116482706" lon="9.053937954186283"><ele>188.16666666666666</ele><time>2026-05-02T15:05:11.999Z</time></trkpt><trkpt lat="40.882098258162" lon="9.05388517609192"><ele>190.33333333333331</ele><time>2026-05-02T15:05:12.999Z</time></trkpt><trkpt lat="40.88217309499429" lon="9.053875315853599"><ele>192.5</ele><time>2026-05-02T15:05:13.999Z</time></trkpt><trkpt lat="40.882244277727295" lon="9.053850341032893"><ele>194.66666666666666</ele><time>2026-05-02T15:05:15.999Z</time></trkpt><trkpt lat="40.88232096438328" lon="9.053949857199305"><ele>196.83333333333331</ele><time>2026-05-02T15:05:19.999Z</time></trkpt><trkpt lat="40.88235298234709" lon="9.05403261301961"><ele>199.0</ele><time>2026-05-02T15:05:20.999Z</time></trkpt><trkpt lat="40.88239419629599" lon="9.054109799136825"><ele>198.83333333333331</ele><time>2026-05-02T15:05:22Z</time></trkpt><trkpt lat="40.882449225780036" lon="9.05419846531575"><ele>198.66666666666666</ele><time>2026-05-02T15:05:23Z</time></trkpt><trkpt lat="40.882494711437865" lon="9.054288771885673"><ele>198.5</ele><time>2026-05-02T15:05:24Z</time></trkpt><trkpt lat="40.882531752472424" lon="9.05438399923008"><ele>198.33333333333331</ele><time>2026-05-02T15:05:25Z</time></trkpt><trkpt lat="40.882574675044104" lon="9.05447068423428"><ele>198.16666666666666</ele><time>2026-05-02T15:05:26Z</time></trkpt><trkpt lat="40.882618206593385" lon="9.054548909933315"><ele>198.0</ele><time>2026-05-02T15:05:27Z</time></trkpt><trkpt lat="40.88266492705272" lon="9.05463978968153"><ele>200.0</ele><time>2026-05-02T15:05:28Z</time></trkpt><trkpt lat="40.88273499093748" lon="9.054754464528223"><ele>202.0</ele><time>2026-05-02T15:05:29Z</time></trkpt><trkpt lat="40.882827688524785" lon="9.054839079202894"><ele>204.0</ele><time>2026-05-02T15:05:30Z</time></trkpt><trkpt lat="40.882929866859875" lon="9.05490059144917"><ele>206.0</ele><time>2026-05-02T15:05:31Z</time></trkpt><trkpt lat="40.883036850901235" lon="9.054974104929464"><ele>206.0</ele><time>2026-05-02T15:05:32Z</time></trkpt><trkpt lat="40.88315296002281" lon="9.055062782946022"><ele>206.0</ele><time>2026-05-02T15:05:33Z</time></trkpt><trkpt lat="40.883250594776946" lon="9.055188279202744"><ele>206.0</ele><time>2026-05-02T15:05:34Z</time></trkpt><trkpt lat="40.883290201301946" lon="9.055364130134155"><ele>206.0</ele><time>2026-05-02T15:05:35Z</time></trkpt><trkpt lat="40.88334652065381" lon="9.055536956641191"><ele>206.0</ele><time>2026-05-02T15:05:36Z</time></trkpt><trkpt lat="40.883396223196705" lon="9.055707952550405"><ele>206.0</ele><time>2026-05-02T15:05:37Z</time></trkpt><trkpt lat="40.883470870334634" lon="9.055851920505013"><ele>206.0</ele><time>2026-05-02T15:05:38Z</time></trkpt><trkpt lat="40.88359282410522" lon="9.055950512996281"><ele>206.0</ele><time>2026-05-02T15:05:39Z</time></trkpt><trkpt lat="40.88376351170798" lon="9.056022855192325"><ele>209.66666666666669</ele><time>2026-05-02T15:05:40Z</time></trkpt><trkpt lat="40.883926579603845" lon="9.056118078015762"><ele>213.33333333333331</ele><time>2026-05-02T15:05:41Z</time></trkpt><trkpt lat="40.88409144689824" lon="9.056209347738669"><ele>217.0</ele><time>2026-05-02T15:05:42Z</time></trkpt><trkpt lat="40.88420986582517" lon="9.056299611417439"><ele>217.39999999999998</ele><time>2026-05-02T15:05:43Z</time></trkpt><trkpt lat="40.884263847189104" lon="9.056373320269104"><ele>217.79999999999998</ele><time>2026-05-02T15:05:44Z</time></trkpt><trkpt lat="40.884320803457065" lon="9.056495234481941"><ele>218.2</ele><time>2026-05-02T15:05:45Z</time></trkpt><trkpt lat="40.884338018618074" lon="9.056633357231892"><ele>218.6</ele><time>2026-05-02T15:05:46Z</time></trkpt><trkpt lat="40.884378421585446" lon="9.056745346760678"><ele>219.0</ele><time>2026-05-02T15:05:47Z</time></trkpt><trkpt lat="40.88447966772423" lon="9.056795219996973"><ele>219.0</ele><time>2026-05-02T15:05:48Z</time></trkpt><trkpt lat="40.8845825738142" lon="9.056783521587493"><ele>219.0</ele><time>2026-05-02T15:05:49Z</time></trkpt><trkpt lat="40.884684678014736" lon="9.05671872617674"><ele>219.0</ele><time>2026-05-02T15:05:50Z</time></trkpt><trkpt lat="40.884788878578895" lon="9.056656721264167"><ele>219.0</ele><time>2026-05-02T15:05:51Z</time></trkpt><trkpt lat="40.88491677506199" lon="9.056604649738675"><ele>223.25</ele><time>2026-05-02T15:05:52Z</time></trkpt><trkpt lat="40.88505422805027" lon="9.056595092091339"><ele>227.5</ele><time>2026-05-02T15:05:53Z</time></trkpt><trkpt lat="40.8852121294757" lon="9.056641898236476"><ele>231.75</ele><time>2026-05-02T15:05:54Z</time></trkpt><trkpt lat="40.885333839030174" lon="9.056733226715636"><ele>236.0</ele><time>2026-05-02T15:05:55Z</time></trkpt><trkpt lat="40.88544324383426" lon="9.056844167012763"><ele>236.0</ele><time>2026-05-02T15:05:56Z</time></trkpt><trkpt lat="40.885552591133795" lon="9.05697277771716"><ele>236.0</ele><time>2026-05-02T15:05:57Z</time></trkpt><trkpt lat="40.88567221666801" lon="9.057108964716312"><ele>236.0</ele><time>2026-05-02T15:05:58Z</time></trkpt><trkpt lat="40.88578001501803" lon="9.057233076933606"><ele>236.0</ele><time>2026-05-02T15:05:59Z</time></trkpt><trkpt lat="40.88589734971678" lon="9.057329395974753"><ele>235.0</ele><time>2026-05-02T15:06:00Z</time></trkpt><trkpt lat="40.886006256694834" lon="9.057356758129886"><ele>234.0</ele><time>2026-05-02T15:06:01Z</time></trkpt><trkpt lat="40.886115873833255" lon="9.05731076887548"><ele>233.0</ele><time>2026-05-02T15:06:02Z</time></trkpt><trkpt lat="40.88621761909019" lon="9.057238728763464"><ele>232.0</ele><time>2026-05-02T15:06:03Z</time></trkpt><trkpt lat="40.886315164493695" lon="9.057095347751147"><ele>232.0</ele><time>2026-05-02T15:06:04Z</time></trkpt><trkpt lat="40.88640345770544" lon="9.056934629956356"><ele>232.0</ele><time>2026-05-02T15:06:05Z</time></trkpt><trkpt lat="40.8865259635154" lon="9.056823284073056"><ele>232.0</ele><time>2026-05-02T15:06:06Z</time></trkpt><trkpt lat="40.88666300358497" lon="9.056725313463073"><ele>240.33333333333331</ele><time>2026-05-02T15:06:07Z</time></trkpt><trkpt lat="40.88684671561671" lon="9.056604223109892"><ele>248.66666666666669</ele><time>2026-05-02T15:06:08Z</time></trkpt><trkpt lat="40.88704186278577" lon="9.0564846887461"><ele>257.0</ele><time>2026-05-02T15:06:09Z</time></trkpt><trkpt lat="40.88721232922346" lon="9.056405775220922"><ele>257.0</ele><time>2026-05-02T15:06:10Z</time></trkpt><trkpt lat="40.88737735162409" lon="9.056352158660236"><ele>257.0</ele><time>2026-05-02T15:06:11Z</time></trkpt><trkpt lat="40.887511623033944" lon="9.056308302025247"><ele>257.0</ele><time>2026-05-02T15:06:12Z</time></trkpt><trkpt lat="40.88764948917657" lon="9.056263271210707"><ele>257.75</ele><time>2026-05-02T15:06:13Z</time></trkpt><trkpt lat="40.88776914738741" lon="9.056226712743262"><ele>258.5</ele><time>2026-05-02T15:06:14Z</time></trkpt><trkpt lat="40.88788590162046" lon="9.056194511058958"><ele>259.25</ele><time>2026-05-02T15:06:15Z</time></trkpt><trkpt lat="40.88799465669721" lon="9.056184649213963"><ele>260.0</ele><time>2026-05-02T15:06:16Z</time></trkpt><trkpt lat="40.88811492795934" lon="9.05620920083029"><ele>260.0</ele><time>2026-05-02T15:06:17Z</time></trkpt><trkpt lat="40.88824652466093" lon="9.05626265388084"><ele>260.0</ele><time>2026-05-02T15:06:18Z</time></trkpt><trkpt lat="40.88840586098173" lon="9.05628586939565"><ele>260.0</ele><time>2026-05-02T15:06:19Z</time></trkpt><trkpt lat="40.88857134189676" lon="9.05625989970101"><ele>261.25</ele><time>2026-05-02T15:06:20Z</time></trkpt><trkpt lat="40.88873186368422" lon="9.056265583658462"><ele>262.5</ele><time>2026-05-02T15:06:21Z</time></trkpt><trkpt lat="40.88887781571712" lon="9.056251186936713"><ele>263.75</ele><time>2026-05-02T15:06:22Z</time></trkpt><trkpt lat="40.88898812178398" lon="9.056193873281925"><ele>265.0</ele><time>2026-05-02T15:06:23Z</time></trkpt><trkpt lat="40.8890869677486" lon="9.056174122379312"><ele>265.0</ele><time>2026-05-02T15:06:24Z</time></trkpt><trkpt lat="40.88920133087002" lon="9.056161855588991"><ele>265.0</ele><time>2026-05-02T15:06:25Z</time></trkpt><trkpt lat="40.889295640088854" lon="9.056194650469374"><ele>265.0</ele><time>2026-05-02T15:06:26Z</time></trkpt><trkpt lat="40.889358390880346" lon="9.05626810500751"><ele>265.0</ele><time>2026-05-02T15:06:27Z</time></trkpt><trkpt lat="40.8893728157153" lon="9.056367944573662"><ele>265.0</ele><time>2026-05-02T15:06:28Z</time></trkpt><trkpt lat="40.88933813307087" lon="9.056536490783003"><ele>270.66666666666663</ele><time>2026-05-02T15:06:29Z</time></trkpt><trkpt lat="40.88927348651202" lon="9.056726335103816"><ele>276.3333333333333</ele><time>2026-05-02T15:06:30Z</time></trkpt><trkpt lat="40.88923313423171" lon="9.056907998323638"><ele>282.0</ele><time>2026-05-02T15:06:31Z</time></trkpt><trkpt lat="40.889183684086746" lon="9.057162432353453"><ele>272.0</ele><time>2026-05-02T15:06:32Z</time></trkpt><trkpt lat="40.889148430950954" lon="9.057363621819364"><ele>262.0</ele><time>2026-05-02T15:06:33Z</time></trkpt><trkpt lat="40.889101467653084" lon="9.057567640206864"><ele>252.0</ele><time>2026-05-02T15:06:34Z</time></trkpt><trkpt lat="40.88904909564083" lon="9.057764111543296"><ele>252.0</ele><time>2026-05-02T15:06:35Z</time></trkpt><trkpt lat="40.88897496602234" lon="9.057922610494936"><ele>252.0</ele><time>2026-05-02T15:06:36Z</time></trkpt><trkpt lat="40.888903748883536" lon="9.058065161124826"><ele>252.0</ele><time>2026-05-02T15:06:37Z</time></trkpt><trkpt lat="40.888854934636726" lon="9.058205229368243"><ele>252.0</ele><time>2026-05-02T15:06:37.999Z</time></trkpt><trkpt lat="40.888887922745674" lon="9.058339912645451"><ele>252.25</ele><time>2026-05-02T15:06:38.999Z</time></trkpt><trkpt lat="40.888981137431294" lon="9.058464770243384"><ele>252.5</ele><time>2026-05-02T15:06:39.999Z</time></trkpt><trkpt lat="40.88908023232856" lon="9.058568411017935"><ele>252.75</ele><time>2026-05-02T15:06:40.999Z</time></trkpt><trkpt lat="40.88921100499222" lon="9.058730791598435"><ele>253.0</ele><time>2026-05-02T15:06:41.999Z</time></trkpt><trkpt lat="40.8893017141429" lon="9.058869254695816"><ele>258.0</ele><time>2026-05-02T15:06:42.999Z</time></trkpt><trkpt lat="40.889387893927456" lon="9.058981407303484"><ele>263.0</ele><time>2026-05-02T15:06:43.999Z</time></trkpt><trkpt lat="40.889462502963944" lon="9.059104654068992"><ele>268.0</ele><time>2026-05-02T15:06:44.999Z</time></trkpt><trkpt lat="40.88947934860323" lon="9.059236214259471"><ele>273.0</ele><time>2026-05-02T15:06:45.999Z</time></trkpt><trkpt lat="40.889421273364455" lon="9.059364342015526"><ele>273.0</ele><time>2026-05-02T15:06:46.999Z</time></trkpt><trkpt lat="40.88939957912721" lon="9.059529084986703"><ele>273.0</ele><time>2026-05-02T15:06:47.999Z</time></trkpt><trkpt lat="40.88947336276495" lon="9.059730753055158"><ele>273.0</ele><time>2026-05-02T15:06:48.999Z</time></trkpt><trkpt lat="40.88955283227462" lon="9.05996663582131"><ele>270.6666666666667</ele><time>2026-05-02T15:06:49.999Z</time></trkpt><trkpt lat="40.88961742305174" lon="9.060153809699395"><ele>268.33333333333337</ele><time>2026-05-02T15:06:50.999Z</time></trkpt><trkpt lat="40.8897094277174" lon="9.060308161227466"><ele>266.0</ele><time>2026-05-02T15:06:51.999Z</time></trkpt><trkpt lat="40.88982752814797" lon="9.06043164800787"><ele>266.0</ele><time>2026-05-02T15:06:52.999Z</time></trkpt><trkpt lat="40.889973987013505" lon="9.060534553478545"><ele>266.0</ele><time>2026-05-02T15:06:53.999Z</time></trkpt><trkpt lat="40.89012770541293" lon="9.060599928699007"><ele>266.0</ele><time>2026-05-02T15:06:54.999Z</time></trkpt><trkpt lat="40.89026148637833" lon="9.060673275567535"><ele>267.5</ele><time>2026-05-02T15:06:55.999Z</time></trkpt><trkpt lat="40.890361737358724" lon="9.060772893162195"><ele>269.0</ele><time>2026-05-02T15:06:56.999Z</time></trkpt><trkpt lat="40.89043467993698" lon="9.06091519319248"><ele>270.5</ele><time>2026-05-02T15:06:57.999Z</time></trkpt><trkpt lat="40.89049746720341" lon="9.061083705101787"><ele>272.0</ele><time>2026-05-02T15:06:58.999Z</time></trkpt><trkpt lat="40.890603781314034" lon="9.061233955805399"><ele>272.0</ele><time>2026-05-02T15:06:59.999Z</time></trkpt><trkpt lat="40.890733748320905" lon="9.061342324910687"><ele>272.0</ele><time>2026-05-02T15:07:00.999Z</time></trkpt><trkpt lat="40.89089120654182" lon="9.061448372707929"><ele>272.0</ele><time>2026-05-02T15:07:01.999Z</time></trkpt><trkpt lat="40.891039168564916" lon="9.061549006590703"><ele>270.0</ele><time>2026-05-02T15:07:02.999Z</time></trkpt><trkpt lat="40.89115538554425" lon="9.061617626621604"><ele>268.0</ele><time>2026-05-02T15:07:03.999Z</time></trkpt><trkpt lat="40.89129178980628" lon="9.061630457210223"><ele>266.0</ele><time>2026-05-02T15:07:04.999Z</time></trkpt><trkpt lat="40.891428066209556" lon="9.061573002514587"><ele>264.0</ele><time>2026-05-02T15:07:05.999Z</time></trkpt><trkpt lat="40.891566590422755" lon="9.061486178589696"><ele>270.3333333333333</ele><time>2026-05-02T15:07:06.999Z</time></trkpt><trkpt lat="40.89172610793224" lon="9.061401302243393"><ele>276.66666666666663</ele><time>2026-05-02T15:07:07.999Z</time></trkpt><trkpt lat="40.89190199007634" lon="9.061319609738591"><ele>283.0</ele><time>2026-05-02T15:07:08.999Z</time></trkpt><trkpt lat="40.892070076048675" lon="9.061267745601123"><ele>284.0</ele><time>2026-05-02T15:07:09.999Z</time></trkpt><trkpt lat="40.89222840030479" lon="9.061270447354932"><ele>285.0</ele><time>2026-05-02T15:07:10.999Z</time></trkpt><trkpt lat="40.89236123638163" lon="9.061334290697635"><ele>286.0</ele><time>2026-05-02T15:07:11.999Z</time></trkpt><trkpt lat="40.89249892267031" lon="9.06143427945811"><ele>285.3333333333333</ele><time>2026-05-02T15:07:12.999Z</time></trkpt><trkpt lat="40.892644196452224" lon="9.061528629385743"><ele>284.6666666666667</ele><time>2026-05-02T15:07:13.999Z</time></trkpt><trkpt lat="40.892791646739944" lon="9.061612077473052"><ele>284.0</ele><time>2026-05-02T15:07:14.999Z</time></trkpt><trkpt lat="40.89292688691956" lon="9.061686973450012"><ele>284.0</ele><time>2026-05-02T15:07:15.999Z</time></trkpt><trkpt lat="40.89304099980588" lon="9.061725477607489"><ele>284.0</ele><time>2026-05-02T15:07:16.999Z</time></trkpt><trkpt lat="40.893146149239634" lon="9.061705767965668"><ele>284.0</ele><time>2026-05-02T15:07:17.999Z</time></trkpt><trkpt lat="40.89321722051795" lon="9.061622463510172"><ele>284.0</ele><time>2026-05-02T15:07:18.999Z</time></trkpt><trkpt lat="40.89327325339316" lon="9.06147782803267"><ele>284.0</ele><time>2026-05-02T15:07:19.999Z</time></trkpt><trkpt lat="40.893290414155814" lon="9.061319175941748"><ele>284.0</ele><time>2026-05-02T15:07:20.999Z</time></trkpt><trkpt lat="40.893309291447025" lon="9.061154580448358"><ele>284.0</ele><time>2026-05-02T15:07:21.999Z</time></trkpt><trkpt lat="40.89335801269323" lon="9.060987561591574"><ele>284.0</ele><time>2026-05-02T15:07:22.999Z</time></trkpt><trkpt lat="40.893452522731984" lon="9.060806201612069"><ele>284.0</ele><time>2026-05-02T15:07:23.999Z</time></trkpt><trkpt lat="40.89355525702419" lon="9.060638354614563"><ele>282.6666666666667</ele><time>2026-05-02T15:07:24.999Z</time></trkpt><trkpt lat="40.893654337711595" lon="9.060472167293309"><ele>281.3333333333333</ele><time>2026-05-02T15:07:25.999Z</time></trkpt><trkpt lat="40.89376496567696" lon="9.060290540047534"><ele>280.0</ele><time>2026-05-02T15:07:26.999Z</time></trkpt><trkpt lat="40.893877128146144" lon="9.060106583724073"><ele>282.0</ele><time>2026-05-02T15:07:28Z</time></trkpt><trkpt lat="40.893987701968285" lon="9.059939996469513"><ele>284.0</ele><time>2026-05-02T15:07:29Z</time></trkpt><trkpt lat="40.89408516323982" lon="9.059756978922971"><ele>286.0</ele><time>2026-05-02T15:07:30Z</time></trkpt><trkpt lat="40.894158520088844" lon="9.059548406986467"><ele>286.0</ele><time>2026-05-02T15:07:31Z</time></trkpt><trkpt lat="40.89422263657843" lon="9.05932166942113"><ele>286.0</ele><time>2026-05-02T15:07:32Z</time></trkpt><trkpt lat="40.894292991661366" lon="9.059093954271487"><ele>286.0</ele><time>2026-05-02T15:07:33Z</time></trkpt><trkpt lat="40.89438539317401" lon="9.058871564693234"><ele>286.3333333333333</ele><time>2026-05-02T15:07:34Z</time></trkpt><trkpt lat="40.89447702478528" lon="9.058662628143201"><ele>286.6666666666667</ele><time>2026-05-02T15:07:35Z</time></trkpt><trkpt lat="40.89460000068579" lon="9.05850854963299"><ele>287.0</ele><time>2026-05-02T15:07:36Z</time></trkpt><trkpt lat="40.89470413655464" lon="9.058373314350268"><ele>287.0</ele><time>2026-05-02T15:07:37Z</time></trkpt><trkpt lat="40.894816063816336" lon="9.058285743934357"><ele>287.0</ele><time>2026-05-02T15:07:38Z</time></trkpt><trkpt lat="40.894940341647846" lon="9.058260742983874"><ele>287.0</ele><time>2026-05-02T15:07:39Z</time></trkpt><trkpt lat="40.89507509322686" lon="9.058280354885275"><ele>287.0</ele><time>2026-05-02T15:07:40Z</time></trkpt><trkpt lat="40.89520596335277" lon="9.058357508718585"><ele>288.5</ele><time>2026-05-02T15:07:41Z</time></trkpt><trkpt lat="40.89533143157515" lon="9.058458356680893"><ele>290.0</ele><time>2026-05-02T15:07:42Z</time></trkpt><trkpt lat="40.895453343484554" lon="9.058547908236434"><ele>291.5</ele><time>2026-05-02T15:07:43Z</time></trkpt><trkpt lat="40.89557819279875" lon="9.058624627794545"><ele>293.0</ele><time>2026-05-02T15:07:44Z</time></trkpt><trkpt lat="40.89570801633788" lon="9.058677961740376"><ele>293.0</ele><time>2026-05-02T15:07:45Z</time></trkpt><trkpt lat="40.895840160432506" lon="9.058682032971525"><ele>293.0</ele><time>2026-05-02T15:07:46Z</time></trkpt><trkpt lat="40.8959687421302" lon="9.058635987779843"><ele>293.0</ele><time>2026-05-02T15:07:47Z</time></trkpt><trkpt lat="40.896090466837364" lon="9.058592855230328"><ele>293.0</ele><time>2026-05-02T15:07:48Z</time></trkpt><trkpt lat="40.89621740804173" lon="9.05858456115943"><ele>293.5</ele><time>2026-05-02T15:07:49Z</time></trkpt><trkpt lat="40.896344535136336" lon="9.058619581715181"><ele>294.0</ele><time>2026-05-02T15:07:50Z</time></trkpt><trkpt lat="40.896461530868585" lon="9.058707918023417"><ele>294.5</ele><time>2026-05-02T15:07:51Z</time></trkpt><trkpt lat="40.896562960651856" lon="9.0588497863871"><ele>295.0</ele><time>2026-05-02T15:07:52Z</time></trkpt><trkpt lat="40.89664746491685" lon="9.059041729800763"><ele>294.3333333333333</ele><time>2026-05-02T15:07:53Z</time></trkpt><trkpt lat="40.89674063036288" lon="9.05929351556465"><ele>293.6666666666667</ele><time>2026-05-02T15:07:54Z</time></trkpt><trkpt lat="40.89683946989005" lon="9.059512253403668"><ele>293.0</ele><time>2026-05-02T15:07:55Z</time></trkpt><trkpt lat="40.89693744025839" lon="9.059709103240019"><ele>296.0</ele><time>2026-05-02T15:07:56Z</time></trkpt><trkpt lat="40.897065267182946" lon="9.059869000934874"><ele>299.0</ele><time>2026-05-02T15:07:57Z</time></trkpt><trkpt lat="40.8971843672654" lon="9.060007085367692"><ele>302.0</ele><time>2026-05-02T15:07:58Z</time></trkpt><trkpt lat="40.89729036070614" lon="9.060110552200083"><ele>302.0</ele><time>2026-05-02T15:07:59Z</time></trkpt><trkpt lat="40.89741258047963" lon="9.060192903136562"><ele>302.0</ele><time>2026-05-02T15:08:00Z</time></trkpt><trkpt lat="40.89750530785453" lon="9.060265276232027"><ele>302.0</ele><time>2026-05-02T15:08:01Z</time></trkpt><trkpt lat="40.89756484494026" lon="9.060365094339586"><ele>302.0</ele><time>2026-05-02T15:08:02Z</time></trkpt><trkpt lat="40.89757185081029" lon="9.060495367021623"><ele>302.0</ele><time>2026-05-02T15:08:03Z</time></trkpt><trkpt lat="40.8975403144347" lon="9.060610377559417"><ele>302.0</ele><time>2026-05-02T15:08:04Z</time></trkpt><trkpt lat="40.89746379974559" lon="9.06071930781752"><ele>302.0</ele><time>2026-05-02T15:08:05Z</time></trkpt><trkpt lat="40.89732915980788" lon="9.06072531942999"><ele>302.0</ele><time>2026-05-02T15:08:06Z</time></trkpt><trkpt lat="40.897205500860075" lon="9.060694155988427"><ele>302.0</ele><time>2026-05-02T15:08:07Z</time></trkpt><trkpt lat="40.89704756546826" lon="9.06063185756976"><ele>302.0</ele><time>2026-05-02T15:08:08Z</time></trkpt><trkpt lat="40.89687641304706" lon="9.060573503736864"><ele>302.0</ele><time>2026-05-02T15:08:09Z</time></trkpt><trkpt lat="40.8967187952469" lon="9.060535207653148"><ele>302.0</ele><time>2026-05-02T15:08:10Z</time></trkpt><trkpt lat="40.8965701258704" lon="9.060455997723908"><ele>300.33333333333337</ele><time>2026-05-02T15:08:11Z</time></trkpt><trkpt lat="40.896435740926655" lon="9.060315261868057"><ele>298.6666666666667</ele><time>2026-05-02T15:08:12Z</time></trkpt><trkpt lat="40.89632971765852" lon="9.060141368129312"><ele>297.0</ele><time>2026-05-02T15:08:13Z</time></trkpt><trkpt lat="40.8962203742131" lon="9.060018347035898"><ele>296.0</ele><time>2026-05-02T15:08:14Z</time></trkpt><trkpt lat="40.8960898856404" lon="9.059938788702397"><ele>295.0</ele><time>2026-05-02T15:08:15Z</time></trkpt><trkpt lat="40.89594804810613" lon="9.05991882195942"><ele>294.0</ele><time>2026-05-02T15:08:16Z</time></trkpt><trkpt lat="40.89580207662651" lon="9.059950185273369"><ele>293.0</ele><time>2026-05-02T15:08:17Z</time></trkpt><trkpt lat="40.895681591781546" lon="9.060023656524468"><ele>294.8</ele><time>2026-05-02T15:08:18Z</time></trkpt><trkpt lat="40.8956398516546" lon="9.060119525760435"><ele>296.6</ele><time>2026-05-02T15:08:19Z</time></trkpt><trkpt lat="40.895608430179536" lon="9.060258450664257"><ele>298.4</ele><time>2026-05-02T15:08:20Z</time></trkpt><trkpt lat="40.895594175033914" lon="9.06040599688616"><ele>300.2</ele><time>2026-05-02T15:08:21Z</time></trkpt><trkpt lat="40.89554094247564" lon="9.060561192943307"><ele>302.0</ele><time>2026-05-02T15:08:22Z</time></trkpt><trkpt lat="40.89544230582777" lon="9.060700303205646"><ele>306.0</ele><time>2026-05-02T15:08:23Z</time></trkpt><trkpt lat="40.89533492111769" lon="9.060840853864045"><ele>310.0</ele><time>2026-05-02T15:08:24Z</time></trkpt><trkpt lat="40.89525706918611" lon="9.060982276553567"><ele>314.0</ele><time>2026-05-02T15:08:25Z</time></trkpt><trkpt lat="40.89524885523589" lon="9.06112472020619"><ele>318.0</ele><time>2026-05-02T15:08:26Z</time></trkpt><trkpt lat="40.89530181535604" lon="9.061291660518885"><ele>318.0</ele><time>2026-05-02T15:08:27Z</time></trkpt><trkpt lat="40.895351862686816" lon="9.061466039142443"><ele>318.0</ele><time>2026-05-02T15:08:28Z</time></trkpt><trkpt lat="40.895440995942955" lon="9.061658291016718"><ele>318.0</ele><time>2026-05-02T15:08:29Z</time></trkpt><trkpt lat="40.89553190828834" lon="9.061801552808806"><ele>320.0</ele><time>2026-05-02T15:08:30Z</time></trkpt><trkpt lat="40.895574826763195" lon="9.061942670807028"><ele>322.0</ele><time>2026-05-02T15:08:31Z</time></trkpt><trkpt lat="40.895548406185306" lon="9.062083591233927"><ele>324.0</ele><time>2026-05-02T15:08:32Z</time></trkpt><trkpt lat="40.89551763422429" lon="9.062243284563055"><ele>326.0</ele><time>2026-05-02T15:08:33Z</time></trkpt><trkpt lat="40.89553892685086" lon="9.06242263110502"><ele>326.0</ele><time>2026-05-02T15:08:34Z</time></trkpt><trkpt lat="40.89563222127804" lon="9.062575978455813"><ele>326.0</ele><time>2026-05-02T15:08:35Z</time></trkpt><trkpt lat="40.895715271508145" lon="9.062718066773572"><ele>326.0</ele><time>2026-05-02T15:08:36Z</time></trkpt><trkpt lat="40.895802584395845" lon="9.062857947336338"><ele>326.0</ele><time>2026-05-02T15:08:36.999Z</time></trkpt><trkpt lat="40.895868015413875" lon="9.0629993624151"><ele>326.0</ele><time>2026-05-02T15:08:37.999Z</time></trkpt><trkpt lat="40.89586894355909" lon="9.063122935951258"><ele>326.0</ele><time>2026-05-02T15:08:38.999Z</time></trkpt><trkpt lat="40.895823274796015" lon="9.063256129787442"><ele>326.0</ele><time>2026-05-02T15:08:39.999Z</time></trkpt><trkpt lat="40.89573737186283" lon="9.063295820163837"><ele>326.0</ele><time>2026-05-02T15:08:40.999Z</time></trkpt><trkpt lat="40.89565832547764" lon="9.063285298965267"><ele>326.0</ele><time>2026-05-02T15:08:41.999Z</time></trkpt><trkpt lat="40.895564577205455" lon="9.06325719186835"><ele>326.0</ele><time>2026-05-02T15:08:42.999Z</time></trkpt><trkpt lat="40.89544609800156" lon="9.063268933992596"><ele>326.0</ele><time>2026-05-02T15:08:43.999Z</time></trkpt><trkpt lat="40.89535143940374" lon="9.06336373498497"><ele>326.0</ele><time>2026-05-02T15:08:44.999Z</time></trkpt><trkpt lat="40.89530194474469" lon="9.063498721564946"><ele>326.0</ele><time>2026-05-02T15:08:45.999Z</time></trkpt><trkpt lat="40.89529862026722" lon="9.063671660695835"><ele>326.5</ele><time>2026-05-02T15:08:46.999Z</time></trkpt><trkpt lat="40.89529160573792" lon="9.063838497218775"><ele>327.0</ele><time>2026-05-02T15:08:47.999Z</time></trkpt><trkpt lat="40.895289456993325" lon="9.064009688701123"><ele>327.5</ele><time>2026-05-02T15:08:48.999Z</time></trkpt><trkpt lat="40.895303200092314" lon="9.064177707174768"><ele>328.0</ele><time>2026-05-02T15:08:49.999Z</time></trkpt><trkpt lat="40.895336562119354" lon="9.064336969395711"><ele>331.75</ele><time>2026-05-02T15:08:50.999Z</time></trkpt><trkpt lat="40.895351094609104" lon="9.064490069236642"><ele>335.5</ele><time>2026-05-02T15:08:51.999Z</time></trkpt><trkpt lat="40.89532920277915" lon="9.06463399784888"><ele>339.25</ele><time>2026-05-02T15:08:52.999Z</time></trkpt><trkpt lat="40.89526174421633" lon="9.064761523528441"><ele>343.0</ele><time>2026-05-02T15:08:53.999Z</time></trkpt><trkpt lat="40.89515400923038" lon="9.064835604895057"><ele>342.0</ele><time>2026-05-02T15:08:54.999Z</time></trkpt><trkpt lat="40.895029177720666" lon="9.06482590089317"><ele>341.0</ele><time>2026-05-02T15:08:55.999Z</time></trkpt><trkpt lat="40.89490152472304" lon="9.064833867104362"><ele>340.0</ele><time>2026-05-02T15:08:56.999Z</time></trkpt><trkpt lat="40.89475689033135" lon="9.06492378083643"><ele>339.0</ele><time>2026-05-02T15:08:57.999Z</time></trkpt><trkpt lat="40.89460355098478" lon="9.065034371557264"><ele>339.0</ele><time>2026-05-02T15:08:58.999Z</time></trkpt><trkpt lat="40.89445079767784" lon="9.065076376128937"><ele>339.0</ele><time>2026-05-02T15:08:59.999Z</time></trkpt><trkpt lat="40.894304589836146" lon="9.065022028434836"><ele>339.0</ele><time>2026-05-02T15:09:00.999Z</time></trkpt><trkpt lat="40.894167887593646" lon="9.065056786392343"><ele>339.0</ele><time>2026-05-02T15:09:01.999Z</time></trkpt><trkpt lat="40.8940335803062" lon="9.065169354921782"><ele>340.25</ele><time>2026-05-02T15:09:02.999Z</time></trkpt><trkpt lat="40.89393937293092" lon="9.065302079254232"><ele>341.5</ele><time>2026-05-02T15:09:03.999Z</time></trkpt><trkpt lat="40.89386427457185" lon="9.065441777605917"><ele>342.75</ele><time>2026-05-02T15:09:04.999Z</time></trkpt><trkpt lat="40.893883327852535" lon="9.06561720872201"><ele>344.0</ele><time>2026-05-02T15:09:05.999Z</time></trkpt><trkpt lat="40.89393726119969" lon="9.065796492034497"><ele>344.0</ele><time>2026-05-02T15:09:06.999Z</time></trkpt><trkpt lat="40.89397568284758" lon="9.065990051548285"><ele>344.0</ele><time>2026-05-02T15:09:07.999Z</time></trkpt><trkpt lat="40.89402476830887" lon="9.066200368598137"><ele>344.0</ele><time>2026-05-02T15:09:08.999Z</time></trkpt><trkpt lat="40.89406655278608" lon="9.066404804892606"><ele>344.0</ele><time>2026-05-02T15:09:09.999Z</time></trkpt><trkpt lat="40.89410947425869" lon="9.066607122500233"><ele>344.0</ele><time>2026-05-02T15:09:10.999Z</time></trkpt><trkpt lat="40.89415599580882" lon="9.06682075690863"><ele>344.0</ele><time>2026-05-02T15:09:11.999Z</time></trkpt><trkpt lat="40.894197870583824" lon="9.067034872905127"><ele>346.0</ele><time>2026-05-02T15:09:12.999Z</time></trkpt><trkpt lat="40.89422557270675" lon="9.067245807964959"><ele>348.0</ele><time>2026-05-02T15:09:13.999Z</time></trkpt><trkpt lat="40.89421801799917" lon="9.06745165282234"><ele>350.0</ele><time>2026-05-02T15:09:14.999Z</time></trkpt><trkpt lat="40.89417025072571" lon="9.067620459633076"><ele>352.33333333333337</ele><time>2026-05-02T15:09:15.999Z</time></trkpt><trkpt lat="40.894081022442556" lon="9.067772023337847"><ele>354.6666666666667</ele><time>2026-05-02T15:09:16.999Z</time></trkpt><trkpt lat="40.89397093797643" lon="9.067914677245458"><ele>357.0</ele><time>2026-05-02T15:09:17.999Z</time></trkpt><trkpt lat="40.893841333319756" lon="9.068030349516624"><ele>357.0</ele><time>2026-05-02T15:09:18.999Z</time></trkpt><trkpt lat="40.89372713801623" lon="9.068148294422093"><ele>357.0</ele><time>2026-05-02T15:09:19.999Z</time></trkpt><trkpt lat="40.89366342996412" lon="9.068256956933604"><ele>357.0</ele><time>2026-05-02T15:09:20.999Z</time></trkpt><trkpt lat="40.89365460578161" lon="9.068396520551481"><ele>357.0</ele><time>2026-05-02T15:09:21.999Z</time></trkpt><trkpt lat="40.89369804525713" lon="9.068529523465147"><ele>360.0</ele><time>2026-05-02T15:09:22.999Z</time></trkpt><trkpt lat="40.89378150251195" lon="9.068644108727597"><ele>363.0</ele><time>2026-05-02T15:09:23.999Z</time></trkpt><trkpt lat="40.89387113799068" lon="9.068756843429757"><ele>366.0</ele><time>2026-05-02T15:09:24.999Z</time></trkpt><trkpt lat="40.89394038414202" lon="9.068886839077376"><ele>369.0</ele><time>2026-05-02T15:09:25.999Z</time></trkpt><trkpt lat="40.89398345105923" lon="9.069059546594945"><ele>369.5</ele><time>2026-05-02T15:09:26.999Z</time></trkpt><trkpt lat="40.89398653730813" lon="9.06923714295881"><ele>370.0</ele><time>2026-05-02T15:09:27.999Z</time></trkpt><trkpt lat="40.893957051728634" lon="9.069437556231627"><ele>370.5</ele><time>2026-05-02T15:09:28.999Z</time></trkpt><trkpt lat="40.89394555699051" lon="9.06962935566084"><ele>371.0</ele><time>2026-05-02T15:09:29.999Z</time></trkpt><trkpt lat="40.89398390450268" lon="9.069819715310727"><ele>369.0</ele><time>2026-05-02T15:09:30.999Z</time></trkpt><trkpt lat="40.89404129523186" lon="9.069996643809597"><ele>367.0</ele><time>2026-05-02T15:09:31.999Z</time></trkpt><trkpt lat="40.89413212965576" lon="9.070157111781612"><ele>365.0</ele><time>2026-05-02T15:09:32.999Z</time></trkpt><trkpt lat="40.89424782018353" lon="9.070303172901898"><ele>374.25</ele><time>2026-05-02T15:09:34Z</time></trkpt><trkpt lat="40.89435904252481" lon="9.070433503561278"><ele>383.5</ele><time>2026-05-02T15:09:35Z</time></trkpt><trkpt lat="40.89445665464205" lon="9.070541526076777"><ele>392.75</ele><time>2026-05-02T15:09:36Z</time></trkpt><trkpt lat="40.89453214941503" lon="9.070623386323009"><ele>402.0</ele><time>2026-05-02T15:09:37Z</time></trkpt><trkpt lat="40.89462492664498" lon="9.070712340440284"><ele>396.0</ele><time>2026-05-02T15:09:38Z</time></trkpt><trkpt lat="40.89472882925847" lon="9.070791999009687"><ele>390.0</ele><time>2026-05-02T15:09:39Z</time></trkpt><trkpt lat="40.89483910458023" lon="9.070867968702535"><ele>384.0</ele><time>2026-05-02T15:09:40Z</time></trkpt><trkpt lat="40.89495885627172" lon="9.070955460224766"><ele>378.0</ele><time>2026-05-02T15:09:41Z</time></trkpt><trkpt lat="40.89508146482602" lon="9.071052500735581"><ele>385.75</ele><time>2026-05-02T15:09:42Z</time></trkpt><trkpt lat="40.89521049690386" lon="9.071156891076036"><ele>393.5</ele><time>2026-05-02T15:09:43Z</time></trkpt><trkpt lat="40.89533149245831" lon="9.07125776959964"><ele>401.25</ele><time>2026-05-02T15:09:44Z</time></trkpt><trkpt lat="40.895451994696685" lon="9.071351624733985"><ele>409.0</ele><time>2026-05-02T15:09:45Z</time></trkpt><trkpt lat="40.895572266679224" lon="9.071446798435055"><ele>409.0</ele><time>2026-05-02T15:09:46Z</time></trkpt><trkpt lat="40.895688387209944" lon="9.071549653420218"><ele>409.0</ele><time>2026-05-02T15:09:47Z</time></trkpt><trkpt lat="40.89580490958272" lon="9.07165528547103"><ele>409.0</ele><time>2026-05-02T15:09:48Z</time></trkpt><trkpt lat="40.89591713134692" lon="9.071768816833721"><ele>409.0</ele><time>2026-05-02T15:09:49Z</time></trkpt><trkpt lat="40.896021751122525" lon="9.071888249972421"><ele>410.0</ele><time>2026-05-02T15:09:50Z</time></trkpt><trkpt lat="40.89610904834126" lon="9.07203002983413"><ele>411.0</ele><time>2026-05-02T15:09:51Z</time></trkpt><trkpt lat="40.89619269471051" lon="9.07217979748445"><ele>412.0</ele><time>2026-05-02T15:09:52Z</time></trkpt><trkpt lat="40.896264347609275" lon="9.072352889587446"><ele>413.0</ele><time>2026-05-02T15:09:53Z</time></trkpt><trkpt lat="40.89632936819072" lon="9.072534492474476"><ele>408.66666666666663</ele><time>2026-05-02T15:09:54Z</time></trkpt><trkpt lat="40.89639178796254" lon="9.072718021035065"><ele>404.33333333333337</ele><time>2026-05-02T15:09:55Z</time></trkpt><trkpt lat="40.89645973880622" lon="9.072910598441055"><ele>400.0</ele><time>2026-05-02T15:09:56Z</time></trkpt><trkpt lat="40.89652872577242" lon="9.073106055821636"><ele>397.33333333333337</ele><time>2026-05-02T15:09:57Z</time></trkpt><trkpt lat="40.89659927303176" lon="9.07330301351338"><ele>394.66666666666663</ele><time>2026-05-02T15:09:58Z</time></trkpt><trkpt lat="40.89665641060654" lon="9.073501133793567"><ele>392.0</ele><time>2026-05-02T15:09:59Z</time></trkpt><trkpt lat="40.89669871426192" lon="9.073694075684731"><ele>392.0</ele><time>2026-05-02T15:10:00Z</time></trkpt><trkpt lat="40.89673024593279" lon="9.073882722225092"><ele>392.0</ele><time>2026-05-02T15:10:01Z</time></trkpt><trkpt lat="40.896765702044654" lon="9.074080060974891"><ele>392.0</ele><time>2026-05-02T15:10:02Z</time></trkpt><trkpt lat="40.8968173211129" lon="9.074275636185222"><ele>403.3333333333333</ele><time>2026-05-02T15:10:03Z</time></trkpt><trkpt lat="40.89689104480312" lon="9.074455536005399"><ele>414.66666666666663</ele><time>2026-05-02T15:10:04Z</time></trkpt><trkpt lat="40.89699520426525" lon="9.074611458993925"><ele>426.0</ele><time>2026-05-02T15:10:05Z</time></trkpt><trkpt lat="40.89709735438629" lon="9.074770677006944"><ele>422.66666666666663</ele><time>2026-05-02T15:10:06Z</time></trkpt><trkpt lat="40.89717811122754" lon="9.07494802878735"><ele>419.3333333333333</ele><time>2026-05-02T15:10:07Z</time></trkpt><trkpt lat="40.89722325617679" lon="9.075152880314667"><ele>416.0</ele><time>2026-05-02T15:10:08Z</time></trkpt><trkpt lat="40.89724207409748" lon="9.075363871846394"><ele>416.0</ele><time>2026-05-02T15:10:09Z</time></trkpt><trkpt lat="40.89727446570347" lon="9.075570262506028"><ele>416.0</ele><time>2026-05-02T15:10:10Z</time></trkpt><trkpt lat="40.89731415889513" lon="9.075775884197775"><ele>416.0</ele><time>2026-05-02T15:10:11Z</time></trkpt><trkpt lat="40.8973595526444" lon="9.07599010334165"><ele>414.3333333333333</ele><time>2026-05-02T15:10:12Z</time></trkpt><trkpt lat="40.89741340391741" lon="9.076206621256448"><ele>412.66666666666663</ele><time>2026-05-02T15:10:13Z</time></trkpt><trkpt lat="40.897479188184015" lon="9.076419305762244"><ele>411.0</ele><time>2026-05-02T15:10:14Z</time></trkpt><trkpt lat="40.89755652658505" lon="9.076623814504943"><ele>419.0</ele><time>2026-05-02T15:10:15Z</time></trkpt><trkpt lat="40.897658857065004" lon="9.076816748204562"><ele>427.0</ele><time>2026-05-02T15:10:16Z</time></trkpt><trkpt lat="40.89779222102979" lon="9.076977327612262"><ele>435.0</ele><time>2026-05-02T15:10:17Z</time></trkpt><trkpt lat="40.8979568029176" lon="9.077091885286514"><ele>435.0</ele><time>2026-05-02T15:10:18Z</time></trkpt><trkpt lat="40.89813511500184" lon="9.077145691022452"><ele>435.0</ele><time>2026-05-02T15:10:19Z</time></trkpt><trkpt lat="40.89829751547902" lon="9.077217013154872"><ele>435.0</ele><time>2026-05-02T15:10:20Z</time></trkpt><trkpt lat="40.898459011010004" lon="9.07731761679264"><ele>438.0</ele><time>2026-05-02T15:10:21Z</time></trkpt><trkpt lat="40.89859061726948" lon="9.077495688783648"><ele>441.0</ele><time>2026-05-02T15:10:22Z</time></trkpt><trkpt lat="40.89871250941481" lon="9.077685042019274"><ele>444.0</ele><time>2026-05-02T15:10:23Z</time></trkpt><trkpt lat="40.89885559724427" lon="9.077844252563356"><ele>444.0</ele><time>2026-05-02T15:10:24Z</time></trkpt><trkpt lat="40.899019621852496" lon="9.077976790559259"><ele>444.0</ele><time>2026-05-02T15:10:25Z</time></trkpt><trkpt lat="40.89919333118413" lon="9.078097784367047"><ele>444.0</ele><time>2026-05-02T15:10:25.999Z</time></trkpt><trkpt lat="40.89936643565162" lon="9.078242208594004"><ele>447.0</ele><time>2026-05-02T15:10:26.999Z</time></trkpt><trkpt lat="40.89955449136818" lon="9.078421507163782"><ele>450.0</ele><time>2026-05-02T15:10:27.999Z</time></trkpt><trkpt lat="40.89972121140111" lon="9.078612680060331"><ele>450.0</ele><time>2026-05-02T15:10:28.999Z</time></trkpt><trkpt lat="40.89987065768301" lon="9.078765372070226"><ele>450.0</ele><time>2026-05-02T15:10:29.999Z</time></trkpt><trkpt lat="40.90002246730867" lon="9.078874666688401"><ele>450.0</ele><time>2026-05-02T15:10:30.999Z</time></trkpt><trkpt lat="40.90020016537275" lon="9.078958198984866"><ele>443.33333333333337</ele><time>2026-05-02T15:10:31.999Z</time></trkpt><trkpt lat="40.90037805051648" lon="9.079034137478867"><ele>436.6666666666667</ele><time>2026-05-02T15:10:32.999Z</time></trkpt><trkpt lat="40.90055204132794" lon="9.079112041430946"><ele>430.0</ele><time>2026-05-02T15:10:33.999Z</time></trkpt><trkpt lat="40.900711298546625" lon="9.07918945715664"><ele>430.0</ele><time>2026-05-02T15:10:34.999Z</time></trkpt><trkpt lat="40.900868603544474" lon="9.079255325295765"><ele>430.0</ele><time>2026-05-02T15:10:35.999Z</time></trkpt><trkpt lat="40.9010220779795" lon="9.079325893924105"><ele>430.0</ele><time>2026-05-02T15:10:36.999Z</time></trkpt><trkpt lat="40.90117060685243" lon="9.079389578675325"><ele>437.6666666666667</ele><time>2026-05-02T15:10:37.999Z</time></trkpt><trkpt lat="40.90132522956108" lon="9.079437876531303"><ele>445.33333333333337</ele><time>2026-05-02T15:10:38.999Z</time></trkpt><trkpt lat="40.901478988287295" lon="9.079443768609872"><ele>453.0</ele><time>2026-05-02T15:10:39.999Z</time></trkpt><trkpt lat="40.90163584157764" lon="9.079444647086305"><ele>456.75</ele><time>2026-05-02T15:10:40.999Z</time></trkpt><trkpt lat="40.9017827177853" lon="9.079509547932775"><ele>460.5</ele><time>2026-05-02T15:10:41.999Z</time></trkpt><trkpt lat="40.901854189688464" lon="9.079670820084432"><ele>464.25</ele><time>2026-05-02T15:10:42.999Z</time></trkpt><trkpt lat="40.901976304985894" lon="9.079764363831748"><ele>468.0</ele><time>2026-05-02T15:10:43.999Z</time></trkpt><trkpt lat="40.902116852721946" lon="9.079814299846591"><ele>468.0</ele><time>2026-05-02T15:10:44.999Z</time></trkpt><trkpt lat="40.90226577334278" lon="9.079833863242612"><ele>468.0</ele><time>2026-05-02T15:10:45.999Z</time></trkpt><trkpt lat="40.90241587495606" lon="9.079781456027549"><ele>468.0</ele><time>2026-05-02T15:10:46.999Z</time></trkpt><trkpt lat="40.902551746178126" lon="9.079669527018813"><ele>466.66666666666663</ele><time>2026-05-02T15:10:47.999Z</time></trkpt><trkpt lat="40.90269724859875" lon="9.079546821688288"><ele>465.3333333333333</ele><time>2026-05-02T15:10:48.999Z</time></trkpt><trkpt lat="40.90285200745773" lon="9.079536556633327"><ele>464.0</ele><time>2026-05-02T15:10:49.999Z</time></trkpt><trkpt lat="40.90301198526454" lon="9.079576372140014"><ele>464.0</ele><time>2026-05-02T15:10:50.999Z</time></trkpt><trkpt lat="40.90316873662144" lon="9.079610010853852"><ele>464.0</ele><time>2026-05-02T15:10:51.999Z</time></trkpt><trkpt lat="40.90332819972418" lon="9.079625321595493"><ele>464.0</ele><time>2026-05-02T15:10:52.999Z</time></trkpt><trkpt lat="40.903489424457746" lon="9.079620693167426"><ele>463.66666666666663</ele><time>2026-05-02T15:10:53.999Z</time></trkpt><trkpt lat="40.903640206458235" lon="9.07956481048646"><ele>463.33333333333337</ele><time>2026-05-02T15:10:54.999Z</time></trkpt><trkpt lat="40.90378506768183" lon="9.079496935886276"><ele>463.0</ele><time>2026-05-02T15:10:55.999Z</time></trkpt><trkpt lat="40.90391614456564" lon="9.079399565425017"><ele>463.0</ele><time>2026-05-02T15:10:56.999Z</time></trkpt><trkpt lat="40.904053104949455" lon="9.079348793868427"><ele>463.0</ele><time>2026-05-02T15:10:57.999Z</time></trkpt><trkpt lat="40.90420731437687" lon="9.079348761136188"><ele>463.0</ele><time>2026-05-02T15:10:58.999Z</time></trkpt><trkpt lat="40.90434911730475" lon="9.079355892177452"><ele>463.0</ele><time>2026-05-02T15:10:59.999Z</time></trkpt><trkpt lat="40.90446318323551" lon="9.079430332676779"><ele>462.75</ele><time>2026-05-02T15:11:00.999Z</time></trkpt><trkpt lat="40.90449840857841" lon="9.07956105885933"><ele>462.5</ele><time>2026-05-02T15:11:01.999Z</time></trkpt><trkpt lat="40.90454290768418" lon="9.079716279149268"><ele>462.25</ele><time>2026-05-02T15:11:02.999Z</time></trkpt><trkpt lat="40.904612465192294" lon="9.079874975445744"><ele>462.0</ele><time>2026-05-02T15:11:03.999Z</time></trkpt><trkpt lat="40.90473390455688" lon="9.079977143566852"><ele>462.0</ele><time>2026-05-02T15:11:04.999Z</time></trkpt><trkpt lat="40.90488046813098" lon="9.080038981017186"><ele>462.0</ele><time>2026-05-02T15:11:05.999Z</time></trkpt><trkpt lat="40.90504450198495" lon="9.08007380060442"><ele>462.0</ele><time>2026-05-02T15:11:06.999Z</time></trkpt><trkpt lat="40.90518798554539" lon="9.080115458197723"><ele>468.5</ele><time>2026-05-02T15:11:07.999Z</time></trkpt><trkpt lat="40.9052908637117" lon="9.080229452704469"><ele>475.0</ele><time>2026-05-02T15:11:08.999Z</time></trkpt><trkpt lat="40.90532782965981" lon="9.080418448441891"><ele>481.5</ele><time>2026-05-02T15:11:09.999Z</time></trkpt><trkpt lat="40.90543420412278" lon="9.080571594782493"><ele>488.0</ele><time>2026-05-02T15:11:10.999Z</time></trkpt><trkpt lat="40.905547439124675" lon="9.080739879024"><ele>491.66666666666663</ele><time>2026-05-02T15:11:11.999Z</time></trkpt><trkpt lat="40.905686400573124" lon="9.080888611847566"><ele>495.33333333333337</ele><time>2026-05-02T15:11:12.999Z</time></trkpt><trkpt lat="40.90581335065299" lon="9.081024357494304"><ele>499.0</ele><time>2026-05-02T15:11:13.999Z</time></trkpt><trkpt lat="40.905950265164364" lon="9.081130615973814"><ele>499.0</ele><time>2026-05-02T15:11:14.999Z</time></trkpt><trkpt lat="40.90607877655089" lon="9.081242882690065"><ele>499.0</ele><time>2026-05-02T15:11:15.999Z</time></trkpt><trkpt lat="40.90621726238797" lon="9.081351463761493"><ele>499.0</ele><time>2026-05-02T15:11:16.999Z</time></trkpt><trkpt lat="40.90635702338825" lon="9.081474599134266"><ele>499.0</ele><time>2026-05-02T15:11:17.999Z</time></trkpt><trkpt lat="40.90648540438531" lon="9.081591963428579"><ele>499.0</ele><time>2026-05-02T15:11:18.999Z</time></trkpt><trkpt lat="40.906592627954346" lon="9.081749833743396"><ele>499.0</ele><time>2026-05-02T15:11:19.999Z</time></trkpt><trkpt lat="40.906689224579594" lon="9.081914415176978"><ele>498.6666666666667</ele><time>2026-05-02T15:11:20.999Z</time></trkpt><trkpt lat="40.906774839316114" lon="9.082089762061209"><ele>498.33333333333337</ele><time>2026-05-02T15:11:21.999Z</time></trkpt><trkpt lat="40.9068506376057" lon="9.082263075479519"><ele>498.0</ele><time>2026-05-02T15:11:22.999Z</time></trkpt><trkpt lat="40.906922721857555" lon="9.082441502261993"><ele>493.0</ele><time>2026-05-02T15:11:23.999Z</time></trkpt><trkpt lat="40.907013285836825" lon="9.082607266803267"><ele>488.0</ele><time>2026-05-02T15:11:24.999Z</time></trkpt><trkpt lat="40.90712325937848" lon="9.082783650527839"><ele>483.0</ele><time>2026-05-02T15:11:25.999Z</time></trkpt><trkpt lat="40.907234724234854" lon="9.08296330503714"><ele>483.0</ele><time>2026-05-02T15:11:26.999Z</time></trkpt><trkpt lat="40.90733548640229" lon="9.083130304264143"><ele>483.0</ele><time>2026-05-02T15:11:27.999Z</time></trkpt><trkpt lat="40.90743854741729" lon="9.083294924669682"><ele>483.0</ele><time>2026-05-02T15:11:28.999Z</time></trkpt><trkpt lat="40.90753691876658" lon="9.083458523316772"><ele>483.75</ele><time>2026-05-02T15:11:29.999Z</time></trkpt><trkpt lat="40.907628294370646" lon="9.083614279172778"><ele>484.5</ele><time>2026-05-02T15:11:30.999Z</time></trkpt><trkpt lat="40.907691883236446" lon="9.083766152133343"><ele>485.25</ele><time>2026-05-02T15:11:31.999Z</time></trkpt><trkpt lat="40.90774537427469" lon="9.083912155900302"><ele>486.0</ele><time>2026-05-02T15:11:32.999Z</time></trkpt><trkpt lat="40.90779443746761" lon="9.084076518026478"><ele>484.25</ele><time>2026-05-02T15:11:33.999Z</time></trkpt><trkpt lat="40.907822152349496" lon="9.084244166898612"><ele>482.5</ele><time>2026-05-02T15:11:34.999Z</time></trkpt><trkpt lat="40.90782667325324" lon="9.08441899459426"><ele>480.75</ele><time>2026-05-02T15:11:35.999Z</time></trkpt><trkpt lat="40.907823950709606" lon="9.084596989133658"><ele>479.0</ele><time>2026-05-02T15:11:36.999Z</time></trkpt><trkpt lat="40.9078213484251" lon="9.084788949301982"><ele>477.66666666666663</ele><time>2026-05-02T15:11:37.999Z</time></trkpt><trkpt lat="40.90781972847163" lon="9.084984719949547"><ele>476.33333333333337</ele><time>2026-05-02T15:11:38.999Z</time></trkpt><trkpt lat="40.90782780267372" lon="9.08517731283791"><ele>475.0</ele><time>2026-05-02T15:11:40Z</time></trkpt><trkpt lat="40.907830868068494" lon="9.085385116816868"><ele>475.0</ele><time>2026-05-02T15:11:41Z</time></trkpt><trkpt lat="40.907832217399964" lon="9.085599550122561"><ele>475.0</ele><time>2026-05-02T15:11:42Z</time></trkpt><trkpt lat="40.90783674364254" lon="9.085815485020678"><ele>475.0</ele><time>2026-05-02T15:11:43Z</time></trkpt><trkpt lat="40.90783794946669" lon="9.086027639490567"><ele>475.33333333333337</ele><time>2026-05-02T15:11:44Z</time></trkpt><trkpt lat="40.907838909179844" lon="9.086252882793007"><ele>475.66666666666663</ele><time>2026-05-02T15:11:45Z</time></trkpt><trkpt lat="40.90784386409793" lon="9.0864853863905"><ele>476.0</ele><time>2026-05-02T15:11:46Z</time></trkpt><trkpt lat="40.907845394196976" lon="9.086726912197324"><ele>476.3333333333333</ele><time>2026-05-02T15:11:47Z</time></trkpt><trkpt lat="40.90784988708619" lon="9.086963736195031"><ele>476.66666666666663</ele><time>2026-05-02T15:11:48Z</time></trkpt><trkpt lat="40.907854056054674" lon="9.087202544902084"><ele>477.0</ele><time>2026-05-02T15:11:49Z</time></trkpt><trkpt lat="40.90785699013488" lon="9.087447618002372"><ele>477.0</ele><time>2026-05-02T15:11:50Z</time></trkpt><trkpt lat="40.9078589050298" lon="9.087686937589158"><ele>477.0</ele><time>2026-05-02T15:11:51Z</time></trkpt><trkpt lat="40.90786059231138" lon="9.087920708087266"><ele>477.0</ele><time>2026-05-02T15:11:52Z</time></trkpt><trkpt lat="40.907850180268476" lon="9.088156329224557"><ele>477.33333333333337</ele><time>2026-05-02T15:11:53Z</time></trkpt><trkpt lat="40.90781487127195" lon="9.088387474605845"><ele>477.6666666666667</ele><time>2026-05-02T15:11:54Z</time></trkpt><trkpt lat="40.90775611788454" lon="9.088614313995983"><ele>478.0</ele><time>2026-05-02T15:11:55Z</time></trkpt><trkpt lat="40.90768549203833" lon="9.08883952870434"><ele>478.0</ele><time>2026-05-02T15:11:56Z</time></trkpt><trkpt lat="40.90761474317342" lon="9.089070751006634"><ele>478.0</ele><time>2026-05-02T15:11:57Z</time></trkpt><trkpt lat="40.90754798648557" lon="9.08930446409085"><ele>478.0</ele><time>2026-05-02T15:11:58Z</time></trkpt><trkpt lat="40.907480499106754" lon="9.089533727941568"><ele>481.0</ele><time>2026-05-02T15:11:59Z</time></trkpt><trkpt lat="40.90742052406826" lon="9.089750646735988"><ele>484.0</ele><time>2026-05-02T15:12:00Z</time></trkpt><trkpt lat="40.907360993528854" lon="9.089969445093304"><ele>487.0</ele><time>2026-05-02T15:12:01Z</time></trkpt><trkpt lat="40.90730065213588" lon="9.090192287100054"><ele>487.0</ele><time>2026-05-02T15:12:02Z</time></trkpt><trkpt lat="40.907249007298255" lon="9.090407299316855"><ele>487.0</ele><time>2026-05-02T15:12:03Z</time></trkpt><trkpt lat="40.90723192059851" lon="9.090620581338639"><ele>487.0</ele><time>2026-05-02T15:12:04Z</time></trkpt><trkpt lat="40.90726327683837" lon="9.090846203920846"><ele>487.33333333333337</ele><time>2026-05-02T15:12:05.001Z</time></trkpt><trkpt lat="40.907312339330275" lon="9.091061476680181"><ele>487.66666666666663</ele><time>2026-05-02T15:12:06.001Z</time></trkpt><trkpt lat="40.90736472269037" lon="9.091276549975518"><ele>488.0</ele><time>2026-05-02T15:12:07.001Z</time></trkpt><trkpt lat="40.90740481166381" lon="9.091489355857444"><ele>489.0</ele><time>2026-05-02T15:12:08.001Z</time></trkpt><trkpt lat="40.907427336434736" lon="9.091708789445338"><ele>490.0</ele><time>2026-05-02T15:12:09.001Z</time></trkpt><trkpt lat="40.9074086886193" lon="9.091914573142327"><ele>491.0</ele><time>2026-05-02T15:12:10.001Z</time></trkpt><trkpt lat="40.907334803485014" lon="9.09211007408764"><ele>491.0</ele><time>2026-05-02T15:12:11.001Z</time></trkpt><trkpt lat="40.90724814056339" lon="9.09229773236079"><ele>491.0</ele><time>2026-05-02T15:12:12.001Z</time></trkpt><trkpt lat="40.907173560835496" lon="9.092488004293992"><ele>491.0</ele><time>2026-05-02T15:12:13.001Z</time></trkpt><trkpt lat="40.90709910487481" lon="9.092690741504917"><ele>490.66666666666663</ele><time>2026-05-02T15:12:14.001Z</time></trkpt><trkpt lat="40.9070494227574" lon="9.092906997319346"><ele>490.33333333333337</ele><time>2026-05-02T15:12:15.001Z</time></trkpt><trkpt lat="40.907028373543426" lon="9.093141366002198"><ele>490.0</ele><time>2026-05-02T15:12:16.001Z</time></trkpt><trkpt lat="40.90703673427556" lon="9.093369734158154"><ele>490.0</ele><time>2026-05-02T15:12:17.001Z</time></trkpt><trkpt lat="40.90705512681846" lon="9.093602891834974"><ele>490.0</ele><time>2026-05-02T15:12:18.001Z</time></trkpt><trkpt lat="40.90707150531191" lon="9.093838693784361"><ele>490.0</ele><time>2026-05-02T15:12:19.001Z</time></trkpt><trkpt lat="40.907083595029434" lon="9.094074986768343"><ele>493.0</ele><time>2026-05-02T15:12:20.001Z</time></trkpt><trkpt lat="40.907088769080005" lon="9.094308738352638"><ele>496.0</ele><time>2026-05-02T15:12:21.001Z</time></trkpt><trkpt lat="40.90709526389514" lon="9.094538343846956"><ele>499.0</ele><time>2026-05-02T15:12:22.001Z</time></trkpt><trkpt lat="40.90708417551328" lon="9.094744992038924"><ele>501.6666666666667</ele><time>2026-05-02T15:12:23.001Z</time></trkpt><trkpt lat="40.90704139981752" lon="9.094941093266765"><ele>504.33333333333337</ele><time>2026-05-02T15:12:24.001Z</time></trkpt><trkpt lat="40.90696266374746" lon="9.095119882375515"><ele>507.0</ele><time>2026-05-02T15:12:25.001Z</time></trkpt><trkpt lat="40.90686745974445" lon="9.095291015363268"><ele>507.0</ele><time>2026-05-02T15:12:26.001Z</time></trkpt><trkpt lat="40.90676053955388" lon="9.095446954058579"><ele>507.0</ele><time>2026-05-02T15:12:27Z</time></trkpt><trkpt lat="40.90666832796364" lon="9.095572801960584"><ele>507.0</ele><time>2026-05-02T15:12:28Z</time></trkpt><trkpt lat="40.90657839759116" lon="9.095677339800547"><ele>507.0</ele><time>2026-05-02T15:12:29Z</time></trkpt><trkpt lat="40.906454181472505" lon="9.095690940431"><ele>508.25</ele><time>2026-05-02T15:12:30Z</time></trkpt><trkpt lat="40.90631883579807" lon="9.09570934258973"><ele>509.5</ele><time>2026-05-02T15:12:31Z</time></trkpt><trkpt lat="40.90617988017373" lon="9.095702405128968"><ele>510.75</ele><time>2026-05-02T15:12:32Z</time></trkpt><trkpt lat="40.906048840002974" lon="9.095717440187578"><ele>512.0</ele><time>2026-05-02T15:12:33Z</time></trkpt><trkpt lat="40.90592743190285" lon="9.095767474488985"><ele>511.5</ele><time>2026-05-02T15:12:34Z</time></trkpt><trkpt lat="40.90582515133415" lon="9.095842219595914"><ele>511.0</ele><time>2026-05-02T15:12:35Z</time></trkpt><trkpt lat="40.90574124673812" lon="9.09593150412488"><ele>510.5</ele><time>2026-05-02T15:12:36Z</time></trkpt><trkpt lat="40.905655648552596" lon="9.096035103772559"><ele>510.0</ele><time>2026-05-02T15:12:37Z</time></trkpt><trkpt lat="40.90557365919184" lon="9.096137882464317"><ele>510.0</ele><time>2026-05-02T15:12:38Z</time></trkpt><trkpt lat="40.90548787340405" lon="9.096245804575872"><ele>510.0</ele><time>2026-05-02T15:12:39Z</time></trkpt><trkpt lat="40.90539638209622" lon="9.096369240476479"><ele>510.0</ele><time>2026-05-02T15:12:40Z</time></trkpt><trkpt lat="40.90529928506287" lon="9.096514323145065"><ele>510.0</ele><time>2026-05-02T15:12:41Z</time></trkpt><trkpt lat="40.90520198828248" lon="9.096655511439772"><ele>510.75</ele><time>2026-05-02T15:12:42Z</time></trkpt><trkpt lat="40.90510388138682" lon="9.09679156720184"><ele>511.5</ele><time>2026-05-02T15:12:43Z</time></trkpt><trkpt lat="40.905005222486324" lon="9.096938502888964"><ele>512.25</ele><time>2026-05-02T15:12:44Z</time></trkpt><trkpt lat="40.90490204743119" lon="9.097093096668406"><ele>513.0</ele><time>2026-05-02T15:12:45Z</time></trkpt><trkpt lat="40.90480504568765" lon="9.09725278696835"><ele>513.0</ele><time>2026-05-02T15:12:46Z</time></trkpt><trkpt lat="40.90472119165613" lon="9.097415533022563"><ele>513.0</ele><time>2026-05-02T15:12:47Z</time></trkpt><trkpt lat="40.90465197389439" lon="9.097581492335927"><ele>513.0</ele><time>2026-05-02T15:12:48Z</time></trkpt><trkpt lat="40.904610146479406" lon="9.097732858464328"><ele>513.0</ele><time>2026-05-02T15:12:49Z</time></trkpt><trkpt lat="40.90457229294087" lon="9.097893008824752"><ele>515.0</ele><time>2026-05-02T15:12:50Z</time></trkpt><trkpt lat="40.90453441424488" lon="9.098047855204742"><ele>517.0</ele><time>2026-05-02T15:12:51Z</time></trkpt><trkpt lat="40.90450177691394" lon="9.098203983918692"><ele>519.0</ele><time>2026-05-02T15:12:52Z</time></trkpt><trkpt lat="40.90447127170188" lon="9.098351556629442"><ele>521.0</ele><time>2026-05-02T15:12:53Z</time></trkpt><trkpt lat="40.90445453666625" lon="9.098496057568402"><ele>532.0</ele><time>2026-05-02T15:12:54Z</time></trkpt></trkseg></trk></gpx>